<?xml version="1.0" encoding="UTF-8" standalone="no" ?>
<gpx xmlns="http://www.topografix.com/GPX/1/1" xmlns:xsi="http://www.w3.org/2001/XMLSchema-instance" xsi:schemaLocation="http://www.topografix.com/GPX/1/1 http://www.topografix.com/GPX/1/1/gpx.xsd" version="1.1" creator="VisuGPX - https://www.visugpx.com">
  <metadata>
    <name>Montagne de la Loube</name>
  </metadata>
  <trk>
    <name><![CDATA[Montagne de la Loube_1]]></name>
    <trkseg>
      <trkpt lat="43.34272" lon="5.97444">
        <ele>381</ele>
        <time>2019-12-17T07:37:39.000Z</time>
      </trkpt>
      <trkpt lat="43.34272" lon="5.97444">
        <ele>349</ele>
        <time>2019-12-17T07:37:42.000Z</time>
      </trkpt>
      <trkpt lat="43.34272" lon="5.97444">
        <ele>346</ele>
        <time>2019-12-17T07:37:43.000Z</time>
      </trkpt>
      <trkpt lat="43.34279" lon="5.97446">
        <ele>352</ele>
        <time>2019-12-17T07:37:44.000Z</time>
      </trkpt>
      <trkpt lat="43.34273" lon="5.97444">
        <ele>373</ele>
        <time>2019-12-17T07:37:45.000Z</time>
      </trkpt>
      <trkpt lat="43.34271" lon="5.97444">
        <ele>378</ele>
        <time>2019-12-17T07:37:46.000Z</time>
      </trkpt>
      <trkpt lat="43.3427" lon="5.97443">
        <ele>379</ele>
        <time>2019-12-17T07:37:47.000Z</time>
      </trkpt>
      <trkpt lat="43.3427" lon="5.97442">
        <ele>380</ele>
        <time>2019-12-17T07:37:48.000Z</time>
      </trkpt>
      <trkpt lat="43.3427" lon="5.97442">
        <ele>381</ele>
        <time>2019-12-17T07:37:49.000Z</time>
      </trkpt>
      <trkpt lat="43.3427" lon="5.97443">
        <ele>381</ele>
        <time>2019-12-17T07:37:50.000Z</time>
      </trkpt>
      <trkpt lat="43.3427" lon="5.97443">
        <ele>381</ele>
        <time>2019-12-17T07:37:51.000Z</time>
      </trkpt>
      <trkpt lat="43.3427" lon="5.97444">
        <ele>381</ele>
        <time>2019-12-17T07:37:52.000Z</time>
      </trkpt>
      <trkpt lat="43.34269" lon="5.97445">
        <ele>381</ele>
        <time>2019-12-17T07:37:53.000Z</time>
      </trkpt>
      <trkpt lat="43.34269" lon="5.97445">
        <ele>381</ele>
        <time>2019-12-17T07:37:54.000Z</time>
      </trkpt>
      <trkpt lat="43.34269" lon="5.97445">
        <ele>381</ele>
        <time>2019-12-17T07:37:55.000Z</time>
      </trkpt>
      <trkpt lat="43.34268" lon="5.97446">
        <ele>381</ele>
        <time>2019-12-17T07:37:56.000Z</time>
      </trkpt>
      <trkpt lat="43.34268" lon="5.97446">
        <ele>382</ele>
        <time>2019-12-17T07:37:57.000Z</time>
      </trkpt>
      <trkpt lat="43.34267" lon="5.97446">
        <ele>382</ele>
        <time>2019-12-17T07:37:58.000Z</time>
      </trkpt>
      <trkpt lat="43.34267" lon="5.97445">
        <ele>382</ele>
        <time>2019-12-17T07:37:59.000Z</time>
      </trkpt>
      <trkpt lat="43.34267" lon="5.97445">
        <ele>382</ele>
        <time>2019-12-17T07:38:00.000Z</time>
      </trkpt>
      <trkpt lat="43.34267" lon="5.97445">
        <ele>382</ele>
        <time>2019-12-17T07:38:01.000Z</time>
      </trkpt>
      <trkpt lat="43.34268" lon="5.97445">
        <ele>382</ele>
        <time>2019-12-17T07:38:02.000Z</time>
      </trkpt>
      <trkpt lat="43.34268" lon="5.97445">
        <ele>381</ele>
        <time>2019-12-17T07:38:03.000Z</time>
      </trkpt>
      <trkpt lat="43.34268" lon="5.97445">
        <ele>381</ele>
        <time>2019-12-17T07:38:04.000Z</time>
      </trkpt>
      <trkpt lat="43.34269" lon="5.97446">
        <ele>381</ele>
        <time>2019-12-17T07:38:05.000Z</time>
      </trkpt>
      <trkpt lat="43.34269" lon="5.97446">
        <ele>381</ele>
        <time>2019-12-17T07:38:06.000Z</time>
      </trkpt>
      <trkpt lat="43.34269" lon="5.97446">
        <ele>381</ele>
        <time>2019-12-17T07:38:07.000Z</time>
      </trkpt>
      <trkpt lat="43.34269" lon="5.97445">
        <ele>381</ele>
        <time>2019-12-17T07:38:08.000Z</time>
      </trkpt>
      <trkpt lat="43.34269" lon="5.97445">
        <ele>381</ele>
        <time>2019-12-17T07:38:09.000Z</time>
      </trkpt>
      <trkpt lat="43.34269" lon="5.97445">
        <ele>381</ele>
        <time>2019-12-17T07:38:10.000Z</time>
      </trkpt>
      <trkpt lat="43.34269" lon="5.97445">
        <ele>380</ele>
        <time>2019-12-17T07:38:11.000Z</time>
      </trkpt>
      <trkpt lat="43.34269" lon="5.97446">
        <ele>380</ele>
        <time>2019-12-17T07:38:12.000Z</time>
      </trkpt>
      <trkpt lat="43.3427" lon="5.97446">
        <ele>380</ele>
        <time>2019-12-17T07:38:13.000Z</time>
      </trkpt>
      <trkpt lat="43.3427" lon="5.97446">
        <ele>380</ele>
        <time>2019-12-17T07:38:14.000Z</time>
      </trkpt>
      <trkpt lat="43.34271" lon="5.97446">
        <ele>379</ele>
        <time>2019-12-17T07:38:15.000Z</time>
      </trkpt>
      <trkpt lat="43.3427" lon="5.97447">
        <ele>379</ele>
        <time>2019-12-17T07:38:16.000Z</time>
      </trkpt>
      <trkpt lat="43.3427" lon="5.97447">
        <ele>379</ele>
        <time>2019-12-17T07:38:17.000Z</time>
      </trkpt>
      <trkpt lat="43.3427" lon="5.97448">
        <ele>379</ele>
        <time>2019-12-17T07:38:18.000Z</time>
      </trkpt>
      <trkpt lat="43.34271" lon="5.97448">
        <ele>378</ele>
        <time>2019-12-17T07:38:19.000Z</time>
      </trkpt>
      <trkpt lat="43.34271" lon="5.97448">
        <ele>378</ele>
        <time>2019-12-17T07:38:20.000Z</time>
      </trkpt>
      <trkpt lat="43.34271" lon="5.97448">
        <ele>378</ele>
        <time>2019-12-17T07:38:21.000Z</time>
      </trkpt>
      <trkpt lat="43.34271" lon="5.97449">
        <ele>378</ele>
        <time>2019-12-17T07:38:22.000Z</time>
      </trkpt>
      <trkpt lat="43.34271" lon="5.97449">
        <ele>378</ele>
        <time>2019-12-17T07:38:23.000Z</time>
      </trkpt>
      <trkpt lat="43.34271" lon="5.97449">
        <ele>378</ele>
        <time>2019-12-17T07:38:24.000Z</time>
      </trkpt>
      <trkpt lat="43.34271" lon="5.97449">
        <ele>377</ele>
        <time>2019-12-17T07:38:25.000Z</time>
      </trkpt>
      <trkpt lat="43.34271" lon="5.97448">
        <ele>377</ele>
        <time>2019-12-17T07:38:26.000Z</time>
      </trkpt>
      <trkpt lat="43.34272" lon="5.97448">
        <ele>377</ele>
        <time>2019-12-17T07:38:27.000Z</time>
      </trkpt>
      <trkpt lat="43.34272" lon="5.97448">
        <ele>377</ele>
        <time>2019-12-17T07:38:28.000Z</time>
      </trkpt>
      <trkpt lat="43.34272" lon="5.97448">
        <ele>377</ele>
        <time>2019-12-17T07:38:29.000Z</time>
      </trkpt>
      <trkpt lat="43.34272" lon="5.97448">
        <ele>377</ele>
        <time>2019-12-17T07:38:30.000Z</time>
      </trkpt>
      <trkpt lat="43.34272" lon="5.97448">
        <ele>377</ele>
        <time>2019-12-17T07:38:31.000Z</time>
      </trkpt>
      <trkpt lat="43.34272" lon="5.97448">
        <ele>377</ele>
        <time>2019-12-17T07:38:32.000Z</time>
      </trkpt>
      <trkpt lat="43.34272" lon="5.97448">
        <ele>377</ele>
        <time>2019-12-17T07:38:33.000Z</time>
      </trkpt>
      <trkpt lat="43.34272" lon="5.97448">
        <ele>377</ele>
        <time>2019-12-17T07:38:34.000Z</time>
      </trkpt>
      <trkpt lat="43.34272" lon="5.97448">
        <ele>376</ele>
        <time>2019-12-17T07:38:35.000Z</time>
      </trkpt>
      <trkpt lat="43.34272" lon="5.97448">
        <ele>376</ele>
        <time>2019-12-17T07:38:36.000Z</time>
      </trkpt>
      <trkpt lat="43.34272" lon="5.97448">
        <ele>376</ele>
        <time>2019-12-17T07:38:37.000Z</time>
      </trkpt>
      <trkpt lat="43.34272" lon="5.97448">
        <ele>376</ele>
        <time>2019-12-17T07:38:38.000Z</time>
      </trkpt>
      <trkpt lat="43.34272" lon="5.97448">
        <ele>376</ele>
        <time>2019-12-17T07:38:39.000Z</time>
      </trkpt>
      <trkpt lat="43.34271" lon="5.97447">
        <ele>376</ele>
        <time>2019-12-17T07:38:40.000Z</time>
      </trkpt>
      <trkpt lat="43.34271" lon="5.97447">
        <ele>376</ele>
        <time>2019-12-17T07:38:41.000Z</time>
      </trkpt>
      <trkpt lat="43.34271" lon="5.97447">
        <ele>376</ele>
        <time>2019-12-17T07:38:42.000Z</time>
      </trkpt>
      <trkpt lat="43.34271" lon="5.97447">
        <ele>376</ele>
        <time>2019-12-17T07:38:43.000Z</time>
      </trkpt>
      <trkpt lat="43.34271" lon="5.97447">
        <ele>376</ele>
        <time>2019-12-17T07:38:44.000Z</time>
      </trkpt>
      <trkpt lat="43.34271" lon="5.97447">
        <ele>376</ele>
        <time>2019-12-17T07:38:45.000Z</time>
      </trkpt>
      <trkpt lat="43.34271" lon="5.97447">
        <ele>376</ele>
        <time>2019-12-17T07:38:46.000Z</time>
      </trkpt>
      <trkpt lat="43.34271" lon="5.97447">
        <ele>375</ele>
        <time>2019-12-17T07:38:47.000Z</time>
      </trkpt>
      <trkpt lat="43.34271" lon="5.97447">
        <ele>375</ele>
        <time>2019-12-17T07:38:48.000Z</time>
      </trkpt>
      <trkpt lat="43.34271" lon="5.97447">
        <ele>375</ele>
        <time>2019-12-17T07:38:49.000Z</time>
      </trkpt>
      <trkpt lat="43.34271" lon="5.97447">
        <ele>375</ele>
        <time>2019-12-17T07:38:50.000Z</time>
      </trkpt>
      <trkpt lat="43.34271" lon="5.97447">
        <ele>375</ele>
        <time>2019-12-17T07:38:51.000Z</time>
      </trkpt>
      <trkpt lat="43.34271" lon="5.97447">
        <ele>375</ele>
        <time>2019-12-17T07:38:52.000Z</time>
      </trkpt>
      <trkpt lat="43.34271" lon="5.97447">
        <ele>375</ele>
        <time>2019-12-17T07:38:53.000Z</time>
      </trkpt>
      <trkpt lat="43.34271" lon="5.97447">
        <ele>375</ele>
        <time>2019-12-17T07:38:54.000Z</time>
      </trkpt>
      <trkpt lat="43.34271" lon="5.97447">
        <ele>375</ele>
        <time>2019-12-17T07:38:55.000Z</time>
      </trkpt>
      <trkpt lat="43.34271" lon="5.97447">
        <ele>375</ele>
        <time>2019-12-17T07:38:56.000Z</time>
      </trkpt>
      <trkpt lat="43.34271" lon="5.97447">
        <ele>375</ele>
        <time>2019-12-17T07:38:57.000Z</time>
      </trkpt>
      <trkpt lat="43.3427" lon="5.97447">
        <ele>375</ele>
        <time>2019-12-17T07:38:58.000Z</time>
      </trkpt>
      <trkpt lat="43.3427" lon="5.97447">
        <ele>375</ele>
        <time>2019-12-17T07:38:59.000Z</time>
      </trkpt>
      <trkpt lat="43.3427" lon="5.97447">
        <ele>375</ele>
        <time>2019-12-17T07:39:00.000Z</time>
      </trkpt>
      <trkpt lat="43.3427" lon="5.97446">
        <ele>375</ele>
        <time>2019-12-17T07:39:01.000Z</time>
      </trkpt>
      <trkpt lat="43.3427" lon="5.97446">
        <ele>375</ele>
        <time>2019-12-17T07:39:02.000Z</time>
      </trkpt>
      <trkpt lat="43.3427" lon="5.97446">
        <ele>375</ele>
        <time>2019-12-17T07:39:03.000Z</time>
      </trkpt>
      <trkpt lat="43.3427" lon="5.97446">
        <ele>375</ele>
        <time>2019-12-17T07:39:04.000Z</time>
      </trkpt>
      <trkpt lat="43.3427" lon="5.97446">
        <ele>375</ele>
        <time>2019-12-17T07:39:05.000Z</time>
      </trkpt>
      <trkpt lat="43.3427" lon="5.97447">
        <ele>375</ele>
        <time>2019-12-17T07:39:06.000Z</time>
      </trkpt>
      <trkpt lat="43.3427" lon="5.97447">
        <ele>375</ele>
        <time>2019-12-17T07:39:07.000Z</time>
      </trkpt>
      <trkpt lat="43.3427" lon="5.97447">
        <ele>375</ele>
        <time>2019-12-17T07:39:08.000Z</time>
      </trkpt>
      <trkpt lat="43.3427" lon="5.97447">
        <ele>375</ele>
        <time>2019-12-17T07:39:09.000Z</time>
      </trkpt>
      <trkpt lat="43.3427" lon="5.97447">
        <ele>375</ele>
        <time>2019-12-17T07:39:10.000Z</time>
      </trkpt>
      <trkpt lat="43.3427" lon="5.97447">
        <ele>375</ele>
        <time>2019-12-17T07:39:11.000Z</time>
      </trkpt>
      <trkpt lat="43.3427" lon="5.97447">
        <ele>375</ele>
        <time>2019-12-17T07:39:12.000Z</time>
      </trkpt>
      <trkpt lat="43.3427" lon="5.97446">
        <ele>375</ele>
        <time>2019-12-17T07:39:13.000Z</time>
      </trkpt>
      <trkpt lat="43.3427" lon="5.97446">
        <ele>375</ele>
        <time>2019-12-17T07:39:14.000Z</time>
      </trkpt>
      <trkpt lat="43.3427" lon="5.97446">
        <ele>375</ele>
        <time>2019-12-17T07:39:15.000Z</time>
      </trkpt>
      <trkpt lat="43.3427" lon="5.97446">
        <ele>375</ele>
        <time>2019-12-17T07:39:16.000Z</time>
      </trkpt>
      <trkpt lat="43.3427" lon="5.97446">
        <ele>375</ele>
        <time>2019-12-17T07:39:17.000Z</time>
      </trkpt>
      <trkpt lat="43.3427" lon="5.97446">
        <ele>375</ele>
        <time>2019-12-17T07:39:18.000Z</time>
      </trkpt>
      <trkpt lat="43.3427" lon="5.97446">
        <ele>375</ele>
        <time>2019-12-17T07:39:19.000Z</time>
      </trkpt>
      <trkpt lat="43.3427" lon="5.97446">
        <ele>375</ele>
        <time>2019-12-17T07:39:20.000Z</time>
      </trkpt>
      <trkpt lat="43.3427" lon="5.97446">
        <ele>375</ele>
        <time>2019-12-17T07:39:21.000Z</time>
      </trkpt>
      <trkpt lat="43.3427" lon="5.97446">
        <ele>375</ele>
        <time>2019-12-17T07:39:22.000Z</time>
      </trkpt>
      <trkpt lat="43.3427" lon="5.97445">
        <ele>375</ele>
        <time>2019-12-17T07:39:23.000Z</time>
      </trkpt>
      <trkpt lat="43.3427" lon="5.97445">
        <ele>375</ele>
        <time>2019-12-17T07:39:24.000Z</time>
      </trkpt>
      <trkpt lat="43.3427" lon="5.97446">
        <ele>375</ele>
        <time>2019-12-17T07:39:25.000Z</time>
      </trkpt>
      <trkpt lat="43.3427" lon="5.97446">
        <ele>375</ele>
        <time>2019-12-17T07:39:26.000Z</time>
      </trkpt>
      <trkpt lat="43.3427" lon="5.97446">
        <ele>375</ele>
        <time>2019-12-17T07:39:27.000Z</time>
      </trkpt>
      <trkpt lat="43.3427" lon="5.97446">
        <ele>375</ele>
        <time>2019-12-17T07:39:28.000Z</time>
      </trkpt>
      <trkpt lat="43.3427" lon="5.97446">
        <ele>375</ele>
        <time>2019-12-17T07:39:29.000Z</time>
      </trkpt>
      <trkpt lat="43.3427" lon="5.97446">
        <ele>375</ele>
        <time>2019-12-17T07:39:30.000Z</time>
      </trkpt>
      <trkpt lat="43.3427" lon="5.97446">
        <ele>375</ele>
        <time>2019-12-17T07:39:31.000Z</time>
      </trkpt>
      <trkpt lat="43.3427" lon="5.97446">
        <ele>376</ele>
        <time>2019-12-17T07:39:32.000Z</time>
      </trkpt>
      <trkpt lat="43.3427" lon="5.97446">
        <ele>376</ele>
        <time>2019-12-17T07:39:33.000Z</time>
      </trkpt>
      <trkpt lat="43.3427" lon="5.97446">
        <ele>376</ele>
        <time>2019-12-17T07:39:34.000Z</time>
      </trkpt>
      <trkpt lat="43.3427" lon="5.97446">
        <ele>376</ele>
        <time>2019-12-17T07:39:35.000Z</time>
      </trkpt>
      <trkpt lat="43.3427" lon="5.97446">
        <ele>376</ele>
        <time>2019-12-17T07:39:36.000Z</time>
      </trkpt>
      <trkpt lat="43.3427" lon="5.97446">
        <ele>376</ele>
        <time>2019-12-17T07:39:37.000Z</time>
      </trkpt>
      <trkpt lat="43.3427" lon="5.97446">
        <ele>376</ele>
        <time>2019-12-17T07:39:38.000Z</time>
      </trkpt>
      <trkpt lat="43.3427" lon="5.97446">
        <ele>376</ele>
        <time>2019-12-17T07:39:39.000Z</time>
      </trkpt>
      <trkpt lat="43.3427" lon="5.97446">
        <ele>376</ele>
        <time>2019-12-17T07:39:40.000Z</time>
      </trkpt>
      <trkpt lat="43.3427" lon="5.97446">
        <ele>376</ele>
        <time>2019-12-17T07:39:41.000Z</time>
      </trkpt>
      <trkpt lat="43.3427" lon="5.97446">
        <ele>376</ele>
        <time>2019-12-17T07:39:42.000Z</time>
      </trkpt>
      <trkpt lat="43.3427" lon="5.97446">
        <ele>376</ele>
        <time>2019-12-17T07:39:43.000Z</time>
      </trkpt>
      <trkpt lat="43.3427" lon="5.97446">
        <ele>376</ele>
        <time>2019-12-17T07:39:44.000Z</time>
      </trkpt>
      <trkpt lat="43.3427" lon="5.97446">
        <ele>376</ele>
        <time>2019-12-17T07:39:45.000Z</time>
      </trkpt>
      <trkpt lat="43.3427" lon="5.97446">
        <ele>376</ele>
        <time>2019-12-17T07:39:46.000Z</time>
      </trkpt>
      <trkpt lat="43.3427" lon="5.97446">
        <ele>376</ele>
        <time>2019-12-17T07:39:47.000Z</time>
      </trkpt>
      <trkpt lat="43.3427" lon="5.97446">
        <ele>376</ele>
        <time>2019-12-17T07:39:48.000Z</time>
      </trkpt>
      <trkpt lat="43.3427" lon="5.97446">
        <ele>376</ele>
        <time>2019-12-17T07:39:49.000Z</time>
      </trkpt>
      <trkpt lat="43.34269" lon="5.97446">
        <ele>376</ele>
        <time>2019-12-17T07:39:50.000Z</time>
      </trkpt>
      <trkpt lat="43.34269" lon="5.97446">
        <ele>377</ele>
        <time>2019-12-17T07:39:51.000Z</time>
      </trkpt>
      <trkpt lat="43.34269" lon="5.97446">
        <ele>377</ele>
        <time>2019-12-17T07:39:52.000Z</time>
      </trkpt>
      <trkpt lat="43.34269" lon="5.97446">
        <ele>377</ele>
        <time>2019-12-17T07:39:53.000Z</time>
      </trkpt>
      <trkpt lat="43.34269" lon="5.97446">
        <ele>377</ele>
        <time>2019-12-17T07:39:54.000Z</time>
      </trkpt>
      <trkpt lat="43.34269" lon="5.97446">
        <ele>377</ele>
        <time>2019-12-17T07:39:55.000Z</time>
      </trkpt>
      <trkpt lat="43.34269" lon="5.97446">
        <ele>377</ele>
        <time>2019-12-17T07:39:56.000Z</time>
      </trkpt>
      <trkpt lat="43.34269" lon="5.97446">
        <ele>377</ele>
        <time>2019-12-17T07:39:57.000Z</time>
      </trkpt>
      <trkpt lat="43.34269" lon="5.97446">
        <ele>377</ele>
        <time>2019-12-17T07:39:58.000Z</time>
      </trkpt>
      <trkpt lat="43.34269" lon="5.97446">
        <ele>377</ele>
        <time>2019-12-17T07:39:59.000Z</time>
      </trkpt>
      <trkpt lat="43.34269" lon="5.97446">
        <ele>377</ele>
        <time>2019-12-17T07:40:00.000Z</time>
      </trkpt>
      <trkpt lat="43.34269" lon="5.97446">
        <ele>377</ele>
        <time>2019-12-17T07:40:01.000Z</time>
      </trkpt>
      <trkpt lat="43.34269" lon="5.97446">
        <ele>377</ele>
        <time>2019-12-17T07:40:02.000Z</time>
      </trkpt>
      <trkpt lat="43.34269" lon="5.97446">
        <ele>377</ele>
        <time>2019-12-17T07:40:03.000Z</time>
      </trkpt>
      <trkpt lat="43.34269" lon="5.97447">
        <ele>377</ele>
        <time>2019-12-17T07:40:04.000Z</time>
      </trkpt>
      <trkpt lat="43.34269" lon="5.97447">
        <ele>377</ele>
        <time>2019-12-17T07:40:05.000Z</time>
      </trkpt>
      <trkpt lat="43.34269" lon="5.97448">
        <ele>377</ele>
        <time>2019-12-17T07:40:06.000Z</time>
      </trkpt>
      <trkpt lat="43.34269" lon="5.97448">
        <ele>377</ele>
        <time>2019-12-17T07:40:07.000Z</time>
      </trkpt>
      <trkpt lat="43.34269" lon="5.97448">
        <ele>377</ele>
        <time>2019-12-17T07:40:08.000Z</time>
      </trkpt>
      <trkpt lat="43.34269" lon="5.97448">
        <ele>377</ele>
        <time>2019-12-17T07:40:09.000Z</time>
      </trkpt>
      <trkpt lat="43.34269" lon="5.97448">
        <ele>377</ele>
        <time>2019-12-17T07:40:10.000Z</time>
      </trkpt>
      <trkpt lat="43.34269" lon="5.97448">
        <ele>377</ele>
        <time>2019-12-17T07:40:11.000Z</time>
      </trkpt>
      <trkpt lat="43.34269" lon="5.97448">
        <ele>377</ele>
        <time>2019-12-17T07:40:12.000Z</time>
      </trkpt>
      <trkpt lat="43.34269" lon="5.97448">
        <ele>377</ele>
        <time>2019-12-17T07:40:13.000Z</time>
      </trkpt>
      <trkpt lat="43.34269" lon="5.97448">
        <ele>377</ele>
        <time>2019-12-17T07:40:14.000Z</time>
      </trkpt>
      <trkpt lat="43.34269" lon="5.97448">
        <ele>377</ele>
        <time>2019-12-17T07:40:15.000Z</time>
      </trkpt>
      <trkpt lat="43.34269" lon="5.97448">
        <ele>377</ele>
        <time>2019-12-17T07:40:16.000Z</time>
      </trkpt>
      <trkpt lat="43.3427" lon="5.97449">
        <ele>377</ele>
        <time>2019-12-17T07:40:17.000Z</time>
      </trkpt>
      <trkpt lat="43.3427" lon="5.97449">
        <ele>377</ele>
        <time>2019-12-17T07:40:18.000Z</time>
      </trkpt>
      <trkpt lat="43.3427" lon="5.97449">
        <ele>377</ele>
        <time>2019-12-17T07:40:19.000Z</time>
      </trkpt>
      <trkpt lat="43.3427" lon="5.9745">
        <ele>377</ele>
        <time>2019-12-17T07:40:20.000Z</time>
      </trkpt>
      <trkpt lat="43.3427" lon="5.9745">
        <ele>377</ele>
        <time>2019-12-17T07:40:21.000Z</time>
      </trkpt>
      <trkpt lat="43.3427" lon="5.9745">
        <ele>377</ele>
        <time>2019-12-17T07:40:22.000Z</time>
      </trkpt>
      <trkpt lat="43.3427" lon="5.9745">
        <ele>377</ele>
        <time>2019-12-17T07:40:23.000Z</time>
      </trkpt>
      <trkpt lat="43.3427" lon="5.9745">
        <ele>377</ele>
        <time>2019-12-17T07:40:24.000Z</time>
      </trkpt>
      <trkpt lat="43.3427" lon="5.9745">
        <ele>377</ele>
        <time>2019-12-17T07:40:25.000Z</time>
      </trkpt>
      <trkpt lat="43.3427" lon="5.9745">
        <ele>377</ele>
        <time>2019-12-17T07:40:26.000Z</time>
      </trkpt>
      <trkpt lat="43.3427" lon="5.9745">
        <ele>377</ele>
        <time>2019-12-17T07:40:27.000Z</time>
      </trkpt>
      <trkpt lat="43.3427" lon="5.9745">
        <ele>377</ele>
        <time>2019-12-17T07:40:28.000Z</time>
      </trkpt>
      <trkpt lat="43.3427" lon="5.9745">
        <ele>377</ele>
        <time>2019-12-17T07:40:29.000Z</time>
      </trkpt>
      <trkpt lat="43.3427" lon="5.9745">
        <ele>377</ele>
        <time>2019-12-17T07:40:30.000Z</time>
      </trkpt>
      <trkpt lat="43.3427" lon="5.9745">
        <ele>377</ele>
        <time>2019-12-17T07:40:31.000Z</time>
      </trkpt>
      <trkpt lat="43.3427" lon="5.9745">
        <ele>377</ele>
        <time>2019-12-17T07:40:32.000Z</time>
      </trkpt>
      <trkpt lat="43.3427" lon="5.9745">
        <ele>377</ele>
        <time>2019-12-17T07:40:33.000Z</time>
      </trkpt>
      <trkpt lat="43.3427" lon="5.9745">
        <ele>377</ele>
        <time>2019-12-17T07:40:34.000Z</time>
      </trkpt>
      <trkpt lat="43.3427" lon="5.9745">
        <ele>377</ele>
        <time>2019-12-17T07:40:35.000Z</time>
      </trkpt>
      <trkpt lat="43.3427" lon="5.9745">
        <ele>377</ele>
        <time>2019-12-17T07:40:36.000Z</time>
      </trkpt>
      <trkpt lat="43.3427" lon="5.9745">
        <ele>377</ele>
        <time>2019-12-17T07:40:37.000Z</time>
      </trkpt>
      <trkpt lat="43.3427" lon="5.9745">
        <ele>377</ele>
        <time>2019-12-17T07:40:38.000Z</time>
      </trkpt>
      <trkpt lat="43.3427" lon="5.9745">
        <ele>377</ele>
        <time>2019-12-17T07:40:39.000Z</time>
      </trkpt>
      <trkpt lat="43.3427" lon="5.9745">
        <ele>377</ele>
        <time>2019-12-17T07:40:40.000Z</time>
      </trkpt>
      <trkpt lat="43.3427" lon="5.9745">
        <ele>377</ele>
        <time>2019-12-17T07:40:41.000Z</time>
      </trkpt>
      <trkpt lat="43.3427" lon="5.9745">
        <ele>377</ele>
        <time>2019-12-17T07:40:42.000Z</time>
      </trkpt>
      <trkpt lat="43.3427" lon="5.9745">
        <ele>377</ele>
        <time>2019-12-17T07:40:43.000Z</time>
      </trkpt>
      <trkpt lat="43.3427" lon="5.9745">
        <ele>377</ele>
        <time>2019-12-17T07:40:44.000Z</time>
      </trkpt>
      <trkpt lat="43.3427" lon="5.9745">
        <ele>377</ele>
        <time>2019-12-17T07:40:45.000Z</time>
      </trkpt>
      <trkpt lat="43.3427" lon="5.9745">
        <ele>377</ele>
        <time>2019-12-17T07:40:46.000Z</time>
      </trkpt>
      <trkpt lat="43.3427" lon="5.9745">
        <ele>377</ele>
        <time>2019-12-17T07:40:47.000Z</time>
      </trkpt>
      <trkpt lat="43.3427" lon="5.9745">
        <ele>377</ele>
        <time>2019-12-17T07:40:48.000Z</time>
      </trkpt>
      <trkpt lat="43.3427" lon="5.9745">
        <ele>377</ele>
        <time>2019-12-17T07:40:49.000Z</time>
      </trkpt>
      <trkpt lat="43.3427" lon="5.9745">
        <ele>377</ele>
        <time>2019-12-17T07:40:50.000Z</time>
      </trkpt>
      <trkpt lat="43.3427" lon="5.97451">
        <ele>377</ele>
        <time>2019-12-17T07:40:51.000Z</time>
      </trkpt>
      <trkpt lat="43.3427" lon="5.97451">
        <ele>377</ele>
        <time>2019-12-17T07:40:52.000Z</time>
      </trkpt>
      <trkpt lat="43.3427" lon="5.97452">
        <ele>377</ele>
        <time>2019-12-17T07:40:53.000Z</time>
      </trkpt>
      <trkpt lat="43.34271" lon="5.97453">
        <ele>376</ele>
        <time>2019-12-17T07:40:54.000Z</time>
      </trkpt>
      <trkpt lat="43.34271" lon="5.97454">
        <ele>376</ele>
        <time>2019-12-17T07:40:55.000Z</time>
      </trkpt>
      <trkpt lat="43.34271" lon="5.97454">
        <ele>376</ele>
        <time>2019-12-17T07:40:56.000Z</time>
      </trkpt>
      <trkpt lat="43.34272" lon="5.97455">
        <ele>376</ele>
        <time>2019-12-17T07:40:57.000Z</time>
      </trkpt>
      <trkpt lat="43.34273" lon="5.97455">
        <ele>375</ele>
        <time>2019-12-17T07:40:58.000Z</time>
      </trkpt>
      <trkpt lat="43.34273" lon="5.97456">
        <ele>375</ele>
        <time>2019-12-17T07:40:59.000Z</time>
      </trkpt>
      <trkpt lat="43.34274" lon="5.97456">
        <ele>375</ele>
        <time>2019-12-17T07:41:00.000Z</time>
      </trkpt>
      <trkpt lat="43.34274" lon="5.97457">
        <ele>375</ele>
        <time>2019-12-17T07:41:01.000Z</time>
      </trkpt>
      <trkpt lat="43.34274" lon="5.97457">
        <ele>375</ele>
        <time>2019-12-17T07:41:02.000Z</time>
      </trkpt>
      <trkpt lat="43.34274" lon="5.97457">
        <ele>375</ele>
        <time>2019-12-17T07:41:03.000Z</time>
      </trkpt>
      <trkpt lat="43.34274" lon="5.97457">
        <ele>374</ele>
        <time>2019-12-17T07:41:04.000Z</time>
      </trkpt>
      <trkpt lat="43.34274" lon="5.97457">
        <ele>374</ele>
        <time>2019-12-17T07:41:05.000Z</time>
      </trkpt>
      <trkpt lat="43.34274" lon="5.97457">
        <ele>374</ele>
        <time>2019-12-17T07:41:06.000Z</time>
      </trkpt>
      <trkpt lat="43.34274" lon="5.97457">
        <ele>374</ele>
        <time>2019-12-17T07:41:07.000Z</time>
      </trkpt>
      <trkpt lat="43.34274" lon="5.97457">
        <ele>374</ele>
        <time>2019-12-17T07:41:08.000Z</time>
      </trkpt>
      <trkpt lat="43.34274" lon="5.97457">
        <ele>374</ele>
        <time>2019-12-17T07:41:09.000Z</time>
      </trkpt>
      <trkpt lat="43.34275" lon="5.97457">
        <ele>374</ele>
        <time>2019-12-17T07:41:10.000Z</time>
      </trkpt>
      <trkpt lat="43.34274" lon="5.97457">
        <ele>374</ele>
        <time>2019-12-17T07:41:11.000Z</time>
      </trkpt>
      <trkpt lat="43.34274" lon="5.97456">
        <ele>374</ele>
        <time>2019-12-17T07:41:12.000Z</time>
      </trkpt>
      <trkpt lat="43.34274" lon="5.97456">
        <ele>373</ele>
        <time>2019-12-17T07:41:13.000Z</time>
      </trkpt>
      <trkpt lat="43.34274" lon="5.97456">
        <ele>373</ele>
        <time>2019-12-17T07:41:14.000Z</time>
      </trkpt>
      <trkpt lat="43.34274" lon="5.97456">
        <ele>373</ele>
        <time>2019-12-17T07:41:15.000Z</time>
      </trkpt>
      <trkpt lat="43.34274" lon="5.97456">
        <ele>373</ele>
        <time>2019-12-17T07:41:16.000Z</time>
      </trkpt>
      <trkpt lat="43.34274" lon="5.97456">
        <ele>373</ele>
        <time>2019-12-17T07:41:17.000Z</time>
      </trkpt>
      <trkpt lat="43.34274" lon="5.97456">
        <ele>373</ele>
        <time>2019-12-17T07:41:18.000Z</time>
      </trkpt>
      <trkpt lat="43.34274" lon="5.97456">
        <ele>373</ele>
        <time>2019-12-17T07:41:19.000Z</time>
      </trkpt>
      <trkpt lat="43.34275" lon="5.97456">
        <ele>373</ele>
        <time>2019-12-17T07:41:20.000Z</time>
      </trkpt>
      <trkpt lat="43.34275" lon="5.97456">
        <ele>373</ele>
        <time>2019-12-17T07:41:21.000Z</time>
      </trkpt>
      <trkpt lat="43.34275" lon="5.97456">
        <ele>373</ele>
        <time>2019-12-17T07:41:22.000Z</time>
      </trkpt>
      <trkpt lat="43.34275" lon="5.97456">
        <ele>373</ele>
        <time>2019-12-17T07:41:23.000Z</time>
      </trkpt>
      <trkpt lat="43.34275" lon="5.97456">
        <ele>373</ele>
        <time>2019-12-17T07:41:24.000Z</time>
      </trkpt>
      <trkpt lat="43.34275" lon="5.97456">
        <ele>373</ele>
        <time>2019-12-17T07:41:25.000Z</time>
      </trkpt>
      <trkpt lat="43.34275" lon="5.97456">
        <ele>373</ele>
        <time>2019-12-17T07:41:26.000Z</time>
      </trkpt>
      <trkpt lat="43.34275" lon="5.97456">
        <ele>373</ele>
        <time>2019-12-17T07:41:27.000Z</time>
      </trkpt>
      <trkpt lat="43.34275" lon="5.97456">
        <ele>372</ele>
        <time>2019-12-17T07:41:28.000Z</time>
      </trkpt>
      <trkpt lat="43.34275" lon="5.97456">
        <ele>372</ele>
        <time>2019-12-17T07:41:29.000Z</time>
      </trkpt>
      <trkpt lat="43.34275" lon="5.97456">
        <ele>372</ele>
        <time>2019-12-17T07:41:30.000Z</time>
      </trkpt>
      <trkpt lat="43.34275" lon="5.97456">
        <ele>372</ele>
        <time>2019-12-17T07:41:31.000Z</time>
      </trkpt>
      <trkpt lat="43.34275" lon="5.97456">
        <ele>372</ele>
        <time>2019-12-17T07:41:32.000Z</time>
      </trkpt>
      <trkpt lat="43.34275" lon="5.97456">
        <ele>372</ele>
        <time>2019-12-17T07:41:33.000Z</time>
      </trkpt>
      <trkpt lat="43.34275" lon="5.97456">
        <ele>372</ele>
        <time>2019-12-17T07:41:34.000Z</time>
      </trkpt>
      <trkpt lat="43.34275" lon="5.97456">
        <ele>372</ele>
        <time>2019-12-17T07:41:35.000Z</time>
      </trkpt>
      <trkpt lat="43.34274" lon="5.97455">
        <ele>372</ele>
        <time>2019-12-17T07:41:36.000Z</time>
      </trkpt>
      <trkpt lat="43.34274" lon="5.97455">
        <ele>372</ele>
        <time>2019-12-17T07:41:37.000Z</time>
      </trkpt>
      <trkpt lat="43.34274" lon="5.97454">
        <ele>372</ele>
        <time>2019-12-17T07:41:38.000Z</time>
      </trkpt>
      <trkpt lat="43.34274" lon="5.97454">
        <ele>372</ele>
        <time>2019-12-17T07:41:39.000Z</time>
      </trkpt>
      <trkpt lat="43.34274" lon="5.97454">
        <ele>372</ele>
        <time>2019-12-17T07:41:40.000Z</time>
      </trkpt>
      <trkpt lat="43.34274" lon="5.97454">
        <ele>372</ele>
        <time>2019-12-17T07:41:41.000Z</time>
      </trkpt>
      <trkpt lat="43.34274" lon="5.97454">
        <ele>372</ele>
        <time>2019-12-17T07:41:42.000Z</time>
      </trkpt>
      <trkpt lat="43.34274" lon="5.97454">
        <ele>372</ele>
        <time>2019-12-17T07:41:43.000Z</time>
      </trkpt>
      <trkpt lat="43.34274" lon="5.97455">
        <ele>372</ele>
        <time>2019-12-17T07:41:44.000Z</time>
      </trkpt>
      <trkpt lat="43.34274" lon="5.97455">
        <ele>372</ele>
        <time>2019-12-17T07:41:45.000Z</time>
      </trkpt>
      <trkpt lat="43.34274" lon="5.97455">
        <ele>372</ele>
        <time>2019-12-17T07:41:46.000Z</time>
      </trkpt>
      <trkpt lat="43.34274" lon="5.97455">
        <ele>372</ele>
        <time>2019-12-17T07:41:47.000Z</time>
      </trkpt>
      <trkpt lat="43.34274" lon="5.97455">
        <ele>372</ele>
        <time>2019-12-17T07:41:48.000Z</time>
      </trkpt>
      <trkpt lat="43.34274" lon="5.97455">
        <ele>372</ele>
        <time>2019-12-17T07:41:49.000Z</time>
      </trkpt>
      <trkpt lat="43.34274" lon="5.97455">
        <ele>372</ele>
        <time>2019-12-17T07:41:50.000Z</time>
      </trkpt>
      <trkpt lat="43.34274" lon="5.97455">
        <ele>372</ele>
        <time>2019-12-17T07:41:51.000Z</time>
      </trkpt>
      <trkpt lat="43.34274" lon="5.97455">
        <ele>371</ele>
        <time>2019-12-17T07:41:52.000Z</time>
      </trkpt>
      <trkpt lat="43.34274" lon="5.97455">
        <ele>371</ele>
        <time>2019-12-17T07:41:53.000Z</time>
      </trkpt>
      <trkpt lat="43.34273" lon="5.97455">
        <ele>371</ele>
        <time>2019-12-17T07:41:54.000Z</time>
      </trkpt>
      <trkpt lat="43.34273" lon="5.97455">
        <ele>371</ele>
        <time>2019-12-17T07:41:55.000Z</time>
      </trkpt>
      <trkpt lat="43.34273" lon="5.97454">
        <ele>371</ele>
        <time>2019-12-17T07:41:56.000Z</time>
      </trkpt>
      <trkpt lat="43.34273" lon="5.97454">
        <ele>371</ele>
        <time>2019-12-17T07:41:57.000Z</time>
      </trkpt>
      <trkpt lat="43.34273" lon="5.97454">
        <ele>371</ele>
        <time>2019-12-17T07:41:58.000Z</time>
      </trkpt>
      <trkpt lat="43.34273" lon="5.97454">
        <ele>371</ele>
        <time>2019-12-17T07:41:59.000Z</time>
      </trkpt>
      <trkpt lat="43.34273" lon="5.97454">
        <ele>371</ele>
        <time>2019-12-17T07:42:00.000Z</time>
      </trkpt>
      <trkpt lat="43.34273" lon="5.97454">
        <ele>371</ele>
        <time>2019-12-17T07:42:01.000Z</time>
      </trkpt>
      <trkpt lat="43.34273" lon="5.97454">
        <ele>371</ele>
        <time>2019-12-17T07:42:02.000Z</time>
      </trkpt>
      <trkpt lat="43.34273" lon="5.97454">
        <ele>371</ele>
        <time>2019-12-17T07:42:03.000Z</time>
      </trkpt>
      <trkpt lat="43.34273" lon="5.97454">
        <ele>371</ele>
        <time>2019-12-17T07:42:04.000Z</time>
      </trkpt>
      <trkpt lat="43.34273" lon="5.97454">
        <ele>371</ele>
        <time>2019-12-17T07:42:05.000Z</time>
      </trkpt>
      <trkpt lat="43.34273" lon="5.97454">
        <ele>371</ele>
        <time>2019-12-17T07:42:06.000Z</time>
      </trkpt>
      <trkpt lat="43.34273" lon="5.97453">
        <ele>371</ele>
        <time>2019-12-17T07:42:07.000Z</time>
      </trkpt>
      <trkpt lat="43.34273" lon="5.97453">
        <ele>371</ele>
        <time>2019-12-17T07:42:08.000Z</time>
      </trkpt>
      <trkpt lat="43.34273" lon="5.97453">
        <ele>371</ele>
        <time>2019-12-17T07:42:09.000Z</time>
      </trkpt>
      <trkpt lat="43.34272" lon="5.97453">
        <ele>371</ele>
        <time>2019-12-17T07:42:10.000Z</time>
      </trkpt>
      <trkpt lat="43.34272" lon="5.97453">
        <ele>371</ele>
        <time>2019-12-17T07:42:11.000Z</time>
      </trkpt>
      <trkpt lat="43.34271" lon="5.97452">
        <ele>371</ele>
        <time>2019-12-17T07:42:12.000Z</time>
      </trkpt>
      <trkpt lat="43.3427" lon="5.97451">
        <ele>371</ele>
        <time>2019-12-17T07:42:13.000Z</time>
      </trkpt>
      <trkpt lat="43.34269" lon="5.9745">
        <ele>371</ele>
        <time>2019-12-17T07:42:14.000Z</time>
      </trkpt>
      <trkpt lat="43.34269" lon="5.97449">
        <ele>370</ele>
        <time>2019-12-17T07:42:15.000Z</time>
      </trkpt>
      <trkpt lat="43.34268" lon="5.97448">
        <ele>370</ele>
        <time>2019-12-17T07:42:16.000Z</time>
      </trkpt>
      <trkpt lat="43.34267" lon="5.97447">
        <ele>370</ele>
        <time>2019-12-17T07:42:17.000Z</time>
      </trkpt>
      <trkpt lat="43.34266" lon="5.97446">
        <ele>370</ele>
        <time>2019-12-17T07:42:18.000Z</time>
      </trkpt>
      <trkpt lat="43.34265" lon="5.97444">
        <ele>370</ele>
        <time>2019-12-17T07:42:19.000Z</time>
      </trkpt>
      <trkpt lat="43.34264" lon="5.97443">
        <ele>370</ele>
        <time>2019-12-17T07:42:20.000Z</time>
      </trkpt>
      <trkpt lat="43.34264" lon="5.97443">
        <ele>370</ele>
        <time>2019-12-17T07:42:21.000Z</time>
      </trkpt>
      <trkpt lat="43.34264" lon="5.97442">
        <ele>370</ele>
        <time>2019-12-17T07:42:22.000Z</time>
      </trkpt>
      <trkpt lat="43.34264" lon="5.97442">
        <ele>370</ele>
        <time>2019-12-17T07:42:23.000Z</time>
      </trkpt>
      <trkpt lat="43.34264" lon="5.97442">
        <ele>370</ele>
        <time>2019-12-17T07:42:24.000Z</time>
      </trkpt>
      <trkpt lat="43.34263" lon="5.97441">
        <ele>369</ele>
        <time>2019-12-17T07:42:25.000Z</time>
      </trkpt>
      <trkpt lat="43.34262" lon="5.9744">
        <ele>369</ele>
        <time>2019-12-17T07:42:26.000Z</time>
      </trkpt>
      <trkpt lat="43.34261" lon="5.97439">
        <ele>369</ele>
        <time>2019-12-17T07:42:27.000Z</time>
      </trkpt>
      <trkpt lat="43.3426" lon="5.97437">
        <ele>369</ele>
        <time>2019-12-17T07:42:28.000Z</time>
      </trkpt>
      <trkpt lat="43.3426" lon="5.97436">
        <ele>369</ele>
        <time>2019-12-17T07:42:29.000Z</time>
      </trkpt>
      <trkpt lat="43.34258" lon="5.97435">
        <ele>369</ele>
        <time>2019-12-17T07:42:30.000Z</time>
      </trkpt>
      <trkpt lat="43.34257" lon="5.97434">
        <ele>369</ele>
        <time>2019-12-17T07:42:31.000Z</time>
      </trkpt>
      <trkpt lat="43.34256" lon="5.97433">
        <ele>369</ele>
        <time>2019-12-17T07:42:32.000Z</time>
      </trkpt>
      <trkpt lat="43.34255" lon="5.97432">
        <ele>369</ele>
        <time>2019-12-17T07:42:33.000Z</time>
      </trkpt>
      <trkpt lat="43.34254" lon="5.97431">
        <ele>369</ele>
        <time>2019-12-17T07:42:34.000Z</time>
      </trkpt>
      <trkpt lat="43.34253" lon="5.9743">
        <ele>369</ele>
        <time>2019-12-17T07:42:35.000Z</time>
      </trkpt>
      <trkpt lat="43.34252" lon="5.97429">
        <ele>369</ele>
        <time>2019-12-17T07:42:36.000Z</time>
      </trkpt>
      <trkpt lat="43.34252" lon="5.97428">
        <ele>369</ele>
        <time>2019-12-17T07:42:37.000Z</time>
      </trkpt>
      <trkpt lat="43.34252" lon="5.97427">
        <ele>369</ele>
        <time>2019-12-17T07:42:38.000Z</time>
      </trkpt>
      <trkpt lat="43.34252" lon="5.97427">
        <ele>369</ele>
        <time>2019-12-17T07:42:39.000Z</time>
      </trkpt>
      <trkpt lat="43.34253" lon="5.97427">
        <ele>369</ele>
        <time>2019-12-17T07:42:40.000Z</time>
      </trkpt>
      <trkpt lat="43.34254" lon="5.97428">
        <ele>369</ele>
        <time>2019-12-17T07:42:41.000Z</time>
      </trkpt>
      <trkpt lat="43.34255" lon="5.97429">
        <ele>369</ele>
        <time>2019-12-17T07:42:42.000Z</time>
      </trkpt>
      <trkpt lat="43.34256" lon="5.9743">
        <ele>369</ele>
        <time>2019-12-17T07:42:43.000Z</time>
      </trkpt>
      <trkpt lat="43.34257" lon="5.97432">
        <ele>369</ele>
        <time>2019-12-17T07:42:44.000Z</time>
      </trkpt>
      <trkpt lat="43.34257" lon="5.97433">
        <ele>369</ele>
        <time>2019-12-17T07:42:45.000Z</time>
      </trkpt>
      <trkpt lat="43.34258" lon="5.97434">
        <ele>369</ele>
        <time>2019-12-17T07:42:46.000Z</time>
      </trkpt>
      <trkpt lat="43.34259" lon="5.97435">
        <ele>369</ele>
        <time>2019-12-17T07:42:47.000Z</time>
      </trkpt>
      <trkpt lat="43.3426" lon="5.97436">
        <ele>369</ele>
        <time>2019-12-17T07:42:48.000Z</time>
      </trkpt>
      <trkpt lat="43.34261" lon="5.97437">
        <ele>369</ele>
        <time>2019-12-17T07:42:49.000Z</time>
      </trkpt>
      <trkpt lat="43.34261" lon="5.97438">
        <ele>369</ele>
        <time>2019-12-17T07:42:50.000Z</time>
      </trkpt>
      <trkpt lat="43.34262" lon="5.9744">
        <ele>369</ele>
        <time>2019-12-17T07:42:51.000Z</time>
      </trkpt>
      <trkpt lat="43.34263" lon="5.97441">
        <ele>369</ele>
        <time>2019-12-17T07:42:52.000Z</time>
      </trkpt>
      <trkpt lat="43.34264" lon="5.97442">
        <ele>369</ele>
        <time>2019-12-17T07:42:53.000Z</time>
      </trkpt>
      <trkpt lat="43.34266" lon="5.97443">
        <ele>369</ele>
        <time>2019-12-17T07:42:54.000Z</time>
      </trkpt>
      <trkpt lat="43.34267" lon="5.97443">
        <ele>369</ele>
        <time>2019-12-17T07:42:55.000Z</time>
      </trkpt>
      <trkpt lat="43.34269" lon="5.97444">
        <ele>369</ele>
        <time>2019-12-17T07:42:56.000Z</time>
      </trkpt>
      <trkpt lat="43.3427" lon="5.97445">
        <ele>369</ele>
        <time>2019-12-17T07:42:57.000Z</time>
      </trkpt>
      <trkpt lat="43.34271" lon="5.97446">
        <ele>369</ele>
        <time>2019-12-17T07:42:58.000Z</time>
      </trkpt>
      <trkpt lat="43.34272" lon="5.97446">
        <ele>369</ele>
        <time>2019-12-17T07:42:59.000Z</time>
      </trkpt>
      <trkpt lat="43.34272" lon="5.97448">
        <ele>369</ele>
        <time>2019-12-17T07:43:00.000Z</time>
      </trkpt>
      <trkpt lat="43.34273" lon="5.97449">
        <ele>369</ele>
        <time>2019-12-17T07:43:01.000Z</time>
      </trkpt>
      <trkpt lat="43.34274" lon="5.9745">
        <ele>369</ele>
        <time>2019-12-17T07:43:02.000Z</time>
      </trkpt>
      <trkpt lat="43.34274" lon="5.97451">
        <ele>369</ele>
        <time>2019-12-17T07:43:03.000Z</time>
      </trkpt>
      <trkpt lat="43.34275" lon="5.97452">
        <ele>369</ele>
        <time>2019-12-17T07:43:04.000Z</time>
      </trkpt>
      <trkpt lat="43.34276" lon="5.97453">
        <ele>369</ele>
        <time>2019-12-17T07:43:05.000Z</time>
      </trkpt>
      <trkpt lat="43.34276" lon="5.97454">
        <ele>369</ele>
        <time>2019-12-17T07:43:06.000Z</time>
      </trkpt>
      <trkpt lat="43.34277" lon="5.97455">
        <ele>369</ele>
        <time>2019-12-17T07:43:07.000Z</time>
      </trkpt>
      <trkpt lat="43.34278" lon="5.97456">
        <ele>369</ele>
        <time>2019-12-17T07:43:08.000Z</time>
      </trkpt>
      <trkpt lat="43.34278" lon="5.97457">
        <ele>369</ele>
        <time>2019-12-17T07:43:09.000Z</time>
      </trkpt>
      <trkpt lat="43.34279" lon="5.97458">
        <ele>369</ele>
        <time>2019-12-17T07:43:10.000Z</time>
      </trkpt>
      <trkpt lat="43.3428" lon="5.97459">
        <ele>369</ele>
        <time>2019-12-17T07:43:11.000Z</time>
      </trkpt>
      <trkpt lat="43.3428" lon="5.9746">
        <ele>369</ele>
        <time>2019-12-17T07:43:12.000Z</time>
      </trkpt>
      <trkpt lat="43.3428" lon="5.97461">
        <ele>369</ele>
        <time>2019-12-17T07:43:13.000Z</time>
      </trkpt>
      <trkpt lat="43.34281" lon="5.97462">
        <ele>370</ele>
        <time>2019-12-17T07:43:14.000Z</time>
      </trkpt>
      <trkpt lat="43.34281" lon="5.97463">
        <ele>370</ele>
        <time>2019-12-17T07:43:15.000Z</time>
      </trkpt>
      <trkpt lat="43.34281" lon="5.97464">
        <ele>370</ele>
        <time>2019-12-17T07:43:16.000Z</time>
      </trkpt>
      <trkpt lat="43.34282" lon="5.97464">
        <ele>370</ele>
        <time>2019-12-17T07:43:17.000Z</time>
      </trkpt>
      <trkpt lat="43.34282" lon="5.97465">
        <ele>370</ele>
        <time>2019-12-17T07:43:18.000Z</time>
      </trkpt>
      <trkpt lat="43.34282" lon="5.97466">
        <ele>370</ele>
        <time>2019-12-17T07:43:19.000Z</time>
      </trkpt>
      <trkpt lat="43.34283" lon="5.97467">
        <ele>370</ele>
        <time>2019-12-17T07:43:20.000Z</time>
      </trkpt>
      <trkpt lat="43.34283" lon="5.97468">
        <ele>370</ele>
        <time>2019-12-17T07:43:21.000Z</time>
      </trkpt>
      <trkpt lat="43.34284" lon="5.97468">
        <ele>371</ele>
        <time>2019-12-17T07:43:22.000Z</time>
      </trkpt>
      <trkpt lat="43.34284" lon="5.97468">
        <ele>371</ele>
        <time>2019-12-17T07:43:23.000Z</time>
      </trkpt>
      <trkpt lat="43.34285" lon="5.97468">
        <ele>371</ele>
        <time>2019-12-17T07:43:24.000Z</time>
      </trkpt>
      <trkpt lat="43.34286" lon="5.97468">
        <ele>371</ele>
        <time>2019-12-17T07:43:25.000Z</time>
      </trkpt>
      <trkpt lat="43.34287" lon="5.97468">
        <ele>371</ele>
        <time>2019-12-17T07:43:26.000Z</time>
      </trkpt>
      <trkpt lat="43.34287" lon="5.97467">
        <ele>371</ele>
        <time>2019-12-17T07:43:27.000Z</time>
      </trkpt>
      <trkpt lat="43.34288" lon="5.97467">
        <ele>371</ele>
        <time>2019-12-17T07:43:28.000Z</time>
      </trkpt>
      <trkpt lat="43.34289" lon="5.97467">
        <ele>371</ele>
        <time>2019-12-17T07:43:29.000Z</time>
      </trkpt>
      <trkpt lat="43.3429" lon="5.97467">
        <ele>371</ele>
        <time>2019-12-17T07:43:30.000Z</time>
      </trkpt>
      <trkpt lat="43.34291" lon="5.97466">
        <ele>371</ele>
        <time>2019-12-17T07:43:31.000Z</time>
      </trkpt>
      <trkpt lat="43.34291" lon="5.97466">
        <ele>371</ele>
        <time>2019-12-17T07:43:32.000Z</time>
      </trkpt>
      <trkpt lat="43.34292" lon="5.97466">
        <ele>371</ele>
        <time>2019-12-17T07:43:33.000Z</time>
      </trkpt>
      <trkpt lat="43.34293" lon="5.97466">
        <ele>372</ele>
        <time>2019-12-17T07:43:34.000Z</time>
      </trkpt>
      <trkpt lat="43.34293" lon="5.97466">
        <ele>372</ele>
        <time>2019-12-17T07:43:35.000Z</time>
      </trkpt>
      <trkpt lat="43.34294" lon="5.97466">
        <ele>372</ele>
        <time>2019-12-17T07:43:36.000Z</time>
      </trkpt>
      <trkpt lat="43.34295" lon="5.97466">
        <ele>372</ele>
        <time>2019-12-17T07:43:37.000Z</time>
      </trkpt>
      <trkpt lat="43.34295" lon="5.97465">
        <ele>372</ele>
        <time>2019-12-17T07:43:38.000Z</time>
      </trkpt>
      <trkpt lat="43.34296" lon="5.97465">
        <ele>372</ele>
        <time>2019-12-17T07:43:39.000Z</time>
      </trkpt>
      <trkpt lat="43.34296" lon="5.97465">
        <ele>372</ele>
        <time>2019-12-17T07:43:40.000Z</time>
      </trkpt>
      <trkpt lat="43.34297" lon="5.97464">
        <ele>372</ele>
        <time>2019-12-17T07:43:41.000Z</time>
      </trkpt>
      <trkpt lat="43.34297" lon="5.97464">
        <ele>372</ele>
        <time>2019-12-17T07:43:42.000Z</time>
      </trkpt>
      <trkpt lat="43.34298" lon="5.97463">
        <ele>372</ele>
        <time>2019-12-17T07:43:43.000Z</time>
      </trkpt>
      <trkpt lat="43.34298" lon="5.97463">
        <ele>372</ele>
        <time>2019-12-17T07:43:44.000Z</time>
      </trkpt>
      <trkpt lat="43.34299" lon="5.97462">
        <ele>372</ele>
        <time>2019-12-17T07:43:45.000Z</time>
      </trkpt>
      <trkpt lat="43.343" lon="5.97462">
        <ele>372</ele>
        <time>2019-12-17T07:43:46.000Z</time>
      </trkpt>
      <trkpt lat="43.343" lon="5.97461">
        <ele>372</ele>
        <time>2019-12-17T07:43:47.000Z</time>
      </trkpt>
      <trkpt lat="43.34301" lon="5.97461">
        <ele>372</ele>
        <time>2019-12-17T07:43:48.000Z</time>
      </trkpt>
      <trkpt lat="43.34302" lon="5.97461">
        <ele>372</ele>
        <time>2019-12-17T07:43:49.000Z</time>
      </trkpt>
      <trkpt lat="43.34302" lon="5.97461">
        <ele>372</ele>
        <time>2019-12-17T07:43:50.000Z</time>
      </trkpt>
      <trkpt lat="43.34303" lon="5.97461">
        <ele>372</ele>
        <time>2019-12-17T07:43:51.000Z</time>
      </trkpt>
      <trkpt lat="43.34303" lon="5.97461">
        <ele>372</ele>
        <time>2019-12-17T07:43:52.000Z</time>
      </trkpt>
      <trkpt lat="43.34303" lon="5.97461">
        <ele>372</ele>
        <time>2019-12-17T07:43:53.000Z</time>
      </trkpt>
      <trkpt lat="43.34303" lon="5.97461">
        <ele>372</ele>
        <time>2019-12-17T07:43:54.000Z</time>
      </trkpt>
      <trkpt lat="43.34303" lon="5.9746">
        <ele>372</ele>
        <time>2019-12-17T07:43:55.000Z</time>
      </trkpt>
      <trkpt lat="43.34304" lon="5.9746">
        <ele>373</ele>
        <time>2019-12-17T07:43:56.000Z</time>
      </trkpt>
      <trkpt lat="43.34304" lon="5.97459">
        <ele>373</ele>
        <time>2019-12-17T07:43:57.000Z</time>
      </trkpt>
      <trkpt lat="43.34304" lon="5.97459">
        <ele>373</ele>
        <time>2019-12-17T07:43:58.000Z</time>
      </trkpt>
      <trkpt lat="43.34305" lon="5.97459">
        <ele>373</ele>
        <time>2019-12-17T07:43:59.000Z</time>
      </trkpt>
      <trkpt lat="43.34306" lon="5.97458">
        <ele>373</ele>
        <time>2019-12-17T07:44:00.000Z</time>
      </trkpt>
      <trkpt lat="43.34306" lon="5.97457">
        <ele>373</ele>
        <time>2019-12-17T07:44:01.000Z</time>
      </trkpt>
      <trkpt lat="43.34307" lon="5.97457">
        <ele>373</ele>
        <time>2019-12-17T07:44:02.000Z</time>
      </trkpt>
      <trkpt lat="43.34307" lon="5.97456">
        <ele>373</ele>
        <time>2019-12-17T07:44:03.000Z</time>
      </trkpt>
      <trkpt lat="43.34308" lon="5.97456">
        <ele>373</ele>
        <time>2019-12-17T07:44:04.000Z</time>
      </trkpt>
      <trkpt lat="43.34309" lon="5.97455">
        <ele>373</ele>
        <time>2019-12-17T07:44:05.000Z</time>
      </trkpt>
      <trkpt lat="43.3431" lon="5.97455">
        <ele>372</ele>
        <time>2019-12-17T07:44:06.000Z</time>
      </trkpt>
      <trkpt lat="43.34311" lon="5.97455">
        <ele>372</ele>
        <time>2019-12-17T07:44:07.000Z</time>
      </trkpt>
      <trkpt lat="43.34311" lon="5.97455">
        <ele>372</ele>
        <time>2019-12-17T07:44:08.000Z</time>
      </trkpt>
      <trkpt lat="43.34312" lon="5.97456">
        <ele>372</ele>
        <time>2019-12-17T07:44:09.000Z</time>
      </trkpt>
      <trkpt lat="43.34313" lon="5.97456">
        <ele>372</ele>
        <time>2019-12-17T07:44:10.000Z</time>
      </trkpt>
      <trkpt lat="43.34314" lon="5.97456">
        <ele>372</ele>
        <time>2019-12-17T07:44:11.000Z</time>
      </trkpt>
      <trkpt lat="43.34314" lon="5.97456">
        <ele>372</ele>
        <time>2019-12-17T07:44:12.000Z</time>
      </trkpt>
      <trkpt lat="43.34315" lon="5.97457">
        <ele>372</ele>
        <time>2019-12-17T07:44:13.000Z</time>
      </trkpt>
      <trkpt lat="43.34316" lon="5.97457">
        <ele>372</ele>
        <time>2019-12-17T07:44:14.000Z</time>
      </trkpt>
      <trkpt lat="43.34317" lon="5.97457">
        <ele>372</ele>
        <time>2019-12-17T07:44:15.000Z</time>
      </trkpt>
      <trkpt lat="43.34318" lon="5.97457">
        <ele>372</ele>
        <time>2019-12-17T07:44:16.000Z</time>
      </trkpt>
      <trkpt lat="43.34318" lon="5.97458">
        <ele>372</ele>
        <time>2019-12-17T07:44:17.000Z</time>
      </trkpt>
      <trkpt lat="43.34318" lon="5.97457">
        <ele>372</ele>
        <time>2019-12-17T07:44:18.000Z</time>
      </trkpt>
      <trkpt lat="43.34318" lon="5.97457">
        <ele>372</ele>
        <time>2019-12-17T07:44:19.000Z</time>
      </trkpt>
      <trkpt lat="43.34318" lon="5.97457">
        <ele>372</ele>
        <time>2019-12-17T07:44:20.000Z</time>
      </trkpt>
      <trkpt lat="43.34319" lon="5.97458">
        <ele>372</ele>
        <time>2019-12-17T07:44:21.000Z</time>
      </trkpt>
      <trkpt lat="43.34319" lon="5.97457">
        <ele>372</ele>
        <time>2019-12-17T07:44:22.000Z</time>
      </trkpt>
      <trkpt lat="43.34319" lon="5.97458">
        <ele>372</ele>
        <time>2019-12-17T07:44:23.000Z</time>
      </trkpt>
      <trkpt lat="43.34319" lon="5.97457">
        <ele>372</ele>
        <time>2019-12-17T07:44:24.000Z</time>
      </trkpt>
      <trkpt lat="43.34319" lon="5.97457">
        <ele>372</ele>
        <time>2019-12-17T07:44:25.000Z</time>
      </trkpt>
      <trkpt lat="43.34319" lon="5.97457">
        <ele>372</ele>
        <time>2019-12-17T07:44:26.000Z</time>
      </trkpt>
      <trkpt lat="43.34319" lon="5.97457">
        <ele>372</ele>
        <time>2019-12-17T07:44:27.000Z</time>
      </trkpt>
      <trkpt lat="43.3432" lon="5.97457">
        <ele>372</ele>
        <time>2019-12-17T07:44:28.000Z</time>
      </trkpt>
      <trkpt lat="43.3432" lon="5.97457">
        <ele>372</ele>
        <time>2019-12-17T07:44:29.000Z</time>
      </trkpt>
      <trkpt lat="43.3432" lon="5.97456">
        <ele>372</ele>
        <time>2019-12-17T07:44:30.000Z</time>
      </trkpt>
      <trkpt lat="43.34321" lon="5.97456">
        <ele>372</ele>
        <time>2019-12-17T07:44:31.000Z</time>
      </trkpt>
      <trkpt lat="43.34321" lon="5.97455">
        <ele>372</ele>
        <time>2019-12-17T07:44:32.000Z</time>
      </trkpt>
      <trkpt lat="43.34321" lon="5.97455">
        <ele>372</ele>
        <time>2019-12-17T07:44:33.000Z</time>
      </trkpt>
      <trkpt lat="43.34322" lon="5.97455">
        <ele>372</ele>
        <time>2019-12-17T07:44:34.000Z</time>
      </trkpt>
      <trkpt lat="43.34322" lon="5.97454">
        <ele>372</ele>
        <time>2019-12-17T07:44:35.000Z</time>
      </trkpt>
      <trkpt lat="43.34323" lon="5.97454">
        <ele>372</ele>
        <time>2019-12-17T07:44:36.000Z</time>
      </trkpt>
      <trkpt lat="43.34323" lon="5.97454">
        <ele>372</ele>
        <time>2019-12-17T07:44:37.000Z</time>
      </trkpt>
      <trkpt lat="43.34324" lon="5.97453">
        <ele>372</ele>
        <time>2019-12-17T07:44:38.000Z</time>
      </trkpt>
      <trkpt lat="43.34325" lon="5.97453">
        <ele>372</ele>
        <time>2019-12-17T07:44:39.000Z</time>
      </trkpt>
      <trkpt lat="43.34325" lon="5.97452">
        <ele>371</ele>
        <time>2019-12-17T07:44:40.000Z</time>
      </trkpt>
      <trkpt lat="43.34326" lon="5.97452">
        <ele>371</ele>
        <time>2019-12-17T07:44:41.000Z</time>
      </trkpt>
      <trkpt lat="43.34327" lon="5.97451">
        <ele>371</ele>
        <time>2019-12-17T07:44:42.000Z</time>
      </trkpt>
      <trkpt lat="43.34327" lon="5.97451">
        <ele>371</ele>
        <time>2019-12-17T07:44:43.000Z</time>
      </trkpt>
      <trkpt lat="43.34328" lon="5.9745">
        <ele>371</ele>
        <time>2019-12-17T07:44:44.000Z</time>
      </trkpt>
      <trkpt lat="43.34328" lon="5.9745">
        <ele>371</ele>
        <time>2019-12-17T07:44:45.000Z</time>
      </trkpt>
      <trkpt lat="43.34329" lon="5.9745">
        <ele>371</ele>
        <time>2019-12-17T07:44:46.000Z</time>
      </trkpt>
      <trkpt lat="43.34329" lon="5.97449">
        <ele>371</ele>
        <time>2019-12-17T07:44:47.000Z</time>
      </trkpt>
      <trkpt lat="43.3433" lon="5.97449">
        <ele>371</ele>
        <time>2019-12-17T07:44:48.000Z</time>
      </trkpt>
      <trkpt lat="43.3433" lon="5.97449">
        <ele>371</ele>
        <time>2019-12-17T07:44:49.000Z</time>
      </trkpt>
      <trkpt lat="43.34331" lon="5.97448">
        <ele>371</ele>
        <time>2019-12-17T07:44:50.000Z</time>
      </trkpt>
      <trkpt lat="43.34332" lon="5.97447">
        <ele>371</ele>
        <time>2019-12-17T07:44:51.000Z</time>
      </trkpt>
      <trkpt lat="43.34332" lon="5.97447">
        <ele>371</ele>
        <time>2019-12-17T07:44:52.000Z</time>
      </trkpt>
      <trkpt lat="43.34333" lon="5.97447">
        <ele>371</ele>
        <time>2019-12-17T07:44:53.000Z</time>
      </trkpt>
      <trkpt lat="43.34334" lon="5.97447">
        <ele>371</ele>
        <time>2019-12-17T07:44:54.000Z</time>
      </trkpt>
      <trkpt lat="43.34334" lon="5.97446">
        <ele>371</ele>
        <time>2019-12-17T07:44:55.000Z</time>
      </trkpt>
      <trkpt lat="43.34335" lon="5.97446">
        <ele>371</ele>
        <time>2019-12-17T07:44:56.000Z</time>
      </trkpt>
      <trkpt lat="43.34335" lon="5.97445">
        <ele>371</ele>
        <time>2019-12-17T07:44:57.000Z</time>
      </trkpt>
      <trkpt lat="43.34336" lon="5.97445">
        <ele>371</ele>
        <time>2019-12-17T07:44:58.000Z</time>
      </trkpt>
      <trkpt lat="43.34337" lon="5.97444">
        <ele>372</ele>
        <time>2019-12-17T07:44:59.000Z</time>
      </trkpt>
      <trkpt lat="43.34337" lon="5.97444">
        <ele>372</ele>
        <time>2019-12-17T07:45:00.000Z</time>
      </trkpt>
      <trkpt lat="43.34338" lon="5.97444">
        <ele>372</ele>
        <time>2019-12-17T07:45:01.000Z</time>
      </trkpt>
      <trkpt lat="43.34338" lon="5.97444">
        <ele>372</ele>
        <time>2019-12-17T07:45:02.000Z</time>
      </trkpt>
      <trkpt lat="43.34339" lon="5.97443">
        <ele>372</ele>
        <time>2019-12-17T07:45:03.000Z</time>
      </trkpt>
      <trkpt lat="43.3434" lon="5.97443">
        <ele>372</ele>
        <time>2019-12-17T07:45:04.000Z</time>
      </trkpt>
      <trkpt lat="43.34341" lon="5.97442">
        <ele>372</ele>
        <time>2019-12-17T07:45:05.000Z</time>
      </trkpt>
      <trkpt lat="43.34341" lon="5.97442">
        <ele>372</ele>
        <time>2019-12-17T07:45:06.000Z</time>
      </trkpt>
      <trkpt lat="43.34342" lon="5.97441">
        <ele>372</ele>
        <time>2019-12-17T07:45:07.000Z</time>
      </trkpt>
      <trkpt lat="43.34342" lon="5.97441">
        <ele>372</ele>
        <time>2019-12-17T07:45:08.000Z</time>
      </trkpt>
      <trkpt lat="43.34343" lon="5.97441">
        <ele>372</ele>
        <time>2019-12-17T07:45:09.000Z</time>
      </trkpt>
      <trkpt lat="43.34344" lon="5.9744">
        <ele>372</ele>
        <time>2019-12-17T07:45:10.000Z</time>
      </trkpt>
      <trkpt lat="43.34344" lon="5.9744">
        <ele>372</ele>
        <time>2019-12-17T07:45:11.000Z</time>
      </trkpt>
      <trkpt lat="43.34345" lon="5.97439">
        <ele>372</ele>
        <time>2019-12-17T07:45:12.000Z</time>
      </trkpt>
      <trkpt lat="43.34346" lon="5.97439">
        <ele>372</ele>
        <time>2019-12-17T07:45:13.000Z</time>
      </trkpt>
      <trkpt lat="43.34347" lon="5.97439">
        <ele>372</ele>
        <time>2019-12-17T07:45:14.000Z</time>
      </trkpt>
      <trkpt lat="43.34348" lon="5.97438">
        <ele>371</ele>
        <time>2019-12-17T07:45:15.000Z</time>
      </trkpt>
      <trkpt lat="43.34349" lon="5.97437">
        <ele>371</ele>
        <time>2019-12-17T07:45:16.000Z</time>
      </trkpt>
      <trkpt lat="43.3435" lon="5.97437">
        <ele>371</ele>
        <time>2019-12-17T07:45:17.000Z</time>
      </trkpt>
      <trkpt lat="43.34351" lon="5.97436">
        <ele>371</ele>
        <time>2019-12-17T07:45:18.000Z</time>
      </trkpt>
      <trkpt lat="43.34351" lon="5.97435">
        <ele>371</ele>
        <time>2019-12-17T07:45:19.000Z</time>
      </trkpt>
      <trkpt lat="43.34352" lon="5.97435">
        <ele>371</ele>
        <time>2019-12-17T07:45:20.000Z</time>
      </trkpt>
      <trkpt lat="43.34353" lon="5.97434">
        <ele>371</ele>
        <time>2019-12-17T07:45:21.000Z</time>
      </trkpt>
      <trkpt lat="43.34353" lon="5.97434">
        <ele>371</ele>
        <time>2019-12-17T07:45:22.000Z</time>
      </trkpt>
      <trkpt lat="43.34354" lon="5.97433">
        <ele>371</ele>
        <time>2019-12-17T07:45:23.000Z</time>
      </trkpt>
      <trkpt lat="43.34355" lon="5.97432">
        <ele>371</ele>
        <time>2019-12-17T07:45:24.000Z</time>
      </trkpt>
      <trkpt lat="43.34356" lon="5.97432">
        <ele>371</ele>
        <time>2019-12-17T07:45:25.000Z</time>
      </trkpt>
      <trkpt lat="43.34357" lon="5.97432">
        <ele>371</ele>
        <time>2019-12-17T07:45:26.000Z</time>
      </trkpt>
      <trkpt lat="43.34358" lon="5.97432">
        <ele>371</ele>
        <time>2019-12-17T07:45:27.000Z</time>
      </trkpt>
      <trkpt lat="43.34358" lon="5.97431">
        <ele>372</ele>
        <time>2019-12-17T07:45:28.000Z</time>
      </trkpt>
      <trkpt lat="43.34359" lon="5.97431">
        <ele>372</ele>
        <time>2019-12-17T07:45:29.000Z</time>
      </trkpt>
      <trkpt lat="43.3436" lon="5.9743">
        <ele>372</ele>
        <time>2019-12-17T07:45:30.000Z</time>
      </trkpt>
      <trkpt lat="43.34361" lon="5.97429">
        <ele>372</ele>
        <time>2019-12-17T07:45:31.000Z</time>
      </trkpt>
      <trkpt lat="43.34362" lon="5.97428">
        <ele>372</ele>
        <time>2019-12-17T07:45:32.000Z</time>
      </trkpt>
      <trkpt lat="43.34362" lon="5.97428">
        <ele>372</ele>
        <time>2019-12-17T07:45:33.000Z</time>
      </trkpt>
      <trkpt lat="43.34363" lon="5.97427">
        <ele>372</ele>
        <time>2019-12-17T07:45:34.000Z</time>
      </trkpt>
      <trkpt lat="43.34364" lon="5.97426">
        <ele>372</ele>
        <time>2019-12-17T07:45:35.000Z</time>
      </trkpt>
      <trkpt lat="43.34365" lon="5.97426">
        <ele>372</ele>
        <time>2019-12-17T07:45:36.000Z</time>
      </trkpt>
      <trkpt lat="43.34366" lon="5.97425">
        <ele>373</ele>
        <time>2019-12-17T07:45:37.000Z</time>
      </trkpt>
      <trkpt lat="43.34367" lon="5.97424">
        <ele>373</ele>
        <time>2019-12-17T07:45:38.000Z</time>
      </trkpt>
      <trkpt lat="43.34368" lon="5.97424">
        <ele>373</ele>
        <time>2019-12-17T07:45:39.000Z</time>
      </trkpt>
      <trkpt lat="43.34369" lon="5.97423">
        <ele>373</ele>
        <time>2019-12-17T07:45:40.000Z</time>
      </trkpt>
      <trkpt lat="43.3437" lon="5.97422">
        <ele>373</ele>
        <time>2019-12-17T07:45:41.000Z</time>
      </trkpt>
      <trkpt lat="43.34371" lon="5.97422">
        <ele>373</ele>
        <time>2019-12-17T07:45:42.000Z</time>
      </trkpt>
      <trkpt lat="43.34372" lon="5.97421">
        <ele>373</ele>
        <time>2019-12-17T07:45:43.000Z</time>
      </trkpt>
      <trkpt lat="43.34373" lon="5.9742">
        <ele>374</ele>
        <time>2019-12-17T07:45:44.000Z</time>
      </trkpt>
      <trkpt lat="43.34374" lon="5.97419">
        <ele>374</ele>
        <time>2019-12-17T07:45:45.000Z</time>
      </trkpt>
      <trkpt lat="43.34375" lon="5.97419">
        <ele>374</ele>
        <time>2019-12-17T07:45:46.000Z</time>
      </trkpt>
      <trkpt lat="43.34376" lon="5.97418">
        <ele>374</ele>
        <time>2019-12-17T07:45:47.000Z</time>
      </trkpt>
      <trkpt lat="43.34377" lon="5.97418">
        <ele>374</ele>
        <time>2019-12-17T07:45:48.000Z</time>
      </trkpt>
      <trkpt lat="43.34378" lon="5.97417">
        <ele>375</ele>
        <time>2019-12-17T07:45:49.000Z</time>
      </trkpt>
      <trkpt lat="43.34378" lon="5.97417">
        <ele>375</ele>
        <time>2019-12-17T07:45:50.000Z</time>
      </trkpt>
      <trkpt lat="43.34379" lon="5.97416">
        <ele>375</ele>
        <time>2019-12-17T07:45:51.000Z</time>
      </trkpt>
      <trkpt lat="43.3438" lon="5.97415">
        <ele>376</ele>
        <time>2019-12-17T07:45:52.000Z</time>
      </trkpt>
      <trkpt lat="43.34381" lon="5.97415">
        <ele>376</ele>
        <time>2019-12-17T07:45:53.000Z</time>
      </trkpt>
      <trkpt lat="43.34382" lon="5.97414">
        <ele>376</ele>
        <time>2019-12-17T07:45:54.000Z</time>
      </trkpt>
      <trkpt lat="43.34383" lon="5.97414">
        <ele>377</ele>
        <time>2019-12-17T07:45:55.000Z</time>
      </trkpt>
      <trkpt lat="43.34384" lon="5.97413">
        <ele>377</ele>
        <time>2019-12-17T07:45:56.000Z</time>
      </trkpt>
      <trkpt lat="43.34385" lon="5.97412">
        <ele>377</ele>
        <time>2019-12-17T07:45:57.000Z</time>
      </trkpt>
      <trkpt lat="43.34386" lon="5.97412">
        <ele>377</ele>
        <time>2019-12-17T07:45:58.000Z</time>
      </trkpt>
      <trkpt lat="43.34387" lon="5.97411">
        <ele>377</ele>
        <time>2019-12-17T07:45:59.000Z</time>
      </trkpt>
      <trkpt lat="43.34388" lon="5.97411">
        <ele>377</ele>
        <time>2019-12-17T07:46:00.000Z</time>
      </trkpt>
      <trkpt lat="43.34389" lon="5.9741">
        <ele>377</ele>
        <time>2019-12-17T07:46:01.000Z</time>
      </trkpt>
      <trkpt lat="43.3439" lon="5.9741">
        <ele>377</ele>
        <time>2019-12-17T07:46:02.000Z</time>
      </trkpt>
      <trkpt lat="43.34391" lon="5.9741">
        <ele>377</ele>
        <time>2019-12-17T07:46:03.000Z</time>
      </trkpt>
      <trkpt lat="43.34392" lon="5.97409">
        <ele>377</ele>
        <time>2019-12-17T07:46:04.000Z</time>
      </trkpt>
      <trkpt lat="43.34393" lon="5.97409">
        <ele>377</ele>
        <time>2019-12-17T07:46:05.000Z</time>
      </trkpt>
      <trkpt lat="43.34394" lon="5.97408">
        <ele>377</ele>
        <time>2019-12-17T07:46:06.000Z</time>
      </trkpt>
      <trkpt lat="43.34395" lon="5.97408">
        <ele>377</ele>
        <time>2019-12-17T07:46:07.000Z</time>
      </trkpt>
      <trkpt lat="43.34396" lon="5.97407">
        <ele>377</ele>
        <time>2019-12-17T07:46:08.000Z</time>
      </trkpt>
      <trkpt lat="43.34397" lon="5.97407">
        <ele>377</ele>
        <time>2019-12-17T07:46:09.000Z</time>
      </trkpt>
      <trkpt lat="43.34398" lon="5.97406">
        <ele>377</ele>
        <time>2019-12-17T07:46:10.000Z</time>
      </trkpt>
      <trkpt lat="43.34399" lon="5.97406">
        <ele>376</ele>
        <time>2019-12-17T07:46:11.000Z</time>
      </trkpt>
      <trkpt lat="43.34399" lon="5.97405">
        <ele>376</ele>
        <time>2019-12-17T07:46:12.000Z</time>
      </trkpt>
      <trkpt lat="43.34401" lon="5.97405">
        <ele>376</ele>
        <time>2019-12-17T07:46:13.000Z</time>
      </trkpt>
      <trkpt lat="43.34402" lon="5.97404">
        <ele>376</ele>
        <time>2019-12-17T07:46:14.000Z</time>
      </trkpt>
      <trkpt lat="43.34402" lon="5.97404">
        <ele>376</ele>
        <time>2019-12-17T07:46:15.000Z</time>
      </trkpt>
      <trkpt lat="43.34403" lon="5.97403">
        <ele>376</ele>
        <time>2019-12-17T07:46:16.000Z</time>
      </trkpt>
      <trkpt lat="43.34404" lon="5.97403">
        <ele>376</ele>
        <time>2019-12-17T07:46:17.000Z</time>
      </trkpt>
      <trkpt lat="43.34405" lon="5.97402">
        <ele>376</ele>
        <time>2019-12-17T07:46:18.000Z</time>
      </trkpt>
      <trkpt lat="43.34406" lon="5.97402">
        <ele>376</ele>
        <time>2019-12-17T07:46:19.000Z</time>
      </trkpt>
      <trkpt lat="43.34407" lon="5.97402">
        <ele>376</ele>
        <time>2019-12-17T07:46:20.000Z</time>
      </trkpt>
      <trkpt lat="43.34408" lon="5.97401">
        <ele>376</ele>
        <time>2019-12-17T07:46:21.000Z</time>
      </trkpt>
      <trkpt lat="43.34409" lon="5.974">
        <ele>376</ele>
        <time>2019-12-17T07:46:22.000Z</time>
      </trkpt>
      <trkpt lat="43.3441" lon="5.974">
        <ele>376</ele>
        <time>2019-12-17T07:46:23.000Z</time>
      </trkpt>
      <trkpt lat="43.34411" lon="5.974">
        <ele>376</ele>
        <time>2019-12-17T07:46:24.000Z</time>
      </trkpt>
      <trkpt lat="43.34412" lon="5.97399">
        <ele>376</ele>
        <time>2019-12-17T07:46:25.000Z</time>
      </trkpt>
      <trkpt lat="43.34413" lon="5.97399">
        <ele>376</ele>
        <time>2019-12-17T07:46:26.000Z</time>
      </trkpt>
      <trkpt lat="43.34414" lon="5.97398">
        <ele>376</ele>
        <time>2019-12-17T07:46:27.000Z</time>
      </trkpt>
      <trkpt lat="43.34415" lon="5.97398">
        <ele>377</ele>
        <time>2019-12-17T07:46:28.000Z</time>
      </trkpt>
      <trkpt lat="43.34416" lon="5.97398">
        <ele>377</ele>
        <time>2019-12-17T07:46:29.000Z</time>
      </trkpt>
      <trkpt lat="43.34417" lon="5.97397">
        <ele>377</ele>
        <time>2019-12-17T07:46:30.000Z</time>
      </trkpt>
      <trkpt lat="43.34418" lon="5.97397">
        <ele>377</ele>
        <time>2019-12-17T07:46:31.000Z</time>
      </trkpt>
      <trkpt lat="43.34419" lon="5.97396">
        <ele>377</ele>
        <time>2019-12-17T07:46:32.000Z</time>
      </trkpt>
      <trkpt lat="43.3442" lon="5.97396">
        <ele>377</ele>
        <time>2019-12-17T07:46:33.000Z</time>
      </trkpt>
      <trkpt lat="43.34421" lon="5.97395">
        <ele>377</ele>
        <time>2019-12-17T07:46:34.000Z</time>
      </trkpt>
      <trkpt lat="43.34421" lon="5.97395">
        <ele>377</ele>
        <time>2019-12-17T07:46:35.000Z</time>
      </trkpt>
      <trkpt lat="43.34422" lon="5.97394">
        <ele>378</ele>
        <time>2019-12-17T07:46:36.000Z</time>
      </trkpt>
      <trkpt lat="43.34422" lon="5.97393">
        <ele>378</ele>
        <time>2019-12-17T07:46:37.000Z</time>
      </trkpt>
      <trkpt lat="43.34423" lon="5.97394">
        <ele>378</ele>
        <time>2019-12-17T07:46:38.000Z</time>
      </trkpt>
      <trkpt lat="43.34423" lon="5.97395">
        <ele>378</ele>
        <time>2019-12-17T07:46:39.000Z</time>
      </trkpt>
      <trkpt lat="43.34424" lon="5.97396">
        <ele>378</ele>
        <time>2019-12-17T07:46:40.000Z</time>
      </trkpt>
      <trkpt lat="43.34424" lon="5.97397">
        <ele>379</ele>
        <time>2019-12-17T07:46:41.000Z</time>
      </trkpt>
      <trkpt lat="43.34425" lon="5.97398">
        <ele>379</ele>
        <time>2019-12-17T07:46:42.000Z</time>
      </trkpt>
      <trkpt lat="43.34425" lon="5.97399">
        <ele>379</ele>
        <time>2019-12-17T07:46:43.000Z</time>
      </trkpt>
      <trkpt lat="43.34426" lon="5.97401">
        <ele>379</ele>
        <time>2019-12-17T07:46:44.000Z</time>
      </trkpt>
      <trkpt lat="43.34426" lon="5.97402">
        <ele>379</ele>
        <time>2019-12-17T07:46:45.000Z</time>
      </trkpt>
      <trkpt lat="43.34427" lon="5.97403">
        <ele>379</ele>
        <time>2019-12-17T07:46:46.000Z</time>
      </trkpt>
      <trkpt lat="43.34427" lon="5.97405">
        <ele>379</ele>
        <time>2019-12-17T07:46:47.000Z</time>
      </trkpt>
      <trkpt lat="43.34427" lon="5.97406">
        <ele>379</ele>
        <time>2019-12-17T07:46:48.000Z</time>
      </trkpt>
      <trkpt lat="43.34428" lon="5.97407">
        <ele>379</ele>
        <time>2019-12-17T07:46:49.000Z</time>
      </trkpt>
      <trkpt lat="43.34428" lon="5.97408">
        <ele>380</ele>
        <time>2019-12-17T07:46:50.000Z</time>
      </trkpt>
      <trkpt lat="43.34429" lon="5.97409">
        <ele>380</ele>
        <time>2019-12-17T07:46:51.000Z</time>
      </trkpt>
      <trkpt lat="43.34429" lon="5.9741">
        <ele>380</ele>
        <time>2019-12-17T07:46:52.000Z</time>
      </trkpt>
      <trkpt lat="43.34429" lon="5.97412">
        <ele>380</ele>
        <time>2019-12-17T07:46:53.000Z</time>
      </trkpt>
      <trkpt lat="43.34429" lon="5.97413">
        <ele>380</ele>
        <time>2019-12-17T07:46:54.000Z</time>
      </trkpt>
      <trkpt lat="43.34429" lon="5.97414">
        <ele>380</ele>
        <time>2019-12-17T07:46:55.000Z</time>
      </trkpt>
      <trkpt lat="43.3443" lon="5.97415">
        <ele>380</ele>
        <time>2019-12-17T07:46:56.000Z</time>
      </trkpt>
      <trkpt lat="43.3443" lon="5.97416">
        <ele>380</ele>
        <time>2019-12-17T07:46:57.000Z</time>
      </trkpt>
      <trkpt lat="43.3443" lon="5.97416">
        <ele>380</ele>
        <time>2019-12-17T07:46:58.000Z</time>
      </trkpt>
      <trkpt lat="43.34431" lon="5.97417">
        <ele>380</ele>
        <time>2019-12-17T07:46:59.000Z</time>
      </trkpt>
      <trkpt lat="43.34431" lon="5.97418">
        <ele>380</ele>
        <time>2019-12-17T07:47:00.000Z</time>
      </trkpt>
      <trkpt lat="43.34431" lon="5.97419">
        <ele>380</ele>
        <time>2019-12-17T07:47:01.000Z</time>
      </trkpt>
      <trkpt lat="43.34432" lon="5.97421">
        <ele>380</ele>
        <time>2019-12-17T07:47:02.000Z</time>
      </trkpt>
      <trkpt lat="43.34432" lon="5.97422">
        <ele>380</ele>
        <time>2019-12-17T07:47:03.000Z</time>
      </trkpt>
      <trkpt lat="43.34433" lon="5.97423">
        <ele>380</ele>
        <time>2019-12-17T07:47:04.000Z</time>
      </trkpt>
      <trkpt lat="43.34433" lon="5.97424">
        <ele>380</ele>
        <time>2019-12-17T07:47:05.000Z</time>
      </trkpt>
      <trkpt lat="43.34433" lon="5.97426">
        <ele>380</ele>
        <time>2019-12-17T07:47:06.000Z</time>
      </trkpt>
      <trkpt lat="43.34434" lon="5.97427">
        <ele>380</ele>
        <time>2019-12-17T07:47:07.000Z</time>
      </trkpt>
      <trkpt lat="43.34434" lon="5.97428">
        <ele>380</ele>
        <time>2019-12-17T07:47:08.000Z</time>
      </trkpt>
      <trkpt lat="43.34434" lon="5.97429">
        <ele>380</ele>
        <time>2019-12-17T07:47:09.000Z</time>
      </trkpt>
      <trkpt lat="43.34435" lon="5.97431">
        <ele>380</ele>
        <time>2019-12-17T07:47:10.000Z</time>
      </trkpt>
      <trkpt lat="43.34435" lon="5.97432">
        <ele>380</ele>
        <time>2019-12-17T07:47:11.000Z</time>
      </trkpt>
      <trkpt lat="43.34436" lon="5.97433">
        <ele>380</ele>
        <time>2019-12-17T07:47:12.000Z</time>
      </trkpt>
      <trkpt lat="43.34436" lon="5.97435">
        <ele>380</ele>
        <time>2019-12-17T07:47:13.000Z</time>
      </trkpt>
      <trkpt lat="43.34436" lon="5.97436">
        <ele>380</ele>
        <time>2019-12-17T07:47:14.000Z</time>
      </trkpt>
      <trkpt lat="43.34436" lon="5.97437">
        <ele>380</ele>
        <time>2019-12-17T07:47:15.000Z</time>
      </trkpt>
      <trkpt lat="43.34436" lon="5.97439">
        <ele>380</ele>
        <time>2019-12-17T07:47:16.000Z</time>
      </trkpt>
      <trkpt lat="43.34436" lon="5.9744">
        <ele>380</ele>
        <time>2019-12-17T07:47:17.000Z</time>
      </trkpt>
      <trkpt lat="43.34436" lon="5.97441">
        <ele>380</ele>
        <time>2019-12-17T07:47:18.000Z</time>
      </trkpt>
      <trkpt lat="43.34436" lon="5.97443">
        <ele>380</ele>
        <time>2019-12-17T07:47:19.000Z</time>
      </trkpt>
      <trkpt lat="43.34436" lon="5.97444">
        <ele>380</ele>
        <time>2019-12-17T07:47:20.000Z</time>
      </trkpt>
      <trkpt lat="43.34436" lon="5.97445">
        <ele>380</ele>
        <time>2019-12-17T07:47:21.000Z</time>
      </trkpt>
      <trkpt lat="43.34436" lon="5.97447">
        <ele>380</ele>
        <time>2019-12-17T07:47:22.000Z</time>
      </trkpt>
      <trkpt lat="43.34436" lon="5.97448">
        <ele>381</ele>
        <time>2019-12-17T07:47:23.000Z</time>
      </trkpt>
      <trkpt lat="43.34436" lon="5.97449">
        <ele>381</ele>
        <time>2019-12-17T07:47:24.000Z</time>
      </trkpt>
      <trkpt lat="43.34436" lon="5.97451">
        <ele>381</ele>
        <time>2019-12-17T07:47:25.000Z</time>
      </trkpt>
      <trkpt lat="43.34436" lon="5.97452">
        <ele>381</ele>
        <time>2019-12-17T07:47:26.000Z</time>
      </trkpt>
      <trkpt lat="43.34436" lon="5.97453">
        <ele>381</ele>
        <time>2019-12-17T07:47:27.000Z</time>
      </trkpt>
      <trkpt lat="43.34436" lon="5.97454">
        <ele>381</ele>
        <time>2019-12-17T07:47:28.000Z</time>
      </trkpt>
      <trkpt lat="43.34436" lon="5.97455">
        <ele>381</ele>
        <time>2019-12-17T07:47:29.000Z</time>
      </trkpt>
      <trkpt lat="43.34435" lon="5.97456">
        <ele>380</ele>
        <time>2019-12-17T07:47:30.000Z</time>
      </trkpt>
      <trkpt lat="43.34435" lon="5.97457">
        <ele>380</ele>
        <time>2019-12-17T07:47:31.000Z</time>
      </trkpt>
      <trkpt lat="43.34435" lon="5.97458">
        <ele>380</ele>
        <time>2019-12-17T07:47:32.000Z</time>
      </trkpt>
      <trkpt lat="43.34435" lon="5.97459">
        <ele>380</ele>
        <time>2019-12-17T07:47:33.000Z</time>
      </trkpt>
      <trkpt lat="43.34434" lon="5.9746">
        <ele>380</ele>
        <time>2019-12-17T07:47:34.000Z</time>
      </trkpt>
      <trkpt lat="43.34434" lon="5.97462">
        <ele>380</ele>
        <time>2019-12-17T07:47:35.000Z</time>
      </trkpt>
      <trkpt lat="43.34434" lon="5.97463">
        <ele>380</ele>
        <time>2019-12-17T07:47:36.000Z</time>
      </trkpt>
      <trkpt lat="43.34434" lon="5.97464">
        <ele>380</ele>
        <time>2019-12-17T07:47:37.000Z</time>
      </trkpt>
      <trkpt lat="43.34433" lon="5.97465">
        <ele>380</ele>
        <time>2019-12-17T07:47:38.000Z</time>
      </trkpt>
      <trkpt lat="43.34433" lon="5.97466">
        <ele>380</ele>
        <time>2019-12-17T07:47:39.000Z</time>
      </trkpt>
      <trkpt lat="43.34433" lon="5.97467">
        <ele>380</ele>
        <time>2019-12-17T07:47:40.000Z</time>
      </trkpt>
      <trkpt lat="43.34433" lon="5.97468">
        <ele>380</ele>
        <time>2019-12-17T07:47:41.000Z</time>
      </trkpt>
      <trkpt lat="43.34432" lon="5.97469">
        <ele>380</ele>
        <time>2019-12-17T07:47:42.000Z</time>
      </trkpt>
      <trkpt lat="43.34432" lon="5.9747">
        <ele>380</ele>
        <time>2019-12-17T07:47:43.000Z</time>
      </trkpt>
      <trkpt lat="43.34432" lon="5.97471">
        <ele>381</ele>
        <time>2019-12-17T07:47:44.000Z</time>
      </trkpt>
      <trkpt lat="43.34431" lon="5.97473">
        <ele>381</ele>
        <time>2019-12-17T07:47:45.000Z</time>
      </trkpt>
      <trkpt lat="43.34431" lon="5.97474">
        <ele>381</ele>
        <time>2019-12-17T07:47:46.000Z</time>
      </trkpt>
      <trkpt lat="43.34431" lon="5.97475">
        <ele>381</ele>
        <time>2019-12-17T07:47:47.000Z</time>
      </trkpt>
      <trkpt lat="43.34431" lon="5.97476">
        <ele>381</ele>
        <time>2019-12-17T07:47:48.000Z</time>
      </trkpt>
      <trkpt lat="43.3443" lon="5.97477">
        <ele>381</ele>
        <time>2019-12-17T07:47:49.000Z</time>
      </trkpt>
      <trkpt lat="43.3443" lon="5.97478">
        <ele>381</ele>
        <time>2019-12-17T07:47:50.000Z</time>
      </trkpt>
      <trkpt lat="43.3443" lon="5.97479">
        <ele>380</ele>
        <time>2019-12-17T07:47:51.000Z</time>
      </trkpt>
      <trkpt lat="43.34429" lon="5.9748">
        <ele>380</ele>
        <time>2019-12-17T07:47:52.000Z</time>
      </trkpt>
      <trkpt lat="43.34429" lon="5.97481">
        <ele>380</ele>
        <time>2019-12-17T07:47:53.000Z</time>
      </trkpt>
      <trkpt lat="43.34429" lon="5.97483">
        <ele>380</ele>
        <time>2019-12-17T07:47:54.000Z</time>
      </trkpt>
      <trkpt lat="43.34428" lon="5.97484">
        <ele>381</ele>
        <time>2019-12-17T07:47:55.000Z</time>
      </trkpt>
      <trkpt lat="43.34428" lon="5.97485">
        <ele>381</ele>
        <time>2019-12-17T07:47:56.000Z</time>
      </trkpt>
      <trkpt lat="43.34427" lon="5.97486">
        <ele>381</ele>
        <time>2019-12-17T07:47:57.000Z</time>
      </trkpt>
      <trkpt lat="43.34427" lon="5.97487">
        <ele>381</ele>
        <time>2019-12-17T07:47:58.000Z</time>
      </trkpt>
      <trkpt lat="43.34426" lon="5.97488">
        <ele>381</ele>
        <time>2019-12-17T07:47:59.000Z</time>
      </trkpt>
      <trkpt lat="43.34426" lon="5.97489">
        <ele>381</ele>
        <time>2019-12-17T07:48:00.000Z</time>
      </trkpt>
      <trkpt lat="43.34426" lon="5.9749">
        <ele>381</ele>
        <time>2019-12-17T07:48:01.000Z</time>
      </trkpt>
      <trkpt lat="43.34425" lon="5.97492">
        <ele>381</ele>
        <time>2019-12-17T07:48:02.000Z</time>
      </trkpt>
      <trkpt lat="43.34425" lon="5.97493">
        <ele>381</ele>
        <time>2019-12-17T07:48:03.000Z</time>
      </trkpt>
      <trkpt lat="43.34424" lon="5.97494">
        <ele>381</ele>
        <time>2019-12-17T07:48:04.000Z</time>
      </trkpt>
      <trkpt lat="43.34424" lon="5.97495">
        <ele>381</ele>
        <time>2019-12-17T07:48:05.000Z</time>
      </trkpt>
      <trkpt lat="43.34424" lon="5.97496">
        <ele>381</ele>
        <time>2019-12-17T07:48:06.000Z</time>
      </trkpt>
      <trkpt lat="43.34423" lon="5.97497">
        <ele>381</ele>
        <time>2019-12-17T07:48:07.000Z</time>
      </trkpt>
      <trkpt lat="43.34423" lon="5.97498">
        <ele>381</ele>
        <time>2019-12-17T07:48:08.000Z</time>
      </trkpt>
      <trkpt lat="43.34423" lon="5.97499">
        <ele>381</ele>
        <time>2019-12-17T07:48:09.000Z</time>
      </trkpt>
      <trkpt lat="43.34422" lon="5.975">
        <ele>381</ele>
        <time>2019-12-17T07:48:10.000Z</time>
      </trkpt>
      <trkpt lat="43.34422" lon="5.97501">
        <ele>381</ele>
        <time>2019-12-17T07:48:11.000Z</time>
      </trkpt>
      <trkpt lat="43.34421" lon="5.97502">
        <ele>381</ele>
        <time>2019-12-17T07:48:12.000Z</time>
      </trkpt>
      <trkpt lat="43.34421" lon="5.97503">
        <ele>382</ele>
        <time>2019-12-17T07:48:13.000Z</time>
      </trkpt>
      <trkpt lat="43.34421" lon="5.97504">
        <ele>382</ele>
        <time>2019-12-17T07:48:14.000Z</time>
      </trkpt>
      <trkpt lat="43.3442" lon="5.97505">
        <ele>382</ele>
        <time>2019-12-17T07:48:15.000Z</time>
      </trkpt>
      <trkpt lat="43.3442" lon="5.97506">
        <ele>382</ele>
        <time>2019-12-17T07:48:16.000Z</time>
      </trkpt>
      <trkpt lat="43.3442" lon="5.97507">
        <ele>382</ele>
        <time>2019-12-17T07:48:17.000Z</time>
      </trkpt>
      <trkpt lat="43.34419" lon="5.97508">
        <ele>382</ele>
        <time>2019-12-17T07:48:18.000Z</time>
      </trkpt>
      <trkpt lat="43.34419" lon="5.97509">
        <ele>382</ele>
        <time>2019-12-17T07:48:19.000Z</time>
      </trkpt>
      <trkpt lat="43.34419" lon="5.9751">
        <ele>382</ele>
        <time>2019-12-17T07:48:20.000Z</time>
      </trkpt>
      <trkpt lat="43.34418" lon="5.97511">
        <ele>382</ele>
        <time>2019-12-17T07:48:21.000Z</time>
      </trkpt>
      <trkpt lat="43.34418" lon="5.97511">
        <ele>382</ele>
        <time>2019-12-17T07:48:22.000Z</time>
      </trkpt>
      <trkpt lat="43.34418" lon="5.97512">
        <ele>382</ele>
        <time>2019-12-17T07:48:23.000Z</time>
      </trkpt>
      <trkpt lat="43.34418" lon="5.97513">
        <ele>382</ele>
        <time>2019-12-17T07:48:24.000Z</time>
      </trkpt>
      <trkpt lat="43.34417" lon="5.97513">
        <ele>382</ele>
        <time>2019-12-17T07:48:25.000Z</time>
      </trkpt>
      <trkpt lat="43.34417" lon="5.97513">
        <ele>383</ele>
        <time>2019-12-17T07:48:26.000Z</time>
      </trkpt>
      <trkpt lat="43.34417" lon="5.97514">
        <ele>383</ele>
        <time>2019-12-17T07:48:27.000Z</time>
      </trkpt>
      <trkpt lat="43.34416" lon="5.97515">
        <ele>383</ele>
        <time>2019-12-17T07:48:28.000Z</time>
      </trkpt>
      <trkpt lat="43.34416" lon="5.97516">
        <ele>383</ele>
        <time>2019-12-17T07:48:29.000Z</time>
      </trkpt>
      <trkpt lat="43.34415" lon="5.97517">
        <ele>383</ele>
        <time>2019-12-17T07:48:30.000Z</time>
      </trkpt>
      <trkpt lat="43.34415" lon="5.97518">
        <ele>383</ele>
        <time>2019-12-17T07:48:31.000Z</time>
      </trkpt>
      <trkpt lat="43.34415" lon="5.97519">
        <ele>383</ele>
        <time>2019-12-17T07:48:32.000Z</time>
      </trkpt>
      <trkpt lat="43.34415" lon="5.9752">
        <ele>383</ele>
        <time>2019-12-17T07:48:33.000Z</time>
      </trkpt>
      <trkpt lat="43.34414" lon="5.97521">
        <ele>383</ele>
        <time>2019-12-17T07:48:34.000Z</time>
      </trkpt>
      <trkpt lat="43.34414" lon="5.97522">
        <ele>384</ele>
        <time>2019-12-17T07:48:35.000Z</time>
      </trkpt>
      <trkpt lat="43.34413" lon="5.97523">
        <ele>384</ele>
        <time>2019-12-17T07:48:36.000Z</time>
      </trkpt>
      <trkpt lat="43.34413" lon="5.97524">
        <ele>384</ele>
        <time>2019-12-17T07:48:37.000Z</time>
      </trkpt>
      <trkpt lat="43.34413" lon="5.97524">
        <ele>384</ele>
        <time>2019-12-17T07:48:38.000Z</time>
      </trkpt>
      <trkpt lat="43.34412" lon="5.97526">
        <ele>384</ele>
        <time>2019-12-17T07:48:39.000Z</time>
      </trkpt>
      <trkpt lat="43.34412" lon="5.97527">
        <ele>384</ele>
        <time>2019-12-17T07:48:40.000Z</time>
      </trkpt>
      <trkpt lat="43.34411" lon="5.97528">
        <ele>384</ele>
        <time>2019-12-17T07:48:41.000Z</time>
      </trkpt>
      <trkpt lat="43.34411" lon="5.97529">
        <ele>385</ele>
        <time>2019-12-17T07:48:42.000Z</time>
      </trkpt>
      <trkpt lat="43.3441" lon="5.9753">
        <ele>385</ele>
        <time>2019-12-17T07:48:43.000Z</time>
      </trkpt>
      <trkpt lat="43.3441" lon="5.97531">
        <ele>385</ele>
        <time>2019-12-17T07:48:44.000Z</time>
      </trkpt>
      <trkpt lat="43.3441" lon="5.97532">
        <ele>385</ele>
        <time>2019-12-17T07:48:45.000Z</time>
      </trkpt>
      <trkpt lat="43.3441" lon="5.97533">
        <ele>385</ele>
        <time>2019-12-17T07:48:46.000Z</time>
      </trkpt>
      <trkpt lat="43.3441" lon="5.97534">
        <ele>385</ele>
        <time>2019-12-17T07:48:47.000Z</time>
      </trkpt>
      <trkpt lat="43.34409" lon="5.97535">
        <ele>385</ele>
        <time>2019-12-17T07:48:48.000Z</time>
      </trkpt>
      <trkpt lat="43.34409" lon="5.97536">
        <ele>385</ele>
        <time>2019-12-17T07:48:49.000Z</time>
      </trkpt>
      <trkpt lat="43.34409" lon="5.97537">
        <ele>385</ele>
        <time>2019-12-17T07:48:50.000Z</time>
      </trkpt>
      <trkpt lat="43.34409" lon="5.97539">
        <ele>385</ele>
        <time>2019-12-17T07:48:51.000Z</time>
      </trkpt>
      <trkpt lat="43.34409" lon="5.9754">
        <ele>385</ele>
        <time>2019-12-17T07:48:52.000Z</time>
      </trkpt>
      <trkpt lat="43.34409" lon="5.97541">
        <ele>385</ele>
        <time>2019-12-17T07:48:53.000Z</time>
      </trkpt>
      <trkpt lat="43.34409" lon="5.97542">
        <ele>385</ele>
        <time>2019-12-17T07:48:54.000Z</time>
      </trkpt>
      <trkpt lat="43.34409" lon="5.97543">
        <ele>385</ele>
        <time>2019-12-17T07:48:55.000Z</time>
      </trkpt>
      <trkpt lat="43.34408" lon="5.97544">
        <ele>385</ele>
        <time>2019-12-17T07:48:56.000Z</time>
      </trkpt>
      <trkpt lat="43.34408" lon="5.97545">
        <ele>385</ele>
        <time>2019-12-17T07:48:57.000Z</time>
      </trkpt>
      <trkpt lat="43.34408" lon="5.97546">
        <ele>385</ele>
        <time>2019-12-17T07:48:58.000Z</time>
      </trkpt>
      <trkpt lat="43.34408" lon="5.97547">
        <ele>385</ele>
        <time>2019-12-17T07:48:59.000Z</time>
      </trkpt>
      <trkpt lat="43.34408" lon="5.97548">
        <ele>385</ele>
        <time>2019-12-17T07:49:00.000Z</time>
      </trkpt>
      <trkpt lat="43.34408" lon="5.9755">
        <ele>386</ele>
        <time>2019-12-17T07:49:01.000Z</time>
      </trkpt>
      <trkpt lat="43.34408" lon="5.97551">
        <ele>386</ele>
        <time>2019-12-17T07:49:02.000Z</time>
      </trkpt>
      <trkpt lat="43.34407" lon="5.97552">
        <ele>386</ele>
        <time>2019-12-17T07:49:03.000Z</time>
      </trkpt>
      <trkpt lat="43.34407" lon="5.97553">
        <ele>386</ele>
        <time>2019-12-17T07:49:04.000Z</time>
      </trkpt>
      <trkpt lat="43.34407" lon="5.97554">
        <ele>387</ele>
        <time>2019-12-17T07:49:05.000Z</time>
      </trkpt>
      <trkpt lat="43.34407" lon="5.97555">
        <ele>387</ele>
        <time>2019-12-17T07:49:06.000Z</time>
      </trkpt>
      <trkpt lat="43.34407" lon="5.97556">
        <ele>387</ele>
        <time>2019-12-17T07:49:07.000Z</time>
      </trkpt>
      <trkpt lat="43.34407" lon="5.97557">
        <ele>387</ele>
        <time>2019-12-17T07:49:08.000Z</time>
      </trkpt>
      <trkpt lat="43.34407" lon="5.97558">
        <ele>387</ele>
        <time>2019-12-17T07:49:09.000Z</time>
      </trkpt>
      <trkpt lat="43.34407" lon="5.97559">
        <ele>387</ele>
        <time>2019-12-17T07:49:10.000Z</time>
      </trkpt>
      <trkpt lat="43.34407" lon="5.9756">
        <ele>388</ele>
        <time>2019-12-17T07:49:11.000Z</time>
      </trkpt>
      <trkpt lat="43.34407" lon="5.97561">
        <ele>388</ele>
        <time>2019-12-17T07:49:12.000Z</time>
      </trkpt>
      <trkpt lat="43.34407" lon="5.97562">
        <ele>388</ele>
        <time>2019-12-17T07:49:13.000Z</time>
      </trkpt>
      <trkpt lat="43.34407" lon="5.97563">
        <ele>388</ele>
        <time>2019-12-17T07:49:14.000Z</time>
      </trkpt>
      <trkpt lat="43.34406" lon="5.97564">
        <ele>388</ele>
        <time>2019-12-17T07:49:15.000Z</time>
      </trkpt>
      <trkpt lat="43.34406" lon="5.97566">
        <ele>388</ele>
        <time>2019-12-17T07:49:16.000Z</time>
      </trkpt>
      <trkpt lat="43.34406" lon="5.97567">
        <ele>389</ele>
        <time>2019-12-17T07:49:17.000Z</time>
      </trkpt>
      <trkpt lat="43.34406" lon="5.97568">
        <ele>389</ele>
        <time>2019-12-17T07:49:18.000Z</time>
      </trkpt>
      <trkpt lat="43.34407" lon="5.97569">
        <ele>389</ele>
        <time>2019-12-17T07:49:19.000Z</time>
      </trkpt>
      <trkpt lat="43.34406" lon="5.9757">
        <ele>389</ele>
        <time>2019-12-17T07:49:20.000Z</time>
      </trkpt>
      <trkpt lat="43.34406" lon="5.97571">
        <ele>390</ele>
        <time>2019-12-17T07:49:21.000Z</time>
      </trkpt>
      <trkpt lat="43.34406" lon="5.97572">
        <ele>390</ele>
        <time>2019-12-17T07:49:22.000Z</time>
      </trkpt>
      <trkpt lat="43.34406" lon="5.97573">
        <ele>390</ele>
        <time>2019-12-17T07:49:23.000Z</time>
      </trkpt>
      <trkpt lat="43.34406" lon="5.97574">
        <ele>391</ele>
        <time>2019-12-17T07:49:24.000Z</time>
      </trkpt>
      <trkpt lat="43.34407" lon="5.97576">
        <ele>391</ele>
        <time>2019-12-17T07:49:25.000Z</time>
      </trkpt>
      <trkpt lat="43.34407" lon="5.97577">
        <ele>391</ele>
        <time>2019-12-17T07:49:26.000Z</time>
      </trkpt>
      <trkpt lat="43.34407" lon="5.97578">
        <ele>391</ele>
        <time>2019-12-17T07:49:27.000Z</time>
      </trkpt>
      <trkpt lat="43.34407" lon="5.97579">
        <ele>391</ele>
        <time>2019-12-17T07:49:28.000Z</time>
      </trkpt>
      <trkpt lat="43.34407" lon="5.9758">
        <ele>391</ele>
        <time>2019-12-17T07:49:29.000Z</time>
      </trkpt>
      <trkpt lat="43.34407" lon="5.97581">
        <ele>392</ele>
        <time>2019-12-17T07:49:30.000Z</time>
      </trkpt>
      <trkpt lat="43.34407" lon="5.97583">
        <ele>392</ele>
        <time>2019-12-17T07:49:31.000Z</time>
      </trkpt>
      <trkpt lat="43.34407" lon="5.97583">
        <ele>392</ele>
        <time>2019-12-17T07:49:32.000Z</time>
      </trkpt>
      <trkpt lat="43.34407" lon="5.97583">
        <ele>392</ele>
        <time>2019-12-17T07:49:33.000Z</time>
      </trkpt>
      <trkpt lat="43.34407" lon="5.97583">
        <ele>392</ele>
        <time>2019-12-17T07:49:34.000Z</time>
      </trkpt>
      <trkpt lat="43.34407" lon="5.97584">
        <ele>392</ele>
        <time>2019-12-17T07:49:35.000Z</time>
      </trkpt>
      <trkpt lat="43.34407" lon="5.97585">
        <ele>392</ele>
        <time>2019-12-17T07:49:36.000Z</time>
      </trkpt>
      <trkpt lat="43.34407" lon="5.97587">
        <ele>392</ele>
        <time>2019-12-17T07:49:37.000Z</time>
      </trkpt>
      <trkpt lat="43.34407" lon="5.97588">
        <ele>392</ele>
        <time>2019-12-17T07:49:38.000Z</time>
      </trkpt>
      <trkpt lat="43.34407" lon="5.97589">
        <ele>392</ele>
        <time>2019-12-17T07:49:39.000Z</time>
      </trkpt>
      <trkpt lat="43.34408" lon="5.97591">
        <ele>392</ele>
        <time>2019-12-17T07:49:40.000Z</time>
      </trkpt>
      <trkpt lat="43.34408" lon="5.97592">
        <ele>392</ele>
        <time>2019-12-17T07:49:41.000Z</time>
      </trkpt>
      <trkpt lat="43.34409" lon="5.97593">
        <ele>392</ele>
        <time>2019-12-17T07:49:42.000Z</time>
      </trkpt>
      <trkpt lat="43.34409" lon="5.97594">
        <ele>392</ele>
        <time>2019-12-17T07:49:43.000Z</time>
      </trkpt>
      <trkpt lat="43.34409" lon="5.97595">
        <ele>392</ele>
        <time>2019-12-17T07:49:44.000Z</time>
      </trkpt>
      <trkpt lat="43.3441" lon="5.97596">
        <ele>392</ele>
        <time>2019-12-17T07:49:45.000Z</time>
      </trkpt>
      <trkpt lat="43.3441" lon="5.97597">
        <ele>392</ele>
        <time>2019-12-17T07:49:46.000Z</time>
      </trkpt>
      <trkpt lat="43.3441" lon="5.97598">
        <ele>392</ele>
        <time>2019-12-17T07:49:47.000Z</time>
      </trkpt>
      <trkpt lat="43.34411" lon="5.97599">
        <ele>392</ele>
        <time>2019-12-17T07:49:48.000Z</time>
      </trkpt>
      <trkpt lat="43.34411" lon="5.97601">
        <ele>392</ele>
        <time>2019-12-17T07:49:49.000Z</time>
      </trkpt>
      <trkpt lat="43.34412" lon="5.97602">
        <ele>392</ele>
        <time>2019-12-17T07:49:50.000Z</time>
      </trkpt>
      <trkpt lat="43.34412" lon="5.97603">
        <ele>392</ele>
        <time>2019-12-17T07:49:51.000Z</time>
      </trkpt>
      <trkpt lat="43.34413" lon="5.97604">
        <ele>392</ele>
        <time>2019-12-17T07:49:52.000Z</time>
      </trkpt>
      <trkpt lat="43.34413" lon="5.97605">
        <ele>392</ele>
        <time>2019-12-17T07:49:53.000Z</time>
      </trkpt>
      <trkpt lat="43.34414" lon="5.97605">
        <ele>392</ele>
        <time>2019-12-17T07:49:54.000Z</time>
      </trkpt>
      <trkpt lat="43.34415" lon="5.97606">
        <ele>392</ele>
        <time>2019-12-17T07:49:55.000Z</time>
      </trkpt>
      <trkpt lat="43.34416" lon="5.97607">
        <ele>392</ele>
        <time>2019-12-17T07:49:56.000Z</time>
      </trkpt>
      <trkpt lat="43.34417" lon="5.97608">
        <ele>392</ele>
        <time>2019-12-17T07:49:57.000Z</time>
      </trkpt>
      <trkpt lat="43.34417" lon="5.97609">
        <ele>392</ele>
        <time>2019-12-17T07:49:58.000Z</time>
      </trkpt>
      <trkpt lat="43.34418" lon="5.97609">
        <ele>392</ele>
        <time>2019-12-17T07:49:59.000Z</time>
      </trkpt>
      <trkpt lat="43.34419" lon="5.9761">
        <ele>392</ele>
        <time>2019-12-17T07:50:00.000Z</time>
      </trkpt>
      <trkpt lat="43.34421" lon="5.9761">
        <ele>392</ele>
        <time>2019-12-17T07:50:01.000Z</time>
      </trkpt>
      <trkpt lat="43.34422" lon="5.97611">
        <ele>392</ele>
        <time>2019-12-17T07:50:02.000Z</time>
      </trkpt>
      <trkpt lat="43.34422" lon="5.97611">
        <ele>392</ele>
        <time>2019-12-17T07:50:03.000Z</time>
      </trkpt>
      <trkpt lat="43.34423" lon="5.97612">
        <ele>392</ele>
        <time>2019-12-17T07:50:04.000Z</time>
      </trkpt>
      <trkpt lat="43.34424" lon="5.97612">
        <ele>392</ele>
        <time>2019-12-17T07:50:05.000Z</time>
      </trkpt>
      <trkpt lat="43.34425" lon="5.97613">
        <ele>392</ele>
        <time>2019-12-17T07:50:06.000Z</time>
      </trkpt>
      <trkpt lat="43.34426" lon="5.97613">
        <ele>392</ele>
        <time>2019-12-17T07:50:07.000Z</time>
      </trkpt>
      <trkpt lat="43.34427" lon="5.97614">
        <ele>392</ele>
        <time>2019-12-17T07:50:08.000Z</time>
      </trkpt>
      <trkpt lat="43.34427" lon="5.97614">
        <ele>392</ele>
        <time>2019-12-17T07:50:09.000Z</time>
      </trkpt>
      <trkpt lat="43.34428" lon="5.97614">
        <ele>392</ele>
        <time>2019-12-17T07:50:10.000Z</time>
      </trkpt>
      <trkpt lat="43.34429" lon="5.97614">
        <ele>391</ele>
        <time>2019-12-17T07:50:11.000Z</time>
      </trkpt>
      <trkpt lat="43.3443" lon="5.97614">
        <ele>391</ele>
        <time>2019-12-17T07:50:12.000Z</time>
      </trkpt>
      <trkpt lat="43.34431" lon="5.97615">
        <ele>391</ele>
        <time>2019-12-17T07:50:13.000Z</time>
      </trkpt>
      <trkpt lat="43.34432" lon="5.97615">
        <ele>391</ele>
        <time>2019-12-17T07:50:14.000Z</time>
      </trkpt>
      <trkpt lat="43.34433" lon="5.97616">
        <ele>391</ele>
        <time>2019-12-17T07:50:15.000Z</time>
      </trkpt>
      <trkpt lat="43.34434" lon="5.97617">
        <ele>391</ele>
        <time>2019-12-17T07:50:16.000Z</time>
      </trkpt>
      <trkpt lat="43.34435" lon="5.97617">
        <ele>391</ele>
        <time>2019-12-17T07:50:17.000Z</time>
      </trkpt>
      <trkpt lat="43.34436" lon="5.97617">
        <ele>391</ele>
        <time>2019-12-17T07:50:18.000Z</time>
      </trkpt>
      <trkpt lat="43.34437" lon="5.97618">
        <ele>391</ele>
        <time>2019-12-17T07:50:19.000Z</time>
      </trkpt>
      <trkpt lat="43.34438" lon="5.97619">
        <ele>391</ele>
        <time>2019-12-17T07:50:20.000Z</time>
      </trkpt>
      <trkpt lat="43.34439" lon="5.97619">
        <ele>391</ele>
        <time>2019-12-17T07:50:21.000Z</time>
      </trkpt>
      <trkpt lat="43.3444" lon="5.9762">
        <ele>391</ele>
        <time>2019-12-17T07:50:22.000Z</time>
      </trkpt>
      <trkpt lat="43.34441" lon="5.97621">
        <ele>391</ele>
        <time>2019-12-17T07:50:23.000Z</time>
      </trkpt>
      <trkpt lat="43.34442" lon="5.97621">
        <ele>391</ele>
        <time>2019-12-17T07:50:24.000Z</time>
      </trkpt>
      <trkpt lat="43.34443" lon="5.97622">
        <ele>391</ele>
        <time>2019-12-17T07:50:25.000Z</time>
      </trkpt>
      <trkpt lat="43.34444" lon="5.97623">
        <ele>391</ele>
        <time>2019-12-17T07:50:26.000Z</time>
      </trkpt>
      <trkpt lat="43.34445" lon="5.97624">
        <ele>391</ele>
        <time>2019-12-17T07:50:27.000Z</time>
      </trkpt>
      <trkpt lat="43.34446" lon="5.97625">
        <ele>390</ele>
        <time>2019-12-17T07:50:28.000Z</time>
      </trkpt>
      <trkpt lat="43.34447" lon="5.97625">
        <ele>390</ele>
        <time>2019-12-17T07:50:29.000Z</time>
      </trkpt>
      <trkpt lat="43.34448" lon="5.97626">
        <ele>390</ele>
        <time>2019-12-17T07:50:30.000Z</time>
      </trkpt>
      <trkpt lat="43.34449" lon="5.97627">
        <ele>390</ele>
        <time>2019-12-17T07:50:31.000Z</time>
      </trkpt>
      <trkpt lat="43.34449" lon="5.97628">
        <ele>390</ele>
        <time>2019-12-17T07:50:32.000Z</time>
      </trkpt>
      <trkpt lat="43.34451" lon="5.97629">
        <ele>390</ele>
        <time>2019-12-17T07:50:33.000Z</time>
      </trkpt>
      <trkpt lat="43.34451" lon="5.9763">
        <ele>389</ele>
        <time>2019-12-17T07:50:34.000Z</time>
      </trkpt>
      <trkpt lat="43.34452" lon="5.97631">
        <ele>389</ele>
        <time>2019-12-17T07:50:35.000Z</time>
      </trkpt>
      <trkpt lat="43.34453" lon="5.97632">
        <ele>389</ele>
        <time>2019-12-17T07:50:36.000Z</time>
      </trkpt>
      <trkpt lat="43.34454" lon="5.97633">
        <ele>389</ele>
        <time>2019-12-17T07:50:37.000Z</time>
      </trkpt>
      <trkpt lat="43.34455" lon="5.97634">
        <ele>389</ele>
        <time>2019-12-17T07:50:38.000Z</time>
      </trkpt>
      <trkpt lat="43.34456" lon="5.97635">
        <ele>389</ele>
        <time>2019-12-17T07:50:39.000Z</time>
      </trkpt>
      <trkpt lat="43.34457" lon="5.97636">
        <ele>389</ele>
        <time>2019-12-17T07:50:40.000Z</time>
      </trkpt>
      <trkpt lat="43.34458" lon="5.97637">
        <ele>389</ele>
        <time>2019-12-17T07:50:41.000Z</time>
      </trkpt>
      <trkpt lat="43.34458" lon="5.97639">
        <ele>389</ele>
        <time>2019-12-17T07:50:42.000Z</time>
      </trkpt>
      <trkpt lat="43.34459" lon="5.9764">
        <ele>388</ele>
        <time>2019-12-17T07:50:43.000Z</time>
      </trkpt>
      <trkpt lat="43.3446" lon="5.97641">
        <ele>388</ele>
        <time>2019-12-17T07:50:44.000Z</time>
      </trkpt>
      <trkpt lat="43.34461" lon="5.97642">
        <ele>388</ele>
        <time>2019-12-17T07:50:45.000Z</time>
      </trkpt>
      <trkpt lat="43.34462" lon="5.97643">
        <ele>388</ele>
        <time>2019-12-17T07:50:46.000Z</time>
      </trkpt>
      <trkpt lat="43.34463" lon="5.97644">
        <ele>388</ele>
        <time>2019-12-17T07:50:47.000Z</time>
      </trkpt>
      <trkpt lat="43.34464" lon="5.97645">
        <ele>388</ele>
        <time>2019-12-17T07:50:48.000Z</time>
      </trkpt>
      <trkpt lat="43.34464" lon="5.97646">
        <ele>388</ele>
        <time>2019-12-17T07:50:49.000Z</time>
      </trkpt>
      <trkpt lat="43.34465" lon="5.97647">
        <ele>388</ele>
        <time>2019-12-17T07:50:50.000Z</time>
      </trkpt>
      <trkpt lat="43.34466" lon="5.97648">
        <ele>388</ele>
        <time>2019-12-17T07:50:51.000Z</time>
      </trkpt>
      <trkpt lat="43.34467" lon="5.9765">
        <ele>388</ele>
        <time>2019-12-17T07:50:52.000Z</time>
      </trkpt>
      <trkpt lat="43.34467" lon="5.97651">
        <ele>388</ele>
        <time>2019-12-17T07:50:53.000Z</time>
      </trkpt>
      <trkpt lat="43.34468" lon="5.97652">
        <ele>388</ele>
        <time>2019-12-17T07:50:54.000Z</time>
      </trkpt>
      <trkpt lat="43.34468" lon="5.97653">
        <ele>388</ele>
        <time>2019-12-17T07:50:55.000Z</time>
      </trkpt>
      <trkpt lat="43.34469" lon="5.97654">
        <ele>388</ele>
        <time>2019-12-17T07:50:56.000Z</time>
      </trkpt>
      <trkpt lat="43.3447" lon="5.97655">
        <ele>388</ele>
        <time>2019-12-17T07:50:57.000Z</time>
      </trkpt>
      <trkpt lat="43.3447" lon="5.97656">
        <ele>388</ele>
        <time>2019-12-17T07:50:58.000Z</time>
      </trkpt>
      <trkpt lat="43.34471" lon="5.97657">
        <ele>388</ele>
        <time>2019-12-17T07:50:59.000Z</time>
      </trkpt>
      <trkpt lat="43.34472" lon="5.97659">
        <ele>388</ele>
        <time>2019-12-17T07:51:00.000Z</time>
      </trkpt>
      <trkpt lat="43.34472" lon="5.9766">
        <ele>388</ele>
        <time>2019-12-17T07:51:01.000Z</time>
      </trkpt>
      <trkpt lat="43.34473" lon="5.97661">
        <ele>388</ele>
        <time>2019-12-17T07:51:02.000Z</time>
      </trkpt>
      <trkpt lat="43.34474" lon="5.97662">
        <ele>388</ele>
        <time>2019-12-17T07:51:03.000Z</time>
      </trkpt>
      <trkpt lat="43.34474" lon="5.97663">
        <ele>388</ele>
        <time>2019-12-17T07:51:04.000Z</time>
      </trkpt>
      <trkpt lat="43.34475" lon="5.97664">
        <ele>389</ele>
        <time>2019-12-17T07:51:05.000Z</time>
      </trkpt>
      <trkpt lat="43.34475" lon="5.97665">
        <ele>389</ele>
        <time>2019-12-17T07:51:06.000Z</time>
      </trkpt>
      <trkpt lat="43.34476" lon="5.97667">
        <ele>389</ele>
        <time>2019-12-17T07:51:07.000Z</time>
      </trkpt>
      <trkpt lat="43.34476" lon="5.97668">
        <ele>389</ele>
        <time>2019-12-17T07:51:08.000Z</time>
      </trkpt>
      <trkpt lat="43.34477" lon="5.97669">
        <ele>389</ele>
        <time>2019-12-17T07:51:09.000Z</time>
      </trkpt>
      <trkpt lat="43.34478" lon="5.9767">
        <ele>389</ele>
        <time>2019-12-17T07:51:10.000Z</time>
      </trkpt>
      <trkpt lat="43.34478" lon="5.97671">
        <ele>389</ele>
        <time>2019-12-17T07:51:11.000Z</time>
      </trkpt>
      <trkpt lat="43.34479" lon="5.97672">
        <ele>389</ele>
        <time>2019-12-17T07:51:12.000Z</time>
      </trkpt>
      <trkpt lat="43.34479" lon="5.97673">
        <ele>390</ele>
        <time>2019-12-17T07:51:13.000Z</time>
      </trkpt>
      <trkpt lat="43.3448" lon="5.97673">
        <ele>390</ele>
        <time>2019-12-17T07:51:14.000Z</time>
      </trkpt>
      <trkpt lat="43.34481" lon="5.97674">
        <ele>390</ele>
        <time>2019-12-17T07:51:15.000Z</time>
      </trkpt>
      <trkpt lat="43.34481" lon="5.97675">
        <ele>390</ele>
        <time>2019-12-17T07:51:16.000Z</time>
      </trkpt>
      <trkpt lat="43.34482" lon="5.97676">
        <ele>390</ele>
        <time>2019-12-17T07:51:17.000Z</time>
      </trkpt>
      <trkpt lat="43.34482" lon="5.97677">
        <ele>390</ele>
        <time>2019-12-17T07:51:18.000Z</time>
      </trkpt>
      <trkpt lat="43.34483" lon="5.97679">
        <ele>390</ele>
        <time>2019-12-17T07:51:19.000Z</time>
      </trkpt>
      <trkpt lat="43.34483" lon="5.9768">
        <ele>390</ele>
        <time>2019-12-17T07:51:20.000Z</time>
      </trkpt>
      <trkpt lat="43.34484" lon="5.97682">
        <ele>391</ele>
        <time>2019-12-17T07:51:21.000Z</time>
      </trkpt>
      <trkpt lat="43.34484" lon="5.97683">
        <ele>391</ele>
        <time>2019-12-17T07:51:22.000Z</time>
      </trkpt>
      <trkpt lat="43.34485" lon="5.97685">
        <ele>391</ele>
        <time>2019-12-17T07:51:23.000Z</time>
      </trkpt>
      <trkpt lat="43.34485" lon="5.97686">
        <ele>391</ele>
        <time>2019-12-17T07:51:24.000Z</time>
      </trkpt>
      <trkpt lat="43.34485" lon="5.97687">
        <ele>391</ele>
        <time>2019-12-17T07:51:25.000Z</time>
      </trkpt>
      <trkpt lat="43.34485" lon="5.97689">
        <ele>391</ele>
        <time>2019-12-17T07:51:26.000Z</time>
      </trkpt>
      <trkpt lat="43.34485" lon="5.97691">
        <ele>391</ele>
        <time>2019-12-17T07:51:27.000Z</time>
      </trkpt>
      <trkpt lat="43.34485" lon="5.97692">
        <ele>391</ele>
        <time>2019-12-17T07:51:28.000Z</time>
      </trkpt>
      <trkpt lat="43.34486" lon="5.97693">
        <ele>391</ele>
        <time>2019-12-17T07:51:29.000Z</time>
      </trkpt>
      <trkpt lat="43.34486" lon="5.97695">
        <ele>391</ele>
        <time>2019-12-17T07:51:30.000Z</time>
      </trkpt>
      <trkpt lat="43.34487" lon="5.97696">
        <ele>391</ele>
        <time>2019-12-17T07:51:31.000Z</time>
      </trkpt>
      <trkpt lat="43.34487" lon="5.97697">
        <ele>391</ele>
        <time>2019-12-17T07:51:32.000Z</time>
      </trkpt>
      <trkpt lat="43.34488" lon="5.97698">
        <ele>391</ele>
        <time>2019-12-17T07:51:33.000Z</time>
      </trkpt>
      <trkpt lat="43.34488" lon="5.977">
        <ele>391</ele>
        <time>2019-12-17T07:51:34.000Z</time>
      </trkpt>
      <trkpt lat="43.34489" lon="5.97701">
        <ele>391</ele>
        <time>2019-12-17T07:51:35.000Z</time>
      </trkpt>
      <trkpt lat="43.34489" lon="5.97703">
        <ele>391</ele>
        <time>2019-12-17T07:51:36.000Z</time>
      </trkpt>
      <trkpt lat="43.3449" lon="5.97704">
        <ele>391</ele>
        <time>2019-12-17T07:51:37.000Z</time>
      </trkpt>
      <trkpt lat="43.3449" lon="5.97706">
        <ele>391</ele>
        <time>2019-12-17T07:51:38.000Z</time>
      </trkpt>
      <trkpt lat="43.3449" lon="5.97707">
        <ele>391</ele>
        <time>2019-12-17T07:51:39.000Z</time>
      </trkpt>
      <trkpt lat="43.34491" lon="5.97709">
        <ele>391</ele>
        <time>2019-12-17T07:51:40.000Z</time>
      </trkpt>
      <trkpt lat="43.34491" lon="5.9771">
        <ele>391</ele>
        <time>2019-12-17T07:51:41.000Z</time>
      </trkpt>
      <trkpt lat="43.34491" lon="5.97712">
        <ele>391</ele>
        <time>2019-12-17T07:51:42.000Z</time>
      </trkpt>
      <trkpt lat="43.34492" lon="5.97713">
        <ele>391</ele>
        <time>2019-12-17T07:51:43.000Z</time>
      </trkpt>
      <trkpt lat="43.34492" lon="5.97715">
        <ele>391</ele>
        <time>2019-12-17T07:51:44.000Z</time>
      </trkpt>
      <trkpt lat="43.34492" lon="5.97717">
        <ele>392</ele>
        <time>2019-12-17T07:51:45.000Z</time>
      </trkpt>
      <trkpt lat="43.34493" lon="5.97718">
        <ele>392</ele>
        <time>2019-12-17T07:51:46.000Z</time>
      </trkpt>
      <trkpt lat="43.34493" lon="5.97719">
        <ele>392</ele>
        <time>2019-12-17T07:51:47.000Z</time>
      </trkpt>
      <trkpt lat="43.34493" lon="5.97721">
        <ele>392</ele>
        <time>2019-12-17T07:51:48.000Z</time>
      </trkpt>
      <trkpt lat="43.34493" lon="5.97723">
        <ele>392</ele>
        <time>2019-12-17T07:51:49.000Z</time>
      </trkpt>
      <trkpt lat="43.34494" lon="5.97724">
        <ele>392</ele>
        <time>2019-12-17T07:51:50.000Z</time>
      </trkpt>
      <trkpt lat="43.34494" lon="5.97726">
        <ele>392</ele>
        <time>2019-12-17T07:51:51.000Z</time>
      </trkpt>
      <trkpt lat="43.34494" lon="5.97728">
        <ele>393</ele>
        <time>2019-12-17T07:51:52.000Z</time>
      </trkpt>
      <trkpt lat="43.34495" lon="5.97729">
        <ele>393</ele>
        <time>2019-12-17T07:51:53.000Z</time>
      </trkpt>
      <trkpt lat="43.34495" lon="5.97731">
        <ele>393</ele>
        <time>2019-12-17T07:51:54.000Z</time>
      </trkpt>
      <trkpt lat="43.34495" lon="5.97732">
        <ele>393</ele>
        <time>2019-12-17T07:51:55.000Z</time>
      </trkpt>
      <trkpt lat="43.34495" lon="5.97734">
        <ele>393</ele>
        <time>2019-12-17T07:51:56.000Z</time>
      </trkpt>
      <trkpt lat="43.34496" lon="5.97735">
        <ele>393</ele>
        <time>2019-12-17T07:51:57.000Z</time>
      </trkpt>
      <trkpt lat="43.34496" lon="5.97737">
        <ele>393</ele>
        <time>2019-12-17T07:51:58.000Z</time>
      </trkpt>
      <trkpt lat="43.34496" lon="5.97739">
        <ele>393</ele>
        <time>2019-12-17T07:51:59.000Z</time>
      </trkpt>
      <trkpt lat="43.34497" lon="5.9774">
        <ele>393</ele>
        <time>2019-12-17T07:52:00.000Z</time>
      </trkpt>
      <trkpt lat="43.34497" lon="5.97742">
        <ele>393</ele>
        <time>2019-12-17T07:52:01.000Z</time>
      </trkpt>
      <trkpt lat="43.34498" lon="5.97743">
        <ele>393</ele>
        <time>2019-12-17T07:52:02.000Z</time>
      </trkpt>
      <trkpt lat="43.34498" lon="5.97745">
        <ele>393</ele>
        <time>2019-12-17T07:52:03.000Z</time>
      </trkpt>
      <trkpt lat="43.34499" lon="5.97747">
        <ele>393</ele>
        <time>2019-12-17T07:52:04.000Z</time>
      </trkpt>
      <trkpt lat="43.34499" lon="5.97748">
        <ele>393</ele>
        <time>2019-12-17T07:52:05.000Z</time>
      </trkpt>
      <trkpt lat="43.345" lon="5.9775">
        <ele>393</ele>
        <time>2019-12-17T07:52:06.000Z</time>
      </trkpt>
      <trkpt lat="43.345" lon="5.97751">
        <ele>393</ele>
        <time>2019-12-17T07:52:07.000Z</time>
      </trkpt>
      <trkpt lat="43.345" lon="5.97753">
        <ele>393</ele>
        <time>2019-12-17T07:52:08.000Z</time>
      </trkpt>
      <trkpt lat="43.345" lon="5.97754">
        <ele>393</ele>
        <time>2019-12-17T07:52:09.000Z</time>
      </trkpt>
      <trkpt lat="43.345" lon="5.97756">
        <ele>393</ele>
        <time>2019-12-17T07:52:10.000Z</time>
      </trkpt>
      <trkpt lat="43.34501" lon="5.97757">
        <ele>393</ele>
        <time>2019-12-17T07:52:11.000Z</time>
      </trkpt>
      <trkpt lat="43.34501" lon="5.97759">
        <ele>393</ele>
        <time>2019-12-17T07:52:12.000Z</time>
      </trkpt>
      <trkpt lat="43.34502" lon="5.9776">
        <ele>393</ele>
        <time>2019-12-17T07:52:13.000Z</time>
      </trkpt>
      <trkpt lat="43.34502" lon="5.97761">
        <ele>393</ele>
        <time>2019-12-17T07:52:14.000Z</time>
      </trkpt>
      <trkpt lat="43.34502" lon="5.97762">
        <ele>392</ele>
        <time>2019-12-17T07:52:15.000Z</time>
      </trkpt>
      <trkpt lat="43.34503" lon="5.97763">
        <ele>392</ele>
        <time>2019-12-17T07:52:16.000Z</time>
      </trkpt>
      <trkpt lat="43.34503" lon="5.97764">
        <ele>392</ele>
        <time>2019-12-17T07:52:17.000Z</time>
      </trkpt>
      <trkpt lat="43.34504" lon="5.97765">
        <ele>392</ele>
        <time>2019-12-17T07:52:18.000Z</time>
      </trkpt>
      <trkpt lat="43.34505" lon="5.97766">
        <ele>392</ele>
        <time>2019-12-17T07:52:19.000Z</time>
      </trkpt>
      <trkpt lat="43.34506" lon="5.97767">
        <ele>392</ele>
        <time>2019-12-17T07:52:20.000Z</time>
      </trkpt>
      <trkpt lat="43.34507" lon="5.97767">
        <ele>392</ele>
        <time>2019-12-17T07:52:21.000Z</time>
      </trkpt>
      <trkpt lat="43.34508" lon="5.97768">
        <ele>391</ele>
        <time>2019-12-17T07:52:22.000Z</time>
      </trkpt>
      <trkpt lat="43.34509" lon="5.97769">
        <ele>391</ele>
        <time>2019-12-17T07:52:23.000Z</time>
      </trkpt>
      <trkpt lat="43.3451" lon="5.97769">
        <ele>391</ele>
        <time>2019-12-17T07:52:24.000Z</time>
      </trkpt>
      <trkpt lat="43.3451" lon="5.97769">
        <ele>391</ele>
        <time>2019-12-17T07:52:25.000Z</time>
      </trkpt>
      <trkpt lat="43.34512" lon="5.9777">
        <ele>391</ele>
        <time>2019-12-17T07:52:26.000Z</time>
      </trkpt>
      <trkpt lat="43.34513" lon="5.9777">
        <ele>391</ele>
        <time>2019-12-17T07:52:27.000Z</time>
      </trkpt>
      <trkpt lat="43.34514" lon="5.9777">
        <ele>391</ele>
        <time>2019-12-17T07:52:28.000Z</time>
      </trkpt>
      <trkpt lat="43.34515" lon="5.97771">
        <ele>391</ele>
        <time>2019-12-17T07:52:29.000Z</time>
      </trkpt>
      <trkpt lat="43.34516" lon="5.97771">
        <ele>391</ele>
        <time>2019-12-17T07:52:30.000Z</time>
      </trkpt>
      <trkpt lat="43.34517" lon="5.97772">
        <ele>391</ele>
        <time>2019-12-17T07:52:31.000Z</time>
      </trkpt>
      <trkpt lat="43.34518" lon="5.97772">
        <ele>390</ele>
        <time>2019-12-17T07:52:32.000Z</time>
      </trkpt>
      <trkpt lat="43.34519" lon="5.97773">
        <ele>390</ele>
        <time>2019-12-17T07:52:33.000Z</time>
      </trkpt>
      <trkpt lat="43.3452" lon="5.97773">
        <ele>390</ele>
        <time>2019-12-17T07:52:34.000Z</time>
      </trkpt>
      <trkpt lat="43.34521" lon="5.97773">
        <ele>390</ele>
        <time>2019-12-17T07:52:35.000Z</time>
      </trkpt>
      <trkpt lat="43.34522" lon="5.97773">
        <ele>390</ele>
        <time>2019-12-17T07:52:36.000Z</time>
      </trkpt>
      <trkpt lat="43.34523" lon="5.97773">
        <ele>390</ele>
        <time>2019-12-17T07:52:37.000Z</time>
      </trkpt>
      <trkpt lat="43.34524" lon="5.97773">
        <ele>390</ele>
        <time>2019-12-17T07:52:38.000Z</time>
      </trkpt>
      <trkpt lat="43.34525" lon="5.97774">
        <ele>390</ele>
        <time>2019-12-17T07:52:39.000Z</time>
      </trkpt>
      <trkpt lat="43.34526" lon="5.97774">
        <ele>390</ele>
        <time>2019-12-17T07:52:40.000Z</time>
      </trkpt>
      <trkpt lat="43.34527" lon="5.97775">
        <ele>390</ele>
        <time>2019-12-17T07:52:41.000Z</time>
      </trkpt>
      <trkpt lat="43.34528" lon="5.97776">
        <ele>390</ele>
        <time>2019-12-17T07:52:42.000Z</time>
      </trkpt>
      <trkpt lat="43.34529" lon="5.97776">
        <ele>390</ele>
        <time>2019-12-17T07:52:43.000Z</time>
      </trkpt>
      <trkpt lat="43.3453" lon="5.97777">
        <ele>390</ele>
        <time>2019-12-17T07:52:44.000Z</time>
      </trkpt>
      <trkpt lat="43.34531" lon="5.97778">
        <ele>390</ele>
        <time>2019-12-17T07:52:45.000Z</time>
      </trkpt>
      <trkpt lat="43.34532" lon="5.97779">
        <ele>390</ele>
        <time>2019-12-17T07:52:46.000Z</time>
      </trkpt>
      <trkpt lat="43.34533" lon="5.97779">
        <ele>390</ele>
        <time>2019-12-17T07:52:47.000Z</time>
      </trkpt>
      <trkpt lat="43.34534" lon="5.9778">
        <ele>390</ele>
        <time>2019-12-17T07:52:48.000Z</time>
      </trkpt>
      <trkpt lat="43.34535" lon="5.97781">
        <ele>390</ele>
        <time>2019-12-17T07:52:49.000Z</time>
      </trkpt>
      <trkpt lat="43.34536" lon="5.97783">
        <ele>390</ele>
        <time>2019-12-17T07:52:50.000Z</time>
      </trkpt>
      <trkpt lat="43.34537" lon="5.97784">
        <ele>390</ele>
        <time>2019-12-17T07:52:51.000Z</time>
      </trkpt>
      <trkpt lat="43.34538" lon="5.97785">
        <ele>390</ele>
        <time>2019-12-17T07:52:52.000Z</time>
      </trkpt>
      <trkpt lat="43.34538" lon="5.97786">
        <ele>390</ele>
        <time>2019-12-17T07:52:53.000Z</time>
      </trkpt>
      <trkpt lat="43.34539" lon="5.97787">
        <ele>390</ele>
        <time>2019-12-17T07:52:54.000Z</time>
      </trkpt>
      <trkpt lat="43.3454" lon="5.97789">
        <ele>390</ele>
        <time>2019-12-17T07:52:55.000Z</time>
      </trkpt>
      <trkpt lat="43.3454" lon="5.9779">
        <ele>390</ele>
        <time>2019-12-17T07:52:56.000Z</time>
      </trkpt>
      <trkpt lat="43.34541" lon="5.97791">
        <ele>390</ele>
        <time>2019-12-17T07:52:57.000Z</time>
      </trkpt>
      <trkpt lat="43.34541" lon="5.97793">
        <ele>390</ele>
        <time>2019-12-17T07:52:58.000Z</time>
      </trkpt>
      <trkpt lat="43.34542" lon="5.97794">
        <ele>390</ele>
        <time>2019-12-17T07:52:59.000Z</time>
      </trkpt>
      <trkpt lat="43.34542" lon="5.97796">
        <ele>391</ele>
        <time>2019-12-17T07:53:00.000Z</time>
      </trkpt>
      <trkpt lat="43.34543" lon="5.97797">
        <ele>391</ele>
        <time>2019-12-17T07:53:01.000Z</time>
      </trkpt>
      <trkpt lat="43.34543" lon="5.97798">
        <ele>391</ele>
        <time>2019-12-17T07:53:02.000Z</time>
      </trkpt>
      <trkpt lat="43.34543" lon="5.978">
        <ele>391</ele>
        <time>2019-12-17T07:53:03.000Z</time>
      </trkpt>
      <trkpt lat="43.34543" lon="5.97802">
        <ele>391</ele>
        <time>2019-12-17T07:53:04.000Z</time>
      </trkpt>
      <trkpt lat="43.34543" lon="5.97803">
        <ele>391</ele>
        <time>2019-12-17T07:53:05.000Z</time>
      </trkpt>
      <trkpt lat="43.34543" lon="5.97804">
        <ele>391</ele>
        <time>2019-12-17T07:53:06.000Z</time>
      </trkpt>
      <trkpt lat="43.34543" lon="5.97806">
        <ele>391</ele>
        <time>2019-12-17T07:53:07.000Z</time>
      </trkpt>
      <trkpt lat="43.34543" lon="5.97807">
        <ele>391</ele>
        <time>2019-12-17T07:53:08.000Z</time>
      </trkpt>
      <trkpt lat="43.34543" lon="5.97809">
        <ele>391</ele>
        <time>2019-12-17T07:53:09.000Z</time>
      </trkpt>
      <trkpt lat="43.34543" lon="5.9781">
        <ele>391</ele>
        <time>2019-12-17T07:53:10.000Z</time>
      </trkpt>
      <trkpt lat="43.34542" lon="5.97812">
        <ele>391</ele>
        <time>2019-12-17T07:53:11.000Z</time>
      </trkpt>
      <trkpt lat="43.34542" lon="5.97813">
        <ele>391</ele>
        <time>2019-12-17T07:53:12.000Z</time>
      </trkpt>
      <trkpt lat="43.34542" lon="5.97814">
        <ele>391</ele>
        <time>2019-12-17T07:53:13.000Z</time>
      </trkpt>
      <trkpt lat="43.34542" lon="5.97816">
        <ele>391</ele>
        <time>2019-12-17T07:53:14.000Z</time>
      </trkpt>
      <trkpt lat="43.34542" lon="5.97817">
        <ele>391</ele>
        <time>2019-12-17T07:53:15.000Z</time>
      </trkpt>
      <trkpt lat="43.34541" lon="5.97818">
        <ele>391</ele>
        <time>2019-12-17T07:53:16.000Z</time>
      </trkpt>
      <trkpt lat="43.34541" lon="5.9782">
        <ele>391</ele>
        <time>2019-12-17T07:53:17.000Z</time>
      </trkpt>
      <trkpt lat="43.34541" lon="5.97821">
        <ele>391</ele>
        <time>2019-12-17T07:53:18.000Z</time>
      </trkpt>
      <trkpt lat="43.34541" lon="5.97822">
        <ele>391</ele>
        <time>2019-12-17T07:53:19.000Z</time>
      </trkpt>
      <trkpt lat="43.34541" lon="5.97824">
        <ele>391</ele>
        <time>2019-12-17T07:53:20.000Z</time>
      </trkpt>
      <trkpt lat="43.34541" lon="5.97825">
        <ele>392</ele>
        <time>2019-12-17T07:53:21.000Z</time>
      </trkpt>
      <trkpt lat="43.34541" lon="5.97827">
        <ele>392</ele>
        <time>2019-12-17T07:53:22.000Z</time>
      </trkpt>
      <trkpt lat="43.34541" lon="5.97828">
        <ele>392</ele>
        <time>2019-12-17T07:53:23.000Z</time>
      </trkpt>
      <trkpt lat="43.34541" lon="5.9783">
        <ele>392</ele>
        <time>2019-12-17T07:53:24.000Z</time>
      </trkpt>
      <trkpt lat="43.34541" lon="5.97831">
        <ele>392</ele>
        <time>2019-12-17T07:53:25.000Z</time>
      </trkpt>
      <trkpt lat="43.34542" lon="5.97833">
        <ele>392</ele>
        <time>2019-12-17T07:53:26.000Z</time>
      </trkpt>
      <trkpt lat="43.34542" lon="5.97834">
        <ele>392</ele>
        <time>2019-12-17T07:53:27.000Z</time>
      </trkpt>
      <trkpt lat="43.34542" lon="5.97835">
        <ele>392</ele>
        <time>2019-12-17T07:53:28.000Z</time>
      </trkpt>
      <trkpt lat="43.34542" lon="5.97836">
        <ele>392</ele>
        <time>2019-12-17T07:53:29.000Z</time>
      </trkpt>
      <trkpt lat="43.34543" lon="5.97838">
        <ele>392</ele>
        <time>2019-12-17T07:53:30.000Z</time>
      </trkpt>
      <trkpt lat="43.34544" lon="5.97838">
        <ele>392</ele>
        <time>2019-12-17T07:53:31.000Z</time>
      </trkpt>
      <trkpt lat="43.34545" lon="5.9784">
        <ele>392</ele>
        <time>2019-12-17T07:53:32.000Z</time>
      </trkpt>
      <trkpt lat="43.34546" lon="5.97841">
        <ele>392</ele>
        <time>2019-12-17T07:53:33.000Z</time>
      </trkpt>
      <trkpt lat="43.34547" lon="5.97842">
        <ele>392</ele>
        <time>2019-12-17T07:53:34.000Z</time>
      </trkpt>
      <trkpt lat="43.34547" lon="5.97843">
        <ele>392</ele>
        <time>2019-12-17T07:53:35.000Z</time>
      </trkpt>
      <trkpt lat="43.34548" lon="5.97844">
        <ele>392</ele>
        <time>2019-12-17T07:53:36.000Z</time>
      </trkpt>
      <trkpt lat="43.34549" lon="5.97845">
        <ele>392</ele>
        <time>2019-12-17T07:53:37.000Z</time>
      </trkpt>
      <trkpt lat="43.34549" lon="5.97847">
        <ele>392</ele>
        <time>2019-12-17T07:53:38.000Z</time>
      </trkpt>
      <trkpt lat="43.3455" lon="5.97848">
        <ele>392</ele>
        <time>2019-12-17T07:53:39.000Z</time>
      </trkpt>
      <trkpt lat="43.34551" lon="5.97849">
        <ele>392</ele>
        <time>2019-12-17T07:53:40.000Z</time>
      </trkpt>
      <trkpt lat="43.34552" lon="5.9785">
        <ele>391</ele>
        <time>2019-12-17T07:53:41.000Z</time>
      </trkpt>
      <trkpt lat="43.34553" lon="5.9785">
        <ele>391</ele>
        <time>2019-12-17T07:53:42.000Z</time>
      </trkpt>
      <trkpt lat="43.34554" lon="5.97851">
        <ele>391</ele>
        <time>2019-12-17T07:53:43.000Z</time>
      </trkpt>
      <trkpt lat="43.34555" lon="5.97852">
        <ele>391</ele>
        <time>2019-12-17T07:53:44.000Z</time>
      </trkpt>
      <trkpt lat="43.34556" lon="5.97852">
        <ele>391</ele>
        <time>2019-12-17T07:53:45.000Z</time>
      </trkpt>
      <trkpt lat="43.34556" lon="5.97853">
        <ele>391</ele>
        <time>2019-12-17T07:53:46.000Z</time>
      </trkpt>
      <trkpt lat="43.34557" lon="5.97853">
        <ele>391</ele>
        <time>2019-12-17T07:53:47.000Z</time>
      </trkpt>
      <trkpt lat="43.34558" lon="5.97854">
        <ele>391</ele>
        <time>2019-12-17T07:53:48.000Z</time>
      </trkpt>
      <trkpt lat="43.34559" lon="5.97855">
        <ele>391</ele>
        <time>2019-12-17T07:53:49.000Z</time>
      </trkpt>
      <trkpt lat="43.3456" lon="5.97855">
        <ele>391</ele>
        <time>2019-12-17T07:53:50.000Z</time>
      </trkpt>
      <trkpt lat="43.34561" lon="5.97856">
        <ele>391</ele>
        <time>2019-12-17T07:53:51.000Z</time>
      </trkpt>
      <trkpt lat="43.34562" lon="5.97857">
        <ele>391</ele>
        <time>2019-12-17T07:53:52.000Z</time>
      </trkpt>
      <trkpt lat="43.34563" lon="5.97857">
        <ele>391</ele>
        <time>2019-12-17T07:53:53.000Z</time>
      </trkpt>
      <trkpt lat="43.34564" lon="5.97858">
        <ele>391</ele>
        <time>2019-12-17T07:53:54.000Z</time>
      </trkpt>
      <trkpt lat="43.34565" lon="5.97858">
        <ele>391</ele>
        <time>2019-12-17T07:53:55.000Z</time>
      </trkpt>
      <trkpt lat="43.34566" lon="5.97859">
        <ele>391</ele>
        <time>2019-12-17T07:53:56.000Z</time>
      </trkpt>
      <trkpt lat="43.34567" lon="5.97859">
        <ele>391</ele>
        <time>2019-12-17T07:53:57.000Z</time>
      </trkpt>
      <trkpt lat="43.34568" lon="5.97859">
        <ele>391</ele>
        <time>2019-12-17T07:53:58.000Z</time>
      </trkpt>
      <trkpt lat="43.34569" lon="5.97859">
        <ele>391</ele>
        <time>2019-12-17T07:53:59.000Z</time>
      </trkpt>
      <trkpt lat="43.3457" lon="5.97859">
        <ele>391</ele>
        <time>2019-12-17T07:54:00.000Z</time>
      </trkpt>
      <trkpt lat="43.34572" lon="5.9786">
        <ele>391</ele>
        <time>2019-12-17T07:54:01.000Z</time>
      </trkpt>
      <trkpt lat="43.34573" lon="5.9786">
        <ele>391</ele>
        <time>2019-12-17T07:54:02.000Z</time>
      </trkpt>
      <trkpt lat="43.34574" lon="5.9786">
        <ele>391</ele>
        <time>2019-12-17T07:54:03.000Z</time>
      </trkpt>
      <trkpt lat="43.34575" lon="5.9786">
        <ele>391</ele>
        <time>2019-12-17T07:54:04.000Z</time>
      </trkpt>
      <trkpt lat="43.34576" lon="5.9786">
        <ele>392</ele>
        <time>2019-12-17T07:54:05.000Z</time>
      </trkpt>
      <trkpt lat="43.34577" lon="5.97861">
        <ele>392</ele>
        <time>2019-12-17T07:54:06.000Z</time>
      </trkpt>
      <trkpt lat="43.34578" lon="5.9786">
        <ele>392</ele>
        <time>2019-12-17T07:54:07.000Z</time>
      </trkpt>
      <trkpt lat="43.34579" lon="5.9786">
        <ele>392</ele>
        <time>2019-12-17T07:54:08.000Z</time>
      </trkpt>
      <trkpt lat="43.3458" lon="5.97861">
        <ele>392</ele>
        <time>2019-12-17T07:54:09.000Z</time>
      </trkpt>
      <trkpt lat="43.34582" lon="5.97861">
        <ele>392</ele>
        <time>2019-12-17T07:54:10.000Z</time>
      </trkpt>
      <trkpt lat="43.34582" lon="5.97862">
        <ele>392</ele>
        <time>2019-12-17T07:54:11.000Z</time>
      </trkpt>
      <trkpt lat="43.34584" lon="5.97862">
        <ele>392</ele>
        <time>2019-12-17T07:54:12.000Z</time>
      </trkpt>
      <trkpt lat="43.34585" lon="5.97862">
        <ele>392</ele>
        <time>2019-12-17T07:54:13.000Z</time>
      </trkpt>
      <trkpt lat="43.34586" lon="5.97863">
        <ele>392</ele>
        <time>2019-12-17T07:54:14.000Z</time>
      </trkpt>
      <trkpt lat="43.34587" lon="5.97863">
        <ele>392</ele>
        <time>2019-12-17T07:54:15.000Z</time>
      </trkpt>
      <trkpt lat="43.34588" lon="5.97863">
        <ele>392</ele>
        <time>2019-12-17T07:54:16.000Z</time>
      </trkpt>
      <trkpt lat="43.34589" lon="5.97863">
        <ele>392</ele>
        <time>2019-12-17T07:54:17.000Z</time>
      </trkpt>
      <trkpt lat="43.3459" lon="5.97864">
        <ele>392</ele>
        <time>2019-12-17T07:54:18.000Z</time>
      </trkpt>
      <trkpt lat="43.34591" lon="5.97864">
        <ele>392</ele>
        <time>2019-12-17T07:54:19.000Z</time>
      </trkpt>
      <trkpt lat="43.34592" lon="5.97864">
        <ele>392</ele>
        <time>2019-12-17T07:54:20.000Z</time>
      </trkpt>
      <trkpt lat="43.34593" lon="5.97865">
        <ele>392</ele>
        <time>2019-12-17T07:54:21.000Z</time>
      </trkpt>
      <trkpt lat="43.34594" lon="5.97865">
        <ele>392</ele>
        <time>2019-12-17T07:54:22.000Z</time>
      </trkpt>
      <trkpt lat="43.34595" lon="5.97865">
        <ele>392</ele>
        <time>2019-12-17T07:54:23.000Z</time>
      </trkpt>
      <trkpt lat="43.34596" lon="5.97866">
        <ele>392</ele>
        <time>2019-12-17T07:54:24.000Z</time>
      </trkpt>
      <trkpt lat="43.34598" lon="5.97867">
        <ele>392</ele>
        <time>2019-12-17T07:54:25.000Z</time>
      </trkpt>
      <trkpt lat="43.34598" lon="5.97867">
        <ele>392</ele>
        <time>2019-12-17T07:54:26.000Z</time>
      </trkpt>
      <trkpt lat="43.34599" lon="5.97868">
        <ele>392</ele>
        <time>2019-12-17T07:54:27.000Z</time>
      </trkpt>
      <trkpt lat="43.346" lon="5.97869">
        <ele>392</ele>
        <time>2019-12-17T07:54:28.000Z</time>
      </trkpt>
      <trkpt lat="43.34601" lon="5.9787">
        <ele>392</ele>
        <time>2019-12-17T07:54:29.000Z</time>
      </trkpt>
      <trkpt lat="43.34602" lon="5.97871">
        <ele>392</ele>
        <time>2019-12-17T07:54:30.000Z</time>
      </trkpt>
      <trkpt lat="43.34603" lon="5.97872">
        <ele>392</ele>
        <time>2019-12-17T07:54:31.000Z</time>
      </trkpt>
      <trkpt lat="43.34604" lon="5.97872">
        <ele>392</ele>
        <time>2019-12-17T07:54:32.000Z</time>
      </trkpt>
      <trkpt lat="43.34605" lon="5.97873">
        <ele>391</ele>
        <time>2019-12-17T07:54:33.000Z</time>
      </trkpt>
      <trkpt lat="43.34606" lon="5.97874">
        <ele>391</ele>
        <time>2019-12-17T07:54:34.000Z</time>
      </trkpt>
      <trkpt lat="43.34607" lon="5.97875">
        <ele>391</ele>
        <time>2019-12-17T07:54:35.000Z</time>
      </trkpt>
      <trkpt lat="43.34608" lon="5.97875">
        <ele>391</ele>
        <time>2019-12-17T07:54:36.000Z</time>
      </trkpt>
      <trkpt lat="43.34609" lon="5.97876">
        <ele>391</ele>
        <time>2019-12-17T07:54:37.000Z</time>
      </trkpt>
      <trkpt lat="43.3461" lon="5.97877">
        <ele>391</ele>
        <time>2019-12-17T07:54:38.000Z</time>
      </trkpt>
      <trkpt lat="43.34611" lon="5.97877">
        <ele>391</ele>
        <time>2019-12-17T07:54:39.000Z</time>
      </trkpt>
      <trkpt lat="43.34612" lon="5.97878">
        <ele>391</ele>
        <time>2019-12-17T07:54:40.000Z</time>
      </trkpt>
      <trkpt lat="43.34613" lon="5.97879">
        <ele>391</ele>
        <time>2019-12-17T07:54:41.000Z</time>
      </trkpt>
      <trkpt lat="43.34614" lon="5.97879">
        <ele>391</ele>
        <time>2019-12-17T07:54:42.000Z</time>
      </trkpt>
      <trkpt lat="43.34615" lon="5.9788">
        <ele>390</ele>
        <time>2019-12-17T07:54:43.000Z</time>
      </trkpt>
      <trkpt lat="43.34616" lon="5.97881">
        <ele>390</ele>
        <time>2019-12-17T07:54:44.000Z</time>
      </trkpt>
      <trkpt lat="43.34617" lon="5.97882">
        <ele>390</ele>
        <time>2019-12-17T07:54:45.000Z</time>
      </trkpt>
      <trkpt lat="43.34618" lon="5.97883">
        <ele>390</ele>
        <time>2019-12-17T07:54:46.000Z</time>
      </trkpt>
      <trkpt lat="43.34619" lon="5.97884">
        <ele>390</ele>
        <time>2019-12-17T07:54:47.000Z</time>
      </trkpt>
      <trkpt lat="43.3462" lon="5.97885">
        <ele>390</ele>
        <time>2019-12-17T07:54:48.000Z</time>
      </trkpt>
      <trkpt lat="43.34621" lon="5.97885">
        <ele>390</ele>
        <time>2019-12-17T07:54:49.000Z</time>
      </trkpt>
      <trkpt lat="43.34622" lon="5.97886">
        <ele>390</ele>
        <time>2019-12-17T07:54:50.000Z</time>
      </trkpt>
      <trkpt lat="43.34623" lon="5.97887">
        <ele>390</ele>
        <time>2019-12-17T07:54:51.000Z</time>
      </trkpt>
      <trkpt lat="43.34624" lon="5.97888">
        <ele>390</ele>
        <time>2019-12-17T07:54:52.000Z</time>
      </trkpt>
      <trkpt lat="43.34625" lon="5.97889">
        <ele>390</ele>
        <time>2019-12-17T07:54:53.000Z</time>
      </trkpt>
      <trkpt lat="43.34626" lon="5.97889">
        <ele>391</ele>
        <time>2019-12-17T07:54:54.000Z</time>
      </trkpt>
      <trkpt lat="43.34627" lon="5.9789">
        <ele>391</ele>
        <time>2019-12-17T07:54:55.000Z</time>
      </trkpt>
      <trkpt lat="43.34629" lon="5.97891">
        <ele>391</ele>
        <time>2019-12-17T07:54:56.000Z</time>
      </trkpt>
      <trkpt lat="43.3463" lon="5.97892">
        <ele>391</ele>
        <time>2019-12-17T07:54:57.000Z</time>
      </trkpt>
      <trkpt lat="43.34631" lon="5.97893">
        <ele>391</ele>
        <time>2019-12-17T07:54:58.000Z</time>
      </trkpt>
      <trkpt lat="43.34632" lon="5.97894">
        <ele>391</ele>
        <time>2019-12-17T07:54:59.000Z</time>
      </trkpt>
      <trkpt lat="43.34633" lon="5.97895">
        <ele>391</ele>
        <time>2019-12-17T07:55:00.000Z</time>
      </trkpt>
      <trkpt lat="43.34634" lon="5.97896">
        <ele>391</ele>
        <time>2019-12-17T07:55:01.000Z</time>
      </trkpt>
      <trkpt lat="43.34636" lon="5.97897">
        <ele>391</ele>
        <time>2019-12-17T07:55:02.000Z</time>
      </trkpt>
      <trkpt lat="43.34637" lon="5.97898">
        <ele>391</ele>
        <time>2019-12-17T07:55:03.000Z</time>
      </trkpt>
      <trkpt lat="43.34638" lon="5.97898">
        <ele>391</ele>
        <time>2019-12-17T07:55:04.000Z</time>
      </trkpt>
      <trkpt lat="43.34638" lon="5.97899">
        <ele>391</ele>
        <time>2019-12-17T07:55:05.000Z</time>
      </trkpt>
      <trkpt lat="43.34639" lon="5.97899">
        <ele>390</ele>
        <time>2019-12-17T07:55:06.000Z</time>
      </trkpt>
      <trkpt lat="43.3464" lon="5.979">
        <ele>390</ele>
        <time>2019-12-17T07:55:07.000Z</time>
      </trkpt>
      <trkpt lat="43.34642" lon="5.979">
        <ele>390</ele>
        <time>2019-12-17T07:55:08.000Z</time>
      </trkpt>
      <trkpt lat="43.34643" lon="5.97901">
        <ele>390</ele>
        <time>2019-12-17T07:55:09.000Z</time>
      </trkpt>
      <trkpt lat="43.34644" lon="5.97902">
        <ele>390</ele>
        <time>2019-12-17T07:55:10.000Z</time>
      </trkpt>
      <trkpt lat="43.34645" lon="5.97903">
        <ele>390</ele>
        <time>2019-12-17T07:55:11.000Z</time>
      </trkpt>
      <trkpt lat="43.34646" lon="5.97904">
        <ele>390</ele>
        <time>2019-12-17T07:55:12.000Z</time>
      </trkpt>
      <trkpt lat="43.34646" lon="5.97905">
        <ele>390</ele>
        <time>2019-12-17T07:55:13.000Z</time>
      </trkpt>
      <trkpt lat="43.34647" lon="5.97906">
        <ele>390</ele>
        <time>2019-12-17T07:55:14.000Z</time>
      </trkpt>
      <trkpt lat="43.34648" lon="5.97907">
        <ele>389</ele>
        <time>2019-12-17T07:55:15.000Z</time>
      </trkpt>
      <trkpt lat="43.34649" lon="5.97908">
        <ele>389</ele>
        <time>2019-12-17T07:55:16.000Z</time>
      </trkpt>
      <trkpt lat="43.3465" lon="5.97908">
        <ele>389</ele>
        <time>2019-12-17T07:55:17.000Z</time>
      </trkpt>
      <trkpt lat="43.34651" lon="5.97909">
        <ele>389</ele>
        <time>2019-12-17T07:55:18.000Z</time>
      </trkpt>
      <trkpt lat="43.34652" lon="5.9791">
        <ele>389</ele>
        <time>2019-12-17T07:55:19.000Z</time>
      </trkpt>
      <trkpt lat="43.34653" lon="5.97911">
        <ele>389</ele>
        <time>2019-12-17T07:55:20.000Z</time>
      </trkpt>
      <trkpt lat="43.34654" lon="5.97911">
        <ele>389</ele>
        <time>2019-12-17T07:55:21.000Z</time>
      </trkpt>
      <trkpt lat="43.34655" lon="5.97912">
        <ele>389</ele>
        <time>2019-12-17T07:55:22.000Z</time>
      </trkpt>
      <trkpt lat="43.34656" lon="5.97914">
        <ele>389</ele>
        <time>2019-12-17T07:55:23.000Z</time>
      </trkpt>
      <trkpt lat="43.34657" lon="5.97914">
        <ele>389</ele>
        <time>2019-12-17T07:55:24.000Z</time>
      </trkpt>
      <trkpt lat="43.34658" lon="5.97915">
        <ele>389</ele>
        <time>2019-12-17T07:55:25.000Z</time>
      </trkpt>
      <trkpt lat="43.34659" lon="5.97916">
        <ele>389</ele>
        <time>2019-12-17T07:55:26.000Z</time>
      </trkpt>
      <trkpt lat="43.3466" lon="5.97917">
        <ele>389</ele>
        <time>2019-12-17T07:55:27.000Z</time>
      </trkpt>
      <trkpt lat="43.34661" lon="5.97918">
        <ele>389</ele>
        <time>2019-12-17T07:55:28.000Z</time>
      </trkpt>
      <trkpt lat="43.34662" lon="5.97918">
        <ele>389</ele>
        <time>2019-12-17T07:55:29.000Z</time>
      </trkpt>
      <trkpt lat="43.34663" lon="5.97919">
        <ele>389</ele>
        <time>2019-12-17T07:55:30.000Z</time>
      </trkpt>
      <trkpt lat="43.34664" lon="5.9792">
        <ele>389</ele>
        <time>2019-12-17T07:55:31.000Z</time>
      </trkpt>
      <trkpt lat="43.34665" lon="5.97921">
        <ele>389</ele>
        <time>2019-12-17T07:55:32.000Z</time>
      </trkpt>
      <trkpt lat="43.34666" lon="5.97921">
        <ele>388</ele>
        <time>2019-12-17T07:55:33.000Z</time>
      </trkpt>
      <trkpt lat="43.34667" lon="5.97922">
        <ele>388</ele>
        <time>2019-12-17T07:55:34.000Z</time>
      </trkpt>
      <trkpt lat="43.34668" lon="5.97923">
        <ele>388</ele>
        <time>2019-12-17T07:55:35.000Z</time>
      </trkpt>
      <trkpt lat="43.34669" lon="5.97923">
        <ele>388</ele>
        <time>2019-12-17T07:55:36.000Z</time>
      </trkpt>
      <trkpt lat="43.3467" lon="5.97924">
        <ele>388</ele>
        <time>2019-12-17T07:55:37.000Z</time>
      </trkpt>
      <trkpt lat="43.34671" lon="5.97925">
        <ele>388</ele>
        <time>2019-12-17T07:55:38.000Z</time>
      </trkpt>
      <trkpt lat="43.34673" lon="5.97925">
        <ele>388</ele>
        <time>2019-12-17T07:55:39.000Z</time>
      </trkpt>
      <trkpt lat="43.34674" lon="5.97926">
        <ele>388</ele>
        <time>2019-12-17T07:55:40.000Z</time>
      </trkpt>
      <trkpt lat="43.34674" lon="5.97926">
        <ele>388</ele>
        <time>2019-12-17T07:55:41.000Z</time>
      </trkpt>
      <trkpt lat="43.34675" lon="5.97927">
        <ele>388</ele>
        <time>2019-12-17T07:55:42.000Z</time>
      </trkpt>
      <trkpt lat="43.34676" lon="5.97927">
        <ele>388</ele>
        <time>2019-12-17T07:55:43.000Z</time>
      </trkpt>
      <trkpt lat="43.34677" lon="5.97928">
        <ele>388</ele>
        <time>2019-12-17T07:55:44.000Z</time>
      </trkpt>
      <trkpt lat="43.34677" lon="5.97928">
        <ele>388</ele>
        <time>2019-12-17T07:55:45.000Z</time>
      </trkpt>
      <trkpt lat="43.34677" lon="5.97928">
        <ele>388</ele>
        <time>2019-12-17T07:55:46.000Z</time>
      </trkpt>
      <trkpt lat="43.34677" lon="5.97929">
        <ele>388</ele>
        <time>2019-12-17T07:55:47.000Z</time>
      </trkpt>
      <trkpt lat="43.34677" lon="5.9793">
        <ele>388</ele>
        <time>2019-12-17T07:55:48.000Z</time>
      </trkpt>
      <trkpt lat="43.34676" lon="5.97931">
        <ele>388</ele>
        <time>2019-12-17T07:55:49.000Z</time>
      </trkpt>
      <trkpt lat="43.34676" lon="5.97933">
        <ele>388</ele>
        <time>2019-12-17T07:55:50.000Z</time>
      </trkpt>
      <trkpt lat="43.34675" lon="5.97934">
        <ele>388</ele>
        <time>2019-12-17T07:55:51.000Z</time>
      </trkpt>
      <trkpt lat="43.34674" lon="5.97935">
        <ele>388</ele>
        <time>2019-12-17T07:55:52.000Z</time>
      </trkpt>
      <trkpt lat="43.34674" lon="5.97936">
        <ele>388</ele>
        <time>2019-12-17T07:55:53.000Z</time>
      </trkpt>
      <trkpt lat="43.34673" lon="5.97937">
        <ele>388</ele>
        <time>2019-12-17T07:55:54.000Z</time>
      </trkpt>
      <trkpt lat="43.34672" lon="5.97938">
        <ele>388</ele>
        <time>2019-12-17T07:55:55.000Z</time>
      </trkpt>
      <trkpt lat="43.34671" lon="5.9794">
        <ele>387</ele>
        <time>2019-12-17T07:55:56.000Z</time>
      </trkpt>
      <trkpt lat="43.34671" lon="5.97941">
        <ele>387</ele>
        <time>2019-12-17T07:55:57.000Z</time>
      </trkpt>
      <trkpt lat="43.3467" lon="5.97942">
        <ele>387</ele>
        <time>2019-12-17T07:55:58.000Z</time>
      </trkpt>
      <trkpt lat="43.3467" lon="5.97944">
        <ele>387</ele>
        <time>2019-12-17T07:55:59.000Z</time>
      </trkpt>
      <trkpt lat="43.34669" lon="5.97945">
        <ele>387</ele>
        <time>2019-12-17T07:56:00.000Z</time>
      </trkpt>
      <trkpt lat="43.34669" lon="5.97947">
        <ele>387</ele>
        <time>2019-12-17T07:56:01.000Z</time>
      </trkpt>
      <trkpt lat="43.34668" lon="5.97948">
        <ele>387</ele>
        <time>2019-12-17T07:56:02.000Z</time>
      </trkpt>
      <trkpt lat="43.34667" lon="5.9795">
        <ele>387</ele>
        <time>2019-12-17T07:56:03.000Z</time>
      </trkpt>
      <trkpt lat="43.34666" lon="5.97952">
        <ele>387</ele>
        <time>2019-12-17T07:56:04.000Z</time>
      </trkpt>
      <trkpt lat="43.34665" lon="5.97953">
        <ele>387</ele>
        <time>2019-12-17T07:56:05.000Z</time>
      </trkpt>
      <trkpt lat="43.34664" lon="5.97955">
        <ele>387</ele>
        <time>2019-12-17T07:56:06.000Z</time>
      </trkpt>
      <trkpt lat="43.34664" lon="5.97956">
        <ele>387</ele>
        <time>2019-12-17T07:56:07.000Z</time>
      </trkpt>
      <trkpt lat="43.34663" lon="5.97957">
        <ele>387</ele>
        <time>2019-12-17T07:56:08.000Z</time>
      </trkpt>
      <trkpt lat="43.34662" lon="5.97958">
        <ele>387</ele>
        <time>2019-12-17T07:56:09.000Z</time>
      </trkpt>
      <trkpt lat="43.3466" lon="5.97959">
        <ele>387</ele>
        <time>2019-12-17T07:56:10.000Z</time>
      </trkpt>
      <trkpt lat="43.34659" lon="5.97959">
        <ele>387</ele>
        <time>2019-12-17T07:56:11.000Z</time>
      </trkpt>
      <trkpt lat="43.34658" lon="5.9796">
        <ele>387</ele>
        <time>2019-12-17T07:56:12.000Z</time>
      </trkpt>
      <trkpt lat="43.34657" lon="5.9796">
        <ele>387</ele>
        <time>2019-12-17T07:56:13.000Z</time>
      </trkpt>
      <trkpt lat="43.34656" lon="5.97961">
        <ele>387</ele>
        <time>2019-12-17T07:56:14.000Z</time>
      </trkpt>
      <trkpt lat="43.34655" lon="5.97961">
        <ele>387</ele>
        <time>2019-12-17T07:56:15.000Z</time>
      </trkpt>
      <trkpt lat="43.34654" lon="5.97962">
        <ele>387</ele>
        <time>2019-12-17T07:56:16.000Z</time>
      </trkpt>
      <trkpt lat="43.34654" lon="5.97963">
        <ele>387</ele>
        <time>2019-12-17T07:56:17.000Z</time>
      </trkpt>
      <trkpt lat="43.34653" lon="5.97963">
        <ele>387</ele>
        <time>2019-12-17T07:56:18.000Z</time>
      </trkpt>
      <trkpt lat="43.34652" lon="5.97964">
        <ele>387</ele>
        <time>2019-12-17T07:56:19.000Z</time>
      </trkpt>
      <trkpt lat="43.34652" lon="5.97965">
        <ele>387</ele>
        <time>2019-12-17T07:56:20.000Z</time>
      </trkpt>
      <trkpt lat="43.34651" lon="5.97966">
        <ele>387</ele>
        <time>2019-12-17T07:56:21.000Z</time>
      </trkpt>
      <trkpt lat="43.34651" lon="5.97966">
        <ele>388</ele>
        <time>2019-12-17T07:56:22.000Z</time>
      </trkpt>
      <trkpt lat="43.34651" lon="5.97966">
        <ele>388</ele>
        <time>2019-12-17T07:56:23.000Z</time>
      </trkpt>
      <trkpt lat="43.34651" lon="5.97966">
        <ele>388</ele>
        <time>2019-12-17T07:56:24.000Z</time>
      </trkpt>
      <trkpt lat="43.34651" lon="5.97966">
        <ele>388</ele>
        <time>2019-12-17T07:56:25.000Z</time>
      </trkpt>
      <trkpt lat="43.3465" lon="5.97967">
        <ele>388</ele>
        <time>2019-12-17T07:56:26.000Z</time>
      </trkpt>
      <trkpt lat="43.3465" lon="5.97967">
        <ele>388</ele>
        <time>2019-12-17T07:56:27.000Z</time>
      </trkpt>
      <trkpt lat="43.3465" lon="5.97966">
        <ele>388</ele>
        <time>2019-12-17T07:56:28.000Z</time>
      </trkpt>
      <trkpt lat="43.3465" lon="5.97966">
        <ele>389</ele>
        <time>2019-12-17T07:56:29.000Z</time>
      </trkpt>
      <trkpt lat="43.3465" lon="5.97966">
        <ele>389</ele>
        <time>2019-12-17T07:56:30.000Z</time>
      </trkpt>
      <trkpt lat="43.3465" lon="5.97966">
        <ele>389</ele>
        <time>2019-12-17T07:56:31.000Z</time>
      </trkpt>
      <trkpt lat="43.3465" lon="5.97966">
        <ele>389</ele>
        <time>2019-12-17T07:56:32.000Z</time>
      </trkpt>
      <trkpt lat="43.3465" lon="5.97966">
        <ele>389</ele>
        <time>2019-12-17T07:56:33.000Z</time>
      </trkpt>
      <trkpt lat="43.3465" lon="5.97966">
        <ele>389</ele>
        <time>2019-12-17T07:56:34.000Z</time>
      </trkpt>
      <trkpt lat="43.3465" lon="5.97966">
        <ele>389</ele>
        <time>2019-12-17T07:56:35.000Z</time>
      </trkpt>
      <trkpt lat="43.3465" lon="5.97967">
        <ele>389</ele>
        <time>2019-12-17T07:56:36.000Z</time>
      </trkpt>
      <trkpt lat="43.34651" lon="5.97968">
        <ele>389</ele>
        <time>2019-12-17T07:56:37.000Z</time>
      </trkpt>
      <trkpt lat="43.34651" lon="5.97968">
        <ele>389</ele>
        <time>2019-12-17T07:56:38.000Z</time>
      </trkpt>
      <trkpt lat="43.34652" lon="5.97968">
        <ele>390</ele>
        <time>2019-12-17T07:56:39.000Z</time>
      </trkpt>
      <trkpt lat="43.34653" lon="5.97968">
        <ele>390</ele>
        <time>2019-12-17T07:56:40.000Z</time>
      </trkpt>
      <trkpt lat="43.34654" lon="5.97968">
        <ele>390</ele>
        <time>2019-12-17T07:56:41.000Z</time>
      </trkpt>
      <trkpt lat="43.34655" lon="5.97968">
        <ele>390</ele>
        <time>2019-12-17T07:56:42.000Z</time>
      </trkpt>
      <trkpt lat="43.34656" lon="5.97968">
        <ele>390</ele>
        <time>2019-12-17T07:56:43.000Z</time>
      </trkpt>
      <trkpt lat="43.34657" lon="5.97969">
        <ele>390</ele>
        <time>2019-12-17T07:56:44.000Z</time>
      </trkpt>
      <trkpt lat="43.34658" lon="5.97969">
        <ele>390</ele>
        <time>2019-12-17T07:56:45.000Z</time>
      </trkpt>
      <trkpt lat="43.34659" lon="5.97969">
        <ele>390</ele>
        <time>2019-12-17T07:56:46.000Z</time>
      </trkpt>
      <trkpt lat="43.3466" lon="5.97969">
        <ele>390</ele>
        <time>2019-12-17T07:56:47.000Z</time>
      </trkpt>
      <trkpt lat="43.34661" lon="5.97969">
        <ele>390</ele>
        <time>2019-12-17T07:56:48.000Z</time>
      </trkpt>
      <trkpt lat="43.34662" lon="5.97969">
        <ele>390</ele>
        <time>2019-12-17T07:56:49.000Z</time>
      </trkpt>
      <trkpt lat="43.34663" lon="5.9797">
        <ele>390</ele>
        <time>2019-12-17T07:56:50.000Z</time>
      </trkpt>
      <trkpt lat="43.34664" lon="5.9797">
        <ele>390</ele>
        <time>2019-12-17T07:56:51.000Z</time>
      </trkpt>
      <trkpt lat="43.34665" lon="5.9797">
        <ele>391</ele>
        <time>2019-12-17T07:56:52.000Z</time>
      </trkpt>
      <trkpt lat="43.34666" lon="5.97971">
        <ele>391</ele>
        <time>2019-12-17T07:56:53.000Z</time>
      </trkpt>
      <trkpt lat="43.34667" lon="5.97971">
        <ele>391</ele>
        <time>2019-12-17T07:56:54.000Z</time>
      </trkpt>
      <trkpt lat="43.34668" lon="5.97972">
        <ele>391</ele>
        <time>2019-12-17T07:56:55.000Z</time>
      </trkpt>
      <trkpt lat="43.34669" lon="5.97972">
        <ele>391</ele>
        <time>2019-12-17T07:56:56.000Z</time>
      </trkpt>
      <trkpt lat="43.3467" lon="5.97972">
        <ele>391</ele>
        <time>2019-12-17T07:56:57.000Z</time>
      </trkpt>
      <trkpt lat="43.34671" lon="5.97973">
        <ele>392</ele>
        <time>2019-12-17T07:56:58.000Z</time>
      </trkpt>
      <trkpt lat="43.34672" lon="5.97973">
        <ele>392</ele>
        <time>2019-12-17T07:56:59.000Z</time>
      </trkpt>
      <trkpt lat="43.34673" lon="5.97973">
        <ele>392</ele>
        <time>2019-12-17T07:57:00.000Z</time>
      </trkpt>
      <trkpt lat="43.34674" lon="5.97974">
        <ele>392</ele>
        <time>2019-12-17T07:57:01.000Z</time>
      </trkpt>
      <trkpt lat="43.34675" lon="5.97974">
        <ele>392</ele>
        <time>2019-12-17T07:57:02.000Z</time>
      </trkpt>
      <trkpt lat="43.34676" lon="5.97974">
        <ele>392</ele>
        <time>2019-12-17T07:57:03.000Z</time>
      </trkpt>
      <trkpt lat="43.34677" lon="5.97975">
        <ele>392</ele>
        <time>2019-12-17T07:57:04.000Z</time>
      </trkpt>
      <trkpt lat="43.34678" lon="5.97975">
        <ele>392</ele>
        <time>2019-12-17T07:57:05.000Z</time>
      </trkpt>
      <trkpt lat="43.34678" lon="5.97976">
        <ele>393</ele>
        <time>2019-12-17T07:57:06.000Z</time>
      </trkpt>
      <trkpt lat="43.34679" lon="5.97976">
        <ele>393</ele>
        <time>2019-12-17T07:57:07.000Z</time>
      </trkpt>
      <trkpt lat="43.3468" lon="5.97976">
        <ele>393</ele>
        <time>2019-12-17T07:57:08.000Z</time>
      </trkpt>
      <trkpt lat="43.34681" lon="5.97977">
        <ele>393</ele>
        <time>2019-12-17T07:57:09.000Z</time>
      </trkpt>
      <trkpt lat="43.34682" lon="5.97977">
        <ele>393</ele>
        <time>2019-12-17T07:57:10.000Z</time>
      </trkpt>
      <trkpt lat="43.34683" lon="5.97977">
        <ele>393</ele>
        <time>2019-12-17T07:57:11.000Z</time>
      </trkpt>
      <trkpt lat="43.34684" lon="5.97977">
        <ele>393</ele>
        <time>2019-12-17T07:57:12.000Z</time>
      </trkpt>
      <trkpt lat="43.34685" lon="5.97978">
        <ele>393</ele>
        <time>2019-12-17T07:57:13.000Z</time>
      </trkpt>
      <trkpt lat="43.34686" lon="5.97978">
        <ele>393</ele>
        <time>2019-12-17T07:57:14.000Z</time>
      </trkpt>
      <trkpt lat="43.34687" lon="5.97979">
        <ele>394</ele>
        <time>2019-12-17T07:57:15.000Z</time>
      </trkpt>
      <trkpt lat="43.34688" lon="5.97979">
        <ele>394</ele>
        <time>2019-12-17T07:57:16.000Z</time>
      </trkpt>
      <trkpt lat="43.34688" lon="5.9798">
        <ele>394</ele>
        <time>2019-12-17T07:57:17.000Z</time>
      </trkpt>
      <trkpt lat="43.34689" lon="5.9798">
        <ele>394</ele>
        <time>2019-12-17T07:57:18.000Z</time>
      </trkpt>
      <trkpt lat="43.34691" lon="5.97981">
        <ele>394</ele>
        <time>2019-12-17T07:57:19.000Z</time>
      </trkpt>
      <trkpt lat="43.34692" lon="5.97982">
        <ele>394</ele>
        <time>2019-12-17T07:57:20.000Z</time>
      </trkpt>
      <trkpt lat="43.34693" lon="5.97982">
        <ele>394</ele>
        <time>2019-12-17T07:57:21.000Z</time>
      </trkpt>
      <trkpt lat="43.34694" lon="5.97982">
        <ele>394</ele>
        <time>2019-12-17T07:57:22.000Z</time>
      </trkpt>
      <trkpt lat="43.34695" lon="5.97982">
        <ele>394</ele>
        <time>2019-12-17T07:57:23.000Z</time>
      </trkpt>
      <trkpt lat="43.34696" lon="5.97982">
        <ele>394</ele>
        <time>2019-12-17T07:57:24.000Z</time>
      </trkpt>
      <trkpt lat="43.34697" lon="5.97982">
        <ele>394</ele>
        <time>2019-12-17T07:57:25.000Z</time>
      </trkpt>
      <trkpt lat="43.34698" lon="5.97982">
        <ele>394</ele>
        <time>2019-12-17T07:57:26.000Z</time>
      </trkpt>
      <trkpt lat="43.34699" lon="5.97983">
        <ele>394</ele>
        <time>2019-12-17T07:57:27.000Z</time>
      </trkpt>
      <trkpt lat="43.347" lon="5.97983">
        <ele>395</ele>
        <time>2019-12-17T07:57:28.000Z</time>
      </trkpt>
      <trkpt lat="43.34701" lon="5.97984">
        <ele>395</ele>
        <time>2019-12-17T07:57:29.000Z</time>
      </trkpt>
      <trkpt lat="43.34702" lon="5.97984">
        <ele>395</ele>
        <time>2019-12-17T07:57:30.000Z</time>
      </trkpt>
      <trkpt lat="43.34703" lon="5.97984">
        <ele>395</ele>
        <time>2019-12-17T07:57:31.000Z</time>
      </trkpt>
      <trkpt lat="43.34704" lon="5.97985">
        <ele>395</ele>
        <time>2019-12-17T07:57:32.000Z</time>
      </trkpt>
      <trkpt lat="43.34705" lon="5.97986">
        <ele>395</ele>
        <time>2019-12-17T07:57:33.000Z</time>
      </trkpt>
      <trkpt lat="43.34706" lon="5.97986">
        <ele>395</ele>
        <time>2019-12-17T07:57:34.000Z</time>
      </trkpt>
      <trkpt lat="43.34707" lon="5.97986">
        <ele>395</ele>
        <time>2019-12-17T07:57:35.000Z</time>
      </trkpt>
      <trkpt lat="43.34708" lon="5.97987">
        <ele>395</ele>
        <time>2019-12-17T07:57:36.000Z</time>
      </trkpt>
      <trkpt lat="43.34709" lon="5.97987">
        <ele>395</ele>
        <time>2019-12-17T07:57:37.000Z</time>
      </trkpt>
      <trkpt lat="43.3471" lon="5.97988">
        <ele>395</ele>
        <time>2019-12-17T07:57:38.000Z</time>
      </trkpt>
      <trkpt lat="43.3471" lon="5.97988">
        <ele>395</ele>
        <time>2019-12-17T07:57:39.000Z</time>
      </trkpt>
      <trkpt lat="43.34711" lon="5.97988">
        <ele>396</ele>
        <time>2019-12-17T07:57:40.000Z</time>
      </trkpt>
      <trkpt lat="43.34712" lon="5.97989">
        <ele>396</ele>
        <time>2019-12-17T07:57:41.000Z</time>
      </trkpt>
      <trkpt lat="43.34713" lon="5.97989">
        <ele>396</ele>
        <time>2019-12-17T07:57:42.000Z</time>
      </trkpt>
      <trkpt lat="43.34714" lon="5.9799">
        <ele>396</ele>
        <time>2019-12-17T07:57:43.000Z</time>
      </trkpt>
      <trkpt lat="43.34715" lon="5.9799">
        <ele>396</ele>
        <time>2019-12-17T07:57:44.000Z</time>
      </trkpt>
      <trkpt lat="43.34716" lon="5.9799">
        <ele>396</ele>
        <time>2019-12-17T07:57:45.000Z</time>
      </trkpt>
      <trkpt lat="43.34717" lon="5.97991">
        <ele>396</ele>
        <time>2019-12-17T07:57:46.000Z</time>
      </trkpt>
      <trkpt lat="43.34718" lon="5.97991">
        <ele>396</ele>
        <time>2019-12-17T07:57:47.000Z</time>
      </trkpt>
      <trkpt lat="43.34719" lon="5.97992">
        <ele>396</ele>
        <time>2019-12-17T07:57:48.000Z</time>
      </trkpt>
      <trkpt lat="43.3472" lon="5.97992">
        <ele>396</ele>
        <time>2019-12-17T07:57:49.000Z</time>
      </trkpt>
      <trkpt lat="43.34721" lon="5.97993">
        <ele>396</ele>
        <time>2019-12-17T07:57:50.000Z</time>
      </trkpt>
      <trkpt lat="43.34722" lon="5.97993">
        <ele>397</ele>
        <time>2019-12-17T07:57:51.000Z</time>
      </trkpt>
      <trkpt lat="43.34723" lon="5.97994">
        <ele>397</ele>
        <time>2019-12-17T07:57:52.000Z</time>
      </trkpt>
      <trkpt lat="43.34724" lon="5.97994">
        <ele>397</ele>
        <time>2019-12-17T07:57:53.000Z</time>
      </trkpt>
      <trkpt lat="43.34725" lon="5.97995">
        <ele>397</ele>
        <time>2019-12-17T07:57:54.000Z</time>
      </trkpt>
      <trkpt lat="43.34726" lon="5.97996">
        <ele>397</ele>
        <time>2019-12-17T07:57:55.000Z</time>
      </trkpt>
      <trkpt lat="43.34726" lon="5.97997">
        <ele>397</ele>
        <time>2019-12-17T07:57:56.000Z</time>
      </trkpt>
      <trkpt lat="43.34727" lon="5.97997">
        <ele>397</ele>
        <time>2019-12-17T07:57:57.000Z</time>
      </trkpt>
      <trkpt lat="43.34728" lon="5.97997">
        <ele>397</ele>
        <time>2019-12-17T07:57:58.000Z</time>
      </trkpt>
      <trkpt lat="43.34729" lon="5.97998">
        <ele>397</ele>
        <time>2019-12-17T07:57:59.000Z</time>
      </trkpt>
      <trkpt lat="43.34731" lon="5.97998">
        <ele>397</ele>
        <time>2019-12-17T07:58:00.000Z</time>
      </trkpt>
      <trkpt lat="43.34732" lon="5.97998">
        <ele>397</ele>
        <time>2019-12-17T07:58:01.000Z</time>
      </trkpt>
      <trkpt lat="43.34733" lon="5.97998">
        <ele>397</ele>
        <time>2019-12-17T07:58:02.000Z</time>
      </trkpt>
      <trkpt lat="43.34734" lon="5.97999">
        <ele>397</ele>
        <time>2019-12-17T07:58:03.000Z</time>
      </trkpt>
      <trkpt lat="43.34735" lon="5.97999">
        <ele>397</ele>
        <time>2019-12-17T07:58:04.000Z</time>
      </trkpt>
      <trkpt lat="43.34736" lon="5.97999">
        <ele>397</ele>
        <time>2019-12-17T07:58:05.000Z</time>
      </trkpt>
      <trkpt lat="43.34737" lon="5.98">
        <ele>397</ele>
        <time>2019-12-17T07:58:06.000Z</time>
      </trkpt>
      <trkpt lat="43.34738" lon="5.98">
        <ele>397</ele>
        <time>2019-12-17T07:58:07.000Z</time>
      </trkpt>
      <trkpt lat="43.34739" lon="5.98001">
        <ele>397</ele>
        <time>2019-12-17T07:58:08.000Z</time>
      </trkpt>
      <trkpt lat="43.3474" lon="5.98002">
        <ele>397</ele>
        <time>2019-12-17T07:58:09.000Z</time>
      </trkpt>
      <trkpt lat="43.34741" lon="5.98002">
        <ele>397</ele>
        <time>2019-12-17T07:58:10.000Z</time>
      </trkpt>
      <trkpt lat="43.34742" lon="5.98003">
        <ele>397</ele>
        <time>2019-12-17T07:58:11.000Z</time>
      </trkpt>
      <trkpt lat="43.34743" lon="5.98004">
        <ele>397</ele>
        <time>2019-12-17T07:58:12.000Z</time>
      </trkpt>
      <trkpt lat="43.34744" lon="5.98004">
        <ele>397</ele>
        <time>2019-12-17T07:58:13.000Z</time>
      </trkpt>
      <trkpt lat="43.34745" lon="5.98005">
        <ele>397</ele>
        <time>2019-12-17T07:58:14.000Z</time>
      </trkpt>
      <trkpt lat="43.34746" lon="5.98005">
        <ele>397</ele>
        <time>2019-12-17T07:58:15.000Z</time>
      </trkpt>
      <trkpt lat="43.34748" lon="5.98006">
        <ele>397</ele>
        <time>2019-12-17T07:58:16.000Z</time>
      </trkpt>
      <trkpt lat="43.34749" lon="5.98006">
        <ele>397</ele>
        <time>2019-12-17T07:58:17.000Z</time>
      </trkpt>
      <trkpt lat="43.3475" lon="5.98007">
        <ele>397</ele>
        <time>2019-12-17T07:58:18.000Z</time>
      </trkpt>
      <trkpt lat="43.34751" lon="5.98007">
        <ele>397</ele>
        <time>2019-12-17T07:58:19.000Z</time>
      </trkpt>
      <trkpt lat="43.34752" lon="5.98008">
        <ele>397</ele>
        <time>2019-12-17T07:58:20.000Z</time>
      </trkpt>
      <trkpt lat="43.34753" lon="5.98008">
        <ele>397</ele>
        <time>2019-12-17T07:58:21.000Z</time>
      </trkpt>
      <trkpt lat="43.34754" lon="5.98009">
        <ele>397</ele>
        <time>2019-12-17T07:58:22.000Z</time>
      </trkpt>
      <trkpt lat="43.34755" lon="5.9801">
        <ele>397</ele>
        <time>2019-12-17T07:58:23.000Z</time>
      </trkpt>
      <trkpt lat="43.34756" lon="5.98011">
        <ele>397</ele>
        <time>2019-12-17T07:58:24.000Z</time>
      </trkpt>
      <trkpt lat="43.34757" lon="5.98011">
        <ele>397</ele>
        <time>2019-12-17T07:58:25.000Z</time>
      </trkpt>
      <trkpt lat="43.34758" lon="5.98012">
        <ele>397</ele>
        <time>2019-12-17T07:58:26.000Z</time>
      </trkpt>
      <trkpt lat="43.34759" lon="5.98012">
        <ele>397</ele>
        <time>2019-12-17T07:58:27.000Z</time>
      </trkpt>
      <trkpt lat="43.3476" lon="5.98013">
        <ele>397</ele>
        <time>2019-12-17T07:58:28.000Z</time>
      </trkpt>
      <trkpt lat="43.34762" lon="5.98013">
        <ele>397</ele>
        <time>2019-12-17T07:58:29.000Z</time>
      </trkpt>
      <trkpt lat="43.34763" lon="5.98014">
        <ele>397</ele>
        <time>2019-12-17T07:58:30.000Z</time>
      </trkpt>
      <trkpt lat="43.34764" lon="5.98014">
        <ele>397</ele>
        <time>2019-12-17T07:58:31.000Z</time>
      </trkpt>
      <trkpt lat="43.34765" lon="5.98015">
        <ele>397</ele>
        <time>2019-12-17T07:58:32.000Z</time>
      </trkpt>
      <trkpt lat="43.34766" lon="5.98016">
        <ele>397</ele>
        <time>2019-12-17T07:58:33.000Z</time>
      </trkpt>
      <trkpt lat="43.34767" lon="5.98016">
        <ele>397</ele>
        <time>2019-12-17T07:58:34.000Z</time>
      </trkpt>
      <trkpt lat="43.34768" lon="5.98017">
        <ele>397</ele>
        <time>2019-12-17T07:58:35.000Z</time>
      </trkpt>
      <trkpt lat="43.34769" lon="5.98017">
        <ele>398</ele>
        <time>2019-12-17T07:58:36.000Z</time>
      </trkpt>
      <trkpt lat="43.34771" lon="5.98018">
        <ele>398</ele>
        <time>2019-12-17T07:58:37.000Z</time>
      </trkpt>
      <trkpt lat="43.34772" lon="5.98019">
        <ele>398</ele>
        <time>2019-12-17T07:58:38.000Z</time>
      </trkpt>
      <trkpt lat="43.34773" lon="5.98019">
        <ele>398</ele>
        <time>2019-12-17T07:58:39.000Z</time>
      </trkpt>
      <trkpt lat="43.34774" lon="5.9802">
        <ele>398</ele>
        <time>2019-12-17T07:58:40.000Z</time>
      </trkpt>
      <trkpt lat="43.34775" lon="5.98021">
        <ele>398</ele>
        <time>2019-12-17T07:58:41.000Z</time>
      </trkpt>
      <trkpt lat="43.34776" lon="5.98021">
        <ele>398</ele>
        <time>2019-12-17T07:58:42.000Z</time>
      </trkpt>
      <trkpt lat="43.34777" lon="5.98022">
        <ele>398</ele>
        <time>2019-12-17T07:58:43.000Z</time>
      </trkpt>
      <trkpt lat="43.34778" lon="5.98022">
        <ele>398</ele>
        <time>2019-12-17T07:58:44.000Z</time>
      </trkpt>
      <trkpt lat="43.34779" lon="5.98023">
        <ele>398</ele>
        <time>2019-12-17T07:58:45.000Z</time>
      </trkpt>
      <trkpt lat="43.3478" lon="5.98024">
        <ele>399</ele>
        <time>2019-12-17T07:58:46.000Z</time>
      </trkpt>
      <trkpt lat="43.34781" lon="5.98024">
        <ele>399</ele>
        <time>2019-12-17T07:58:47.000Z</time>
      </trkpt>
      <trkpt lat="43.34782" lon="5.98025">
        <ele>399</ele>
        <time>2019-12-17T07:58:48.000Z</time>
      </trkpt>
      <trkpt lat="43.34783" lon="5.98026">
        <ele>399</ele>
        <time>2019-12-17T07:58:49.000Z</time>
      </trkpt>
      <trkpt lat="43.34784" lon="5.98026">
        <ele>399</ele>
        <time>2019-12-17T07:58:50.000Z</time>
      </trkpt>
      <trkpt lat="43.34785" lon="5.98026">
        <ele>399</ele>
        <time>2019-12-17T07:58:51.000Z</time>
      </trkpt>
      <trkpt lat="43.34786" lon="5.98027">
        <ele>399</ele>
        <time>2019-12-17T07:58:52.000Z</time>
      </trkpt>
      <trkpt lat="43.34787" lon="5.98027">
        <ele>399</ele>
        <time>2019-12-17T07:58:53.000Z</time>
      </trkpt>
      <trkpt lat="43.34788" lon="5.98027">
        <ele>398</ele>
        <time>2019-12-17T07:58:54.000Z</time>
      </trkpt>
      <trkpt lat="43.34789" lon="5.98027">
        <ele>398</ele>
        <time>2019-12-17T07:58:55.000Z</time>
      </trkpt>
      <trkpt lat="43.3479" lon="5.98027">
        <ele>398</ele>
        <time>2019-12-17T07:58:56.000Z</time>
      </trkpt>
      <trkpt lat="43.34791" lon="5.98028">
        <ele>398</ele>
        <time>2019-12-17T07:58:57.000Z</time>
      </trkpt>
      <trkpt lat="43.34792" lon="5.98028">
        <ele>398</ele>
        <time>2019-12-17T07:58:58.000Z</time>
      </trkpt>
      <trkpt lat="43.34794" lon="5.98028">
        <ele>398</ele>
        <time>2019-12-17T07:58:59.000Z</time>
      </trkpt>
      <trkpt lat="43.34795" lon="5.98028">
        <ele>398</ele>
        <time>2019-12-17T07:59:00.000Z</time>
      </trkpt>
      <trkpt lat="43.34796" lon="5.98028">
        <ele>398</ele>
        <time>2019-12-17T07:59:01.000Z</time>
      </trkpt>
      <trkpt lat="43.34797" lon="5.98029">
        <ele>398</ele>
        <time>2019-12-17T07:59:02.000Z</time>
      </trkpt>
      <trkpt lat="43.34799" lon="5.98029">
        <ele>398</ele>
        <time>2019-12-17T07:59:03.000Z</time>
      </trkpt>
      <trkpt lat="43.348" lon="5.98029">
        <ele>398</ele>
        <time>2019-12-17T07:59:04.000Z</time>
      </trkpt>
      <trkpt lat="43.34801" lon="5.98029">
        <ele>398</ele>
        <time>2019-12-17T07:59:05.000Z</time>
      </trkpt>
      <trkpt lat="43.34802" lon="5.9803">
        <ele>398</ele>
        <time>2019-12-17T07:59:06.000Z</time>
      </trkpt>
      <trkpt lat="43.34803" lon="5.9803">
        <ele>397</ele>
        <time>2019-12-17T07:59:07.000Z</time>
      </trkpt>
      <trkpt lat="43.34805" lon="5.98031">
        <ele>397</ele>
        <time>2019-12-17T07:59:08.000Z</time>
      </trkpt>
      <trkpt lat="43.34806" lon="5.98031">
        <ele>397</ele>
        <time>2019-12-17T07:59:09.000Z</time>
      </trkpt>
      <trkpt lat="43.34807" lon="5.98032">
        <ele>397</ele>
        <time>2019-12-17T07:59:10.000Z</time>
      </trkpt>
      <trkpt lat="43.34808" lon="5.98032">
        <ele>397</ele>
        <time>2019-12-17T07:59:11.000Z</time>
      </trkpt>
      <trkpt lat="43.34809" lon="5.98033">
        <ele>397</ele>
        <time>2019-12-17T07:59:12.000Z</time>
      </trkpt>
      <trkpt lat="43.3481" lon="5.98034">
        <ele>397</ele>
        <time>2019-12-17T07:59:13.000Z</time>
      </trkpt>
      <trkpt lat="43.34811" lon="5.98035">
        <ele>397</ele>
        <time>2019-12-17T07:59:14.000Z</time>
      </trkpt>
      <trkpt lat="43.34812" lon="5.98036">
        <ele>397</ele>
        <time>2019-12-17T07:59:15.000Z</time>
      </trkpt>
      <trkpt lat="43.34813" lon="5.98036">
        <ele>397</ele>
        <time>2019-12-17T07:59:16.000Z</time>
      </trkpt>
      <trkpt lat="43.34814" lon="5.98037">
        <ele>397</ele>
        <time>2019-12-17T07:59:17.000Z</time>
      </trkpt>
      <trkpt lat="43.34814" lon="5.98038">
        <ele>397</ele>
        <time>2019-12-17T07:59:18.000Z</time>
      </trkpt>
      <trkpt lat="43.34815" lon="5.98039">
        <ele>398</ele>
        <time>2019-12-17T07:59:19.000Z</time>
      </trkpt>
      <trkpt lat="43.34816" lon="5.9804">
        <ele>398</ele>
        <time>2019-12-17T07:59:20.000Z</time>
      </trkpt>
      <trkpt lat="43.34817" lon="5.98041">
        <ele>398</ele>
        <time>2019-12-17T07:59:21.000Z</time>
      </trkpt>
      <trkpt lat="43.34818" lon="5.98042">
        <ele>398</ele>
        <time>2019-12-17T07:59:22.000Z</time>
      </trkpt>
      <trkpt lat="43.34819" lon="5.98043">
        <ele>398</ele>
        <time>2019-12-17T07:59:23.000Z</time>
      </trkpt>
      <trkpt lat="43.3482" lon="5.98043">
        <ele>398</ele>
        <time>2019-12-17T07:59:24.000Z</time>
      </trkpt>
      <trkpt lat="43.34821" lon="5.98044">
        <ele>399</ele>
        <time>2019-12-17T07:59:25.000Z</time>
      </trkpt>
      <trkpt lat="43.34822" lon="5.98045">
        <ele>399</ele>
        <time>2019-12-17T07:59:26.000Z</time>
      </trkpt>
      <trkpt lat="43.34823" lon="5.98046">
        <ele>399</ele>
        <time>2019-12-17T07:59:27.000Z</time>
      </trkpt>
      <trkpt lat="43.34824" lon="5.98047">
        <ele>399</ele>
        <time>2019-12-17T07:59:28.000Z</time>
      </trkpt>
      <trkpt lat="43.34826" lon="5.98047">
        <ele>399</ele>
        <time>2019-12-17T07:59:29.000Z</time>
      </trkpt>
      <trkpt lat="43.34827" lon="5.98048">
        <ele>399</ele>
        <time>2019-12-17T07:59:30.000Z</time>
      </trkpt>
      <trkpt lat="43.34828" lon="5.98049">
        <ele>399</ele>
        <time>2019-12-17T07:59:31.000Z</time>
      </trkpt>
      <trkpt lat="43.34829" lon="5.9805">
        <ele>400</ele>
        <time>2019-12-17T07:59:32.000Z</time>
      </trkpt>
      <trkpt lat="43.34829" lon="5.98051">
        <ele>400</ele>
        <time>2019-12-17T07:59:33.000Z</time>
      </trkpt>
      <trkpt lat="43.3483" lon="5.98052">
        <ele>400</ele>
        <time>2019-12-17T07:59:34.000Z</time>
      </trkpt>
      <trkpt lat="43.34831" lon="5.98053">
        <ele>400</ele>
        <time>2019-12-17T07:59:35.000Z</time>
      </trkpt>
      <trkpt lat="43.34832" lon="5.98054">
        <ele>400</ele>
        <time>2019-12-17T07:59:36.000Z</time>
      </trkpt>
      <trkpt lat="43.34833" lon="5.98055">
        <ele>400</ele>
        <time>2019-12-17T07:59:37.000Z</time>
      </trkpt>
      <trkpt lat="43.34834" lon="5.98056">
        <ele>400</ele>
        <time>2019-12-17T07:59:38.000Z</time>
      </trkpt>
      <trkpt lat="43.34834" lon="5.98058">
        <ele>400</ele>
        <time>2019-12-17T07:59:39.000Z</time>
      </trkpt>
      <trkpt lat="43.34835" lon="5.98059">
        <ele>400</ele>
        <time>2019-12-17T07:59:40.000Z</time>
      </trkpt>
      <trkpt lat="43.34836" lon="5.98059">
        <ele>400</ele>
        <time>2019-12-17T07:59:41.000Z</time>
      </trkpt>
      <trkpt lat="43.34836" lon="5.9806">
        <ele>400</ele>
        <time>2019-12-17T07:59:42.000Z</time>
      </trkpt>
      <trkpt lat="43.34837" lon="5.98062">
        <ele>400</ele>
        <time>2019-12-17T07:59:43.000Z</time>
      </trkpt>
      <trkpt lat="43.34838" lon="5.98063">
        <ele>400</ele>
        <time>2019-12-17T07:59:44.000Z</time>
      </trkpt>
      <trkpt lat="43.34839" lon="5.98063">
        <ele>400</ele>
        <time>2019-12-17T07:59:45.000Z</time>
      </trkpt>
      <trkpt lat="43.34839" lon="5.98065">
        <ele>401</ele>
        <time>2019-12-17T07:59:46.000Z</time>
      </trkpt>
      <trkpt lat="43.3484" lon="5.98066">
        <ele>401</ele>
        <time>2019-12-17T07:59:47.000Z</time>
      </trkpt>
      <trkpt lat="43.3484" lon="5.98067">
        <ele>401</ele>
        <time>2019-12-17T07:59:48.000Z</time>
      </trkpt>
      <trkpt lat="43.34841" lon="5.98068">
        <ele>401</ele>
        <time>2019-12-17T07:59:49.000Z</time>
      </trkpt>
      <trkpt lat="43.34842" lon="5.98069">
        <ele>401</ele>
        <time>2019-12-17T07:59:50.000Z</time>
      </trkpt>
      <trkpt lat="43.34842" lon="5.9807">
        <ele>400</ele>
        <time>2019-12-17T07:59:51.000Z</time>
      </trkpt>
      <trkpt lat="43.34843" lon="5.98071">
        <ele>400</ele>
        <time>2019-12-17T07:59:52.000Z</time>
      </trkpt>
      <trkpt lat="43.34844" lon="5.98072">
        <ele>400</ele>
        <time>2019-12-17T07:59:53.000Z</time>
      </trkpt>
      <trkpt lat="43.34845" lon="5.98073">
        <ele>400</ele>
        <time>2019-12-17T07:59:54.000Z</time>
      </trkpt>
      <trkpt lat="43.34845" lon="5.98073">
        <ele>400</ele>
        <time>2019-12-17T07:59:55.000Z</time>
      </trkpt>
      <trkpt lat="43.34845" lon="5.98073">
        <ele>400</ele>
        <time>2019-12-17T07:59:56.000Z</time>
      </trkpt>
      <trkpt lat="43.34846" lon="5.98074">
        <ele>400</ele>
        <time>2019-12-17T07:59:57.000Z</time>
      </trkpt>
      <trkpt lat="43.34846" lon="5.98075">
        <ele>400</ele>
        <time>2019-12-17T07:59:58.000Z</time>
      </trkpt>
      <trkpt lat="43.34847" lon="5.98076">
        <ele>400</ele>
        <time>2019-12-17T07:59:59.000Z</time>
      </trkpt>
      <trkpt lat="43.34848" lon="5.98077">
        <ele>400</ele>
        <time>2019-12-17T08:00:00.000Z</time>
      </trkpt>
      <trkpt lat="43.34849" lon="5.98078">
        <ele>399</ele>
        <time>2019-12-17T08:00:01.000Z</time>
      </trkpt>
      <trkpt lat="43.34849" lon="5.98079">
        <ele>399</ele>
        <time>2019-12-17T08:00:02.000Z</time>
      </trkpt>
      <trkpt lat="43.3485" lon="5.98079">
        <ele>399</ele>
        <time>2019-12-17T08:00:03.000Z</time>
      </trkpt>
      <trkpt lat="43.34851" lon="5.9808">
        <ele>399</ele>
        <time>2019-12-17T08:00:04.000Z</time>
      </trkpt>
      <trkpt lat="43.34852" lon="5.98081">
        <ele>399</ele>
        <time>2019-12-17T08:00:05.000Z</time>
      </trkpt>
      <trkpt lat="43.34853" lon="5.98082">
        <ele>399</ele>
        <time>2019-12-17T08:00:06.000Z</time>
      </trkpt>
      <trkpt lat="43.34854" lon="5.98082">
        <ele>399</ele>
        <time>2019-12-17T08:00:07.000Z</time>
      </trkpt>
      <trkpt lat="43.34855" lon="5.98083">
        <ele>398</ele>
        <time>2019-12-17T08:00:08.000Z</time>
      </trkpt>
      <trkpt lat="43.34856" lon="5.98084">
        <ele>398</ele>
        <time>2019-12-17T08:00:09.000Z</time>
      </trkpt>
      <trkpt lat="43.34857" lon="5.98085">
        <ele>398</ele>
        <time>2019-12-17T08:00:10.000Z</time>
      </trkpt>
      <trkpt lat="43.34858" lon="5.98086">
        <ele>398</ele>
        <time>2019-12-17T08:00:11.000Z</time>
      </trkpt>
      <trkpt lat="43.34859" lon="5.98087">
        <ele>399</ele>
        <time>2019-12-17T08:00:12.000Z</time>
      </trkpt>
      <trkpt lat="43.34859" lon="5.98089">
        <ele>399</ele>
        <time>2019-12-17T08:00:13.000Z</time>
      </trkpt>
      <trkpt lat="43.3486" lon="5.9809">
        <ele>399</ele>
        <time>2019-12-17T08:00:14.000Z</time>
      </trkpt>
      <trkpt lat="43.34861" lon="5.98091">
        <ele>399</ele>
        <time>2019-12-17T08:00:15.000Z</time>
      </trkpt>
      <trkpt lat="43.34863" lon="5.98091">
        <ele>399</ele>
        <time>2019-12-17T08:00:16.000Z</time>
      </trkpt>
      <trkpt lat="43.34864" lon="5.98092">
        <ele>399</ele>
        <time>2019-12-17T08:00:17.000Z</time>
      </trkpt>
      <trkpt lat="43.34865" lon="5.98092">
        <ele>399</ele>
        <time>2019-12-17T08:00:18.000Z</time>
      </trkpt>
      <trkpt lat="43.34867" lon="5.98092">
        <ele>400</ele>
        <time>2019-12-17T08:00:19.000Z</time>
      </trkpt>
      <trkpt lat="43.34868" lon="5.98093">
        <ele>400</ele>
        <time>2019-12-17T08:00:20.000Z</time>
      </trkpt>
      <trkpt lat="43.34869" lon="5.98094">
        <ele>400</ele>
        <time>2019-12-17T08:00:21.000Z</time>
      </trkpt>
      <trkpt lat="43.3487" lon="5.98095">
        <ele>400</ele>
        <time>2019-12-17T08:00:22.000Z</time>
      </trkpt>
      <trkpt lat="43.34871" lon="5.98096">
        <ele>400</ele>
        <time>2019-12-17T08:00:23.000Z</time>
      </trkpt>
      <trkpt lat="43.34872" lon="5.98097">
        <ele>401</ele>
        <time>2019-12-17T08:00:24.000Z</time>
      </trkpt>
      <trkpt lat="43.34873" lon="5.98098">
        <ele>401</ele>
        <time>2019-12-17T08:00:25.000Z</time>
      </trkpt>
      <trkpt lat="43.34874" lon="5.98099">
        <ele>401</ele>
        <time>2019-12-17T08:00:26.000Z</time>
      </trkpt>
      <trkpt lat="43.34875" lon="5.981">
        <ele>401</ele>
        <time>2019-12-17T08:00:27.000Z</time>
      </trkpt>
      <trkpt lat="43.34876" lon="5.98101">
        <ele>401</ele>
        <time>2019-12-17T08:00:28.000Z</time>
      </trkpt>
      <trkpt lat="43.34877" lon="5.98102">
        <ele>401</ele>
        <time>2019-12-17T08:00:29.000Z</time>
      </trkpt>
      <trkpt lat="43.34878" lon="5.98103">
        <ele>401</ele>
        <time>2019-12-17T08:00:30.000Z</time>
      </trkpt>
      <trkpt lat="43.34879" lon="5.98104">
        <ele>401</ele>
        <time>2019-12-17T08:00:31.000Z</time>
      </trkpt>
      <trkpt lat="43.3488" lon="5.98105">
        <ele>401</ele>
        <time>2019-12-17T08:00:32.000Z</time>
      </trkpt>
      <trkpt lat="43.34881" lon="5.98105">
        <ele>401</ele>
        <time>2019-12-17T08:00:33.000Z</time>
      </trkpt>
      <trkpt lat="43.34882" lon="5.98106">
        <ele>401</ele>
        <time>2019-12-17T08:00:34.000Z</time>
      </trkpt>
      <trkpt lat="43.34883" lon="5.98107">
        <ele>401</ele>
        <time>2019-12-17T08:00:35.000Z</time>
      </trkpt>
      <trkpt lat="43.34884" lon="5.98108">
        <ele>401</ele>
        <time>2019-12-17T08:00:36.000Z</time>
      </trkpt>
      <trkpt lat="43.34885" lon="5.98109">
        <ele>402</ele>
        <time>2019-12-17T08:00:37.000Z</time>
      </trkpt>
      <trkpt lat="43.34886" lon="5.9811">
        <ele>402</ele>
        <time>2019-12-17T08:00:38.000Z</time>
      </trkpt>
      <trkpt lat="43.34887" lon="5.98111">
        <ele>402</ele>
        <time>2019-12-17T08:00:39.000Z</time>
      </trkpt>
      <trkpt lat="43.34888" lon="5.98112">
        <ele>402</ele>
        <time>2019-12-17T08:00:40.000Z</time>
      </trkpt>
      <trkpt lat="43.34889" lon="5.98113">
        <ele>402</ele>
        <time>2019-12-17T08:00:41.000Z</time>
      </trkpt>
      <trkpt lat="43.3489" lon="5.98114">
        <ele>402</ele>
        <time>2019-12-17T08:00:42.000Z</time>
      </trkpt>
      <trkpt lat="43.34891" lon="5.98115">
        <ele>402</ele>
        <time>2019-12-17T08:00:43.000Z</time>
      </trkpt>
      <trkpt lat="43.34892" lon="5.98116">
        <ele>402</ele>
        <time>2019-12-17T08:00:44.000Z</time>
      </trkpt>
      <trkpt lat="43.34893" lon="5.98117">
        <ele>402</ele>
        <time>2019-12-17T08:00:45.000Z</time>
      </trkpt>
      <trkpt lat="43.34894" lon="5.98118">
        <ele>402</ele>
        <time>2019-12-17T08:00:46.000Z</time>
      </trkpt>
      <trkpt lat="43.34895" lon="5.98119">
        <ele>402</ele>
        <time>2019-12-17T08:00:47.000Z</time>
      </trkpt>
      <trkpt lat="43.34896" lon="5.98119">
        <ele>402</ele>
        <time>2019-12-17T08:00:48.000Z</time>
      </trkpt>
      <trkpt lat="43.34897" lon="5.98121">
        <ele>402</ele>
        <time>2019-12-17T08:00:49.000Z</time>
      </trkpt>
      <trkpt lat="43.34898" lon="5.98121">
        <ele>402</ele>
        <time>2019-12-17T08:00:50.000Z</time>
      </trkpt>
      <trkpt lat="43.34899" lon="5.98122">
        <ele>402</ele>
        <time>2019-12-17T08:00:51.000Z</time>
      </trkpt>
      <trkpt lat="43.34899" lon="5.98123">
        <ele>402</ele>
        <time>2019-12-17T08:00:52.000Z</time>
      </trkpt>
      <trkpt lat="43.349" lon="5.98124">
        <ele>402</ele>
        <time>2019-12-17T08:00:53.000Z</time>
      </trkpt>
      <trkpt lat="43.34901" lon="5.98125">
        <ele>402</ele>
        <time>2019-12-17T08:00:54.000Z</time>
      </trkpt>
      <trkpt lat="43.34902" lon="5.98126">
        <ele>402</ele>
        <time>2019-12-17T08:00:55.000Z</time>
      </trkpt>
      <trkpt lat="43.34903" lon="5.98127">
        <ele>402</ele>
        <time>2019-12-17T08:00:56.000Z</time>
      </trkpt>
      <trkpt lat="43.34904" lon="5.98128">
        <ele>402</ele>
        <time>2019-12-17T08:00:57.000Z</time>
      </trkpt>
      <trkpt lat="43.34905" lon="5.98129">
        <ele>402</ele>
        <time>2019-12-17T08:00:58.000Z</time>
      </trkpt>
      <trkpt lat="43.34905" lon="5.9813">
        <ele>402</ele>
        <time>2019-12-17T08:00:59.000Z</time>
      </trkpt>
      <trkpt lat="43.34906" lon="5.9813">
        <ele>403</ele>
        <time>2019-12-17T08:01:00.000Z</time>
      </trkpt>
      <trkpt lat="43.34907" lon="5.98131">
        <ele>403</ele>
        <time>2019-12-17T08:01:01.000Z</time>
      </trkpt>
      <trkpt lat="43.34908" lon="5.98132">
        <ele>403</ele>
        <time>2019-12-17T08:01:02.000Z</time>
      </trkpt>
      <trkpt lat="43.34909" lon="5.98133">
        <ele>403</ele>
        <time>2019-12-17T08:01:03.000Z</time>
      </trkpt>
      <trkpt lat="43.3491" lon="5.98134">
        <ele>403</ele>
        <time>2019-12-17T08:01:04.000Z</time>
      </trkpt>
      <trkpt lat="43.34911" lon="5.98134">
        <ele>403</ele>
        <time>2019-12-17T08:01:05.000Z</time>
      </trkpt>
      <trkpt lat="43.34912" lon="5.98135">
        <ele>403</ele>
        <time>2019-12-17T08:01:06.000Z</time>
      </trkpt>
      <trkpt lat="43.34913" lon="5.98136">
        <ele>403</ele>
        <time>2019-12-17T08:01:07.000Z</time>
      </trkpt>
      <trkpt lat="43.34913" lon="5.98136">
        <ele>403</ele>
        <time>2019-12-17T08:01:08.000Z</time>
      </trkpt>
      <trkpt lat="43.34914" lon="5.98137">
        <ele>403</ele>
        <time>2019-12-17T08:01:09.000Z</time>
      </trkpt>
      <trkpt lat="43.34915" lon="5.98138">
        <ele>404</ele>
        <time>2019-12-17T08:01:10.000Z</time>
      </trkpt>
      <trkpt lat="43.34916" lon="5.98139">
        <ele>404</ele>
        <time>2019-12-17T08:01:11.000Z</time>
      </trkpt>
      <trkpt lat="43.34917" lon="5.98139">
        <ele>404</ele>
        <time>2019-12-17T08:01:12.000Z</time>
      </trkpt>
      <trkpt lat="43.34918" lon="5.9814">
        <ele>404</ele>
        <time>2019-12-17T08:01:13.000Z</time>
      </trkpt>
      <trkpt lat="43.34919" lon="5.9814">
        <ele>404</ele>
        <time>2019-12-17T08:01:14.000Z</time>
      </trkpt>
      <trkpt lat="43.34919" lon="5.98141">
        <ele>404</ele>
        <time>2019-12-17T08:01:15.000Z</time>
      </trkpt>
      <trkpt lat="43.3492" lon="5.98142">
        <ele>404</ele>
        <time>2019-12-17T08:01:16.000Z</time>
      </trkpt>
      <trkpt lat="43.34921" lon="5.98143">
        <ele>404</ele>
        <time>2019-12-17T08:01:17.000Z</time>
      </trkpt>
      <trkpt lat="43.34922" lon="5.98143">
        <ele>404</ele>
        <time>2019-12-17T08:01:18.000Z</time>
      </trkpt>
      <trkpt lat="43.34923" lon="5.98144">
        <ele>404</ele>
        <time>2019-12-17T08:01:19.000Z</time>
      </trkpt>
      <trkpt lat="43.34924" lon="5.98145">
        <ele>405</ele>
        <time>2019-12-17T08:01:20.000Z</time>
      </trkpt>
      <trkpt lat="43.34924" lon="5.98146">
        <ele>405</ele>
        <time>2019-12-17T08:01:21.000Z</time>
      </trkpt>
      <trkpt lat="43.34925" lon="5.98147">
        <ele>405</ele>
        <time>2019-12-17T08:01:22.000Z</time>
      </trkpt>
      <trkpt lat="43.34925" lon="5.98147">
        <ele>405</ele>
        <time>2019-12-17T08:01:23.000Z</time>
      </trkpt>
      <trkpt lat="43.34926" lon="5.98148">
        <ele>405</ele>
        <time>2019-12-17T08:01:24.000Z</time>
      </trkpt>
      <trkpt lat="43.34926" lon="5.98149">
        <ele>405</ele>
        <time>2019-12-17T08:01:25.000Z</time>
      </trkpt>
      <trkpt lat="43.34927" lon="5.9815">
        <ele>405</ele>
        <time>2019-12-17T08:01:26.000Z</time>
      </trkpt>
      <trkpt lat="43.34927" lon="5.9815">
        <ele>405</ele>
        <time>2019-12-17T08:01:27.000Z</time>
      </trkpt>
      <trkpt lat="43.34928" lon="5.98151">
        <ele>405</ele>
        <time>2019-12-17T08:01:28.000Z</time>
      </trkpt>
      <trkpt lat="43.34928" lon="5.98152">
        <ele>405</ele>
        <time>2019-12-17T08:01:29.000Z</time>
      </trkpt>
      <trkpt lat="43.34929" lon="5.98153">
        <ele>405</ele>
        <time>2019-12-17T08:01:30.000Z</time>
      </trkpt>
      <trkpt lat="43.34929" lon="5.98154">
        <ele>405</ele>
        <time>2019-12-17T08:01:31.000Z</time>
      </trkpt>
      <trkpt lat="43.3493" lon="5.98155">
        <ele>405</ele>
        <time>2019-12-17T08:01:32.000Z</time>
      </trkpt>
      <trkpt lat="43.34931" lon="5.98155">
        <ele>405</ele>
        <time>2019-12-17T08:01:33.000Z</time>
      </trkpt>
      <trkpt lat="43.34931" lon="5.98156">
        <ele>405</ele>
        <time>2019-12-17T08:01:34.000Z</time>
      </trkpt>
      <trkpt lat="43.34932" lon="5.98157">
        <ele>405</ele>
        <time>2019-12-17T08:01:35.000Z</time>
      </trkpt>
      <trkpt lat="43.34932" lon="5.98158">
        <ele>405</ele>
        <time>2019-12-17T08:01:36.000Z</time>
      </trkpt>
      <trkpt lat="43.34933" lon="5.98159">
        <ele>405</ele>
        <time>2019-12-17T08:01:37.000Z</time>
      </trkpt>
      <trkpt lat="43.34934" lon="5.9816">
        <ele>405</ele>
        <time>2019-12-17T08:01:38.000Z</time>
      </trkpt>
      <trkpt lat="43.34934" lon="5.98161">
        <ele>405</ele>
        <time>2019-12-17T08:01:39.000Z</time>
      </trkpt>
      <trkpt lat="43.34935" lon="5.98161">
        <ele>405</ele>
        <time>2019-12-17T08:01:40.000Z</time>
      </trkpt>
      <trkpt lat="43.34936" lon="5.98162">
        <ele>405</ele>
        <time>2019-12-17T08:01:41.000Z</time>
      </trkpt>
      <trkpt lat="43.34936" lon="5.98163">
        <ele>405</ele>
        <time>2019-12-17T08:01:42.000Z</time>
      </trkpt>
      <trkpt lat="43.34937" lon="5.98164">
        <ele>405</ele>
        <time>2019-12-17T08:01:43.000Z</time>
      </trkpt>
      <trkpt lat="43.34937" lon="5.98165">
        <ele>405</ele>
        <time>2019-12-17T08:01:44.000Z</time>
      </trkpt>
      <trkpt lat="43.34938" lon="5.98166">
        <ele>406</ele>
        <time>2019-12-17T08:01:45.000Z</time>
      </trkpt>
      <trkpt lat="43.34939" lon="5.98167">
        <ele>406</ele>
        <time>2019-12-17T08:01:46.000Z</time>
      </trkpt>
      <trkpt lat="43.34939" lon="5.98168">
        <ele>406</ele>
        <time>2019-12-17T08:01:47.000Z</time>
      </trkpt>
      <trkpt lat="43.3494" lon="5.98169">
        <ele>406</ele>
        <time>2019-12-17T08:01:48.000Z</time>
      </trkpt>
      <trkpt lat="43.34941" lon="5.9817">
        <ele>406</ele>
        <time>2019-12-17T08:01:49.000Z</time>
      </trkpt>
      <trkpt lat="43.34942" lon="5.98171">
        <ele>406</ele>
        <time>2019-12-17T08:01:50.000Z</time>
      </trkpt>
      <trkpt lat="43.34943" lon="5.98171">
        <ele>406</ele>
        <time>2019-12-17T08:01:51.000Z</time>
      </trkpt>
      <trkpt lat="43.34943" lon="5.98172">
        <ele>407</ele>
        <time>2019-12-17T08:01:52.000Z</time>
      </trkpt>
      <trkpt lat="43.34944" lon="5.98173">
        <ele>407</ele>
        <time>2019-12-17T08:01:53.000Z</time>
      </trkpt>
      <trkpt lat="43.34944" lon="5.98173">
        <ele>407</ele>
        <time>2019-12-17T08:01:54.000Z</time>
      </trkpt>
      <trkpt lat="43.34944" lon="5.98173">
        <ele>407</ele>
        <time>2019-12-17T08:01:55.000Z</time>
      </trkpt>
      <trkpt lat="43.34945" lon="5.98173">
        <ele>407</ele>
        <time>2019-12-17T08:01:56.000Z</time>
      </trkpt>
      <trkpt lat="43.34945" lon="5.98173">
        <ele>407</ele>
        <time>2019-12-17T08:01:57.000Z</time>
      </trkpt>
      <trkpt lat="43.34945" lon="5.98173">
        <ele>407</ele>
        <time>2019-12-17T08:01:58.000Z</time>
      </trkpt>
      <trkpt lat="43.34945" lon="5.98173">
        <ele>407</ele>
        <time>2019-12-17T08:01:59.000Z</time>
      </trkpt>
      <trkpt lat="43.34945" lon="5.98173">
        <ele>407</ele>
        <time>2019-12-17T08:02:00.000Z</time>
      </trkpt>
      <trkpt lat="43.34945" lon="5.98173">
        <ele>407</ele>
        <time>2019-12-17T08:02:01.000Z</time>
      </trkpt>
      <trkpt lat="43.34945" lon="5.98173">
        <ele>407</ele>
        <time>2019-12-17T08:02:02.000Z</time>
      </trkpt>
      <trkpt lat="43.34945" lon="5.98173">
        <ele>407</ele>
        <time>2019-12-17T08:02:03.000Z</time>
      </trkpt>
      <trkpt lat="43.34945" lon="5.98173">
        <ele>407</ele>
        <time>2019-12-17T08:02:04.000Z</time>
      </trkpt>
      <trkpt lat="43.34945" lon="5.98173">
        <ele>408</ele>
        <time>2019-12-17T08:02:05.000Z</time>
      </trkpt>
      <trkpt lat="43.34945" lon="5.98173">
        <ele>408</ele>
        <time>2019-12-17T08:02:06.000Z</time>
      </trkpt>
      <trkpt lat="43.34945" lon="5.98173">
        <ele>408</ele>
        <time>2019-12-17T08:02:07.000Z</time>
      </trkpt>
      <trkpt lat="43.34945" lon="5.98172">
        <ele>408</ele>
        <time>2019-12-17T08:02:08.000Z</time>
      </trkpt>
      <trkpt lat="43.34945" lon="5.98172">
        <ele>408</ele>
        <time>2019-12-17T08:02:09.000Z</time>
      </trkpt>
      <trkpt lat="43.34945" lon="5.98172">
        <ele>408</ele>
        <time>2019-12-17T08:02:10.000Z</time>
      </trkpt>
      <trkpt lat="43.34945" lon="5.98173">
        <ele>408</ele>
        <time>2019-12-17T08:02:11.000Z</time>
      </trkpt>
      <trkpt lat="43.34946" lon="5.98174">
        <ele>408</ele>
        <time>2019-12-17T08:02:12.000Z</time>
      </trkpt>
      <trkpt lat="43.34947" lon="5.98174">
        <ele>408</ele>
        <time>2019-12-17T08:02:13.000Z</time>
      </trkpt>
      <trkpt lat="43.34947" lon="5.98175">
        <ele>408</ele>
        <time>2019-12-17T08:02:14.000Z</time>
      </trkpt>
      <trkpt lat="43.34948" lon="5.98175">
        <ele>408</ele>
        <time>2019-12-17T08:02:15.000Z</time>
      </trkpt>
      <trkpt lat="43.34949" lon="5.98176">
        <ele>408</ele>
        <time>2019-12-17T08:02:16.000Z</time>
      </trkpt>
      <trkpt lat="43.34949" lon="5.98176">
        <ele>408</ele>
        <time>2019-12-17T08:02:17.000Z</time>
      </trkpt>
      <trkpt lat="43.3495" lon="5.98177">
        <ele>408</ele>
        <time>2019-12-17T08:02:18.000Z</time>
      </trkpt>
      <trkpt lat="43.34951" lon="5.98177">
        <ele>408</ele>
        <time>2019-12-17T08:02:19.000Z</time>
      </trkpt>
      <trkpt lat="43.34952" lon="5.98178">
        <ele>408</ele>
        <time>2019-12-17T08:02:20.000Z</time>
      </trkpt>
      <trkpt lat="43.34952" lon="5.98179">
        <ele>408</ele>
        <time>2019-12-17T08:02:21.000Z</time>
      </trkpt>
      <trkpt lat="43.34953" lon="5.98179">
        <ele>409</ele>
        <time>2019-12-17T08:02:22.000Z</time>
      </trkpt>
      <trkpt lat="43.34954" lon="5.9818">
        <ele>409</ele>
        <time>2019-12-17T08:02:23.000Z</time>
      </trkpt>
      <trkpt lat="43.34955" lon="5.98181">
        <ele>409</ele>
        <time>2019-12-17T08:02:24.000Z</time>
      </trkpt>
      <trkpt lat="43.34956" lon="5.98182">
        <ele>409</ele>
        <time>2019-12-17T08:02:25.000Z</time>
      </trkpt>
      <trkpt lat="43.34957" lon="5.98182">
        <ele>408</ele>
        <time>2019-12-17T08:02:26.000Z</time>
      </trkpt>
      <trkpt lat="43.34958" lon="5.98183">
        <ele>408</ele>
        <time>2019-12-17T08:02:27.000Z</time>
      </trkpt>
      <trkpt lat="43.34958" lon="5.98184">
        <ele>408</ele>
        <time>2019-12-17T08:02:28.000Z</time>
      </trkpt>
      <trkpt lat="43.34959" lon="5.98185">
        <ele>408</ele>
        <time>2019-12-17T08:02:29.000Z</time>
      </trkpt>
      <trkpt lat="43.3496" lon="5.98185">
        <ele>408</ele>
        <time>2019-12-17T08:02:30.000Z</time>
      </trkpt>
      <trkpt lat="43.34961" lon="5.98186">
        <ele>408</ele>
        <time>2019-12-17T08:02:31.000Z</time>
      </trkpt>
      <trkpt lat="43.34962" lon="5.98187">
        <ele>408</ele>
        <time>2019-12-17T08:02:32.000Z</time>
      </trkpt>
      <trkpt lat="43.34963" lon="5.98188">
        <ele>408</ele>
        <time>2019-12-17T08:02:33.000Z</time>
      </trkpt>
      <trkpt lat="43.34963" lon="5.98189">
        <ele>408</ele>
        <time>2019-12-17T08:02:34.000Z</time>
      </trkpt>
      <trkpt lat="43.34965" lon="5.98189">
        <ele>408</ele>
        <time>2019-12-17T08:02:35.000Z</time>
      </trkpt>
      <trkpt lat="43.34966" lon="5.9819">
        <ele>408</ele>
        <time>2019-12-17T08:02:36.000Z</time>
      </trkpt>
      <trkpt lat="43.34967" lon="5.98191">
        <ele>408</ele>
        <time>2019-12-17T08:02:37.000Z</time>
      </trkpt>
      <trkpt lat="43.34967" lon="5.98192">
        <ele>408</ele>
        <time>2019-12-17T08:02:38.000Z</time>
      </trkpt>
      <trkpt lat="43.34968" lon="5.98193">
        <ele>408</ele>
        <time>2019-12-17T08:02:39.000Z</time>
      </trkpt>
      <trkpt lat="43.34969" lon="5.98194">
        <ele>408</ele>
        <time>2019-12-17T08:02:40.000Z</time>
      </trkpt>
      <trkpt lat="43.3497" lon="5.98195">
        <ele>408</ele>
        <time>2019-12-17T08:02:41.000Z</time>
      </trkpt>
      <trkpt lat="43.3497" lon="5.98196">
        <ele>408</ele>
        <time>2019-12-17T08:02:42.000Z</time>
      </trkpt>
      <trkpt lat="43.34971" lon="5.98197">
        <ele>408</ele>
        <time>2019-12-17T08:02:43.000Z</time>
      </trkpt>
      <trkpt lat="43.34971" lon="5.98198">
        <ele>408</ele>
        <time>2019-12-17T08:02:44.000Z</time>
      </trkpt>
      <trkpt lat="43.34972" lon="5.98198">
        <ele>408</ele>
        <time>2019-12-17T08:02:45.000Z</time>
      </trkpt>
      <trkpt lat="43.34973" lon="5.98199">
        <ele>408</ele>
        <time>2019-12-17T08:02:46.000Z</time>
      </trkpt>
      <trkpt lat="43.34974" lon="5.982">
        <ele>408</ele>
        <time>2019-12-17T08:02:47.000Z</time>
      </trkpt>
      <trkpt lat="43.34974" lon="5.98201">
        <ele>408</ele>
        <time>2019-12-17T08:02:48.000Z</time>
      </trkpt>
      <trkpt lat="43.34975" lon="5.98203">
        <ele>408</ele>
        <time>2019-12-17T08:02:49.000Z</time>
      </trkpt>
      <trkpt lat="43.34976" lon="5.98204">
        <ele>408</ele>
        <time>2019-12-17T08:02:50.000Z</time>
      </trkpt>
      <trkpt lat="43.34977" lon="5.98205">
        <ele>409</ele>
        <time>2019-12-17T08:02:51.000Z</time>
      </trkpt>
      <trkpt lat="43.34978" lon="5.98207">
        <ele>409</ele>
        <time>2019-12-17T08:02:52.000Z</time>
      </trkpt>
      <trkpt lat="43.34978" lon="5.98208">
        <ele>409</ele>
        <time>2019-12-17T08:02:53.000Z</time>
      </trkpt>
      <trkpt lat="43.34978" lon="5.98209">
        <ele>409</ele>
        <time>2019-12-17T08:02:54.000Z</time>
      </trkpt>
      <trkpt lat="43.34979" lon="5.9821">
        <ele>409</ele>
        <time>2019-12-17T08:02:55.000Z</time>
      </trkpt>
      <trkpt lat="43.3498" lon="5.98211">
        <ele>409</ele>
        <time>2019-12-17T08:02:56.000Z</time>
      </trkpt>
      <trkpt lat="43.34981" lon="5.98212">
        <ele>409</ele>
        <time>2019-12-17T08:02:57.000Z</time>
      </trkpt>
      <trkpt lat="43.34981" lon="5.98212">
        <ele>410</ele>
        <time>2019-12-17T08:02:58.000Z</time>
      </trkpt>
      <trkpt lat="43.34981" lon="5.98212">
        <ele>410</ele>
        <time>2019-12-17T08:02:59.000Z</time>
      </trkpt>
      <trkpt lat="43.34981" lon="5.98213">
        <ele>410</ele>
        <time>2019-12-17T08:03:00.000Z</time>
      </trkpt>
      <trkpt lat="43.34981" lon="5.98213">
        <ele>410</ele>
        <time>2019-12-17T08:03:01.000Z</time>
      </trkpt>
      <trkpt lat="43.34981" lon="5.98213">
        <ele>410</ele>
        <time>2019-12-17T08:03:02.000Z</time>
      </trkpt>
      <trkpt lat="43.34981" lon="5.98214">
        <ele>410</ele>
        <time>2019-12-17T08:03:03.000Z</time>
      </trkpt>
      <trkpt lat="43.34981" lon="5.98214">
        <ele>410</ele>
        <time>2019-12-17T08:03:04.000Z</time>
      </trkpt>
      <trkpt lat="43.3498" lon="5.98214">
        <ele>410</ele>
        <time>2019-12-17T08:03:05.000Z</time>
      </trkpt>
      <trkpt lat="43.3498" lon="5.98214">
        <ele>410</ele>
        <time>2019-12-17T08:03:06.000Z</time>
      </trkpt>
      <trkpt lat="43.3498" lon="5.98215">
        <ele>410</ele>
        <time>2019-12-17T08:03:07.000Z</time>
      </trkpt>
      <trkpt lat="43.3498" lon="5.98216">
        <ele>410</ele>
        <time>2019-12-17T08:03:08.000Z</time>
      </trkpt>
      <trkpt lat="43.3498" lon="5.98216">
        <ele>410</ele>
        <time>2019-12-17T08:03:09.000Z</time>
      </trkpt>
      <trkpt lat="43.3498" lon="5.98217">
        <ele>410</ele>
        <time>2019-12-17T08:03:10.000Z</time>
      </trkpt>
      <trkpt lat="43.3498" lon="5.98219">
        <ele>411</ele>
        <time>2019-12-17T08:03:11.000Z</time>
      </trkpt>
      <trkpt lat="43.3498" lon="5.9822">
        <ele>411</ele>
        <time>2019-12-17T08:03:12.000Z</time>
      </trkpt>
      <trkpt lat="43.34981" lon="5.98221">
        <ele>411</ele>
        <time>2019-12-17T08:03:13.000Z</time>
      </trkpt>
      <trkpt lat="43.34981" lon="5.98222">
        <ele>411</ele>
        <time>2019-12-17T08:03:14.000Z</time>
      </trkpt>
      <trkpt lat="43.34982" lon="5.98224">
        <ele>411</ele>
        <time>2019-12-17T08:03:15.000Z</time>
      </trkpt>
      <trkpt lat="43.34983" lon="5.98225">
        <ele>411</ele>
        <time>2019-12-17T08:03:16.000Z</time>
      </trkpt>
      <trkpt lat="43.34984" lon="5.98225">
        <ele>411</ele>
        <time>2019-12-17T08:03:17.000Z</time>
      </trkpt>
      <trkpt lat="43.34985" lon="5.98226">
        <ele>411</ele>
        <time>2019-12-17T08:03:18.000Z</time>
      </trkpt>
      <trkpt lat="43.34986" lon="5.98226">
        <ele>411</ele>
        <time>2019-12-17T08:03:19.000Z</time>
      </trkpt>
      <trkpt lat="43.34987" lon="5.98227">
        <ele>411</ele>
        <time>2019-12-17T08:03:20.000Z</time>
      </trkpt>
      <trkpt lat="43.34988" lon="5.98227">
        <ele>411</ele>
        <time>2019-12-17T08:03:21.000Z</time>
      </trkpt>
      <trkpt lat="43.34989" lon="5.98227">
        <ele>411</ele>
        <time>2019-12-17T08:03:22.000Z</time>
      </trkpt>
      <trkpt lat="43.3499" lon="5.98227">
        <ele>411</ele>
        <time>2019-12-17T08:03:23.000Z</time>
      </trkpt>
      <trkpt lat="43.34991" lon="5.98227">
        <ele>411</ele>
        <time>2019-12-17T08:03:24.000Z</time>
      </trkpt>
      <trkpt lat="43.34992" lon="5.98226">
        <ele>412</ele>
        <time>2019-12-17T08:03:25.000Z</time>
      </trkpt>
      <trkpt lat="43.34993" lon="5.98226">
        <ele>412</ele>
        <time>2019-12-17T08:03:26.000Z</time>
      </trkpt>
      <trkpt lat="43.34994" lon="5.98226">
        <ele>411</ele>
        <time>2019-12-17T08:03:27.000Z</time>
      </trkpt>
      <trkpt lat="43.34995" lon="5.98225">
        <ele>411</ele>
        <time>2019-12-17T08:03:28.000Z</time>
      </trkpt>
      <trkpt lat="43.34995" lon="5.98225">
        <ele>411</ele>
        <time>2019-12-17T08:03:29.000Z</time>
      </trkpt>
      <trkpt lat="43.34996" lon="5.98225">
        <ele>411</ele>
        <time>2019-12-17T08:03:30.000Z</time>
      </trkpt>
      <trkpt lat="43.34997" lon="5.98224">
        <ele>411</ele>
        <time>2019-12-17T08:03:31.000Z</time>
      </trkpt>
      <trkpt lat="43.34998" lon="5.98224">
        <ele>411</ele>
        <time>2019-12-17T08:03:32.000Z</time>
      </trkpt>
      <trkpt lat="43.34999" lon="5.98223">
        <ele>411</ele>
        <time>2019-12-17T08:03:33.000Z</time>
      </trkpt>
      <trkpt lat="43.35" lon="5.98223">
        <ele>411</ele>
        <time>2019-12-17T08:03:34.000Z</time>
      </trkpt>
      <trkpt lat="43.35001" lon="5.98222">
        <ele>411</ele>
        <time>2019-12-17T08:03:35.000Z</time>
      </trkpt>
      <trkpt lat="43.35002" lon="5.98222">
        <ele>411</ele>
        <time>2019-12-17T08:03:36.000Z</time>
      </trkpt>
      <trkpt lat="43.35003" lon="5.98221">
        <ele>411</ele>
        <time>2019-12-17T08:03:37.000Z</time>
      </trkpt>
      <trkpt lat="43.35004" lon="5.98221">
        <ele>411</ele>
        <time>2019-12-17T08:03:38.000Z</time>
      </trkpt>
      <trkpt lat="43.35005" lon="5.9822">
        <ele>411</ele>
        <time>2019-12-17T08:03:39.000Z</time>
      </trkpt>
      <trkpt lat="43.35006" lon="5.9822">
        <ele>411</ele>
        <time>2019-12-17T08:03:40.000Z</time>
      </trkpt>
      <trkpt lat="43.35006" lon="5.98219">
        <ele>411</ele>
        <time>2019-12-17T08:03:41.000Z</time>
      </trkpt>
      <trkpt lat="43.35007" lon="5.98219">
        <ele>411</ele>
        <time>2019-12-17T08:03:42.000Z</time>
      </trkpt>
      <trkpt lat="43.35008" lon="5.98218">
        <ele>411</ele>
        <time>2019-12-17T08:03:43.000Z</time>
      </trkpt>
      <trkpt lat="43.35009" lon="5.98218">
        <ele>411</ele>
        <time>2019-12-17T08:03:44.000Z</time>
      </trkpt>
      <trkpt lat="43.3501" lon="5.98217">
        <ele>411</ele>
        <time>2019-12-17T08:03:45.000Z</time>
      </trkpt>
      <trkpt lat="43.3501" lon="5.98217">
        <ele>411</ele>
        <time>2019-12-17T08:03:46.000Z</time>
      </trkpt>
      <trkpt lat="43.35011" lon="5.98216">
        <ele>411</ele>
        <time>2019-12-17T08:03:47.000Z</time>
      </trkpt>
      <trkpt lat="43.35012" lon="5.98215">
        <ele>411</ele>
        <time>2019-12-17T08:03:48.000Z</time>
      </trkpt>
      <trkpt lat="43.35013" lon="5.98215">
        <ele>411</ele>
        <time>2019-12-17T08:03:49.000Z</time>
      </trkpt>
      <trkpt lat="43.35014" lon="5.98214">
        <ele>411</ele>
        <time>2019-12-17T08:03:50.000Z</time>
      </trkpt>
      <trkpt lat="43.35014" lon="5.98214">
        <ele>412</ele>
        <time>2019-12-17T08:03:51.000Z</time>
      </trkpt>
      <trkpt lat="43.35014" lon="5.98214">
        <ele>412</ele>
        <time>2019-12-17T08:03:52.000Z</time>
      </trkpt>
      <trkpt lat="43.35014" lon="5.98214">
        <ele>412</ele>
        <time>2019-12-17T08:03:53.000Z</time>
      </trkpt>
      <trkpt lat="43.35014" lon="5.98214">
        <ele>412</ele>
        <time>2019-12-17T08:03:54.000Z</time>
      </trkpt>
      <trkpt lat="43.35014" lon="5.98213">
        <ele>412</ele>
        <time>2019-12-17T08:03:55.000Z</time>
      </trkpt>
      <trkpt lat="43.35014" lon="5.98213">
        <ele>412</ele>
        <time>2019-12-17T08:03:56.000Z</time>
      </trkpt>
      <trkpt lat="43.35014" lon="5.98214">
        <ele>412</ele>
        <time>2019-12-17T08:03:57.000Z</time>
      </trkpt>
      <trkpt lat="43.35014" lon="5.98213">
        <ele>412</ele>
        <time>2019-12-17T08:03:58.000Z</time>
      </trkpt>
      <trkpt lat="43.35015" lon="5.98213">
        <ele>412</ele>
        <time>2019-12-17T08:03:59.000Z</time>
      </trkpt>
      <trkpt lat="43.35016" lon="5.98213">
        <ele>412</ele>
        <time>2019-12-17T08:04:00.000Z</time>
      </trkpt>
      <trkpt lat="43.35017" lon="5.98212">
        <ele>412</ele>
        <time>2019-12-17T08:04:01.000Z</time>
      </trkpt>
      <trkpt lat="43.35018" lon="5.98212">
        <ele>412</ele>
        <time>2019-12-17T08:04:02.000Z</time>
      </trkpt>
      <trkpt lat="43.35019" lon="5.98211">
        <ele>412</ele>
        <time>2019-12-17T08:04:03.000Z</time>
      </trkpt>
      <trkpt lat="43.3502" lon="5.98211">
        <ele>412</ele>
        <time>2019-12-17T08:04:04.000Z</time>
      </trkpt>
      <trkpt lat="43.35021" lon="5.9821">
        <ele>413</ele>
        <time>2019-12-17T08:04:05.000Z</time>
      </trkpt>
      <trkpt lat="43.35022" lon="5.98209">
        <ele>413</ele>
        <time>2019-12-17T08:04:06.000Z</time>
      </trkpt>
      <trkpt lat="43.35024" lon="5.98209">
        <ele>413</ele>
        <time>2019-12-17T08:04:07.000Z</time>
      </trkpt>
      <trkpt lat="43.35025" lon="5.98209">
        <ele>413</ele>
        <time>2019-12-17T08:04:08.000Z</time>
      </trkpt>
      <trkpt lat="43.35026" lon="5.98208">
        <ele>413</ele>
        <time>2019-12-17T08:04:09.000Z</time>
      </trkpt>
      <trkpt lat="43.35027" lon="5.98208">
        <ele>413</ele>
        <time>2019-12-17T08:04:10.000Z</time>
      </trkpt>
      <trkpt lat="43.35028" lon="5.98208">
        <ele>413</ele>
        <time>2019-12-17T08:04:11.000Z</time>
      </trkpt>
      <trkpt lat="43.35029" lon="5.98208">
        <ele>413</ele>
        <time>2019-12-17T08:04:12.000Z</time>
      </trkpt>
      <trkpt lat="43.3503" lon="5.98208">
        <ele>413</ele>
        <time>2019-12-17T08:04:13.000Z</time>
      </trkpt>
      <trkpt lat="43.35031" lon="5.98208">
        <ele>413</ele>
        <time>2019-12-17T08:04:14.000Z</time>
      </trkpt>
      <trkpt lat="43.35032" lon="5.98208">
        <ele>413</ele>
        <time>2019-12-17T08:04:15.000Z</time>
      </trkpt>
      <trkpt lat="43.35033" lon="5.98209">
        <ele>413</ele>
        <time>2019-12-17T08:04:16.000Z</time>
      </trkpt>
      <trkpt lat="43.35034" lon="5.98209">
        <ele>413</ele>
        <time>2019-12-17T08:04:17.000Z</time>
      </trkpt>
      <trkpt lat="43.35035" lon="5.9821">
        <ele>413</ele>
        <time>2019-12-17T08:04:18.000Z</time>
      </trkpt>
      <trkpt lat="43.35035" lon="5.98211">
        <ele>413</ele>
        <time>2019-12-17T08:04:19.000Z</time>
      </trkpt>
      <trkpt lat="43.35036" lon="5.98212">
        <ele>413</ele>
        <time>2019-12-17T08:04:20.000Z</time>
      </trkpt>
      <trkpt lat="43.35036" lon="5.98214">
        <ele>413</ele>
        <time>2019-12-17T08:04:21.000Z</time>
      </trkpt>
      <trkpt lat="43.35036" lon="5.98215">
        <ele>413</ele>
        <time>2019-12-17T08:04:22.000Z</time>
      </trkpt>
      <trkpt lat="43.35036" lon="5.98216">
        <ele>414</ele>
        <time>2019-12-17T08:04:23.000Z</time>
      </trkpt>
      <trkpt lat="43.35036" lon="5.98218">
        <ele>414</ele>
        <time>2019-12-17T08:04:24.000Z</time>
      </trkpt>
      <trkpt lat="43.35036" lon="5.98219">
        <ele>414</ele>
        <time>2019-12-17T08:04:25.000Z</time>
      </trkpt>
      <trkpt lat="43.35037" lon="5.9822">
        <ele>414</ele>
        <time>2019-12-17T08:04:26.000Z</time>
      </trkpt>
      <trkpt lat="43.35037" lon="5.98222">
        <ele>414</ele>
        <time>2019-12-17T08:04:27.000Z</time>
      </trkpt>
      <trkpt lat="43.35037" lon="5.98223">
        <ele>414</ele>
        <time>2019-12-17T08:04:28.000Z</time>
      </trkpt>
      <trkpt lat="43.35037" lon="5.98224">
        <ele>414</ele>
        <time>2019-12-17T08:04:29.000Z</time>
      </trkpt>
      <trkpt lat="43.35037" lon="5.98225">
        <ele>414</ele>
        <time>2019-12-17T08:04:30.000Z</time>
      </trkpt>
      <trkpt lat="43.35037" lon="5.98227">
        <ele>415</ele>
        <time>2019-12-17T08:04:31.000Z</time>
      </trkpt>
      <trkpt lat="43.35037" lon="5.98228">
        <ele>415</ele>
        <time>2019-12-17T08:04:32.000Z</time>
      </trkpt>
      <trkpt lat="43.35036" lon="5.9823">
        <ele>415</ele>
        <time>2019-12-17T08:04:33.000Z</time>
      </trkpt>
      <trkpt lat="43.35036" lon="5.98231">
        <ele>415</ele>
        <time>2019-12-17T08:04:34.000Z</time>
      </trkpt>
      <trkpt lat="43.35036" lon="5.98232">
        <ele>415</ele>
        <time>2019-12-17T08:04:35.000Z</time>
      </trkpt>
      <trkpt lat="43.35036" lon="5.98233">
        <ele>415</ele>
        <time>2019-12-17T08:04:36.000Z</time>
      </trkpt>
      <trkpt lat="43.35036" lon="5.98235">
        <ele>415</ele>
        <time>2019-12-17T08:04:37.000Z</time>
      </trkpt>
      <trkpt lat="43.35037" lon="5.98236">
        <ele>415</ele>
        <time>2019-12-17T08:04:38.000Z</time>
      </trkpt>
      <trkpt lat="43.35037" lon="5.98237">
        <ele>415</ele>
        <time>2019-12-17T08:04:39.000Z</time>
      </trkpt>
      <trkpt lat="43.35037" lon="5.98239">
        <ele>415</ele>
        <time>2019-12-17T08:04:40.000Z</time>
      </trkpt>
      <trkpt lat="43.35037" lon="5.9824">
        <ele>416</ele>
        <time>2019-12-17T08:04:41.000Z</time>
      </trkpt>
      <trkpt lat="43.35037" lon="5.98241">
        <ele>416</ele>
        <time>2019-12-17T08:04:42.000Z</time>
      </trkpt>
      <trkpt lat="43.35038" lon="5.98242">
        <ele>416</ele>
        <time>2019-12-17T08:04:43.000Z</time>
      </trkpt>
      <trkpt lat="43.35038" lon="5.98243">
        <ele>416</ele>
        <time>2019-12-17T08:04:44.000Z</time>
      </trkpt>
      <trkpt lat="43.35038" lon="5.98244">
        <ele>416</ele>
        <time>2019-12-17T08:04:45.000Z</time>
      </trkpt>
      <trkpt lat="43.35039" lon="5.98246">
        <ele>416</ele>
        <time>2019-12-17T08:04:46.000Z</time>
      </trkpt>
      <trkpt lat="43.35039" lon="5.98247">
        <ele>416</ele>
        <time>2019-12-17T08:04:47.000Z</time>
      </trkpt>
      <trkpt lat="43.35039" lon="5.98248">
        <ele>417</ele>
        <time>2019-12-17T08:04:48.000Z</time>
      </trkpt>
      <trkpt lat="43.3504" lon="5.9825">
        <ele>417</ele>
        <time>2019-12-17T08:04:49.000Z</time>
      </trkpt>
      <trkpt lat="43.3504" lon="5.98251">
        <ele>417</ele>
        <time>2019-12-17T08:04:50.000Z</time>
      </trkpt>
      <trkpt lat="43.35041" lon="5.98252">
        <ele>417</ele>
        <time>2019-12-17T08:04:51.000Z</time>
      </trkpt>
      <trkpt lat="43.35041" lon="5.98253">
        <ele>417</ele>
        <time>2019-12-17T08:04:52.000Z</time>
      </trkpt>
      <trkpt lat="43.35042" lon="5.98254">
        <ele>417</ele>
        <time>2019-12-17T08:04:53.000Z</time>
      </trkpt>
      <trkpt lat="43.35042" lon="5.98256">
        <ele>418</ele>
        <time>2019-12-17T08:04:54.000Z</time>
      </trkpt>
      <trkpt lat="43.35042" lon="5.98256">
        <ele>418</ele>
        <time>2019-12-17T08:04:55.000Z</time>
      </trkpt>
      <trkpt lat="43.35042" lon="5.98257">
        <ele>418</ele>
        <time>2019-12-17T08:04:56.000Z</time>
      </trkpt>
      <trkpt lat="43.35042" lon="5.98257">
        <ele>418</ele>
        <time>2019-12-17T08:04:57.000Z</time>
      </trkpt>
      <trkpt lat="43.35042" lon="5.98257">
        <ele>418</ele>
        <time>2019-12-17T08:04:58.000Z</time>
      </trkpt>
      <trkpt lat="43.35042" lon="5.98257">
        <ele>418</ele>
        <time>2019-12-17T08:04:59.000Z</time>
      </trkpt>
      <trkpt lat="43.35042" lon="5.98257">
        <ele>418</ele>
        <time>2019-12-17T08:05:00.000Z</time>
      </trkpt>
      <trkpt lat="43.35042" lon="5.98258">
        <ele>418</ele>
        <time>2019-12-17T08:05:01.000Z</time>
      </trkpt>
      <trkpt lat="43.35043" lon="5.98259">
        <ele>418</ele>
        <time>2019-12-17T08:05:02.000Z</time>
      </trkpt>
      <trkpt lat="43.35043" lon="5.98261">
        <ele>418</ele>
        <time>2019-12-17T08:05:03.000Z</time>
      </trkpt>
      <trkpt lat="43.35043" lon="5.98262">
        <ele>418</ele>
        <time>2019-12-17T08:05:04.000Z</time>
      </trkpt>
      <trkpt lat="43.35044" lon="5.98263">
        <ele>418</ele>
        <time>2019-12-17T08:05:05.000Z</time>
      </trkpt>
      <trkpt lat="43.35044" lon="5.98265">
        <ele>418</ele>
        <time>2019-12-17T08:05:06.000Z</time>
      </trkpt>
      <trkpt lat="43.35044" lon="5.98266">
        <ele>418</ele>
        <time>2019-12-17T08:05:07.000Z</time>
      </trkpt>
      <trkpt lat="43.35044" lon="5.98268">
        <ele>418</ele>
        <time>2019-12-17T08:05:08.000Z</time>
      </trkpt>
      <trkpt lat="43.35045" lon="5.98269">
        <ele>418</ele>
        <time>2019-12-17T08:05:09.000Z</time>
      </trkpt>
      <trkpt lat="43.35046" lon="5.98271">
        <ele>418</ele>
        <time>2019-12-17T08:05:10.000Z</time>
      </trkpt>
      <trkpt lat="43.35046" lon="5.98272">
        <ele>418</ele>
        <time>2019-12-17T08:05:11.000Z</time>
      </trkpt>
      <trkpt lat="43.35047" lon="5.98273">
        <ele>418</ele>
        <time>2019-12-17T08:05:12.000Z</time>
      </trkpt>
      <trkpt lat="43.35047" lon="5.98275">
        <ele>418</ele>
        <time>2019-12-17T08:05:13.000Z</time>
      </trkpt>
      <trkpt lat="43.35048" lon="5.98276">
        <ele>418</ele>
        <time>2019-12-17T08:05:14.000Z</time>
      </trkpt>
      <trkpt lat="43.35048" lon="5.98277">
        <ele>418</ele>
        <time>2019-12-17T08:05:15.000Z</time>
      </trkpt>
      <trkpt lat="43.35048" lon="5.98278">
        <ele>418</ele>
        <time>2019-12-17T08:05:16.000Z</time>
      </trkpt>
      <trkpt lat="43.35049" lon="5.9828">
        <ele>418</ele>
        <time>2019-12-17T08:05:17.000Z</time>
      </trkpt>
      <trkpt lat="43.35049" lon="5.98281">
        <ele>418</ele>
        <time>2019-12-17T08:05:18.000Z</time>
      </trkpt>
      <trkpt lat="43.3505" lon="5.98282">
        <ele>419</ele>
        <time>2019-12-17T08:05:19.000Z</time>
      </trkpt>
      <trkpt lat="43.3505" lon="5.98283">
        <ele>419</ele>
        <time>2019-12-17T08:05:20.000Z</time>
      </trkpt>
      <trkpt lat="43.35051" lon="5.98284">
        <ele>419</ele>
        <time>2019-12-17T08:05:21.000Z</time>
      </trkpt>
      <trkpt lat="43.35051" lon="5.98286">
        <ele>419</ele>
        <time>2019-12-17T08:05:22.000Z</time>
      </trkpt>
      <trkpt lat="43.35052" lon="5.98287">
        <ele>419</ele>
        <time>2019-12-17T08:05:23.000Z</time>
      </trkpt>
      <trkpt lat="43.35052" lon="5.98288">
        <ele>419</ele>
        <time>2019-12-17T08:05:24.000Z</time>
      </trkpt>
      <trkpt lat="43.35052" lon="5.98289">
        <ele>419</ele>
        <time>2019-12-17T08:05:25.000Z</time>
      </trkpt>
      <trkpt lat="43.35052" lon="5.98289">
        <ele>420</ele>
        <time>2019-12-17T08:05:26.000Z</time>
      </trkpt>
      <trkpt lat="43.35052" lon="5.98289">
        <ele>420</ele>
        <time>2019-12-17T08:05:27.000Z</time>
      </trkpt>
      <trkpt lat="43.35052" lon="5.98289">
        <ele>420</ele>
        <time>2019-12-17T08:05:28.000Z</time>
      </trkpt>
      <trkpt lat="43.35052" lon="5.98289">
        <ele>420</ele>
        <time>2019-12-17T08:05:29.000Z</time>
      </trkpt>
      <trkpt lat="43.35052" lon="5.9829">
        <ele>420</ele>
        <time>2019-12-17T08:05:30.000Z</time>
      </trkpt>
      <trkpt lat="43.35052" lon="5.9829">
        <ele>420</ele>
        <time>2019-12-17T08:05:31.000Z</time>
      </trkpt>
      <trkpt lat="43.35052" lon="5.9829">
        <ele>420</ele>
        <time>2019-12-17T08:05:32.000Z</time>
      </trkpt>
      <trkpt lat="43.35052" lon="5.9829">
        <ele>420</ele>
        <time>2019-12-17T08:05:33.000Z</time>
      </trkpt>
      <trkpt lat="43.35052" lon="5.9829">
        <ele>420</ele>
        <time>2019-12-17T08:05:34.000Z</time>
      </trkpt>
      <trkpt lat="43.35052" lon="5.9829">
        <ele>420</ele>
        <time>2019-12-17T08:05:35.000Z</time>
      </trkpt>
      <trkpt lat="43.35052" lon="5.9829">
        <ele>420</ele>
        <time>2019-12-17T08:05:36.000Z</time>
      </trkpt>
      <trkpt lat="43.35052" lon="5.98291">
        <ele>420</ele>
        <time>2019-12-17T08:05:37.000Z</time>
      </trkpt>
      <trkpt lat="43.35052" lon="5.98291">
        <ele>420</ele>
        <time>2019-12-17T08:05:38.000Z</time>
      </trkpt>
      <trkpt lat="43.35052" lon="5.98291">
        <ele>420</ele>
        <time>2019-12-17T08:05:39.000Z</time>
      </trkpt>
      <trkpt lat="43.35052" lon="5.98291">
        <ele>420</ele>
        <time>2019-12-17T08:05:40.000Z</time>
      </trkpt>
      <trkpt lat="43.35052" lon="5.98291">
        <ele>420</ele>
        <time>2019-12-17T08:05:41.000Z</time>
      </trkpt>
      <trkpt lat="43.35052" lon="5.98291">
        <ele>420</ele>
        <time>2019-12-17T08:05:42.000Z</time>
      </trkpt>
      <trkpt lat="43.35052" lon="5.98292">
        <ele>420</ele>
        <time>2019-12-17T08:05:43.000Z</time>
      </trkpt>
      <trkpt lat="43.35052" lon="5.98293">
        <ele>420</ele>
        <time>2019-12-17T08:05:44.000Z</time>
      </trkpt>
      <trkpt lat="43.35052" lon="5.98294">
        <ele>420</ele>
        <time>2019-12-17T08:05:45.000Z</time>
      </trkpt>
      <trkpt lat="43.35053" lon="5.98295">
        <ele>420</ele>
        <time>2019-12-17T08:05:46.000Z</time>
      </trkpt>
      <trkpt lat="43.35053" lon="5.98296">
        <ele>421</ele>
        <time>2019-12-17T08:05:47.000Z</time>
      </trkpt>
      <trkpt lat="43.35053" lon="5.98297">
        <ele>421</ele>
        <time>2019-12-17T08:05:48.000Z</time>
      </trkpt>
      <trkpt lat="43.35053" lon="5.98298">
        <ele>421</ele>
        <time>2019-12-17T08:05:49.000Z</time>
      </trkpt>
      <trkpt lat="43.35054" lon="5.98298">
        <ele>421</ele>
        <time>2019-12-17T08:05:50.000Z</time>
      </trkpt>
      <trkpt lat="43.35054" lon="5.98299">
        <ele>421</ele>
        <time>2019-12-17T08:05:51.000Z</time>
      </trkpt>
      <trkpt lat="43.35055" lon="5.98299">
        <ele>421</ele>
        <time>2019-12-17T08:05:52.000Z</time>
      </trkpt>
      <trkpt lat="43.35055" lon="5.983">
        <ele>421</ele>
        <time>2019-12-17T08:05:53.000Z</time>
      </trkpt>
      <trkpt lat="43.35055" lon="5.98301">
        <ele>422</ele>
        <time>2019-12-17T08:05:54.000Z</time>
      </trkpt>
      <trkpt lat="43.35055" lon="5.98301">
        <ele>422</ele>
        <time>2019-12-17T08:05:55.000Z</time>
      </trkpt>
      <trkpt lat="43.35055" lon="5.98302">
        <ele>422</ele>
        <time>2019-12-17T08:05:56.000Z</time>
      </trkpt>
      <trkpt lat="43.35056" lon="5.98302">
        <ele>422</ele>
        <time>2019-12-17T08:05:57.000Z</time>
      </trkpt>
      <trkpt lat="43.35056" lon="5.98303">
        <ele>422</ele>
        <time>2019-12-17T08:05:58.000Z</time>
      </trkpt>
      <trkpt lat="43.35056" lon="5.98304">
        <ele>422</ele>
        <time>2019-12-17T08:05:59.000Z</time>
      </trkpt>
      <trkpt lat="43.35056" lon="5.98305">
        <ele>422</ele>
        <time>2019-12-17T08:06:00.000Z</time>
      </trkpt>
      <trkpt lat="43.35056" lon="5.98306">
        <ele>423</ele>
        <time>2019-12-17T08:06:01.000Z</time>
      </trkpt>
      <trkpt lat="43.35056" lon="5.98307">
        <ele>423</ele>
        <time>2019-12-17T08:06:02.000Z</time>
      </trkpt>
      <trkpt lat="43.35056" lon="5.98308">
        <ele>423</ele>
        <time>2019-12-17T08:06:03.000Z</time>
      </trkpt>
      <trkpt lat="43.35056" lon="5.98309">
        <ele>423</ele>
        <time>2019-12-17T08:06:04.000Z</time>
      </trkpt>
      <trkpt lat="43.35057" lon="5.9831">
        <ele>423</ele>
        <time>2019-12-17T08:06:05.000Z</time>
      </trkpt>
      <trkpt lat="43.35057" lon="5.98311">
        <ele>423</ele>
        <time>2019-12-17T08:06:06.000Z</time>
      </trkpt>
      <trkpt lat="43.35058" lon="5.98312">
        <ele>423</ele>
        <time>2019-12-17T08:06:07.000Z</time>
      </trkpt>
      <trkpt lat="43.35058" lon="5.98313">
        <ele>423</ele>
        <time>2019-12-17T08:06:08.000Z</time>
      </trkpt>
      <trkpt lat="43.35058" lon="5.98314">
        <ele>423</ele>
        <time>2019-12-17T08:06:09.000Z</time>
      </trkpt>
      <trkpt lat="43.35058" lon="5.98315">
        <ele>424</ele>
        <time>2019-12-17T08:06:10.000Z</time>
      </trkpt>
      <trkpt lat="43.35058" lon="5.98316">
        <ele>424</ele>
        <time>2019-12-17T08:06:11.000Z</time>
      </trkpt>
      <trkpt lat="43.35058" lon="5.98317">
        <ele>424</ele>
        <time>2019-12-17T08:06:12.000Z</time>
      </trkpt>
      <trkpt lat="43.35058" lon="5.98318">
        <ele>424</ele>
        <time>2019-12-17T08:06:13.000Z</time>
      </trkpt>
      <trkpt lat="43.35059" lon="5.98319">
        <ele>424</ele>
        <time>2019-12-17T08:06:14.000Z</time>
      </trkpt>
      <trkpt lat="43.35059" lon="5.9832">
        <ele>425</ele>
        <time>2019-12-17T08:06:15.000Z</time>
      </trkpt>
      <trkpt lat="43.35059" lon="5.9832">
        <ele>425</ele>
        <time>2019-12-17T08:06:16.000Z</time>
      </trkpt>
      <trkpt lat="43.35059" lon="5.9832">
        <ele>425</ele>
        <time>2019-12-17T08:06:17.000Z</time>
      </trkpt>
      <trkpt lat="43.35059" lon="5.9832">
        <ele>425</ele>
        <time>2019-12-17T08:06:18.000Z</time>
      </trkpt>
      <trkpt lat="43.35059" lon="5.9832">
        <ele>425</ele>
        <time>2019-12-17T08:06:19.000Z</time>
      </trkpt>
      <trkpt lat="43.35059" lon="5.9832">
        <ele>425</ele>
        <time>2019-12-17T08:06:20.000Z</time>
      </trkpt>
      <trkpt lat="43.35059" lon="5.9832">
        <ele>426</ele>
        <time>2019-12-17T08:06:21.000Z</time>
      </trkpt>
      <trkpt lat="43.35059" lon="5.98321">
        <ele>426</ele>
        <time>2019-12-17T08:06:22.000Z</time>
      </trkpt>
      <trkpt lat="43.35059" lon="5.98321">
        <ele>426</ele>
        <time>2019-12-17T08:06:23.000Z</time>
      </trkpt>
      <trkpt lat="43.35059" lon="5.98321">
        <ele>426</ele>
        <time>2019-12-17T08:06:24.000Z</time>
      </trkpt>
      <trkpt lat="43.35059" lon="5.98321">
        <ele>426</ele>
        <time>2019-12-17T08:06:25.000Z</time>
      </trkpt>
      <trkpt lat="43.35059" lon="5.98321">
        <ele>426</ele>
        <time>2019-12-17T08:06:26.000Z</time>
      </trkpt>
      <trkpt lat="43.35059" lon="5.98321">
        <ele>426</ele>
        <time>2019-12-17T08:06:27.000Z</time>
      </trkpt>
      <trkpt lat="43.35059" lon="5.98321">
        <ele>426</ele>
        <time>2019-12-17T08:06:28.000Z</time>
      </trkpt>
      <trkpt lat="43.35059" lon="5.98321">
        <ele>426</ele>
        <time>2019-12-17T08:06:29.000Z</time>
      </trkpt>
      <trkpt lat="43.35059" lon="5.98321">
        <ele>426</ele>
        <time>2019-12-17T08:06:30.000Z</time>
      </trkpt>
      <trkpt lat="43.35059" lon="5.98321">
        <ele>426</ele>
        <time>2019-12-17T08:06:31.000Z</time>
      </trkpt>
      <trkpt lat="43.35059" lon="5.98321">
        <ele>426</ele>
        <time>2019-12-17T08:06:32.000Z</time>
      </trkpt>
      <trkpt lat="43.35059" lon="5.98321">
        <ele>426</ele>
        <time>2019-12-17T08:06:33.000Z</time>
      </trkpt>
      <trkpt lat="43.35059" lon="5.98321">
        <ele>426</ele>
        <time>2019-12-17T08:06:34.000Z</time>
      </trkpt>
      <trkpt lat="43.35059" lon="5.98321">
        <ele>426</ele>
        <time>2019-12-17T08:06:35.000Z</time>
      </trkpt>
      <trkpt lat="43.35059" lon="5.98321">
        <ele>426</ele>
        <time>2019-12-17T08:06:36.000Z</time>
      </trkpt>
      <trkpt lat="43.35059" lon="5.98321">
        <ele>426</ele>
        <time>2019-12-17T08:06:37.000Z</time>
      </trkpt>
      <trkpt lat="43.35059" lon="5.98321">
        <ele>427</ele>
        <time>2019-12-17T08:06:38.000Z</time>
      </trkpt>
      <trkpt lat="43.35059" lon="5.98321">
        <ele>427</ele>
        <time>2019-12-17T08:06:39.000Z</time>
      </trkpt>
      <trkpt lat="43.35059" lon="5.98321">
        <ele>427</ele>
        <time>2019-12-17T08:06:40.000Z</time>
      </trkpt>
      <trkpt lat="43.35059" lon="5.98321">
        <ele>427</ele>
        <time>2019-12-17T08:06:41.000Z</time>
      </trkpt>
      <trkpt lat="43.35059" lon="5.98322">
        <ele>427</ele>
        <time>2019-12-17T08:06:42.000Z</time>
      </trkpt>
      <trkpt lat="43.35059" lon="5.98322">
        <ele>427</ele>
        <time>2019-12-17T08:06:43.000Z</time>
      </trkpt>
      <trkpt lat="43.35059" lon="5.98322">
        <ele>427</ele>
        <time>2019-12-17T08:06:44.000Z</time>
      </trkpt>
      <trkpt lat="43.35059" lon="5.98322">
        <ele>427</ele>
        <time>2019-12-17T08:06:45.000Z</time>
      </trkpt>
      <trkpt lat="43.35059" lon="5.98322">
        <ele>427</ele>
        <time>2019-12-17T08:06:46.000Z</time>
      </trkpt>
      <trkpt lat="43.35059" lon="5.98322">
        <ele>427</ele>
        <time>2019-12-17T08:06:47.000Z</time>
      </trkpt>
      <trkpt lat="43.35059" lon="5.98322">
        <ele>427</ele>
        <time>2019-12-17T08:06:48.000Z</time>
      </trkpt>
      <trkpt lat="43.35059" lon="5.98322">
        <ele>427</ele>
        <time>2019-12-17T08:06:49.000Z</time>
      </trkpt>
      <trkpt lat="43.35059" lon="5.98322">
        <ele>427</ele>
        <time>2019-12-17T08:06:50.000Z</time>
      </trkpt>
      <trkpt lat="43.35059" lon="5.98322">
        <ele>427</ele>
        <time>2019-12-17T08:06:51.000Z</time>
      </trkpt>
      <trkpt lat="43.35059" lon="5.98322">
        <ele>427</ele>
        <time>2019-12-17T08:06:52.000Z</time>
      </trkpt>
      <trkpt lat="43.35059" lon="5.98322">
        <ele>427</ele>
        <time>2019-12-17T08:06:53.000Z</time>
      </trkpt>
      <trkpt lat="43.35059" lon="5.98322">
        <ele>427</ele>
        <time>2019-12-17T08:06:54.000Z</time>
      </trkpt>
      <trkpt lat="43.35059" lon="5.98322">
        <ele>427</ele>
        <time>2019-12-17T08:06:55.000Z</time>
      </trkpt>
      <trkpt lat="43.35059" lon="5.98322">
        <ele>427</ele>
        <time>2019-12-17T08:06:56.000Z</time>
      </trkpt>
      <trkpt lat="43.35059" lon="5.98322">
        <ele>427</ele>
        <time>2019-12-17T08:06:57.000Z</time>
      </trkpt>
      <trkpt lat="43.35059" lon="5.98322">
        <ele>427</ele>
        <time>2019-12-17T08:06:58.000Z</time>
      </trkpt>
      <trkpt lat="43.35059" lon="5.98322">
        <ele>427</ele>
        <time>2019-12-17T08:06:59.000Z</time>
      </trkpt>
      <trkpt lat="43.35059" lon="5.98322">
        <ele>427</ele>
        <time>2019-12-17T08:07:00.000Z</time>
      </trkpt>
      <trkpt lat="43.35059" lon="5.98322">
        <ele>427</ele>
        <time>2019-12-17T08:07:01.000Z</time>
      </trkpt>
      <trkpt lat="43.35059" lon="5.98322">
        <ele>427</ele>
        <time>2019-12-17T08:07:02.000Z</time>
      </trkpt>
      <trkpt lat="43.35059" lon="5.98322">
        <ele>427</ele>
        <time>2019-12-17T08:07:03.000Z</time>
      </trkpt>
      <trkpt lat="43.35059" lon="5.98322">
        <ele>427</ele>
        <time>2019-12-17T08:07:04.000Z</time>
      </trkpt>
      <trkpt lat="43.35059" lon="5.98322">
        <ele>427</ele>
        <time>2019-12-17T08:07:05.000Z</time>
      </trkpt>
      <trkpt lat="43.35059" lon="5.98322">
        <ele>427</ele>
        <time>2019-12-17T08:07:06.000Z</time>
      </trkpt>
      <trkpt lat="43.35059" lon="5.98322">
        <ele>427</ele>
        <time>2019-12-17T08:07:07.000Z</time>
      </trkpt>
      <trkpt lat="43.35059" lon="5.98322">
        <ele>427</ele>
        <time>2019-12-17T08:07:08.000Z</time>
      </trkpt>
      <trkpt lat="43.35059" lon="5.98322">
        <ele>427</ele>
        <time>2019-12-17T08:07:09.000Z</time>
      </trkpt>
      <trkpt lat="43.35059" lon="5.98322">
        <ele>427</ele>
        <time>2019-12-17T08:07:10.000Z</time>
      </trkpt>
      <trkpt lat="43.35059" lon="5.98322">
        <ele>426</ele>
        <time>2019-12-17T08:07:11.000Z</time>
      </trkpt>
      <trkpt lat="43.35058" lon="5.98321">
        <ele>426</ele>
        <time>2019-12-17T08:07:12.000Z</time>
      </trkpt>
      <trkpt lat="43.35058" lon="5.98321">
        <ele>426</ele>
        <time>2019-12-17T08:07:13.000Z</time>
      </trkpt>
      <trkpt lat="43.35058" lon="5.9832">
        <ele>426</ele>
        <time>2019-12-17T08:07:14.000Z</time>
      </trkpt>
      <trkpt lat="43.35058" lon="5.9832">
        <ele>426</ele>
        <time>2019-12-17T08:07:15.000Z</time>
      </trkpt>
      <trkpt lat="43.35058" lon="5.9832">
        <ele>426</ele>
        <time>2019-12-17T08:07:16.000Z</time>
      </trkpt>
      <trkpt lat="43.35057" lon="5.9832">
        <ele>426</ele>
        <time>2019-12-17T08:07:17.000Z</time>
      </trkpt>
      <trkpt lat="43.35057" lon="5.9832">
        <ele>427</ele>
        <time>2019-12-17T08:07:18.000Z</time>
      </trkpt>
      <trkpt lat="43.35057" lon="5.9832">
        <ele>427</ele>
        <time>2019-12-17T08:07:19.000Z</time>
      </trkpt>
      <trkpt lat="43.35058" lon="5.98321">
        <ele>427</ele>
        <time>2019-12-17T08:07:20.000Z</time>
      </trkpt>
      <trkpt lat="43.35058" lon="5.98322">
        <ele>427</ele>
        <time>2019-12-17T08:07:21.000Z</time>
      </trkpt>
      <trkpt lat="43.35059" lon="5.98322">
        <ele>427</ele>
        <time>2019-12-17T08:07:22.000Z</time>
      </trkpt>
      <trkpt lat="43.3506" lon="5.98322">
        <ele>427</ele>
        <time>2019-12-17T08:07:23.000Z</time>
      </trkpt>
      <trkpt lat="43.3506" lon="5.98322">
        <ele>427</ele>
        <time>2019-12-17T08:07:24.000Z</time>
      </trkpt>
      <trkpt lat="43.35062" lon="5.98322">
        <ele>428</ele>
        <time>2019-12-17T08:07:25.000Z</time>
      </trkpt>
      <trkpt lat="43.35062" lon="5.98322">
        <ele>428</ele>
        <time>2019-12-17T08:07:26.000Z</time>
      </trkpt>
      <trkpt lat="43.35063" lon="5.98322">
        <ele>428</ele>
        <time>2019-12-17T08:07:27.000Z</time>
      </trkpt>
      <trkpt lat="43.35063" lon="5.98322">
        <ele>428</ele>
        <time>2019-12-17T08:07:28.000Z</time>
      </trkpt>
      <trkpt lat="43.35064" lon="5.98322">
        <ele>428</ele>
        <time>2019-12-17T08:07:29.000Z</time>
      </trkpt>
      <trkpt lat="43.35065" lon="5.98321">
        <ele>428</ele>
        <time>2019-12-17T08:07:30.000Z</time>
      </trkpt>
      <trkpt lat="43.35065" lon="5.98321">
        <ele>428</ele>
        <time>2019-12-17T08:07:31.000Z</time>
      </trkpt>
      <trkpt lat="43.35066" lon="5.9832">
        <ele>428</ele>
        <time>2019-12-17T08:07:32.000Z</time>
      </trkpt>
      <trkpt lat="43.35066" lon="5.9832">
        <ele>428</ele>
        <time>2019-12-17T08:07:33.000Z</time>
      </trkpt>
      <trkpt lat="43.35067" lon="5.98321">
        <ele>428</ele>
        <time>2019-12-17T08:07:34.000Z</time>
      </trkpt>
      <trkpt lat="43.35067" lon="5.98321">
        <ele>428</ele>
        <time>2019-12-17T08:07:35.000Z</time>
      </trkpt>
      <trkpt lat="43.35068" lon="5.98321">
        <ele>428</ele>
        <time>2019-12-17T08:07:36.000Z</time>
      </trkpt>
      <trkpt lat="43.35068" lon="5.9832">
        <ele>428</ele>
        <time>2019-12-17T08:07:37.000Z</time>
      </trkpt>
      <trkpt lat="43.35069" lon="5.9832">
        <ele>428</ele>
        <time>2019-12-17T08:07:38.000Z</time>
      </trkpt>
      <trkpt lat="43.35069" lon="5.98319">
        <ele>428</ele>
        <time>2019-12-17T08:07:39.000Z</time>
      </trkpt>
      <trkpt lat="43.3507" lon="5.98319">
        <ele>428</ele>
        <time>2019-12-17T08:07:40.000Z</time>
      </trkpt>
      <trkpt lat="43.3507" lon="5.98318">
        <ele>428</ele>
        <time>2019-12-17T08:07:41.000Z</time>
      </trkpt>
      <trkpt lat="43.3507" lon="5.98317">
        <ele>428</ele>
        <time>2019-12-17T08:07:42.000Z</time>
      </trkpt>
      <trkpt lat="43.35071" lon="5.98318">
        <ele>428</ele>
        <time>2019-12-17T08:07:43.000Z</time>
      </trkpt>
      <trkpt lat="43.35072" lon="5.98318">
        <ele>428</ele>
        <time>2019-12-17T08:07:44.000Z</time>
      </trkpt>
      <trkpt lat="43.35072" lon="5.98319">
        <ele>428</ele>
        <time>2019-12-17T08:07:45.000Z</time>
      </trkpt>
      <trkpt lat="43.35073" lon="5.9832">
        <ele>428</ele>
        <time>2019-12-17T08:07:46.000Z</time>
      </trkpt>
      <trkpt lat="43.35073" lon="5.9832">
        <ele>428</ele>
        <time>2019-12-17T08:07:47.000Z</time>
      </trkpt>
      <trkpt lat="43.35073" lon="5.9832">
        <ele>428</ele>
        <time>2019-12-17T08:07:48.000Z</time>
      </trkpt>
      <trkpt lat="43.35074" lon="5.98321">
        <ele>428</ele>
        <time>2019-12-17T08:07:49.000Z</time>
      </trkpt>
      <trkpt lat="43.35074" lon="5.98322">
        <ele>428</ele>
        <time>2019-12-17T08:07:50.000Z</time>
      </trkpt>
      <trkpt lat="43.35074" lon="5.98323">
        <ele>428</ele>
        <time>2019-12-17T08:07:51.000Z</time>
      </trkpt>
      <trkpt lat="43.35075" lon="5.98323">
        <ele>428</ele>
        <time>2019-12-17T08:07:52.000Z</time>
      </trkpt>
      <trkpt lat="43.35075" lon="5.98324">
        <ele>427</ele>
        <time>2019-12-17T08:07:53.000Z</time>
      </trkpt>
      <trkpt lat="43.35075" lon="5.98325">
        <ele>427</ele>
        <time>2019-12-17T08:07:54.000Z</time>
      </trkpt>
      <trkpt lat="43.35076" lon="5.98326">
        <ele>427</ele>
        <time>2019-12-17T08:07:55.000Z</time>
      </trkpt>
      <trkpt lat="43.35076" lon="5.98326">
        <ele>427</ele>
        <time>2019-12-17T08:07:56.000Z</time>
      </trkpt>
      <trkpt lat="43.35076" lon="5.98327">
        <ele>427</ele>
        <time>2019-12-17T08:07:57.000Z</time>
      </trkpt>
      <trkpt lat="43.35077" lon="5.98327">
        <ele>427</ele>
        <time>2019-12-17T08:07:58.000Z</time>
      </trkpt>
      <trkpt lat="43.35077" lon="5.98328">
        <ele>427</ele>
        <time>2019-12-17T08:07:59.000Z</time>
      </trkpt>
      <trkpt lat="43.35077" lon="5.98329">
        <ele>427</ele>
        <time>2019-12-17T08:08:00.000Z</time>
      </trkpt>
      <trkpt lat="43.35078" lon="5.98329">
        <ele>427</ele>
        <time>2019-12-17T08:08:01.000Z</time>
      </trkpt>
      <trkpt lat="43.35078" lon="5.9833">
        <ele>428</ele>
        <time>2019-12-17T08:08:02.000Z</time>
      </trkpt>
      <trkpt lat="43.35079" lon="5.98331">
        <ele>428</ele>
        <time>2019-12-17T08:08:03.000Z</time>
      </trkpt>
      <trkpt lat="43.35079" lon="5.98331">
        <ele>428</ele>
        <time>2019-12-17T08:08:04.000Z</time>
      </trkpt>
      <trkpt lat="43.35079" lon="5.98332">
        <ele>428</ele>
        <time>2019-12-17T08:08:05.000Z</time>
      </trkpt>
      <trkpt lat="43.35079" lon="5.98333">
        <ele>428</ele>
        <time>2019-12-17T08:08:06.000Z</time>
      </trkpt>
      <trkpt lat="43.3508" lon="5.98334">
        <ele>428</ele>
        <time>2019-12-17T08:08:07.000Z</time>
      </trkpt>
      <trkpt lat="43.3508" lon="5.98335">
        <ele>428</ele>
        <time>2019-12-17T08:08:08.000Z</time>
      </trkpt>
      <trkpt lat="43.35081" lon="5.98336">
        <ele>428</ele>
        <time>2019-12-17T08:08:09.000Z</time>
      </trkpt>
      <trkpt lat="43.35082" lon="5.98336">
        <ele>428</ele>
        <time>2019-12-17T08:08:10.000Z</time>
      </trkpt>
      <trkpt lat="43.35083" lon="5.98337">
        <ele>428</ele>
        <time>2019-12-17T08:08:11.000Z</time>
      </trkpt>
      <trkpt lat="43.35083" lon="5.98338">
        <ele>428</ele>
        <time>2019-12-17T08:08:12.000Z</time>
      </trkpt>
      <trkpt lat="43.35084" lon="5.98338">
        <ele>428</ele>
        <time>2019-12-17T08:08:13.000Z</time>
      </trkpt>
      <trkpt lat="43.35084" lon="5.98338">
        <ele>429</ele>
        <time>2019-12-17T08:08:14.000Z</time>
      </trkpt>
      <trkpt lat="43.35085" lon="5.98339">
        <ele>429</ele>
        <time>2019-12-17T08:08:15.000Z</time>
      </trkpt>
      <trkpt lat="43.35086" lon="5.98339">
        <ele>429</ele>
        <time>2019-12-17T08:08:16.000Z</time>
      </trkpt>
      <trkpt lat="43.35087" lon="5.9834">
        <ele>429</ele>
        <time>2019-12-17T08:08:17.000Z</time>
      </trkpt>
      <trkpt lat="43.35088" lon="5.9834">
        <ele>429</ele>
        <time>2019-12-17T08:08:18.000Z</time>
      </trkpt>
      <trkpt lat="43.35088" lon="5.9834">
        <ele>429</ele>
        <time>2019-12-17T08:08:19.000Z</time>
      </trkpt>
      <trkpt lat="43.35089" lon="5.98341">
        <ele>429</ele>
        <time>2019-12-17T08:08:20.000Z</time>
      </trkpt>
      <trkpt lat="43.35089" lon="5.98341">
        <ele>430</ele>
        <time>2019-12-17T08:08:21.000Z</time>
      </trkpt>
      <trkpt lat="43.3509" lon="5.98342">
        <ele>430</ele>
        <time>2019-12-17T08:08:22.000Z</time>
      </trkpt>
      <trkpt lat="43.35091" lon="5.98342">
        <ele>430</ele>
        <time>2019-12-17T08:08:23.000Z</time>
      </trkpt>
      <trkpt lat="43.35091" lon="5.98342">
        <ele>430</ele>
        <time>2019-12-17T08:08:24.000Z</time>
      </trkpt>
      <trkpt lat="43.35091" lon="5.98343">
        <ele>430</ele>
        <time>2019-12-17T08:08:25.000Z</time>
      </trkpt>
      <trkpt lat="43.35092" lon="5.98343">
        <ele>430</ele>
        <time>2019-12-17T08:08:26.000Z</time>
      </trkpt>
      <trkpt lat="43.35092" lon="5.98344">
        <ele>430</ele>
        <time>2019-12-17T08:08:27.000Z</time>
      </trkpt>
      <trkpt lat="43.35093" lon="5.98345">
        <ele>430</ele>
        <time>2019-12-17T08:08:28.000Z</time>
      </trkpt>
      <trkpt lat="43.35094" lon="5.98345">
        <ele>430</ele>
        <time>2019-12-17T08:08:29.000Z</time>
      </trkpt>
      <trkpt lat="43.35094" lon="5.98346">
        <ele>430</ele>
        <time>2019-12-17T08:08:30.000Z</time>
      </trkpt>
      <trkpt lat="43.35095" lon="5.98346">
        <ele>430</ele>
        <time>2019-12-17T08:08:31.000Z</time>
      </trkpt>
      <trkpt lat="43.35095" lon="5.98347">
        <ele>430</ele>
        <time>2019-12-17T08:08:32.000Z</time>
      </trkpt>
      <trkpt lat="43.35096" lon="5.98347">
        <ele>430</ele>
        <time>2019-12-17T08:08:33.000Z</time>
      </trkpt>
      <trkpt lat="43.35097" lon="5.98347">
        <ele>430</ele>
        <time>2019-12-17T08:08:34.000Z</time>
      </trkpt>
      <trkpt lat="43.35098" lon="5.98348">
        <ele>430</ele>
        <time>2019-12-17T08:08:35.000Z</time>
      </trkpt>
      <trkpt lat="43.35098" lon="5.98348">
        <ele>430</ele>
        <time>2019-12-17T08:08:36.000Z</time>
      </trkpt>
      <trkpt lat="43.35099" lon="5.98349">
        <ele>430</ele>
        <time>2019-12-17T08:08:37.000Z</time>
      </trkpt>
      <trkpt lat="43.351" lon="5.98349">
        <ele>430</ele>
        <time>2019-12-17T08:08:38.000Z</time>
      </trkpt>
      <trkpt lat="43.35101" lon="5.9835">
        <ele>430</ele>
        <time>2019-12-17T08:08:39.000Z</time>
      </trkpt>
      <trkpt lat="43.35101" lon="5.9835">
        <ele>430</ele>
        <time>2019-12-17T08:08:40.000Z</time>
      </trkpt>
      <trkpt lat="43.35102" lon="5.98351">
        <ele>431</ele>
        <time>2019-12-17T08:08:41.000Z</time>
      </trkpt>
      <trkpt lat="43.35103" lon="5.98352">
        <ele>431</ele>
        <time>2019-12-17T08:08:42.000Z</time>
      </trkpt>
      <trkpt lat="43.35104" lon="5.98353">
        <ele>431</ele>
        <time>2019-12-17T08:08:43.000Z</time>
      </trkpt>
      <trkpt lat="43.35105" lon="5.98353">
        <ele>431</ele>
        <time>2019-12-17T08:08:44.000Z</time>
      </trkpt>
      <trkpt lat="43.35105" lon="5.98354">
        <ele>431</ele>
        <time>2019-12-17T08:08:45.000Z</time>
      </trkpt>
      <trkpt lat="43.35106" lon="5.98355">
        <ele>431</ele>
        <time>2019-12-17T08:08:46.000Z</time>
      </trkpt>
      <trkpt lat="43.35106" lon="5.98356">
        <ele>431</ele>
        <time>2019-12-17T08:08:47.000Z</time>
      </trkpt>
      <trkpt lat="43.35107" lon="5.98357">
        <ele>431</ele>
        <time>2019-12-17T08:08:48.000Z</time>
      </trkpt>
      <trkpt lat="43.35107" lon="5.98357">
        <ele>432</ele>
        <time>2019-12-17T08:08:49.000Z</time>
      </trkpt>
      <trkpt lat="43.35107" lon="5.98359">
        <ele>432</ele>
        <time>2019-12-17T08:08:50.000Z</time>
      </trkpt>
      <trkpt lat="43.35108" lon="5.98359">
        <ele>432</ele>
        <time>2019-12-17T08:08:51.000Z</time>
      </trkpt>
      <trkpt lat="43.35108" lon="5.9836">
        <ele>432</ele>
        <time>2019-12-17T08:08:52.000Z</time>
      </trkpt>
      <trkpt lat="43.35108" lon="5.98361">
        <ele>432</ele>
        <time>2019-12-17T08:08:53.000Z</time>
      </trkpt>
      <trkpt lat="43.35108" lon="5.98362">
        <ele>432</ele>
        <time>2019-12-17T08:08:54.000Z</time>
      </trkpt>
      <trkpt lat="43.35109" lon="5.98363">
        <ele>432</ele>
        <time>2019-12-17T08:08:55.000Z</time>
      </trkpt>
      <trkpt lat="43.35109" lon="5.98364">
        <ele>432</ele>
        <time>2019-12-17T08:08:56.000Z</time>
      </trkpt>
      <trkpt lat="43.3511" lon="5.98365">
        <ele>432</ele>
        <time>2019-12-17T08:08:57.000Z</time>
      </trkpt>
      <trkpt lat="43.3511" lon="5.98366">
        <ele>433</ele>
        <time>2019-12-17T08:08:58.000Z</time>
      </trkpt>
      <trkpt lat="43.35111" lon="5.98367">
        <ele>433</ele>
        <time>2019-12-17T08:08:59.000Z</time>
      </trkpt>
      <trkpt lat="43.35111" lon="5.98368">
        <ele>433</ele>
        <time>2019-12-17T08:09:00.000Z</time>
      </trkpt>
      <trkpt lat="43.35111" lon="5.98369">
        <ele>433</ele>
        <time>2019-12-17T08:09:01.000Z</time>
      </trkpt>
      <trkpt lat="43.35111" lon="5.98369">
        <ele>433</ele>
        <time>2019-12-17T08:09:02.000Z</time>
      </trkpt>
      <trkpt lat="43.35112" lon="5.98371">
        <ele>433</ele>
        <time>2019-12-17T08:09:03.000Z</time>
      </trkpt>
      <trkpt lat="43.35112" lon="5.98371">
        <ele>433</ele>
        <time>2019-12-17T08:09:04.000Z</time>
      </trkpt>
      <trkpt lat="43.35112" lon="5.98372">
        <ele>433</ele>
        <time>2019-12-17T08:09:05.000Z</time>
      </trkpt>
      <trkpt lat="43.35112" lon="5.98374">
        <ele>434</ele>
        <time>2019-12-17T08:09:06.000Z</time>
      </trkpt>
      <trkpt lat="43.35112" lon="5.98375">
        <ele>434</ele>
        <time>2019-12-17T08:09:07.000Z</time>
      </trkpt>
      <trkpt lat="43.35113" lon="5.98376">
        <ele>434</ele>
        <time>2019-12-17T08:09:08.000Z</time>
      </trkpt>
      <trkpt lat="43.35113" lon="5.98377">
        <ele>434</ele>
        <time>2019-12-17T08:09:09.000Z</time>
      </trkpt>
      <trkpt lat="43.35113" lon="5.98379">
        <ele>434</ele>
        <time>2019-12-17T08:09:10.000Z</time>
      </trkpt>
      <trkpt lat="43.35113" lon="5.9838">
        <ele>434</ele>
        <time>2019-12-17T08:09:11.000Z</time>
      </trkpt>
      <trkpt lat="43.35113" lon="5.9838">
        <ele>434</ele>
        <time>2019-12-17T08:09:12.000Z</time>
      </trkpt>
      <trkpt lat="43.35114" lon="5.98381">
        <ele>434</ele>
        <time>2019-12-17T08:09:13.000Z</time>
      </trkpt>
      <trkpt lat="43.35114" lon="5.98382">
        <ele>434</ele>
        <time>2019-12-17T08:09:14.000Z</time>
      </trkpt>
      <trkpt lat="43.35114" lon="5.98382">
        <ele>435</ele>
        <time>2019-12-17T08:09:15.000Z</time>
      </trkpt>
      <trkpt lat="43.35115" lon="5.98384">
        <ele>435</ele>
        <time>2019-12-17T08:09:16.000Z</time>
      </trkpt>
      <trkpt lat="43.35115" lon="5.98385">
        <ele>435</ele>
        <time>2019-12-17T08:09:17.000Z</time>
      </trkpt>
      <trkpt lat="43.35115" lon="5.98386">
        <ele>435</ele>
        <time>2019-12-17T08:09:18.000Z</time>
      </trkpt>
      <trkpt lat="43.35115" lon="5.98387">
        <ele>435</ele>
        <time>2019-12-17T08:09:19.000Z</time>
      </trkpt>
      <trkpt lat="43.35115" lon="5.98388">
        <ele>435</ele>
        <time>2019-12-17T08:09:20.000Z</time>
      </trkpt>
      <trkpt lat="43.35115" lon="5.98388">
        <ele>435</ele>
        <time>2019-12-17T08:09:21.000Z</time>
      </trkpt>
      <trkpt lat="43.35116" lon="5.98389">
        <ele>435</ele>
        <time>2019-12-17T08:09:22.000Z</time>
      </trkpt>
      <trkpt lat="43.35116" lon="5.98391">
        <ele>435</ele>
        <time>2019-12-17T08:09:23.000Z</time>
      </trkpt>
      <trkpt lat="43.35116" lon="5.98392">
        <ele>434</ele>
        <time>2019-12-17T08:09:24.000Z</time>
      </trkpt>
      <trkpt lat="43.35116" lon="5.98392">
        <ele>434</ele>
        <time>2019-12-17T08:09:25.000Z</time>
      </trkpt>
      <trkpt lat="43.35117" lon="5.98393">
        <ele>434</ele>
        <time>2019-12-17T08:09:26.000Z</time>
      </trkpt>
      <trkpt lat="43.35117" lon="5.98394">
        <ele>434</ele>
        <time>2019-12-17T08:09:27.000Z</time>
      </trkpt>
      <trkpt lat="43.35118" lon="5.98394">
        <ele>434</ele>
        <time>2019-12-17T08:09:28.000Z</time>
      </trkpt>
      <trkpt lat="43.35118" lon="5.98395">
        <ele>435</ele>
        <time>2019-12-17T08:09:29.000Z</time>
      </trkpt>
      <trkpt lat="43.35119" lon="5.98395">
        <ele>435</ele>
        <time>2019-12-17T08:09:30.000Z</time>
      </trkpt>
      <trkpt lat="43.35119" lon="5.98396">
        <ele>435</ele>
        <time>2019-12-17T08:09:31.000Z</time>
      </trkpt>
      <trkpt lat="43.3512" lon="5.98396">
        <ele>435</ele>
        <time>2019-12-17T08:09:32.000Z</time>
      </trkpt>
      <trkpt lat="43.3512" lon="5.98397">
        <ele>435</ele>
        <time>2019-12-17T08:09:33.000Z</time>
      </trkpt>
      <trkpt lat="43.35121" lon="5.98397">
        <ele>435</ele>
        <time>2019-12-17T08:09:34.000Z</time>
      </trkpt>
      <trkpt lat="43.35121" lon="5.98398">
        <ele>435</ele>
        <time>2019-12-17T08:09:35.000Z</time>
      </trkpt>
      <trkpt lat="43.35122" lon="5.98399">
        <ele>436</ele>
        <time>2019-12-17T08:09:36.000Z</time>
      </trkpt>
      <trkpt lat="43.35122" lon="5.984">
        <ele>436</ele>
        <time>2019-12-17T08:09:37.000Z</time>
      </trkpt>
      <trkpt lat="43.35123" lon="5.984">
        <ele>436</ele>
        <time>2019-12-17T08:09:38.000Z</time>
      </trkpt>
      <trkpt lat="43.35123" lon="5.98401">
        <ele>436</ele>
        <time>2019-12-17T08:09:39.000Z</time>
      </trkpt>
      <trkpt lat="43.35123" lon="5.98402">
        <ele>436</ele>
        <time>2019-12-17T08:09:40.000Z</time>
      </trkpt>
      <trkpt lat="43.35124" lon="5.98403">
        <ele>436</ele>
        <time>2019-12-17T08:09:41.000Z</time>
      </trkpt>
      <trkpt lat="43.35125" lon="5.98403">
        <ele>436</ele>
        <time>2019-12-17T08:09:42.000Z</time>
      </trkpt>
      <trkpt lat="43.35125" lon="5.98404">
        <ele>437</ele>
        <time>2019-12-17T08:09:43.000Z</time>
      </trkpt>
      <trkpt lat="43.35126" lon="5.98405">
        <ele>437</ele>
        <time>2019-12-17T08:09:44.000Z</time>
      </trkpt>
      <trkpt lat="43.35126" lon="5.98406">
        <ele>437</ele>
        <time>2019-12-17T08:09:45.000Z</time>
      </trkpt>
      <trkpt lat="43.35127" lon="5.98406">
        <ele>437</ele>
        <time>2019-12-17T08:09:46.000Z</time>
      </trkpt>
      <trkpt lat="43.35127" lon="5.98407">
        <ele>437</ele>
        <time>2019-12-17T08:09:47.000Z</time>
      </trkpt>
      <trkpt lat="43.35128" lon="5.98408">
        <ele>438</ele>
        <time>2019-12-17T08:09:48.000Z</time>
      </trkpt>
      <trkpt lat="43.35129" lon="5.98408">
        <ele>438</ele>
        <time>2019-12-17T08:09:49.000Z</time>
      </trkpt>
      <trkpt lat="43.3513" lon="5.98409">
        <ele>438</ele>
        <time>2019-12-17T08:09:50.000Z</time>
      </trkpt>
      <trkpt lat="43.3513" lon="5.98409">
        <ele>438</ele>
        <time>2019-12-17T08:09:51.000Z</time>
      </trkpt>
      <trkpt lat="43.35131" lon="5.9841">
        <ele>438</ele>
        <time>2019-12-17T08:09:52.000Z</time>
      </trkpt>
      <trkpt lat="43.35131" lon="5.98411">
        <ele>438</ele>
        <time>2019-12-17T08:09:53.000Z</time>
      </trkpt>
      <trkpt lat="43.35132" lon="5.98411">
        <ele>438</ele>
        <time>2019-12-17T08:09:54.000Z</time>
      </trkpt>
      <trkpt lat="43.35132" lon="5.98412">
        <ele>438</ele>
        <time>2019-12-17T08:09:55.000Z</time>
      </trkpt>
      <trkpt lat="43.35132" lon="5.98412">
        <ele>438</ele>
        <time>2019-12-17T08:09:56.000Z</time>
      </trkpt>
      <trkpt lat="43.35133" lon="5.98413">
        <ele>438</ele>
        <time>2019-12-17T08:09:57.000Z</time>
      </trkpt>
      <trkpt lat="43.35134" lon="5.98414">
        <ele>439</ele>
        <time>2019-12-17T08:09:58.000Z</time>
      </trkpt>
      <trkpt lat="43.35134" lon="5.98414">
        <ele>439</ele>
        <time>2019-12-17T08:09:59.000Z</time>
      </trkpt>
      <trkpt lat="43.35135" lon="5.98415">
        <ele>439</ele>
        <time>2019-12-17T08:10:00.000Z</time>
      </trkpt>
      <trkpt lat="43.35135" lon="5.98416">
        <ele>439</ele>
        <time>2019-12-17T08:10:01.000Z</time>
      </trkpt>
      <trkpt lat="43.35136" lon="5.98416">
        <ele>439</ele>
        <time>2019-12-17T08:10:02.000Z</time>
      </trkpt>
      <trkpt lat="43.35137" lon="5.98417">
        <ele>439</ele>
        <time>2019-12-17T08:10:03.000Z</time>
      </trkpt>
      <trkpt lat="43.35137" lon="5.98418">
        <ele>439</ele>
        <time>2019-12-17T08:10:04.000Z</time>
      </trkpt>
      <trkpt lat="43.35137" lon="5.98418">
        <ele>440</ele>
        <time>2019-12-17T08:10:05.000Z</time>
      </trkpt>
      <trkpt lat="43.35138" lon="5.98419">
        <ele>440</ele>
        <time>2019-12-17T08:10:06.000Z</time>
      </trkpt>
      <trkpt lat="43.35138" lon="5.9842">
        <ele>440</ele>
        <time>2019-12-17T08:10:07.000Z</time>
      </trkpt>
      <trkpt lat="43.35139" lon="5.9842">
        <ele>440</ele>
        <time>2019-12-17T08:10:08.000Z</time>
      </trkpt>
      <trkpt lat="43.35139" lon="5.98421">
        <ele>440</ele>
        <time>2019-12-17T08:10:09.000Z</time>
      </trkpt>
      <trkpt lat="43.3514" lon="5.98421">
        <ele>441</ele>
        <time>2019-12-17T08:10:10.000Z</time>
      </trkpt>
      <trkpt lat="43.3514" lon="5.98422">
        <ele>441</ele>
        <time>2019-12-17T08:10:11.000Z</time>
      </trkpt>
      <trkpt lat="43.35141" lon="5.98422">
        <ele>441</ele>
        <time>2019-12-17T08:10:12.000Z</time>
      </trkpt>
      <trkpt lat="43.35141" lon="5.98422">
        <ele>441</ele>
        <time>2019-12-17T08:10:13.000Z</time>
      </trkpt>
      <trkpt lat="43.35142" lon="5.98423">
        <ele>441</ele>
        <time>2019-12-17T08:10:14.000Z</time>
      </trkpt>
      <trkpt lat="43.35142" lon="5.98423">
        <ele>441</ele>
        <time>2019-12-17T08:10:15.000Z</time>
      </trkpt>
      <trkpt lat="43.35143" lon="5.98424">
        <ele>442</ele>
        <time>2019-12-17T08:10:16.000Z</time>
      </trkpt>
      <trkpt lat="43.35143" lon="5.98424">
        <ele>442</ele>
        <time>2019-12-17T08:10:17.000Z</time>
      </trkpt>
      <trkpt lat="43.35143" lon="5.98425">
        <ele>442</ele>
        <time>2019-12-17T08:10:18.000Z</time>
      </trkpt>
      <trkpt lat="43.35144" lon="5.98426">
        <ele>442</ele>
        <time>2019-12-17T08:10:19.000Z</time>
      </trkpt>
      <trkpt lat="43.35144" lon="5.98427">
        <ele>442</ele>
        <time>2019-12-17T08:10:20.000Z</time>
      </trkpt>
      <trkpt lat="43.35144" lon="5.98427">
        <ele>442</ele>
        <time>2019-12-17T08:10:21.000Z</time>
      </trkpt>
      <trkpt lat="43.35145" lon="5.98427">
        <ele>442</ele>
        <time>2019-12-17T08:10:22.000Z</time>
      </trkpt>
      <trkpt lat="43.35146" lon="5.98428">
        <ele>443</ele>
        <time>2019-12-17T08:10:23.000Z</time>
      </trkpt>
      <trkpt lat="43.35146" lon="5.98428">
        <ele>443</ele>
        <time>2019-12-17T08:10:24.000Z</time>
      </trkpt>
      <trkpt lat="43.35146" lon="5.98429">
        <ele>443</ele>
        <time>2019-12-17T08:10:25.000Z</time>
      </trkpt>
      <trkpt lat="43.35147" lon="5.98429">
        <ele>443</ele>
        <time>2019-12-17T08:10:26.000Z</time>
      </trkpt>
      <trkpt lat="43.35148" lon="5.98429">
        <ele>443</ele>
        <time>2019-12-17T08:10:27.000Z</time>
      </trkpt>
      <trkpt lat="43.35149" lon="5.9843">
        <ele>443</ele>
        <time>2019-12-17T08:10:28.000Z</time>
      </trkpt>
      <trkpt lat="43.35149" lon="5.98431">
        <ele>444</ele>
        <time>2019-12-17T08:10:29.000Z</time>
      </trkpt>
      <trkpt lat="43.3515" lon="5.98431">
        <ele>444</ele>
        <time>2019-12-17T08:10:30.000Z</time>
      </trkpt>
      <trkpt lat="43.3515" lon="5.98432">
        <ele>444</ele>
        <time>2019-12-17T08:10:31.000Z</time>
      </trkpt>
      <trkpt lat="43.35151" lon="5.98433">
        <ele>444</ele>
        <time>2019-12-17T08:10:32.000Z</time>
      </trkpt>
      <trkpt lat="43.35151" lon="5.98434">
        <ele>444</ele>
        <time>2019-12-17T08:10:33.000Z</time>
      </trkpt>
      <trkpt lat="43.35152" lon="5.98434">
        <ele>444</ele>
        <time>2019-12-17T08:10:34.000Z</time>
      </trkpt>
      <trkpt lat="43.35152" lon="5.98435">
        <ele>445</ele>
        <time>2019-12-17T08:10:35.000Z</time>
      </trkpt>
      <trkpt lat="43.35152" lon="5.98436">
        <ele>445</ele>
        <time>2019-12-17T08:10:36.000Z</time>
      </trkpt>
      <trkpt lat="43.35152" lon="5.98437">
        <ele>445</ele>
        <time>2019-12-17T08:10:37.000Z</time>
      </trkpt>
      <trkpt lat="43.35152" lon="5.98438">
        <ele>445</ele>
        <time>2019-12-17T08:10:38.000Z</time>
      </trkpt>
      <trkpt lat="43.35152" lon="5.98439">
        <ele>445</ele>
        <time>2019-12-17T08:10:39.000Z</time>
      </trkpt>
      <trkpt lat="43.35152" lon="5.9844">
        <ele>445</ele>
        <time>2019-12-17T08:10:40.000Z</time>
      </trkpt>
      <trkpt lat="43.35152" lon="5.98441">
        <ele>445</ele>
        <time>2019-12-17T08:10:41.000Z</time>
      </trkpt>
      <trkpt lat="43.35152" lon="5.98442">
        <ele>446</ele>
        <time>2019-12-17T08:10:42.000Z</time>
      </trkpt>
      <trkpt lat="43.35152" lon="5.98443">
        <ele>446</ele>
        <time>2019-12-17T08:10:43.000Z</time>
      </trkpt>
      <trkpt lat="43.35151" lon="5.98444">
        <ele>446</ele>
        <time>2019-12-17T08:10:44.000Z</time>
      </trkpt>
      <trkpt lat="43.35151" lon="5.98445">
        <ele>446</ele>
        <time>2019-12-17T08:10:45.000Z</time>
      </trkpt>
      <trkpt lat="43.35151" lon="5.98445">
        <ele>446</ele>
        <time>2019-12-17T08:10:46.000Z</time>
      </trkpt>
      <trkpt lat="43.35151" lon="5.98446">
        <ele>447</ele>
        <time>2019-12-17T08:10:47.000Z</time>
      </trkpt>
      <trkpt lat="43.35151" lon="5.98447">
        <ele>447</ele>
        <time>2019-12-17T08:10:48.000Z</time>
      </trkpt>
      <trkpt lat="43.35151" lon="5.98448">
        <ele>447</ele>
        <time>2019-12-17T08:10:49.000Z</time>
      </trkpt>
      <trkpt lat="43.35151" lon="5.98449">
        <ele>447</ele>
        <time>2019-12-17T08:10:50.000Z</time>
      </trkpt>
      <trkpt lat="43.35151" lon="5.9845">
        <ele>447</ele>
        <time>2019-12-17T08:10:51.000Z</time>
      </trkpt>
      <trkpt lat="43.35151" lon="5.98451">
        <ele>447</ele>
        <time>2019-12-17T08:10:52.000Z</time>
      </trkpt>
      <trkpt lat="43.35151" lon="5.98452">
        <ele>447</ele>
        <time>2019-12-17T08:10:53.000Z</time>
      </trkpt>
      <trkpt lat="43.35151" lon="5.98453">
        <ele>447</ele>
        <time>2019-12-17T08:10:54.000Z</time>
      </trkpt>
      <trkpt lat="43.35151" lon="5.98453">
        <ele>447</ele>
        <time>2019-12-17T08:10:55.000Z</time>
      </trkpt>
      <trkpt lat="43.35151" lon="5.98454">
        <ele>447</ele>
        <time>2019-12-17T08:10:56.000Z</time>
      </trkpt>
      <trkpt lat="43.35151" lon="5.98455">
        <ele>448</ele>
        <time>2019-12-17T08:10:57.000Z</time>
      </trkpt>
      <trkpt lat="43.35151" lon="5.98456">
        <ele>448</ele>
        <time>2019-12-17T08:10:58.000Z</time>
      </trkpt>
      <trkpt lat="43.35151" lon="5.98457">
        <ele>448</ele>
        <time>2019-12-17T08:10:59.000Z</time>
      </trkpt>
      <trkpt lat="43.35151" lon="5.98458">
        <ele>448</ele>
        <time>2019-12-17T08:11:00.000Z</time>
      </trkpt>
      <trkpt lat="43.35152" lon="5.98459">
        <ele>448</ele>
        <time>2019-12-17T08:11:01.000Z</time>
      </trkpt>
      <trkpt lat="43.35152" lon="5.9846">
        <ele>448</ele>
        <time>2019-12-17T08:11:02.000Z</time>
      </trkpt>
      <trkpt lat="43.35152" lon="5.98461">
        <ele>448</ele>
        <time>2019-12-17T08:11:03.000Z</time>
      </trkpt>
      <trkpt lat="43.35152" lon="5.98462">
        <ele>448</ele>
        <time>2019-12-17T08:11:04.000Z</time>
      </trkpt>
      <trkpt lat="43.35152" lon="5.98463">
        <ele>448</ele>
        <time>2019-12-17T08:11:05.000Z</time>
      </trkpt>
      <trkpt lat="43.35153" lon="5.98464">
        <ele>448</ele>
        <time>2019-12-17T08:11:06.000Z</time>
      </trkpt>
      <trkpt lat="43.35153" lon="5.98465">
        <ele>448</ele>
        <time>2019-12-17T08:11:07.000Z</time>
      </trkpt>
      <trkpt lat="43.35153" lon="5.98466">
        <ele>449</ele>
        <time>2019-12-17T08:11:08.000Z</time>
      </trkpt>
      <trkpt lat="43.35153" lon="5.98467">
        <ele>449</ele>
        <time>2019-12-17T08:11:09.000Z</time>
      </trkpt>
      <trkpt lat="43.35153" lon="5.98467">
        <ele>449</ele>
        <time>2019-12-17T08:11:10.000Z</time>
      </trkpt>
      <trkpt lat="43.35154" lon="5.98469">
        <ele>449</ele>
        <time>2019-12-17T08:11:11.000Z</time>
      </trkpt>
      <trkpt lat="43.35154" lon="5.9847">
        <ele>449</ele>
        <time>2019-12-17T08:11:12.000Z</time>
      </trkpt>
      <trkpt lat="43.35154" lon="5.98471">
        <ele>449</ele>
        <time>2019-12-17T08:11:13.000Z</time>
      </trkpt>
      <trkpt lat="43.35154" lon="5.98471">
        <ele>449</ele>
        <time>2019-12-17T08:11:14.000Z</time>
      </trkpt>
      <trkpt lat="43.35154" lon="5.98472">
        <ele>449</ele>
        <time>2019-12-17T08:11:15.000Z</time>
      </trkpt>
      <trkpt lat="43.35155" lon="5.98473">
        <ele>449</ele>
        <time>2019-12-17T08:11:16.000Z</time>
      </trkpt>
      <trkpt lat="43.35155" lon="5.98474">
        <ele>449</ele>
        <time>2019-12-17T08:11:17.000Z</time>
      </trkpt>
      <trkpt lat="43.35155" lon="5.98475">
        <ele>449</ele>
        <time>2019-12-17T08:11:18.000Z</time>
      </trkpt>
      <trkpt lat="43.35155" lon="5.98476">
        <ele>449</ele>
        <time>2019-12-17T08:11:19.000Z</time>
      </trkpt>
      <trkpt lat="43.35155" lon="5.98477">
        <ele>449</ele>
        <time>2019-12-17T08:11:20.000Z</time>
      </trkpt>
      <trkpt lat="43.35155" lon="5.98478">
        <ele>450</ele>
        <time>2019-12-17T08:11:21.000Z</time>
      </trkpt>
      <trkpt lat="43.35156" lon="5.98478">
        <ele>450</ele>
        <time>2019-12-17T08:11:22.000Z</time>
      </trkpt>
      <trkpt lat="43.35156" lon="5.98479">
        <ele>450</ele>
        <time>2019-12-17T08:11:23.000Z</time>
      </trkpt>
      <trkpt lat="43.35156" lon="5.9848">
        <ele>450</ele>
        <time>2019-12-17T08:11:24.000Z</time>
      </trkpt>
      <trkpt lat="43.35157" lon="5.98481">
        <ele>450</ele>
        <time>2019-12-17T08:11:25.000Z</time>
      </trkpt>
      <trkpt lat="43.35157" lon="5.98482">
        <ele>451</ele>
        <time>2019-12-17T08:11:26.000Z</time>
      </trkpt>
      <trkpt lat="43.35157" lon="5.98483">
        <ele>451</ele>
        <time>2019-12-17T08:11:27.000Z</time>
      </trkpt>
      <trkpt lat="43.35157" lon="5.98484">
        <ele>451</ele>
        <time>2019-12-17T08:11:28.000Z</time>
      </trkpt>
      <trkpt lat="43.35158" lon="5.98484">
        <ele>451</ele>
        <time>2019-12-17T08:11:29.000Z</time>
      </trkpt>
      <trkpt lat="43.35158" lon="5.98485">
        <ele>451</ele>
        <time>2019-12-17T08:11:30.000Z</time>
      </trkpt>
      <trkpt lat="43.35159" lon="5.98485">
        <ele>451</ele>
        <time>2019-12-17T08:11:31.000Z</time>
      </trkpt>
      <trkpt lat="43.35159" lon="5.98486">
        <ele>452</ele>
        <time>2019-12-17T08:11:32.000Z</time>
      </trkpt>
      <trkpt lat="43.3516" lon="5.98486">
        <ele>452</ele>
        <time>2019-12-17T08:11:33.000Z</time>
      </trkpt>
      <trkpt lat="43.3516" lon="5.98487">
        <ele>452</ele>
        <time>2019-12-17T08:11:34.000Z</time>
      </trkpt>
      <trkpt lat="43.35161" lon="5.98487">
        <ele>452</ele>
        <time>2019-12-17T08:11:35.000Z</time>
      </trkpt>
      <trkpt lat="43.35161" lon="5.98487">
        <ele>452</ele>
        <time>2019-12-17T08:11:36.000Z</time>
      </trkpt>
      <trkpt lat="43.35162" lon="5.98487">
        <ele>452</ele>
        <time>2019-12-17T08:11:37.000Z</time>
      </trkpt>
      <trkpt lat="43.35163" lon="5.98487">
        <ele>453</ele>
        <time>2019-12-17T08:11:38.000Z</time>
      </trkpt>
      <trkpt lat="43.35163" lon="5.98487">
        <ele>453</ele>
        <time>2019-12-17T08:11:39.000Z</time>
      </trkpt>
      <trkpt lat="43.35164" lon="5.98488">
        <ele>453</ele>
        <time>2019-12-17T08:11:40.000Z</time>
      </trkpt>
      <trkpt lat="43.35165" lon="5.98488">
        <ele>453</ele>
        <time>2019-12-17T08:11:41.000Z</time>
      </trkpt>
      <trkpt lat="43.35165" lon="5.98488">
        <ele>453</ele>
        <time>2019-12-17T08:11:42.000Z</time>
      </trkpt>
      <trkpt lat="43.35166" lon="5.98488">
        <ele>453</ele>
        <time>2019-12-17T08:11:43.000Z</time>
      </trkpt>
      <trkpt lat="43.35167" lon="5.98488">
        <ele>453</ele>
        <time>2019-12-17T08:11:44.000Z</time>
      </trkpt>
      <trkpt lat="43.35167" lon="5.98488">
        <ele>453</ele>
        <time>2019-12-17T08:11:45.000Z</time>
      </trkpt>
      <trkpt lat="43.35168" lon="5.98487">
        <ele>453</ele>
        <time>2019-12-17T08:11:46.000Z</time>
      </trkpt>
      <trkpt lat="43.35168" lon="5.98487">
        <ele>453</ele>
        <time>2019-12-17T08:11:47.000Z</time>
      </trkpt>
      <trkpt lat="43.35169" lon="5.98487">
        <ele>453</ele>
        <time>2019-12-17T08:11:48.000Z</time>
      </trkpt>
      <trkpt lat="43.3517" lon="5.98487">
        <ele>453</ele>
        <time>2019-12-17T08:11:49.000Z</time>
      </trkpt>
      <trkpt lat="43.3517" lon="5.98487">
        <ele>454</ele>
        <time>2019-12-17T08:11:50.000Z</time>
      </trkpt>
      <trkpt lat="43.35171" lon="5.98487">
        <ele>454</ele>
        <time>2019-12-17T08:11:51.000Z</time>
      </trkpt>
      <trkpt lat="43.35172" lon="5.98486">
        <ele>454</ele>
        <time>2019-12-17T08:11:52.000Z</time>
      </trkpt>
      <trkpt lat="43.35172" lon="5.98486">
        <ele>454</ele>
        <time>2019-12-17T08:11:53.000Z</time>
      </trkpt>
      <trkpt lat="43.35173" lon="5.98487">
        <ele>454</ele>
        <time>2019-12-17T08:11:54.000Z</time>
      </trkpt>
      <trkpt lat="43.35173" lon="5.98487">
        <ele>454</ele>
        <time>2019-12-17T08:11:55.000Z</time>
      </trkpt>
      <trkpt lat="43.35174" lon="5.98486">
        <ele>454</ele>
        <time>2019-12-17T08:11:56.000Z</time>
      </trkpt>
      <trkpt lat="43.35175" lon="5.98486">
        <ele>454</ele>
        <time>2019-12-17T08:11:57.000Z</time>
      </trkpt>
      <trkpt lat="43.35175" lon="5.98486">
        <ele>454</ele>
        <time>2019-12-17T08:11:58.000Z</time>
      </trkpt>
      <trkpt lat="43.35177" lon="5.98487">
        <ele>454</ele>
        <time>2019-12-17T08:11:59.000Z</time>
      </trkpt>
      <trkpt lat="43.35177" lon="5.98486">
        <ele>454</ele>
        <time>2019-12-17T08:12:00.000Z</time>
      </trkpt>
      <trkpt lat="43.35178" lon="5.98486">
        <ele>455</ele>
        <time>2019-12-17T08:12:01.000Z</time>
      </trkpt>
      <trkpt lat="43.35179" lon="5.98487">
        <ele>455</ele>
        <time>2019-12-17T08:12:02.000Z</time>
      </trkpt>
      <trkpt lat="43.35179" lon="5.98487">
        <ele>455</ele>
        <time>2019-12-17T08:12:03.000Z</time>
      </trkpt>
      <trkpt lat="43.3518" lon="5.98487">
        <ele>455</ele>
        <time>2019-12-17T08:12:04.000Z</time>
      </trkpt>
      <trkpt lat="43.3518" lon="5.98487">
        <ele>455</ele>
        <time>2019-12-17T08:12:05.000Z</time>
      </trkpt>
      <trkpt lat="43.35181" lon="5.98487">
        <ele>456</ele>
        <time>2019-12-17T08:12:06.000Z</time>
      </trkpt>
      <trkpt lat="43.35182" lon="5.98487">
        <ele>456</ele>
        <time>2019-12-17T08:12:07.000Z</time>
      </trkpt>
      <trkpt lat="43.35182" lon="5.98487">
        <ele>456</ele>
        <time>2019-12-17T08:12:08.000Z</time>
      </trkpt>
      <trkpt lat="43.35183" lon="5.98487">
        <ele>456</ele>
        <time>2019-12-17T08:12:09.000Z</time>
      </trkpt>
      <trkpt lat="43.35183" lon="5.98487">
        <ele>456</ele>
        <time>2019-12-17T08:12:10.000Z</time>
      </trkpt>
      <trkpt lat="43.35184" lon="5.98487">
        <ele>456</ele>
        <time>2019-12-17T08:12:11.000Z</time>
      </trkpt>
      <trkpt lat="43.35184" lon="5.98488">
        <ele>456</ele>
        <time>2019-12-17T08:12:12.000Z</time>
      </trkpt>
      <trkpt lat="43.35185" lon="5.98488">
        <ele>456</ele>
        <time>2019-12-17T08:12:13.000Z</time>
      </trkpt>
      <trkpt lat="43.35186" lon="5.98488">
        <ele>456</ele>
        <time>2019-12-17T08:12:14.000Z</time>
      </trkpt>
      <trkpt lat="43.35186" lon="5.98489">
        <ele>456</ele>
        <time>2019-12-17T08:12:15.000Z</time>
      </trkpt>
      <trkpt lat="43.35187" lon="5.98489">
        <ele>457</ele>
        <time>2019-12-17T08:12:16.000Z</time>
      </trkpt>
      <trkpt lat="43.35187" lon="5.98489">
        <ele>457</ele>
        <time>2019-12-17T08:12:17.000Z</time>
      </trkpt>
      <trkpt lat="43.35188" lon="5.9849">
        <ele>457</ele>
        <time>2019-12-17T08:12:18.000Z</time>
      </trkpt>
      <trkpt lat="43.35188" lon="5.9849">
        <ele>457</ele>
        <time>2019-12-17T08:12:19.000Z</time>
      </trkpt>
      <trkpt lat="43.35189" lon="5.98491">
        <ele>457</ele>
        <time>2019-12-17T08:12:20.000Z</time>
      </trkpt>
      <trkpt lat="43.35189" lon="5.98491">
        <ele>457</ele>
        <time>2019-12-17T08:12:21.000Z</time>
      </trkpt>
      <trkpt lat="43.3519" lon="5.98492">
        <ele>457</ele>
        <time>2019-12-17T08:12:22.000Z</time>
      </trkpt>
      <trkpt lat="43.3519" lon="5.98492">
        <ele>457</ele>
        <time>2019-12-17T08:12:23.000Z</time>
      </trkpt>
      <trkpt lat="43.3519" lon="5.98493">
        <ele>457</ele>
        <time>2019-12-17T08:12:24.000Z</time>
      </trkpt>
      <trkpt lat="43.35191" lon="5.98493">
        <ele>457</ele>
        <time>2019-12-17T08:12:25.000Z</time>
      </trkpt>
      <trkpt lat="43.35191" lon="5.98494">
        <ele>457</ele>
        <time>2019-12-17T08:12:26.000Z</time>
      </trkpt>
      <trkpt lat="43.35192" lon="5.98495">
        <ele>458</ele>
        <time>2019-12-17T08:12:27.000Z</time>
      </trkpt>
      <trkpt lat="43.35192" lon="5.98496">
        <ele>458</ele>
        <time>2019-12-17T08:12:28.000Z</time>
      </trkpt>
      <trkpt lat="43.35193" lon="5.98496">
        <ele>458</ele>
        <time>2019-12-17T08:12:29.000Z</time>
      </trkpt>
      <trkpt lat="43.35193" lon="5.98497">
        <ele>458</ele>
        <time>2019-12-17T08:12:30.000Z</time>
      </trkpt>
      <trkpt lat="43.35193" lon="5.98498">
        <ele>458</ele>
        <time>2019-12-17T08:12:31.000Z</time>
      </trkpt>
      <trkpt lat="43.35194" lon="5.98499">
        <ele>459</ele>
        <time>2019-12-17T08:12:32.000Z</time>
      </trkpt>
      <trkpt lat="43.35194" lon="5.985">
        <ele>459</ele>
        <time>2019-12-17T08:12:33.000Z</time>
      </trkpt>
      <trkpt lat="43.35194" lon="5.985">
        <ele>459</ele>
        <time>2019-12-17T08:12:34.000Z</time>
      </trkpt>
      <trkpt lat="43.35194" lon="5.98501">
        <ele>459</ele>
        <time>2019-12-17T08:12:35.000Z</time>
      </trkpt>
      <trkpt lat="43.35194" lon="5.98502">
        <ele>459</ele>
        <time>2019-12-17T08:12:36.000Z</time>
      </trkpt>
      <trkpt lat="43.35194" lon="5.98502">
        <ele>459</ele>
        <time>2019-12-17T08:12:37.000Z</time>
      </trkpt>
      <trkpt lat="43.35194" lon="5.98503">
        <ele>459</ele>
        <time>2019-12-17T08:12:38.000Z</time>
      </trkpt>
      <trkpt lat="43.35194" lon="5.98504">
        <ele>459</ele>
        <time>2019-12-17T08:12:39.000Z</time>
      </trkpt>
      <trkpt lat="43.35194" lon="5.98504">
        <ele>459</ele>
        <time>2019-12-17T08:12:40.000Z</time>
      </trkpt>
      <trkpt lat="43.35194" lon="5.98505">
        <ele>459</ele>
        <time>2019-12-17T08:12:41.000Z</time>
      </trkpt>
      <trkpt lat="43.35194" lon="5.98505">
        <ele>459</ele>
        <time>2019-12-17T08:12:42.000Z</time>
      </trkpt>
      <trkpt lat="43.35194" lon="5.98506">
        <ele>459</ele>
        <time>2019-12-17T08:12:43.000Z</time>
      </trkpt>
      <trkpt lat="43.35194" lon="5.98507">
        <ele>459</ele>
        <time>2019-12-17T08:12:44.000Z</time>
      </trkpt>
      <trkpt lat="43.35194" lon="5.98507">
        <ele>459</ele>
        <time>2019-12-17T08:12:45.000Z</time>
      </trkpt>
      <trkpt lat="43.35195" lon="5.98509">
        <ele>459</ele>
        <time>2019-12-17T08:12:46.000Z</time>
      </trkpt>
      <trkpt lat="43.35195" lon="5.98509">
        <ele>459</ele>
        <time>2019-12-17T08:12:47.000Z</time>
      </trkpt>
      <trkpt lat="43.35195" lon="5.9851">
        <ele>459</ele>
        <time>2019-12-17T08:12:48.000Z</time>
      </trkpt>
      <trkpt lat="43.35195" lon="5.98511">
        <ele>459</ele>
        <time>2019-12-17T08:12:49.000Z</time>
      </trkpt>
      <trkpt lat="43.35195" lon="5.98512">
        <ele>459</ele>
        <time>2019-12-17T08:12:50.000Z</time>
      </trkpt>
      <trkpt lat="43.35195" lon="5.98513">
        <ele>459</ele>
        <time>2019-12-17T08:12:51.000Z</time>
      </trkpt>
      <trkpt lat="43.35195" lon="5.98513">
        <ele>460</ele>
        <time>2019-12-17T08:12:52.000Z</time>
      </trkpt>
      <trkpt lat="43.35195" lon="5.98514">
        <ele>460</ele>
        <time>2019-12-17T08:12:53.000Z</time>
      </trkpt>
      <trkpt lat="43.35194" lon="5.98515">
        <ele>460</ele>
        <time>2019-12-17T08:12:54.000Z</time>
      </trkpt>
      <trkpt lat="43.35194" lon="5.98516">
        <ele>460</ele>
        <time>2019-12-17T08:12:55.000Z</time>
      </trkpt>
      <trkpt lat="43.35194" lon="5.98517">
        <ele>460</ele>
        <time>2019-12-17T08:12:56.000Z</time>
      </trkpt>
      <trkpt lat="43.35194" lon="5.98518">
        <ele>460</ele>
        <time>2019-12-17T08:12:57.000Z</time>
      </trkpt>
      <trkpt lat="43.35194" lon="5.98519">
        <ele>460</ele>
        <time>2019-12-17T08:12:58.000Z</time>
      </trkpt>
      <trkpt lat="43.35194" lon="5.9852">
        <ele>461</ele>
        <time>2019-12-17T08:12:59.000Z</time>
      </trkpt>
      <trkpt lat="43.35194" lon="5.9852">
        <ele>461</ele>
        <time>2019-12-17T08:13:00.000Z</time>
      </trkpt>
      <trkpt lat="43.35194" lon="5.98521">
        <ele>461</ele>
        <time>2019-12-17T08:13:01.000Z</time>
      </trkpt>
      <trkpt lat="43.35194" lon="5.98522">
        <ele>461</ele>
        <time>2019-12-17T08:13:02.000Z</time>
      </trkpt>
      <trkpt lat="43.35194" lon="5.98523">
        <ele>461</ele>
        <time>2019-12-17T08:13:03.000Z</time>
      </trkpt>
      <trkpt lat="43.35194" lon="5.98524">
        <ele>462</ele>
        <time>2019-12-17T08:13:04.000Z</time>
      </trkpt>
      <trkpt lat="43.35193" lon="5.98524">
        <ele>462</ele>
        <time>2019-12-17T08:13:05.000Z</time>
      </trkpt>
      <trkpt lat="43.35193" lon="5.98525">
        <ele>462</ele>
        <time>2019-12-17T08:13:06.000Z</time>
      </trkpt>
      <trkpt lat="43.35193" lon="5.98526">
        <ele>462</ele>
        <time>2019-12-17T08:13:07.000Z</time>
      </trkpt>
      <trkpt lat="43.35194" lon="5.98527">
        <ele>463</ele>
        <time>2019-12-17T08:13:08.000Z</time>
      </trkpt>
      <trkpt lat="43.35194" lon="5.98527">
        <ele>463</ele>
        <time>2019-12-17T08:13:09.000Z</time>
      </trkpt>
      <trkpt lat="43.35194" lon="5.98528">
        <ele>463</ele>
        <time>2019-12-17T08:13:10.000Z</time>
      </trkpt>
      <trkpt lat="43.35194" lon="5.9853">
        <ele>463</ele>
        <time>2019-12-17T08:13:11.000Z</time>
      </trkpt>
      <trkpt lat="43.35194" lon="5.98531">
        <ele>464</ele>
        <time>2019-12-17T08:13:12.000Z</time>
      </trkpt>
      <trkpt lat="43.35194" lon="5.98532">
        <ele>464</ele>
        <time>2019-12-17T08:13:13.000Z</time>
      </trkpt>
      <trkpt lat="43.35194" lon="5.98533">
        <ele>464</ele>
        <time>2019-12-17T08:13:14.000Z</time>
      </trkpt>
      <trkpt lat="43.35194" lon="5.98534">
        <ele>464</ele>
        <time>2019-12-17T08:13:15.000Z</time>
      </trkpt>
      <trkpt lat="43.35194" lon="5.98534">
        <ele>464</ele>
        <time>2019-12-17T08:13:16.000Z</time>
      </trkpt>
      <trkpt lat="43.35194" lon="5.98535">
        <ele>464</ele>
        <time>2019-12-17T08:13:17.000Z</time>
      </trkpt>
      <trkpt lat="43.35194" lon="5.98536">
        <ele>465</ele>
        <time>2019-12-17T08:13:18.000Z</time>
      </trkpt>
      <trkpt lat="43.35194" lon="5.98536">
        <ele>465</ele>
        <time>2019-12-17T08:13:19.000Z</time>
      </trkpt>
      <trkpt lat="43.35195" lon="5.98537">
        <ele>465</ele>
        <time>2019-12-17T08:13:20.000Z</time>
      </trkpt>
      <trkpt lat="43.35195" lon="5.98538">
        <ele>465</ele>
        <time>2019-12-17T08:13:21.000Z</time>
      </trkpt>
      <trkpt lat="43.35195" lon="5.98539">
        <ele>465</ele>
        <time>2019-12-17T08:13:22.000Z</time>
      </trkpt>
      <trkpt lat="43.35195" lon="5.9854">
        <ele>466</ele>
        <time>2019-12-17T08:13:23.000Z</time>
      </trkpt>
      <trkpt lat="43.35196" lon="5.9854">
        <ele>466</ele>
        <time>2019-12-17T08:13:24.000Z</time>
      </trkpt>
      <trkpt lat="43.35196" lon="5.98541">
        <ele>466</ele>
        <time>2019-12-17T08:13:25.000Z</time>
      </trkpt>
      <trkpt lat="43.35196" lon="5.98542">
        <ele>466</ele>
        <time>2019-12-17T08:13:26.000Z</time>
      </trkpt>
      <trkpt lat="43.35196" lon="5.98543">
        <ele>466</ele>
        <time>2019-12-17T08:13:27.000Z</time>
      </trkpt>
      <trkpt lat="43.35196" lon="5.98543">
        <ele>467</ele>
        <time>2019-12-17T08:13:28.000Z</time>
      </trkpt>
      <trkpt lat="43.35197" lon="5.98544">
        <ele>467</ele>
        <time>2019-12-17T08:13:29.000Z</time>
      </trkpt>
      <trkpt lat="43.35197" lon="5.98544">
        <ele>467</ele>
        <time>2019-12-17T08:13:30.000Z</time>
      </trkpt>
      <trkpt lat="43.35198" lon="5.98545">
        <ele>467</ele>
        <time>2019-12-17T08:13:31.000Z</time>
      </trkpt>
      <trkpt lat="43.35198" lon="5.98545">
        <ele>467</ele>
        <time>2019-12-17T08:13:32.000Z</time>
      </trkpt>
      <trkpt lat="43.35198" lon="5.98545">
        <ele>467</ele>
        <time>2019-12-17T08:13:33.000Z</time>
      </trkpt>
      <trkpt lat="43.35199" lon="5.98546">
        <ele>467</ele>
        <time>2019-12-17T08:13:34.000Z</time>
      </trkpt>
      <trkpt lat="43.35199" lon="5.98546">
        <ele>468</ele>
        <time>2019-12-17T08:13:35.000Z</time>
      </trkpt>
      <trkpt lat="43.35199" lon="5.98547">
        <ele>468</ele>
        <time>2019-12-17T08:13:36.000Z</time>
      </trkpt>
      <trkpt lat="43.352" lon="5.98547">
        <ele>468</ele>
        <time>2019-12-17T08:13:37.000Z</time>
      </trkpt>
      <trkpt lat="43.352" lon="5.98547">
        <ele>468</ele>
        <time>2019-12-17T08:13:38.000Z</time>
      </trkpt>
      <trkpt lat="43.35201" lon="5.98547">
        <ele>468</ele>
        <time>2019-12-17T08:13:39.000Z</time>
      </trkpt>
      <trkpt lat="43.35201" lon="5.98548">
        <ele>468</ele>
        <time>2019-12-17T08:13:40.000Z</time>
      </trkpt>
      <trkpt lat="43.35201" lon="5.98548">
        <ele>468</ele>
        <time>2019-12-17T08:13:41.000Z</time>
      </trkpt>
      <trkpt lat="43.35202" lon="5.98548">
        <ele>468</ele>
        <time>2019-12-17T08:13:42.000Z</time>
      </trkpt>
      <trkpt lat="43.35202" lon="5.98549">
        <ele>468</ele>
        <time>2019-12-17T08:13:43.000Z</time>
      </trkpt>
      <trkpt lat="43.35203" lon="5.98549">
        <ele>468</ele>
        <time>2019-12-17T08:13:44.000Z</time>
      </trkpt>
      <trkpt lat="43.35203" lon="5.98549">
        <ele>468</ele>
        <time>2019-12-17T08:13:45.000Z</time>
      </trkpt>
      <trkpt lat="43.35204" lon="5.9855">
        <ele>468</ele>
        <time>2019-12-17T08:13:46.000Z</time>
      </trkpt>
      <trkpt lat="43.35204" lon="5.9855">
        <ele>468</ele>
        <time>2019-12-17T08:13:47.000Z</time>
      </trkpt>
      <trkpt lat="43.35205" lon="5.9855">
        <ele>468</ele>
        <time>2019-12-17T08:13:48.000Z</time>
      </trkpt>
      <trkpt lat="43.35206" lon="5.9855">
        <ele>468</ele>
        <time>2019-12-17T08:13:49.000Z</time>
      </trkpt>
      <trkpt lat="43.35206" lon="5.98551">
        <ele>468</ele>
        <time>2019-12-17T08:13:50.000Z</time>
      </trkpt>
      <trkpt lat="43.35207" lon="5.98551">
        <ele>468</ele>
        <time>2019-12-17T08:13:51.000Z</time>
      </trkpt>
      <trkpt lat="43.35207" lon="5.98552">
        <ele>468</ele>
        <time>2019-12-17T08:13:52.000Z</time>
      </trkpt>
      <trkpt lat="43.35208" lon="5.98553">
        <ele>468</ele>
        <time>2019-12-17T08:13:53.000Z</time>
      </trkpt>
      <trkpt lat="43.35208" lon="5.98553">
        <ele>468</ele>
        <time>2019-12-17T08:13:54.000Z</time>
      </trkpt>
      <trkpt lat="43.35209" lon="5.98553">
        <ele>468</ele>
        <time>2019-12-17T08:13:55.000Z</time>
      </trkpt>
      <trkpt lat="43.35209" lon="5.98553">
        <ele>468</ele>
        <time>2019-12-17T08:13:56.000Z</time>
      </trkpt>
      <trkpt lat="43.3521" lon="5.98554">
        <ele>468</ele>
        <time>2019-12-17T08:13:57.000Z</time>
      </trkpt>
      <trkpt lat="43.3521" lon="5.98554">
        <ele>468</ele>
        <time>2019-12-17T08:13:58.000Z</time>
      </trkpt>
      <trkpt lat="43.35211" lon="5.98555">
        <ele>469</ele>
        <time>2019-12-17T08:13:59.000Z</time>
      </trkpt>
      <trkpt lat="43.35211" lon="5.98555">
        <ele>469</ele>
        <time>2019-12-17T08:14:00.000Z</time>
      </trkpt>
      <trkpt lat="43.35212" lon="5.98556">
        <ele>469</ele>
        <time>2019-12-17T08:14:01.000Z</time>
      </trkpt>
      <trkpt lat="43.35212" lon="5.98556">
        <ele>469</ele>
        <time>2019-12-17T08:14:02.000Z</time>
      </trkpt>
      <trkpt lat="43.35212" lon="5.98557">
        <ele>469</ele>
        <time>2019-12-17T08:14:03.000Z</time>
      </trkpt>
      <trkpt lat="43.35213" lon="5.98557">
        <ele>469</ele>
        <time>2019-12-17T08:14:04.000Z</time>
      </trkpt>
      <trkpt lat="43.35213" lon="5.98557">
        <ele>469</ele>
        <time>2019-12-17T08:14:05.000Z</time>
      </trkpt>
      <trkpt lat="43.35214" lon="5.98558">
        <ele>469</ele>
        <time>2019-12-17T08:14:06.000Z</time>
      </trkpt>
      <trkpt lat="43.35214" lon="5.98559">
        <ele>469</ele>
        <time>2019-12-17T08:14:07.000Z</time>
      </trkpt>
      <trkpt lat="43.35215" lon="5.98559">
        <ele>469</ele>
        <time>2019-12-17T08:14:08.000Z</time>
      </trkpt>
      <trkpt lat="43.35215" lon="5.98559">
        <ele>469</ele>
        <time>2019-12-17T08:14:09.000Z</time>
      </trkpt>
      <trkpt lat="43.35216" lon="5.9856">
        <ele>469</ele>
        <time>2019-12-17T08:14:10.000Z</time>
      </trkpt>
      <trkpt lat="43.35216" lon="5.98561">
        <ele>470</ele>
        <time>2019-12-17T08:14:11.000Z</time>
      </trkpt>
      <trkpt lat="43.35217" lon="5.98562">
        <ele>470</ele>
        <time>2019-12-17T08:14:12.000Z</time>
      </trkpt>
      <trkpt lat="43.35217" lon="5.98562">
        <ele>470</ele>
        <time>2019-12-17T08:14:13.000Z</time>
      </trkpt>
      <trkpt lat="43.35217" lon="5.98562">
        <ele>470</ele>
        <time>2019-12-17T08:14:14.000Z</time>
      </trkpt>
      <trkpt lat="43.35217" lon="5.98563">
        <ele>470</ele>
        <time>2019-12-17T08:14:15.000Z</time>
      </trkpt>
      <trkpt lat="43.35218" lon="5.98563">
        <ele>470</ele>
        <time>2019-12-17T08:14:16.000Z</time>
      </trkpt>
      <trkpt lat="43.35219" lon="5.98564">
        <ele>471</ele>
        <time>2019-12-17T08:14:17.000Z</time>
      </trkpt>
      <trkpt lat="43.35219" lon="5.98565">
        <ele>471</ele>
        <time>2019-12-17T08:14:18.000Z</time>
      </trkpt>
      <trkpt lat="43.35219" lon="5.98565">
        <ele>471</ele>
        <time>2019-12-17T08:14:19.000Z</time>
      </trkpt>
      <trkpt lat="43.3522" lon="5.98566">
        <ele>471</ele>
        <time>2019-12-17T08:14:20.000Z</time>
      </trkpt>
      <trkpt lat="43.3522" lon="5.98567">
        <ele>472</ele>
        <time>2019-12-17T08:14:21.000Z</time>
      </trkpt>
      <trkpt lat="43.3522" lon="5.98568">
        <ele>472</ele>
        <time>2019-12-17T08:14:22.000Z</time>
      </trkpt>
      <trkpt lat="43.3522" lon="5.98569">
        <ele>472</ele>
        <time>2019-12-17T08:14:23.000Z</time>
      </trkpt>
      <trkpt lat="43.3522" lon="5.98569">
        <ele>472</ele>
        <time>2019-12-17T08:14:24.000Z</time>
      </trkpt>
      <trkpt lat="43.3522" lon="5.9857">
        <ele>473</ele>
        <time>2019-12-17T08:14:25.000Z</time>
      </trkpt>
      <trkpt lat="43.35219" lon="5.98571">
        <ele>473</ele>
        <time>2019-12-17T08:14:26.000Z</time>
      </trkpt>
      <trkpt lat="43.35219" lon="5.98572">
        <ele>473</ele>
        <time>2019-12-17T08:14:27.000Z</time>
      </trkpt>
      <trkpt lat="43.35219" lon="5.98572">
        <ele>473</ele>
        <time>2019-12-17T08:14:28.000Z</time>
      </trkpt>
      <trkpt lat="43.35219" lon="5.98573">
        <ele>473</ele>
        <time>2019-12-17T08:14:29.000Z</time>
      </trkpt>
      <trkpt lat="43.35219" lon="5.98573">
        <ele>473</ele>
        <time>2019-12-17T08:14:30.000Z</time>
      </trkpt>
      <trkpt lat="43.35219" lon="5.98574">
        <ele>474</ele>
        <time>2019-12-17T08:14:31.000Z</time>
      </trkpt>
      <trkpt lat="43.35219" lon="5.98574">
        <ele>474</ele>
        <time>2019-12-17T08:14:32.000Z</time>
      </trkpt>
      <trkpt lat="43.35219" lon="5.98574">
        <ele>474</ele>
        <time>2019-12-17T08:14:33.000Z</time>
      </trkpt>
      <trkpt lat="43.35219" lon="5.98574">
        <ele>474</ele>
        <time>2019-12-17T08:14:34.000Z</time>
      </trkpt>
      <trkpt lat="43.3522" lon="5.98574">
        <ele>474</ele>
        <time>2019-12-17T08:14:35.000Z</time>
      </trkpt>
      <trkpt lat="43.3522" lon="5.98574">
        <ele>474</ele>
        <time>2019-12-17T08:14:36.000Z</time>
      </trkpt>
      <trkpt lat="43.35219" lon="5.98575">
        <ele>474</ele>
        <time>2019-12-17T08:14:37.000Z</time>
      </trkpt>
      <trkpt lat="43.35219" lon="5.98576">
        <ele>474</ele>
        <time>2019-12-17T08:14:38.000Z</time>
      </trkpt>
      <trkpt lat="43.35219" lon="5.98577">
        <ele>474</ele>
        <time>2019-12-17T08:14:39.000Z</time>
      </trkpt>
      <trkpt lat="43.35219" lon="5.98578">
        <ele>475</ele>
        <time>2019-12-17T08:14:40.000Z</time>
      </trkpt>
      <trkpt lat="43.35218" lon="5.98578">
        <ele>475</ele>
        <time>2019-12-17T08:14:41.000Z</time>
      </trkpt>
      <trkpt lat="43.35218" lon="5.98579">
        <ele>475</ele>
        <time>2019-12-17T08:14:42.000Z</time>
      </trkpt>
      <trkpt lat="43.35218" lon="5.9858">
        <ele>475</ele>
        <time>2019-12-17T08:14:43.000Z</time>
      </trkpt>
      <trkpt lat="43.35218" lon="5.9858">
        <ele>475</ele>
        <time>2019-12-17T08:14:44.000Z</time>
      </trkpt>
      <trkpt lat="43.35217" lon="5.98581">
        <ele>475</ele>
        <time>2019-12-17T08:14:45.000Z</time>
      </trkpt>
      <trkpt lat="43.35217" lon="5.98582">
        <ele>476</ele>
        <time>2019-12-17T08:14:46.000Z</time>
      </trkpt>
      <trkpt lat="43.35217" lon="5.98583">
        <ele>476</ele>
        <time>2019-12-17T08:14:47.000Z</time>
      </trkpt>
      <trkpt lat="43.35216" lon="5.98584">
        <ele>476</ele>
        <time>2019-12-17T08:14:48.000Z</time>
      </trkpt>
      <trkpt lat="43.35216" lon="5.98585">
        <ele>476</ele>
        <time>2019-12-17T08:14:49.000Z</time>
      </trkpt>
      <trkpt lat="43.35216" lon="5.98585">
        <ele>476</ele>
        <time>2019-12-17T08:14:50.000Z</time>
      </trkpt>
      <trkpt lat="43.35216" lon="5.98586">
        <ele>476</ele>
        <time>2019-12-17T08:14:51.000Z</time>
      </trkpt>
      <trkpt lat="43.35215" lon="5.98587">
        <ele>476</ele>
        <time>2019-12-17T08:14:52.000Z</time>
      </trkpt>
      <trkpt lat="43.35215" lon="5.98588">
        <ele>476</ele>
        <time>2019-12-17T08:14:53.000Z</time>
      </trkpt>
      <trkpt lat="43.35215" lon="5.98589">
        <ele>476</ele>
        <time>2019-12-17T08:14:54.000Z</time>
      </trkpt>
      <trkpt lat="43.35216" lon="5.9859">
        <ele>476</ele>
        <time>2019-12-17T08:14:55.000Z</time>
      </trkpt>
      <trkpt lat="43.35216" lon="5.98591">
        <ele>477</ele>
        <time>2019-12-17T08:14:56.000Z</time>
      </trkpt>
      <trkpt lat="43.35216" lon="5.98591">
        <ele>477</ele>
        <time>2019-12-17T08:14:57.000Z</time>
      </trkpt>
      <trkpt lat="43.35216" lon="5.98593">
        <ele>477</ele>
        <time>2019-12-17T08:14:58.000Z</time>
      </trkpt>
      <trkpt lat="43.35217" lon="5.98594">
        <ele>477</ele>
        <time>2019-12-17T08:14:59.000Z</time>
      </trkpt>
      <trkpt lat="43.35217" lon="5.98595">
        <ele>477</ele>
        <time>2019-12-17T08:15:00.000Z</time>
      </trkpt>
      <trkpt lat="43.35218" lon="5.98596">
        <ele>477</ele>
        <time>2019-12-17T08:15:01.000Z</time>
      </trkpt>
      <trkpt lat="43.35218" lon="5.98596">
        <ele>478</ele>
        <time>2019-12-17T08:15:02.000Z</time>
      </trkpt>
      <trkpt lat="43.35219" lon="5.98597">
        <ele>478</ele>
        <time>2019-12-17T08:15:03.000Z</time>
      </trkpt>
      <trkpt lat="43.35219" lon="5.98597">
        <ele>478</ele>
        <time>2019-12-17T08:15:04.000Z</time>
      </trkpt>
      <trkpt lat="43.3522" lon="5.98598">
        <ele>478</ele>
        <time>2019-12-17T08:15:05.000Z</time>
      </trkpt>
      <trkpt lat="43.3522" lon="5.98599">
        <ele>478</ele>
        <time>2019-12-17T08:15:06.000Z</time>
      </trkpt>
      <trkpt lat="43.35221" lon="5.986">
        <ele>478</ele>
        <time>2019-12-17T08:15:07.000Z</time>
      </trkpt>
      <trkpt lat="43.35221" lon="5.986">
        <ele>478</ele>
        <time>2019-12-17T08:15:08.000Z</time>
      </trkpt>
      <trkpt lat="43.35222" lon="5.98601">
        <ele>479</ele>
        <time>2019-12-17T08:15:09.000Z</time>
      </trkpt>
      <trkpt lat="43.35222" lon="5.98601">
        <ele>479</ele>
        <time>2019-12-17T08:15:10.000Z</time>
      </trkpt>
      <trkpt lat="43.35223" lon="5.98602">
        <ele>479</ele>
        <time>2019-12-17T08:15:11.000Z</time>
      </trkpt>
      <trkpt lat="43.35223" lon="5.98603">
        <ele>479</ele>
        <time>2019-12-17T08:15:12.000Z</time>
      </trkpt>
      <trkpt lat="43.35224" lon="5.98604">
        <ele>479</ele>
        <time>2019-12-17T08:15:13.000Z</time>
      </trkpt>
      <trkpt lat="43.35225" lon="5.98605">
        <ele>479</ele>
        <time>2019-12-17T08:15:14.000Z</time>
      </trkpt>
      <trkpt lat="43.35225" lon="5.98605">
        <ele>479</ele>
        <time>2019-12-17T08:15:15.000Z</time>
      </trkpt>
      <trkpt lat="43.35226" lon="5.98606">
        <ele>479</ele>
        <time>2019-12-17T08:15:16.000Z</time>
      </trkpt>
      <trkpt lat="43.35227" lon="5.98607">
        <ele>479</ele>
        <time>2019-12-17T08:15:17.000Z</time>
      </trkpt>
      <trkpt lat="43.35227" lon="5.98607">
        <ele>479</ele>
        <time>2019-12-17T08:15:18.000Z</time>
      </trkpt>
      <trkpt lat="43.35228" lon="5.98608">
        <ele>479</ele>
        <time>2019-12-17T08:15:19.000Z</time>
      </trkpt>
      <trkpt lat="43.35229" lon="5.98609">
        <ele>479</ele>
        <time>2019-12-17T08:15:20.000Z</time>
      </trkpt>
      <trkpt lat="43.35229" lon="5.9861">
        <ele>479</ele>
        <time>2019-12-17T08:15:21.000Z</time>
      </trkpt>
      <trkpt lat="43.3523" lon="5.98611">
        <ele>479</ele>
        <time>2019-12-17T08:15:22.000Z</time>
      </trkpt>
      <trkpt lat="43.3523" lon="5.98612">
        <ele>479</ele>
        <time>2019-12-17T08:15:23.000Z</time>
      </trkpt>
      <trkpt lat="43.3523" lon="5.98613">
        <ele>480</ele>
        <time>2019-12-17T08:15:24.000Z</time>
      </trkpt>
      <trkpt lat="43.35231" lon="5.98614">
        <ele>480</ele>
        <time>2019-12-17T08:15:25.000Z</time>
      </trkpt>
      <trkpt lat="43.35231" lon="5.98615">
        <ele>480</ele>
        <time>2019-12-17T08:15:26.000Z</time>
      </trkpt>
      <trkpt lat="43.35231" lon="5.98616">
        <ele>480</ele>
        <time>2019-12-17T08:15:27.000Z</time>
      </trkpt>
      <trkpt lat="43.35232" lon="5.98617">
        <ele>480</ele>
        <time>2019-12-17T08:15:28.000Z</time>
      </trkpt>
      <trkpt lat="43.35232" lon="5.98618">
        <ele>480</ele>
        <time>2019-12-17T08:15:29.000Z</time>
      </trkpt>
      <trkpt lat="43.35232" lon="5.98619">
        <ele>480</ele>
        <time>2019-12-17T08:15:30.000Z</time>
      </trkpt>
      <trkpt lat="43.35232" lon="5.98621">
        <ele>480</ele>
        <time>2019-12-17T08:15:31.000Z</time>
      </trkpt>
      <trkpt lat="43.35232" lon="5.98622">
        <ele>481</ele>
        <time>2019-12-17T08:15:32.000Z</time>
      </trkpt>
      <trkpt lat="43.35233" lon="5.98623">
        <ele>481</ele>
        <time>2019-12-17T08:15:33.000Z</time>
      </trkpt>
      <trkpt lat="43.35233" lon="5.98624">
        <ele>481</ele>
        <time>2019-12-17T08:15:34.000Z</time>
      </trkpt>
      <trkpt lat="43.35233" lon="5.98625">
        <ele>481</ele>
        <time>2019-12-17T08:15:35.000Z</time>
      </trkpt>
      <trkpt lat="43.35234" lon="5.98626">
        <ele>481</ele>
        <time>2019-12-17T08:15:36.000Z</time>
      </trkpt>
      <trkpt lat="43.35234" lon="5.98627">
        <ele>481</ele>
        <time>2019-12-17T08:15:37.000Z</time>
      </trkpt>
      <trkpt lat="43.35235" lon="5.98628">
        <ele>481</ele>
        <time>2019-12-17T08:15:38.000Z</time>
      </trkpt>
      <trkpt lat="43.35235" lon="5.98629">
        <ele>481</ele>
        <time>2019-12-17T08:15:39.000Z</time>
      </trkpt>
      <trkpt lat="43.35235" lon="5.9863">
        <ele>481</ele>
        <time>2019-12-17T08:15:40.000Z</time>
      </trkpt>
      <trkpt lat="43.35236" lon="5.98631">
        <ele>481</ele>
        <time>2019-12-17T08:15:41.000Z</time>
      </trkpt>
      <trkpt lat="43.35236" lon="5.98632">
        <ele>481</ele>
        <time>2019-12-17T08:15:42.000Z</time>
      </trkpt>
      <trkpt lat="43.35236" lon="5.98633">
        <ele>481</ele>
        <time>2019-12-17T08:15:43.000Z</time>
      </trkpt>
      <trkpt lat="43.35237" lon="5.98634">
        <ele>481</ele>
        <time>2019-12-17T08:15:44.000Z</time>
      </trkpt>
      <trkpt lat="43.35237" lon="5.98635">
        <ele>481</ele>
        <time>2019-12-17T08:15:45.000Z</time>
      </trkpt>
      <trkpt lat="43.35238" lon="5.98635">
        <ele>481</ele>
        <time>2019-12-17T08:15:46.000Z</time>
      </trkpt>
      <trkpt lat="43.35239" lon="5.98636">
        <ele>481</ele>
        <time>2019-12-17T08:15:47.000Z</time>
      </trkpt>
      <trkpt lat="43.35239" lon="5.98636">
        <ele>482</ele>
        <time>2019-12-17T08:15:48.000Z</time>
      </trkpt>
      <trkpt lat="43.3524" lon="5.98637">
        <ele>482</ele>
        <time>2019-12-17T08:15:49.000Z</time>
      </trkpt>
      <trkpt lat="43.3524" lon="5.98638">
        <ele>482</ele>
        <time>2019-12-17T08:15:50.000Z</time>
      </trkpt>
      <trkpt lat="43.35241" lon="5.98639">
        <ele>482</ele>
        <time>2019-12-17T08:15:51.000Z</time>
      </trkpt>
      <trkpt lat="43.35242" lon="5.98639">
        <ele>482</ele>
        <time>2019-12-17T08:15:52.000Z</time>
      </trkpt>
      <trkpt lat="43.35242" lon="5.9864">
        <ele>482</ele>
        <time>2019-12-17T08:15:53.000Z</time>
      </trkpt>
      <trkpt lat="43.35243" lon="5.98641">
        <ele>482</ele>
        <time>2019-12-17T08:15:54.000Z</time>
      </trkpt>
      <trkpt lat="43.35243" lon="5.98642">
        <ele>483</ele>
        <time>2019-12-17T08:15:55.000Z</time>
      </trkpt>
      <trkpt lat="43.35244" lon="5.98643">
        <ele>483</ele>
        <time>2019-12-17T08:15:56.000Z</time>
      </trkpt>
      <trkpt lat="43.35245" lon="5.98644">
        <ele>483</ele>
        <time>2019-12-17T08:15:57.000Z</time>
      </trkpt>
      <trkpt lat="43.35245" lon="5.98645">
        <ele>483</ele>
        <time>2019-12-17T08:15:58.000Z</time>
      </trkpt>
      <trkpt lat="43.35245" lon="5.98646">
        <ele>483</ele>
        <time>2019-12-17T08:15:59.000Z</time>
      </trkpt>
      <trkpt lat="43.35246" lon="5.98647">
        <ele>484</ele>
        <time>2019-12-17T08:16:00.000Z</time>
      </trkpt>
      <trkpt lat="43.35246" lon="5.98648">
        <ele>484</ele>
        <time>2019-12-17T08:16:01.000Z</time>
      </trkpt>
      <trkpt lat="43.35247" lon="5.98649">
        <ele>484</ele>
        <time>2019-12-17T08:16:02.000Z</time>
      </trkpt>
      <trkpt lat="43.35247" lon="5.9865">
        <ele>484</ele>
        <time>2019-12-17T08:16:03.000Z</time>
      </trkpt>
      <trkpt lat="43.35248" lon="5.98651">
        <ele>484</ele>
        <time>2019-12-17T08:16:04.000Z</time>
      </trkpt>
      <trkpt lat="43.35248" lon="5.98652">
        <ele>484</ele>
        <time>2019-12-17T08:16:05.000Z</time>
      </trkpt>
      <trkpt lat="43.35249" lon="5.98653">
        <ele>484</ele>
        <time>2019-12-17T08:16:06.000Z</time>
      </trkpt>
      <trkpt lat="43.35249" lon="5.98654">
        <ele>484</ele>
        <time>2019-12-17T08:16:07.000Z</time>
      </trkpt>
      <trkpt lat="43.35249" lon="5.98656">
        <ele>484</ele>
        <time>2019-12-17T08:16:08.000Z</time>
      </trkpt>
      <trkpt lat="43.3525" lon="5.98657">
        <ele>484</ele>
        <time>2019-12-17T08:16:09.000Z</time>
      </trkpt>
      <trkpt lat="43.3525" lon="5.98658">
        <ele>484</ele>
        <time>2019-12-17T08:16:10.000Z</time>
      </trkpt>
      <trkpt lat="43.35251" lon="5.98659">
        <ele>485</ele>
        <time>2019-12-17T08:16:11.000Z</time>
      </trkpt>
      <trkpt lat="43.35252" lon="5.9866">
        <ele>485</ele>
        <time>2019-12-17T08:16:12.000Z</time>
      </trkpt>
      <trkpt lat="43.35252" lon="5.98662">
        <ele>485</ele>
        <time>2019-12-17T08:16:13.000Z</time>
      </trkpt>
      <trkpt lat="43.35253" lon="5.98663">
        <ele>485</ele>
        <time>2019-12-17T08:16:14.000Z</time>
      </trkpt>
      <trkpt lat="43.35254" lon="5.98664">
        <ele>485</ele>
        <time>2019-12-17T08:16:15.000Z</time>
      </trkpt>
      <trkpt lat="43.35255" lon="5.98665">
        <ele>485</ele>
        <time>2019-12-17T08:16:16.000Z</time>
      </trkpt>
      <trkpt lat="43.35255" lon="5.98666">
        <ele>486</ele>
        <time>2019-12-17T08:16:17.000Z</time>
      </trkpt>
      <trkpt lat="43.35256" lon="5.98668">
        <ele>486</ele>
        <time>2019-12-17T08:16:18.000Z</time>
      </trkpt>
      <trkpt lat="43.35257" lon="5.98669">
        <ele>486</ele>
        <time>2019-12-17T08:16:19.000Z</time>
      </trkpt>
      <trkpt lat="43.35257" lon="5.9867">
        <ele>486</ele>
        <time>2019-12-17T08:16:20.000Z</time>
      </trkpt>
      <trkpt lat="43.35258" lon="5.98671">
        <ele>486</ele>
        <time>2019-12-17T08:16:21.000Z</time>
      </trkpt>
      <trkpt lat="43.35258" lon="5.98672">
        <ele>486</ele>
        <time>2019-12-17T08:16:22.000Z</time>
      </trkpt>
      <trkpt lat="43.35258" lon="5.98674">
        <ele>486</ele>
        <time>2019-12-17T08:16:23.000Z</time>
      </trkpt>
      <trkpt lat="43.35259" lon="5.98675">
        <ele>486</ele>
        <time>2019-12-17T08:16:24.000Z</time>
      </trkpt>
      <trkpt lat="43.35259" lon="5.98676">
        <ele>486</ele>
        <time>2019-12-17T08:16:25.000Z</time>
      </trkpt>
      <trkpt lat="43.35259" lon="5.98677">
        <ele>486</ele>
        <time>2019-12-17T08:16:26.000Z</time>
      </trkpt>
      <trkpt lat="43.35259" lon="5.98678">
        <ele>487</ele>
        <time>2019-12-17T08:16:27.000Z</time>
      </trkpt>
      <trkpt lat="43.3526" lon="5.98679">
        <ele>487</ele>
        <time>2019-12-17T08:16:28.000Z</time>
      </trkpt>
      <trkpt lat="43.3526" lon="5.98681">
        <ele>487</ele>
        <time>2019-12-17T08:16:29.000Z</time>
      </trkpt>
      <trkpt lat="43.3526" lon="5.98682">
        <ele>487</ele>
        <time>2019-12-17T08:16:30.000Z</time>
      </trkpt>
      <trkpt lat="43.3526" lon="5.98683">
        <ele>487</ele>
        <time>2019-12-17T08:16:31.000Z</time>
      </trkpt>
      <trkpt lat="43.35261" lon="5.98684">
        <ele>487</ele>
        <time>2019-12-17T08:16:32.000Z</time>
      </trkpt>
      <trkpt lat="43.35261" lon="5.98685">
        <ele>487</ele>
        <time>2019-12-17T08:16:33.000Z</time>
      </trkpt>
      <trkpt lat="43.35261" lon="5.98686">
        <ele>487</ele>
        <time>2019-12-17T08:16:34.000Z</time>
      </trkpt>
      <trkpt lat="43.35261" lon="5.98688">
        <ele>487</ele>
        <time>2019-12-17T08:16:35.000Z</time>
      </trkpt>
      <trkpt lat="43.35262" lon="5.98689">
        <ele>487</ele>
        <time>2019-12-17T08:16:36.000Z</time>
      </trkpt>
      <trkpt lat="43.35262" lon="5.9869">
        <ele>487</ele>
        <time>2019-12-17T08:16:37.000Z</time>
      </trkpt>
      <trkpt lat="43.35262" lon="5.98691">
        <ele>487</ele>
        <time>2019-12-17T08:16:38.000Z</time>
      </trkpt>
      <trkpt lat="43.35263" lon="5.98692">
        <ele>487</ele>
        <time>2019-12-17T08:16:39.000Z</time>
      </trkpt>
      <trkpt lat="43.35263" lon="5.98693">
        <ele>487</ele>
        <time>2019-12-17T08:16:40.000Z</time>
      </trkpt>
      <trkpt lat="43.35264" lon="5.98694">
        <ele>488</ele>
        <time>2019-12-17T08:16:41.000Z</time>
      </trkpt>
      <trkpt lat="43.35264" lon="5.98695">
        <ele>488</ele>
        <time>2019-12-17T08:16:42.000Z</time>
      </trkpt>
      <trkpt lat="43.35265" lon="5.98696">
        <ele>488</ele>
        <time>2019-12-17T08:16:43.000Z</time>
      </trkpt>
      <trkpt lat="43.35266" lon="5.98697">
        <ele>488</ele>
        <time>2019-12-17T08:16:44.000Z</time>
      </trkpt>
      <trkpt lat="43.35266" lon="5.98698">
        <ele>488</ele>
        <time>2019-12-17T08:16:45.000Z</time>
      </trkpt>
      <trkpt lat="43.35267" lon="5.98699">
        <ele>488</ele>
        <time>2019-12-17T08:16:46.000Z</time>
      </trkpt>
      <trkpt lat="43.35268" lon="5.98699">
        <ele>489</ele>
        <time>2019-12-17T08:16:47.000Z</time>
      </trkpt>
      <trkpt lat="43.35269" lon="5.987">
        <ele>489</ele>
        <time>2019-12-17T08:16:48.000Z</time>
      </trkpt>
      <trkpt lat="43.3527" lon="5.98701">
        <ele>489</ele>
        <time>2019-12-17T08:16:49.000Z</time>
      </trkpt>
      <trkpt lat="43.3527" lon="5.98701">
        <ele>489</ele>
        <time>2019-12-17T08:16:50.000Z</time>
      </trkpt>
      <trkpt lat="43.35271" lon="5.98702">
        <ele>490</ele>
        <time>2019-12-17T08:16:51.000Z</time>
      </trkpt>
      <trkpt lat="43.35272" lon="5.98703">
        <ele>490</ele>
        <time>2019-12-17T08:16:52.000Z</time>
      </trkpt>
      <trkpt lat="43.35272" lon="5.98704">
        <ele>490</ele>
        <time>2019-12-17T08:16:53.000Z</time>
      </trkpt>
      <trkpt lat="43.35272" lon="5.98705">
        <ele>490</ele>
        <time>2019-12-17T08:16:54.000Z</time>
      </trkpt>
      <trkpt lat="43.35273" lon="5.98706">
        <ele>490</ele>
        <time>2019-12-17T08:16:55.000Z</time>
      </trkpt>
      <trkpt lat="43.35273" lon="5.98707">
        <ele>491</ele>
        <time>2019-12-17T08:16:56.000Z</time>
      </trkpt>
      <trkpt lat="43.35274" lon="5.98708">
        <ele>491</ele>
        <time>2019-12-17T08:16:57.000Z</time>
      </trkpt>
      <trkpt lat="43.35274" lon="5.98709">
        <ele>491</ele>
        <time>2019-12-17T08:16:58.000Z</time>
      </trkpt>
      <trkpt lat="43.35275" lon="5.9871">
        <ele>491</ele>
        <time>2019-12-17T08:16:59.000Z</time>
      </trkpt>
      <trkpt lat="43.35275" lon="5.9871">
        <ele>491</ele>
        <time>2019-12-17T08:17:00.000Z</time>
      </trkpt>
      <trkpt lat="43.35275" lon="5.98711">
        <ele>492</ele>
        <time>2019-12-17T08:17:01.000Z</time>
      </trkpt>
      <trkpt lat="43.35275" lon="5.98712">
        <ele>492</ele>
        <time>2019-12-17T08:17:02.000Z</time>
      </trkpt>
      <trkpt lat="43.35276" lon="5.98713">
        <ele>492</ele>
        <time>2019-12-17T08:17:03.000Z</time>
      </trkpt>
      <trkpt lat="43.35276" lon="5.98713">
        <ele>492</ele>
        <time>2019-12-17T08:17:04.000Z</time>
      </trkpt>
      <trkpt lat="43.35276" lon="5.98714">
        <ele>492</ele>
        <time>2019-12-17T08:17:05.000Z</time>
      </trkpt>
      <trkpt lat="43.35276" lon="5.98715">
        <ele>492</ele>
        <time>2019-12-17T08:17:06.000Z</time>
      </trkpt>
      <trkpt lat="43.35276" lon="5.98716">
        <ele>492</ele>
        <time>2019-12-17T08:17:07.000Z</time>
      </trkpt>
      <trkpt lat="43.35276" lon="5.98717">
        <ele>492</ele>
        <time>2019-12-17T08:17:08.000Z</time>
      </trkpt>
      <trkpt lat="43.35277" lon="5.98718">
        <ele>492</ele>
        <time>2019-12-17T08:17:09.000Z</time>
      </trkpt>
      <trkpt lat="43.35277" lon="5.98718">
        <ele>492</ele>
        <time>2019-12-17T08:17:10.000Z</time>
      </trkpt>
      <trkpt lat="43.35277" lon="5.98719">
        <ele>492</ele>
        <time>2019-12-17T08:17:11.000Z</time>
      </trkpt>
      <trkpt lat="43.35277" lon="5.9872">
        <ele>492</ele>
        <time>2019-12-17T08:17:12.000Z</time>
      </trkpt>
      <trkpt lat="43.35277" lon="5.98722">
        <ele>492</ele>
        <time>2019-12-17T08:17:13.000Z</time>
      </trkpt>
      <trkpt lat="43.35278" lon="5.98722">
        <ele>492</ele>
        <time>2019-12-17T08:17:14.000Z</time>
      </trkpt>
      <trkpt lat="43.35278" lon="5.98723">
        <ele>492</ele>
        <time>2019-12-17T08:17:15.000Z</time>
      </trkpt>
      <trkpt lat="43.35278" lon="5.98724">
        <ele>492</ele>
        <time>2019-12-17T08:17:16.000Z</time>
      </trkpt>
      <trkpt lat="43.35278" lon="5.98725">
        <ele>493</ele>
        <time>2019-12-17T08:17:17.000Z</time>
      </trkpt>
      <trkpt lat="43.35278" lon="5.98726">
        <ele>493</ele>
        <time>2019-12-17T08:17:18.000Z</time>
      </trkpt>
      <trkpt lat="43.35279" lon="5.98727">
        <ele>493</ele>
        <time>2019-12-17T08:17:19.000Z</time>
      </trkpt>
      <trkpt lat="43.35279" lon="5.98728">
        <ele>493</ele>
        <time>2019-12-17T08:17:20.000Z</time>
      </trkpt>
      <trkpt lat="43.3528" lon="5.98729">
        <ele>493</ele>
        <time>2019-12-17T08:17:21.000Z</time>
      </trkpt>
      <trkpt lat="43.3528" lon="5.98729">
        <ele>493</ele>
        <time>2019-12-17T08:17:22.000Z</time>
      </trkpt>
      <trkpt lat="43.35281" lon="5.9873">
        <ele>493</ele>
        <time>2019-12-17T08:17:23.000Z</time>
      </trkpt>
      <trkpt lat="43.35281" lon="5.98731">
        <ele>493</ele>
        <time>2019-12-17T08:17:24.000Z</time>
      </trkpt>
      <trkpt lat="43.35282" lon="5.98732">
        <ele>493</ele>
        <time>2019-12-17T08:17:25.000Z</time>
      </trkpt>
      <trkpt lat="43.35282" lon="5.98733">
        <ele>494</ele>
        <time>2019-12-17T08:17:26.000Z</time>
      </trkpt>
      <trkpt lat="43.35283" lon="5.98733">
        <ele>494</ele>
        <time>2019-12-17T08:17:27.000Z</time>
      </trkpt>
      <trkpt lat="43.35283" lon="5.98734">
        <ele>494</ele>
        <time>2019-12-17T08:17:28.000Z</time>
      </trkpt>
      <trkpt lat="43.35284" lon="5.98735">
        <ele>494</ele>
        <time>2019-12-17T08:17:29.000Z</time>
      </trkpt>
      <trkpt lat="43.35284" lon="5.98736">
        <ele>494</ele>
        <time>2019-12-17T08:17:30.000Z</time>
      </trkpt>
      <trkpt lat="43.35285" lon="5.98737">
        <ele>494</ele>
        <time>2019-12-17T08:17:31.000Z</time>
      </trkpt>
      <trkpt lat="43.35285" lon="5.98737">
        <ele>494</ele>
        <time>2019-12-17T08:17:32.000Z</time>
      </trkpt>
      <trkpt lat="43.35286" lon="5.98738">
        <ele>494</ele>
        <time>2019-12-17T08:17:33.000Z</time>
      </trkpt>
      <trkpt lat="43.35286" lon="5.98739">
        <ele>494</ele>
        <time>2019-12-17T08:17:34.000Z</time>
      </trkpt>
      <trkpt lat="43.35287" lon="5.9874">
        <ele>494</ele>
        <time>2019-12-17T08:17:35.000Z</time>
      </trkpt>
      <trkpt lat="43.35287" lon="5.98741">
        <ele>494</ele>
        <time>2019-12-17T08:17:36.000Z</time>
      </trkpt>
      <trkpt lat="43.35288" lon="5.98741">
        <ele>494</ele>
        <time>2019-12-17T08:17:37.000Z</time>
      </trkpt>
      <trkpt lat="43.35289" lon="5.98742">
        <ele>494</ele>
        <time>2019-12-17T08:17:38.000Z</time>
      </trkpt>
      <trkpt lat="43.35289" lon="5.98743">
        <ele>494</ele>
        <time>2019-12-17T08:17:39.000Z</time>
      </trkpt>
      <trkpt lat="43.3529" lon="5.98744">
        <ele>494</ele>
        <time>2019-12-17T08:17:40.000Z</time>
      </trkpt>
      <trkpt lat="43.3529" lon="5.98745">
        <ele>494</ele>
        <time>2019-12-17T08:17:41.000Z</time>
      </trkpt>
      <trkpt lat="43.35291" lon="5.98746">
        <ele>494</ele>
        <time>2019-12-17T08:17:42.000Z</time>
      </trkpt>
      <trkpt lat="43.35291" lon="5.98747">
        <ele>495</ele>
        <time>2019-12-17T08:17:43.000Z</time>
      </trkpt>
      <trkpt lat="43.35291" lon="5.98748">
        <ele>495</ele>
        <time>2019-12-17T08:17:44.000Z</time>
      </trkpt>
      <trkpt lat="43.35292" lon="5.98748">
        <ele>495</ele>
        <time>2019-12-17T08:17:45.000Z</time>
      </trkpt>
      <trkpt lat="43.35292" lon="5.98749">
        <ele>495</ele>
        <time>2019-12-17T08:17:46.000Z</time>
      </trkpt>
      <trkpt lat="43.35293" lon="5.98749">
        <ele>495</ele>
        <time>2019-12-17T08:17:47.000Z</time>
      </trkpt>
      <trkpt lat="43.35293" lon="5.9875">
        <ele>495</ele>
        <time>2019-12-17T08:17:48.000Z</time>
      </trkpt>
      <trkpt lat="43.35294" lon="5.9875">
        <ele>495</ele>
        <time>2019-12-17T08:17:49.000Z</time>
      </trkpt>
      <trkpt lat="43.35294" lon="5.98751">
        <ele>495</ele>
        <time>2019-12-17T08:17:50.000Z</time>
      </trkpt>
      <trkpt lat="43.35295" lon="5.98751">
        <ele>495</ele>
        <time>2019-12-17T08:17:51.000Z</time>
      </trkpt>
      <trkpt lat="43.35295" lon="5.98751">
        <ele>495</ele>
        <time>2019-12-17T08:17:52.000Z</time>
      </trkpt>
      <trkpt lat="43.35296" lon="5.98752">
        <ele>495</ele>
        <time>2019-12-17T08:17:53.000Z</time>
      </trkpt>
      <trkpt lat="43.35297" lon="5.98752">
        <ele>495</ele>
        <time>2019-12-17T08:17:54.000Z</time>
      </trkpt>
      <trkpt lat="43.35298" lon="5.98752">
        <ele>495</ele>
        <time>2019-12-17T08:17:55.000Z</time>
      </trkpt>
      <trkpt lat="43.35299" lon="5.98752">
        <ele>496</ele>
        <time>2019-12-17T08:17:56.000Z</time>
      </trkpt>
      <trkpt lat="43.353" lon="5.98753">
        <ele>496</ele>
        <time>2019-12-17T08:17:57.000Z</time>
      </trkpt>
      <trkpt lat="43.353" lon="5.98753">
        <ele>496</ele>
        <time>2019-12-17T08:17:58.000Z</time>
      </trkpt>
      <trkpt lat="43.35301" lon="5.98754">
        <ele>496</ele>
        <time>2019-12-17T08:17:59.000Z</time>
      </trkpt>
      <trkpt lat="43.35302" lon="5.98755">
        <ele>496</ele>
        <time>2019-12-17T08:18:00.000Z</time>
      </trkpt>
      <trkpt lat="43.35303" lon="5.98755">
        <ele>496</ele>
        <time>2019-12-17T08:18:01.000Z</time>
      </trkpt>
      <trkpt lat="43.35304" lon="5.98756">
        <ele>496</ele>
        <time>2019-12-17T08:18:02.000Z</time>
      </trkpt>
      <trkpt lat="43.35305" lon="5.98756">
        <ele>496</ele>
        <time>2019-12-17T08:18:03.000Z</time>
      </trkpt>
      <trkpt lat="43.35306" lon="5.98757">
        <ele>497</ele>
        <time>2019-12-17T08:18:04.000Z</time>
      </trkpt>
      <trkpt lat="43.35306" lon="5.98758">
        <ele>497</ele>
        <time>2019-12-17T08:18:05.000Z</time>
      </trkpt>
      <trkpt lat="43.35307" lon="5.98759">
        <ele>497</ele>
        <time>2019-12-17T08:18:06.000Z</time>
      </trkpt>
      <trkpt lat="43.35308" lon="5.9876">
        <ele>497</ele>
        <time>2019-12-17T08:18:07.000Z</time>
      </trkpt>
      <trkpt lat="43.35309" lon="5.9876">
        <ele>497</ele>
        <time>2019-12-17T08:18:08.000Z</time>
      </trkpt>
      <trkpt lat="43.3531" lon="5.98761">
        <ele>497</ele>
        <time>2019-12-17T08:18:09.000Z</time>
      </trkpt>
      <trkpt lat="43.3531" lon="5.98762">
        <ele>497</ele>
        <time>2019-12-17T08:18:10.000Z</time>
      </trkpt>
      <trkpt lat="43.35312" lon="5.98762">
        <ele>497</ele>
        <time>2019-12-17T08:18:11.000Z</time>
      </trkpt>
      <trkpt lat="43.35313" lon="5.98763">
        <ele>498</ele>
        <time>2019-12-17T08:18:12.000Z</time>
      </trkpt>
      <trkpt lat="43.35313" lon="5.98763">
        <ele>498</ele>
        <time>2019-12-17T08:18:13.000Z</time>
      </trkpt>
      <trkpt lat="43.35314" lon="5.98764">
        <ele>498</ele>
        <time>2019-12-17T08:18:14.000Z</time>
      </trkpt>
      <trkpt lat="43.35315" lon="5.98764">
        <ele>498</ele>
        <time>2019-12-17T08:18:15.000Z</time>
      </trkpt>
      <trkpt lat="43.35316" lon="5.98764">
        <ele>498</ele>
        <time>2019-12-17T08:18:16.000Z</time>
      </trkpt>
      <trkpt lat="43.35316" lon="5.98764">
        <ele>498</ele>
        <time>2019-12-17T08:18:17.000Z</time>
      </trkpt>
      <trkpt lat="43.35317" lon="5.98764">
        <ele>498</ele>
        <time>2019-12-17T08:18:18.000Z</time>
      </trkpt>
      <trkpt lat="43.35318" lon="5.98764">
        <ele>498</ele>
        <time>2019-12-17T08:18:19.000Z</time>
      </trkpt>
      <trkpt lat="43.35319" lon="5.98764">
        <ele>498</ele>
        <time>2019-12-17T08:18:20.000Z</time>
      </trkpt>
      <trkpt lat="43.35321" lon="5.98763">
        <ele>498</ele>
        <time>2019-12-17T08:18:21.000Z</time>
      </trkpt>
      <trkpt lat="43.35322" lon="5.98763">
        <ele>498</ele>
        <time>2019-12-17T08:18:22.000Z</time>
      </trkpt>
      <trkpt lat="43.35323" lon="5.98763">
        <ele>498</ele>
        <time>2019-12-17T08:18:23.000Z</time>
      </trkpt>
      <trkpt lat="43.35324" lon="5.98763">
        <ele>498</ele>
        <time>2019-12-17T08:18:24.000Z</time>
      </trkpt>
      <trkpt lat="43.35325" lon="5.98764">
        <ele>498</ele>
        <time>2019-12-17T08:18:25.000Z</time>
      </trkpt>
      <trkpt lat="43.35325" lon="5.98764">
        <ele>498</ele>
        <time>2019-12-17T08:18:26.000Z</time>
      </trkpt>
      <trkpt lat="43.35326" lon="5.98764">
        <ele>498</ele>
        <time>2019-12-17T08:18:27.000Z</time>
      </trkpt>
      <trkpt lat="43.35327" lon="5.98765">
        <ele>498</ele>
        <time>2019-12-17T08:18:28.000Z</time>
      </trkpt>
      <trkpt lat="43.35328" lon="5.98765">
        <ele>498</ele>
        <time>2019-12-17T08:18:29.000Z</time>
      </trkpt>
      <trkpt lat="43.35329" lon="5.98766">
        <ele>498</ele>
        <time>2019-12-17T08:18:30.000Z</time>
      </trkpt>
      <trkpt lat="43.35329" lon="5.98766">
        <ele>498</ele>
        <time>2019-12-17T08:18:31.000Z</time>
      </trkpt>
      <trkpt lat="43.35331" lon="5.98767">
        <ele>498</ele>
        <time>2019-12-17T08:18:32.000Z</time>
      </trkpt>
      <trkpt lat="43.35331" lon="5.98768">
        <ele>498</ele>
        <time>2019-12-17T08:18:33.000Z</time>
      </trkpt>
      <trkpt lat="43.35332" lon="5.98768">
        <ele>498</ele>
        <time>2019-12-17T08:18:34.000Z</time>
      </trkpt>
      <trkpt lat="43.35333" lon="5.98769">
        <ele>498</ele>
        <time>2019-12-17T08:18:35.000Z</time>
      </trkpt>
      <trkpt lat="43.35333" lon="5.9877">
        <ele>498</ele>
        <time>2019-12-17T08:18:36.000Z</time>
      </trkpt>
      <trkpt lat="43.35333" lon="5.98771">
        <ele>498</ele>
        <time>2019-12-17T08:18:37.000Z</time>
      </trkpt>
      <trkpt lat="43.35334" lon="5.98771">
        <ele>499</ele>
        <time>2019-12-17T08:18:38.000Z</time>
      </trkpt>
      <trkpt lat="43.35334" lon="5.98771">
        <ele>499</ele>
        <time>2019-12-17T08:18:39.000Z</time>
      </trkpt>
      <trkpt lat="43.35335" lon="5.98772">
        <ele>499</ele>
        <time>2019-12-17T08:18:40.000Z</time>
      </trkpt>
      <trkpt lat="43.35336" lon="5.98772">
        <ele>499</ele>
        <time>2019-12-17T08:18:41.000Z</time>
      </trkpt>
      <trkpt lat="43.35337" lon="5.98772">
        <ele>499</ele>
        <time>2019-12-17T08:18:42.000Z</time>
      </trkpt>
      <trkpt lat="43.35337" lon="5.98772">
        <ele>499</ele>
        <time>2019-12-17T08:18:43.000Z</time>
      </trkpt>
      <trkpt lat="43.35338" lon="5.98772">
        <ele>499</ele>
        <time>2019-12-17T08:18:44.000Z</time>
      </trkpt>
      <trkpt lat="43.35339" lon="5.98773">
        <ele>499</ele>
        <time>2019-12-17T08:18:45.000Z</time>
      </trkpt>
      <trkpt lat="43.3534" lon="5.98773">
        <ele>499</ele>
        <time>2019-12-17T08:18:46.000Z</time>
      </trkpt>
      <trkpt lat="43.35341" lon="5.98773">
        <ele>499</ele>
        <time>2019-12-17T08:18:47.000Z</time>
      </trkpt>
      <trkpt lat="43.35342" lon="5.98774">
        <ele>499</ele>
        <time>2019-12-17T08:18:48.000Z</time>
      </trkpt>
      <trkpt lat="43.35343" lon="5.98774">
        <ele>499</ele>
        <time>2019-12-17T08:18:49.000Z</time>
      </trkpt>
      <trkpt lat="43.35344" lon="5.98774">
        <ele>499</ele>
        <time>2019-12-17T08:18:50.000Z</time>
      </trkpt>
      <trkpt lat="43.35344" lon="5.98774">
        <ele>499</ele>
        <time>2019-12-17T08:18:51.000Z</time>
      </trkpt>
      <trkpt lat="43.35345" lon="5.98775">
        <ele>499</ele>
        <time>2019-12-17T08:18:52.000Z</time>
      </trkpt>
      <trkpt lat="43.35346" lon="5.98775">
        <ele>499</ele>
        <time>2019-12-17T08:18:53.000Z</time>
      </trkpt>
      <trkpt lat="43.35347" lon="5.98775">
        <ele>500</ele>
        <time>2019-12-17T08:18:54.000Z</time>
      </trkpt>
      <trkpt lat="43.35348" lon="5.98775">
        <ele>500</ele>
        <time>2019-12-17T08:18:55.000Z</time>
      </trkpt>
      <trkpt lat="43.35349" lon="5.98776">
        <ele>500</ele>
        <time>2019-12-17T08:18:56.000Z</time>
      </trkpt>
      <trkpt lat="43.3535" lon="5.98776">
        <ele>500</ele>
        <time>2019-12-17T08:18:57.000Z</time>
      </trkpt>
      <trkpt lat="43.35351" lon="5.98777">
        <ele>500</ele>
        <time>2019-12-17T08:18:58.000Z</time>
      </trkpt>
      <trkpt lat="43.35352" lon="5.98778">
        <ele>500</ele>
        <time>2019-12-17T08:18:59.000Z</time>
      </trkpt>
      <trkpt lat="43.35353" lon="5.98778">
        <ele>500</ele>
        <time>2019-12-17T08:19:00.000Z</time>
      </trkpt>
      <trkpt lat="43.35354" lon="5.98778">
        <ele>500</ele>
        <time>2019-12-17T08:19:01.000Z</time>
      </trkpt>
      <trkpt lat="43.35355" lon="5.98779">
        <ele>500</ele>
        <time>2019-12-17T08:19:02.000Z</time>
      </trkpt>
      <trkpt lat="43.35356" lon="5.9878">
        <ele>500</ele>
        <time>2019-12-17T08:19:03.000Z</time>
      </trkpt>
      <trkpt lat="43.35357" lon="5.9878">
        <ele>501</ele>
        <time>2019-12-17T08:19:04.000Z</time>
      </trkpt>
      <trkpt lat="43.35358" lon="5.9878">
        <ele>501</ele>
        <time>2019-12-17T08:19:05.000Z</time>
      </trkpt>
      <trkpt lat="43.35359" lon="5.98781">
        <ele>501</ele>
        <time>2019-12-17T08:19:06.000Z</time>
      </trkpt>
      <trkpt lat="43.3536" lon="5.98781">
        <ele>501</ele>
        <time>2019-12-17T08:19:07.000Z</time>
      </trkpt>
      <trkpt lat="43.35361" lon="5.98782">
        <ele>501</ele>
        <time>2019-12-17T08:19:08.000Z</time>
      </trkpt>
      <trkpt lat="43.35362" lon="5.98782">
        <ele>501</ele>
        <time>2019-12-17T08:19:09.000Z</time>
      </trkpt>
      <trkpt lat="43.35363" lon="5.98783">
        <ele>501</ele>
        <time>2019-12-17T08:19:10.000Z</time>
      </trkpt>
      <trkpt lat="43.35364" lon="5.98783">
        <ele>501</ele>
        <time>2019-12-17T08:19:11.000Z</time>
      </trkpt>
      <trkpt lat="43.35365" lon="5.98783">
        <ele>501</ele>
        <time>2019-12-17T08:19:12.000Z</time>
      </trkpt>
      <trkpt lat="43.35366" lon="5.98783">
        <ele>501</ele>
        <time>2019-12-17T08:19:13.000Z</time>
      </trkpt>
      <trkpt lat="43.35367" lon="5.98784">
        <ele>501</ele>
        <time>2019-12-17T08:19:14.000Z</time>
      </trkpt>
      <trkpt lat="43.35368" lon="5.98784">
        <ele>501</ele>
        <time>2019-12-17T08:19:15.000Z</time>
      </trkpt>
      <trkpt lat="43.35369" lon="5.98784">
        <ele>501</ele>
        <time>2019-12-17T08:19:16.000Z</time>
      </trkpt>
      <trkpt lat="43.3537" lon="5.98784">
        <ele>501</ele>
        <time>2019-12-17T08:19:17.000Z</time>
      </trkpt>
      <trkpt lat="43.35371" lon="5.98785">
        <ele>501</ele>
        <time>2019-12-17T08:19:18.000Z</time>
      </trkpt>
      <trkpt lat="43.35372" lon="5.98785">
        <ele>501</ele>
        <time>2019-12-17T08:19:19.000Z</time>
      </trkpt>
      <trkpt lat="43.35373" lon="5.98785">
        <ele>501</ele>
        <time>2019-12-17T08:19:20.000Z</time>
      </trkpt>
      <trkpt lat="43.35374" lon="5.98785">
        <ele>501</ele>
        <time>2019-12-17T08:19:21.000Z</time>
      </trkpt>
      <trkpt lat="43.35375" lon="5.98785">
        <ele>501</ele>
        <time>2019-12-17T08:19:22.000Z</time>
      </trkpt>
      <trkpt lat="43.35376" lon="5.98785">
        <ele>501</ele>
        <time>2019-12-17T08:19:23.000Z</time>
      </trkpt>
      <trkpt lat="43.35377" lon="5.98785">
        <ele>501</ele>
        <time>2019-12-17T08:19:24.000Z</time>
      </trkpt>
      <trkpt lat="43.35378" lon="5.98785">
        <ele>501</ele>
        <time>2019-12-17T08:19:25.000Z</time>
      </trkpt>
      <trkpt lat="43.35379" lon="5.98785">
        <ele>501</ele>
        <time>2019-12-17T08:19:26.000Z</time>
      </trkpt>
      <trkpt lat="43.3538" lon="5.98785">
        <ele>501</ele>
        <time>2019-12-17T08:19:27.000Z</time>
      </trkpt>
      <trkpt lat="43.35381" lon="5.98785">
        <ele>501</ele>
        <time>2019-12-17T08:19:28.000Z</time>
      </trkpt>
      <trkpt lat="43.35382" lon="5.98785">
        <ele>501</ele>
        <time>2019-12-17T08:19:29.000Z</time>
      </trkpt>
      <trkpt lat="43.35383" lon="5.98786">
        <ele>501</ele>
        <time>2019-12-17T08:19:30.000Z</time>
      </trkpt>
      <trkpt lat="43.35384" lon="5.98786">
        <ele>501</ele>
        <time>2019-12-17T08:19:31.000Z</time>
      </trkpt>
      <trkpt lat="43.35385" lon="5.98786">
        <ele>501</ele>
        <time>2019-12-17T08:19:32.000Z</time>
      </trkpt>
      <trkpt lat="43.35386" lon="5.98786">
        <ele>501</ele>
        <time>2019-12-17T08:19:33.000Z</time>
      </trkpt>
      <trkpt lat="43.35387" lon="5.98786">
        <ele>501</ele>
        <time>2019-12-17T08:19:34.000Z</time>
      </trkpt>
      <trkpt lat="43.35387" lon="5.98785">
        <ele>501</ele>
        <time>2019-12-17T08:19:35.000Z</time>
      </trkpt>
      <trkpt lat="43.35388" lon="5.98785">
        <ele>501</ele>
        <time>2019-12-17T08:19:36.000Z</time>
      </trkpt>
      <trkpt lat="43.35389" lon="5.98786">
        <ele>501</ele>
        <time>2019-12-17T08:19:37.000Z</time>
      </trkpt>
      <trkpt lat="43.3539" lon="5.98786">
        <ele>501</ele>
        <time>2019-12-17T08:19:38.000Z</time>
      </trkpt>
      <trkpt lat="43.35391" lon="5.98786">
        <ele>501</ele>
        <time>2019-12-17T08:19:39.000Z</time>
      </trkpt>
      <trkpt lat="43.35393" lon="5.98786">
        <ele>501</ele>
        <time>2019-12-17T08:19:40.000Z</time>
      </trkpt>
      <trkpt lat="43.35394" lon="5.98786">
        <ele>501</ele>
        <time>2019-12-17T08:19:41.000Z</time>
      </trkpt>
      <trkpt lat="43.35395" lon="5.98786">
        <ele>501</ele>
        <time>2019-12-17T08:19:42.000Z</time>
      </trkpt>
      <trkpt lat="43.35396" lon="5.98785">
        <ele>501</ele>
        <time>2019-12-17T08:19:43.000Z</time>
      </trkpt>
      <trkpt lat="43.35397" lon="5.98785">
        <ele>501</ele>
        <time>2019-12-17T08:19:44.000Z</time>
      </trkpt>
      <trkpt lat="43.35398" lon="5.98785">
        <ele>501</ele>
        <time>2019-12-17T08:19:45.000Z</time>
      </trkpt>
      <trkpt lat="43.35399" lon="5.98785">
        <ele>501</ele>
        <time>2019-12-17T08:19:46.000Z</time>
      </trkpt>
      <trkpt lat="43.354" lon="5.98785">
        <ele>501</ele>
        <time>2019-12-17T08:19:47.000Z</time>
      </trkpt>
      <trkpt lat="43.35401" lon="5.98785">
        <ele>501</ele>
        <time>2019-12-17T08:19:48.000Z</time>
      </trkpt>
      <trkpt lat="43.35402" lon="5.98784">
        <ele>501</ele>
        <time>2019-12-17T08:19:49.000Z</time>
      </trkpt>
      <trkpt lat="43.35403" lon="5.98784">
        <ele>501</ele>
        <time>2019-12-17T08:19:50.000Z</time>
      </trkpt>
      <trkpt lat="43.35403" lon="5.98784">
        <ele>501</ele>
        <time>2019-12-17T08:19:51.000Z</time>
      </trkpt>
      <trkpt lat="43.35404" lon="5.98783">
        <ele>501</ele>
        <time>2019-12-17T08:19:52.000Z</time>
      </trkpt>
      <trkpt lat="43.35404" lon="5.98783">
        <ele>501</ele>
        <time>2019-12-17T08:19:53.000Z</time>
      </trkpt>
      <trkpt lat="43.35405" lon="5.98782">
        <ele>501</ele>
        <time>2019-12-17T08:19:54.000Z</time>
      </trkpt>
      <trkpt lat="43.35406" lon="5.98782">
        <ele>502</ele>
        <time>2019-12-17T08:19:55.000Z</time>
      </trkpt>
      <trkpt lat="43.35407" lon="5.98782">
        <ele>502</ele>
        <time>2019-12-17T08:19:56.000Z</time>
      </trkpt>
      <trkpt lat="43.35408" lon="5.98782">
        <ele>502</ele>
        <time>2019-12-17T08:19:57.000Z</time>
      </trkpt>
      <trkpt lat="43.35408" lon="5.98781">
        <ele>502</ele>
        <time>2019-12-17T08:19:58.000Z</time>
      </trkpt>
      <trkpt lat="43.35409" lon="5.98781">
        <ele>502</ele>
        <time>2019-12-17T08:19:59.000Z</time>
      </trkpt>
      <trkpt lat="43.3541" lon="5.98781">
        <ele>503</ele>
        <time>2019-12-17T08:20:00.000Z</time>
      </trkpt>
      <trkpt lat="43.3541" lon="5.98781">
        <ele>503</ele>
        <time>2019-12-17T08:20:01.000Z</time>
      </trkpt>
      <trkpt lat="43.35411" lon="5.9878">
        <ele>503</ele>
        <time>2019-12-17T08:20:02.000Z</time>
      </trkpt>
      <trkpt lat="43.35411" lon="5.9878">
        <ele>503</ele>
        <time>2019-12-17T08:20:03.000Z</time>
      </trkpt>
      <trkpt lat="43.35412" lon="5.9878">
        <ele>503</ele>
        <time>2019-12-17T08:20:04.000Z</time>
      </trkpt>
      <trkpt lat="43.35413" lon="5.9878">
        <ele>503</ele>
        <time>2019-12-17T08:20:05.000Z</time>
      </trkpt>
      <trkpt lat="43.35414" lon="5.9878">
        <ele>504</ele>
        <time>2019-12-17T08:20:06.000Z</time>
      </trkpt>
      <trkpt lat="43.35415" lon="5.9878">
        <ele>504</ele>
        <time>2019-12-17T08:20:07.000Z</time>
      </trkpt>
      <trkpt lat="43.35416" lon="5.9878">
        <ele>504</ele>
        <time>2019-12-17T08:20:08.000Z</time>
      </trkpt>
      <trkpt lat="43.35417" lon="5.98779">
        <ele>504</ele>
        <time>2019-12-17T08:20:09.000Z</time>
      </trkpt>
      <trkpt lat="43.35418" lon="5.98779">
        <ele>504</ele>
        <time>2019-12-17T08:20:10.000Z</time>
      </trkpt>
      <trkpt lat="43.35419" lon="5.98779">
        <ele>505</ele>
        <time>2019-12-17T08:20:11.000Z</time>
      </trkpt>
      <trkpt lat="43.3542" lon="5.98779">
        <ele>505</ele>
        <time>2019-12-17T08:20:12.000Z</time>
      </trkpt>
      <trkpt lat="43.35421" lon="5.98779">
        <ele>505</ele>
        <time>2019-12-17T08:20:13.000Z</time>
      </trkpt>
      <trkpt lat="43.35422" lon="5.98779">
        <ele>505</ele>
        <time>2019-12-17T08:20:14.000Z</time>
      </trkpt>
      <trkpt lat="43.35423" lon="5.98779">
        <ele>505</ele>
        <time>2019-12-17T08:20:15.000Z</time>
      </trkpt>
      <trkpt lat="43.35423" lon="5.98779">
        <ele>505</ele>
        <time>2019-12-17T08:20:16.000Z</time>
      </trkpt>
      <trkpt lat="43.35423" lon="5.98779">
        <ele>506</ele>
        <time>2019-12-17T08:20:17.000Z</time>
      </trkpt>
      <trkpt lat="43.35423" lon="5.98779">
        <ele>506</ele>
        <time>2019-12-17T08:20:18.000Z</time>
      </trkpt>
      <trkpt lat="43.35423" lon="5.98779">
        <ele>506</ele>
        <time>2019-12-17T08:20:19.000Z</time>
      </trkpt>
      <trkpt lat="43.35423" lon="5.98779">
        <ele>506</ele>
        <time>2019-12-17T08:20:20.000Z</time>
      </trkpt>
      <trkpt lat="43.35423" lon="5.98779">
        <ele>506</ele>
        <time>2019-12-17T08:20:21.000Z</time>
      </trkpt>
      <trkpt lat="43.35423" lon="5.98779">
        <ele>506</ele>
        <time>2019-12-17T08:20:22.000Z</time>
      </trkpt>
      <trkpt lat="43.35423" lon="5.98779">
        <ele>506</ele>
        <time>2019-12-17T08:20:23.000Z</time>
      </trkpt>
      <trkpt lat="43.35423" lon="5.98779">
        <ele>506</ele>
        <time>2019-12-17T08:20:24.000Z</time>
      </trkpt>
      <trkpt lat="43.35423" lon="5.98779">
        <ele>506</ele>
        <time>2019-12-17T08:20:25.000Z</time>
      </trkpt>
      <trkpt lat="43.35423" lon="5.98779">
        <ele>506</ele>
        <time>2019-12-17T08:20:26.000Z</time>
      </trkpt>
      <trkpt lat="43.35423" lon="5.98779">
        <ele>506</ele>
        <time>2019-12-17T08:20:27.000Z</time>
      </trkpt>
      <trkpt lat="43.35424" lon="5.98779">
        <ele>506</ele>
        <time>2019-12-17T08:20:28.000Z</time>
      </trkpt>
      <trkpt lat="43.35424" lon="5.98779">
        <ele>506</ele>
        <time>2019-12-17T08:20:29.000Z</time>
      </trkpt>
      <trkpt lat="43.35424" lon="5.98779">
        <ele>506</ele>
        <time>2019-12-17T08:20:30.000Z</time>
      </trkpt>
      <trkpt lat="43.35424" lon="5.98779">
        <ele>506</ele>
        <time>2019-12-17T08:20:31.000Z</time>
      </trkpt>
      <trkpt lat="43.35424" lon="5.98779">
        <ele>506</ele>
        <time>2019-12-17T08:20:32.000Z</time>
      </trkpt>
      <trkpt lat="43.35425" lon="5.98779">
        <ele>506</ele>
        <time>2019-12-17T08:20:33.000Z</time>
      </trkpt>
      <trkpt lat="43.35425" lon="5.98779">
        <ele>506</ele>
        <time>2019-12-17T08:20:34.000Z</time>
      </trkpt>
      <trkpt lat="43.35425" lon="5.98779">
        <ele>506</ele>
        <time>2019-12-17T08:20:35.000Z</time>
      </trkpt>
      <trkpt lat="43.35425" lon="5.98779">
        <ele>506</ele>
        <time>2019-12-17T08:20:36.000Z</time>
      </trkpt>
      <trkpt lat="43.35425" lon="5.98779">
        <ele>506</ele>
        <time>2019-12-17T08:20:37.000Z</time>
      </trkpt>
      <trkpt lat="43.35426" lon="5.98779">
        <ele>506</ele>
        <time>2019-12-17T08:20:38.000Z</time>
      </trkpt>
      <trkpt lat="43.35426" lon="5.98779">
        <ele>506</ele>
        <time>2019-12-17T08:20:39.000Z</time>
      </trkpt>
      <trkpt lat="43.35426" lon="5.98779">
        <ele>506</ele>
        <time>2019-12-17T08:20:40.000Z</time>
      </trkpt>
      <trkpt lat="43.35426" lon="5.98779">
        <ele>506</ele>
        <time>2019-12-17T08:20:41.000Z</time>
      </trkpt>
      <trkpt lat="43.35426" lon="5.98779">
        <ele>506</ele>
        <time>2019-12-17T08:20:42.000Z</time>
      </trkpt>
      <trkpt lat="43.35426" lon="5.98779">
        <ele>506</ele>
        <time>2019-12-17T08:20:43.000Z</time>
      </trkpt>
      <trkpt lat="43.35427" lon="5.98779">
        <ele>506</ele>
        <time>2019-12-17T08:20:44.000Z</time>
      </trkpt>
      <trkpt lat="43.35427" lon="5.98779">
        <ele>506</ele>
        <time>2019-12-17T08:20:45.000Z</time>
      </trkpt>
      <trkpt lat="43.35427" lon="5.98779">
        <ele>506</ele>
        <time>2019-12-17T08:20:46.000Z</time>
      </trkpt>
      <trkpt lat="43.35427" lon="5.98779">
        <ele>506</ele>
        <time>2019-12-17T08:20:47.000Z</time>
      </trkpt>
      <trkpt lat="43.35427" lon="5.9878">
        <ele>506</ele>
        <time>2019-12-17T08:20:48.000Z</time>
      </trkpt>
      <trkpt lat="43.35427" lon="5.9878">
        <ele>506</ele>
        <time>2019-12-17T08:20:49.000Z</time>
      </trkpt>
      <trkpt lat="43.35427" lon="5.9878">
        <ele>506</ele>
        <time>2019-12-17T08:20:50.000Z</time>
      </trkpt>
      <trkpt lat="43.35427" lon="5.9878">
        <ele>506</ele>
        <time>2019-12-17T08:20:51.000Z</time>
      </trkpt>
      <trkpt lat="43.35427" lon="5.9878">
        <ele>506</ele>
        <time>2019-12-17T08:20:52.000Z</time>
      </trkpt>
      <trkpt lat="43.35427" lon="5.9878">
        <ele>506</ele>
        <time>2019-12-17T08:20:53.000Z</time>
      </trkpt>
      <trkpt lat="43.35427" lon="5.9878">
        <ele>506</ele>
        <time>2019-12-17T08:20:54.000Z</time>
      </trkpt>
      <trkpt lat="43.35427" lon="5.9878">
        <ele>506</ele>
        <time>2019-12-17T08:20:55.000Z</time>
      </trkpt>
      <trkpt lat="43.35427" lon="5.9878">
        <ele>506</ele>
        <time>2019-12-17T08:20:56.000Z</time>
      </trkpt>
      <trkpt lat="43.35427" lon="5.9878">
        <ele>506</ele>
        <time>2019-12-17T08:20:57.000Z</time>
      </trkpt>
      <trkpt lat="43.35427" lon="5.9878">
        <ele>506</ele>
        <time>2019-12-17T08:20:58.000Z</time>
      </trkpt>
      <trkpt lat="43.35427" lon="5.9878">
        <ele>506</ele>
        <time>2019-12-17T08:20:59.000Z</time>
      </trkpt>
      <trkpt lat="43.35427" lon="5.9878">
        <ele>506</ele>
        <time>2019-12-17T08:21:00.000Z</time>
      </trkpt>
      <trkpt lat="43.35427" lon="5.9878">
        <ele>506</ele>
        <time>2019-12-17T08:21:01.000Z</time>
      </trkpt>
      <trkpt lat="43.35427" lon="5.9878">
        <ele>506</ele>
        <time>2019-12-17T08:21:02.000Z</time>
      </trkpt>
      <trkpt lat="43.35428" lon="5.9878">
        <ele>506</ele>
        <time>2019-12-17T08:21:03.000Z</time>
      </trkpt>
      <trkpt lat="43.35428" lon="5.9878">
        <ele>506</ele>
        <time>2019-12-17T08:21:04.000Z</time>
      </trkpt>
      <trkpt lat="43.35428" lon="5.9878">
        <ele>506</ele>
        <time>2019-12-17T08:21:05.000Z</time>
      </trkpt>
      <trkpt lat="43.35428" lon="5.9878">
        <ele>506</ele>
        <time>2019-12-17T08:21:06.000Z</time>
      </trkpt>
      <trkpt lat="43.35428" lon="5.9878">
        <ele>506</ele>
        <time>2019-12-17T08:21:07.000Z</time>
      </trkpt>
      <trkpt lat="43.35428" lon="5.9878">
        <ele>506</ele>
        <time>2019-12-17T08:21:08.000Z</time>
      </trkpt>
      <trkpt lat="43.35428" lon="5.9878">
        <ele>506</ele>
        <time>2019-12-17T08:21:09.000Z</time>
      </trkpt>
      <trkpt lat="43.35428" lon="5.9878">
        <ele>506</ele>
        <time>2019-12-17T08:21:10.000Z</time>
      </trkpt>
      <trkpt lat="43.35428" lon="5.9878">
        <ele>506</ele>
        <time>2019-12-17T08:21:11.000Z</time>
      </trkpt>
      <trkpt lat="43.35428" lon="5.9878">
        <ele>506</ele>
        <time>2019-12-17T08:21:12.000Z</time>
      </trkpt>
      <trkpt lat="43.35428" lon="5.9878">
        <ele>506</ele>
        <time>2019-12-17T08:21:13.000Z</time>
      </trkpt>
      <trkpt lat="43.35428" lon="5.9878">
        <ele>506</ele>
        <time>2019-12-17T08:21:14.000Z</time>
      </trkpt>
      <trkpt lat="43.35428" lon="5.9878">
        <ele>506</ele>
        <time>2019-12-17T08:21:15.000Z</time>
      </trkpt>
      <trkpt lat="43.35428" lon="5.9878">
        <ele>506</ele>
        <time>2019-12-17T08:21:16.000Z</time>
      </trkpt>
      <trkpt lat="43.35428" lon="5.9878">
        <ele>506</ele>
        <time>2019-12-17T08:21:17.000Z</time>
      </trkpt>
      <trkpt lat="43.35428" lon="5.9878">
        <ele>506</ele>
        <time>2019-12-17T08:21:18.000Z</time>
      </trkpt>
      <trkpt lat="43.35428" lon="5.9878">
        <ele>506</ele>
        <time>2019-12-17T08:21:19.000Z</time>
      </trkpt>
      <trkpt lat="43.35428" lon="5.9878">
        <ele>506</ele>
        <time>2019-12-17T08:21:20.000Z</time>
      </trkpt>
      <trkpt lat="43.35428" lon="5.9878">
        <ele>506</ele>
        <time>2019-12-17T08:21:21.000Z</time>
      </trkpt>
      <trkpt lat="43.35428" lon="5.9878">
        <ele>506</ele>
        <time>2019-12-17T08:21:22.000Z</time>
      </trkpt>
      <trkpt lat="43.35428" lon="5.9878">
        <ele>506</ele>
        <time>2019-12-17T08:21:23.000Z</time>
      </trkpt>
      <trkpt lat="43.35428" lon="5.9878">
        <ele>506</ele>
        <time>2019-12-17T08:21:24.000Z</time>
      </trkpt>
      <trkpt lat="43.35428" lon="5.9878">
        <ele>506</ele>
        <time>2019-12-17T08:21:25.000Z</time>
      </trkpt>
      <trkpt lat="43.35428" lon="5.9878">
        <ele>505</ele>
        <time>2019-12-17T08:21:26.000Z</time>
      </trkpt>
      <trkpt lat="43.35428" lon="5.9878">
        <ele>505</ele>
        <time>2019-12-17T08:21:27.000Z</time>
      </trkpt>
      <trkpt lat="43.35429" lon="5.9878">
        <ele>505</ele>
        <time>2019-12-17T08:21:28.000Z</time>
      </trkpt>
      <trkpt lat="43.35429" lon="5.9878">
        <ele>505</ele>
        <time>2019-12-17T08:21:29.000Z</time>
      </trkpt>
      <trkpt lat="43.35429" lon="5.98781">
        <ele>505</ele>
        <time>2019-12-17T08:21:30.000Z</time>
      </trkpt>
      <trkpt lat="43.35429" lon="5.98781">
        <ele>505</ele>
        <time>2019-12-17T08:21:31.000Z</time>
      </trkpt>
      <trkpt lat="43.35429" lon="5.98781">
        <ele>505</ele>
        <time>2019-12-17T08:21:32.000Z</time>
      </trkpt>
      <trkpt lat="43.35429" lon="5.98781">
        <ele>505</ele>
        <time>2019-12-17T08:21:33.000Z</time>
      </trkpt>
      <trkpt lat="43.35429" lon="5.98781">
        <ele>505</ele>
        <time>2019-12-17T08:21:34.000Z</time>
      </trkpt>
      <trkpt lat="43.35429" lon="5.98781">
        <ele>505</ele>
        <time>2019-12-17T08:21:35.000Z</time>
      </trkpt>
      <trkpt lat="43.35429" lon="5.98781">
        <ele>505</ele>
        <time>2019-12-17T08:21:36.000Z</time>
      </trkpt>
      <trkpt lat="43.35429" lon="5.98781">
        <ele>505</ele>
        <time>2019-12-17T08:21:37.000Z</time>
      </trkpt>
      <trkpt lat="43.35429" lon="5.98781">
        <ele>505</ele>
        <time>2019-12-17T08:21:38.000Z</time>
      </trkpt>
      <trkpt lat="43.35429" lon="5.98781">
        <ele>505</ele>
        <time>2019-12-17T08:21:39.000Z</time>
      </trkpt>
      <trkpt lat="43.35429" lon="5.98781">
        <ele>505</ele>
        <time>2019-12-17T08:21:40.000Z</time>
      </trkpt>
      <trkpt lat="43.35429" lon="5.98781">
        <ele>505</ele>
        <time>2019-12-17T08:21:41.000Z</time>
      </trkpt>
      <trkpt lat="43.35429" lon="5.98781">
        <ele>505</ele>
        <time>2019-12-17T08:21:42.000Z</time>
      </trkpt>
      <trkpt lat="43.3543" lon="5.98781">
        <ele>505</ele>
        <time>2019-12-17T08:21:43.000Z</time>
      </trkpt>
      <trkpt lat="43.3543" lon="5.98781">
        <ele>505</ele>
        <time>2019-12-17T08:21:44.000Z</time>
      </trkpt>
      <trkpt lat="43.3543" lon="5.98781">
        <ele>505</ele>
        <time>2019-12-17T08:21:45.000Z</time>
      </trkpt>
      <trkpt lat="43.3543" lon="5.98781">
        <ele>505</ele>
        <time>2019-12-17T08:21:46.000Z</time>
      </trkpt>
      <trkpt lat="43.3543" lon="5.98781">
        <ele>505</ele>
        <time>2019-12-17T08:21:47.000Z</time>
      </trkpt>
      <trkpt lat="43.3543" lon="5.98781">
        <ele>505</ele>
        <time>2019-12-17T08:21:48.000Z</time>
      </trkpt>
      <trkpt lat="43.3543" lon="5.98782">
        <ele>505</ele>
        <time>2019-12-17T08:21:49.000Z</time>
      </trkpt>
      <trkpt lat="43.35429" lon="5.98783">
        <ele>505</ele>
        <time>2019-12-17T08:21:50.000Z</time>
      </trkpt>
      <trkpt lat="43.35429" lon="5.98784">
        <ele>505</ele>
        <time>2019-12-17T08:21:51.000Z</time>
      </trkpt>
      <trkpt lat="43.35429" lon="5.98785">
        <ele>505</ele>
        <time>2019-12-17T08:21:52.000Z</time>
      </trkpt>
      <trkpt lat="43.3543" lon="5.98785">
        <ele>505</ele>
        <time>2019-12-17T08:21:53.000Z</time>
      </trkpt>
      <trkpt lat="43.3543" lon="5.98785">
        <ele>505</ele>
        <time>2019-12-17T08:21:54.000Z</time>
      </trkpt>
      <trkpt lat="43.35431" lon="5.98786">
        <ele>505</ele>
        <time>2019-12-17T08:21:55.000Z</time>
      </trkpt>
      <trkpt lat="43.35431" lon="5.98787">
        <ele>505</ele>
        <time>2019-12-17T08:21:56.000Z</time>
      </trkpt>
      <trkpt lat="43.35431" lon="5.98787">
        <ele>505</ele>
        <time>2019-12-17T08:21:57.000Z</time>
      </trkpt>
      <trkpt lat="43.35432" lon="5.98788">
        <ele>505</ele>
        <time>2019-12-17T08:21:58.000Z</time>
      </trkpt>
      <trkpt lat="43.35432" lon="5.98788">
        <ele>505</ele>
        <time>2019-12-17T08:21:59.000Z</time>
      </trkpt>
      <trkpt lat="43.35433" lon="5.98789">
        <ele>505</ele>
        <time>2019-12-17T08:22:00.000Z</time>
      </trkpt>
      <trkpt lat="43.35434" lon="5.98789">
        <ele>505</ele>
        <time>2019-12-17T08:22:01.000Z</time>
      </trkpt>
      <trkpt lat="43.35434" lon="5.98789">
        <ele>505</ele>
        <time>2019-12-17T08:22:02.000Z</time>
      </trkpt>
      <trkpt lat="43.35434" lon="5.9879">
        <ele>505</ele>
        <time>2019-12-17T08:22:03.000Z</time>
      </trkpt>
      <trkpt lat="43.35435" lon="5.9879">
        <ele>505</ele>
        <time>2019-12-17T08:22:04.000Z</time>
      </trkpt>
      <trkpt lat="43.35435" lon="5.98791">
        <ele>505</ele>
        <time>2019-12-17T08:22:05.000Z</time>
      </trkpt>
      <trkpt lat="43.35436" lon="5.98791">
        <ele>505</ele>
        <time>2019-12-17T08:22:06.000Z</time>
      </trkpt>
      <trkpt lat="43.35436" lon="5.98792">
        <ele>505</ele>
        <time>2019-12-17T08:22:07.000Z</time>
      </trkpt>
      <trkpt lat="43.35437" lon="5.98792">
        <ele>505</ele>
        <time>2019-12-17T08:22:08.000Z</time>
      </trkpt>
      <trkpt lat="43.35437" lon="5.98792">
        <ele>505</ele>
        <time>2019-12-17T08:22:09.000Z</time>
      </trkpt>
      <trkpt lat="43.35438" lon="5.98793">
        <ele>505</ele>
        <time>2019-12-17T08:22:10.000Z</time>
      </trkpt>
      <trkpt lat="43.35439" lon="5.98793">
        <ele>505</ele>
        <time>2019-12-17T08:22:11.000Z</time>
      </trkpt>
      <trkpt lat="43.35439" lon="5.98793">
        <ele>505</ele>
        <time>2019-12-17T08:22:12.000Z</time>
      </trkpt>
      <trkpt lat="43.3544" lon="5.98793">
        <ele>505</ele>
        <time>2019-12-17T08:22:13.000Z</time>
      </trkpt>
      <trkpt lat="43.3544" lon="5.98793">
        <ele>505</ele>
        <time>2019-12-17T08:22:14.000Z</time>
      </trkpt>
      <trkpt lat="43.3544" lon="5.98793">
        <ele>505</ele>
        <time>2019-12-17T08:22:15.000Z</time>
      </trkpt>
      <trkpt lat="43.3544" lon="5.98793">
        <ele>505</ele>
        <time>2019-12-17T08:22:16.000Z</time>
      </trkpt>
      <trkpt lat="43.35441" lon="5.98793">
        <ele>505</ele>
        <time>2019-12-17T08:22:17.000Z</time>
      </trkpt>
      <trkpt lat="43.35441" lon="5.98793">
        <ele>505</ele>
        <time>2019-12-17T08:22:18.000Z</time>
      </trkpt>
      <trkpt lat="43.35441" lon="5.98793">
        <ele>506</ele>
        <time>2019-12-17T08:22:19.000Z</time>
      </trkpt>
      <trkpt lat="43.35442" lon="5.98793">
        <ele>506</ele>
        <time>2019-12-17T08:22:20.000Z</time>
      </trkpt>
      <trkpt lat="43.35442" lon="5.98793">
        <ele>506</ele>
        <time>2019-12-17T08:22:21.000Z</time>
      </trkpt>
      <trkpt lat="43.35443" lon="5.98792">
        <ele>506</ele>
        <time>2019-12-17T08:22:22.000Z</time>
      </trkpt>
      <trkpt lat="43.35443" lon="5.98793">
        <ele>506</ele>
        <time>2019-12-17T08:22:23.000Z</time>
      </trkpt>
      <trkpt lat="43.35444" lon="5.98793">
        <ele>506</ele>
        <time>2019-12-17T08:22:24.000Z</time>
      </trkpt>
      <trkpt lat="43.35444" lon="5.98794">
        <ele>507</ele>
        <time>2019-12-17T08:22:25.000Z</time>
      </trkpt>
      <trkpt lat="43.35445" lon="5.98795">
        <ele>507</ele>
        <time>2019-12-17T08:22:26.000Z</time>
      </trkpt>
      <trkpt lat="43.35445" lon="5.98795">
        <ele>507</ele>
        <time>2019-12-17T08:22:27.000Z</time>
      </trkpt>
      <trkpt lat="43.35446" lon="5.98795">
        <ele>507</ele>
        <time>2019-12-17T08:22:28.000Z</time>
      </trkpt>
      <trkpt lat="43.35447" lon="5.98796">
        <ele>507</ele>
        <time>2019-12-17T08:22:29.000Z</time>
      </trkpt>
      <trkpt lat="43.35447" lon="5.98796">
        <ele>507</ele>
        <time>2019-12-17T08:22:30.000Z</time>
      </trkpt>
      <trkpt lat="43.35448" lon="5.98796">
        <ele>507</ele>
        <time>2019-12-17T08:22:31.000Z</time>
      </trkpt>
      <trkpt lat="43.35448" lon="5.98796">
        <ele>508</ele>
        <time>2019-12-17T08:22:32.000Z</time>
      </trkpt>
      <trkpt lat="43.35448" lon="5.98796">
        <ele>508</ele>
        <time>2019-12-17T08:22:33.000Z</time>
      </trkpt>
      <trkpt lat="43.35449" lon="5.98796">
        <ele>508</ele>
        <time>2019-12-17T08:22:34.000Z</time>
      </trkpt>
      <trkpt lat="43.35449" lon="5.98797">
        <ele>508</ele>
        <time>2019-12-17T08:22:35.000Z</time>
      </trkpt>
      <trkpt lat="43.35449" lon="5.98796">
        <ele>508</ele>
        <time>2019-12-17T08:22:36.000Z</time>
      </trkpt>
      <trkpt lat="43.35449" lon="5.98796">
        <ele>508</ele>
        <time>2019-12-17T08:22:37.000Z</time>
      </trkpt>
      <trkpt lat="43.35449" lon="5.98797">
        <ele>509</ele>
        <time>2019-12-17T08:22:38.000Z</time>
      </trkpt>
      <trkpt lat="43.35449" lon="5.98797">
        <ele>509</ele>
        <time>2019-12-17T08:22:39.000Z</time>
      </trkpt>
      <trkpt lat="43.35449" lon="5.98797">
        <ele>509</ele>
        <time>2019-12-17T08:22:40.000Z</time>
      </trkpt>
      <trkpt lat="43.35449" lon="5.98797">
        <ele>509</ele>
        <time>2019-12-17T08:22:41.000Z</time>
      </trkpt>
      <trkpt lat="43.35449" lon="5.98797">
        <ele>509</ele>
        <time>2019-12-17T08:22:42.000Z</time>
      </trkpt>
      <trkpt lat="43.3545" lon="5.98797">
        <ele>509</ele>
        <time>2019-12-17T08:22:43.000Z</time>
      </trkpt>
      <trkpt lat="43.3545" lon="5.98797">
        <ele>509</ele>
        <time>2019-12-17T08:22:44.000Z</time>
      </trkpt>
      <trkpt lat="43.3545" lon="5.98797">
        <ele>509</ele>
        <time>2019-12-17T08:22:45.000Z</time>
      </trkpt>
      <trkpt lat="43.3545" lon="5.98797">
        <ele>509</ele>
        <time>2019-12-17T08:22:46.000Z</time>
      </trkpt>
      <trkpt lat="43.3545" lon="5.98797">
        <ele>509</ele>
        <time>2019-12-17T08:22:47.000Z</time>
      </trkpt>
      <trkpt lat="43.3545" lon="5.98797">
        <ele>510</ele>
        <time>2019-12-17T08:22:48.000Z</time>
      </trkpt>
      <trkpt lat="43.3545" lon="5.98797">
        <ele>510</ele>
        <time>2019-12-17T08:22:49.000Z</time>
      </trkpt>
      <trkpt lat="43.35451" lon="5.98798">
        <ele>510</ele>
        <time>2019-12-17T08:22:50.000Z</time>
      </trkpt>
      <trkpt lat="43.3545" lon="5.98798">
        <ele>510</ele>
        <time>2019-12-17T08:22:51.000Z</time>
      </trkpt>
      <trkpt lat="43.3545" lon="5.98799">
        <ele>510</ele>
        <time>2019-12-17T08:22:52.000Z</time>
      </trkpt>
      <trkpt lat="43.3545" lon="5.98799">
        <ele>510</ele>
        <time>2019-12-17T08:22:53.000Z</time>
      </trkpt>
      <trkpt lat="43.35451" lon="5.98799">
        <ele>510</ele>
        <time>2019-12-17T08:22:54.000Z</time>
      </trkpt>
      <trkpt lat="43.35451" lon="5.98799">
        <ele>510</ele>
        <time>2019-12-17T08:22:55.000Z</time>
      </trkpt>
      <trkpt lat="43.35451" lon="5.988">
        <ele>510</ele>
        <time>2019-12-17T08:22:56.000Z</time>
      </trkpt>
      <trkpt lat="43.35451" lon="5.988">
        <ele>511</ele>
        <time>2019-12-17T08:22:57.000Z</time>
      </trkpt>
      <trkpt lat="43.35451" lon="5.988">
        <ele>511</ele>
        <time>2019-12-17T08:22:58.000Z</time>
      </trkpt>
      <trkpt lat="43.35451" lon="5.988">
        <ele>511</ele>
        <time>2019-12-17T08:22:59.000Z</time>
      </trkpt>
      <trkpt lat="43.35451" lon="5.988">
        <ele>511</ele>
        <time>2019-12-17T08:23:00.000Z</time>
      </trkpt>
      <trkpt lat="43.35451" lon="5.988">
        <ele>511</ele>
        <time>2019-12-17T08:23:01.000Z</time>
      </trkpt>
      <trkpt lat="43.35452" lon="5.988">
        <ele>511</ele>
        <time>2019-12-17T08:23:02.000Z</time>
      </trkpt>
      <trkpt lat="43.35452" lon="5.988">
        <ele>511</ele>
        <time>2019-12-17T08:23:03.000Z</time>
      </trkpt>
      <trkpt lat="43.35452" lon="5.988">
        <ele>511</ele>
        <time>2019-12-17T08:23:04.000Z</time>
      </trkpt>
      <trkpt lat="43.35453" lon="5.988">
        <ele>511</ele>
        <time>2019-12-17T08:23:05.000Z</time>
      </trkpt>
      <trkpt lat="43.35453" lon="5.98801">
        <ele>511</ele>
        <time>2019-12-17T08:23:06.000Z</time>
      </trkpt>
      <trkpt lat="43.35454" lon="5.98801">
        <ele>511</ele>
        <time>2019-12-17T08:23:07.000Z</time>
      </trkpt>
      <trkpt lat="43.35454" lon="5.98802">
        <ele>511</ele>
        <time>2019-12-17T08:23:08.000Z</time>
      </trkpt>
      <trkpt lat="43.35454" lon="5.98802">
        <ele>511</ele>
        <time>2019-12-17T08:23:09.000Z</time>
      </trkpt>
      <trkpt lat="43.35454" lon="5.98802">
        <ele>511</ele>
        <time>2019-12-17T08:23:10.000Z</time>
      </trkpt>
      <trkpt lat="43.35454" lon="5.98803">
        <ele>511</ele>
        <time>2019-12-17T08:23:11.000Z</time>
      </trkpt>
      <trkpt lat="43.35454" lon="5.98803">
        <ele>511</ele>
        <time>2019-12-17T08:23:12.000Z</time>
      </trkpt>
      <trkpt lat="43.35454" lon="5.98803">
        <ele>512</ele>
        <time>2019-12-17T08:23:13.000Z</time>
      </trkpt>
      <trkpt lat="43.35454" lon="5.98803">
        <ele>512</ele>
        <time>2019-12-17T08:23:14.000Z</time>
      </trkpt>
      <trkpt lat="43.35454" lon="5.98803">
        <ele>512</ele>
        <time>2019-12-17T08:23:15.000Z</time>
      </trkpt>
      <trkpt lat="43.35454" lon="5.98803">
        <ele>512</ele>
        <time>2019-12-17T08:23:16.000Z</time>
      </trkpt>
      <trkpt lat="43.35454" lon="5.98803">
        <ele>512</ele>
        <time>2019-12-17T08:23:17.000Z</time>
      </trkpt>
      <trkpt lat="43.35454" lon="5.98803">
        <ele>512</ele>
        <time>2019-12-17T08:23:18.000Z</time>
      </trkpt>
      <trkpt lat="43.35455" lon="5.98803">
        <ele>512</ele>
        <time>2019-12-17T08:23:19.000Z</time>
      </trkpt>
      <trkpt lat="43.35455" lon="5.98803">
        <ele>512</ele>
        <time>2019-12-17T08:23:20.000Z</time>
      </trkpt>
      <trkpt lat="43.35455" lon="5.98803">
        <ele>513</ele>
        <time>2019-12-17T08:23:21.000Z</time>
      </trkpt>
      <trkpt lat="43.35455" lon="5.98802">
        <ele>513</ele>
        <time>2019-12-17T08:23:22.000Z</time>
      </trkpt>
      <trkpt lat="43.35455" lon="5.98802">
        <ele>513</ele>
        <time>2019-12-17T08:23:23.000Z</time>
      </trkpt>
      <trkpt lat="43.35455" lon="5.98801">
        <ele>513</ele>
        <time>2019-12-17T08:23:24.000Z</time>
      </trkpt>
      <trkpt lat="43.35455" lon="5.98802">
        <ele>513</ele>
        <time>2019-12-17T08:23:25.000Z</time>
      </trkpt>
      <trkpt lat="43.35455" lon="5.98802">
        <ele>513</ele>
        <time>2019-12-17T08:23:26.000Z</time>
      </trkpt>
      <trkpt lat="43.35455" lon="5.98802">
        <ele>513</ele>
        <time>2019-12-17T08:23:27.000Z</time>
      </trkpt>
      <trkpt lat="43.35455" lon="5.98802">
        <ele>514</ele>
        <time>2019-12-17T08:23:28.000Z</time>
      </trkpt>
      <trkpt lat="43.35455" lon="5.98802">
        <ele>514</ele>
        <time>2019-12-17T08:23:29.000Z</time>
      </trkpt>
      <trkpt lat="43.35455" lon="5.98802">
        <ele>514</ele>
        <time>2019-12-17T08:23:30.000Z</time>
      </trkpt>
      <trkpt lat="43.35455" lon="5.98802">
        <ele>514</ele>
        <time>2019-12-17T08:23:31.000Z</time>
      </trkpt>
      <trkpt lat="43.35455" lon="5.98802">
        <ele>514</ele>
        <time>2019-12-17T08:23:32.000Z</time>
      </trkpt>
      <trkpt lat="43.35455" lon="5.98802">
        <ele>514</ele>
        <time>2019-12-17T08:23:33.000Z</time>
      </trkpt>
      <trkpt lat="43.35454" lon="5.98802">
        <ele>514</ele>
        <time>2019-12-17T08:23:34.000Z</time>
      </trkpt>
      <trkpt lat="43.35454" lon="5.98802">
        <ele>514</ele>
        <time>2019-12-17T08:23:35.000Z</time>
      </trkpt>
      <trkpt lat="43.35454" lon="5.98802">
        <ele>514</ele>
        <time>2019-12-17T08:23:36.000Z</time>
      </trkpt>
      <trkpt lat="43.35454" lon="5.98802">
        <ele>515</ele>
        <time>2019-12-17T08:23:37.000Z</time>
      </trkpt>
      <trkpt lat="43.35454" lon="5.98801">
        <ele>515</ele>
        <time>2019-12-17T08:23:38.000Z</time>
      </trkpt>
      <trkpt lat="43.35455" lon="5.98801">
        <ele>515</ele>
        <time>2019-12-17T08:23:39.000Z</time>
      </trkpt>
      <trkpt lat="43.35454" lon="5.98801">
        <ele>515</ele>
        <time>2019-12-17T08:23:40.000Z</time>
      </trkpt>
      <trkpt lat="43.35454" lon="5.98801">
        <ele>515</ele>
        <time>2019-12-17T08:23:41.000Z</time>
      </trkpt>
      <trkpt lat="43.35454" lon="5.98801">
        <ele>515</ele>
        <time>2019-12-17T08:23:42.000Z</time>
      </trkpt>
      <trkpt lat="43.35454" lon="5.98801">
        <ele>515</ele>
        <time>2019-12-17T08:23:43.000Z</time>
      </trkpt>
      <trkpt lat="43.35454" lon="5.98801">
        <ele>515</ele>
        <time>2019-12-17T08:23:44.000Z</time>
      </trkpt>
      <trkpt lat="43.35454" lon="5.98801">
        <ele>515</ele>
        <time>2019-12-17T08:23:45.000Z</time>
      </trkpt>
      <trkpt lat="43.35455" lon="5.988">
        <ele>516</ele>
        <time>2019-12-17T08:23:46.000Z</time>
      </trkpt>
      <trkpt lat="43.35455" lon="5.988">
        <ele>516</ele>
        <time>2019-12-17T08:23:47.000Z</time>
      </trkpt>
      <trkpt lat="43.35455" lon="5.988">
        <ele>516</ele>
        <time>2019-12-17T08:23:48.000Z</time>
      </trkpt>
      <trkpt lat="43.35456" lon="5.98801">
        <ele>516</ele>
        <time>2019-12-17T08:23:49.000Z</time>
      </trkpt>
      <trkpt lat="43.35456" lon="5.98801">
        <ele>516</ele>
        <time>2019-12-17T08:23:50.000Z</time>
      </trkpt>
      <trkpt lat="43.35456" lon="5.98801">
        <ele>516</ele>
        <time>2019-12-17T08:23:51.000Z</time>
      </trkpt>
      <trkpt lat="43.35457" lon="5.98801">
        <ele>516</ele>
        <time>2019-12-17T08:23:52.000Z</time>
      </trkpt>
      <trkpt lat="43.35457" lon="5.98801">
        <ele>516</ele>
        <time>2019-12-17T08:23:53.000Z</time>
      </trkpt>
      <trkpt lat="43.35458" lon="5.98801">
        <ele>517</ele>
        <time>2019-12-17T08:23:54.000Z</time>
      </trkpt>
      <trkpt lat="43.35458" lon="5.98802">
        <ele>517</ele>
        <time>2019-12-17T08:23:55.000Z</time>
      </trkpt>
      <trkpt lat="43.35458" lon="5.98802">
        <ele>517</ele>
        <time>2019-12-17T08:23:56.000Z</time>
      </trkpt>
      <trkpt lat="43.35458" lon="5.98803">
        <ele>517</ele>
        <time>2019-12-17T08:23:57.000Z</time>
      </trkpt>
      <trkpt lat="43.35459" lon="5.98803">
        <ele>517</ele>
        <time>2019-12-17T08:23:58.000Z</time>
      </trkpt>
      <trkpt lat="43.35459" lon="5.98803">
        <ele>517</ele>
        <time>2019-12-17T08:23:59.000Z</time>
      </trkpt>
      <trkpt lat="43.35459" lon="5.98803">
        <ele>518</ele>
        <time>2019-12-17T08:24:00.000Z</time>
      </trkpt>
      <trkpt lat="43.35459" lon="5.98803">
        <ele>518</ele>
        <time>2019-12-17T08:24:01.000Z</time>
      </trkpt>
      <trkpt lat="43.35459" lon="5.98803">
        <ele>518</ele>
        <time>2019-12-17T08:24:02.000Z</time>
      </trkpt>
      <trkpt lat="43.35459" lon="5.98803">
        <ele>518</ele>
        <time>2019-12-17T08:24:03.000Z</time>
      </trkpt>
      <trkpt lat="43.35459" lon="5.98803">
        <ele>518</ele>
        <time>2019-12-17T08:24:04.000Z</time>
      </trkpt>
      <trkpt lat="43.35459" lon="5.98803">
        <ele>519</ele>
        <time>2019-12-17T08:24:05.000Z</time>
      </trkpt>
      <trkpt lat="43.35458" lon="5.98803">
        <ele>519</ele>
        <time>2019-12-17T08:24:06.000Z</time>
      </trkpt>
      <trkpt lat="43.35458" lon="5.98803">
        <ele>519</ele>
        <time>2019-12-17T08:24:07.000Z</time>
      </trkpt>
      <trkpt lat="43.35458" lon="5.98804">
        <ele>520</ele>
        <time>2019-12-17T08:24:08.000Z</time>
      </trkpt>
      <trkpt lat="43.35458" lon="5.98804">
        <ele>520</ele>
        <time>2019-12-17T08:24:09.000Z</time>
      </trkpt>
      <trkpt lat="43.35457" lon="5.98804">
        <ele>520</ele>
        <time>2019-12-17T08:24:10.000Z</time>
      </trkpt>
      <trkpt lat="43.35456" lon="5.98805">
        <ele>520</ele>
        <time>2019-12-17T08:24:11.000Z</time>
      </trkpt>
      <trkpt lat="43.35456" lon="5.98805">
        <ele>521</ele>
        <time>2019-12-17T08:24:12.000Z</time>
      </trkpt>
      <trkpt lat="43.35456" lon="5.98805">
        <ele>521</ele>
        <time>2019-12-17T08:24:13.000Z</time>
      </trkpt>
      <trkpt lat="43.35456" lon="5.98805">
        <ele>521</ele>
        <time>2019-12-17T08:24:14.000Z</time>
      </trkpt>
      <trkpt lat="43.35455" lon="5.98805">
        <ele>521</ele>
        <time>2019-12-17T08:24:15.000Z</time>
      </trkpt>
      <trkpt lat="43.35455" lon="5.98805">
        <ele>521</ele>
        <time>2019-12-17T08:24:16.000Z</time>
      </trkpt>
      <trkpt lat="43.35454" lon="5.98805">
        <ele>522</ele>
        <time>2019-12-17T08:24:17.000Z</time>
      </trkpt>
      <trkpt lat="43.35454" lon="5.98805">
        <ele>522</ele>
        <time>2019-12-17T08:24:18.000Z</time>
      </trkpt>
      <trkpt lat="43.35453" lon="5.98806">
        <ele>522</ele>
        <time>2019-12-17T08:24:19.000Z</time>
      </trkpt>
      <trkpt lat="43.35453" lon="5.98806">
        <ele>522</ele>
        <time>2019-12-17T08:24:20.000Z</time>
      </trkpt>
      <trkpt lat="43.35453" lon="5.98806">
        <ele>523</ele>
        <time>2019-12-17T08:24:21.000Z</time>
      </trkpt>
      <trkpt lat="43.35453" lon="5.98806">
        <ele>523</ele>
        <time>2019-12-17T08:24:22.000Z</time>
      </trkpt>
      <trkpt lat="43.35453" lon="5.98806">
        <ele>523</ele>
        <time>2019-12-17T08:24:23.000Z</time>
      </trkpt>
      <trkpt lat="43.35452" lon="5.98807">
        <ele>523</ele>
        <time>2019-12-17T08:24:24.000Z</time>
      </trkpt>
      <trkpt lat="43.35452" lon="5.98807">
        <ele>524</ele>
        <time>2019-12-17T08:24:25.000Z</time>
      </trkpt>
      <trkpt lat="43.35452" lon="5.98808">
        <ele>524</ele>
        <time>2019-12-17T08:24:26.000Z</time>
      </trkpt>
      <trkpt lat="43.35452" lon="5.98808">
        <ele>524</ele>
        <time>2019-12-17T08:24:27.000Z</time>
      </trkpt>
      <trkpt lat="43.35452" lon="5.98808">
        <ele>524</ele>
        <time>2019-12-17T08:24:28.000Z</time>
      </trkpt>
      <trkpt lat="43.35452" lon="5.98809">
        <ele>524</ele>
        <time>2019-12-17T08:24:29.000Z</time>
      </trkpt>
      <trkpt lat="43.35451" lon="5.98809">
        <ele>525</ele>
        <time>2019-12-17T08:24:30.000Z</time>
      </trkpt>
      <trkpt lat="43.35451" lon="5.98809">
        <ele>525</ele>
        <time>2019-12-17T08:24:31.000Z</time>
      </trkpt>
      <trkpt lat="43.35451" lon="5.98809">
        <ele>525</ele>
        <time>2019-12-17T08:24:32.000Z</time>
      </trkpt>
      <trkpt lat="43.35451" lon="5.9881">
        <ele>526</ele>
        <time>2019-12-17T08:24:33.000Z</time>
      </trkpt>
      <trkpt lat="43.35451" lon="5.9881">
        <ele>526</ele>
        <time>2019-12-17T08:24:34.000Z</time>
      </trkpt>
      <trkpt lat="43.3545" lon="5.9881">
        <ele>526</ele>
        <time>2019-12-17T08:24:35.000Z</time>
      </trkpt>
      <trkpt lat="43.3545" lon="5.98811">
        <ele>526</ele>
        <time>2019-12-17T08:24:36.000Z</time>
      </trkpt>
      <trkpt lat="43.3545" lon="5.98811">
        <ele>526</ele>
        <time>2019-12-17T08:24:37.000Z</time>
      </trkpt>
      <trkpt lat="43.3545" lon="5.98811">
        <ele>527</ele>
        <time>2019-12-17T08:24:38.000Z</time>
      </trkpt>
      <trkpt lat="43.3545" lon="5.98811">
        <ele>527</ele>
        <time>2019-12-17T08:24:39.000Z</time>
      </trkpt>
      <trkpt lat="43.3545" lon="5.98812">
        <ele>527</ele>
        <time>2019-12-17T08:24:40.000Z</time>
      </trkpt>
      <trkpt lat="43.3545" lon="5.98812">
        <ele>527</ele>
        <time>2019-12-17T08:24:41.000Z</time>
      </trkpt>
      <trkpt lat="43.3545" lon="5.98812">
        <ele>527</ele>
        <time>2019-12-17T08:24:42.000Z</time>
      </trkpt>
      <trkpt lat="43.3545" lon="5.98812">
        <ele>528</ele>
        <time>2019-12-17T08:24:43.000Z</time>
      </trkpt>
      <trkpt lat="43.3545" lon="5.98812">
        <ele>528</ele>
        <time>2019-12-17T08:24:44.000Z</time>
      </trkpt>
      <trkpt lat="43.3545" lon="5.98813">
        <ele>528</ele>
        <time>2019-12-17T08:24:45.000Z</time>
      </trkpt>
      <trkpt lat="43.3545" lon="5.98813">
        <ele>528</ele>
        <time>2019-12-17T08:24:46.000Z</time>
      </trkpt>
      <trkpt lat="43.3545" lon="5.98813">
        <ele>528</ele>
        <time>2019-12-17T08:24:47.000Z</time>
      </trkpt>
      <trkpt lat="43.35449" lon="5.98813">
        <ele>529</ele>
        <time>2019-12-17T08:24:48.000Z</time>
      </trkpt>
      <trkpt lat="43.35449" lon="5.98813">
        <ele>529</ele>
        <time>2019-12-17T08:24:49.000Z</time>
      </trkpt>
      <trkpt lat="43.35449" lon="5.98814">
        <ele>529</ele>
        <time>2019-12-17T08:24:50.000Z</time>
      </trkpt>
      <trkpt lat="43.35449" lon="5.98814">
        <ele>529</ele>
        <time>2019-12-17T08:24:51.000Z</time>
      </trkpt>
      <trkpt lat="43.35449" lon="5.98814">
        <ele>529</ele>
        <time>2019-12-17T08:24:52.000Z</time>
      </trkpt>
      <trkpt lat="43.35449" lon="5.98814">
        <ele>529</ele>
        <time>2019-12-17T08:24:53.000Z</time>
      </trkpt>
      <trkpt lat="43.35449" lon="5.98814">
        <ele>529</ele>
        <time>2019-12-17T08:24:54.000Z</time>
      </trkpt>
      <trkpt lat="43.35449" lon="5.98814">
        <ele>530</ele>
        <time>2019-12-17T08:24:55.000Z</time>
      </trkpt>
      <trkpt lat="43.35449" lon="5.98814">
        <ele>530</ele>
        <time>2019-12-17T08:24:56.000Z</time>
      </trkpt>
      <trkpt lat="43.35449" lon="5.98815">
        <ele>530</ele>
        <time>2019-12-17T08:24:57.000Z</time>
      </trkpt>
      <trkpt lat="43.35449" lon="5.98815">
        <ele>530</ele>
        <time>2019-12-17T08:24:58.000Z</time>
      </trkpt>
      <trkpt lat="43.35449" lon="5.98815">
        <ele>530</ele>
        <time>2019-12-17T08:24:59.000Z</time>
      </trkpt>
      <trkpt lat="43.35449" lon="5.98815">
        <ele>530</ele>
        <time>2019-12-17T08:25:00.000Z</time>
      </trkpt>
      <trkpt lat="43.35449" lon="5.98815">
        <ele>530</ele>
        <time>2019-12-17T08:25:01.000Z</time>
      </trkpt>
      <trkpt lat="43.35449" lon="5.98815">
        <ele>530</ele>
        <time>2019-12-17T08:25:02.000Z</time>
      </trkpt>
      <trkpt lat="43.35449" lon="5.98815">
        <ele>530</ele>
        <time>2019-12-17T08:25:03.000Z</time>
      </trkpt>
      <trkpt lat="43.35449" lon="5.98815">
        <ele>530</ele>
        <time>2019-12-17T08:25:04.000Z</time>
      </trkpt>
      <trkpt lat="43.35449" lon="5.98815">
        <ele>530</ele>
        <time>2019-12-17T08:25:05.000Z</time>
      </trkpt>
      <trkpt lat="43.35449" lon="5.98815">
        <ele>531</ele>
        <time>2019-12-17T08:25:06.000Z</time>
      </trkpt>
      <trkpt lat="43.35449" lon="5.98815">
        <ele>531</ele>
        <time>2019-12-17T08:25:07.000Z</time>
      </trkpt>
      <trkpt lat="43.35448" lon="5.98816">
        <ele>531</ele>
        <time>2019-12-17T08:25:08.000Z</time>
      </trkpt>
      <trkpt lat="43.35448" lon="5.98816">
        <ele>531</ele>
        <time>2019-12-17T08:25:09.000Z</time>
      </trkpt>
      <trkpt lat="43.35449" lon="5.98816">
        <ele>531</ele>
        <time>2019-12-17T08:25:10.000Z</time>
      </trkpt>
      <trkpt lat="43.35449" lon="5.98816">
        <ele>531</ele>
        <time>2019-12-17T08:25:11.000Z</time>
      </trkpt>
      <trkpt lat="43.35449" lon="5.98816">
        <ele>531</ele>
        <time>2019-12-17T08:25:12.000Z</time>
      </trkpt>
      <trkpt lat="43.35449" lon="5.98816">
        <ele>531</ele>
        <time>2019-12-17T08:25:13.000Z</time>
      </trkpt>
      <trkpt lat="43.35449" lon="5.98816">
        <ele>531</ele>
        <time>2019-12-17T08:25:14.000Z</time>
      </trkpt>
      <trkpt lat="43.35449" lon="5.98816">
        <ele>531</ele>
        <time>2019-12-17T08:25:15.000Z</time>
      </trkpt>
      <trkpt lat="43.35449" lon="5.98816">
        <ele>531</ele>
        <time>2019-12-17T08:25:16.000Z</time>
      </trkpt>
      <trkpt lat="43.35449" lon="5.98816">
        <ele>532</ele>
        <time>2019-12-17T08:25:17.000Z</time>
      </trkpt>
      <trkpt lat="43.35449" lon="5.98816">
        <ele>532</ele>
        <time>2019-12-17T08:25:18.000Z</time>
      </trkpt>
      <trkpt lat="43.35449" lon="5.98816">
        <ele>532</ele>
        <time>2019-12-17T08:25:19.000Z</time>
      </trkpt>
      <trkpt lat="43.35449" lon="5.98816">
        <ele>532</ele>
        <time>2019-12-17T08:25:20.000Z</time>
      </trkpt>
      <trkpt lat="43.35448" lon="5.98816">
        <ele>532</ele>
        <time>2019-12-17T08:25:21.000Z</time>
      </trkpt>
      <trkpt lat="43.35448" lon="5.98816">
        <ele>532</ele>
        <time>2019-12-17T08:25:22.000Z</time>
      </trkpt>
      <trkpt lat="43.35448" lon="5.98816">
        <ele>532</ele>
        <time>2019-12-17T08:25:23.000Z</time>
      </trkpt>
      <trkpt lat="43.35448" lon="5.98816">
        <ele>532</ele>
        <time>2019-12-17T08:25:24.000Z</time>
      </trkpt>
      <trkpt lat="43.35447" lon="5.98815">
        <ele>532</ele>
        <time>2019-12-17T08:25:25.000Z</time>
      </trkpt>
      <trkpt lat="43.35447" lon="5.98815">
        <ele>532</ele>
        <time>2019-12-17T08:25:26.000Z</time>
      </trkpt>
      <trkpt lat="43.35446" lon="5.98814">
        <ele>532</ele>
        <time>2019-12-17T08:25:27.000Z</time>
      </trkpt>
      <trkpt lat="43.35446" lon="5.98814">
        <ele>532</ele>
        <time>2019-12-17T08:25:28.000Z</time>
      </trkpt>
      <trkpt lat="43.35446" lon="5.98814">
        <ele>532</ele>
        <time>2019-12-17T08:25:29.000Z</time>
      </trkpt>
      <trkpt lat="43.35445" lon="5.98814">
        <ele>532</ele>
        <time>2019-12-17T08:25:30.000Z</time>
      </trkpt>
      <trkpt lat="43.35445" lon="5.98814">
        <ele>532</ele>
        <time>2019-12-17T08:25:31.000Z</time>
      </trkpt>
      <trkpt lat="43.35445" lon="5.98813">
        <ele>532</ele>
        <time>2019-12-17T08:25:32.000Z</time>
      </trkpt>
      <trkpt lat="43.35445" lon="5.98813">
        <ele>533</ele>
        <time>2019-12-17T08:25:33.000Z</time>
      </trkpt>
      <trkpt lat="43.35445" lon="5.98813">
        <ele>533</ele>
        <time>2019-12-17T08:25:34.000Z</time>
      </trkpt>
      <trkpt lat="43.35444" lon="5.98813">
        <ele>533</ele>
        <time>2019-12-17T08:25:35.000Z</time>
      </trkpt>
      <trkpt lat="43.35445" lon="5.98813">
        <ele>533</ele>
        <time>2019-12-17T08:25:36.000Z</time>
      </trkpt>
      <trkpt lat="43.35444" lon="5.98813">
        <ele>533</ele>
        <time>2019-12-17T08:25:37.000Z</time>
      </trkpt>
      <trkpt lat="43.35444" lon="5.98812">
        <ele>533</ele>
        <time>2019-12-17T08:25:38.000Z</time>
      </trkpt>
      <trkpt lat="43.35444" lon="5.98812">
        <ele>533</ele>
        <time>2019-12-17T08:25:39.000Z</time>
      </trkpt>
      <trkpt lat="43.35444" lon="5.98812">
        <ele>533</ele>
        <time>2019-12-17T08:25:40.000Z</time>
      </trkpt>
      <trkpt lat="43.35444" lon="5.98812">
        <ele>534</ele>
        <time>2019-12-17T08:25:41.000Z</time>
      </trkpt>
      <trkpt lat="43.35443" lon="5.98813">
        <ele>534</ele>
        <time>2019-12-17T08:25:42.000Z</time>
      </trkpt>
      <trkpt lat="43.35443" lon="5.98813">
        <ele>534</ele>
        <time>2019-12-17T08:25:43.000Z</time>
      </trkpt>
      <trkpt lat="43.35443" lon="5.98813">
        <ele>534</ele>
        <time>2019-12-17T08:25:44.000Z</time>
      </trkpt>
      <trkpt lat="43.35443" lon="5.98813">
        <ele>534</ele>
        <time>2019-12-17T08:25:45.000Z</time>
      </trkpt>
      <trkpt lat="43.35442" lon="5.98813">
        <ele>535</ele>
        <time>2019-12-17T08:25:46.000Z</time>
      </trkpt>
      <trkpt lat="43.35442" lon="5.98813">
        <ele>535</ele>
        <time>2019-12-17T08:25:47.000Z</time>
      </trkpt>
      <trkpt lat="43.35442" lon="5.98813">
        <ele>535</ele>
        <time>2019-12-17T08:25:48.000Z</time>
      </trkpt>
      <trkpt lat="43.35442" lon="5.98812">
        <ele>535</ele>
        <time>2019-12-17T08:25:49.000Z</time>
      </trkpt>
      <trkpt lat="43.35442" lon="5.98812">
        <ele>536</ele>
        <time>2019-12-17T08:25:50.000Z</time>
      </trkpt>
      <trkpt lat="43.35442" lon="5.98812">
        <ele>536</ele>
        <time>2019-12-17T08:25:51.000Z</time>
      </trkpt>
      <trkpt lat="43.35441" lon="5.98812">
        <ele>536</ele>
        <time>2019-12-17T08:25:52.000Z</time>
      </trkpt>
      <trkpt lat="43.35441" lon="5.98811">
        <ele>536</ele>
        <time>2019-12-17T08:25:53.000Z</time>
      </trkpt>
      <trkpt lat="43.35441" lon="5.98811">
        <ele>536</ele>
        <time>2019-12-17T08:25:54.000Z</time>
      </trkpt>
      <trkpt lat="43.35441" lon="5.98811">
        <ele>537</ele>
        <time>2019-12-17T08:25:55.000Z</time>
      </trkpt>
      <trkpt lat="43.35441" lon="5.98811">
        <ele>537</ele>
        <time>2019-12-17T08:25:56.000Z</time>
      </trkpt>
      <trkpt lat="43.35441" lon="5.98811">
        <ele>537</ele>
        <time>2019-12-17T08:25:57.000Z</time>
      </trkpt>
      <trkpt lat="43.35441" lon="5.98811">
        <ele>537</ele>
        <time>2019-12-17T08:25:58.000Z</time>
      </trkpt>
      <trkpt lat="43.35441" lon="5.9881">
        <ele>537</ele>
        <time>2019-12-17T08:25:59.000Z</time>
      </trkpt>
      <trkpt lat="43.35441" lon="5.9881">
        <ele>537</ele>
        <time>2019-12-17T08:26:00.000Z</time>
      </trkpt>
      <trkpt lat="43.35441" lon="5.98809">
        <ele>537</ele>
        <time>2019-12-17T08:26:01.000Z</time>
      </trkpt>
      <trkpt lat="43.35441" lon="5.98809">
        <ele>537</ele>
        <time>2019-12-17T08:26:02.000Z</time>
      </trkpt>
      <trkpt lat="43.35441" lon="5.98809">
        <ele>537</ele>
        <time>2019-12-17T08:26:03.000Z</time>
      </trkpt>
      <trkpt lat="43.35441" lon="5.98809">
        <ele>538</ele>
        <time>2019-12-17T08:26:04.000Z</time>
      </trkpt>
      <trkpt lat="43.35442" lon="5.98809">
        <ele>538</ele>
        <time>2019-12-17T08:26:05.000Z</time>
      </trkpt>
      <trkpt lat="43.35442" lon="5.98809">
        <ele>538</ele>
        <time>2019-12-17T08:26:06.000Z</time>
      </trkpt>
      <trkpt lat="43.35442" lon="5.98808">
        <ele>538</ele>
        <time>2019-12-17T08:26:07.000Z</time>
      </trkpt>
      <trkpt lat="43.35443" lon="5.98808">
        <ele>538</ele>
        <time>2019-12-17T08:26:08.000Z</time>
      </trkpt>
      <trkpt lat="43.35443" lon="5.98808">
        <ele>538</ele>
        <time>2019-12-17T08:26:09.000Z</time>
      </trkpt>
      <trkpt lat="43.35443" lon="5.98809">
        <ele>538</ele>
        <time>2019-12-17T08:26:10.000Z</time>
      </trkpt>
      <trkpt lat="43.35443" lon="5.98809">
        <ele>539</ele>
        <time>2019-12-17T08:26:11.000Z</time>
      </trkpt>
      <trkpt lat="43.35444" lon="5.98808">
        <ele>539</ele>
        <time>2019-12-17T08:26:12.000Z</time>
      </trkpt>
      <trkpt lat="43.35445" lon="5.98807">
        <ele>539</ele>
        <time>2019-12-17T08:26:13.000Z</time>
      </trkpt>
      <trkpt lat="43.35446" lon="5.98807">
        <ele>539</ele>
        <time>2019-12-17T08:26:14.000Z</time>
      </trkpt>
      <trkpt lat="43.35447" lon="5.98807">
        <ele>539</ele>
        <time>2019-12-17T08:26:15.000Z</time>
      </trkpt>
      <trkpt lat="43.35447" lon="5.98806">
        <ele>539</ele>
        <time>2019-12-17T08:26:16.000Z</time>
      </trkpt>
      <trkpt lat="43.35448" lon="5.98805">
        <ele>540</ele>
        <time>2019-12-17T08:26:17.000Z</time>
      </trkpt>
      <trkpt lat="43.35448" lon="5.98805">
        <ele>540</ele>
        <time>2019-12-17T08:26:18.000Z</time>
      </trkpt>
      <trkpt lat="43.35448" lon="5.98805">
        <ele>540</ele>
        <time>2019-12-17T08:26:19.000Z</time>
      </trkpt>
      <trkpt lat="43.35448" lon="5.98805">
        <ele>540</ele>
        <time>2019-12-17T08:26:20.000Z</time>
      </trkpt>
      <trkpt lat="43.35449" lon="5.98805">
        <ele>540</ele>
        <time>2019-12-17T08:26:21.000Z</time>
      </trkpt>
      <trkpt lat="43.35449" lon="5.98804">
        <ele>540</ele>
        <time>2019-12-17T08:26:22.000Z</time>
      </trkpt>
      <trkpt lat="43.35449" lon="5.98803">
        <ele>540</ele>
        <time>2019-12-17T08:26:23.000Z</time>
      </trkpt>
      <trkpt lat="43.3545" lon="5.98803">
        <ele>540</ele>
        <time>2019-12-17T08:26:24.000Z</time>
      </trkpt>
      <trkpt lat="43.3545" lon="5.98802">
        <ele>540</ele>
        <time>2019-12-17T08:26:25.000Z</time>
      </trkpt>
      <trkpt lat="43.3545" lon="5.98802">
        <ele>540</ele>
        <time>2019-12-17T08:26:26.000Z</time>
      </trkpt>
      <trkpt lat="43.3545" lon="5.98802">
        <ele>540</ele>
        <time>2019-12-17T08:26:27.000Z</time>
      </trkpt>
      <trkpt lat="43.3545" lon="5.98802">
        <ele>540</ele>
        <time>2019-12-17T08:26:28.000Z</time>
      </trkpt>
      <trkpt lat="43.3545" lon="5.98802">
        <ele>540</ele>
        <time>2019-12-17T08:26:29.000Z</time>
      </trkpt>
      <trkpt lat="43.3545" lon="5.98802">
        <ele>540</ele>
        <time>2019-12-17T08:26:30.000Z</time>
      </trkpt>
      <trkpt lat="43.3545" lon="5.98802">
        <ele>540</ele>
        <time>2019-12-17T08:26:31.000Z</time>
      </trkpt>
      <trkpt lat="43.3545" lon="5.98802">
        <ele>540</ele>
        <time>2019-12-17T08:26:32.000Z</time>
      </trkpt>
      <trkpt lat="43.3545" lon="5.98802">
        <ele>541</ele>
        <time>2019-12-17T08:26:33.000Z</time>
      </trkpt>
      <trkpt lat="43.3545" lon="5.98802">
        <ele>541</ele>
        <time>2019-12-17T08:26:34.000Z</time>
      </trkpt>
      <trkpt lat="43.3545" lon="5.98802">
        <ele>541</ele>
        <time>2019-12-17T08:26:35.000Z</time>
      </trkpt>
      <trkpt lat="43.3545" lon="5.98802">
        <ele>541</ele>
        <time>2019-12-17T08:26:36.000Z</time>
      </trkpt>
      <trkpt lat="43.3545" lon="5.98801">
        <ele>541</ele>
        <time>2019-12-17T08:26:37.000Z</time>
      </trkpt>
      <trkpt lat="43.3545" lon="5.98801">
        <ele>541</ele>
        <time>2019-12-17T08:26:38.000Z</time>
      </trkpt>
      <trkpt lat="43.35449" lon="5.98801">
        <ele>542</ele>
        <time>2019-12-17T08:26:39.000Z</time>
      </trkpt>
      <trkpt lat="43.35449" lon="5.98801">
        <ele>542</ele>
        <time>2019-12-17T08:26:40.000Z</time>
      </trkpt>
      <trkpt lat="43.35449" lon="5.98801">
        <ele>542</ele>
        <time>2019-12-17T08:26:41.000Z</time>
      </trkpt>
      <trkpt lat="43.35449" lon="5.98801">
        <ele>542</ele>
        <time>2019-12-17T08:26:42.000Z</time>
      </trkpt>
      <trkpt lat="43.35449" lon="5.98801">
        <ele>542</ele>
        <time>2019-12-17T08:26:43.000Z</time>
      </trkpt>
      <trkpt lat="43.35449" lon="5.98801">
        <ele>542</ele>
        <time>2019-12-17T08:26:44.000Z</time>
      </trkpt>
      <trkpt lat="43.35449" lon="5.98801">
        <ele>543</ele>
        <time>2019-12-17T08:26:45.000Z</time>
      </trkpt>
      <trkpt lat="43.35449" lon="5.98801">
        <ele>543</ele>
        <time>2019-12-17T08:26:46.000Z</time>
      </trkpt>
      <trkpt lat="43.35449" lon="5.98801">
        <ele>543</ele>
        <time>2019-12-17T08:26:47.000Z</time>
      </trkpt>
      <trkpt lat="43.35449" lon="5.98801">
        <ele>543</ele>
        <time>2019-12-17T08:26:48.000Z</time>
      </trkpt>
      <trkpt lat="43.35449" lon="5.98801">
        <ele>543</ele>
        <time>2019-12-17T08:26:49.000Z</time>
      </trkpt>
      <trkpt lat="43.35449" lon="5.98802">
        <ele>543</ele>
        <time>2019-12-17T08:26:50.000Z</time>
      </trkpt>
      <trkpt lat="43.35449" lon="5.98802">
        <ele>543</ele>
        <time>2019-12-17T08:26:51.000Z</time>
      </trkpt>
      <trkpt lat="43.35448" lon="5.98802">
        <ele>543</ele>
        <time>2019-12-17T08:26:52.000Z</time>
      </trkpt>
      <trkpt lat="43.35448" lon="5.98802">
        <ele>543</ele>
        <time>2019-12-17T08:26:53.000Z</time>
      </trkpt>
      <trkpt lat="43.35448" lon="5.98802">
        <ele>543</ele>
        <time>2019-12-17T08:26:54.000Z</time>
      </trkpt>
      <trkpt lat="43.35448" lon="5.98802">
        <ele>544</ele>
        <time>2019-12-17T08:26:55.000Z</time>
      </trkpt>
      <trkpt lat="43.35448" lon="5.98802">
        <ele>544</ele>
        <time>2019-12-17T08:26:56.000Z</time>
      </trkpt>
      <trkpt lat="43.35448" lon="5.98802">
        <ele>544</ele>
        <time>2019-12-17T08:26:57.000Z</time>
      </trkpt>
      <trkpt lat="43.35448" lon="5.98802">
        <ele>544</ele>
        <time>2019-12-17T08:26:58.000Z</time>
      </trkpt>
      <trkpt lat="43.35448" lon="5.98802">
        <ele>544</ele>
        <time>2019-12-17T08:26:59.000Z</time>
      </trkpt>
      <trkpt lat="43.35448" lon="5.98802">
        <ele>544</ele>
        <time>2019-12-17T08:27:00.000Z</time>
      </trkpt>
      <trkpt lat="43.35448" lon="5.98802">
        <ele>544</ele>
        <time>2019-12-17T08:27:01.000Z</time>
      </trkpt>
      <trkpt lat="43.35448" lon="5.98802">
        <ele>544</ele>
        <time>2019-12-17T08:27:02.000Z</time>
      </trkpt>
      <trkpt lat="43.35448" lon="5.98802">
        <ele>544</ele>
        <time>2019-12-17T08:27:03.000Z</time>
      </trkpt>
      <trkpt lat="43.35448" lon="5.98802">
        <ele>544</ele>
        <time>2019-12-17T08:27:04.000Z</time>
      </trkpt>
      <trkpt lat="43.35448" lon="5.98802">
        <ele>544</ele>
        <time>2019-12-17T08:27:05.000Z</time>
      </trkpt>
      <trkpt lat="43.35448" lon="5.98802">
        <ele>544</ele>
        <time>2019-12-17T08:27:06.000Z</time>
      </trkpt>
      <trkpt lat="43.35448" lon="5.98802">
        <ele>544</ele>
        <time>2019-12-17T08:27:07.000Z</time>
      </trkpt>
      <trkpt lat="43.35448" lon="5.98802">
        <ele>544</ele>
        <time>2019-12-17T08:27:08.000Z</time>
      </trkpt>
      <trkpt lat="43.35448" lon="5.98802">
        <ele>544</ele>
        <time>2019-12-17T08:27:09.000Z</time>
      </trkpt>
      <trkpt lat="43.35448" lon="5.98802">
        <ele>544</ele>
        <time>2019-12-17T08:27:10.000Z</time>
      </trkpt>
      <trkpt lat="43.35448" lon="5.98802">
        <ele>544</ele>
        <time>2019-12-17T08:27:11.000Z</time>
      </trkpt>
      <trkpt lat="43.35448" lon="5.98802">
        <ele>544</ele>
        <time>2019-12-17T08:27:12.000Z</time>
      </trkpt>
      <trkpt lat="43.35448" lon="5.98802">
        <ele>544</ele>
        <time>2019-12-17T08:27:13.000Z</time>
      </trkpt>
      <trkpt lat="43.35448" lon="5.98802">
        <ele>544</ele>
        <time>2019-12-17T08:27:14.000Z</time>
      </trkpt>
      <trkpt lat="43.35448" lon="5.98802">
        <ele>544</ele>
        <time>2019-12-17T08:27:15.000Z</time>
      </trkpt>
      <trkpt lat="43.35448" lon="5.98802">
        <ele>544</ele>
        <time>2019-12-17T08:27:16.000Z</time>
      </trkpt>
      <trkpt lat="43.35448" lon="5.98802">
        <ele>544</ele>
        <time>2019-12-17T08:27:17.000Z</time>
      </trkpt>
      <trkpt lat="43.35448" lon="5.98802">
        <ele>544</ele>
        <time>2019-12-17T08:27:18.000Z</time>
      </trkpt>
      <trkpt lat="43.35448" lon="5.98802">
        <ele>544</ele>
        <time>2019-12-17T08:27:19.000Z</time>
      </trkpt>
      <trkpt lat="43.35447" lon="5.98802">
        <ele>544</ele>
        <time>2019-12-17T08:27:20.000Z</time>
      </trkpt>
      <trkpt lat="43.35447" lon="5.98802">
        <ele>544</ele>
        <time>2019-12-17T08:27:21.000Z</time>
      </trkpt>
      <trkpt lat="43.35447" lon="5.98802">
        <ele>544</ele>
        <time>2019-12-17T08:27:22.000Z</time>
      </trkpt>
      <trkpt lat="43.35447" lon="5.98802">
        <ele>544</ele>
        <time>2019-12-17T08:27:23.000Z</time>
      </trkpt>
      <trkpt lat="43.35447" lon="5.98803">
        <ele>544</ele>
        <time>2019-12-17T08:27:24.000Z</time>
      </trkpt>
      <trkpt lat="43.35447" lon="5.98803">
        <ele>544</ele>
        <time>2019-12-17T08:27:25.000Z</time>
      </trkpt>
      <trkpt lat="43.35447" lon="5.98803">
        <ele>544</ele>
        <time>2019-12-17T08:27:26.000Z</time>
      </trkpt>
      <trkpt lat="43.35447" lon="5.98803">
        <ele>544</ele>
        <time>2019-12-17T08:27:27.000Z</time>
      </trkpt>
      <trkpt lat="43.35447" lon="5.98804">
        <ele>544</ele>
        <time>2019-12-17T08:27:28.000Z</time>
      </trkpt>
      <trkpt lat="43.35447" lon="5.98804">
        <ele>544</ele>
        <time>2019-12-17T08:27:29.000Z</time>
      </trkpt>
      <trkpt lat="43.35447" lon="5.98804">
        <ele>544</ele>
        <time>2019-12-17T08:27:30.000Z</time>
      </trkpt>
      <trkpt lat="43.35447" lon="5.98805">
        <ele>544</ele>
        <time>2019-12-17T08:27:31.000Z</time>
      </trkpt>
      <trkpt lat="43.35446" lon="5.98805">
        <ele>544</ele>
        <time>2019-12-17T08:27:32.000Z</time>
      </trkpt>
      <trkpt lat="43.35446" lon="5.98805">
        <ele>544</ele>
        <time>2019-12-17T08:27:33.000Z</time>
      </trkpt>
      <trkpt lat="43.35445" lon="5.98805">
        <ele>544</ele>
        <time>2019-12-17T08:27:34.000Z</time>
      </trkpt>
      <trkpt lat="43.35444" lon="5.98804">
        <ele>544</ele>
        <time>2019-12-17T08:27:35.000Z</time>
      </trkpt>
      <trkpt lat="43.35443" lon="5.98804">
        <ele>544</ele>
        <time>2019-12-17T08:27:36.000Z</time>
      </trkpt>
      <trkpt lat="43.35442" lon="5.98804">
        <ele>544</ele>
        <time>2019-12-17T08:27:37.000Z</time>
      </trkpt>
      <trkpt lat="43.35441" lon="5.98804">
        <ele>543</ele>
        <time>2019-12-17T08:27:38.000Z</time>
      </trkpt>
      <trkpt lat="43.3544" lon="5.98804">
        <ele>543</ele>
        <time>2019-12-17T08:27:39.000Z</time>
      </trkpt>
      <trkpt lat="43.35439" lon="5.98803">
        <ele>543</ele>
        <time>2019-12-17T08:27:40.000Z</time>
      </trkpt>
      <trkpt lat="43.35439" lon="5.98803">
        <ele>543</ele>
        <time>2019-12-17T08:27:41.000Z</time>
      </trkpt>
      <trkpt lat="43.35438" lon="5.98802">
        <ele>543</ele>
        <time>2019-12-17T08:27:42.000Z</time>
      </trkpt>
      <trkpt lat="43.35438" lon="5.98802">
        <ele>543</ele>
        <time>2019-12-17T08:27:43.000Z</time>
      </trkpt>
      <trkpt lat="43.35437" lon="5.98802">
        <ele>543</ele>
        <time>2019-12-17T08:27:44.000Z</time>
      </trkpt>
      <trkpt lat="43.35437" lon="5.98802">
        <ele>543</ele>
        <time>2019-12-17T08:27:45.000Z</time>
      </trkpt>
      <trkpt lat="43.35436" lon="5.98802">
        <ele>543</ele>
        <time>2019-12-17T08:27:46.000Z</time>
      </trkpt>
      <trkpt lat="43.35436" lon="5.98803">
        <ele>543</ele>
        <time>2019-12-17T08:27:47.000Z</time>
      </trkpt>
      <trkpt lat="43.35435" lon="5.98803">
        <ele>543</ele>
        <time>2019-12-17T08:27:48.000Z</time>
      </trkpt>
      <trkpt lat="43.35434" lon="5.98803">
        <ele>543</ele>
        <time>2019-12-17T08:27:49.000Z</time>
      </trkpt>
      <trkpt lat="43.35434" lon="5.98803">
        <ele>543</ele>
        <time>2019-12-17T08:27:50.000Z</time>
      </trkpt>
      <trkpt lat="43.35433" lon="5.98804">
        <ele>543</ele>
        <time>2019-12-17T08:27:51.000Z</time>
      </trkpt>
      <trkpt lat="43.35432" lon="5.98804">
        <ele>543</ele>
        <time>2019-12-17T08:27:52.000Z</time>
      </trkpt>
      <trkpt lat="43.35431" lon="5.98804">
        <ele>543</ele>
        <time>2019-12-17T08:27:53.000Z</time>
      </trkpt>
      <trkpt lat="43.3543" lon="5.98804">
        <ele>543</ele>
        <time>2019-12-17T08:27:54.000Z</time>
      </trkpt>
      <trkpt lat="43.3543" lon="5.98804">
        <ele>543</ele>
        <time>2019-12-17T08:27:55.000Z</time>
      </trkpt>
      <trkpt lat="43.35429" lon="5.98805">
        <ele>543</ele>
        <time>2019-12-17T08:27:56.000Z</time>
      </trkpt>
      <trkpt lat="43.35429" lon="5.98805">
        <ele>542</ele>
        <time>2019-12-17T08:27:57.000Z</time>
      </trkpt>
      <trkpt lat="43.35428" lon="5.98805">
        <ele>542</ele>
        <time>2019-12-17T08:27:58.000Z</time>
      </trkpt>
      <trkpt lat="43.35427" lon="5.98805">
        <ele>542</ele>
        <time>2019-12-17T08:27:59.000Z</time>
      </trkpt>
      <trkpt lat="43.35426" lon="5.98805">
        <ele>542</ele>
        <time>2019-12-17T08:28:00.000Z</time>
      </trkpt>
      <trkpt lat="43.35426" lon="5.98805">
        <ele>542</ele>
        <time>2019-12-17T08:28:01.000Z</time>
      </trkpt>
      <trkpt lat="43.35425" lon="5.98805">
        <ele>542</ele>
        <time>2019-12-17T08:28:02.000Z</time>
      </trkpt>
      <trkpt lat="43.35424" lon="5.98805">
        <ele>541</ele>
        <time>2019-12-17T08:28:03.000Z</time>
      </trkpt>
      <trkpt lat="43.35423" lon="5.98806">
        <ele>541</ele>
        <time>2019-12-17T08:28:04.000Z</time>
      </trkpt>
      <trkpt lat="43.35423" lon="5.98808">
        <ele>540</ele>
        <time>2019-12-17T08:28:05.000Z</time>
      </trkpt>
      <trkpt lat="43.35422" lon="5.98809">
        <ele>539</ele>
        <time>2019-12-17T08:28:06.000Z</time>
      </trkpt>
      <trkpt lat="43.35422" lon="5.9881">
        <ele>538</ele>
        <time>2019-12-17T08:28:07.000Z</time>
      </trkpt>
      <trkpt lat="43.35422" lon="5.98811">
        <ele>538</ele>
        <time>2019-12-17T08:28:08.000Z</time>
      </trkpt>
      <trkpt lat="43.35421" lon="5.98813">
        <ele>537</ele>
        <time>2019-12-17T08:28:09.000Z</time>
      </trkpt>
      <trkpt lat="43.35421" lon="5.98814">
        <ele>536</ele>
        <time>2019-12-17T08:28:10.000Z</time>
      </trkpt>
      <trkpt lat="43.35421" lon="5.98815">
        <ele>535</ele>
        <time>2019-12-17T08:28:11.000Z</time>
      </trkpt>
      <trkpt lat="43.3542" lon="5.98817">
        <ele>535</ele>
        <time>2019-12-17T08:28:12.000Z</time>
      </trkpt>
      <trkpt lat="43.3542" lon="5.98818">
        <ele>534</ele>
        <time>2019-12-17T08:28:13.000Z</time>
      </trkpt>
      <trkpt lat="43.35419" lon="5.98819">
        <ele>533</ele>
        <time>2019-12-17T08:28:14.000Z</time>
      </trkpt>
      <trkpt lat="43.35419" lon="5.9882">
        <ele>533</ele>
        <time>2019-12-17T08:28:15.000Z</time>
      </trkpt>
      <trkpt lat="43.35419" lon="5.9882">
        <ele>532</ele>
        <time>2019-12-17T08:28:16.000Z</time>
      </trkpt>
      <trkpt lat="43.35418" lon="5.98821">
        <ele>532</ele>
        <time>2019-12-17T08:28:17.000Z</time>
      </trkpt>
      <trkpt lat="43.35418" lon="5.98822">
        <ele>532</ele>
        <time>2019-12-17T08:28:18.000Z</time>
      </trkpt>
      <trkpt lat="43.35418" lon="5.98823">
        <ele>531</ele>
        <time>2019-12-17T08:28:19.000Z</time>
      </trkpt>
      <trkpt lat="43.35418" lon="5.98824">
        <ele>531</ele>
        <time>2019-12-17T08:28:20.000Z</time>
      </trkpt>
      <trkpt lat="43.35418" lon="5.98824">
        <ele>531</ele>
        <time>2019-12-17T08:28:21.000Z</time>
      </trkpt>
      <trkpt lat="43.35418" lon="5.98825">
        <ele>531</ele>
        <time>2019-12-17T08:28:22.000Z</time>
      </trkpt>
      <trkpt lat="43.35417" lon="5.98826">
        <ele>530</ele>
        <time>2019-12-17T08:28:23.000Z</time>
      </trkpt>
      <trkpt lat="43.35417" lon="5.98827">
        <ele>530</ele>
        <time>2019-12-17T08:28:24.000Z</time>
      </trkpt>
      <trkpt lat="43.35417" lon="5.98828">
        <ele>530</ele>
        <time>2019-12-17T08:28:25.000Z</time>
      </trkpt>
      <trkpt lat="43.35417" lon="5.98828">
        <ele>530</ele>
        <time>2019-12-17T08:28:26.000Z</time>
      </trkpt>
      <trkpt lat="43.35417" lon="5.98828">
        <ele>529</ele>
        <time>2019-12-17T08:28:27.000Z</time>
      </trkpt>
      <trkpt lat="43.35417" lon="5.98828">
        <ele>529</ele>
        <time>2019-12-17T08:28:28.000Z</time>
      </trkpt>
      <trkpt lat="43.35417" lon="5.98829">
        <ele>529</ele>
        <time>2019-12-17T08:28:29.000Z</time>
      </trkpt>
      <trkpt lat="43.35417" lon="5.98829">
        <ele>529</ele>
        <time>2019-12-17T08:28:30.000Z</time>
      </trkpt>
      <trkpt lat="43.35416" lon="5.98829">
        <ele>528</ele>
        <time>2019-12-17T08:28:31.000Z</time>
      </trkpt>
      <trkpt lat="43.35417" lon="5.98829">
        <ele>528</ele>
        <time>2019-12-17T08:28:32.000Z</time>
      </trkpt>
      <trkpt lat="43.35417" lon="5.98829">
        <ele>528</ele>
        <time>2019-12-17T08:28:33.000Z</time>
      </trkpt>
      <trkpt lat="43.35417" lon="5.9883">
        <ele>527</ele>
        <time>2019-12-17T08:28:34.000Z</time>
      </trkpt>
      <trkpt lat="43.35417" lon="5.9883">
        <ele>527</ele>
        <time>2019-12-17T08:28:35.000Z</time>
      </trkpt>
      <trkpt lat="43.35417" lon="5.9883">
        <ele>527</ele>
        <time>2019-12-17T08:28:36.000Z</time>
      </trkpt>
      <trkpt lat="43.35417" lon="5.98831">
        <ele>527</ele>
        <time>2019-12-17T08:28:37.000Z</time>
      </trkpt>
      <trkpt lat="43.35417" lon="5.98831">
        <ele>526</ele>
        <time>2019-12-17T08:28:38.000Z</time>
      </trkpt>
      <trkpt lat="43.35417" lon="5.98831">
        <ele>526</ele>
        <time>2019-12-17T08:28:39.000Z</time>
      </trkpt>
      <trkpt lat="43.35417" lon="5.98832">
        <ele>526</ele>
        <time>2019-12-17T08:28:40.000Z</time>
      </trkpt>
      <trkpt lat="43.35417" lon="5.98832">
        <ele>526</ele>
        <time>2019-12-17T08:28:41.000Z</time>
      </trkpt>
      <trkpt lat="43.35417" lon="5.98833">
        <ele>526</ele>
        <time>2019-12-17T08:28:42.000Z</time>
      </trkpt>
      <trkpt lat="43.35417" lon="5.98833">
        <ele>526</ele>
        <time>2019-12-17T08:28:43.000Z</time>
      </trkpt>
      <trkpt lat="43.35417" lon="5.98833">
        <ele>526</ele>
        <time>2019-12-17T08:28:44.000Z</time>
      </trkpt>
      <trkpt lat="43.35418" lon="5.98834">
        <ele>525</ele>
        <time>2019-12-17T08:28:45.000Z</time>
      </trkpt>
      <trkpt lat="43.35418" lon="5.98834">
        <ele>525</ele>
        <time>2019-12-17T08:28:46.000Z</time>
      </trkpt>
      <trkpt lat="43.35418" lon="5.98834">
        <ele>525</ele>
        <time>2019-12-17T08:28:47.000Z</time>
      </trkpt>
      <trkpt lat="43.35418" lon="5.98834">
        <ele>525</ele>
        <time>2019-12-17T08:28:48.000Z</time>
      </trkpt>
      <trkpt lat="43.35417" lon="5.98834">
        <ele>525</ele>
        <time>2019-12-17T08:28:49.000Z</time>
      </trkpt>
      <trkpt lat="43.35417" lon="5.98835">
        <ele>525</ele>
        <time>2019-12-17T08:28:50.000Z</time>
      </trkpt>
      <trkpt lat="43.35417" lon="5.98835">
        <ele>525</ele>
        <time>2019-12-17T08:28:51.000Z</time>
      </trkpt>
      <trkpt lat="43.35417" lon="5.98835">
        <ele>525</ele>
        <time>2019-12-17T08:28:52.000Z</time>
      </trkpt>
      <trkpt lat="43.35417" lon="5.98835">
        <ele>525</ele>
        <time>2019-12-17T08:28:53.000Z</time>
      </trkpt>
      <trkpt lat="43.35417" lon="5.98835">
        <ele>525</ele>
        <time>2019-12-17T08:28:54.000Z</time>
      </trkpt>
      <trkpt lat="43.35417" lon="5.98835">
        <ele>525</ele>
        <time>2019-12-17T08:28:55.000Z</time>
      </trkpt>
      <trkpt lat="43.35417" lon="5.98835">
        <ele>525</ele>
        <time>2019-12-17T08:28:56.000Z</time>
      </trkpt>
      <trkpt lat="43.35417" lon="5.98836">
        <ele>525</ele>
        <time>2019-12-17T08:28:57.000Z</time>
      </trkpt>
      <trkpt lat="43.35417" lon="5.98837">
        <ele>524</ele>
        <time>2019-12-17T08:28:58.000Z</time>
      </trkpt>
      <trkpt lat="43.35417" lon="5.98837">
        <ele>524</ele>
        <time>2019-12-17T08:28:59.000Z</time>
      </trkpt>
      <trkpt lat="43.35417" lon="5.98837">
        <ele>524</ele>
        <time>2019-12-17T08:29:00.000Z</time>
      </trkpt>
      <trkpt lat="43.35417" lon="5.98837">
        <ele>524</ele>
        <time>2019-12-17T08:29:01.000Z</time>
      </trkpt>
      <trkpt lat="43.35417" lon="5.98837">
        <ele>524</ele>
        <time>2019-12-17T08:29:02.000Z</time>
      </trkpt>
      <trkpt lat="43.35416" lon="5.98838">
        <ele>524</ele>
        <time>2019-12-17T08:29:03.000Z</time>
      </trkpt>
      <trkpt lat="43.35416" lon="5.98838">
        <ele>524</ele>
        <time>2019-12-17T08:29:04.000Z</time>
      </trkpt>
      <trkpt lat="43.35416" lon="5.98838">
        <ele>524</ele>
        <time>2019-12-17T08:29:05.000Z</time>
      </trkpt>
      <trkpt lat="43.35416" lon="5.98839">
        <ele>524</ele>
        <time>2019-12-17T08:29:06.000Z</time>
      </trkpt>
      <trkpt lat="43.35416" lon="5.98839">
        <ele>524</ele>
        <time>2019-12-17T08:29:07.000Z</time>
      </trkpt>
      <trkpt lat="43.35416" lon="5.98839">
        <ele>524</ele>
        <time>2019-12-17T08:29:08.000Z</time>
      </trkpt>
      <trkpt lat="43.35416" lon="5.98839">
        <ele>524</ele>
        <time>2019-12-17T08:29:09.000Z</time>
      </trkpt>
      <trkpt lat="43.35416" lon="5.98839">
        <ele>524</ele>
        <time>2019-12-17T08:29:10.000Z</time>
      </trkpt>
      <trkpt lat="43.35416" lon="5.98839">
        <ele>524</ele>
        <time>2019-12-17T08:29:11.000Z</time>
      </trkpt>
      <trkpt lat="43.35416" lon="5.98839">
        <ele>524</ele>
        <time>2019-12-17T08:29:12.000Z</time>
      </trkpt>
      <trkpt lat="43.35416" lon="5.98839">
        <ele>524</ele>
        <time>2019-12-17T08:29:13.000Z</time>
      </trkpt>
      <trkpt lat="43.35416" lon="5.98839">
        <ele>524</ele>
        <time>2019-12-17T08:29:14.000Z</time>
      </trkpt>
      <trkpt lat="43.35416" lon="5.98839">
        <ele>524</ele>
        <time>2019-12-17T08:29:15.000Z</time>
      </trkpt>
      <trkpt lat="43.35416" lon="5.98839">
        <ele>524</ele>
        <time>2019-12-17T08:29:16.000Z</time>
      </trkpt>
      <trkpt lat="43.35417" lon="5.98839">
        <ele>524</ele>
        <time>2019-12-17T08:29:17.000Z</time>
      </trkpt>
      <trkpt lat="43.35417" lon="5.98839">
        <ele>524</ele>
        <time>2019-12-17T08:29:18.000Z</time>
      </trkpt>
      <trkpt lat="43.35416" lon="5.98839">
        <ele>524</ele>
        <time>2019-12-17T08:29:19.000Z</time>
      </trkpt>
      <trkpt lat="43.35417" lon="5.98839">
        <ele>524</ele>
        <time>2019-12-17T08:29:20.000Z</time>
      </trkpt>
      <trkpt lat="43.35417" lon="5.98839">
        <ele>524</ele>
        <time>2019-12-17T08:29:21.000Z</time>
      </trkpt>
      <trkpt lat="43.35417" lon="5.98839">
        <ele>524</ele>
        <time>2019-12-17T08:29:22.000Z</time>
      </trkpt>
      <trkpt lat="43.35417" lon="5.98839">
        <ele>524</ele>
        <time>2019-12-17T08:29:23.000Z</time>
      </trkpt>
      <trkpt lat="43.35417" lon="5.98839">
        <ele>524</ele>
        <time>2019-12-17T08:29:24.000Z</time>
      </trkpt>
      <trkpt lat="43.35417" lon="5.98839">
        <ele>524</ele>
        <time>2019-12-17T08:29:25.000Z</time>
      </trkpt>
      <trkpt lat="43.35417" lon="5.9884">
        <ele>524</ele>
        <time>2019-12-17T08:29:26.000Z</time>
      </trkpt>
      <trkpt lat="43.35417" lon="5.9884">
        <ele>524</ele>
        <time>2019-12-17T08:29:27.000Z</time>
      </trkpt>
      <trkpt lat="43.35417" lon="5.9884">
        <ele>524</ele>
        <time>2019-12-17T08:29:28.000Z</time>
      </trkpt>
      <trkpt lat="43.35417" lon="5.98841">
        <ele>525</ele>
        <time>2019-12-17T08:29:29.000Z</time>
      </trkpt>
      <trkpt lat="43.35417" lon="5.98841">
        <ele>525</ele>
        <time>2019-12-17T08:29:30.000Z</time>
      </trkpt>
      <trkpt lat="43.35418" lon="5.98841">
        <ele>525</ele>
        <time>2019-12-17T08:29:31.000Z</time>
      </trkpt>
      <trkpt lat="43.35418" lon="5.98842">
        <ele>525</ele>
        <time>2019-12-17T08:29:32.000Z</time>
      </trkpt>
      <trkpt lat="43.35418" lon="5.98842">
        <ele>525</ele>
        <time>2019-12-17T08:29:33.000Z</time>
      </trkpt>
      <trkpt lat="43.35418" lon="5.98842">
        <ele>525</ele>
        <time>2019-12-17T08:29:34.000Z</time>
      </trkpt>
      <trkpt lat="43.35418" lon="5.98842">
        <ele>525</ele>
        <time>2019-12-17T08:29:35.000Z</time>
      </trkpt>
      <trkpt lat="43.35418" lon="5.98842">
        <ele>525</ele>
        <time>2019-12-17T08:29:36.000Z</time>
      </trkpt>
      <trkpt lat="43.35418" lon="5.98842">
        <ele>525</ele>
        <time>2019-12-17T08:29:37.000Z</time>
      </trkpt>
      <trkpt lat="43.35417" lon="5.98843">
        <ele>525</ele>
        <time>2019-12-17T08:29:38.000Z</time>
      </trkpt>
      <trkpt lat="43.35417" lon="5.98843">
        <ele>525</ele>
        <time>2019-12-17T08:29:39.000Z</time>
      </trkpt>
      <trkpt lat="43.35417" lon="5.98843">
        <ele>526</ele>
        <time>2019-12-17T08:29:40.000Z</time>
      </trkpt>
      <trkpt lat="43.35417" lon="5.98844">
        <ele>526</ele>
        <time>2019-12-17T08:29:41.000Z</time>
      </trkpt>
      <trkpt lat="43.35417" lon="5.98844">
        <ele>526</ele>
        <time>2019-12-17T08:29:42.000Z</time>
      </trkpt>
      <trkpt lat="43.35416" lon="5.98844">
        <ele>526</ele>
        <time>2019-12-17T08:29:43.000Z</time>
      </trkpt>
      <trkpt lat="43.35416" lon="5.98844">
        <ele>526</ele>
        <time>2019-12-17T08:29:44.000Z</time>
      </trkpt>
      <trkpt lat="43.35416" lon="5.98845">
        <ele>526</ele>
        <time>2019-12-17T08:29:45.000Z</time>
      </trkpt>
      <trkpt lat="43.35416" lon="5.98845">
        <ele>526</ele>
        <time>2019-12-17T08:29:46.000Z</time>
      </trkpt>
      <trkpt lat="43.35417" lon="5.98845">
        <ele>526</ele>
        <time>2019-12-17T08:29:47.000Z</time>
      </trkpt>
      <trkpt lat="43.35417" lon="5.98844">
        <ele>527</ele>
        <time>2019-12-17T08:29:48.000Z</time>
      </trkpt>
      <trkpt lat="43.35417" lon="5.98844">
        <ele>527</ele>
        <time>2019-12-17T08:29:49.000Z</time>
      </trkpt>
      <trkpt lat="43.35417" lon="5.98844">
        <ele>527</ele>
        <time>2019-12-17T08:29:50.000Z</time>
      </trkpt>
      <trkpt lat="43.35417" lon="5.98844">
        <ele>527</ele>
        <time>2019-12-17T08:29:51.000Z</time>
      </trkpt>
      <trkpt lat="43.35417" lon="5.98844">
        <ele>527</ele>
        <time>2019-12-17T08:29:52.000Z</time>
      </trkpt>
      <trkpt lat="43.35417" lon="5.98844">
        <ele>527</ele>
        <time>2019-12-17T08:29:53.000Z</time>
      </trkpt>
      <trkpt lat="43.35417" lon="5.98844">
        <ele>527</ele>
        <time>2019-12-17T08:29:54.000Z</time>
      </trkpt>
      <trkpt lat="43.35417" lon="5.98845">
        <ele>527</ele>
        <time>2019-12-17T08:29:55.000Z</time>
      </trkpt>
      <trkpt lat="43.35417" lon="5.98845">
        <ele>527</ele>
        <time>2019-12-17T08:29:56.000Z</time>
      </trkpt>
      <trkpt lat="43.35417" lon="5.98845">
        <ele>527</ele>
        <time>2019-12-17T08:29:57.000Z</time>
      </trkpt>
      <trkpt lat="43.35417" lon="5.98845">
        <ele>527</ele>
        <time>2019-12-17T08:29:58.000Z</time>
      </trkpt>
      <trkpt lat="43.35417" lon="5.98846">
        <ele>527</ele>
        <time>2019-12-17T08:29:59.000Z</time>
      </trkpt>
      <trkpt lat="43.35417" lon="5.98846">
        <ele>528</ele>
        <time>2019-12-17T08:30:00.000Z</time>
      </trkpt>
      <trkpt lat="43.35417" lon="5.98846">
        <ele>528</ele>
        <time>2019-12-17T08:30:01.000Z</time>
      </trkpt>
      <trkpt lat="43.35417" lon="5.98846">
        <ele>528</ele>
        <time>2019-12-17T08:30:02.000Z</time>
      </trkpt>
      <trkpt lat="43.35417" lon="5.98846">
        <ele>528</ele>
        <time>2019-12-17T08:30:03.000Z</time>
      </trkpt>
      <trkpt lat="43.35417" lon="5.98846">
        <ele>528</ele>
        <time>2019-12-17T08:30:04.000Z</time>
      </trkpt>
      <trkpt lat="43.35417" lon="5.98846">
        <ele>528</ele>
        <time>2019-12-17T08:30:05.000Z</time>
      </trkpt>
      <trkpt lat="43.35417" lon="5.98845">
        <ele>528</ele>
        <time>2019-12-17T08:30:06.000Z</time>
      </trkpt>
      <trkpt lat="43.35417" lon="5.98845">
        <ele>528</ele>
        <time>2019-12-17T08:30:07.000Z</time>
      </trkpt>
      <trkpt lat="43.35417" lon="5.98846">
        <ele>528</ele>
        <time>2019-12-17T08:30:08.000Z</time>
      </trkpt>
      <trkpt lat="43.35417" lon="5.98846">
        <ele>528</ele>
        <time>2019-12-17T08:30:09.000Z</time>
      </trkpt>
      <trkpt lat="43.35417" lon="5.98846">
        <ele>528</ele>
        <time>2019-12-17T08:30:10.000Z</time>
      </trkpt>
      <trkpt lat="43.35417" lon="5.98846">
        <ele>529</ele>
        <time>2019-12-17T08:30:11.000Z</time>
      </trkpt>
      <trkpt lat="43.35417" lon="5.98846">
        <ele>529</ele>
        <time>2019-12-17T08:30:12.000Z</time>
      </trkpt>
      <trkpt lat="43.35417" lon="5.98846">
        <ele>529</ele>
        <time>2019-12-17T08:30:13.000Z</time>
      </trkpt>
      <trkpt lat="43.35417" lon="5.98846">
        <ele>529</ele>
        <time>2019-12-17T08:30:14.000Z</time>
      </trkpt>
      <trkpt lat="43.35417" lon="5.98846">
        <ele>529</ele>
        <time>2019-12-17T08:30:15.000Z</time>
      </trkpt>
      <trkpt lat="43.35417" lon="5.98847">
        <ele>529</ele>
        <time>2019-12-17T08:30:16.000Z</time>
      </trkpt>
      <trkpt lat="43.35417" lon="5.98847">
        <ele>529</ele>
        <time>2019-12-17T08:30:17.000Z</time>
      </trkpt>
      <trkpt lat="43.35417" lon="5.98847">
        <ele>529</ele>
        <time>2019-12-17T08:30:18.000Z</time>
      </trkpt>
      <trkpt lat="43.35417" lon="5.98847">
        <ele>529</ele>
        <time>2019-12-17T08:30:19.000Z</time>
      </trkpt>
      <trkpt lat="43.35417" lon="5.98847">
        <ele>529</ele>
        <time>2019-12-17T08:30:20.000Z</time>
      </trkpt>
      <trkpt lat="43.35417" lon="5.98848">
        <ele>529</ele>
        <time>2019-12-17T08:30:21.000Z</time>
      </trkpt>
      <trkpt lat="43.35417" lon="5.98848">
        <ele>529</ele>
        <time>2019-12-17T08:30:22.000Z</time>
      </trkpt>
      <trkpt lat="43.35417" lon="5.98848">
        <ele>529</ele>
        <time>2019-12-17T08:30:23.000Z</time>
      </trkpt>
      <trkpt lat="43.35417" lon="5.98848">
        <ele>529</ele>
        <time>2019-12-17T08:30:24.000Z</time>
      </trkpt>
      <trkpt lat="43.35418" lon="5.98848">
        <ele>529</ele>
        <time>2019-12-17T08:30:25.000Z</time>
      </trkpt>
      <trkpt lat="43.35418" lon="5.98848">
        <ele>529</ele>
        <time>2019-12-17T08:30:26.000Z</time>
      </trkpt>
      <trkpt lat="43.35418" lon="5.98848">
        <ele>529</ele>
        <time>2019-12-17T08:30:27.000Z</time>
      </trkpt>
      <trkpt lat="43.35418" lon="5.98848">
        <ele>529</ele>
        <time>2019-12-17T08:30:28.000Z</time>
      </trkpt>
      <trkpt lat="43.35418" lon="5.98848">
        <ele>529</ele>
        <time>2019-12-17T08:30:29.000Z</time>
      </trkpt>
      <trkpt lat="43.35418" lon="5.98848">
        <ele>529</ele>
        <time>2019-12-17T08:30:30.000Z</time>
      </trkpt>
      <trkpt lat="43.35418" lon="5.98849">
        <ele>529</ele>
        <time>2019-12-17T08:30:31.000Z</time>
      </trkpt>
      <trkpt lat="43.35418" lon="5.98849">
        <ele>529</ele>
        <time>2019-12-17T08:30:32.000Z</time>
      </trkpt>
      <trkpt lat="43.35418" lon="5.9885">
        <ele>529</ele>
        <time>2019-12-17T08:30:33.000Z</time>
      </trkpt>
      <trkpt lat="43.35418" lon="5.9885">
        <ele>529</ele>
        <time>2019-12-17T08:30:34.000Z</time>
      </trkpt>
      <trkpt lat="43.35418" lon="5.9885">
        <ele>529</ele>
        <time>2019-12-17T08:30:35.000Z</time>
      </trkpt>
      <trkpt lat="43.35418" lon="5.9885">
        <ele>529</ele>
        <time>2019-12-17T08:30:36.000Z</time>
      </trkpt>
      <trkpt lat="43.35419" lon="5.9885">
        <ele>529</ele>
        <time>2019-12-17T08:30:37.000Z</time>
      </trkpt>
      <trkpt lat="43.35419" lon="5.98849">
        <ele>529</ele>
        <time>2019-12-17T08:30:38.000Z</time>
      </trkpt>
      <trkpt lat="43.35419" lon="5.98849">
        <ele>529</ele>
        <time>2019-12-17T08:30:39.000Z</time>
      </trkpt>
      <trkpt lat="43.35419" lon="5.98849">
        <ele>529</ele>
        <time>2019-12-17T08:30:40.000Z</time>
      </trkpt>
      <trkpt lat="43.35419" lon="5.98849">
        <ele>529</ele>
        <time>2019-12-17T08:30:41.000Z</time>
      </trkpt>
      <trkpt lat="43.35419" lon="5.98849">
        <ele>529</ele>
        <time>2019-12-17T08:30:42.000Z</time>
      </trkpt>
      <trkpt lat="43.35419" lon="5.98849">
        <ele>529</ele>
        <time>2019-12-17T08:30:43.000Z</time>
      </trkpt>
      <trkpt lat="43.35419" lon="5.98849">
        <ele>529</ele>
        <time>2019-12-17T08:30:44.000Z</time>
      </trkpt>
      <trkpt lat="43.35419" lon="5.98849">
        <ele>529</ele>
        <time>2019-12-17T08:30:45.000Z</time>
      </trkpt>
      <trkpt lat="43.35419" lon="5.98849">
        <ele>529</ele>
        <time>2019-12-17T08:30:46.000Z</time>
      </trkpt>
      <trkpt lat="43.35419" lon="5.98849">
        <ele>529</ele>
        <time>2019-12-17T08:30:47.000Z</time>
      </trkpt>
      <trkpt lat="43.35419" lon="5.98849">
        <ele>529</ele>
        <time>2019-12-17T08:30:48.000Z</time>
      </trkpt>
      <trkpt lat="43.35419" lon="5.98849">
        <ele>529</ele>
        <time>2019-12-17T08:30:49.000Z</time>
      </trkpt>
      <trkpt lat="43.35419" lon="5.9885">
        <ele>529</ele>
        <time>2019-12-17T08:30:50.000Z</time>
      </trkpt>
      <trkpt lat="43.35419" lon="5.9885">
        <ele>529</ele>
        <time>2019-12-17T08:30:51.000Z</time>
      </trkpt>
      <trkpt lat="43.35419" lon="5.9885">
        <ele>529</ele>
        <time>2019-12-17T08:30:52.000Z</time>
      </trkpt>
      <trkpt lat="43.35419" lon="5.9885">
        <ele>529</ele>
        <time>2019-12-17T08:30:53.000Z</time>
      </trkpt>
      <trkpt lat="43.35419" lon="5.9885">
        <ele>529</ele>
        <time>2019-12-17T08:30:54.000Z</time>
      </trkpt>
      <trkpt lat="43.35419" lon="5.98851">
        <ele>529</ele>
        <time>2019-12-17T08:30:55.000Z</time>
      </trkpt>
      <trkpt lat="43.35419" lon="5.98852">
        <ele>530</ele>
        <time>2019-12-17T08:30:56.000Z</time>
      </trkpt>
      <trkpt lat="43.35419" lon="5.98852">
        <ele>530</ele>
        <time>2019-12-17T08:30:57.000Z</time>
      </trkpt>
      <trkpt lat="43.35419" lon="5.98852">
        <ele>530</ele>
        <time>2019-12-17T08:30:58.000Z</time>
      </trkpt>
      <trkpt lat="43.35419" lon="5.98853">
        <ele>530</ele>
        <time>2019-12-17T08:30:59.000Z</time>
      </trkpt>
      <trkpt lat="43.35419" lon="5.98853">
        <ele>530</ele>
        <time>2019-12-17T08:31:00.000Z</time>
      </trkpt>
      <trkpt lat="43.35419" lon="5.98853">
        <ele>530</ele>
        <time>2019-12-17T08:31:01.000Z</time>
      </trkpt>
      <trkpt lat="43.35419" lon="5.98853">
        <ele>530</ele>
        <time>2019-12-17T08:31:02.000Z</time>
      </trkpt>
      <trkpt lat="43.35419" lon="5.98853">
        <ele>530</ele>
        <time>2019-12-17T08:31:03.000Z</time>
      </trkpt>
      <trkpt lat="43.35419" lon="5.98853">
        <ele>530</ele>
        <time>2019-12-17T08:31:04.000Z</time>
      </trkpt>
      <trkpt lat="43.3542" lon="5.98853">
        <ele>530</ele>
        <time>2019-12-17T08:31:05.000Z</time>
      </trkpt>
      <trkpt lat="43.3542" lon="5.98854">
        <ele>530</ele>
        <time>2019-12-17T08:31:06.000Z</time>
      </trkpt>
      <trkpt lat="43.3542" lon="5.98854">
        <ele>530</ele>
        <time>2019-12-17T08:31:07.000Z</time>
      </trkpt>
      <trkpt lat="43.3542" lon="5.98854">
        <ele>530</ele>
        <time>2019-12-17T08:31:08.000Z</time>
      </trkpt>
      <trkpt lat="43.3542" lon="5.98854">
        <ele>530</ele>
        <time>2019-12-17T08:31:09.000Z</time>
      </trkpt>
      <trkpt lat="43.3542" lon="5.98854">
        <ele>530</ele>
        <time>2019-12-17T08:31:10.000Z</time>
      </trkpt>
      <trkpt lat="43.3542" lon="5.98854">
        <ele>531</ele>
        <time>2019-12-17T08:31:11.000Z</time>
      </trkpt>
      <trkpt lat="43.3542" lon="5.98854">
        <ele>531</ele>
        <time>2019-12-17T08:31:12.000Z</time>
      </trkpt>
      <trkpt lat="43.3542" lon="5.98854">
        <ele>531</ele>
        <time>2019-12-17T08:31:13.000Z</time>
      </trkpt>
      <trkpt lat="43.3542" lon="5.98854">
        <ele>531</ele>
        <time>2019-12-17T08:31:14.000Z</time>
      </trkpt>
      <trkpt lat="43.3542" lon="5.98854">
        <ele>531</ele>
        <time>2019-12-17T08:31:15.000Z</time>
      </trkpt>
      <trkpt lat="43.3542" lon="5.98855">
        <ele>531</ele>
        <time>2019-12-17T08:31:16.000Z</time>
      </trkpt>
      <trkpt lat="43.35419" lon="5.98855">
        <ele>531</ele>
        <time>2019-12-17T08:31:17.000Z</time>
      </trkpt>
      <trkpt lat="43.35419" lon="5.98855">
        <ele>531</ele>
        <time>2019-12-17T08:31:18.000Z</time>
      </trkpt>
      <trkpt lat="43.35419" lon="5.98855">
        <ele>531</ele>
        <time>2019-12-17T08:31:19.000Z</time>
      </trkpt>
      <trkpt lat="43.35419" lon="5.98855">
        <ele>531</ele>
        <time>2019-12-17T08:31:20.000Z</time>
      </trkpt>
      <trkpt lat="43.35419" lon="5.98855">
        <ele>531</ele>
        <time>2019-12-17T08:31:21.000Z</time>
      </trkpt>
      <trkpt lat="43.35419" lon="5.98855">
        <ele>531</ele>
        <time>2019-12-17T08:31:22.000Z</time>
      </trkpt>
      <trkpt lat="43.35419" lon="5.98855">
        <ele>531</ele>
        <time>2019-12-17T08:31:23.000Z</time>
      </trkpt>
      <trkpt lat="43.35419" lon="5.98855">
        <ele>531</ele>
        <time>2019-12-17T08:31:24.000Z</time>
      </trkpt>
      <trkpt lat="43.35419" lon="5.98856">
        <ele>531</ele>
        <time>2019-12-17T08:31:25.000Z</time>
      </trkpt>
      <trkpt lat="43.35419" lon="5.98856">
        <ele>531</ele>
        <time>2019-12-17T08:31:26.000Z</time>
      </trkpt>
      <trkpt lat="43.35419" lon="5.98856">
        <ele>531</ele>
        <time>2019-12-17T08:31:27.000Z</time>
      </trkpt>
      <trkpt lat="43.35419" lon="5.98856">
        <ele>531</ele>
        <time>2019-12-17T08:31:28.000Z</time>
      </trkpt>
      <trkpt lat="43.3542" lon="5.98856">
        <ele>531</ele>
        <time>2019-12-17T08:31:29.000Z</time>
      </trkpt>
      <trkpt lat="43.3542" lon="5.98856">
        <ele>532</ele>
        <time>2019-12-17T08:31:30.000Z</time>
      </trkpt>
      <trkpt lat="43.3542" lon="5.98856">
        <ele>532</ele>
        <time>2019-12-17T08:31:31.000Z</time>
      </trkpt>
      <trkpt lat="43.3542" lon="5.98856">
        <ele>532</ele>
        <time>2019-12-17T08:31:32.000Z</time>
      </trkpt>
      <trkpt lat="43.3542" lon="5.98856">
        <ele>532</ele>
        <time>2019-12-17T08:31:33.000Z</time>
      </trkpt>
      <trkpt lat="43.35419" lon="5.98856">
        <ele>532</ele>
        <time>2019-12-17T08:31:34.000Z</time>
      </trkpt>
      <trkpt lat="43.35419" lon="5.98856">
        <ele>532</ele>
        <time>2019-12-17T08:31:35.000Z</time>
      </trkpt>
      <trkpt lat="43.35419" lon="5.98856">
        <ele>532</ele>
        <time>2019-12-17T08:31:36.000Z</time>
      </trkpt>
      <trkpt lat="43.35419" lon="5.98856">
        <ele>532</ele>
        <time>2019-12-17T08:31:37.000Z</time>
      </trkpt>
      <trkpt lat="43.35419" lon="5.98856">
        <ele>532</ele>
        <time>2019-12-17T08:31:38.000Z</time>
      </trkpt>
      <trkpt lat="43.3542" lon="5.98856">
        <ele>532</ele>
        <time>2019-12-17T08:31:39.000Z</time>
      </trkpt>
      <trkpt lat="43.3542" lon="5.98856">
        <ele>532</ele>
        <time>2019-12-17T08:31:40.000Z</time>
      </trkpt>
      <trkpt lat="43.3542" lon="5.98857">
        <ele>532</ele>
        <time>2019-12-17T08:31:41.000Z</time>
      </trkpt>
      <trkpt lat="43.3542" lon="5.98856">
        <ele>532</ele>
        <time>2019-12-17T08:31:42.000Z</time>
      </trkpt>
      <trkpt lat="43.3542" lon="5.98856">
        <ele>532</ele>
        <time>2019-12-17T08:31:43.000Z</time>
      </trkpt>
      <trkpt lat="43.3542" lon="5.98856">
        <ele>532</ele>
        <time>2019-12-17T08:31:44.000Z</time>
      </trkpt>
      <trkpt lat="43.3542" lon="5.98857">
        <ele>533</ele>
        <time>2019-12-17T08:31:45.000Z</time>
      </trkpt>
      <trkpt lat="43.3542" lon="5.98857">
        <ele>533</ele>
        <time>2019-12-17T08:31:46.000Z</time>
      </trkpt>
      <trkpt lat="43.3542" lon="5.98857">
        <ele>533</ele>
        <time>2019-12-17T08:31:47.000Z</time>
      </trkpt>
      <trkpt lat="43.3542" lon="5.98857">
        <ele>533</ele>
        <time>2019-12-17T08:31:48.000Z</time>
      </trkpt>
      <trkpt lat="43.3542" lon="5.98857">
        <ele>533</ele>
        <time>2019-12-17T08:31:49.000Z</time>
      </trkpt>
      <trkpt lat="43.3542" lon="5.98857">
        <ele>533</ele>
        <time>2019-12-17T08:31:50.000Z</time>
      </trkpt>
      <trkpt lat="43.35421" lon="5.98857">
        <ele>533</ele>
        <time>2019-12-17T08:31:51.000Z</time>
      </trkpt>
      <trkpt lat="43.35421" lon="5.98857">
        <ele>533</ele>
        <time>2019-12-17T08:31:52.000Z</time>
      </trkpt>
      <trkpt lat="43.35421" lon="5.98857">
        <ele>533</ele>
        <time>2019-12-17T08:31:53.000Z</time>
      </trkpt>
      <trkpt lat="43.35421" lon="5.98857">
        <ele>533</ele>
        <time>2019-12-17T08:31:54.000Z</time>
      </trkpt>
      <trkpt lat="43.35421" lon="5.98857">
        <ele>533</ele>
        <time>2019-12-17T08:31:55.000Z</time>
      </trkpt>
      <trkpt lat="43.35421" lon="5.98857">
        <ele>533</ele>
        <time>2019-12-17T08:31:56.000Z</time>
      </trkpt>
      <trkpt lat="43.35421" lon="5.98857">
        <ele>533</ele>
        <time>2019-12-17T08:31:57.000Z</time>
      </trkpt>
      <trkpt lat="43.35421" lon="5.98857">
        <ele>533</ele>
        <time>2019-12-17T08:31:58.000Z</time>
      </trkpt>
      <trkpt lat="43.35421" lon="5.98857">
        <ele>534</ele>
        <time>2019-12-17T08:31:59.000Z</time>
      </trkpt>
      <trkpt lat="43.35421" lon="5.98858">
        <ele>534</ele>
        <time>2019-12-17T08:32:00.000Z</time>
      </trkpt>
      <trkpt lat="43.35422" lon="5.98858">
        <ele>534</ele>
        <time>2019-12-17T08:32:01.000Z</time>
      </trkpt>
      <trkpt lat="43.35422" lon="5.98858">
        <ele>534</ele>
        <time>2019-12-17T08:32:02.000Z</time>
      </trkpt>
      <trkpt lat="43.35421" lon="5.98858">
        <ele>534</ele>
        <time>2019-12-17T08:32:03.000Z</time>
      </trkpt>
      <trkpt lat="43.35421" lon="5.98858">
        <ele>534</ele>
        <time>2019-12-17T08:32:04.000Z</time>
      </trkpt>
      <trkpt lat="43.35421" lon="5.98858">
        <ele>534</ele>
        <time>2019-12-17T08:32:05.000Z</time>
      </trkpt>
      <trkpt lat="43.35421" lon="5.98858">
        <ele>534</ele>
        <time>2019-12-17T08:32:06.000Z</time>
      </trkpt>
      <trkpt lat="43.35421" lon="5.98858">
        <ele>534</ele>
        <time>2019-12-17T08:32:07.000Z</time>
      </trkpt>
      <trkpt lat="43.35421" lon="5.98859">
        <ele>534</ele>
        <time>2019-12-17T08:32:08.000Z</time>
      </trkpt>
      <trkpt lat="43.35421" lon="5.98859">
        <ele>534</ele>
        <time>2019-12-17T08:32:09.000Z</time>
      </trkpt>
      <trkpt lat="43.35421" lon="5.98859">
        <ele>534</ele>
        <time>2019-12-17T08:32:10.000Z</time>
      </trkpt>
      <trkpt lat="43.35421" lon="5.98859">
        <ele>534</ele>
        <time>2019-12-17T08:32:11.000Z</time>
      </trkpt>
      <trkpt lat="43.35421" lon="5.98859">
        <ele>534</ele>
        <time>2019-12-17T08:32:12.000Z</time>
      </trkpt>
      <trkpt lat="43.35421" lon="5.98859">
        <ele>534</ele>
        <time>2019-12-17T08:32:13.000Z</time>
      </trkpt>
      <trkpt lat="43.35421" lon="5.9886">
        <ele>534</ele>
        <time>2019-12-17T08:32:14.000Z</time>
      </trkpt>
      <trkpt lat="43.35421" lon="5.9886">
        <ele>534</ele>
        <time>2019-12-17T08:32:15.000Z</time>
      </trkpt>
      <trkpt lat="43.35421" lon="5.9886">
        <ele>534</ele>
        <time>2019-12-17T08:32:16.000Z</time>
      </trkpt>
      <trkpt lat="43.35421" lon="5.9886">
        <ele>534</ele>
        <time>2019-12-17T08:32:17.000Z</time>
      </trkpt>
      <trkpt lat="43.35421" lon="5.9886">
        <ele>534</ele>
        <time>2019-12-17T08:32:18.000Z</time>
      </trkpt>
      <trkpt lat="43.3542" lon="5.9886">
        <ele>534</ele>
        <time>2019-12-17T08:32:19.000Z</time>
      </trkpt>
      <trkpt lat="43.35421" lon="5.9886">
        <ele>534</ele>
        <time>2019-12-17T08:32:20.000Z</time>
      </trkpt>
      <trkpt lat="43.3542" lon="5.9886">
        <ele>534</ele>
        <time>2019-12-17T08:32:21.000Z</time>
      </trkpt>
      <trkpt lat="43.3542" lon="5.9886">
        <ele>534</ele>
        <time>2019-12-17T08:32:22.000Z</time>
      </trkpt>
      <trkpt lat="43.3542" lon="5.9886">
        <ele>534</ele>
        <time>2019-12-17T08:32:23.000Z</time>
      </trkpt>
      <trkpt lat="43.3542" lon="5.98861">
        <ele>535</ele>
        <time>2019-12-17T08:32:24.000Z</time>
      </trkpt>
      <trkpt lat="43.3542" lon="5.98861">
        <ele>535</ele>
        <time>2019-12-17T08:32:25.000Z</time>
      </trkpt>
      <trkpt lat="43.3542" lon="5.98861">
        <ele>535</ele>
        <time>2019-12-17T08:32:26.000Z</time>
      </trkpt>
      <trkpt lat="43.3542" lon="5.98861">
        <ele>535</ele>
        <time>2019-12-17T08:32:27.000Z</time>
      </trkpt>
      <trkpt lat="43.3542" lon="5.98861">
        <ele>535</ele>
        <time>2019-12-17T08:32:28.000Z</time>
      </trkpt>
      <trkpt lat="43.3542" lon="5.98861">
        <ele>535</ele>
        <time>2019-12-17T08:32:29.000Z</time>
      </trkpt>
      <trkpt lat="43.3542" lon="5.98861">
        <ele>535</ele>
        <time>2019-12-17T08:32:30.000Z</time>
      </trkpt>
      <trkpt lat="43.3542" lon="5.98861">
        <ele>535</ele>
        <time>2019-12-17T08:32:31.000Z</time>
      </trkpt>
      <trkpt lat="43.3542" lon="5.98861">
        <ele>535</ele>
        <time>2019-12-17T08:32:32.000Z</time>
      </trkpt>
      <trkpt lat="43.3542" lon="5.98861">
        <ele>535</ele>
        <time>2019-12-17T08:32:33.000Z</time>
      </trkpt>
      <trkpt lat="43.3542" lon="5.98861">
        <ele>535</ele>
        <time>2019-12-17T08:32:34.000Z</time>
      </trkpt>
      <trkpt lat="43.3542" lon="5.98861">
        <ele>535</ele>
        <time>2019-12-17T08:32:35.000Z</time>
      </trkpt>
      <trkpt lat="43.3542" lon="5.98861">
        <ele>535</ele>
        <time>2019-12-17T08:32:36.000Z</time>
      </trkpt>
      <trkpt lat="43.3542" lon="5.98861">
        <ele>535</ele>
        <time>2019-12-17T08:32:37.000Z</time>
      </trkpt>
      <trkpt lat="43.3542" lon="5.98861">
        <ele>535</ele>
        <time>2019-12-17T08:32:38.000Z</time>
      </trkpt>
      <trkpt lat="43.3542" lon="5.98862">
        <ele>535</ele>
        <time>2019-12-17T08:32:39.000Z</time>
      </trkpt>
      <trkpt lat="43.3542" lon="5.98862">
        <ele>535</ele>
        <time>2019-12-17T08:32:40.000Z</time>
      </trkpt>
      <trkpt lat="43.3542" lon="5.98862">
        <ele>535</ele>
        <time>2019-12-17T08:32:41.000Z</time>
      </trkpt>
      <trkpt lat="43.3542" lon="5.98862">
        <ele>535</ele>
        <time>2019-12-17T08:32:42.000Z</time>
      </trkpt>
      <trkpt lat="43.3542" lon="5.98862">
        <ele>535</ele>
        <time>2019-12-17T08:32:43.000Z</time>
      </trkpt>
      <trkpt lat="43.3542" lon="5.98862">
        <ele>535</ele>
        <time>2019-12-17T08:32:44.000Z</time>
      </trkpt>
      <trkpt lat="43.3542" lon="5.98862">
        <ele>535</ele>
        <time>2019-12-17T08:32:45.000Z</time>
      </trkpt>
      <trkpt lat="43.3542" lon="5.98862">
        <ele>535</ele>
        <time>2019-12-17T08:32:46.000Z</time>
      </trkpt>
      <trkpt lat="43.3542" lon="5.98862">
        <ele>535</ele>
        <time>2019-12-17T08:32:47.000Z</time>
      </trkpt>
      <trkpt lat="43.3542" lon="5.98862">
        <ele>535</ele>
        <time>2019-12-17T08:32:48.000Z</time>
      </trkpt>
      <trkpt lat="43.3542" lon="5.98862">
        <ele>535</ele>
        <time>2019-12-17T08:32:49.000Z</time>
      </trkpt>
      <trkpt lat="43.3542" lon="5.98862">
        <ele>535</ele>
        <time>2019-12-17T08:32:50.000Z</time>
      </trkpt>
      <trkpt lat="43.3542" lon="5.98862">
        <ele>535</ele>
        <time>2019-12-17T08:32:51.000Z</time>
      </trkpt>
      <trkpt lat="43.3542" lon="5.98862">
        <ele>535</ele>
        <time>2019-12-17T08:32:52.000Z</time>
      </trkpt>
      <trkpt lat="43.3542" lon="5.98862">
        <ele>535</ele>
        <time>2019-12-17T08:32:53.000Z</time>
      </trkpt>
      <trkpt lat="43.3542" lon="5.98862">
        <ele>535</ele>
        <time>2019-12-17T08:32:54.000Z</time>
      </trkpt>
      <trkpt lat="43.3542" lon="5.98862">
        <ele>535</ele>
        <time>2019-12-17T08:32:55.000Z</time>
      </trkpt>
      <trkpt lat="43.3542" lon="5.98862">
        <ele>535</ele>
        <time>2019-12-17T08:32:56.000Z</time>
      </trkpt>
      <trkpt lat="43.3542" lon="5.98862">
        <ele>535</ele>
        <time>2019-12-17T08:32:57.000Z</time>
      </trkpt>
      <trkpt lat="43.3542" lon="5.98862">
        <ele>535</ele>
        <time>2019-12-17T08:32:58.000Z</time>
      </trkpt>
      <trkpt lat="43.3542" lon="5.98862">
        <ele>535</ele>
        <time>2019-12-17T08:32:59.000Z</time>
      </trkpt>
      <trkpt lat="43.3542" lon="5.98862">
        <ele>535</ele>
        <time>2019-12-17T08:33:00.000Z</time>
      </trkpt>
      <trkpt lat="43.35421" lon="5.98862">
        <ele>535</ele>
        <time>2019-12-17T08:33:01.000Z</time>
      </trkpt>
      <trkpt lat="43.35421" lon="5.98862">
        <ele>535</ele>
        <time>2019-12-17T08:33:02.000Z</time>
      </trkpt>
      <trkpt lat="43.35421" lon="5.98862">
        <ele>535</ele>
        <time>2019-12-17T08:33:03.000Z</time>
      </trkpt>
      <trkpt lat="43.35421" lon="5.98862">
        <ele>535</ele>
        <time>2019-12-17T08:33:04.000Z</time>
      </trkpt>
      <trkpt lat="43.35421" lon="5.98862">
        <ele>535</ele>
        <time>2019-12-17T08:33:05.000Z</time>
      </trkpt>
      <trkpt lat="43.35421" lon="5.98861">
        <ele>535</ele>
        <time>2019-12-17T08:33:06.000Z</time>
      </trkpt>
      <trkpt lat="43.35421" lon="5.98861">
        <ele>535</ele>
        <time>2019-12-17T08:33:07.000Z</time>
      </trkpt>
      <trkpt lat="43.35421" lon="5.98861">
        <ele>535</ele>
        <time>2019-12-17T08:33:08.000Z</time>
      </trkpt>
      <trkpt lat="43.35421" lon="5.98861">
        <ele>535</ele>
        <time>2019-12-17T08:33:09.000Z</time>
      </trkpt>
      <trkpt lat="43.35421" lon="5.98861">
        <ele>535</ele>
        <time>2019-12-17T08:33:10.000Z</time>
      </trkpt>
      <trkpt lat="43.35421" lon="5.98861">
        <ele>535</ele>
        <time>2019-12-17T08:33:11.000Z</time>
      </trkpt>
      <trkpt lat="43.35421" lon="5.98861">
        <ele>535</ele>
        <time>2019-12-17T08:33:12.000Z</time>
      </trkpt>
      <trkpt lat="43.35421" lon="5.98861">
        <ele>535</ele>
        <time>2019-12-17T08:33:13.000Z</time>
      </trkpt>
      <trkpt lat="43.35422" lon="5.98861">
        <ele>535</ele>
        <time>2019-12-17T08:33:14.000Z</time>
      </trkpt>
      <trkpt lat="43.35422" lon="5.98861">
        <ele>535</ele>
        <time>2019-12-17T08:33:15.000Z</time>
      </trkpt>
      <trkpt lat="43.35422" lon="5.98861">
        <ele>535</ele>
        <time>2019-12-17T08:33:16.000Z</time>
      </trkpt>
      <trkpt lat="43.35422" lon="5.98861">
        <ele>535</ele>
        <time>2019-12-17T08:33:17.000Z</time>
      </trkpt>
      <trkpt lat="43.35422" lon="5.98861">
        <ele>535</ele>
        <time>2019-12-17T08:33:18.000Z</time>
      </trkpt>
      <trkpt lat="43.35423" lon="5.98861">
        <ele>535</ele>
        <time>2019-12-17T08:33:19.000Z</time>
      </trkpt>
      <trkpt lat="43.35423" lon="5.98861">
        <ele>535</ele>
        <time>2019-12-17T08:33:20.000Z</time>
      </trkpt>
      <trkpt lat="43.35423" lon="5.98861">
        <ele>535</ele>
        <time>2019-12-17T08:33:21.000Z</time>
      </trkpt>
      <trkpt lat="43.35423" lon="5.98861">
        <ele>534</ele>
        <time>2019-12-17T08:33:22.000Z</time>
      </trkpt>
      <trkpt lat="43.35423" lon="5.98861">
        <ele>534</ele>
        <time>2019-12-17T08:33:23.000Z</time>
      </trkpt>
      <trkpt lat="43.35423" lon="5.98861">
        <ele>534</ele>
        <time>2019-12-17T08:33:24.000Z</time>
      </trkpt>
      <trkpt lat="43.35423" lon="5.98861">
        <ele>534</ele>
        <time>2019-12-17T08:33:25.000Z</time>
      </trkpt>
      <trkpt lat="43.35423" lon="5.98861">
        <ele>534</ele>
        <time>2019-12-17T08:33:26.000Z</time>
      </trkpt>
      <trkpt lat="43.35423" lon="5.98861">
        <ele>534</ele>
        <time>2019-12-17T08:33:27.000Z</time>
      </trkpt>
      <trkpt lat="43.35423" lon="5.98861">
        <ele>534</ele>
        <time>2019-12-17T08:33:28.000Z</time>
      </trkpt>
      <trkpt lat="43.35423" lon="5.98861">
        <ele>534</ele>
        <time>2019-12-17T08:33:29.000Z</time>
      </trkpt>
      <trkpt lat="43.35423" lon="5.98861">
        <ele>534</ele>
        <time>2019-12-17T08:33:30.000Z</time>
      </trkpt>
      <trkpt lat="43.35423" lon="5.98861">
        <ele>534</ele>
        <time>2019-12-17T08:33:31.000Z</time>
      </trkpt>
      <trkpt lat="43.35423" lon="5.98861">
        <ele>534</ele>
        <time>2019-12-17T08:33:32.000Z</time>
      </trkpt>
      <trkpt lat="43.35423" lon="5.98861">
        <ele>534</ele>
        <time>2019-12-17T08:33:33.000Z</time>
      </trkpt>
      <trkpt lat="43.35423" lon="5.98861">
        <ele>534</ele>
        <time>2019-12-17T08:33:34.000Z</time>
      </trkpt>
      <trkpt lat="43.35423" lon="5.98861">
        <ele>534</ele>
        <time>2019-12-17T08:33:35.000Z</time>
      </trkpt>
      <trkpt lat="43.35423" lon="5.98861">
        <ele>534</ele>
        <time>2019-12-17T08:33:36.000Z</time>
      </trkpt>
      <trkpt lat="43.35423" lon="5.98861">
        <ele>534</ele>
        <time>2019-12-17T08:33:37.000Z</time>
      </trkpt>
      <trkpt lat="43.35423" lon="5.98861">
        <ele>534</ele>
        <time>2019-12-17T08:33:38.000Z</time>
      </trkpt>
      <trkpt lat="43.35424" lon="5.98861">
        <ele>534</ele>
        <time>2019-12-17T08:33:39.000Z</time>
      </trkpt>
      <trkpt lat="43.35424" lon="5.98861">
        <ele>534</ele>
        <time>2019-12-17T08:33:40.000Z</time>
      </trkpt>
      <trkpt lat="43.35424" lon="5.98861">
        <ele>534</ele>
        <time>2019-12-17T08:33:41.000Z</time>
      </trkpt>
      <trkpt lat="43.35424" lon="5.98861">
        <ele>534</ele>
        <time>2019-12-17T08:33:42.000Z</time>
      </trkpt>
      <trkpt lat="43.35424" lon="5.98861">
        <ele>534</ele>
        <time>2019-12-17T08:33:43.000Z</time>
      </trkpt>
      <trkpt lat="43.35424" lon="5.98861">
        <ele>534</ele>
        <time>2019-12-17T08:33:44.000Z</time>
      </trkpt>
      <trkpt lat="43.35424" lon="5.98861">
        <ele>534</ele>
        <time>2019-12-17T08:33:45.000Z</time>
      </trkpt>
      <trkpt lat="43.35424" lon="5.98861">
        <ele>534</ele>
        <time>2019-12-17T08:33:46.000Z</time>
      </trkpt>
      <trkpt lat="43.35424" lon="5.98861">
        <ele>534</ele>
        <time>2019-12-17T08:33:47.000Z</time>
      </trkpt>
      <trkpt lat="43.35424" lon="5.98861">
        <ele>534</ele>
        <time>2019-12-17T08:33:48.000Z</time>
      </trkpt>
      <trkpt lat="43.35424" lon="5.98861">
        <ele>534</ele>
        <time>2019-12-17T08:33:49.000Z</time>
      </trkpt>
      <trkpt lat="43.35424" lon="5.98861">
        <ele>535</ele>
        <time>2019-12-17T08:33:50.000Z</time>
      </trkpt>
      <trkpt lat="43.35424" lon="5.98861">
        <ele>535</ele>
        <time>2019-12-17T08:33:51.000Z</time>
      </trkpt>
      <trkpt lat="43.35424" lon="5.98861">
        <ele>535</ele>
        <time>2019-12-17T08:33:52.000Z</time>
      </trkpt>
      <trkpt lat="43.35424" lon="5.98861">
        <ele>535</ele>
        <time>2019-12-17T08:33:53.000Z</time>
      </trkpt>
      <trkpt lat="43.35424" lon="5.98861">
        <ele>535</ele>
        <time>2019-12-17T08:33:54.000Z</time>
      </trkpt>
      <trkpt lat="43.35424" lon="5.98861">
        <ele>535</ele>
        <time>2019-12-17T08:33:55.000Z</time>
      </trkpt>
      <trkpt lat="43.35424" lon="5.98861">
        <ele>535</ele>
        <time>2019-12-17T08:33:56.000Z</time>
      </trkpt>
      <trkpt lat="43.35425" lon="5.98861">
        <ele>535</ele>
        <time>2019-12-17T08:33:57.000Z</time>
      </trkpt>
      <trkpt lat="43.35425" lon="5.98861">
        <ele>535</ele>
        <time>2019-12-17T08:33:58.000Z</time>
      </trkpt>
      <trkpt lat="43.35425" lon="5.98861">
        <ele>535</ele>
        <time>2019-12-17T08:33:59.000Z</time>
      </trkpt>
      <trkpt lat="43.35425" lon="5.98861">
        <ele>535</ele>
        <time>2019-12-17T08:34:00.000Z</time>
      </trkpt>
      <trkpt lat="43.35425" lon="5.98861">
        <ele>535</ele>
        <time>2019-12-17T08:34:01.000Z</time>
      </trkpt>
      <trkpt lat="43.35425" lon="5.98861">
        <ele>535</ele>
        <time>2019-12-17T08:34:02.000Z</time>
      </trkpt>
      <trkpt lat="43.35425" lon="5.98861">
        <ele>535</ele>
        <time>2019-12-17T08:34:03.000Z</time>
      </trkpt>
      <trkpt lat="43.35425" lon="5.98861">
        <ele>536</ele>
        <time>2019-12-17T08:34:04.000Z</time>
      </trkpt>
      <trkpt lat="43.35425" lon="5.98861">
        <ele>536</ele>
        <time>2019-12-17T08:34:05.000Z</time>
      </trkpt>
      <trkpt lat="43.35425" lon="5.98861">
        <ele>536</ele>
        <time>2019-12-17T08:34:06.000Z</time>
      </trkpt>
      <trkpt lat="43.35425" lon="5.98861">
        <ele>536</ele>
        <time>2019-12-17T08:34:07.000Z</time>
      </trkpt>
      <trkpt lat="43.35425" lon="5.98861">
        <ele>536</ele>
        <time>2019-12-17T08:34:08.000Z</time>
      </trkpt>
      <trkpt lat="43.35425" lon="5.98861">
        <ele>536</ele>
        <time>2019-12-17T08:34:09.000Z</time>
      </trkpt>
      <trkpt lat="43.35425" lon="5.98861">
        <ele>536</ele>
        <time>2019-12-17T08:34:10.000Z</time>
      </trkpt>
      <trkpt lat="43.35425" lon="5.98861">
        <ele>536</ele>
        <time>2019-12-17T08:34:11.000Z</time>
      </trkpt>
      <trkpt lat="43.35425" lon="5.9886">
        <ele>536</ele>
        <time>2019-12-17T08:34:12.000Z</time>
      </trkpt>
      <trkpt lat="43.35425" lon="5.9886">
        <ele>536</ele>
        <time>2019-12-17T08:34:13.000Z</time>
      </trkpt>
      <trkpt lat="43.35425" lon="5.9886">
        <ele>536</ele>
        <time>2019-12-17T08:34:14.000Z</time>
      </trkpt>
      <trkpt lat="43.35425" lon="5.9886">
        <ele>536</ele>
        <time>2019-12-17T08:34:15.000Z</time>
      </trkpt>
      <trkpt lat="43.35425" lon="5.9886">
        <ele>536</ele>
        <time>2019-12-17T08:34:16.000Z</time>
      </trkpt>
      <trkpt lat="43.35425" lon="5.9886">
        <ele>536</ele>
        <time>2019-12-17T08:34:17.000Z</time>
      </trkpt>
      <trkpt lat="43.35425" lon="5.9886">
        <ele>536</ele>
        <time>2019-12-17T08:34:18.000Z</time>
      </trkpt>
      <trkpt lat="43.35425" lon="5.9886">
        <ele>537</ele>
        <time>2019-12-17T08:34:19.000Z</time>
      </trkpt>
      <trkpt lat="43.35425" lon="5.9886">
        <ele>537</ele>
        <time>2019-12-17T08:34:20.000Z</time>
      </trkpt>
      <trkpt lat="43.35425" lon="5.9886">
        <ele>537</ele>
        <time>2019-12-17T08:34:21.000Z</time>
      </trkpt>
      <trkpt lat="43.35425" lon="5.9886">
        <ele>537</ele>
        <time>2019-12-17T08:34:22.000Z</time>
      </trkpt>
      <trkpt lat="43.35426" lon="5.9886">
        <ele>537</ele>
        <time>2019-12-17T08:34:23.000Z</time>
      </trkpt>
      <trkpt lat="43.35426" lon="5.9886">
        <ele>537</ele>
        <time>2019-12-17T08:34:24.000Z</time>
      </trkpt>
      <trkpt lat="43.35426" lon="5.98859">
        <ele>537</ele>
        <time>2019-12-17T08:34:25.000Z</time>
      </trkpt>
      <trkpt lat="43.35426" lon="5.98859">
        <ele>537</ele>
        <time>2019-12-17T08:34:26.000Z</time>
      </trkpt>
      <trkpt lat="43.35426" lon="5.98859">
        <ele>537</ele>
        <time>2019-12-17T08:34:27.000Z</time>
      </trkpt>
      <trkpt lat="43.35426" lon="5.98859">
        <ele>537</ele>
        <time>2019-12-17T08:34:28.000Z</time>
      </trkpt>
      <trkpt lat="43.35426" lon="5.98859">
        <ele>537</ele>
        <time>2019-12-17T08:34:29.000Z</time>
      </trkpt>
      <trkpt lat="43.35426" lon="5.98859">
        <ele>538</ele>
        <time>2019-12-17T08:34:30.000Z</time>
      </trkpt>
      <trkpt lat="43.35426" lon="5.98859">
        <ele>538</ele>
        <time>2019-12-17T08:34:31.000Z</time>
      </trkpt>
      <trkpt lat="43.35426" lon="5.98859">
        <ele>538</ele>
        <time>2019-12-17T08:34:32.000Z</time>
      </trkpt>
      <trkpt lat="43.35426" lon="5.98859">
        <ele>538</ele>
        <time>2019-12-17T08:34:33.000Z</time>
      </trkpt>
      <trkpt lat="43.35426" lon="5.98859">
        <ele>538</ele>
        <time>2019-12-17T08:34:34.000Z</time>
      </trkpt>
      <trkpt lat="43.35427" lon="5.98859">
        <ele>538</ele>
        <time>2019-12-17T08:34:35.000Z</time>
      </trkpt>
      <trkpt lat="43.35427" lon="5.98859">
        <ele>538</ele>
        <time>2019-12-17T08:34:36.000Z</time>
      </trkpt>
      <trkpt lat="43.35427" lon="5.98859">
        <ele>538</ele>
        <time>2019-12-17T08:34:37.000Z</time>
      </trkpt>
      <trkpt lat="43.35427" lon="5.98859">
        <ele>538</ele>
        <time>2019-12-17T08:34:38.000Z</time>
      </trkpt>
      <trkpt lat="43.35427" lon="5.98859">
        <ele>538</ele>
        <time>2019-12-17T08:34:39.000Z</time>
      </trkpt>
      <trkpt lat="43.35427" lon="5.98859">
        <ele>538</ele>
        <time>2019-12-17T08:34:40.000Z</time>
      </trkpt>
      <trkpt lat="43.35427" lon="5.98859">
        <ele>538</ele>
        <time>2019-12-17T08:34:41.000Z</time>
      </trkpt>
      <trkpt lat="43.35427" lon="5.98859">
        <ele>538</ele>
        <time>2019-12-17T08:34:42.000Z</time>
      </trkpt>
      <trkpt lat="43.35427" lon="5.9886">
        <ele>538</ele>
        <time>2019-12-17T08:34:43.000Z</time>
      </trkpt>
      <trkpt lat="43.35427" lon="5.9886">
        <ele>538</ele>
        <time>2019-12-17T08:34:44.000Z</time>
      </trkpt>
      <trkpt lat="43.35427" lon="5.9886">
        <ele>538</ele>
        <time>2019-12-17T08:34:45.000Z</time>
      </trkpt>
      <trkpt lat="43.35427" lon="5.9886">
        <ele>538</ele>
        <time>2019-12-17T08:34:46.000Z</time>
      </trkpt>
      <trkpt lat="43.35427" lon="5.9886">
        <ele>538</ele>
        <time>2019-12-17T08:34:47.000Z</time>
      </trkpt>
      <trkpt lat="43.35427" lon="5.9886">
        <ele>539</ele>
        <time>2019-12-17T08:34:48.000Z</time>
      </trkpt>
      <trkpt lat="43.35427" lon="5.9886">
        <ele>539</ele>
        <time>2019-12-17T08:34:49.000Z</time>
      </trkpt>
      <trkpt lat="43.35428" lon="5.9886">
        <ele>539</ele>
        <time>2019-12-17T08:34:50.000Z</time>
      </trkpt>
      <trkpt lat="43.35428" lon="5.98859">
        <ele>539</ele>
        <time>2019-12-17T08:34:51.000Z</time>
      </trkpt>
      <trkpt lat="43.35428" lon="5.9886">
        <ele>539</ele>
        <time>2019-12-17T08:34:52.000Z</time>
      </trkpt>
      <trkpt lat="43.35428" lon="5.9886">
        <ele>539</ele>
        <time>2019-12-17T08:34:53.000Z</time>
      </trkpt>
      <trkpt lat="43.35428" lon="5.9886">
        <ele>539</ele>
        <time>2019-12-17T08:34:54.000Z</time>
      </trkpt>
      <trkpt lat="43.35428" lon="5.9886">
        <ele>539</ele>
        <time>2019-12-17T08:34:55.000Z</time>
      </trkpt>
      <trkpt lat="43.35428" lon="5.9886">
        <ele>539</ele>
        <time>2019-12-17T08:34:56.000Z</time>
      </trkpt>
      <trkpt lat="43.35428" lon="5.9886">
        <ele>539</ele>
        <time>2019-12-17T08:34:57.000Z</time>
      </trkpt>
      <trkpt lat="43.35428" lon="5.9886">
        <ele>539</ele>
        <time>2019-12-17T08:34:58.000Z</time>
      </trkpt>
      <trkpt lat="43.35428" lon="5.9886">
        <ele>539</ele>
        <time>2019-12-17T08:34:59.000Z</time>
      </trkpt>
      <trkpt lat="43.35428" lon="5.9886">
        <ele>539</ele>
        <time>2019-12-17T08:35:00.000Z</time>
      </trkpt>
      <trkpt lat="43.35428" lon="5.9886">
        <ele>539</ele>
        <time>2019-12-17T08:35:01.000Z</time>
      </trkpt>
      <trkpt lat="43.35428" lon="5.9886">
        <ele>540</ele>
        <time>2019-12-17T08:35:02.000Z</time>
      </trkpt>
      <trkpt lat="43.35429" lon="5.9886">
        <ele>540</ele>
        <time>2019-12-17T08:35:03.000Z</time>
      </trkpt>
      <trkpt lat="43.35429" lon="5.9886">
        <ele>540</ele>
        <time>2019-12-17T08:35:04.000Z</time>
      </trkpt>
      <trkpt lat="43.35429" lon="5.9886">
        <ele>540</ele>
        <time>2019-12-17T08:35:05.000Z</time>
      </trkpt>
      <trkpt lat="43.35429" lon="5.9886">
        <ele>540</ele>
        <time>2019-12-17T08:35:06.000Z</time>
      </trkpt>
      <trkpt lat="43.35429" lon="5.9886">
        <ele>540</ele>
        <time>2019-12-17T08:35:07.000Z</time>
      </trkpt>
      <trkpt lat="43.35429" lon="5.9886">
        <ele>540</ele>
        <time>2019-12-17T08:35:08.000Z</time>
      </trkpt>
      <trkpt lat="43.35429" lon="5.9886">
        <ele>540</ele>
        <time>2019-12-17T08:35:09.000Z</time>
      </trkpt>
      <trkpt lat="43.35429" lon="5.9886">
        <ele>540</ele>
        <time>2019-12-17T08:35:10.000Z</time>
      </trkpt>
      <trkpt lat="43.35429" lon="5.9886">
        <ele>540</ele>
        <time>2019-12-17T08:35:11.000Z</time>
      </trkpt>
      <trkpt lat="43.3543" lon="5.9886">
        <ele>540</ele>
        <time>2019-12-17T08:35:12.000Z</time>
      </trkpt>
      <trkpt lat="43.3543" lon="5.9886">
        <ele>540</ele>
        <time>2019-12-17T08:35:13.000Z</time>
      </trkpt>
      <trkpt lat="43.3543" lon="5.9886">
        <ele>540</ele>
        <time>2019-12-17T08:35:14.000Z</time>
      </trkpt>
      <trkpt lat="43.3543" lon="5.9886">
        <ele>540</ele>
        <time>2019-12-17T08:35:15.000Z</time>
      </trkpt>
      <trkpt lat="43.3543" lon="5.9886">
        <ele>541</ele>
        <time>2019-12-17T08:35:16.000Z</time>
      </trkpt>
      <trkpt lat="43.3543" lon="5.9886">
        <ele>541</ele>
        <time>2019-12-17T08:35:17.000Z</time>
      </trkpt>
      <trkpt lat="43.3543" lon="5.9886">
        <ele>541</ele>
        <time>2019-12-17T08:35:18.000Z</time>
      </trkpt>
      <trkpt lat="43.3543" lon="5.9886">
        <ele>541</ele>
        <time>2019-12-17T08:35:19.000Z</time>
      </trkpt>
      <trkpt lat="43.3543" lon="5.9886">
        <ele>541</ele>
        <time>2019-12-17T08:35:20.000Z</time>
      </trkpt>
      <trkpt lat="43.3543" lon="5.9886">
        <ele>541</ele>
        <time>2019-12-17T08:35:21.000Z</time>
      </trkpt>
      <trkpt lat="43.3543" lon="5.9886">
        <ele>541</ele>
        <time>2019-12-17T08:35:22.000Z</time>
      </trkpt>
      <trkpt lat="43.3543" lon="5.9886">
        <ele>541</ele>
        <time>2019-12-17T08:35:23.000Z</time>
      </trkpt>
      <trkpt lat="43.3543" lon="5.9886">
        <ele>541</ele>
        <time>2019-12-17T08:35:24.000Z</time>
      </trkpt>
      <trkpt lat="43.3543" lon="5.9886">
        <ele>541</ele>
        <time>2019-12-17T08:35:25.000Z</time>
      </trkpt>
      <trkpt lat="43.3543" lon="5.98861">
        <ele>541</ele>
        <time>2019-12-17T08:35:26.000Z</time>
      </trkpt>
      <trkpt lat="43.35429" lon="5.98862">
        <ele>541</ele>
        <time>2019-12-17T08:35:27.000Z</time>
      </trkpt>
      <trkpt lat="43.35429" lon="5.98862">
        <ele>541</ele>
        <time>2019-12-17T08:35:28.000Z</time>
      </trkpt>
      <trkpt lat="43.35429" lon="5.98862">
        <ele>542</ele>
        <time>2019-12-17T08:35:29.000Z</time>
      </trkpt>
      <trkpt lat="43.3543" lon="5.98862">
        <ele>542</ele>
        <time>2019-12-17T08:35:30.000Z</time>
      </trkpt>
      <trkpt lat="43.3543" lon="5.98862">
        <ele>542</ele>
        <time>2019-12-17T08:35:31.000Z</time>
      </trkpt>
      <trkpt lat="43.3543" lon="5.98862">
        <ele>542</ele>
        <time>2019-12-17T08:35:32.000Z</time>
      </trkpt>
      <trkpt lat="43.35431" lon="5.98862">
        <ele>542</ele>
        <time>2019-12-17T08:35:33.000Z</time>
      </trkpt>
      <trkpt lat="43.35431" lon="5.98862">
        <ele>542</ele>
        <time>2019-12-17T08:35:34.000Z</time>
      </trkpt>
      <trkpt lat="43.35431" lon="5.98862">
        <ele>542</ele>
        <time>2019-12-17T08:35:35.000Z</time>
      </trkpt>
      <trkpt lat="43.35431" lon="5.98861">
        <ele>543</ele>
        <time>2019-12-17T08:35:36.000Z</time>
      </trkpt>
      <trkpt lat="43.35432" lon="5.98861">
        <ele>543</ele>
        <time>2019-12-17T08:35:37.000Z</time>
      </trkpt>
      <trkpt lat="43.35432" lon="5.98861">
        <ele>543</ele>
        <time>2019-12-17T08:35:38.000Z</time>
      </trkpt>
      <trkpt lat="43.35432" lon="5.98861">
        <ele>543</ele>
        <time>2019-12-17T08:35:39.000Z</time>
      </trkpt>
      <trkpt lat="43.35432" lon="5.98862">
        <ele>543</ele>
        <time>2019-12-17T08:35:40.000Z</time>
      </trkpt>
      <trkpt lat="43.35432" lon="5.98862">
        <ele>543</ele>
        <time>2019-12-17T08:35:41.000Z</time>
      </trkpt>
      <trkpt lat="43.35431" lon="5.98862">
        <ele>543</ele>
        <time>2019-12-17T08:35:42.000Z</time>
      </trkpt>
      <trkpt lat="43.35431" lon="5.98862">
        <ele>543</ele>
        <time>2019-12-17T08:35:43.000Z</time>
      </trkpt>
      <trkpt lat="43.35431" lon="5.98862">
        <ele>543</ele>
        <time>2019-12-17T08:35:44.000Z</time>
      </trkpt>
      <trkpt lat="43.35431" lon="5.98862">
        <ele>543</ele>
        <time>2019-12-17T08:35:45.000Z</time>
      </trkpt>
      <trkpt lat="43.35431" lon="5.98863">
        <ele>543</ele>
        <time>2019-12-17T08:35:46.000Z</time>
      </trkpt>
      <trkpt lat="43.35431" lon="5.98863">
        <ele>543</ele>
        <time>2019-12-17T08:35:47.000Z</time>
      </trkpt>
      <trkpt lat="43.35431" lon="5.98863">
        <ele>543</ele>
        <time>2019-12-17T08:35:48.000Z</time>
      </trkpt>
      <trkpt lat="43.35431" lon="5.98863">
        <ele>544</ele>
        <time>2019-12-17T08:35:49.000Z</time>
      </trkpt>
      <trkpt lat="43.35431" lon="5.98863">
        <ele>544</ele>
        <time>2019-12-17T08:35:50.000Z</time>
      </trkpt>
      <trkpt lat="43.35431" lon="5.98863">
        <ele>544</ele>
        <time>2019-12-17T08:35:51.000Z</time>
      </trkpt>
      <trkpt lat="43.35431" lon="5.98863">
        <ele>544</ele>
        <time>2019-12-17T08:35:52.000Z</time>
      </trkpt>
      <trkpt lat="43.35431" lon="5.98863">
        <ele>544</ele>
        <time>2019-12-17T08:35:53.000Z</time>
      </trkpt>
      <trkpt lat="43.35431" lon="5.98864">
        <ele>544</ele>
        <time>2019-12-17T08:35:54.000Z</time>
      </trkpt>
      <trkpt lat="43.35431" lon="5.98864">
        <ele>544</ele>
        <time>2019-12-17T08:35:55.000Z</time>
      </trkpt>
      <trkpt lat="43.35431" lon="5.98864">
        <ele>544</ele>
        <time>2019-12-17T08:35:56.000Z</time>
      </trkpt>
      <trkpt lat="43.35431" lon="5.98864">
        <ele>544</ele>
        <time>2019-12-17T08:35:57.000Z</time>
      </trkpt>
      <trkpt lat="43.35431" lon="5.98865">
        <ele>544</ele>
        <time>2019-12-17T08:35:58.000Z</time>
      </trkpt>
      <trkpt lat="43.35431" lon="5.98865">
        <ele>544</ele>
        <time>2019-12-17T08:35:59.000Z</time>
      </trkpt>
      <trkpt lat="43.35431" lon="5.98865">
        <ele>544</ele>
        <time>2019-12-17T08:36:00.000Z</time>
      </trkpt>
      <trkpt lat="43.35431" lon="5.98865">
        <ele>544</ele>
        <time>2019-12-17T08:36:01.000Z</time>
      </trkpt>
      <trkpt lat="43.35431" lon="5.98865">
        <ele>544</ele>
        <time>2019-12-17T08:36:02.000Z</time>
      </trkpt>
      <trkpt lat="43.35431" lon="5.98866">
        <ele>544</ele>
        <time>2019-12-17T08:36:03.000Z</time>
      </trkpt>
      <trkpt lat="43.35431" lon="5.98866">
        <ele>544</ele>
        <time>2019-12-17T08:36:04.000Z</time>
      </trkpt>
      <trkpt lat="43.35431" lon="5.98866">
        <ele>544</ele>
        <time>2019-12-17T08:36:05.000Z</time>
      </trkpt>
      <trkpt lat="43.35431" lon="5.98866">
        <ele>544</ele>
        <time>2019-12-17T08:36:06.000Z</time>
      </trkpt>
      <trkpt lat="43.35431" lon="5.98866">
        <ele>545</ele>
        <time>2019-12-17T08:36:07.000Z</time>
      </trkpt>
      <trkpt lat="43.35431" lon="5.98866">
        <ele>545</ele>
        <time>2019-12-17T08:36:08.000Z</time>
      </trkpt>
      <trkpt lat="43.35431" lon="5.98867">
        <ele>545</ele>
        <time>2019-12-17T08:36:09.000Z</time>
      </trkpt>
      <trkpt lat="43.35431" lon="5.98867">
        <ele>545</ele>
        <time>2019-12-17T08:36:10.000Z</time>
      </trkpt>
      <trkpt lat="43.3543" lon="5.98867">
        <ele>545</ele>
        <time>2019-12-17T08:36:11.000Z</time>
      </trkpt>
      <trkpt lat="43.3543" lon="5.98867">
        <ele>545</ele>
        <time>2019-12-17T08:36:12.000Z</time>
      </trkpt>
      <trkpt lat="43.3543" lon="5.98867">
        <ele>545</ele>
        <time>2019-12-17T08:36:13.000Z</time>
      </trkpt>
      <trkpt lat="43.3543" lon="5.98867">
        <ele>545</ele>
        <time>2019-12-17T08:36:14.000Z</time>
      </trkpt>
      <trkpt lat="43.35431" lon="5.98867">
        <ele>545</ele>
        <time>2019-12-17T08:36:15.000Z</time>
      </trkpt>
      <trkpt lat="43.35431" lon="5.98867">
        <ele>545</ele>
        <time>2019-12-17T08:36:16.000Z</time>
      </trkpt>
      <trkpt lat="43.35431" lon="5.98867">
        <ele>545</ele>
        <time>2019-12-17T08:36:17.000Z</time>
      </trkpt>
      <trkpt lat="43.35431" lon="5.98867">
        <ele>546</ele>
        <time>2019-12-17T08:36:18.000Z</time>
      </trkpt>
      <trkpt lat="43.35431" lon="5.98868">
        <ele>546</ele>
        <time>2019-12-17T08:36:19.000Z</time>
      </trkpt>
      <trkpt lat="43.35431" lon="5.98869">
        <ele>546</ele>
        <time>2019-12-17T08:36:20.000Z</time>
      </trkpt>
      <trkpt lat="43.3543" lon="5.98869">
        <ele>546</ele>
        <time>2019-12-17T08:36:21.000Z</time>
      </trkpt>
      <trkpt lat="43.3543" lon="5.9887">
        <ele>546</ele>
        <time>2019-12-17T08:36:22.000Z</time>
      </trkpt>
      <trkpt lat="43.35429" lon="5.9887">
        <ele>546</ele>
        <time>2019-12-17T08:36:23.000Z</time>
      </trkpt>
      <trkpt lat="43.35429" lon="5.9887">
        <ele>546</ele>
        <time>2019-12-17T08:36:24.000Z</time>
      </trkpt>
      <trkpt lat="43.35429" lon="5.98871">
        <ele>546</ele>
        <time>2019-12-17T08:36:25.000Z</time>
      </trkpt>
      <trkpt lat="43.35429" lon="5.98871">
        <ele>546</ele>
        <time>2019-12-17T08:36:26.000Z</time>
      </trkpt>
      <trkpt lat="43.35429" lon="5.98871">
        <ele>547</ele>
        <time>2019-12-17T08:36:27.000Z</time>
      </trkpt>
      <trkpt lat="43.35429" lon="5.98871">
        <ele>547</ele>
        <time>2019-12-17T08:36:28.000Z</time>
      </trkpt>
      <trkpt lat="43.35429" lon="5.98872">
        <ele>547</ele>
        <time>2019-12-17T08:36:29.000Z</time>
      </trkpt>
      <trkpt lat="43.35429" lon="5.98872">
        <ele>547</ele>
        <time>2019-12-17T08:36:30.000Z</time>
      </trkpt>
      <trkpt lat="43.35429" lon="5.98872">
        <ele>547</ele>
        <time>2019-12-17T08:36:31.000Z</time>
      </trkpt>
      <trkpt lat="43.35429" lon="5.98872">
        <ele>547</ele>
        <time>2019-12-17T08:36:32.000Z</time>
      </trkpt>
      <trkpt lat="43.35428" lon="5.98872">
        <ele>547</ele>
        <time>2019-12-17T08:36:33.000Z</time>
      </trkpt>
      <trkpt lat="43.35428" lon="5.98872">
        <ele>547</ele>
        <time>2019-12-17T08:36:34.000Z</time>
      </trkpt>
      <trkpt lat="43.35428" lon="5.98872">
        <ele>547</ele>
        <time>2019-12-17T08:36:35.000Z</time>
      </trkpt>
      <trkpt lat="43.35429" lon="5.98872">
        <ele>547</ele>
        <time>2019-12-17T08:36:36.000Z</time>
      </trkpt>
      <trkpt lat="43.35428" lon="5.98872">
        <ele>547</ele>
        <time>2019-12-17T08:36:37.000Z</time>
      </trkpt>
      <trkpt lat="43.35428" lon="5.98872">
        <ele>547</ele>
        <time>2019-12-17T08:36:38.000Z</time>
      </trkpt>
      <trkpt lat="43.35428" lon="5.98872">
        <ele>547</ele>
        <time>2019-12-17T08:36:39.000Z</time>
      </trkpt>
      <trkpt lat="43.35428" lon="5.98872">
        <ele>547</ele>
        <time>2019-12-17T08:36:40.000Z</time>
      </trkpt>
      <trkpt lat="43.35429" lon="5.98872">
        <ele>547</ele>
        <time>2019-12-17T08:36:41.000Z</time>
      </trkpt>
      <trkpt lat="43.35429" lon="5.98872">
        <ele>547</ele>
        <time>2019-12-17T08:36:42.000Z</time>
      </trkpt>
      <trkpt lat="43.35429" lon="5.98872">
        <ele>547</ele>
        <time>2019-12-17T08:36:43.000Z</time>
      </trkpt>
      <trkpt lat="43.35429" lon="5.98872">
        <ele>547</ele>
        <time>2019-12-17T08:36:44.000Z</time>
      </trkpt>
      <trkpt lat="43.35428" lon="5.98872">
        <ele>547</ele>
        <time>2019-12-17T08:36:45.000Z</time>
      </trkpt>
      <trkpt lat="43.35429" lon="5.98872">
        <ele>547</ele>
        <time>2019-12-17T08:36:46.000Z</time>
      </trkpt>
      <trkpt lat="43.35429" lon="5.98871">
        <ele>547</ele>
        <time>2019-12-17T08:36:47.000Z</time>
      </trkpt>
      <trkpt lat="43.35429" lon="5.98871">
        <ele>548</ele>
        <time>2019-12-17T08:36:48.000Z</time>
      </trkpt>
      <trkpt lat="43.35429" lon="5.98871">
        <ele>548</ele>
        <time>2019-12-17T08:36:49.000Z</time>
      </trkpt>
      <trkpt lat="43.35429" lon="5.98871">
        <ele>548</ele>
        <time>2019-12-17T08:36:50.000Z</time>
      </trkpt>
      <trkpt lat="43.3543" lon="5.98871">
        <ele>548</ele>
        <time>2019-12-17T08:36:51.000Z</time>
      </trkpt>
      <trkpt lat="43.3543" lon="5.9887">
        <ele>548</ele>
        <time>2019-12-17T08:36:52.000Z</time>
      </trkpt>
      <trkpt lat="43.3543" lon="5.9887">
        <ele>548</ele>
        <time>2019-12-17T08:36:53.000Z</time>
      </trkpt>
      <trkpt lat="43.3543" lon="5.9887">
        <ele>548</ele>
        <time>2019-12-17T08:36:54.000Z</time>
      </trkpt>
      <trkpt lat="43.3543" lon="5.9887">
        <ele>548</ele>
        <time>2019-12-17T08:36:55.000Z</time>
      </trkpt>
      <trkpt lat="43.3543" lon="5.9887">
        <ele>548</ele>
        <time>2019-12-17T08:36:56.000Z</time>
      </trkpt>
      <trkpt lat="43.3543" lon="5.9887">
        <ele>548</ele>
        <time>2019-12-17T08:36:57.000Z</time>
      </trkpt>
      <trkpt lat="43.3543" lon="5.98869">
        <ele>548</ele>
        <time>2019-12-17T08:36:58.000Z</time>
      </trkpt>
      <trkpt lat="43.3543" lon="5.98869">
        <ele>548</ele>
        <time>2019-12-17T08:36:59.000Z</time>
      </trkpt>
      <trkpt lat="43.3543" lon="5.98869">
        <ele>548</ele>
        <time>2019-12-17T08:37:00.000Z</time>
      </trkpt>
      <trkpt lat="43.3543" lon="5.98869">
        <ele>548</ele>
        <time>2019-12-17T08:37:01.000Z</time>
      </trkpt>
      <trkpt lat="43.3543" lon="5.98869">
        <ele>548</ele>
        <time>2019-12-17T08:37:02.000Z</time>
      </trkpt>
      <trkpt lat="43.3543" lon="5.98869">
        <ele>549</ele>
        <time>2019-12-17T08:37:03.000Z</time>
      </trkpt>
      <trkpt lat="43.3543" lon="5.98869">
        <ele>549</ele>
        <time>2019-12-17T08:37:04.000Z</time>
      </trkpt>
      <trkpt lat="43.3543" lon="5.98869">
        <ele>549</ele>
        <time>2019-12-17T08:37:05.000Z</time>
      </trkpt>
      <trkpt lat="43.3543" lon="5.98869">
        <ele>549</ele>
        <time>2019-12-17T08:37:06.000Z</time>
      </trkpt>
      <trkpt lat="43.3543" lon="5.98869">
        <ele>549</ele>
        <time>2019-12-17T08:37:07.000Z</time>
      </trkpt>
      <trkpt lat="43.3543" lon="5.98869">
        <ele>549</ele>
        <time>2019-12-17T08:37:08.000Z</time>
      </trkpt>
      <trkpt lat="43.3543" lon="5.98869">
        <ele>549</ele>
        <time>2019-12-17T08:37:09.000Z</time>
      </trkpt>
      <trkpt lat="43.3543" lon="5.98868">
        <ele>549</ele>
        <time>2019-12-17T08:37:10.000Z</time>
      </trkpt>
      <trkpt lat="43.3543" lon="5.98868">
        <ele>549</ele>
        <time>2019-12-17T08:37:11.000Z</time>
      </trkpt>
      <trkpt lat="43.3543" lon="5.98868">
        <ele>549</ele>
        <time>2019-12-17T08:37:12.000Z</time>
      </trkpt>
      <trkpt lat="43.3543" lon="5.98868">
        <ele>549</ele>
        <time>2019-12-17T08:37:13.000Z</time>
      </trkpt>
      <trkpt lat="43.3543" lon="5.98868">
        <ele>549</ele>
        <time>2019-12-17T08:37:14.000Z</time>
      </trkpt>
      <trkpt lat="43.3543" lon="5.98868">
        <ele>549</ele>
        <time>2019-12-17T08:37:15.000Z</time>
      </trkpt>
      <trkpt lat="43.3543" lon="5.98868">
        <ele>549</ele>
        <time>2019-12-17T08:37:16.000Z</time>
      </trkpt>
      <trkpt lat="43.3543" lon="5.98868">
        <ele>549</ele>
        <time>2019-12-17T08:37:17.000Z</time>
      </trkpt>
      <trkpt lat="43.3543" lon="5.98868">
        <ele>549</ele>
        <time>2019-12-17T08:37:18.000Z</time>
      </trkpt>
      <trkpt lat="43.35429" lon="5.98868">
        <ele>549</ele>
        <time>2019-12-17T08:37:19.000Z</time>
      </trkpt>
      <trkpt lat="43.35429" lon="5.98868">
        <ele>550</ele>
        <time>2019-12-17T08:37:20.000Z</time>
      </trkpt>
      <trkpt lat="43.35429" lon="5.98868">
        <ele>550</ele>
        <time>2019-12-17T08:37:21.000Z</time>
      </trkpt>
      <trkpt lat="43.35429" lon="5.98868">
        <ele>550</ele>
        <time>2019-12-17T08:37:22.000Z</time>
      </trkpt>
      <trkpt lat="43.35429" lon="5.98868">
        <ele>550</ele>
        <time>2019-12-17T08:37:23.000Z</time>
      </trkpt>
      <trkpt lat="43.35429" lon="5.98868">
        <ele>550</ele>
        <time>2019-12-17T08:37:24.000Z</time>
      </trkpt>
      <trkpt lat="43.35428" lon="5.98868">
        <ele>550</ele>
        <time>2019-12-17T08:37:25.000Z</time>
      </trkpt>
      <trkpt lat="43.35428" lon="5.98868">
        <ele>550</ele>
        <time>2019-12-17T08:37:26.000Z</time>
      </trkpt>
      <trkpt lat="43.35428" lon="5.98868">
        <ele>550</ele>
        <time>2019-12-17T08:37:27.000Z</time>
      </trkpt>
      <trkpt lat="43.35428" lon="5.98868">
        <ele>550</ele>
        <time>2019-12-17T08:37:28.000Z</time>
      </trkpt>
      <trkpt lat="43.35428" lon="5.98868">
        <ele>550</ele>
        <time>2019-12-17T08:37:29.000Z</time>
      </trkpt>
      <trkpt lat="43.35428" lon="5.98868">
        <ele>550</ele>
        <time>2019-12-17T08:37:30.000Z</time>
      </trkpt>
      <trkpt lat="43.35428" lon="5.98868">
        <ele>550</ele>
        <time>2019-12-17T08:37:31.000Z</time>
      </trkpt>
      <trkpt lat="43.35428" lon="5.98869">
        <ele>550</ele>
        <time>2019-12-17T08:37:32.000Z</time>
      </trkpt>
      <trkpt lat="43.35428" lon="5.98869">
        <ele>550</ele>
        <time>2019-12-17T08:37:33.000Z</time>
      </trkpt>
      <trkpt lat="43.35428" lon="5.98869">
        <ele>550</ele>
        <time>2019-12-17T08:37:34.000Z</time>
      </trkpt>
      <trkpt lat="43.35428" lon="5.98869">
        <ele>551</ele>
        <time>2019-12-17T08:37:35.000Z</time>
      </trkpt>
      <trkpt lat="43.35428" lon="5.98869">
        <ele>551</ele>
        <time>2019-12-17T08:37:36.000Z</time>
      </trkpt>
      <trkpt lat="43.35428" lon="5.98869">
        <ele>551</ele>
        <time>2019-12-17T08:37:37.000Z</time>
      </trkpt>
      <trkpt lat="43.35428" lon="5.98869">
        <ele>551</ele>
        <time>2019-12-17T08:37:38.000Z</time>
      </trkpt>
      <trkpt lat="43.35428" lon="5.98869">
        <ele>551</ele>
        <time>2019-12-17T08:37:39.000Z</time>
      </trkpt>
      <trkpt lat="43.35428" lon="5.98869">
        <ele>551</ele>
        <time>2019-12-17T08:37:40.000Z</time>
      </trkpt>
      <trkpt lat="43.35429" lon="5.98869">
        <ele>551</ele>
        <time>2019-12-17T08:37:41.000Z</time>
      </trkpt>
      <trkpt lat="43.35429" lon="5.98869">
        <ele>551</ele>
        <time>2019-12-17T08:37:42.000Z</time>
      </trkpt>
      <trkpt lat="43.35429" lon="5.98869">
        <ele>551</ele>
        <time>2019-12-17T08:37:43.000Z</time>
      </trkpt>
      <trkpt lat="43.35429" lon="5.98869">
        <ele>551</ele>
        <time>2019-12-17T08:37:44.000Z</time>
      </trkpt>
      <trkpt lat="43.3543" lon="5.98869">
        <ele>551</ele>
        <time>2019-12-17T08:37:45.000Z</time>
      </trkpt>
      <trkpt lat="43.3543" lon="5.98869">
        <ele>551</ele>
        <time>2019-12-17T08:37:46.000Z</time>
      </trkpt>
      <trkpt lat="43.3543" lon="5.98869">
        <ele>551</ele>
        <time>2019-12-17T08:37:47.000Z</time>
      </trkpt>
      <trkpt lat="43.3543" lon="5.98869">
        <ele>551</ele>
        <time>2019-12-17T08:37:48.000Z</time>
      </trkpt>
      <trkpt lat="43.3543" lon="5.98869">
        <ele>551</ele>
        <time>2019-12-17T08:37:49.000Z</time>
      </trkpt>
      <trkpt lat="43.3543" lon="5.98869">
        <ele>551</ele>
        <time>2019-12-17T08:37:50.000Z</time>
      </trkpt>
      <trkpt lat="43.3543" lon="5.98869">
        <ele>552</ele>
        <time>2019-12-17T08:37:51.000Z</time>
      </trkpt>
      <trkpt lat="43.3543" lon="5.98869">
        <ele>552</ele>
        <time>2019-12-17T08:37:52.000Z</time>
      </trkpt>
      <trkpt lat="43.3543" lon="5.98869">
        <ele>552</ele>
        <time>2019-12-17T08:37:53.000Z</time>
      </trkpt>
      <trkpt lat="43.35431" lon="5.98869">
        <ele>552</ele>
        <time>2019-12-17T08:37:54.000Z</time>
      </trkpt>
      <trkpt lat="43.35431" lon="5.98869">
        <ele>552</ele>
        <time>2019-12-17T08:37:55.000Z</time>
      </trkpt>
      <trkpt lat="43.35431" lon="5.98869">
        <ele>552</ele>
        <time>2019-12-17T08:37:56.000Z</time>
      </trkpt>
      <trkpt lat="43.35431" lon="5.98869">
        <ele>552</ele>
        <time>2019-12-17T08:37:57.000Z</time>
      </trkpt>
      <trkpt lat="43.35431" lon="5.98869">
        <ele>552</ele>
        <time>2019-12-17T08:37:58.000Z</time>
      </trkpt>
      <trkpt lat="43.35431" lon="5.98869">
        <ele>552</ele>
        <time>2019-12-17T08:37:59.000Z</time>
      </trkpt>
      <trkpt lat="43.35431" lon="5.98869">
        <ele>552</ele>
        <time>2019-12-17T08:38:00.000Z</time>
      </trkpt>
      <trkpt lat="43.35431" lon="5.98869">
        <ele>552</ele>
        <time>2019-12-17T08:38:01.000Z</time>
      </trkpt>
      <trkpt lat="43.35431" lon="5.98869">
        <ele>553</ele>
        <time>2019-12-17T08:38:02.000Z</time>
      </trkpt>
      <trkpt lat="43.35431" lon="5.98869">
        <ele>553</ele>
        <time>2019-12-17T08:38:03.000Z</time>
      </trkpt>
      <trkpt lat="43.35432" lon="5.98869">
        <ele>553</ele>
        <time>2019-12-17T08:38:04.000Z</time>
      </trkpt>
      <trkpt lat="43.35432" lon="5.98868">
        <ele>553</ele>
        <time>2019-12-17T08:38:05.000Z</time>
      </trkpt>
      <trkpt lat="43.35432" lon="5.98868">
        <ele>553</ele>
        <time>2019-12-17T08:38:06.000Z</time>
      </trkpt>
      <trkpt lat="43.35433" lon="5.98869">
        <ele>554</ele>
        <time>2019-12-17T08:38:07.000Z</time>
      </trkpt>
      <trkpt lat="43.35433" lon="5.98869">
        <ele>554</ele>
        <time>2019-12-17T08:38:08.000Z</time>
      </trkpt>
      <trkpt lat="43.35433" lon="5.98868">
        <ele>554</ele>
        <time>2019-12-17T08:38:09.000Z</time>
      </trkpt>
      <trkpt lat="43.35433" lon="5.98868">
        <ele>554</ele>
        <time>2019-12-17T08:38:10.000Z</time>
      </trkpt>
      <trkpt lat="43.35433" lon="5.98868">
        <ele>555</ele>
        <time>2019-12-17T08:38:11.000Z</time>
      </trkpt>
      <trkpt lat="43.35433" lon="5.98868">
        <ele>555</ele>
        <time>2019-12-17T08:38:12.000Z</time>
      </trkpt>
      <trkpt lat="43.35434" lon="5.98868">
        <ele>555</ele>
        <time>2019-12-17T08:38:13.000Z</time>
      </trkpt>
      <trkpt lat="43.35434" lon="5.98868">
        <ele>555</ele>
        <time>2019-12-17T08:38:14.000Z</time>
      </trkpt>
      <trkpt lat="43.35434" lon="5.98868">
        <ele>555</ele>
        <time>2019-12-17T08:38:15.000Z</time>
      </trkpt>
      <trkpt lat="43.35434" lon="5.98868">
        <ele>555</ele>
        <time>2019-12-17T08:38:16.000Z</time>
      </trkpt>
      <trkpt lat="43.35434" lon="5.98868">
        <ele>555</ele>
        <time>2019-12-17T08:38:17.000Z</time>
      </trkpt>
      <trkpt lat="43.35434" lon="5.98868">
        <ele>556</ele>
        <time>2019-12-17T08:38:18.000Z</time>
      </trkpt>
      <trkpt lat="43.35434" lon="5.98868">
        <ele>556</ele>
        <time>2019-12-17T08:38:19.000Z</time>
      </trkpt>
      <trkpt lat="43.35434" lon="5.98868">
        <ele>556</ele>
        <time>2019-12-17T08:38:20.000Z</time>
      </trkpt>
      <trkpt lat="43.35434" lon="5.98868">
        <ele>556</ele>
        <time>2019-12-17T08:38:21.000Z</time>
      </trkpt>
      <trkpt lat="43.35435" lon="5.98868">
        <ele>556</ele>
        <time>2019-12-17T08:38:22.000Z</time>
      </trkpt>
      <trkpt lat="43.35435" lon="5.98868">
        <ele>556</ele>
        <time>2019-12-17T08:38:23.000Z</time>
      </trkpt>
      <trkpt lat="43.35435" lon="5.98868">
        <ele>556</ele>
        <time>2019-12-17T08:38:24.000Z</time>
      </trkpt>
      <trkpt lat="43.35435" lon="5.98868">
        <ele>556</ele>
        <time>2019-12-17T08:38:25.000Z</time>
      </trkpt>
      <trkpt lat="43.35435" lon="5.98868">
        <ele>556</ele>
        <time>2019-12-17T08:38:26.000Z</time>
      </trkpt>
      <trkpt lat="43.35435" lon="5.98868">
        <ele>556</ele>
        <time>2019-12-17T08:38:27.000Z</time>
      </trkpt>
      <trkpt lat="43.35435" lon="5.98868">
        <ele>556</ele>
        <time>2019-12-17T08:38:28.000Z</time>
      </trkpt>
      <trkpt lat="43.35435" lon="5.98868">
        <ele>556</ele>
        <time>2019-12-17T08:38:29.000Z</time>
      </trkpt>
      <trkpt lat="43.35435" lon="5.98867">
        <ele>557</ele>
        <time>2019-12-17T08:38:30.000Z</time>
      </trkpt>
      <trkpt lat="43.35435" lon="5.98867">
        <ele>557</ele>
        <time>2019-12-17T08:38:31.000Z</time>
      </trkpt>
      <trkpt lat="43.35435" lon="5.98867">
        <ele>557</ele>
        <time>2019-12-17T08:38:32.000Z</time>
      </trkpt>
      <trkpt lat="43.35435" lon="5.98867">
        <ele>557</ele>
        <time>2019-12-17T08:38:33.000Z</time>
      </trkpt>
      <trkpt lat="43.35435" lon="5.98867">
        <ele>557</ele>
        <time>2019-12-17T08:38:34.000Z</time>
      </trkpt>
      <trkpt lat="43.35435" lon="5.98867">
        <ele>557</ele>
        <time>2019-12-17T08:38:35.000Z</time>
      </trkpt>
      <trkpt lat="43.35435" lon="5.98867">
        <ele>557</ele>
        <time>2019-12-17T08:38:36.000Z</time>
      </trkpt>
      <trkpt lat="43.35435" lon="5.98867">
        <ele>557</ele>
        <time>2019-12-17T08:38:37.000Z</time>
      </trkpt>
      <trkpt lat="43.35435" lon="5.98867">
        <ele>557</ele>
        <time>2019-12-17T08:38:38.000Z</time>
      </trkpt>
      <trkpt lat="43.35435" lon="5.98867">
        <ele>557</ele>
        <time>2019-12-17T08:38:39.000Z</time>
      </trkpt>
      <trkpt lat="43.35435" lon="5.98867">
        <ele>557</ele>
        <time>2019-12-17T08:38:40.000Z</time>
      </trkpt>
      <trkpt lat="43.35435" lon="5.98867">
        <ele>557</ele>
        <time>2019-12-17T08:38:41.000Z</time>
      </trkpt>
      <trkpt lat="43.35435" lon="5.98867">
        <ele>557</ele>
        <time>2019-12-17T08:38:42.000Z</time>
      </trkpt>
      <trkpt lat="43.35435" lon="5.98868">
        <ele>557</ele>
        <time>2019-12-17T08:38:43.000Z</time>
      </trkpt>
      <trkpt lat="43.35435" lon="5.98868">
        <ele>557</ele>
        <time>2019-12-17T08:38:44.000Z</time>
      </trkpt>
      <trkpt lat="43.35435" lon="5.98868">
        <ele>557</ele>
        <time>2019-12-17T08:38:45.000Z</time>
      </trkpt>
      <trkpt lat="43.35435" lon="5.98867">
        <ele>557</ele>
        <time>2019-12-17T08:38:46.000Z</time>
      </trkpt>
      <trkpt lat="43.35435" lon="5.98867">
        <ele>557</ele>
        <time>2019-12-17T08:38:47.000Z</time>
      </trkpt>
      <trkpt lat="43.35435" lon="5.98867">
        <ele>557</ele>
        <time>2019-12-17T08:38:48.000Z</time>
      </trkpt>
      <trkpt lat="43.35435" lon="5.98867">
        <ele>557</ele>
        <time>2019-12-17T08:38:49.000Z</time>
      </trkpt>
      <trkpt lat="43.35435" lon="5.98867">
        <ele>557</ele>
        <time>2019-12-17T08:38:50.000Z</time>
      </trkpt>
      <trkpt lat="43.35435" lon="5.98867">
        <ele>557</ele>
        <time>2019-12-17T08:38:51.000Z</time>
      </trkpt>
      <trkpt lat="43.35435" lon="5.98867">
        <ele>557</ele>
        <time>2019-12-17T08:38:52.000Z</time>
      </trkpt>
      <trkpt lat="43.35436" lon="5.98867">
        <ele>557</ele>
        <time>2019-12-17T08:38:53.000Z</time>
      </trkpt>
      <trkpt lat="43.35436" lon="5.98867">
        <ele>557</ele>
        <time>2019-12-17T08:38:54.000Z</time>
      </trkpt>
      <trkpt lat="43.35436" lon="5.98867">
        <ele>557</ele>
        <time>2019-12-17T08:38:55.000Z</time>
      </trkpt>
      <trkpt lat="43.35436" lon="5.98867">
        <ele>557</ele>
        <time>2019-12-17T08:38:56.000Z</time>
      </trkpt>
      <trkpt lat="43.35436" lon="5.98867">
        <ele>557</ele>
        <time>2019-12-17T08:38:57.000Z</time>
      </trkpt>
      <trkpt lat="43.35436" lon="5.98867">
        <ele>557</ele>
        <time>2019-12-17T08:38:58.000Z</time>
      </trkpt>
      <trkpt lat="43.35436" lon="5.98867">
        <ele>557</ele>
        <time>2019-12-17T08:38:59.000Z</time>
      </trkpt>
      <trkpt lat="43.35436" lon="5.98867">
        <ele>557</ele>
        <time>2019-12-17T08:39:00.000Z</time>
      </trkpt>
      <trkpt lat="43.35436" lon="5.98867">
        <ele>557</ele>
        <time>2019-12-17T08:39:01.000Z</time>
      </trkpt>
      <trkpt lat="43.35436" lon="5.98867">
        <ele>557</ele>
        <time>2019-12-17T08:39:02.000Z</time>
      </trkpt>
      <trkpt lat="43.35436" lon="5.98867">
        <ele>557</ele>
        <time>2019-12-17T08:39:03.000Z</time>
      </trkpt>
      <trkpt lat="43.35436" lon="5.98867">
        <ele>557</ele>
        <time>2019-12-17T08:39:04.000Z</time>
      </trkpt>
      <trkpt lat="43.35436" lon="5.98867">
        <ele>557</ele>
        <time>2019-12-17T08:39:05.000Z</time>
      </trkpt>
      <trkpt lat="43.35436" lon="5.98867">
        <ele>557</ele>
        <time>2019-12-17T08:39:06.000Z</time>
      </trkpt>
      <trkpt lat="43.35436" lon="5.98867">
        <ele>557</ele>
        <time>2019-12-17T08:39:07.000Z</time>
      </trkpt>
      <trkpt lat="43.35436" lon="5.98867">
        <ele>557</ele>
        <time>2019-12-17T08:39:08.000Z</time>
      </trkpt>
      <trkpt lat="43.35436" lon="5.98866">
        <ele>557</ele>
        <time>2019-12-17T08:39:09.000Z</time>
      </trkpt>
      <trkpt lat="43.35436" lon="5.98866">
        <ele>557</ele>
        <time>2019-12-17T08:39:10.000Z</time>
      </trkpt>
      <trkpt lat="43.35436" lon="5.98866">
        <ele>557</ele>
        <time>2019-12-17T08:39:11.000Z</time>
      </trkpt>
      <trkpt lat="43.35436" lon="5.98866">
        <ele>557</ele>
        <time>2019-12-17T08:39:12.000Z</time>
      </trkpt>
      <trkpt lat="43.35436" lon="5.98866">
        <ele>557</ele>
        <time>2019-12-17T08:39:13.000Z</time>
      </trkpt>
      <trkpt lat="43.35436" lon="5.98866">
        <ele>557</ele>
        <time>2019-12-17T08:39:14.000Z</time>
      </trkpt>
      <trkpt lat="43.35436" lon="5.98866">
        <ele>557</ele>
        <time>2019-12-17T08:39:15.000Z</time>
      </trkpt>
      <trkpt lat="43.35436" lon="5.98866">
        <ele>558</ele>
        <time>2019-12-17T08:39:16.000Z</time>
      </trkpt>
      <trkpt lat="43.35436" lon="5.98866">
        <ele>558</ele>
        <time>2019-12-17T08:39:17.000Z</time>
      </trkpt>
      <trkpt lat="43.35437" lon="5.98866">
        <ele>558</ele>
        <time>2019-12-17T08:39:18.000Z</time>
      </trkpt>
      <trkpt lat="43.35437" lon="5.98866">
        <ele>558</ele>
        <time>2019-12-17T08:39:19.000Z</time>
      </trkpt>
      <trkpt lat="43.35437" lon="5.98866">
        <ele>558</ele>
        <time>2019-12-17T08:39:20.000Z</time>
      </trkpt>
      <trkpt lat="43.35438" lon="5.98867">
        <ele>558</ele>
        <time>2019-12-17T08:39:21.000Z</time>
      </trkpt>
      <trkpt lat="43.35438" lon="5.98867">
        <ele>558</ele>
        <time>2019-12-17T08:39:22.000Z</time>
      </trkpt>
      <trkpt lat="43.35438" lon="5.98867">
        <ele>558</ele>
        <time>2019-12-17T08:39:23.000Z</time>
      </trkpt>
      <trkpt lat="43.35438" lon="5.98867">
        <ele>558</ele>
        <time>2019-12-17T08:39:24.000Z</time>
      </trkpt>
      <trkpt lat="43.35438" lon="5.98867">
        <ele>558</ele>
        <time>2019-12-17T08:39:25.000Z</time>
      </trkpt>
      <trkpt lat="43.35438" lon="5.98867">
        <ele>558</ele>
        <time>2019-12-17T08:39:26.000Z</time>
      </trkpt>
      <trkpt lat="43.35438" lon="5.98867">
        <ele>558</ele>
        <time>2019-12-17T08:39:27.000Z</time>
      </trkpt>
      <trkpt lat="43.35438" lon="5.98867">
        <ele>558</ele>
        <time>2019-12-17T08:39:28.000Z</time>
      </trkpt>
      <trkpt lat="43.35438" lon="5.98867">
        <ele>558</ele>
        <time>2019-12-17T08:39:29.000Z</time>
      </trkpt>
      <trkpt lat="43.35438" lon="5.98867">
        <ele>558</ele>
        <time>2019-12-17T08:39:30.000Z</time>
      </trkpt>
      <trkpt lat="43.35438" lon="5.98867">
        <ele>558</ele>
        <time>2019-12-17T08:39:31.000Z</time>
      </trkpt>
      <trkpt lat="43.35438" lon="5.98866">
        <ele>558</ele>
        <time>2019-12-17T08:39:32.000Z</time>
      </trkpt>
      <trkpt lat="43.35438" lon="5.98866">
        <ele>558</ele>
        <time>2019-12-17T08:39:33.000Z</time>
      </trkpt>
      <trkpt lat="43.35438" lon="5.98866">
        <ele>558</ele>
        <time>2019-12-17T08:39:34.000Z</time>
      </trkpt>
      <trkpt lat="43.35438" lon="5.98866">
        <ele>558</ele>
        <time>2019-12-17T08:39:35.000Z</time>
      </trkpt>
      <trkpt lat="43.35438" lon="5.98866">
        <ele>558</ele>
        <time>2019-12-17T08:39:36.000Z</time>
      </trkpt>
      <trkpt lat="43.35438" lon="5.98867">
        <ele>558</ele>
        <time>2019-12-17T08:39:37.000Z</time>
      </trkpt>
      <trkpt lat="43.35438" lon="5.98867">
        <ele>558</ele>
        <time>2019-12-17T08:39:38.000Z</time>
      </trkpt>
      <trkpt lat="43.35438" lon="5.98867">
        <ele>558</ele>
        <time>2019-12-17T08:39:39.000Z</time>
      </trkpt>
      <trkpt lat="43.35438" lon="5.98867">
        <ele>558</ele>
        <time>2019-12-17T08:39:40.000Z</time>
      </trkpt>
      <trkpt lat="43.35438" lon="5.98866">
        <ele>558</ele>
        <time>2019-12-17T08:39:41.000Z</time>
      </trkpt>
      <trkpt lat="43.35438" lon="5.98866">
        <ele>558</ele>
        <time>2019-12-17T08:39:42.000Z</time>
      </trkpt>
      <trkpt lat="43.35438" lon="5.98866">
        <ele>558</ele>
        <time>2019-12-17T08:39:43.000Z</time>
      </trkpt>
      <trkpt lat="43.35438" lon="5.98866">
        <ele>558</ele>
        <time>2019-12-17T08:39:44.000Z</time>
      </trkpt>
      <trkpt lat="43.35438" lon="5.98866">
        <ele>558</ele>
        <time>2019-12-17T08:39:45.000Z</time>
      </trkpt>
      <trkpt lat="43.35438" lon="5.98866">
        <ele>558</ele>
        <time>2019-12-17T08:39:46.000Z</time>
      </trkpt>
      <trkpt lat="43.35438" lon="5.98866">
        <ele>558</ele>
        <time>2019-12-17T08:39:47.000Z</time>
      </trkpt>
      <trkpt lat="43.35438" lon="5.98866">
        <ele>558</ele>
        <time>2019-12-17T08:39:48.000Z</time>
      </trkpt>
      <trkpt lat="43.35438" lon="5.98866">
        <ele>558</ele>
        <time>2019-12-17T08:39:49.000Z</time>
      </trkpt>
      <trkpt lat="43.35438" lon="5.98866">
        <ele>558</ele>
        <time>2019-12-17T08:39:50.000Z</time>
      </trkpt>
      <trkpt lat="43.35438" lon="5.98866">
        <ele>558</ele>
        <time>2019-12-17T08:39:51.000Z</time>
      </trkpt>
      <trkpt lat="43.35438" lon="5.98866">
        <ele>558</ele>
        <time>2019-12-17T08:39:52.000Z</time>
      </trkpt>
      <trkpt lat="43.35438" lon="5.98866">
        <ele>558</ele>
        <time>2019-12-17T08:39:53.000Z</time>
      </trkpt>
      <trkpt lat="43.35438" lon="5.98866">
        <ele>558</ele>
        <time>2019-12-17T08:39:54.000Z</time>
      </trkpt>
      <trkpt lat="43.35438" lon="5.98866">
        <ele>558</ele>
        <time>2019-12-17T08:39:55.000Z</time>
      </trkpt>
      <trkpt lat="43.35438" lon="5.98866">
        <ele>558</ele>
        <time>2019-12-17T08:39:56.000Z</time>
      </trkpt>
      <trkpt lat="43.35438" lon="5.98866">
        <ele>558</ele>
        <time>2019-12-17T08:39:57.000Z</time>
      </trkpt>
      <trkpt lat="43.35438" lon="5.98866">
        <ele>558</ele>
        <time>2019-12-17T08:39:58.000Z</time>
      </trkpt>
      <trkpt lat="43.35438" lon="5.98866">
        <ele>558</ele>
        <time>2019-12-17T08:39:59.000Z</time>
      </trkpt>
      <trkpt lat="43.35438" lon="5.98866">
        <ele>558</ele>
        <time>2019-12-17T08:40:00.000Z</time>
      </trkpt>
      <trkpt lat="43.35438" lon="5.98866">
        <ele>558</ele>
        <time>2019-12-17T08:40:01.000Z</time>
      </trkpt>
      <trkpt lat="43.35438" lon="5.98866">
        <ele>558</ele>
        <time>2019-12-17T08:40:02.000Z</time>
      </trkpt>
      <trkpt lat="43.35438" lon="5.98866">
        <ele>558</ele>
        <time>2019-12-17T08:40:03.000Z</time>
      </trkpt>
      <trkpt lat="43.35438" lon="5.98866">
        <ele>558</ele>
        <time>2019-12-17T08:40:04.000Z</time>
      </trkpt>
      <trkpt lat="43.35438" lon="5.98866">
        <ele>558</ele>
        <time>2019-12-17T08:40:05.000Z</time>
      </trkpt>
      <trkpt lat="43.35438" lon="5.98866">
        <ele>558</ele>
        <time>2019-12-17T08:40:06.000Z</time>
      </trkpt>
      <trkpt lat="43.35438" lon="5.98866">
        <ele>558</ele>
        <time>2019-12-17T08:40:07.000Z</time>
      </trkpt>
      <trkpt lat="43.35438" lon="5.98866">
        <ele>558</ele>
        <time>2019-12-17T08:40:08.000Z</time>
      </trkpt>
      <trkpt lat="43.35438" lon="5.98866">
        <ele>558</ele>
        <time>2019-12-17T08:40:09.000Z</time>
      </trkpt>
      <trkpt lat="43.35438" lon="5.98866">
        <ele>558</ele>
        <time>2019-12-17T08:40:10.000Z</time>
      </trkpt>
      <trkpt lat="43.35438" lon="5.98866">
        <ele>558</ele>
        <time>2019-12-17T08:40:11.000Z</time>
      </trkpt>
      <trkpt lat="43.35438" lon="5.98865">
        <ele>558</ele>
        <time>2019-12-17T08:40:12.000Z</time>
      </trkpt>
      <trkpt lat="43.35438" lon="5.98865">
        <ele>558</ele>
        <time>2019-12-17T08:40:13.000Z</time>
      </trkpt>
      <trkpt lat="43.35438" lon="5.98866">
        <ele>558</ele>
        <time>2019-12-17T08:40:14.000Z</time>
      </trkpt>
      <trkpt lat="43.35438" lon="5.98866">
        <ele>558</ele>
        <time>2019-12-17T08:40:15.000Z</time>
      </trkpt>
      <trkpt lat="43.35438" lon="5.98866">
        <ele>558</ele>
        <time>2019-12-17T08:40:16.000Z</time>
      </trkpt>
      <trkpt lat="43.35438" lon="5.98866">
        <ele>558</ele>
        <time>2019-12-17T08:40:17.000Z</time>
      </trkpt>
      <trkpt lat="43.35438" lon="5.98866">
        <ele>558</ele>
        <time>2019-12-17T08:40:18.000Z</time>
      </trkpt>
      <trkpt lat="43.35438" lon="5.98866">
        <ele>558</ele>
        <time>2019-12-17T08:40:19.000Z</time>
      </trkpt>
      <trkpt lat="43.35438" lon="5.98866">
        <ele>558</ele>
        <time>2019-12-17T08:40:20.000Z</time>
      </trkpt>
      <trkpt lat="43.35438" lon="5.98866">
        <ele>558</ele>
        <time>2019-12-17T08:40:21.000Z</time>
      </trkpt>
      <trkpt lat="43.35438" lon="5.98866">
        <ele>558</ele>
        <time>2019-12-17T08:40:22.000Z</time>
      </trkpt>
      <trkpt lat="43.35438" lon="5.98866">
        <ele>558</ele>
        <time>2019-12-17T08:40:23.000Z</time>
      </trkpt>
      <trkpt lat="43.35438" lon="5.98866">
        <ele>558</ele>
        <time>2019-12-17T08:40:24.000Z</time>
      </trkpt>
      <trkpt lat="43.35438" lon="5.98866">
        <ele>558</ele>
        <time>2019-12-17T08:40:25.000Z</time>
      </trkpt>
      <trkpt lat="43.35438" lon="5.98866">
        <ele>558</ele>
        <time>2019-12-17T08:40:26.000Z</time>
      </trkpt>
      <trkpt lat="43.35438" lon="5.98866">
        <ele>558</ele>
        <time>2019-12-17T08:40:27.000Z</time>
      </trkpt>
      <trkpt lat="43.35438" lon="5.98866">
        <ele>558</ele>
        <time>2019-12-17T08:40:28.000Z</time>
      </trkpt>
      <trkpt lat="43.35438" lon="5.98866">
        <ele>558</ele>
        <time>2019-12-17T08:40:29.000Z</time>
      </trkpt>
      <trkpt lat="43.35438" lon="5.98866">
        <ele>558</ele>
        <time>2019-12-17T08:40:30.000Z</time>
      </trkpt>
      <trkpt lat="43.35439" lon="5.98866">
        <ele>558</ele>
        <time>2019-12-17T08:40:31.000Z</time>
      </trkpt>
      <trkpt lat="43.35439" lon="5.98866">
        <ele>558</ele>
        <time>2019-12-17T08:40:32.000Z</time>
      </trkpt>
      <trkpt lat="43.35439" lon="5.98866">
        <ele>558</ele>
        <time>2019-12-17T08:40:33.000Z</time>
      </trkpt>
      <trkpt lat="43.35439" lon="5.98866">
        <ele>558</ele>
        <time>2019-12-17T08:40:34.000Z</time>
      </trkpt>
      <trkpt lat="43.35439" lon="5.98866">
        <ele>558</ele>
        <time>2019-12-17T08:40:35.000Z</time>
      </trkpt>
      <trkpt lat="43.35439" lon="5.98866">
        <ele>558</ele>
        <time>2019-12-17T08:40:36.000Z</time>
      </trkpt>
      <trkpt lat="43.35439" lon="5.98866">
        <ele>558</ele>
        <time>2019-12-17T08:40:37.000Z</time>
      </trkpt>
      <trkpt lat="43.35439" lon="5.98866">
        <ele>558</ele>
        <time>2019-12-17T08:40:38.000Z</time>
      </trkpt>
      <trkpt lat="43.35439" lon="5.98866">
        <ele>558</ele>
        <time>2019-12-17T08:40:39.000Z</time>
      </trkpt>
      <trkpt lat="43.35439" lon="5.98866">
        <ele>558</ele>
        <time>2019-12-17T08:40:40.000Z</time>
      </trkpt>
      <trkpt lat="43.35439" lon="5.98866">
        <ele>558</ele>
        <time>2019-12-17T08:40:41.000Z</time>
      </trkpt>
      <trkpt lat="43.35439" lon="5.98866">
        <ele>558</ele>
        <time>2019-12-17T08:40:42.000Z</time>
      </trkpt>
      <trkpt lat="43.35439" lon="5.98866">
        <ele>558</ele>
        <time>2019-12-17T08:40:43.000Z</time>
      </trkpt>
      <trkpt lat="43.35439" lon="5.98866">
        <ele>558</ele>
        <time>2019-12-17T08:40:44.000Z</time>
      </trkpt>
      <trkpt lat="43.35439" lon="5.98866">
        <ele>558</ele>
        <time>2019-12-17T08:40:45.000Z</time>
      </trkpt>
      <trkpt lat="43.35439" lon="5.98866">
        <ele>558</ele>
        <time>2019-12-17T08:40:46.000Z</time>
      </trkpt>
      <trkpt lat="43.35439" lon="5.98866">
        <ele>558</ele>
        <time>2019-12-17T08:40:47.000Z</time>
      </trkpt>
      <trkpt lat="43.35439" lon="5.98866">
        <ele>558</ele>
        <time>2019-12-17T08:40:48.000Z</time>
      </trkpt>
      <trkpt lat="43.35439" lon="5.98866">
        <ele>558</ele>
        <time>2019-12-17T08:40:49.000Z</time>
      </trkpt>
      <trkpt lat="43.35439" lon="5.98866">
        <ele>558</ele>
        <time>2019-12-17T08:40:50.000Z</time>
      </trkpt>
      <trkpt lat="43.35439" lon="5.98866">
        <ele>558</ele>
        <time>2019-12-17T08:40:51.000Z</time>
      </trkpt>
      <trkpt lat="43.35439" lon="5.98866">
        <ele>558</ele>
        <time>2019-12-17T08:40:52.000Z</time>
      </trkpt>
      <trkpt lat="43.35439" lon="5.98867">
        <ele>558</ele>
        <time>2019-12-17T08:40:53.000Z</time>
      </trkpt>
      <trkpt lat="43.35439" lon="5.98867">
        <ele>558</ele>
        <time>2019-12-17T08:40:54.000Z</time>
      </trkpt>
      <trkpt lat="43.35439" lon="5.98867">
        <ele>558</ele>
        <time>2019-12-17T08:40:55.000Z</time>
      </trkpt>
      <trkpt lat="43.35439" lon="5.98867">
        <ele>558</ele>
        <time>2019-12-17T08:40:56.000Z</time>
      </trkpt>
      <trkpt lat="43.35439" lon="5.98867">
        <ele>558</ele>
        <time>2019-12-17T08:40:57.000Z</time>
      </trkpt>
      <trkpt lat="43.35439" lon="5.98867">
        <ele>558</ele>
        <time>2019-12-17T08:40:58.000Z</time>
      </trkpt>
      <trkpt lat="43.35439" lon="5.98867">
        <ele>558</ele>
        <time>2019-12-17T08:40:59.000Z</time>
      </trkpt>
      <trkpt lat="43.35439" lon="5.98867">
        <ele>558</ele>
        <time>2019-12-17T08:41:00.000Z</time>
      </trkpt>
      <trkpt lat="43.35439" lon="5.98867">
        <ele>558</ele>
        <time>2019-12-17T08:41:01.000Z</time>
      </trkpt>
      <trkpt lat="43.35439" lon="5.98867">
        <ele>558</ele>
        <time>2019-12-17T08:41:02.000Z</time>
      </trkpt>
      <trkpt lat="43.35439" lon="5.98867">
        <ele>558</ele>
        <time>2019-12-17T08:41:03.000Z</time>
      </trkpt>
      <trkpt lat="43.35439" lon="5.98867">
        <ele>558</ele>
        <time>2019-12-17T08:41:04.000Z</time>
      </trkpt>
      <trkpt lat="43.35439" lon="5.98867">
        <ele>558</ele>
        <time>2019-12-17T08:41:05.000Z</time>
      </trkpt>
      <trkpt lat="43.35439" lon="5.98867">
        <ele>558</ele>
        <time>2019-12-17T08:41:06.000Z</time>
      </trkpt>
      <trkpt lat="43.35439" lon="5.98867">
        <ele>558</ele>
        <time>2019-12-17T08:41:07.000Z</time>
      </trkpt>
      <trkpt lat="43.35439" lon="5.98867">
        <ele>558</ele>
        <time>2019-12-17T08:41:08.000Z</time>
      </trkpt>
      <trkpt lat="43.35439" lon="5.98867">
        <ele>558</ele>
        <time>2019-12-17T08:41:09.000Z</time>
      </trkpt>
      <trkpt lat="43.35439" lon="5.98867">
        <ele>558</ele>
        <time>2019-12-17T08:41:10.000Z</time>
      </trkpt>
      <trkpt lat="43.35439" lon="5.98867">
        <ele>558</ele>
        <time>2019-12-17T08:41:11.000Z</time>
      </trkpt>
      <trkpt lat="43.35439" lon="5.98867">
        <ele>558</ele>
        <time>2019-12-17T08:41:12.000Z</time>
      </trkpt>
      <trkpt lat="43.35439" lon="5.98867">
        <ele>558</ele>
        <time>2019-12-17T08:41:13.000Z</time>
      </trkpt>
      <trkpt lat="43.35439" lon="5.98867">
        <ele>558</ele>
        <time>2019-12-17T08:41:14.000Z</time>
      </trkpt>
      <trkpt lat="43.35439" lon="5.98867">
        <ele>558</ele>
        <time>2019-12-17T08:41:15.000Z</time>
      </trkpt>
      <trkpt lat="43.35439" lon="5.98867">
        <ele>558</ele>
        <time>2019-12-17T08:41:16.000Z</time>
      </trkpt>
      <trkpt lat="43.35439" lon="5.98867">
        <ele>558</ele>
        <time>2019-12-17T08:41:17.000Z</time>
      </trkpt>
      <trkpt lat="43.35439" lon="5.98867">
        <ele>558</ele>
        <time>2019-12-17T08:41:18.000Z</time>
      </trkpt>
      <trkpt lat="43.35439" lon="5.98867">
        <ele>558</ele>
        <time>2019-12-17T08:41:19.000Z</time>
      </trkpt>
      <trkpt lat="43.35439" lon="5.98867">
        <ele>558</ele>
        <time>2019-12-17T08:41:20.000Z</time>
      </trkpt>
      <trkpt lat="43.35439" lon="5.98867">
        <ele>558</ele>
        <time>2019-12-17T08:41:21.000Z</time>
      </trkpt>
      <trkpt lat="43.35439" lon="5.98867">
        <ele>558</ele>
        <time>2019-12-17T08:41:22.000Z</time>
      </trkpt>
      <trkpt lat="43.35439" lon="5.98867">
        <ele>558</ele>
        <time>2019-12-17T08:41:23.000Z</time>
      </trkpt>
      <trkpt lat="43.35439" lon="5.98867">
        <ele>558</ele>
        <time>2019-12-17T08:41:24.000Z</time>
      </trkpt>
      <trkpt lat="43.35439" lon="5.98867">
        <ele>558</ele>
        <time>2019-12-17T08:41:25.000Z</time>
      </trkpt>
      <trkpt lat="43.35439" lon="5.98867">
        <ele>558</ele>
        <time>2019-12-17T08:41:26.000Z</time>
      </trkpt>
      <trkpt lat="43.35439" lon="5.98867">
        <ele>558</ele>
        <time>2019-12-17T08:41:27.000Z</time>
      </trkpt>
      <trkpt lat="43.35439" lon="5.98867">
        <ele>558</ele>
        <time>2019-12-17T08:41:28.000Z</time>
      </trkpt>
      <trkpt lat="43.3544" lon="5.98867">
        <ele>558</ele>
        <time>2019-12-17T08:41:29.000Z</time>
      </trkpt>
      <trkpt lat="43.3544" lon="5.98867">
        <ele>558</ele>
        <time>2019-12-17T08:41:30.000Z</time>
      </trkpt>
      <trkpt lat="43.3544" lon="5.98868">
        <ele>558</ele>
        <time>2019-12-17T08:41:31.000Z</time>
      </trkpt>
      <trkpt lat="43.3544" lon="5.98868">
        <ele>558</ele>
        <time>2019-12-17T08:41:32.000Z</time>
      </trkpt>
      <trkpt lat="43.3544" lon="5.98868">
        <ele>558</ele>
        <time>2019-12-17T08:41:33.000Z</time>
      </trkpt>
      <trkpt lat="43.3544" lon="5.98868">
        <ele>558</ele>
        <time>2019-12-17T08:41:34.000Z</time>
      </trkpt>
      <trkpt lat="43.3544" lon="5.98868">
        <ele>558</ele>
        <time>2019-12-17T08:41:35.000Z</time>
      </trkpt>
      <trkpt lat="43.3544" lon="5.98868">
        <ele>558</ele>
        <time>2019-12-17T08:41:36.000Z</time>
      </trkpt>
      <trkpt lat="43.3544" lon="5.98868">
        <ele>558</ele>
        <time>2019-12-17T08:41:37.000Z</time>
      </trkpt>
      <trkpt lat="43.3544" lon="5.98868">
        <ele>558</ele>
        <time>2019-12-17T08:41:38.000Z</time>
      </trkpt>
      <trkpt lat="43.3544" lon="5.98868">
        <ele>558</ele>
        <time>2019-12-17T08:41:39.000Z</time>
      </trkpt>
      <trkpt lat="43.3544" lon="5.98868">
        <ele>558</ele>
        <time>2019-12-17T08:41:40.000Z</time>
      </trkpt>
      <trkpt lat="43.3544" lon="5.98868">
        <ele>558</ele>
        <time>2019-12-17T08:41:41.000Z</time>
      </trkpt>
      <trkpt lat="43.3544" lon="5.98868">
        <ele>558</ele>
        <time>2019-12-17T08:41:42.000Z</time>
      </trkpt>
      <trkpt lat="43.3544" lon="5.98868">
        <ele>558</ele>
        <time>2019-12-17T08:41:43.000Z</time>
      </trkpt>
      <trkpt lat="43.3544" lon="5.98868">
        <ele>558</ele>
        <time>2019-12-17T08:41:44.000Z</time>
      </trkpt>
      <trkpt lat="43.3544" lon="5.98868">
        <ele>558</ele>
        <time>2019-12-17T08:41:45.000Z</time>
      </trkpt>
      <trkpt lat="43.3544" lon="5.98868">
        <ele>558</ele>
        <time>2019-12-17T08:41:46.000Z</time>
      </trkpt>
      <trkpt lat="43.3544" lon="5.98868">
        <ele>558</ele>
        <time>2019-12-17T08:41:47.000Z</time>
      </trkpt>
      <trkpt lat="43.3544" lon="5.98868">
        <ele>558</ele>
        <time>2019-12-17T08:41:48.000Z</time>
      </trkpt>
      <trkpt lat="43.3544" lon="5.98868">
        <ele>558</ele>
        <time>2019-12-17T08:41:49.000Z</time>
      </trkpt>
      <trkpt lat="43.3544" lon="5.98868">
        <ele>558</ele>
        <time>2019-12-17T08:41:50.000Z</time>
      </trkpt>
      <trkpt lat="43.3544" lon="5.98868">
        <ele>558</ele>
        <time>2019-12-17T08:41:51.000Z</time>
      </trkpt>
      <trkpt lat="43.3544" lon="5.98868">
        <ele>558</ele>
        <time>2019-12-17T08:41:52.000Z</time>
      </trkpt>
      <trkpt lat="43.3544" lon="5.98868">
        <ele>558</ele>
        <time>2019-12-17T08:41:53.000Z</time>
      </trkpt>
      <trkpt lat="43.3544" lon="5.98868">
        <ele>558</ele>
        <time>2019-12-17T08:41:54.000Z</time>
      </trkpt>
      <trkpt lat="43.3544" lon="5.98868">
        <ele>558</ele>
        <time>2019-12-17T08:41:55.000Z</time>
      </trkpt>
      <trkpt lat="43.3544" lon="5.98868">
        <ele>558</ele>
        <time>2019-12-17T08:41:56.000Z</time>
      </trkpt>
      <trkpt lat="43.3544" lon="5.98868">
        <ele>558</ele>
        <time>2019-12-17T08:41:57.000Z</time>
      </trkpt>
      <trkpt lat="43.3544" lon="5.98868">
        <ele>558</ele>
        <time>2019-12-17T08:41:58.000Z</time>
      </trkpt>
      <trkpt lat="43.3544" lon="5.98868">
        <ele>558</ele>
        <time>2019-12-17T08:41:59.000Z</time>
      </trkpt>
      <trkpt lat="43.3544" lon="5.98868">
        <ele>558</ele>
        <time>2019-12-17T08:42:00.000Z</time>
      </trkpt>
      <trkpt lat="43.3544" lon="5.98868">
        <ele>559</ele>
        <time>2019-12-17T08:42:01.000Z</time>
      </trkpt>
      <trkpt lat="43.3544" lon="5.98868">
        <ele>559</ele>
        <time>2019-12-17T08:42:02.000Z</time>
      </trkpt>
      <trkpt lat="43.3544" lon="5.98868">
        <ele>559</ele>
        <time>2019-12-17T08:42:03.000Z</time>
      </trkpt>
      <trkpt lat="43.3544" lon="5.98869">
        <ele>559</ele>
        <time>2019-12-17T08:42:04.000Z</time>
      </trkpt>
      <trkpt lat="43.3544" lon="5.9887">
        <ele>559</ele>
        <time>2019-12-17T08:42:05.000Z</time>
      </trkpt>
      <trkpt lat="43.3544" lon="5.9887">
        <ele>559</ele>
        <time>2019-12-17T08:42:06.000Z</time>
      </trkpt>
      <trkpt lat="43.3544" lon="5.98871">
        <ele>559</ele>
        <time>2019-12-17T08:42:07.000Z</time>
      </trkpt>
      <trkpt lat="43.3544" lon="5.98871">
        <ele>559</ele>
        <time>2019-12-17T08:42:08.000Z</time>
      </trkpt>
      <trkpt lat="43.3544" lon="5.98871">
        <ele>559</ele>
        <time>2019-12-17T08:42:09.000Z</time>
      </trkpt>
      <trkpt lat="43.3544" lon="5.98871">
        <ele>559</ele>
        <time>2019-12-17T08:42:10.000Z</time>
      </trkpt>
      <trkpt lat="43.3544" lon="5.98871">
        <ele>559</ele>
        <time>2019-12-17T08:42:11.000Z</time>
      </trkpt>
      <trkpt lat="43.3544" lon="5.98871">
        <ele>559</ele>
        <time>2019-12-17T08:42:12.000Z</time>
      </trkpt>
      <trkpt lat="43.3544" lon="5.98871">
        <ele>559</ele>
        <time>2019-12-17T08:42:13.000Z</time>
      </trkpt>
      <trkpt lat="43.3544" lon="5.98871">
        <ele>559</ele>
        <time>2019-12-17T08:42:14.000Z</time>
      </trkpt>
      <trkpt lat="43.35441" lon="5.98871">
        <ele>558</ele>
        <time>2019-12-17T08:42:15.000Z</time>
      </trkpt>
      <trkpt lat="43.35441" lon="5.98871">
        <ele>558</ele>
        <time>2019-12-17T08:42:16.000Z</time>
      </trkpt>
      <trkpt lat="43.35441" lon="5.98872">
        <ele>558</ele>
        <time>2019-12-17T08:42:17.000Z</time>
      </trkpt>
      <trkpt lat="43.35441" lon="5.98872">
        <ele>558</ele>
        <time>2019-12-17T08:42:18.000Z</time>
      </trkpt>
      <trkpt lat="43.35441" lon="5.98872">
        <ele>558</ele>
        <time>2019-12-17T08:42:19.000Z</time>
      </trkpt>
      <trkpt lat="43.35441" lon="5.98873">
        <ele>558</ele>
        <time>2019-12-17T08:42:20.000Z</time>
      </trkpt>
      <trkpt lat="43.35441" lon="5.98874">
        <ele>559</ele>
        <time>2019-12-17T08:42:21.000Z</time>
      </trkpt>
      <trkpt lat="43.35442" lon="5.98874">
        <ele>559</ele>
        <time>2019-12-17T08:42:22.000Z</time>
      </trkpt>
      <trkpt lat="43.35442" lon="5.98875">
        <ele>559</ele>
        <time>2019-12-17T08:42:23.000Z</time>
      </trkpt>
      <trkpt lat="43.35442" lon="5.98876">
        <ele>559</ele>
        <time>2019-12-17T08:42:24.000Z</time>
      </trkpt>
      <trkpt lat="43.35442" lon="5.98877">
        <ele>559</ele>
        <time>2019-12-17T08:42:25.000Z</time>
      </trkpt>
      <trkpt lat="43.35442" lon="5.98877">
        <ele>559</ele>
        <time>2019-12-17T08:42:26.000Z</time>
      </trkpt>
      <trkpt lat="43.35442" lon="5.98878">
        <ele>559</ele>
        <time>2019-12-17T08:42:27.000Z</time>
      </trkpt>
      <trkpt lat="43.35443" lon="5.98878">
        <ele>560</ele>
        <time>2019-12-17T08:42:28.000Z</time>
      </trkpt>
      <trkpt lat="43.35443" lon="5.98879">
        <ele>560</ele>
        <time>2019-12-17T08:42:29.000Z</time>
      </trkpt>
      <trkpt lat="43.35443" lon="5.9888">
        <ele>560</ele>
        <time>2019-12-17T08:42:30.000Z</time>
      </trkpt>
      <trkpt lat="43.35444" lon="5.9888">
        <ele>560</ele>
        <time>2019-12-17T08:42:31.000Z</time>
      </trkpt>
      <trkpt lat="43.35444" lon="5.98881">
        <ele>560</ele>
        <time>2019-12-17T08:42:32.000Z</time>
      </trkpt>
      <trkpt lat="43.35444" lon="5.98881">
        <ele>560</ele>
        <time>2019-12-17T08:42:33.000Z</time>
      </trkpt>
      <trkpt lat="43.35444" lon="5.98882">
        <ele>560</ele>
        <time>2019-12-17T08:42:34.000Z</time>
      </trkpt>
      <trkpt lat="43.35444" lon="5.98882">
        <ele>560</ele>
        <time>2019-12-17T08:42:35.000Z</time>
      </trkpt>
      <trkpt lat="43.35444" lon="5.98883">
        <ele>560</ele>
        <time>2019-12-17T08:42:36.000Z</time>
      </trkpt>
      <trkpt lat="43.35444" lon="5.98884">
        <ele>560</ele>
        <time>2019-12-17T08:42:37.000Z</time>
      </trkpt>
      <trkpt lat="43.35443" lon="5.98884">
        <ele>561</ele>
        <time>2019-12-17T08:42:38.000Z</time>
      </trkpt>
      <trkpt lat="43.35443" lon="5.98885">
        <ele>561</ele>
        <time>2019-12-17T08:42:39.000Z</time>
      </trkpt>
      <trkpt lat="43.35443" lon="5.98886">
        <ele>561</ele>
        <time>2019-12-17T08:42:40.000Z</time>
      </trkpt>
      <trkpt lat="43.35444" lon="5.98886">
        <ele>561</ele>
        <time>2019-12-17T08:42:41.000Z</time>
      </trkpt>
      <trkpt lat="43.35444" lon="5.98887">
        <ele>561</ele>
        <time>2019-12-17T08:42:42.000Z</time>
      </trkpt>
      <trkpt lat="43.35444" lon="5.98888">
        <ele>562</ele>
        <time>2019-12-17T08:42:43.000Z</time>
      </trkpt>
      <trkpt lat="43.35445" lon="5.98888">
        <ele>562</ele>
        <time>2019-12-17T08:42:44.000Z</time>
      </trkpt>
      <trkpt lat="43.35446" lon="5.98889">
        <ele>562</ele>
        <time>2019-12-17T08:42:45.000Z</time>
      </trkpt>
      <trkpt lat="43.35446" lon="5.9889">
        <ele>562</ele>
        <time>2019-12-17T08:42:46.000Z</time>
      </trkpt>
      <trkpt lat="43.35446" lon="5.9889">
        <ele>562</ele>
        <time>2019-12-17T08:42:47.000Z</time>
      </trkpt>
      <trkpt lat="43.35445" lon="5.98891">
        <ele>562</ele>
        <time>2019-12-17T08:42:48.000Z</time>
      </trkpt>
      <trkpt lat="43.35445" lon="5.98892">
        <ele>563</ele>
        <time>2019-12-17T08:42:49.000Z</time>
      </trkpt>
      <trkpt lat="43.35445" lon="5.98893">
        <ele>563</ele>
        <time>2019-12-17T08:42:50.000Z</time>
      </trkpt>
      <trkpt lat="43.35445" lon="5.98893">
        <ele>563</ele>
        <time>2019-12-17T08:42:51.000Z</time>
      </trkpt>
      <trkpt lat="43.35445" lon="5.98894">
        <ele>563</ele>
        <time>2019-12-17T08:42:52.000Z</time>
      </trkpt>
      <trkpt lat="43.35445" lon="5.98894">
        <ele>563</ele>
        <time>2019-12-17T08:42:53.000Z</time>
      </trkpt>
      <trkpt lat="43.35445" lon="5.98895">
        <ele>563</ele>
        <time>2019-12-17T08:42:54.000Z</time>
      </trkpt>
      <trkpt lat="43.35446" lon="5.98895">
        <ele>564</ele>
        <time>2019-12-17T08:42:55.000Z</time>
      </trkpt>
      <trkpt lat="43.35446" lon="5.98895">
        <ele>564</ele>
        <time>2019-12-17T08:42:56.000Z</time>
      </trkpt>
      <trkpt lat="43.35446" lon="5.98895">
        <ele>564</ele>
        <time>2019-12-17T08:42:57.000Z</time>
      </trkpt>
      <trkpt lat="43.35446" lon="5.98895">
        <ele>564</ele>
        <time>2019-12-17T08:42:58.000Z</time>
      </trkpt>
      <trkpt lat="43.35446" lon="5.98895">
        <ele>564</ele>
        <time>2019-12-17T08:42:59.000Z</time>
      </trkpt>
      <trkpt lat="43.35446" lon="5.98895">
        <ele>564</ele>
        <time>2019-12-17T08:43:00.000Z</time>
      </trkpt>
      <trkpt lat="43.35446" lon="5.98895">
        <ele>564</ele>
        <time>2019-12-17T08:43:01.000Z</time>
      </trkpt>
      <trkpt lat="43.35446" lon="5.98895">
        <ele>564</ele>
        <time>2019-12-17T08:43:02.000Z</time>
      </trkpt>
      <trkpt lat="43.35446" lon="5.98895">
        <ele>564</ele>
        <time>2019-12-17T08:43:03.000Z</time>
      </trkpt>
      <trkpt lat="43.35446" lon="5.98895">
        <ele>564</ele>
        <time>2019-12-17T08:43:04.000Z</time>
      </trkpt>
      <trkpt lat="43.35446" lon="5.98895">
        <ele>564</ele>
        <time>2019-12-17T08:43:05.000Z</time>
      </trkpt>
      <trkpt lat="43.35447" lon="5.98895">
        <ele>564</ele>
        <time>2019-12-17T08:43:06.000Z</time>
      </trkpt>
      <trkpt lat="43.35447" lon="5.98895">
        <ele>564</ele>
        <time>2019-12-17T08:43:07.000Z</time>
      </trkpt>
      <trkpt lat="43.35447" lon="5.98895">
        <ele>564</ele>
        <time>2019-12-17T08:43:08.000Z</time>
      </trkpt>
      <trkpt lat="43.35447" lon="5.98895">
        <ele>564</ele>
        <time>2019-12-17T08:43:09.000Z</time>
      </trkpt>
      <trkpt lat="43.35447" lon="5.98895">
        <ele>564</ele>
        <time>2019-12-17T08:43:10.000Z</time>
      </trkpt>
      <trkpt lat="43.35447" lon="5.98895">
        <ele>564</ele>
        <time>2019-12-17T08:43:11.000Z</time>
      </trkpt>
      <trkpt lat="43.35447" lon="5.98895">
        <ele>564</ele>
        <time>2019-12-17T08:43:12.000Z</time>
      </trkpt>
      <trkpt lat="43.35447" lon="5.98895">
        <ele>565</ele>
        <time>2019-12-17T08:43:13.000Z</time>
      </trkpt>
      <trkpt lat="43.35447" lon="5.98895">
        <ele>565</ele>
        <time>2019-12-17T08:43:14.000Z</time>
      </trkpt>
      <trkpt lat="43.35447" lon="5.98895">
        <ele>565</ele>
        <time>2019-12-17T08:43:15.000Z</time>
      </trkpt>
      <trkpt lat="43.35447" lon="5.98895">
        <ele>565</ele>
        <time>2019-12-17T08:43:16.000Z</time>
      </trkpt>
      <trkpt lat="43.35447" lon="5.98896">
        <ele>565</ele>
        <time>2019-12-17T08:43:17.000Z</time>
      </trkpt>
      <trkpt lat="43.35447" lon="5.98896">
        <ele>565</ele>
        <time>2019-12-17T08:43:18.000Z</time>
      </trkpt>
      <trkpt lat="43.35447" lon="5.98896">
        <ele>565</ele>
        <time>2019-12-17T08:43:19.000Z</time>
      </trkpt>
      <trkpt lat="43.35447" lon="5.98896">
        <ele>565</ele>
        <time>2019-12-17T08:43:20.000Z</time>
      </trkpt>
      <trkpt lat="43.35447" lon="5.98896">
        <ele>565</ele>
        <time>2019-12-17T08:43:21.000Z</time>
      </trkpt>
      <trkpt lat="43.35447" lon="5.98896">
        <ele>565</ele>
        <time>2019-12-17T08:43:22.000Z</time>
      </trkpt>
      <trkpt lat="43.35447" lon="5.98896">
        <ele>565</ele>
        <time>2019-12-17T08:43:23.000Z</time>
      </trkpt>
      <trkpt lat="43.35447" lon="5.98896">
        <ele>565</ele>
        <time>2019-12-17T08:43:24.000Z</time>
      </trkpt>
      <trkpt lat="43.35447" lon="5.98896">
        <ele>565</ele>
        <time>2019-12-17T08:43:25.000Z</time>
      </trkpt>
      <trkpt lat="43.35447" lon="5.98896">
        <ele>565</ele>
        <time>2019-12-17T08:43:26.000Z</time>
      </trkpt>
      <trkpt lat="43.35447" lon="5.98896">
        <ele>565</ele>
        <time>2019-12-17T08:43:27.000Z</time>
      </trkpt>
      <trkpt lat="43.35447" lon="5.98896">
        <ele>565</ele>
        <time>2019-12-17T08:43:28.000Z</time>
      </trkpt>
      <trkpt lat="43.35447" lon="5.98896">
        <ele>565</ele>
        <time>2019-12-17T08:43:29.000Z</time>
      </trkpt>
      <trkpt lat="43.35447" lon="5.98896">
        <ele>565</ele>
        <time>2019-12-17T08:43:30.000Z</time>
      </trkpt>
      <trkpt lat="43.35447" lon="5.98896">
        <ele>565</ele>
        <time>2019-12-17T08:43:31.000Z</time>
      </trkpt>
      <trkpt lat="43.35447" lon="5.98896">
        <ele>565</ele>
        <time>2019-12-17T08:43:32.000Z</time>
      </trkpt>
      <trkpt lat="43.35447" lon="5.98896">
        <ele>565</ele>
        <time>2019-12-17T08:43:33.000Z</time>
      </trkpt>
      <trkpt lat="43.35447" lon="5.98896">
        <ele>565</ele>
        <time>2019-12-17T08:43:34.000Z</time>
      </trkpt>
      <trkpt lat="43.35447" lon="5.98896">
        <ele>565</ele>
        <time>2019-12-17T08:43:35.000Z</time>
      </trkpt>
      <trkpt lat="43.35447" lon="5.98896">
        <ele>565</ele>
        <time>2019-12-17T08:43:36.000Z</time>
      </trkpt>
      <trkpt lat="43.35448" lon="5.98896">
        <ele>565</ele>
        <time>2019-12-17T08:43:37.000Z</time>
      </trkpt>
      <trkpt lat="43.35448" lon="5.98897">
        <ele>565</ele>
        <time>2019-12-17T08:43:38.000Z</time>
      </trkpt>
      <trkpt lat="43.35448" lon="5.98898">
        <ele>565</ele>
        <time>2019-12-17T08:43:39.000Z</time>
      </trkpt>
      <trkpt lat="43.35449" lon="5.98899">
        <ele>565</ele>
        <time>2019-12-17T08:43:40.000Z</time>
      </trkpt>
      <trkpt lat="43.35449" lon="5.989">
        <ele>565</ele>
        <time>2019-12-17T08:43:41.000Z</time>
      </trkpt>
      <trkpt lat="43.35449" lon="5.989">
        <ele>565</ele>
        <time>2019-12-17T08:43:42.000Z</time>
      </trkpt>
      <trkpt lat="43.35449" lon="5.98901">
        <ele>565</ele>
        <time>2019-12-17T08:43:43.000Z</time>
      </trkpt>
      <trkpt lat="43.35449" lon="5.98902">
        <ele>565</ele>
        <time>2019-12-17T08:43:44.000Z</time>
      </trkpt>
      <trkpt lat="43.35449" lon="5.98903">
        <ele>565</ele>
        <time>2019-12-17T08:43:45.000Z</time>
      </trkpt>
      <trkpt lat="43.35449" lon="5.98904">
        <ele>565</ele>
        <time>2019-12-17T08:43:46.000Z</time>
      </trkpt>
      <trkpt lat="43.35449" lon="5.98904">
        <ele>565</ele>
        <time>2019-12-17T08:43:47.000Z</time>
      </trkpt>
      <trkpt lat="43.35449" lon="5.98905">
        <ele>566</ele>
        <time>2019-12-17T08:43:48.000Z</time>
      </trkpt>
      <trkpt lat="43.35449" lon="5.98906">
        <ele>566</ele>
        <time>2019-12-17T08:43:49.000Z</time>
      </trkpt>
      <trkpt lat="43.35449" lon="5.98906">
        <ele>566</ele>
        <time>2019-12-17T08:43:50.000Z</time>
      </trkpt>
      <trkpt lat="43.3545" lon="5.98907">
        <ele>566</ele>
        <time>2019-12-17T08:43:51.000Z</time>
      </trkpt>
      <trkpt lat="43.3545" lon="5.98907">
        <ele>566</ele>
        <time>2019-12-17T08:43:52.000Z</time>
      </trkpt>
      <trkpt lat="43.3545" lon="5.98907">
        <ele>566</ele>
        <time>2019-12-17T08:43:53.000Z</time>
      </trkpt>
      <trkpt lat="43.3545" lon="5.98908">
        <ele>566</ele>
        <time>2019-12-17T08:43:54.000Z</time>
      </trkpt>
      <trkpt lat="43.3545" lon="5.98908">
        <ele>566</ele>
        <time>2019-12-17T08:43:55.000Z</time>
      </trkpt>
      <trkpt lat="43.35451" lon="5.98908">
        <ele>566</ele>
        <time>2019-12-17T08:43:56.000Z</time>
      </trkpt>
      <trkpt lat="43.35451" lon="5.98908">
        <ele>566</ele>
        <time>2019-12-17T08:43:57.000Z</time>
      </trkpt>
      <trkpt lat="43.35451" lon="5.98908">
        <ele>566</ele>
        <time>2019-12-17T08:43:58.000Z</time>
      </trkpt>
      <trkpt lat="43.35451" lon="5.98908">
        <ele>566</ele>
        <time>2019-12-17T08:43:59.000Z</time>
      </trkpt>
      <trkpt lat="43.35451" lon="5.98908">
        <ele>566</ele>
        <time>2019-12-17T08:44:00.000Z</time>
      </trkpt>
      <trkpt lat="43.35451" lon="5.98908">
        <ele>566</ele>
        <time>2019-12-17T08:44:01.000Z</time>
      </trkpt>
      <trkpt lat="43.35451" lon="5.98909">
        <ele>566</ele>
        <time>2019-12-17T08:44:02.000Z</time>
      </trkpt>
      <trkpt lat="43.35451" lon="5.98908">
        <ele>566</ele>
        <time>2019-12-17T08:44:03.000Z</time>
      </trkpt>
      <trkpt lat="43.35452" lon="5.98908">
        <ele>566</ele>
        <time>2019-12-17T08:44:04.000Z</time>
      </trkpt>
      <trkpt lat="43.35452" lon="5.98909">
        <ele>566</ele>
        <time>2019-12-17T08:44:05.000Z</time>
      </trkpt>
      <trkpt lat="43.35452" lon="5.98909">
        <ele>566</ele>
        <time>2019-12-17T08:44:06.000Z</time>
      </trkpt>
      <trkpt lat="43.35452" lon="5.98909">
        <ele>566</ele>
        <time>2019-12-17T08:44:07.000Z</time>
      </trkpt>
      <trkpt lat="43.35452" lon="5.98909">
        <ele>566</ele>
        <time>2019-12-17T08:44:08.000Z</time>
      </trkpt>
      <trkpt lat="43.35453" lon="5.98909">
        <ele>566</ele>
        <time>2019-12-17T08:44:09.000Z</time>
      </trkpt>
      <trkpt lat="43.35453" lon="5.98909">
        <ele>566</ele>
        <time>2019-12-17T08:44:10.000Z</time>
      </trkpt>
      <trkpt lat="43.35453" lon="5.98909">
        <ele>566</ele>
        <time>2019-12-17T08:44:11.000Z</time>
      </trkpt>
      <trkpt lat="43.35453" lon="5.98909">
        <ele>567</ele>
        <time>2019-12-17T08:44:12.000Z</time>
      </trkpt>
      <trkpt lat="43.35453" lon="5.98909">
        <ele>567</ele>
        <time>2019-12-17T08:44:13.000Z</time>
      </trkpt>
      <trkpt lat="43.35453" lon="5.98909">
        <ele>567</ele>
        <time>2019-12-17T08:44:14.000Z</time>
      </trkpt>
      <trkpt lat="43.35453" lon="5.98909">
        <ele>567</ele>
        <time>2019-12-17T08:44:15.000Z</time>
      </trkpt>
      <trkpt lat="43.35453" lon="5.9891">
        <ele>567</ele>
        <time>2019-12-17T08:44:16.000Z</time>
      </trkpt>
      <trkpt lat="43.35453" lon="5.9891">
        <ele>567</ele>
        <time>2019-12-17T08:44:17.000Z</time>
      </trkpt>
      <trkpt lat="43.35453" lon="5.9891">
        <ele>567</ele>
        <time>2019-12-17T08:44:18.000Z</time>
      </trkpt>
      <trkpt lat="43.35453" lon="5.9891">
        <ele>567</ele>
        <time>2019-12-17T08:44:19.000Z</time>
      </trkpt>
      <trkpt lat="43.35453" lon="5.9891">
        <ele>567</ele>
        <time>2019-12-17T08:44:20.000Z</time>
      </trkpt>
      <trkpt lat="43.35453" lon="5.9891">
        <ele>567</ele>
        <time>2019-12-17T08:44:21.000Z</time>
      </trkpt>
      <trkpt lat="43.35453" lon="5.9891">
        <ele>567</ele>
        <time>2019-12-17T08:44:22.000Z</time>
      </trkpt>
      <trkpt lat="43.35453" lon="5.9891">
        <ele>567</ele>
        <time>2019-12-17T08:44:23.000Z</time>
      </trkpt>
      <trkpt lat="43.35453" lon="5.9891">
        <ele>567</ele>
        <time>2019-12-17T08:44:24.000Z</time>
      </trkpt>
      <trkpt lat="43.35453" lon="5.98911">
        <ele>567</ele>
        <time>2019-12-17T08:44:25.000Z</time>
      </trkpt>
      <trkpt lat="43.35453" lon="5.98911">
        <ele>567</ele>
        <time>2019-12-17T08:44:26.000Z</time>
      </trkpt>
      <trkpt lat="43.35453" lon="5.98911">
        <ele>567</ele>
        <time>2019-12-17T08:44:27.000Z</time>
      </trkpt>
      <trkpt lat="43.35454" lon="5.98911">
        <ele>567</ele>
        <time>2019-12-17T08:44:28.000Z</time>
      </trkpt>
      <trkpt lat="43.35454" lon="5.98911">
        <ele>567</ele>
        <time>2019-12-17T08:44:29.000Z</time>
      </trkpt>
      <trkpt lat="43.35454" lon="5.98911">
        <ele>567</ele>
        <time>2019-12-17T08:44:30.000Z</time>
      </trkpt>
      <trkpt lat="43.35455" lon="5.98912">
        <ele>567</ele>
        <time>2019-12-17T08:44:31.000Z</time>
      </trkpt>
      <trkpt lat="43.35455" lon="5.98912">
        <ele>567</ele>
        <time>2019-12-17T08:44:32.000Z</time>
      </trkpt>
      <trkpt lat="43.35455" lon="5.98912">
        <ele>567</ele>
        <time>2019-12-17T08:44:33.000Z</time>
      </trkpt>
      <trkpt lat="43.35455" lon="5.98912">
        <ele>567</ele>
        <time>2019-12-17T08:44:34.000Z</time>
      </trkpt>
      <trkpt lat="43.35455" lon="5.98912">
        <ele>567</ele>
        <time>2019-12-17T08:44:35.000Z</time>
      </trkpt>
      <trkpt lat="43.35455" lon="5.98913">
        <ele>567</ele>
        <time>2019-12-17T08:44:36.000Z</time>
      </trkpt>
      <trkpt lat="43.35456" lon="5.98913">
        <ele>567</ele>
        <time>2019-12-17T08:44:37.000Z</time>
      </trkpt>
      <trkpt lat="43.35456" lon="5.98913">
        <ele>567</ele>
        <time>2019-12-17T08:44:38.000Z</time>
      </trkpt>
      <trkpt lat="43.35456" lon="5.98913">
        <ele>567</ele>
        <time>2019-12-17T08:44:39.000Z</time>
      </trkpt>
      <trkpt lat="43.35456" lon="5.98913">
        <ele>567</ele>
        <time>2019-12-17T08:44:40.000Z</time>
      </trkpt>
      <trkpt lat="43.35456" lon="5.98913">
        <ele>567</ele>
        <time>2019-12-17T08:44:41.000Z</time>
      </trkpt>
      <trkpt lat="43.35456" lon="5.98913">
        <ele>567</ele>
        <time>2019-12-17T08:44:42.000Z</time>
      </trkpt>
      <trkpt lat="43.35456" lon="5.98913">
        <ele>567</ele>
        <time>2019-12-17T08:44:43.000Z</time>
      </trkpt>
      <trkpt lat="43.35457" lon="5.98913">
        <ele>567</ele>
        <time>2019-12-17T08:44:44.000Z</time>
      </trkpt>
      <trkpt lat="43.35457" lon="5.98913">
        <ele>567</ele>
        <time>2019-12-17T08:44:45.000Z</time>
      </trkpt>
      <trkpt lat="43.35457" lon="5.98913">
        <ele>568</ele>
        <time>2019-12-17T08:44:46.000Z</time>
      </trkpt>
      <trkpt lat="43.35457" lon="5.98913">
        <ele>568</ele>
        <time>2019-12-17T08:44:47.000Z</time>
      </trkpt>
      <trkpt lat="43.35457" lon="5.98914">
        <ele>568</ele>
        <time>2019-12-17T08:44:48.000Z</time>
      </trkpt>
      <trkpt lat="43.35458" lon="5.98915">
        <ele>568</ele>
        <time>2019-12-17T08:44:49.000Z</time>
      </trkpt>
      <trkpt lat="43.35458" lon="5.98915">
        <ele>568</ele>
        <time>2019-12-17T08:44:50.000Z</time>
      </trkpt>
      <trkpt lat="43.35458" lon="5.98916">
        <ele>568</ele>
        <time>2019-12-17T08:44:51.000Z</time>
      </trkpt>
      <trkpt lat="43.35458" lon="5.98916">
        <ele>568</ele>
        <time>2019-12-17T08:44:52.000Z</time>
      </trkpt>
      <trkpt lat="43.35458" lon="5.98916">
        <ele>568</ele>
        <time>2019-12-17T08:44:53.000Z</time>
      </trkpt>
      <trkpt lat="43.35458" lon="5.98916">
        <ele>568</ele>
        <time>2019-12-17T08:44:54.000Z</time>
      </trkpt>
      <trkpt lat="43.35459" lon="5.98916">
        <ele>568</ele>
        <time>2019-12-17T08:44:55.000Z</time>
      </trkpt>
      <trkpt lat="43.35459" lon="5.98916">
        <ele>568</ele>
        <time>2019-12-17T08:44:56.000Z</time>
      </trkpt>
      <trkpt lat="43.35459" lon="5.98916">
        <ele>568</ele>
        <time>2019-12-17T08:44:57.000Z</time>
      </trkpt>
      <trkpt lat="43.35459" lon="5.98915">
        <ele>568</ele>
        <time>2019-12-17T08:44:58.000Z</time>
      </trkpt>
      <trkpt lat="43.35459" lon="5.98915">
        <ele>568</ele>
        <time>2019-12-17T08:44:59.000Z</time>
      </trkpt>
      <trkpt lat="43.35459" lon="5.98915">
        <ele>568</ele>
        <time>2019-12-17T08:45:00.000Z</time>
      </trkpt>
      <trkpt lat="43.35459" lon="5.98916">
        <ele>568</ele>
        <time>2019-12-17T08:45:01.000Z</time>
      </trkpt>
      <trkpt lat="43.35459" lon="5.98916">
        <ele>568</ele>
        <time>2019-12-17T08:45:02.000Z</time>
      </trkpt>
      <trkpt lat="43.3546" lon="5.98917">
        <ele>568</ele>
        <time>2019-12-17T08:45:03.000Z</time>
      </trkpt>
      <trkpt lat="43.3546" lon="5.98918">
        <ele>568</ele>
        <time>2019-12-17T08:45:04.000Z</time>
      </trkpt>
      <trkpt lat="43.3546" lon="5.98919">
        <ele>568</ele>
        <time>2019-12-17T08:45:05.000Z</time>
      </trkpt>
      <trkpt lat="43.3546" lon="5.98919">
        <ele>568</ele>
        <time>2019-12-17T08:45:06.000Z</time>
      </trkpt>
      <trkpt lat="43.3546" lon="5.9892">
        <ele>568</ele>
        <time>2019-12-17T08:45:07.000Z</time>
      </trkpt>
      <trkpt lat="43.35461" lon="5.98921">
        <ele>568</ele>
        <time>2019-12-17T08:45:08.000Z</time>
      </trkpt>
      <trkpt lat="43.35461" lon="5.98922">
        <ele>568</ele>
        <time>2019-12-17T08:45:09.000Z</time>
      </trkpt>
      <trkpt lat="43.35461" lon="5.98922">
        <ele>568</ele>
        <time>2019-12-17T08:45:10.000Z</time>
      </trkpt>
      <trkpt lat="43.35461" lon="5.98923">
        <ele>568</ele>
        <time>2019-12-17T08:45:11.000Z</time>
      </trkpt>
      <trkpt lat="43.35461" lon="5.98924">
        <ele>568</ele>
        <time>2019-12-17T08:45:12.000Z</time>
      </trkpt>
      <trkpt lat="43.35461" lon="5.98924">
        <ele>568</ele>
        <time>2019-12-17T08:45:13.000Z</time>
      </trkpt>
      <trkpt lat="43.35461" lon="5.98925">
        <ele>568</ele>
        <time>2019-12-17T08:45:14.000Z</time>
      </trkpt>
      <trkpt lat="43.35461" lon="5.98925">
        <ele>568</ele>
        <time>2019-12-17T08:45:15.000Z</time>
      </trkpt>
      <trkpt lat="43.35462" lon="5.98925">
        <ele>568</ele>
        <time>2019-12-17T08:45:16.000Z</time>
      </trkpt>
      <trkpt lat="43.35462" lon="5.98926">
        <ele>568</ele>
        <time>2019-12-17T08:45:17.000Z</time>
      </trkpt>
      <trkpt lat="43.35462" lon="5.98926">
        <ele>568</ele>
        <time>2019-12-17T08:45:18.000Z</time>
      </trkpt>
      <trkpt lat="43.35462" lon="5.98927">
        <ele>568</ele>
        <time>2019-12-17T08:45:19.000Z</time>
      </trkpt>
      <trkpt lat="43.35462" lon="5.98927">
        <ele>568</ele>
        <time>2019-12-17T08:45:20.000Z</time>
      </trkpt>
      <trkpt lat="43.35463" lon="5.98928">
        <ele>568</ele>
        <time>2019-12-17T08:45:21.000Z</time>
      </trkpt>
      <trkpt lat="43.35463" lon="5.98928">
        <ele>568</ele>
        <time>2019-12-17T08:45:22.000Z</time>
      </trkpt>
      <trkpt lat="43.35463" lon="5.98928">
        <ele>568</ele>
        <time>2019-12-17T08:45:23.000Z</time>
      </trkpt>
      <trkpt lat="43.35463" lon="5.98928">
        <ele>568</ele>
        <time>2019-12-17T08:45:24.000Z</time>
      </trkpt>
      <trkpt lat="43.35463" lon="5.98928">
        <ele>568</ele>
        <time>2019-12-17T08:45:25.000Z</time>
      </trkpt>
      <trkpt lat="43.35463" lon="5.98928">
        <ele>568</ele>
        <time>2019-12-17T08:45:26.000Z</time>
      </trkpt>
      <trkpt lat="43.35463" lon="5.98928">
        <ele>569</ele>
        <time>2019-12-17T08:45:27.000Z</time>
      </trkpt>
      <trkpt lat="43.35463" lon="5.98929">
        <ele>569</ele>
        <time>2019-12-17T08:45:28.000Z</time>
      </trkpt>
      <trkpt lat="43.35463" lon="5.98929">
        <ele>569</ele>
        <time>2019-12-17T08:45:29.000Z</time>
      </trkpt>
      <trkpt lat="43.35463" lon="5.98929">
        <ele>569</ele>
        <time>2019-12-17T08:45:30.000Z</time>
      </trkpt>
      <trkpt lat="43.35463" lon="5.98929">
        <ele>569</ele>
        <time>2019-12-17T08:45:31.000Z</time>
      </trkpt>
      <trkpt lat="43.35463" lon="5.98928">
        <ele>569</ele>
        <time>2019-12-17T08:45:32.000Z</time>
      </trkpt>
      <trkpt lat="43.35463" lon="5.98928">
        <ele>569</ele>
        <time>2019-12-17T08:45:33.000Z</time>
      </trkpt>
      <trkpt lat="43.35463" lon="5.98928">
        <ele>569</ele>
        <time>2019-12-17T08:45:34.000Z</time>
      </trkpt>
      <trkpt lat="43.35463" lon="5.98928">
        <ele>569</ele>
        <time>2019-12-17T08:45:35.000Z</time>
      </trkpt>
      <trkpt lat="43.35463" lon="5.98928">
        <ele>569</ele>
        <time>2019-12-17T08:45:36.000Z</time>
      </trkpt>
      <trkpt lat="43.35463" lon="5.98928">
        <ele>569</ele>
        <time>2019-12-17T08:45:37.000Z</time>
      </trkpt>
      <trkpt lat="43.35463" lon="5.98928">
        <ele>569</ele>
        <time>2019-12-17T08:45:38.000Z</time>
      </trkpt>
      <trkpt lat="43.35463" lon="5.98927">
        <ele>568</ele>
        <time>2019-12-17T08:45:39.000Z</time>
      </trkpt>
      <trkpt lat="43.35463" lon="5.98927">
        <ele>568</ele>
        <time>2019-12-17T08:45:40.000Z</time>
      </trkpt>
      <trkpt lat="43.35463" lon="5.98927">
        <ele>568</ele>
        <time>2019-12-17T08:45:41.000Z</time>
      </trkpt>
      <trkpt lat="43.35464" lon="5.98928">
        <ele>568</ele>
        <time>2019-12-17T08:45:42.000Z</time>
      </trkpt>
      <trkpt lat="43.35464" lon="5.98928">
        <ele>568</ele>
        <time>2019-12-17T08:45:43.000Z</time>
      </trkpt>
      <trkpt lat="43.35464" lon="5.98928">
        <ele>568</ele>
        <time>2019-12-17T08:45:44.000Z</time>
      </trkpt>
      <trkpt lat="43.35464" lon="5.98928">
        <ele>568</ele>
        <time>2019-12-17T08:45:45.000Z</time>
      </trkpt>
      <trkpt lat="43.35464" lon="5.98928">
        <ele>568</ele>
        <time>2019-12-17T08:45:46.000Z</time>
      </trkpt>
      <trkpt lat="43.35464" lon="5.98928">
        <ele>568</ele>
        <time>2019-12-17T08:45:47.000Z</time>
      </trkpt>
      <trkpt lat="43.35464" lon="5.98928">
        <ele>568</ele>
        <time>2019-12-17T08:45:48.000Z</time>
      </trkpt>
      <trkpt lat="43.35464" lon="5.98928">
        <ele>568</ele>
        <time>2019-12-17T08:45:49.000Z</time>
      </trkpt>
      <trkpt lat="43.35464" lon="5.98928">
        <ele>568</ele>
        <time>2019-12-17T08:45:50.000Z</time>
      </trkpt>
      <trkpt lat="43.35464" lon="5.98928">
        <ele>568</ele>
        <time>2019-12-17T08:45:51.000Z</time>
      </trkpt>
      <trkpt lat="43.35464" lon="5.98928">
        <ele>568</ele>
        <time>2019-12-17T08:45:52.000Z</time>
      </trkpt>
      <trkpt lat="43.35464" lon="5.98928">
        <ele>568</ele>
        <time>2019-12-17T08:45:53.000Z</time>
      </trkpt>
      <trkpt lat="43.35464" lon="5.98928">
        <ele>568</ele>
        <time>2019-12-17T08:45:54.000Z</time>
      </trkpt>
      <trkpt lat="43.35464" lon="5.98928">
        <ele>568</ele>
        <time>2019-12-17T08:45:55.000Z</time>
      </trkpt>
      <trkpt lat="43.35464" lon="5.98928">
        <ele>568</ele>
        <time>2019-12-17T08:45:56.000Z</time>
      </trkpt>
      <trkpt lat="43.35464" lon="5.98928">
        <ele>568</ele>
        <time>2019-12-17T08:45:57.000Z</time>
      </trkpt>
      <trkpt lat="43.35464" lon="5.98928">
        <ele>568</ele>
        <time>2019-12-17T08:45:58.000Z</time>
      </trkpt>
      <trkpt lat="43.35464" lon="5.98928">
        <ele>568</ele>
        <time>2019-12-17T08:45:59.000Z</time>
      </trkpt>
      <trkpt lat="43.35464" lon="5.98928">
        <ele>568</ele>
        <time>2019-12-17T08:46:00.000Z</time>
      </trkpt>
      <trkpt lat="43.35464" lon="5.98928">
        <ele>568</ele>
        <time>2019-12-17T08:46:01.000Z</time>
      </trkpt>
      <trkpt lat="43.35464" lon="5.98928">
        <ele>568</ele>
        <time>2019-12-17T08:46:02.000Z</time>
      </trkpt>
      <trkpt lat="43.35464" lon="5.98928">
        <ele>568</ele>
        <time>2019-12-17T08:46:03.000Z</time>
      </trkpt>
      <trkpt lat="43.35464" lon="5.98928">
        <ele>568</ele>
        <time>2019-12-17T08:46:04.000Z</time>
      </trkpt>
      <trkpt lat="43.35464" lon="5.98928">
        <ele>568</ele>
        <time>2019-12-17T08:46:05.000Z</time>
      </trkpt>
      <trkpt lat="43.35464" lon="5.98928">
        <ele>568</ele>
        <time>2019-12-17T08:46:06.000Z</time>
      </trkpt>
      <trkpt lat="43.35464" lon="5.98928">
        <ele>568</ele>
        <time>2019-12-17T08:46:07.000Z</time>
      </trkpt>
      <trkpt lat="43.35464" lon="5.98928">
        <ele>568</ele>
        <time>2019-12-17T08:46:08.000Z</time>
      </trkpt>
      <trkpt lat="43.35464" lon="5.98928">
        <ele>568</ele>
        <time>2019-12-17T08:46:09.000Z</time>
      </trkpt>
      <trkpt lat="43.35464" lon="5.98928">
        <ele>568</ele>
        <time>2019-12-17T08:46:10.000Z</time>
      </trkpt>
      <trkpt lat="43.35464" lon="5.98929">
        <ele>568</ele>
        <time>2019-12-17T08:46:11.000Z</time>
      </trkpt>
      <trkpt lat="43.35464" lon="5.98929">
        <ele>568</ele>
        <time>2019-12-17T08:46:12.000Z</time>
      </trkpt>
      <trkpt lat="43.35464" lon="5.98929">
        <ele>568</ele>
        <time>2019-12-17T08:46:13.000Z</time>
      </trkpt>
      <trkpt lat="43.35464" lon="5.98929">
        <ele>568</ele>
        <time>2019-12-17T08:46:14.000Z</time>
      </trkpt>
      <trkpt lat="43.35464" lon="5.98929">
        <ele>568</ele>
        <time>2019-12-17T08:46:15.000Z</time>
      </trkpt>
      <trkpt lat="43.35464" lon="5.98929">
        <ele>568</ele>
        <time>2019-12-17T08:46:16.000Z</time>
      </trkpt>
      <trkpt lat="43.35464" lon="5.98929">
        <ele>568</ele>
        <time>2019-12-17T08:46:17.000Z</time>
      </trkpt>
      <trkpt lat="43.35464" lon="5.98929">
        <ele>568</ele>
        <time>2019-12-17T08:46:18.000Z</time>
      </trkpt>
      <trkpt lat="43.35464" lon="5.98929">
        <ele>568</ele>
        <time>2019-12-17T08:46:19.000Z</time>
      </trkpt>
      <trkpt lat="43.35464" lon="5.98929">
        <ele>568</ele>
        <time>2019-12-17T08:46:20.000Z</time>
      </trkpt>
      <trkpt lat="43.35465" lon="5.98929">
        <ele>568</ele>
        <time>2019-12-17T08:46:21.000Z</time>
      </trkpt>
      <trkpt lat="43.35465" lon="5.98929">
        <ele>568</ele>
        <time>2019-12-17T08:46:22.000Z</time>
      </trkpt>
      <trkpt lat="43.35464" lon="5.98929">
        <ele>568</ele>
        <time>2019-12-17T08:46:23.000Z</time>
      </trkpt>
      <trkpt lat="43.35464" lon="5.9893">
        <ele>569</ele>
        <time>2019-12-17T08:46:24.000Z</time>
      </trkpt>
      <trkpt lat="43.35464" lon="5.9893">
        <ele>569</ele>
        <time>2019-12-17T08:46:25.000Z</time>
      </trkpt>
      <trkpt lat="43.35465" lon="5.9893">
        <ele>569</ele>
        <time>2019-12-17T08:46:26.000Z</time>
      </trkpt>
      <trkpt lat="43.35465" lon="5.9893">
        <ele>568</ele>
        <time>2019-12-17T08:46:27.000Z</time>
      </trkpt>
      <trkpt lat="43.35465" lon="5.98931">
        <ele>568</ele>
        <time>2019-12-17T08:46:28.000Z</time>
      </trkpt>
      <trkpt lat="43.35465" lon="5.98931">
        <ele>568</ele>
        <time>2019-12-17T08:46:29.000Z</time>
      </trkpt>
      <trkpt lat="43.35465" lon="5.98931">
        <ele>568</ele>
        <time>2019-12-17T08:46:30.000Z</time>
      </trkpt>
      <trkpt lat="43.35465" lon="5.98931">
        <ele>568</ele>
        <time>2019-12-17T08:46:31.000Z</time>
      </trkpt>
      <trkpt lat="43.35465" lon="5.98931">
        <ele>568</ele>
        <time>2019-12-17T08:46:32.000Z</time>
      </trkpt>
      <trkpt lat="43.35465" lon="5.98931">
        <ele>568</ele>
        <time>2019-12-17T08:46:33.000Z</time>
      </trkpt>
      <trkpt lat="43.35465" lon="5.98931">
        <ele>568</ele>
        <time>2019-12-17T08:46:34.000Z</time>
      </trkpt>
      <trkpt lat="43.35465" lon="5.98931">
        <ele>568</ele>
        <time>2019-12-17T08:46:35.000Z</time>
      </trkpt>
      <trkpt lat="43.35465" lon="5.98931">
        <ele>568</ele>
        <time>2019-12-17T08:46:36.000Z</time>
      </trkpt>
      <trkpt lat="43.35465" lon="5.98932">
        <ele>568</ele>
        <time>2019-12-17T08:46:37.000Z</time>
      </trkpt>
      <trkpt lat="43.35465" lon="5.98932">
        <ele>568</ele>
        <time>2019-12-17T08:46:38.000Z</time>
      </trkpt>
      <trkpt lat="43.35464" lon="5.98933">
        <ele>568</ele>
        <time>2019-12-17T08:46:39.000Z</time>
      </trkpt>
      <trkpt lat="43.35464" lon="5.98933">
        <ele>568</ele>
        <time>2019-12-17T08:46:40.000Z</time>
      </trkpt>
      <trkpt lat="43.35463" lon="5.98933">
        <ele>569</ele>
        <time>2019-12-17T08:46:41.000Z</time>
      </trkpt>
      <trkpt lat="43.35463" lon="5.98933">
        <ele>569</ele>
        <time>2019-12-17T08:46:42.000Z</time>
      </trkpt>
      <trkpt lat="43.35462" lon="5.98933">
        <ele>569</ele>
        <time>2019-12-17T08:46:43.000Z</time>
      </trkpt>
      <trkpt lat="43.35462" lon="5.98933">
        <ele>569</ele>
        <time>2019-12-17T08:46:44.000Z</time>
      </trkpt>
      <trkpt lat="43.35462" lon="5.98933">
        <ele>569</ele>
        <time>2019-12-17T08:46:45.000Z</time>
      </trkpt>
      <trkpt lat="43.35462" lon="5.98934">
        <ele>569</ele>
        <time>2019-12-17T08:46:46.000Z</time>
      </trkpt>
      <trkpt lat="43.35462" lon="5.98934">
        <ele>569</ele>
        <time>2019-12-17T08:46:47.000Z</time>
      </trkpt>
      <trkpt lat="43.35462" lon="5.98934">
        <ele>569</ele>
        <time>2019-12-17T08:46:48.000Z</time>
      </trkpt>
      <trkpt lat="43.35462" lon="5.98934">
        <ele>569</ele>
        <time>2019-12-17T08:46:49.000Z</time>
      </trkpt>
      <trkpt lat="43.35461" lon="5.98934">
        <ele>569</ele>
        <time>2019-12-17T08:46:50.000Z</time>
      </trkpt>
      <trkpt lat="43.35461" lon="5.98934">
        <ele>569</ele>
        <time>2019-12-17T08:46:51.000Z</time>
      </trkpt>
      <trkpt lat="43.35461" lon="5.98934">
        <ele>569</ele>
        <time>2019-12-17T08:46:52.000Z</time>
      </trkpt>
      <trkpt lat="43.35461" lon="5.98934">
        <ele>569</ele>
        <time>2019-12-17T08:46:53.000Z</time>
      </trkpt>
      <trkpt lat="43.35461" lon="5.98934">
        <ele>569</ele>
        <time>2019-12-17T08:46:54.000Z</time>
      </trkpt>
      <trkpt lat="43.35461" lon="5.98934">
        <ele>569</ele>
        <time>2019-12-17T08:46:55.000Z</time>
      </trkpt>
      <trkpt lat="43.35461" lon="5.98934">
        <ele>569</ele>
        <time>2019-12-17T08:46:56.000Z</time>
      </trkpt>
      <trkpt lat="43.35461" lon="5.98934">
        <ele>569</ele>
        <time>2019-12-17T08:46:57.000Z</time>
      </trkpt>
      <trkpt lat="43.35461" lon="5.98935">
        <ele>569</ele>
        <time>2019-12-17T08:46:58.000Z</time>
      </trkpt>
      <trkpt lat="43.35461" lon="5.98936">
        <ele>569</ele>
        <time>2019-12-17T08:46:59.000Z</time>
      </trkpt>
      <trkpt lat="43.35461" lon="5.98937">
        <ele>569</ele>
        <time>2019-12-17T08:47:00.000Z</time>
      </trkpt>
      <trkpt lat="43.3546" lon="5.98937">
        <ele>569</ele>
        <time>2019-12-17T08:47:01.000Z</time>
      </trkpt>
      <trkpt lat="43.3546" lon="5.98937">
        <ele>569</ele>
        <time>2019-12-17T08:47:02.000Z</time>
      </trkpt>
      <trkpt lat="43.3546" lon="5.98938">
        <ele>569</ele>
        <time>2019-12-17T08:47:03.000Z</time>
      </trkpt>
      <trkpt lat="43.3546" lon="5.98938">
        <ele>569</ele>
        <time>2019-12-17T08:47:04.000Z</time>
      </trkpt>
      <trkpt lat="43.3546" lon="5.98938">
        <ele>569</ele>
        <time>2019-12-17T08:47:05.000Z</time>
      </trkpt>
      <trkpt lat="43.3546" lon="5.98938">
        <ele>568</ele>
        <time>2019-12-17T08:47:06.000Z</time>
      </trkpt>
      <trkpt lat="43.3546" lon="5.98939">
        <ele>568</ele>
        <time>2019-12-17T08:47:07.000Z</time>
      </trkpt>
      <trkpt lat="43.3546" lon="5.9894">
        <ele>568</ele>
        <time>2019-12-17T08:47:08.000Z</time>
      </trkpt>
      <trkpt lat="43.3546" lon="5.98941">
        <ele>568</ele>
        <time>2019-12-17T08:47:09.000Z</time>
      </trkpt>
      <trkpt lat="43.3546" lon="5.98943">
        <ele>568</ele>
        <time>2019-12-17T08:47:10.000Z</time>
      </trkpt>
      <trkpt lat="43.35459" lon="5.98945">
        <ele>568</ele>
        <time>2019-12-17T08:47:11.000Z</time>
      </trkpt>
      <trkpt lat="43.35459" lon="5.98946">
        <ele>568</ele>
        <time>2019-12-17T08:47:12.000Z</time>
      </trkpt>
      <trkpt lat="43.35458" lon="5.98947">
        <ele>568</ele>
        <time>2019-12-17T08:47:13.000Z</time>
      </trkpt>
      <trkpt lat="43.35458" lon="5.98949">
        <ele>568</ele>
        <time>2019-12-17T08:47:14.000Z</time>
      </trkpt>
      <trkpt lat="43.35458" lon="5.9895">
        <ele>569</ele>
        <time>2019-12-17T08:47:15.000Z</time>
      </trkpt>
      <trkpt lat="43.35458" lon="5.98951">
        <ele>569</ele>
        <time>2019-12-17T08:47:16.000Z</time>
      </trkpt>
      <trkpt lat="43.35458" lon="5.98952">
        <ele>569</ele>
        <time>2019-12-17T08:47:17.000Z</time>
      </trkpt>
      <trkpt lat="43.35458" lon="5.98953">
        <ele>569</ele>
        <time>2019-12-17T08:47:18.000Z</time>
      </trkpt>
      <trkpt lat="43.35459" lon="5.98953">
        <ele>569</ele>
        <time>2019-12-17T08:47:19.000Z</time>
      </trkpt>
      <trkpt lat="43.35459" lon="5.98954">
        <ele>569</ele>
        <time>2019-12-17T08:47:20.000Z</time>
      </trkpt>
      <trkpt lat="43.35459" lon="5.98955">
        <ele>569</ele>
        <time>2019-12-17T08:47:21.000Z</time>
      </trkpt>
      <trkpt lat="43.35459" lon="5.98955">
        <ele>569</ele>
        <time>2019-12-17T08:47:22.000Z</time>
      </trkpt>
      <trkpt lat="43.35459" lon="5.98955">
        <ele>569</ele>
        <time>2019-12-17T08:47:23.000Z</time>
      </trkpt>
      <trkpt lat="43.35459" lon="5.98956">
        <ele>569</ele>
        <time>2019-12-17T08:47:24.000Z</time>
      </trkpt>
      <trkpt lat="43.35459" lon="5.98957">
        <ele>569</ele>
        <time>2019-12-17T08:47:25.000Z</time>
      </trkpt>
      <trkpt lat="43.35459" lon="5.98957">
        <ele>569</ele>
        <time>2019-12-17T08:47:26.000Z</time>
      </trkpt>
      <trkpt lat="43.35459" lon="5.98958">
        <ele>569</ele>
        <time>2019-12-17T08:47:27.000Z</time>
      </trkpt>
      <trkpt lat="43.3546" lon="5.98958">
        <ele>569</ele>
        <time>2019-12-17T08:47:28.000Z</time>
      </trkpt>
      <trkpt lat="43.3546" lon="5.98959">
        <ele>569</ele>
        <time>2019-12-17T08:47:29.000Z</time>
      </trkpt>
      <trkpt lat="43.3546" lon="5.98959">
        <ele>569</ele>
        <time>2019-12-17T08:47:30.000Z</time>
      </trkpt>
      <trkpt lat="43.3546" lon="5.9896">
        <ele>569</ele>
        <time>2019-12-17T08:47:31.000Z</time>
      </trkpt>
      <trkpt lat="43.35461" lon="5.98961">
        <ele>569</ele>
        <time>2019-12-17T08:47:32.000Z</time>
      </trkpt>
      <trkpt lat="43.35461" lon="5.98962">
        <ele>569</ele>
        <time>2019-12-17T08:47:33.000Z</time>
      </trkpt>
      <trkpt lat="43.35461" lon="5.98963">
        <ele>568</ele>
        <time>2019-12-17T08:47:34.000Z</time>
      </trkpt>
      <trkpt lat="43.35462" lon="5.98963">
        <ele>568</ele>
        <time>2019-12-17T08:47:35.000Z</time>
      </trkpt>
      <trkpt lat="43.35462" lon="5.98964">
        <ele>568</ele>
        <time>2019-12-17T08:47:36.000Z</time>
      </trkpt>
      <trkpt lat="43.35462" lon="5.98965">
        <ele>568</ele>
        <time>2019-12-17T08:47:37.000Z</time>
      </trkpt>
      <trkpt lat="43.35462" lon="5.98965">
        <ele>568</ele>
        <time>2019-12-17T08:47:38.000Z</time>
      </trkpt>
      <trkpt lat="43.35462" lon="5.98966">
        <ele>568</ele>
        <time>2019-12-17T08:47:39.000Z</time>
      </trkpt>
      <trkpt lat="43.35462" lon="5.98967">
        <ele>567</ele>
        <time>2019-12-17T08:47:40.000Z</time>
      </trkpt>
      <trkpt lat="43.35462" lon="5.98968">
        <ele>567</ele>
        <time>2019-12-17T08:47:41.000Z</time>
      </trkpt>
      <trkpt lat="43.35462" lon="5.98968">
        <ele>567</ele>
        <time>2019-12-17T08:47:42.000Z</time>
      </trkpt>
      <trkpt lat="43.35462" lon="5.98969">
        <ele>567</ele>
        <time>2019-12-17T08:47:43.000Z</time>
      </trkpt>
      <trkpt lat="43.35461" lon="5.9897">
        <ele>567</ele>
        <time>2019-12-17T08:47:44.000Z</time>
      </trkpt>
      <trkpt lat="43.35462" lon="5.98972">
        <ele>567</ele>
        <time>2019-12-17T08:47:45.000Z</time>
      </trkpt>
      <trkpt lat="43.35462" lon="5.98973">
        <ele>567</ele>
        <time>2019-12-17T08:47:46.000Z</time>
      </trkpt>
      <trkpt lat="43.35462" lon="5.98974">
        <ele>567</ele>
        <time>2019-12-17T08:47:47.000Z</time>
      </trkpt>
      <trkpt lat="43.35463" lon="5.98975">
        <ele>567</ele>
        <time>2019-12-17T08:47:48.000Z</time>
      </trkpt>
      <trkpt lat="43.35464" lon="5.98976">
        <ele>567</ele>
        <time>2019-12-17T08:47:49.000Z</time>
      </trkpt>
      <trkpt lat="43.35464" lon="5.98977">
        <ele>567</ele>
        <time>2019-12-17T08:47:50.000Z</time>
      </trkpt>
      <trkpt lat="43.35465" lon="5.98979">
        <ele>567</ele>
        <time>2019-12-17T08:47:51.000Z</time>
      </trkpt>
      <trkpt lat="43.35465" lon="5.98981">
        <ele>567</ele>
        <time>2019-12-17T08:47:52.000Z</time>
      </trkpt>
      <trkpt lat="43.35466" lon="5.98982">
        <ele>567</ele>
        <time>2019-12-17T08:47:53.000Z</time>
      </trkpt>
      <trkpt lat="43.35467" lon="5.98983">
        <ele>567</ele>
        <time>2019-12-17T08:47:54.000Z</time>
      </trkpt>
      <trkpt lat="43.35468" lon="5.98984">
        <ele>567</ele>
        <time>2019-12-17T08:47:55.000Z</time>
      </trkpt>
      <trkpt lat="43.35469" lon="5.98985">
        <ele>567</ele>
        <time>2019-12-17T08:47:56.000Z</time>
      </trkpt>
      <trkpt lat="43.3547" lon="5.98985">
        <ele>567</ele>
        <time>2019-12-17T08:47:57.000Z</time>
      </trkpt>
      <trkpt lat="43.35471" lon="5.98986">
        <ele>567</ele>
        <time>2019-12-17T08:47:58.000Z</time>
      </trkpt>
      <trkpt lat="43.35472" lon="5.98986">
        <ele>567</ele>
        <time>2019-12-17T08:47:59.000Z</time>
      </trkpt>
      <trkpt lat="43.35473" lon="5.98987">
        <ele>567</ele>
        <time>2019-12-17T08:48:00.000Z</time>
      </trkpt>
      <trkpt lat="43.35473" lon="5.98988">
        <ele>567</ele>
        <time>2019-12-17T08:48:01.000Z</time>
      </trkpt>
      <trkpt lat="43.35473" lon="5.9899">
        <ele>567</ele>
        <time>2019-12-17T08:48:02.000Z</time>
      </trkpt>
      <trkpt lat="43.35473" lon="5.98992">
        <ele>567</ele>
        <time>2019-12-17T08:48:03.000Z</time>
      </trkpt>
      <trkpt lat="43.35473" lon="5.98994">
        <ele>567</ele>
        <time>2019-12-17T08:48:04.000Z</time>
      </trkpt>
      <trkpt lat="43.35473" lon="5.98995">
        <ele>567</ele>
        <time>2019-12-17T08:48:05.000Z</time>
      </trkpt>
      <trkpt lat="43.35472" lon="5.98997">
        <ele>567</ele>
        <time>2019-12-17T08:48:06.000Z</time>
      </trkpt>
      <trkpt lat="43.35473" lon="5.98999">
        <ele>567</ele>
        <time>2019-12-17T08:48:07.000Z</time>
      </trkpt>
      <trkpt lat="43.35473" lon="5.99">
        <ele>567</ele>
        <time>2019-12-17T08:48:08.000Z</time>
      </trkpt>
      <trkpt lat="43.35473" lon="5.99002">
        <ele>566</ele>
        <time>2019-12-17T08:48:09.000Z</time>
      </trkpt>
      <trkpt lat="43.35474" lon="5.99004">
        <ele>566</ele>
        <time>2019-12-17T08:48:10.000Z</time>
      </trkpt>
      <trkpt lat="43.35474" lon="5.99006">
        <ele>566</ele>
        <time>2019-12-17T08:48:11.000Z</time>
      </trkpt>
      <trkpt lat="43.35475" lon="5.99008">
        <ele>566</ele>
        <time>2019-12-17T08:48:12.000Z</time>
      </trkpt>
      <trkpt lat="43.35475" lon="5.9901">
        <ele>566</ele>
        <time>2019-12-17T08:48:13.000Z</time>
      </trkpt>
      <trkpt lat="43.35476" lon="5.99011">
        <ele>566</ele>
        <time>2019-12-17T08:48:14.000Z</time>
      </trkpt>
      <trkpt lat="43.35477" lon="5.99013">
        <ele>566</ele>
        <time>2019-12-17T08:48:15.000Z</time>
      </trkpt>
      <trkpt lat="43.35477" lon="5.99015">
        <ele>566</ele>
        <time>2019-12-17T08:48:16.000Z</time>
      </trkpt>
      <trkpt lat="43.35478" lon="5.99016">
        <ele>565</ele>
        <time>2019-12-17T08:48:17.000Z</time>
      </trkpt>
      <trkpt lat="43.35478" lon="5.99018">
        <ele>565</ele>
        <time>2019-12-17T08:48:18.000Z</time>
      </trkpt>
      <trkpt lat="43.35478" lon="5.9902">
        <ele>565</ele>
        <time>2019-12-17T08:48:19.000Z</time>
      </trkpt>
      <trkpt lat="43.35478" lon="5.99021">
        <ele>565</ele>
        <time>2019-12-17T08:48:20.000Z</time>
      </trkpt>
      <trkpt lat="43.35479" lon="5.99022">
        <ele>565</ele>
        <time>2019-12-17T08:48:21.000Z</time>
      </trkpt>
      <trkpt lat="43.35479" lon="5.99023">
        <ele>565</ele>
        <time>2019-12-17T08:48:22.000Z</time>
      </trkpt>
      <trkpt lat="43.35479" lon="5.99025">
        <ele>565</ele>
        <time>2019-12-17T08:48:23.000Z</time>
      </trkpt>
      <trkpt lat="43.35479" lon="5.99026">
        <ele>565</ele>
        <time>2019-12-17T08:48:24.000Z</time>
      </trkpt>
      <trkpt lat="43.35479" lon="5.99027">
        <ele>565</ele>
        <time>2019-12-17T08:48:25.000Z</time>
      </trkpt>
      <trkpt lat="43.35479" lon="5.99028">
        <ele>564</ele>
        <time>2019-12-17T08:48:26.000Z</time>
      </trkpt>
      <trkpt lat="43.3548" lon="5.9903">
        <ele>564</ele>
        <time>2019-12-17T08:48:27.000Z</time>
      </trkpt>
      <trkpt lat="43.3548" lon="5.99031">
        <ele>564</ele>
        <time>2019-12-17T08:48:28.000Z</time>
      </trkpt>
      <trkpt lat="43.35481" lon="5.99032">
        <ele>564</ele>
        <time>2019-12-17T08:48:29.000Z</time>
      </trkpt>
      <trkpt lat="43.35482" lon="5.99033">
        <ele>564</ele>
        <time>2019-12-17T08:48:30.000Z</time>
      </trkpt>
      <trkpt lat="43.35483" lon="5.99033">
        <ele>564</ele>
        <time>2019-12-17T08:48:31.000Z</time>
      </trkpt>
      <trkpt lat="43.35483" lon="5.99034">
        <ele>564</ele>
        <time>2019-12-17T08:48:32.000Z</time>
      </trkpt>
      <trkpt lat="43.35484" lon="5.99034">
        <ele>564</ele>
        <time>2019-12-17T08:48:33.000Z</time>
      </trkpt>
      <trkpt lat="43.35485" lon="5.99034">
        <ele>564</ele>
        <time>2019-12-17T08:48:34.000Z</time>
      </trkpt>
      <trkpt lat="43.35486" lon="5.99035">
        <ele>564</ele>
        <time>2019-12-17T08:48:35.000Z</time>
      </trkpt>
      <trkpt lat="43.35487" lon="5.99036">
        <ele>564</ele>
        <time>2019-12-17T08:48:36.000Z</time>
      </trkpt>
      <trkpt lat="43.35488" lon="5.99037">
        <ele>564</ele>
        <time>2019-12-17T08:48:37.000Z</time>
      </trkpt>
      <trkpt lat="43.35489" lon="5.99037">
        <ele>564</ele>
        <time>2019-12-17T08:48:38.000Z</time>
      </trkpt>
      <trkpt lat="43.3549" lon="5.99038">
        <ele>564</ele>
        <time>2019-12-17T08:48:39.000Z</time>
      </trkpt>
      <trkpt lat="43.3549" lon="5.99039">
        <ele>564</ele>
        <time>2019-12-17T08:48:40.000Z</time>
      </trkpt>
      <trkpt lat="43.35491" lon="5.99039">
        <ele>565</ele>
        <time>2019-12-17T08:48:41.000Z</time>
      </trkpt>
      <trkpt lat="43.35492" lon="5.99039">
        <ele>565</ele>
        <time>2019-12-17T08:48:42.000Z</time>
      </trkpt>
      <trkpt lat="43.35493" lon="5.9904">
        <ele>565</ele>
        <time>2019-12-17T08:48:43.000Z</time>
      </trkpt>
      <trkpt lat="43.35494" lon="5.99041">
        <ele>565</ele>
        <time>2019-12-17T08:48:44.000Z</time>
      </trkpt>
      <trkpt lat="43.35494" lon="5.99041">
        <ele>565</ele>
        <time>2019-12-17T08:48:45.000Z</time>
      </trkpt>
      <trkpt lat="43.35494" lon="5.99042">
        <ele>565</ele>
        <time>2019-12-17T08:48:46.000Z</time>
      </trkpt>
      <trkpt lat="43.35494" lon="5.99042">
        <ele>565</ele>
        <time>2019-12-17T08:48:47.000Z</time>
      </trkpt>
      <trkpt lat="43.35494" lon="5.99042">
        <ele>565</ele>
        <time>2019-12-17T08:48:48.000Z</time>
      </trkpt>
      <trkpt lat="43.35494" lon="5.99042">
        <ele>565</ele>
        <time>2019-12-17T08:48:49.000Z</time>
      </trkpt>
      <trkpt lat="43.35494" lon="5.99042">
        <ele>565</ele>
        <time>2019-12-17T08:48:50.000Z</time>
      </trkpt>
      <trkpt lat="43.35494" lon="5.99042">
        <ele>565</ele>
        <time>2019-12-17T08:48:51.000Z</time>
      </trkpt>
      <trkpt lat="43.35494" lon="5.99042">
        <ele>565</ele>
        <time>2019-12-17T08:48:52.000Z</time>
      </trkpt>
      <trkpt lat="43.35494" lon="5.99043">
        <ele>565</ele>
        <time>2019-12-17T08:48:53.000Z</time>
      </trkpt>
      <trkpt lat="43.35494" lon="5.99043">
        <ele>565</ele>
        <time>2019-12-17T08:48:54.000Z</time>
      </trkpt>
      <trkpt lat="43.35494" lon="5.99043">
        <ele>565</ele>
        <time>2019-12-17T08:48:55.000Z</time>
      </trkpt>
      <trkpt lat="43.35494" lon="5.99043">
        <ele>565</ele>
        <time>2019-12-17T08:48:56.000Z</time>
      </trkpt>
      <trkpt lat="43.35494" lon="5.99043">
        <ele>565</ele>
        <time>2019-12-17T08:48:57.000Z</time>
      </trkpt>
      <trkpt lat="43.35494" lon="5.99043">
        <ele>565</ele>
        <time>2019-12-17T08:48:58.000Z</time>
      </trkpt>
      <trkpt lat="43.35494" lon="5.99043">
        <ele>565</ele>
        <time>2019-12-17T08:48:59.000Z</time>
      </trkpt>
      <trkpt lat="43.35494" lon="5.99043">
        <ele>565</ele>
        <time>2019-12-17T08:49:00.000Z</time>
      </trkpt>
      <trkpt lat="43.35494" lon="5.99043">
        <ele>565</ele>
        <time>2019-12-17T08:49:01.000Z</time>
      </trkpt>
      <trkpt lat="43.35494" lon="5.99043">
        <ele>565</ele>
        <time>2019-12-17T08:49:02.000Z</time>
      </trkpt>
      <trkpt lat="43.35494" lon="5.99043">
        <ele>565</ele>
        <time>2019-12-17T08:49:03.000Z</time>
      </trkpt>
      <trkpt lat="43.35494" lon="5.99043">
        <ele>565</ele>
        <time>2019-12-17T08:49:04.000Z</time>
      </trkpt>
      <trkpt lat="43.35494" lon="5.99043">
        <ele>565</ele>
        <time>2019-12-17T08:49:05.000Z</time>
      </trkpt>
      <trkpt lat="43.35494" lon="5.99043">
        <ele>565</ele>
        <time>2019-12-17T08:49:06.000Z</time>
      </trkpt>
      <trkpt lat="43.35495" lon="5.99043">
        <ele>565</ele>
        <time>2019-12-17T08:49:07.000Z</time>
      </trkpt>
      <trkpt lat="43.35495" lon="5.99043">
        <ele>565</ele>
        <time>2019-12-17T08:49:08.000Z</time>
      </trkpt>
      <trkpt lat="43.35495" lon="5.99044">
        <ele>565</ele>
        <time>2019-12-17T08:49:09.000Z</time>
      </trkpt>
      <trkpt lat="43.35495" lon="5.99043">
        <ele>565</ele>
        <time>2019-12-17T08:49:10.000Z</time>
      </trkpt>
      <trkpt lat="43.35495" lon="5.99043">
        <ele>565</ele>
        <time>2019-12-17T08:49:11.000Z</time>
      </trkpt>
      <trkpt lat="43.35495" lon="5.99043">
        <ele>565</ele>
        <time>2019-12-17T08:49:12.000Z</time>
      </trkpt>
      <trkpt lat="43.35495" lon="5.99043">
        <ele>565</ele>
        <time>2019-12-17T08:49:13.000Z</time>
      </trkpt>
      <trkpt lat="43.35495" lon="5.99043">
        <ele>565</ele>
        <time>2019-12-17T08:49:14.000Z</time>
      </trkpt>
      <trkpt lat="43.35495" lon="5.99043">
        <ele>565</ele>
        <time>2019-12-17T08:49:15.000Z</time>
      </trkpt>
      <trkpt lat="43.35495" lon="5.99044">
        <ele>565</ele>
        <time>2019-12-17T08:49:16.000Z</time>
      </trkpt>
      <trkpt lat="43.35495" lon="5.99045">
        <ele>564</ele>
        <time>2019-12-17T08:49:17.000Z</time>
      </trkpt>
      <trkpt lat="43.35495" lon="5.99045">
        <ele>564</ele>
        <time>2019-12-17T08:49:18.000Z</time>
      </trkpt>
      <trkpt lat="43.35495" lon="5.99046">
        <ele>564</ele>
        <time>2019-12-17T08:49:19.000Z</time>
      </trkpt>
      <trkpt lat="43.35495" lon="5.99047">
        <ele>564</ele>
        <time>2019-12-17T08:49:20.000Z</time>
      </trkpt>
      <trkpt lat="43.35494" lon="5.99048">
        <ele>564</ele>
        <time>2019-12-17T08:49:21.000Z</time>
      </trkpt>
      <trkpt lat="43.35494" lon="5.99049">
        <ele>564</ele>
        <time>2019-12-17T08:49:22.000Z</time>
      </trkpt>
      <trkpt lat="43.35494" lon="5.9905">
        <ele>564</ele>
        <time>2019-12-17T08:49:23.000Z</time>
      </trkpt>
      <trkpt lat="43.35493" lon="5.99051">
        <ele>564</ele>
        <time>2019-12-17T08:49:24.000Z</time>
      </trkpt>
      <trkpt lat="43.35493" lon="5.99052">
        <ele>564</ele>
        <time>2019-12-17T08:49:25.000Z</time>
      </trkpt>
      <trkpt lat="43.35493" lon="5.99054">
        <ele>564</ele>
        <time>2019-12-17T08:49:26.000Z</time>
      </trkpt>
      <trkpt lat="43.35493" lon="5.99055">
        <ele>564</ele>
        <time>2019-12-17T08:49:27.000Z</time>
      </trkpt>
      <trkpt lat="43.35493" lon="5.99057">
        <ele>564</ele>
        <time>2019-12-17T08:49:28.000Z</time>
      </trkpt>
      <trkpt lat="43.35493" lon="5.99058">
        <ele>564</ele>
        <time>2019-12-17T08:49:29.000Z</time>
      </trkpt>
      <trkpt lat="43.35494" lon="5.99059">
        <ele>564</ele>
        <time>2019-12-17T08:49:30.000Z</time>
      </trkpt>
      <trkpt lat="43.35495" lon="5.99061">
        <ele>564</ele>
        <time>2019-12-17T08:49:31.000Z</time>
      </trkpt>
      <trkpt lat="43.35495" lon="5.99062">
        <ele>564</ele>
        <time>2019-12-17T08:49:32.000Z</time>
      </trkpt>
      <trkpt lat="43.35496" lon="5.99063">
        <ele>564</ele>
        <time>2019-12-17T08:49:33.000Z</time>
      </trkpt>
      <trkpt lat="43.35497" lon="5.99064">
        <ele>564</ele>
        <time>2019-12-17T08:49:34.000Z</time>
      </trkpt>
      <trkpt lat="43.35498" lon="5.99065">
        <ele>564</ele>
        <time>2019-12-17T08:49:35.000Z</time>
      </trkpt>
      <trkpt lat="43.35498" lon="5.99066">
        <ele>564</ele>
        <time>2019-12-17T08:49:36.000Z</time>
      </trkpt>
      <trkpt lat="43.35499" lon="5.99067">
        <ele>564</ele>
        <time>2019-12-17T08:49:37.000Z</time>
      </trkpt>
      <trkpt lat="43.35499" lon="5.99068">
        <ele>564</ele>
        <time>2019-12-17T08:49:38.000Z</time>
      </trkpt>
      <trkpt lat="43.35499" lon="5.9907">
        <ele>564</ele>
        <time>2019-12-17T08:49:39.000Z</time>
      </trkpt>
      <trkpt lat="43.35499" lon="5.99071">
        <ele>564</ele>
        <time>2019-12-17T08:49:40.000Z</time>
      </trkpt>
      <trkpt lat="43.35499" lon="5.99072">
        <ele>564</ele>
        <time>2019-12-17T08:49:41.000Z</time>
      </trkpt>
      <trkpt lat="43.35499" lon="5.99073">
        <ele>564</ele>
        <time>2019-12-17T08:49:42.000Z</time>
      </trkpt>
      <trkpt lat="43.35499" lon="5.99074">
        <ele>564</ele>
        <time>2019-12-17T08:49:43.000Z</time>
      </trkpt>
      <trkpt lat="43.35499" lon="5.99075">
        <ele>564</ele>
        <time>2019-12-17T08:49:44.000Z</time>
      </trkpt>
      <trkpt lat="43.355" lon="5.99076">
        <ele>564</ele>
        <time>2019-12-17T08:49:45.000Z</time>
      </trkpt>
      <trkpt lat="43.355" lon="5.99078">
        <ele>564</ele>
        <time>2019-12-17T08:49:46.000Z</time>
      </trkpt>
      <trkpt lat="43.35499" lon="5.99079">
        <ele>563</ele>
        <time>2019-12-17T08:49:47.000Z</time>
      </trkpt>
      <trkpt lat="43.35498" lon="5.9908">
        <ele>563</ele>
        <time>2019-12-17T08:49:48.000Z</time>
      </trkpt>
      <trkpt lat="43.35498" lon="5.99081">
        <ele>563</ele>
        <time>2019-12-17T08:49:49.000Z</time>
      </trkpt>
      <trkpt lat="43.35498" lon="5.99082">
        <ele>564</ele>
        <time>2019-12-17T08:49:50.000Z</time>
      </trkpt>
      <trkpt lat="43.35498" lon="5.99083">
        <ele>564</ele>
        <time>2019-12-17T08:49:51.000Z</time>
      </trkpt>
      <trkpt lat="43.35497" lon="5.99083">
        <ele>564</ele>
        <time>2019-12-17T08:49:52.000Z</time>
      </trkpt>
      <trkpt lat="43.35497" lon="5.99084">
        <ele>564</ele>
        <time>2019-12-17T08:49:53.000Z</time>
      </trkpt>
      <trkpt lat="43.35497" lon="5.99085">
        <ele>564</ele>
        <time>2019-12-17T08:49:54.000Z</time>
      </trkpt>
      <trkpt lat="43.35496" lon="5.99085">
        <ele>564</ele>
        <time>2019-12-17T08:49:55.000Z</time>
      </trkpt>
      <trkpt lat="43.35496" lon="5.99086">
        <ele>564</ele>
        <time>2019-12-17T08:49:56.000Z</time>
      </trkpt>
      <trkpt lat="43.35496" lon="5.99087">
        <ele>564</ele>
        <time>2019-12-17T08:49:57.000Z</time>
      </trkpt>
      <trkpt lat="43.35495" lon="5.99087">
        <ele>564</ele>
        <time>2019-12-17T08:49:58.000Z</time>
      </trkpt>
      <trkpt lat="43.35495" lon="5.99088">
        <ele>564</ele>
        <time>2019-12-17T08:49:59.000Z</time>
      </trkpt>
      <trkpt lat="43.35494" lon="5.99089">
        <ele>564</ele>
        <time>2019-12-17T08:50:00.000Z</time>
      </trkpt>
      <trkpt lat="43.35494" lon="5.9909">
        <ele>564</ele>
        <time>2019-12-17T08:50:01.000Z</time>
      </trkpt>
      <trkpt lat="43.35494" lon="5.99091">
        <ele>564</ele>
        <time>2019-12-17T08:50:02.000Z</time>
      </trkpt>
      <trkpt lat="43.35494" lon="5.99092">
        <ele>565</ele>
        <time>2019-12-17T08:50:03.000Z</time>
      </trkpt>
      <trkpt lat="43.35494" lon="5.99093">
        <ele>565</ele>
        <time>2019-12-17T08:50:04.000Z</time>
      </trkpt>
      <trkpt lat="43.35494" lon="5.99094">
        <ele>565</ele>
        <time>2019-12-17T08:50:05.000Z</time>
      </trkpt>
      <trkpt lat="43.35493" lon="5.99095">
        <ele>565</ele>
        <time>2019-12-17T08:50:06.000Z</time>
      </trkpt>
      <trkpt lat="43.35493" lon="5.99095">
        <ele>565</ele>
        <time>2019-12-17T08:50:07.000Z</time>
      </trkpt>
      <trkpt lat="43.35493" lon="5.99096">
        <ele>565</ele>
        <time>2019-12-17T08:50:08.000Z</time>
      </trkpt>
      <trkpt lat="43.35493" lon="5.99096">
        <ele>565</ele>
        <time>2019-12-17T08:50:09.000Z</time>
      </trkpt>
      <trkpt lat="43.35493" lon="5.99096">
        <ele>566</ele>
        <time>2019-12-17T08:50:10.000Z</time>
      </trkpt>
      <trkpt lat="43.35493" lon="5.99096">
        <ele>566</ele>
        <time>2019-12-17T08:50:11.000Z</time>
      </trkpt>
      <trkpt lat="43.35493" lon="5.99096">
        <ele>566</ele>
        <time>2019-12-17T08:50:12.000Z</time>
      </trkpt>
      <trkpt lat="43.35493" lon="5.99096">
        <ele>566</ele>
        <time>2019-12-17T08:50:13.000Z</time>
      </trkpt>
      <trkpt lat="43.35493" lon="5.99096">
        <ele>566</ele>
        <time>2019-12-17T08:50:14.000Z</time>
      </trkpt>
      <trkpt lat="43.35493" lon="5.99096">
        <ele>566</ele>
        <time>2019-12-17T08:50:15.000Z</time>
      </trkpt>
      <trkpt lat="43.35493" lon="5.99096">
        <ele>566</ele>
        <time>2019-12-17T08:50:16.000Z</time>
      </trkpt>
      <trkpt lat="43.35493" lon="5.99095">
        <ele>566</ele>
        <time>2019-12-17T08:50:17.000Z</time>
      </trkpt>
      <trkpt lat="43.35492" lon="5.99095">
        <ele>566</ele>
        <time>2019-12-17T08:50:18.000Z</time>
      </trkpt>
      <trkpt lat="43.35492" lon="5.99095">
        <ele>566</ele>
        <time>2019-12-17T08:50:19.000Z</time>
      </trkpt>
      <trkpt lat="43.35493" lon="5.99094">
        <ele>566</ele>
        <time>2019-12-17T08:50:20.000Z</time>
      </trkpt>
      <trkpt lat="43.35493" lon="5.99093">
        <ele>566</ele>
        <time>2019-12-17T08:50:21.000Z</time>
      </trkpt>
      <trkpt lat="43.35493" lon="5.99092">
        <ele>566</ele>
        <time>2019-12-17T08:50:22.000Z</time>
      </trkpt>
      <trkpt lat="43.35493" lon="5.99091">
        <ele>565</ele>
        <time>2019-12-17T08:50:23.000Z</time>
      </trkpt>
      <trkpt lat="43.35494" lon="5.9909">
        <ele>565</ele>
        <time>2019-12-17T08:50:24.000Z</time>
      </trkpt>
      <trkpt lat="43.35494" lon="5.99088">
        <ele>565</ele>
        <time>2019-12-17T08:50:25.000Z</time>
      </trkpt>
      <trkpt lat="43.35495" lon="5.99087">
        <ele>565</ele>
        <time>2019-12-17T08:50:26.000Z</time>
      </trkpt>
      <trkpt lat="43.35495" lon="5.99086">
        <ele>565</ele>
        <time>2019-12-17T08:50:27.000Z</time>
      </trkpt>
      <trkpt lat="43.35495" lon="5.99085">
        <ele>565</ele>
        <time>2019-12-17T08:50:28.000Z</time>
      </trkpt>
      <trkpt lat="43.35496" lon="5.99084">
        <ele>565</ele>
        <time>2019-12-17T08:50:29.000Z</time>
      </trkpt>
      <trkpt lat="43.35496" lon="5.99083">
        <ele>565</ele>
        <time>2019-12-17T08:50:30.000Z</time>
      </trkpt>
      <trkpt lat="43.35497" lon="5.99082">
        <ele>565</ele>
        <time>2019-12-17T08:50:31.000Z</time>
      </trkpt>
      <trkpt lat="43.35497" lon="5.99081">
        <ele>565</ele>
        <time>2019-12-17T08:50:32.000Z</time>
      </trkpt>
      <trkpt lat="43.35498" lon="5.9908">
        <ele>565</ele>
        <time>2019-12-17T08:50:33.000Z</time>
      </trkpt>
      <trkpt lat="43.35499" lon="5.99079">
        <ele>565</ele>
        <time>2019-12-17T08:50:34.000Z</time>
      </trkpt>
      <trkpt lat="43.35499" lon="5.99079">
        <ele>565</ele>
        <time>2019-12-17T08:50:35.000Z</time>
      </trkpt>
      <trkpt lat="43.35499" lon="5.99078">
        <ele>565</ele>
        <time>2019-12-17T08:50:36.000Z</time>
      </trkpt>
      <trkpt lat="43.35499" lon="5.99077">
        <ele>565</ele>
        <time>2019-12-17T08:50:37.000Z</time>
      </trkpt>
      <trkpt lat="43.35499" lon="5.99076">
        <ele>565</ele>
        <time>2019-12-17T08:50:38.000Z</time>
      </trkpt>
      <trkpt lat="43.35499" lon="5.99075">
        <ele>565</ele>
        <time>2019-12-17T08:50:39.000Z</time>
      </trkpt>
      <trkpt lat="43.35498" lon="5.99074">
        <ele>565</ele>
        <time>2019-12-17T08:50:40.000Z</time>
      </trkpt>
      <trkpt lat="43.35498" lon="5.99072">
        <ele>565</ele>
        <time>2019-12-17T08:50:41.000Z</time>
      </trkpt>
      <trkpt lat="43.35498" lon="5.9907">
        <ele>565</ele>
        <time>2019-12-17T08:50:42.000Z</time>
      </trkpt>
      <trkpt lat="43.35498" lon="5.99069">
        <ele>564</ele>
        <time>2019-12-17T08:50:43.000Z</time>
      </trkpt>
      <trkpt lat="43.35498" lon="5.99067">
        <ele>564</ele>
        <time>2019-12-17T08:50:44.000Z</time>
      </trkpt>
      <trkpt lat="43.35497" lon="5.99066">
        <ele>565</ele>
        <time>2019-12-17T08:50:45.000Z</time>
      </trkpt>
      <trkpt lat="43.35496" lon="5.99065">
        <ele>565</ele>
        <time>2019-12-17T08:50:46.000Z</time>
      </trkpt>
      <trkpt lat="43.35495" lon="5.99064">
        <ele>564</ele>
        <time>2019-12-17T08:50:47.000Z</time>
      </trkpt>
      <trkpt lat="43.35495" lon="5.99063">
        <ele>564</ele>
        <time>2019-12-17T08:50:48.000Z</time>
      </trkpt>
      <trkpt lat="43.35494" lon="5.99062">
        <ele>564</ele>
        <time>2019-12-17T08:50:49.000Z</time>
      </trkpt>
      <trkpt lat="43.35493" lon="5.99061">
        <ele>564</ele>
        <time>2019-12-17T08:50:50.000Z</time>
      </trkpt>
      <trkpt lat="43.35492" lon="5.99059">
        <ele>564</ele>
        <time>2019-12-17T08:50:51.000Z</time>
      </trkpt>
      <trkpt lat="43.35492" lon="5.99057">
        <ele>564</ele>
        <time>2019-12-17T08:50:52.000Z</time>
      </trkpt>
      <trkpt lat="43.35492" lon="5.99056">
        <ele>564</ele>
        <time>2019-12-17T08:50:53.000Z</time>
      </trkpt>
      <trkpt lat="43.35491" lon="5.99054">
        <ele>564</ele>
        <time>2019-12-17T08:50:54.000Z</time>
      </trkpt>
      <trkpt lat="43.35491" lon="5.99053">
        <ele>564</ele>
        <time>2019-12-17T08:50:55.000Z</time>
      </trkpt>
      <trkpt lat="43.35492" lon="5.99051">
        <ele>564</ele>
        <time>2019-12-17T08:50:56.000Z</time>
      </trkpt>
      <trkpt lat="43.35492" lon="5.9905">
        <ele>564</ele>
        <time>2019-12-17T08:50:57.000Z</time>
      </trkpt>
      <trkpt lat="43.35493" lon="5.99049">
        <ele>564</ele>
        <time>2019-12-17T08:50:58.000Z</time>
      </trkpt>
      <trkpt lat="43.35494" lon="5.99047">
        <ele>564</ele>
        <time>2019-12-17T08:50:59.000Z</time>
      </trkpt>
      <trkpt lat="43.35495" lon="5.99047">
        <ele>564</ele>
        <time>2019-12-17T08:51:00.000Z</time>
      </trkpt>
      <trkpt lat="43.35496" lon="5.99046">
        <ele>564</ele>
        <time>2019-12-17T08:51:01.000Z</time>
      </trkpt>
      <trkpt lat="43.35497" lon="5.99046">
        <ele>564</ele>
        <time>2019-12-17T08:51:02.000Z</time>
      </trkpt>
      <trkpt lat="43.35499" lon="5.99046">
        <ele>564</ele>
        <time>2019-12-17T08:51:03.000Z</time>
      </trkpt>
      <trkpt lat="43.355" lon="5.99046">
        <ele>564</ele>
        <time>2019-12-17T08:51:04.000Z</time>
      </trkpt>
      <trkpt lat="43.35501" lon="5.99046">
        <ele>564</ele>
        <time>2019-12-17T08:51:05.000Z</time>
      </trkpt>
      <trkpt lat="43.35502" lon="5.99046">
        <ele>565</ele>
        <time>2019-12-17T08:51:06.000Z</time>
      </trkpt>
      <trkpt lat="43.35503" lon="5.99046">
        <ele>565</ele>
        <time>2019-12-17T08:51:07.000Z</time>
      </trkpt>
      <trkpt lat="43.35504" lon="5.99047">
        <ele>565</ele>
        <time>2019-12-17T08:51:08.000Z</time>
      </trkpt>
      <trkpt lat="43.35505" lon="5.99047">
        <ele>565</ele>
        <time>2019-12-17T08:51:09.000Z</time>
      </trkpt>
      <trkpt lat="43.35505" lon="5.99049">
        <ele>565</ele>
        <time>2019-12-17T08:51:10.000Z</time>
      </trkpt>
      <trkpt lat="43.35506" lon="5.9905">
        <ele>565</ele>
        <time>2019-12-17T08:51:11.000Z</time>
      </trkpt>
      <trkpt lat="43.35506" lon="5.99051">
        <ele>565</ele>
        <time>2019-12-17T08:51:12.000Z</time>
      </trkpt>
      <trkpt lat="43.35506" lon="5.99053">
        <ele>565</ele>
        <time>2019-12-17T08:51:13.000Z</time>
      </trkpt>
      <trkpt lat="43.35507" lon="5.99054">
        <ele>565</ele>
        <time>2019-12-17T08:51:14.000Z</time>
      </trkpt>
      <trkpt lat="43.35507" lon="5.99055">
        <ele>565</ele>
        <time>2019-12-17T08:51:15.000Z</time>
      </trkpt>
      <trkpt lat="43.35507" lon="5.99056">
        <ele>565</ele>
        <time>2019-12-17T08:51:16.000Z</time>
      </trkpt>
      <trkpt lat="43.35507" lon="5.99057">
        <ele>565</ele>
        <time>2019-12-17T08:51:17.000Z</time>
      </trkpt>
      <trkpt lat="43.35508" lon="5.99058">
        <ele>565</ele>
        <time>2019-12-17T08:51:18.000Z</time>
      </trkpt>
      <trkpt lat="43.35508" lon="5.99059">
        <ele>565</ele>
        <time>2019-12-17T08:51:19.000Z</time>
      </trkpt>
      <trkpt lat="43.35509" lon="5.9906">
        <ele>565</ele>
        <time>2019-12-17T08:51:20.000Z</time>
      </trkpt>
      <trkpt lat="43.35509" lon="5.99061">
        <ele>565</ele>
        <time>2019-12-17T08:51:21.000Z</time>
      </trkpt>
      <trkpt lat="43.35509" lon="5.99063">
        <ele>565</ele>
        <time>2019-12-17T08:51:22.000Z</time>
      </trkpt>
      <trkpt lat="43.35509" lon="5.99063">
        <ele>565</ele>
        <time>2019-12-17T08:51:23.000Z</time>
      </trkpt>
      <trkpt lat="43.3551" lon="5.99064">
        <ele>565</ele>
        <time>2019-12-17T08:51:24.000Z</time>
      </trkpt>
      <trkpt lat="43.35511" lon="5.99065">
        <ele>565</ele>
        <time>2019-12-17T08:51:25.000Z</time>
      </trkpt>
      <trkpt lat="43.35511" lon="5.99066">
        <ele>565</ele>
        <time>2019-12-17T08:51:26.000Z</time>
      </trkpt>
      <trkpt lat="43.35512" lon="5.99067">
        <ele>565</ele>
        <time>2019-12-17T08:51:27.000Z</time>
      </trkpt>
      <trkpt lat="43.35513" lon="5.99068">
        <ele>565</ele>
        <time>2019-12-17T08:51:28.000Z</time>
      </trkpt>
      <trkpt lat="43.35513" lon="5.99068">
        <ele>565</ele>
        <time>2019-12-17T08:51:29.000Z</time>
      </trkpt>
      <trkpt lat="43.35513" lon="5.99068">
        <ele>565</ele>
        <time>2019-12-17T08:51:30.000Z</time>
      </trkpt>
      <trkpt lat="43.35513" lon="5.99068">
        <ele>565</ele>
        <time>2019-12-17T08:51:31.000Z</time>
      </trkpt>
      <trkpt lat="43.35514" lon="5.99069">
        <ele>565</ele>
        <time>2019-12-17T08:51:32.000Z</time>
      </trkpt>
      <trkpt lat="43.35514" lon="5.99071">
        <ele>565</ele>
        <time>2019-12-17T08:51:33.000Z</time>
      </trkpt>
      <trkpt lat="43.35514" lon="5.99071">
        <ele>564</ele>
        <time>2019-12-17T08:51:34.000Z</time>
      </trkpt>
      <trkpt lat="43.35514" lon="5.99072">
        <ele>564</ele>
        <time>2019-12-17T08:51:35.000Z</time>
      </trkpt>
      <trkpt lat="43.35514" lon="5.99072">
        <ele>564</ele>
        <time>2019-12-17T08:51:36.000Z</time>
      </trkpt>
      <trkpt lat="43.35514" lon="5.99072">
        <ele>564</ele>
        <time>2019-12-17T08:51:37.000Z</time>
      </trkpt>
      <trkpt lat="43.35514" lon="5.99072">
        <ele>564</ele>
        <time>2019-12-17T08:51:38.000Z</time>
      </trkpt>
      <trkpt lat="43.35514" lon="5.99072">
        <ele>564</ele>
        <time>2019-12-17T08:51:39.000Z</time>
      </trkpt>
      <trkpt lat="43.35514" lon="5.99072">
        <ele>564</ele>
        <time>2019-12-17T08:51:40.000Z</time>
      </trkpt>
      <trkpt lat="43.35514" lon="5.99073">
        <ele>565</ele>
        <time>2019-12-17T08:51:41.000Z</time>
      </trkpt>
      <trkpt lat="43.35514" lon="5.99073">
        <ele>565</ele>
        <time>2019-12-17T08:51:42.000Z</time>
      </trkpt>
      <trkpt lat="43.35514" lon="5.99074">
        <ele>565</ele>
        <time>2019-12-17T08:51:43.000Z</time>
      </trkpt>
      <trkpt lat="43.35513" lon="5.99076">
        <ele>565</ele>
        <time>2019-12-17T08:51:44.000Z</time>
      </trkpt>
      <trkpt lat="43.35513" lon="5.99077">
        <ele>565</ele>
        <time>2019-12-17T08:51:45.000Z</time>
      </trkpt>
      <trkpt lat="43.35513" lon="5.99078">
        <ele>565</ele>
        <time>2019-12-17T08:51:46.000Z</time>
      </trkpt>
      <trkpt lat="43.35513" lon="5.99079">
        <ele>565</ele>
        <time>2019-12-17T08:51:47.000Z</time>
      </trkpt>
      <trkpt lat="43.35513" lon="5.99081">
        <ele>565</ele>
        <time>2019-12-17T08:51:48.000Z</time>
      </trkpt>
      <trkpt lat="43.35513" lon="5.99083">
        <ele>565</ele>
        <time>2019-12-17T08:51:49.000Z</time>
      </trkpt>
      <trkpt lat="43.35513" lon="5.99084">
        <ele>565</ele>
        <time>2019-12-17T08:51:50.000Z</time>
      </trkpt>
      <trkpt lat="43.35513" lon="5.99085">
        <ele>565</ele>
        <time>2019-12-17T08:51:51.000Z</time>
      </trkpt>
      <trkpt lat="43.35513" lon="5.99087">
        <ele>565</ele>
        <time>2019-12-17T08:51:52.000Z</time>
      </trkpt>
      <trkpt lat="43.35512" lon="5.99088">
        <ele>565</ele>
        <time>2019-12-17T08:51:53.000Z</time>
      </trkpt>
      <trkpt lat="43.35512" lon="5.9909">
        <ele>565</ele>
        <time>2019-12-17T08:51:54.000Z</time>
      </trkpt>
      <trkpt lat="43.35513" lon="5.99092">
        <ele>565</ele>
        <time>2019-12-17T08:51:55.000Z</time>
      </trkpt>
      <trkpt lat="43.35513" lon="5.99094">
        <ele>565</ele>
        <time>2019-12-17T08:51:56.000Z</time>
      </trkpt>
      <trkpt lat="43.35513" lon="5.99095">
        <ele>565</ele>
        <time>2019-12-17T08:51:57.000Z</time>
      </trkpt>
      <trkpt lat="43.35513" lon="5.99097">
        <ele>565</ele>
        <time>2019-12-17T08:51:58.000Z</time>
      </trkpt>
      <trkpt lat="43.35512" lon="5.99099">
        <ele>565</ele>
        <time>2019-12-17T08:51:59.000Z</time>
      </trkpt>
      <trkpt lat="43.35512" lon="5.991">
        <ele>565</ele>
        <time>2019-12-17T08:52:00.000Z</time>
      </trkpt>
      <trkpt lat="43.35512" lon="5.99102">
        <ele>566</ele>
        <time>2019-12-17T08:52:01.000Z</time>
      </trkpt>
      <trkpt lat="43.35513" lon="5.99104">
        <ele>566</ele>
        <time>2019-12-17T08:52:02.000Z</time>
      </trkpt>
      <trkpt lat="43.35513" lon="5.99105">
        <ele>566</ele>
        <time>2019-12-17T08:52:03.000Z</time>
      </trkpt>
      <trkpt lat="43.35513" lon="5.99107">
        <ele>566</ele>
        <time>2019-12-17T08:52:04.000Z</time>
      </trkpt>
      <trkpt lat="43.35513" lon="5.99108">
        <ele>566</ele>
        <time>2019-12-17T08:52:05.000Z</time>
      </trkpt>
      <trkpt lat="43.35513" lon="5.9911">
        <ele>566</ele>
        <time>2019-12-17T08:52:06.000Z</time>
      </trkpt>
      <trkpt lat="43.35514" lon="5.99111">
        <ele>566</ele>
        <time>2019-12-17T08:52:07.000Z</time>
      </trkpt>
      <trkpt lat="43.35515" lon="5.99113">
        <ele>566</ele>
        <time>2019-12-17T08:52:08.000Z</time>
      </trkpt>
      <trkpt lat="43.35515" lon="5.99114">
        <ele>566</ele>
        <time>2019-12-17T08:52:09.000Z</time>
      </trkpt>
      <trkpt lat="43.35516" lon="5.99115">
        <ele>566</ele>
        <time>2019-12-17T08:52:10.000Z</time>
      </trkpt>
      <trkpt lat="43.35516" lon="5.99116">
        <ele>566</ele>
        <time>2019-12-17T08:52:11.000Z</time>
      </trkpt>
      <trkpt lat="43.35517" lon="5.99117">
        <ele>566</ele>
        <time>2019-12-17T08:52:12.000Z</time>
      </trkpt>
      <trkpt lat="43.35518" lon="5.99118">
        <ele>566</ele>
        <time>2019-12-17T08:52:13.000Z</time>
      </trkpt>
      <trkpt lat="43.35519" lon="5.99119">
        <ele>567</ele>
        <time>2019-12-17T08:52:14.000Z</time>
      </trkpt>
      <trkpt lat="43.3552" lon="5.9912">
        <ele>567</ele>
        <time>2019-12-17T08:52:15.000Z</time>
      </trkpt>
      <trkpt lat="43.3552" lon="5.99121">
        <ele>567</ele>
        <time>2019-12-17T08:52:16.000Z</time>
      </trkpt>
      <trkpt lat="43.3552" lon="5.99123">
        <ele>567</ele>
        <time>2019-12-17T08:52:17.000Z</time>
      </trkpt>
      <trkpt lat="43.35521" lon="5.99124">
        <ele>567</ele>
        <time>2019-12-17T08:52:18.000Z</time>
      </trkpt>
      <trkpt lat="43.3552" lon="5.99126">
        <ele>567</ele>
        <time>2019-12-17T08:52:19.000Z</time>
      </trkpt>
      <trkpt lat="43.3552" lon="5.99127">
        <ele>567</ele>
        <time>2019-12-17T08:52:20.000Z</time>
      </trkpt>
      <trkpt lat="43.3552" lon="5.99128">
        <ele>567</ele>
        <time>2019-12-17T08:52:21.000Z</time>
      </trkpt>
      <trkpt lat="43.35519" lon="5.9913">
        <ele>567</ele>
        <time>2019-12-17T08:52:22.000Z</time>
      </trkpt>
      <trkpt lat="43.3552" lon="5.99131">
        <ele>567</ele>
        <time>2019-12-17T08:52:23.000Z</time>
      </trkpt>
      <trkpt lat="43.3552" lon="5.99132">
        <ele>567</ele>
        <time>2019-12-17T08:52:24.000Z</time>
      </trkpt>
      <trkpt lat="43.3552" lon="5.99133">
        <ele>567</ele>
        <time>2019-12-17T08:52:25.000Z</time>
      </trkpt>
      <trkpt lat="43.35521" lon="5.99135">
        <ele>567</ele>
        <time>2019-12-17T08:52:26.000Z</time>
      </trkpt>
      <trkpt lat="43.35521" lon="5.99136">
        <ele>567</ele>
        <time>2019-12-17T08:52:27.000Z</time>
      </trkpt>
      <trkpt lat="43.35521" lon="5.99137">
        <ele>567</ele>
        <time>2019-12-17T08:52:28.000Z</time>
      </trkpt>
      <trkpt lat="43.35521" lon="5.99138">
        <ele>567</ele>
        <time>2019-12-17T08:52:29.000Z</time>
      </trkpt>
      <trkpt lat="43.35521" lon="5.99138">
        <ele>567</ele>
        <time>2019-12-17T08:52:30.000Z</time>
      </trkpt>
      <trkpt lat="43.35522" lon="5.99139">
        <ele>567</ele>
        <time>2019-12-17T08:52:31.000Z</time>
      </trkpt>
      <trkpt lat="43.35522" lon="5.99141">
        <ele>567</ele>
        <time>2019-12-17T08:52:32.000Z</time>
      </trkpt>
      <trkpt lat="43.35522" lon="5.99142">
        <ele>567</ele>
        <time>2019-12-17T08:52:33.000Z</time>
      </trkpt>
      <trkpt lat="43.35522" lon="5.99142">
        <ele>567</ele>
        <time>2019-12-17T08:52:34.000Z</time>
      </trkpt>
      <trkpt lat="43.35522" lon="5.99143">
        <ele>567</ele>
        <time>2019-12-17T08:52:35.000Z</time>
      </trkpt>
      <trkpt lat="43.35522" lon="5.99143">
        <ele>567</ele>
        <time>2019-12-17T08:52:36.000Z</time>
      </trkpt>
      <trkpt lat="43.35522" lon="5.99143">
        <ele>567</ele>
        <time>2019-12-17T08:52:37.000Z</time>
      </trkpt>
      <trkpt lat="43.35522" lon="5.99143">
        <ele>567</ele>
        <time>2019-12-17T08:52:38.000Z</time>
      </trkpt>
      <trkpt lat="43.35523" lon="5.99143">
        <ele>567</ele>
        <time>2019-12-17T08:52:39.000Z</time>
      </trkpt>
      <trkpt lat="43.35523" lon="5.99143">
        <ele>567</ele>
        <time>2019-12-17T08:52:40.000Z</time>
      </trkpt>
      <trkpt lat="43.35523" lon="5.99143">
        <ele>567</ele>
        <time>2019-12-17T08:52:41.000Z</time>
      </trkpt>
      <trkpt lat="43.35523" lon="5.99143">
        <ele>567</ele>
        <time>2019-12-17T08:52:42.000Z</time>
      </trkpt>
      <trkpt lat="43.35523" lon="5.99144">
        <ele>567</ele>
        <time>2019-12-17T08:52:43.000Z</time>
      </trkpt>
      <trkpt lat="43.35523" lon="5.99145">
        <ele>567</ele>
        <time>2019-12-17T08:52:44.000Z</time>
      </trkpt>
      <trkpt lat="43.35523" lon="5.99146">
        <ele>567</ele>
        <time>2019-12-17T08:52:45.000Z</time>
      </trkpt>
      <trkpt lat="43.35523" lon="5.99146">
        <ele>567</ele>
        <time>2019-12-17T08:52:46.000Z</time>
      </trkpt>
      <trkpt lat="43.35523" lon="5.99147">
        <ele>568</ele>
        <time>2019-12-17T08:52:47.000Z</time>
      </trkpt>
      <trkpt lat="43.35523" lon="5.99148">
        <ele>568</ele>
        <time>2019-12-17T08:52:48.000Z</time>
      </trkpt>
      <trkpt lat="43.35524" lon="5.99149">
        <ele>568</ele>
        <time>2019-12-17T08:52:49.000Z</time>
      </trkpt>
      <trkpt lat="43.35524" lon="5.99149">
        <ele>568</ele>
        <time>2019-12-17T08:52:50.000Z</time>
      </trkpt>
      <trkpt lat="43.35524" lon="5.9915">
        <ele>568</ele>
        <time>2019-12-17T08:52:51.000Z</time>
      </trkpt>
      <trkpt lat="43.35525" lon="5.99151">
        <ele>568</ele>
        <time>2019-12-17T08:52:52.000Z</time>
      </trkpt>
      <trkpt lat="43.35525" lon="5.99151">
        <ele>568</ele>
        <time>2019-12-17T08:52:53.000Z</time>
      </trkpt>
      <trkpt lat="43.35525" lon="5.99151">
        <ele>568</ele>
        <time>2019-12-17T08:52:54.000Z</time>
      </trkpt>
      <trkpt lat="43.35525" lon="5.99151">
        <ele>568</ele>
        <time>2019-12-17T08:52:55.000Z</time>
      </trkpt>
      <trkpt lat="43.35525" lon="5.99151">
        <ele>568</ele>
        <time>2019-12-17T08:52:56.000Z</time>
      </trkpt>
      <trkpt lat="43.35525" lon="5.99151">
        <ele>568</ele>
        <time>2019-12-17T08:52:57.000Z</time>
      </trkpt>
      <trkpt lat="43.35526" lon="5.99152">
        <ele>568</ele>
        <time>2019-12-17T08:52:58.000Z</time>
      </trkpt>
      <trkpt lat="43.35526" lon="5.99152">
        <ele>568</ele>
        <time>2019-12-17T08:52:59.000Z</time>
      </trkpt>
      <trkpt lat="43.35527" lon="5.99153">
        <ele>568</ele>
        <time>2019-12-17T08:53:00.000Z</time>
      </trkpt>
      <trkpt lat="43.35527" lon="5.99153">
        <ele>568</ele>
        <time>2019-12-17T08:53:01.000Z</time>
      </trkpt>
      <trkpt lat="43.35528" lon="5.99154">
        <ele>568</ele>
        <time>2019-12-17T08:53:02.000Z</time>
      </trkpt>
      <trkpt lat="43.35529" lon="5.99155">
        <ele>568</ele>
        <time>2019-12-17T08:53:03.000Z</time>
      </trkpt>
      <trkpt lat="43.3553" lon="5.99155">
        <ele>568</ele>
        <time>2019-12-17T08:53:04.000Z</time>
      </trkpt>
      <trkpt lat="43.35531" lon="5.99155">
        <ele>568</ele>
        <time>2019-12-17T08:53:05.000Z</time>
      </trkpt>
      <trkpt lat="43.35532" lon="5.99155">
        <ele>568</ele>
        <time>2019-12-17T08:53:06.000Z</time>
      </trkpt>
      <trkpt lat="43.35533" lon="5.99155">
        <ele>568</ele>
        <time>2019-12-17T08:53:07.000Z</time>
      </trkpt>
      <trkpt lat="43.35535" lon="5.99155">
        <ele>568</ele>
        <time>2019-12-17T08:53:08.000Z</time>
      </trkpt>
      <trkpt lat="43.35536" lon="5.99155">
        <ele>568</ele>
        <time>2019-12-17T08:53:09.000Z</time>
      </trkpt>
      <trkpt lat="43.35537" lon="5.99155">
        <ele>568</ele>
        <time>2019-12-17T08:53:10.000Z</time>
      </trkpt>
      <trkpt lat="43.35538" lon="5.99156">
        <ele>568</ele>
        <time>2019-12-17T08:53:11.000Z</time>
      </trkpt>
      <trkpt lat="43.35539" lon="5.99157">
        <ele>568</ele>
        <time>2019-12-17T08:53:12.000Z</time>
      </trkpt>
      <trkpt lat="43.35539" lon="5.99157">
        <ele>568</ele>
        <time>2019-12-17T08:53:13.000Z</time>
      </trkpt>
      <trkpt lat="43.35539" lon="5.99158">
        <ele>568</ele>
        <time>2019-12-17T08:53:14.000Z</time>
      </trkpt>
      <trkpt lat="43.3554" lon="5.99159">
        <ele>568</ele>
        <time>2019-12-17T08:53:15.000Z</time>
      </trkpt>
      <trkpt lat="43.3554" lon="5.9916">
        <ele>568</ele>
        <time>2019-12-17T08:53:16.000Z</time>
      </trkpt>
      <trkpt lat="43.35541" lon="5.9916">
        <ele>568</ele>
        <time>2019-12-17T08:53:17.000Z</time>
      </trkpt>
      <trkpt lat="43.35542" lon="5.99161">
        <ele>568</ele>
        <time>2019-12-17T08:53:18.000Z</time>
      </trkpt>
      <trkpt lat="43.35542" lon="5.99161">
        <ele>568</ele>
        <time>2019-12-17T08:53:19.000Z</time>
      </trkpt>
      <trkpt lat="43.35543" lon="5.99162">
        <ele>568</ele>
        <time>2019-12-17T08:53:20.000Z</time>
      </trkpt>
      <trkpt lat="43.35543" lon="5.99162">
        <ele>568</ele>
        <time>2019-12-17T08:53:21.000Z</time>
      </trkpt>
      <trkpt lat="43.35543" lon="5.99162">
        <ele>568</ele>
        <time>2019-12-17T08:53:22.000Z</time>
      </trkpt>
      <trkpt lat="43.35543" lon="5.99162">
        <ele>568</ele>
        <time>2019-12-17T08:53:23.000Z</time>
      </trkpt>
      <trkpt lat="43.35543" lon="5.99162">
        <ele>568</ele>
        <time>2019-12-17T08:53:24.000Z</time>
      </trkpt>
      <trkpt lat="43.35544" lon="5.99162">
        <ele>568</ele>
        <time>2019-12-17T08:53:25.000Z</time>
      </trkpt>
      <trkpt lat="43.35544" lon="5.99163">
        <ele>568</ele>
        <time>2019-12-17T08:53:26.000Z</time>
      </trkpt>
      <trkpt lat="43.35545" lon="5.99163">
        <ele>568</ele>
        <time>2019-12-17T08:53:27.000Z</time>
      </trkpt>
      <trkpt lat="43.35546" lon="5.99164">
        <ele>568</ele>
        <time>2019-12-17T08:53:28.000Z</time>
      </trkpt>
      <trkpt lat="43.35547" lon="5.99164">
        <ele>568</ele>
        <time>2019-12-17T08:53:29.000Z</time>
      </trkpt>
      <trkpt lat="43.35548" lon="5.99164">
        <ele>568</ele>
        <time>2019-12-17T08:53:30.000Z</time>
      </trkpt>
      <trkpt lat="43.35549" lon="5.99165">
        <ele>568</ele>
        <time>2019-12-17T08:53:31.000Z</time>
      </trkpt>
      <trkpt lat="43.3555" lon="5.99166">
        <ele>568</ele>
        <time>2019-12-17T08:53:32.000Z</time>
      </trkpt>
      <trkpt lat="43.3555" lon="5.99167">
        <ele>568</ele>
        <time>2019-12-17T08:53:33.000Z</time>
      </trkpt>
      <trkpt lat="43.35551" lon="5.99168">
        <ele>568</ele>
        <time>2019-12-17T08:53:34.000Z</time>
      </trkpt>
      <trkpt lat="43.35552" lon="5.99168">
        <ele>568</ele>
        <time>2019-12-17T08:53:35.000Z</time>
      </trkpt>
      <trkpt lat="43.35553" lon="5.99169">
        <ele>569</ele>
        <time>2019-12-17T08:53:36.000Z</time>
      </trkpt>
      <trkpt lat="43.35553" lon="5.99169">
        <ele>569</ele>
        <time>2019-12-17T08:53:37.000Z</time>
      </trkpt>
      <trkpt lat="43.35554" lon="5.9917">
        <ele>569</ele>
        <time>2019-12-17T08:53:38.000Z</time>
      </trkpt>
      <trkpt lat="43.35555" lon="5.99171">
        <ele>569</ele>
        <time>2019-12-17T08:53:39.000Z</time>
      </trkpt>
      <trkpt lat="43.35555" lon="5.99171">
        <ele>569</ele>
        <time>2019-12-17T08:53:40.000Z</time>
      </trkpt>
      <trkpt lat="43.35556" lon="5.99171">
        <ele>569</ele>
        <time>2019-12-17T08:53:41.000Z</time>
      </trkpt>
      <trkpt lat="43.35557" lon="5.9917">
        <ele>569</ele>
        <time>2019-12-17T08:53:42.000Z</time>
      </trkpt>
      <trkpt lat="43.35558" lon="5.99169">
        <ele>569</ele>
        <time>2019-12-17T08:53:43.000Z</time>
      </trkpt>
      <trkpt lat="43.35559" lon="5.99169">
        <ele>569</ele>
        <time>2019-12-17T08:53:44.000Z</time>
      </trkpt>
      <trkpt lat="43.3556" lon="5.99169">
        <ele>569</ele>
        <time>2019-12-17T08:53:45.000Z</time>
      </trkpt>
      <trkpt lat="43.35561" lon="5.99169">
        <ele>569</ele>
        <time>2019-12-17T08:53:46.000Z</time>
      </trkpt>
      <trkpt lat="43.35562" lon="5.9917">
        <ele>569</ele>
        <time>2019-12-17T08:53:47.000Z</time>
      </trkpt>
      <trkpt lat="43.35563" lon="5.9917">
        <ele>570</ele>
        <time>2019-12-17T08:53:48.000Z</time>
      </trkpt>
      <trkpt lat="43.35564" lon="5.99171">
        <ele>570</ele>
        <time>2019-12-17T08:53:49.000Z</time>
      </trkpt>
      <trkpt lat="43.35564" lon="5.99172">
        <ele>570</ele>
        <time>2019-12-17T08:53:50.000Z</time>
      </trkpt>
      <trkpt lat="43.35565" lon="5.99173">
        <ele>570</ele>
        <time>2019-12-17T08:53:51.000Z</time>
      </trkpt>
      <trkpt lat="43.35565" lon="5.99174">
        <ele>570</ele>
        <time>2019-12-17T08:53:52.000Z</time>
      </trkpt>
      <trkpt lat="43.35566" lon="5.99175">
        <ele>570</ele>
        <time>2019-12-17T08:53:53.000Z</time>
      </trkpt>
      <trkpt lat="43.35566" lon="5.99176">
        <ele>571</ele>
        <time>2019-12-17T08:53:54.000Z</time>
      </trkpt>
      <trkpt lat="43.35566" lon="5.99177">
        <ele>571</ele>
        <time>2019-12-17T08:53:55.000Z</time>
      </trkpt>
      <trkpt lat="43.35566" lon="5.99178">
        <ele>571</ele>
        <time>2019-12-17T08:53:56.000Z</time>
      </trkpt>
      <trkpt lat="43.35567" lon="5.99179">
        <ele>571</ele>
        <time>2019-12-17T08:53:57.000Z</time>
      </trkpt>
      <trkpt lat="43.35567" lon="5.9918">
        <ele>571</ele>
        <time>2019-12-17T08:53:58.000Z</time>
      </trkpt>
      <trkpt lat="43.35567" lon="5.9918">
        <ele>571</ele>
        <time>2019-12-17T08:53:59.000Z</time>
      </trkpt>
      <trkpt lat="43.35567" lon="5.9918">
        <ele>571</ele>
        <time>2019-12-17T08:54:00.000Z</time>
      </trkpt>
      <trkpt lat="43.35567" lon="5.99181">
        <ele>571</ele>
        <time>2019-12-17T08:54:01.000Z</time>
      </trkpt>
      <trkpt lat="43.35567" lon="5.99181">
        <ele>571</ele>
        <time>2019-12-17T08:54:02.000Z</time>
      </trkpt>
      <trkpt lat="43.35568" lon="5.99181">
        <ele>572</ele>
        <time>2019-12-17T08:54:03.000Z</time>
      </trkpt>
      <trkpt lat="43.35568" lon="5.99181">
        <ele>572</ele>
        <time>2019-12-17T08:54:04.000Z</time>
      </trkpt>
      <trkpt lat="43.35568" lon="5.99182">
        <ele>572</ele>
        <time>2019-12-17T08:54:05.000Z</time>
      </trkpt>
      <trkpt lat="43.35568" lon="5.99182">
        <ele>572</ele>
        <time>2019-12-17T08:54:06.000Z</time>
      </trkpt>
      <trkpt lat="43.35568" lon="5.99183">
        <ele>572</ele>
        <time>2019-12-17T08:54:07.000Z</time>
      </trkpt>
      <trkpt lat="43.35568" lon="5.99183">
        <ele>572</ele>
        <time>2019-12-17T08:54:08.000Z</time>
      </trkpt>
      <trkpt lat="43.35568" lon="5.99184">
        <ele>572</ele>
        <time>2019-12-17T08:54:09.000Z</time>
      </trkpt>
      <trkpt lat="43.35569" lon="5.99184">
        <ele>572</ele>
        <time>2019-12-17T08:54:10.000Z</time>
      </trkpt>
      <trkpt lat="43.35569" lon="5.99184">
        <ele>572</ele>
        <time>2019-12-17T08:54:11.000Z</time>
      </trkpt>
      <trkpt lat="43.35569" lon="5.99185">
        <ele>572</ele>
        <time>2019-12-17T08:54:12.000Z</time>
      </trkpt>
      <trkpt lat="43.3557" lon="5.99186">
        <ele>572</ele>
        <time>2019-12-17T08:54:13.000Z</time>
      </trkpt>
      <trkpt lat="43.3557" lon="5.99188">
        <ele>572</ele>
        <time>2019-12-17T08:54:14.000Z</time>
      </trkpt>
      <trkpt lat="43.3557" lon="5.99189">
        <ele>572</ele>
        <time>2019-12-17T08:54:15.000Z</time>
      </trkpt>
      <trkpt lat="43.3557" lon="5.9919">
        <ele>572</ele>
        <time>2019-12-17T08:54:16.000Z</time>
      </trkpt>
      <trkpt lat="43.35571" lon="5.99191">
        <ele>572</ele>
        <time>2019-12-17T08:54:17.000Z</time>
      </trkpt>
      <trkpt lat="43.35571" lon="5.99192">
        <ele>572</ele>
        <time>2019-12-17T08:54:18.000Z</time>
      </trkpt>
      <trkpt lat="43.35571" lon="5.99193">
        <ele>573</ele>
        <time>2019-12-17T08:54:19.000Z</time>
      </trkpt>
      <trkpt lat="43.35572" lon="5.99195">
        <ele>573</ele>
        <time>2019-12-17T08:54:20.000Z</time>
      </trkpt>
      <trkpt lat="43.35572" lon="5.99197">
        <ele>573</ele>
        <time>2019-12-17T08:54:21.000Z</time>
      </trkpt>
      <trkpt lat="43.35573" lon="5.99198">
        <ele>573</ele>
        <time>2019-12-17T08:54:22.000Z</time>
      </trkpt>
      <trkpt lat="43.35573" lon="5.99199">
        <ele>573</ele>
        <time>2019-12-17T08:54:23.000Z</time>
      </trkpt>
      <trkpt lat="43.35574" lon="5.99201">
        <ele>573</ele>
        <time>2019-12-17T08:54:24.000Z</time>
      </trkpt>
      <trkpt lat="43.35575" lon="5.99202">
        <ele>573</ele>
        <time>2019-12-17T08:54:25.000Z</time>
      </trkpt>
      <trkpt lat="43.35575" lon="5.99203">
        <ele>573</ele>
        <time>2019-12-17T08:54:26.000Z</time>
      </trkpt>
      <trkpt lat="43.35575" lon="5.99205">
        <ele>573</ele>
        <time>2019-12-17T08:54:27.000Z</time>
      </trkpt>
      <trkpt lat="43.35575" lon="5.99206">
        <ele>573</ele>
        <time>2019-12-17T08:54:28.000Z</time>
      </trkpt>
      <trkpt lat="43.35575" lon="5.99207">
        <ele>574</ele>
        <time>2019-12-17T08:54:29.000Z</time>
      </trkpt>
      <trkpt lat="43.35576" lon="5.99207">
        <ele>574</ele>
        <time>2019-12-17T08:54:30.000Z</time>
      </trkpt>
      <trkpt lat="43.35576" lon="5.99207">
        <ele>574</ele>
        <time>2019-12-17T08:54:31.000Z</time>
      </trkpt>
      <trkpt lat="43.35576" lon="5.99207">
        <ele>574</ele>
        <time>2019-12-17T08:54:32.000Z</time>
      </trkpt>
      <trkpt lat="43.35576" lon="5.99207">
        <ele>574</ele>
        <time>2019-12-17T08:54:33.000Z</time>
      </trkpt>
      <trkpt lat="43.35576" lon="5.99208">
        <ele>574</ele>
        <time>2019-12-17T08:54:34.000Z</time>
      </trkpt>
      <trkpt lat="43.35576" lon="5.99208">
        <ele>574</ele>
        <time>2019-12-17T08:54:35.000Z</time>
      </trkpt>
      <trkpt lat="43.35576" lon="5.99208">
        <ele>574</ele>
        <time>2019-12-17T08:54:36.000Z</time>
      </trkpt>
      <trkpt lat="43.35576" lon="5.99208">
        <ele>574</ele>
        <time>2019-12-17T08:54:37.000Z</time>
      </trkpt>
      <trkpt lat="43.35576" lon="5.99208">
        <ele>574</ele>
        <time>2019-12-17T08:54:38.000Z</time>
      </trkpt>
      <trkpt lat="43.35576" lon="5.99208">
        <ele>574</ele>
        <time>2019-12-17T08:54:39.000Z</time>
      </trkpt>
      <trkpt lat="43.35576" lon="5.99208">
        <ele>574</ele>
        <time>2019-12-17T08:54:40.000Z</time>
      </trkpt>
      <trkpt lat="43.35575" lon="5.99209">
        <ele>574</ele>
        <time>2019-12-17T08:54:41.000Z</time>
      </trkpt>
      <trkpt lat="43.35575" lon="5.99209">
        <ele>574</ele>
        <time>2019-12-17T08:54:42.000Z</time>
      </trkpt>
      <trkpt lat="43.35575" lon="5.99209">
        <ele>574</ele>
        <time>2019-12-17T08:54:43.000Z</time>
      </trkpt>
      <trkpt lat="43.35575" lon="5.99209">
        <ele>574</ele>
        <time>2019-12-17T08:54:44.000Z</time>
      </trkpt>
      <trkpt lat="43.35575" lon="5.99209">
        <ele>574</ele>
        <time>2019-12-17T08:54:45.000Z</time>
      </trkpt>
      <trkpt lat="43.35575" lon="5.99209">
        <ele>574</ele>
        <time>2019-12-17T08:54:46.000Z</time>
      </trkpt>
      <trkpt lat="43.35575" lon="5.99209">
        <ele>574</ele>
        <time>2019-12-17T08:54:47.000Z</time>
      </trkpt>
      <trkpt lat="43.35575" lon="5.99209">
        <ele>574</ele>
        <time>2019-12-17T08:54:48.000Z</time>
      </trkpt>
      <trkpt lat="43.35575" lon="5.99209">
        <ele>574</ele>
        <time>2019-12-17T08:54:49.000Z</time>
      </trkpt>
      <trkpt lat="43.35575" lon="5.99209">
        <ele>574</ele>
        <time>2019-12-17T08:54:50.000Z</time>
      </trkpt>
      <trkpt lat="43.35575" lon="5.99209">
        <ele>574</ele>
        <time>2019-12-17T08:54:51.000Z</time>
      </trkpt>
      <trkpt lat="43.35575" lon="5.99209">
        <ele>574</ele>
        <time>2019-12-17T08:54:52.000Z</time>
      </trkpt>
      <trkpt lat="43.35576" lon="5.99209">
        <ele>574</ele>
        <time>2019-12-17T08:54:53.000Z</time>
      </trkpt>
      <trkpt lat="43.35576" lon="5.9921">
        <ele>574</ele>
        <time>2019-12-17T08:54:54.000Z</time>
      </trkpt>
      <trkpt lat="43.35576" lon="5.9921">
        <ele>574</ele>
        <time>2019-12-17T08:54:55.000Z</time>
      </trkpt>
      <trkpt lat="43.35576" lon="5.9921">
        <ele>574</ele>
        <time>2019-12-17T08:54:56.000Z</time>
      </trkpt>
      <trkpt lat="43.35576" lon="5.9921">
        <ele>574</ele>
        <time>2019-12-17T08:54:57.000Z</time>
      </trkpt>
      <trkpt lat="43.35576" lon="5.9921">
        <ele>574</ele>
        <time>2019-12-17T08:54:58.000Z</time>
      </trkpt>
      <trkpt lat="43.35576" lon="5.9921">
        <ele>574</ele>
        <time>2019-12-17T08:54:59.000Z</time>
      </trkpt>
      <trkpt lat="43.35576" lon="5.99209">
        <ele>574</ele>
        <time>2019-12-17T08:55:00.000Z</time>
      </trkpt>
      <trkpt lat="43.35577" lon="5.9921">
        <ele>574</ele>
        <time>2019-12-17T08:55:01.000Z</time>
      </trkpt>
      <trkpt lat="43.35577" lon="5.9921">
        <ele>574</ele>
        <time>2019-12-17T08:55:02.000Z</time>
      </trkpt>
      <trkpt lat="43.35578" lon="5.9921">
        <ele>574</ele>
        <time>2019-12-17T08:55:03.000Z</time>
      </trkpt>
      <trkpt lat="43.35578" lon="5.9921">
        <ele>574</ele>
        <time>2019-12-17T08:55:04.000Z</time>
      </trkpt>
      <trkpt lat="43.35578" lon="5.99209">
        <ele>574</ele>
        <time>2019-12-17T08:55:05.000Z</time>
      </trkpt>
      <trkpt lat="43.35579" lon="5.99209">
        <ele>574</ele>
        <time>2019-12-17T08:55:06.000Z</time>
      </trkpt>
      <trkpt lat="43.35579" lon="5.99209">
        <ele>574</ele>
        <time>2019-12-17T08:55:07.000Z</time>
      </trkpt>
      <trkpt lat="43.3558" lon="5.99209">
        <ele>574</ele>
        <time>2019-12-17T08:55:08.000Z</time>
      </trkpt>
      <trkpt lat="43.35581" lon="5.99209">
        <ele>574</ele>
        <time>2019-12-17T08:55:09.000Z</time>
      </trkpt>
      <trkpt lat="43.35581" lon="5.9921">
        <ele>574</ele>
        <time>2019-12-17T08:55:10.000Z</time>
      </trkpt>
      <trkpt lat="43.35582" lon="5.9921">
        <ele>574</ele>
        <time>2019-12-17T08:55:11.000Z</time>
      </trkpt>
      <trkpt lat="43.35583" lon="5.99211">
        <ele>574</ele>
        <time>2019-12-17T08:55:12.000Z</time>
      </trkpt>
      <trkpt lat="43.35583" lon="5.99212">
        <ele>574</ele>
        <time>2019-12-17T08:55:13.000Z</time>
      </trkpt>
      <trkpt lat="43.35583" lon="5.99213">
        <ele>574</ele>
        <time>2019-12-17T08:55:14.000Z</time>
      </trkpt>
      <trkpt lat="43.35584" lon="5.99213">
        <ele>574</ele>
        <time>2019-12-17T08:55:15.000Z</time>
      </trkpt>
      <trkpt lat="43.35584" lon="5.99213">
        <ele>574</ele>
        <time>2019-12-17T08:55:16.000Z</time>
      </trkpt>
      <trkpt lat="43.35584" lon="5.99213">
        <ele>574</ele>
        <time>2019-12-17T08:55:17.000Z</time>
      </trkpt>
      <trkpt lat="43.35584" lon="5.99213">
        <ele>574</ele>
        <time>2019-12-17T08:55:18.000Z</time>
      </trkpt>
      <trkpt lat="43.35584" lon="5.99214">
        <ele>574</ele>
        <time>2019-12-17T08:55:19.000Z</time>
      </trkpt>
      <trkpt lat="43.35585" lon="5.99214">
        <ele>574</ele>
        <time>2019-12-17T08:55:20.000Z</time>
      </trkpt>
      <trkpt lat="43.35585" lon="5.99215">
        <ele>574</ele>
        <time>2019-12-17T08:55:21.000Z</time>
      </trkpt>
      <trkpt lat="43.35586" lon="5.99216">
        <ele>573</ele>
        <time>2019-12-17T08:55:22.000Z</time>
      </trkpt>
      <trkpt lat="43.35586" lon="5.99216">
        <ele>573</ele>
        <time>2019-12-17T08:55:23.000Z</time>
      </trkpt>
      <trkpt lat="43.35586" lon="5.99216">
        <ele>573</ele>
        <time>2019-12-17T08:55:24.000Z</time>
      </trkpt>
      <trkpt lat="43.35587" lon="5.99216">
        <ele>573</ele>
        <time>2019-12-17T08:55:25.000Z</time>
      </trkpt>
      <trkpt lat="43.35587" lon="5.99217">
        <ele>573</ele>
        <time>2019-12-17T08:55:26.000Z</time>
      </trkpt>
      <trkpt lat="43.35587" lon="5.99217">
        <ele>573</ele>
        <time>2019-12-17T08:55:27.000Z</time>
      </trkpt>
      <trkpt lat="43.35587" lon="5.99217">
        <ele>573</ele>
        <time>2019-12-17T08:55:28.000Z</time>
      </trkpt>
      <trkpt lat="43.35587" lon="5.99217">
        <ele>573</ele>
        <time>2019-12-17T08:55:29.000Z</time>
      </trkpt>
      <trkpt lat="43.35587" lon="5.99217">
        <ele>573</ele>
        <time>2019-12-17T08:55:30.000Z</time>
      </trkpt>
      <trkpt lat="43.35587" lon="5.99217">
        <ele>573</ele>
        <time>2019-12-17T08:55:31.000Z</time>
      </trkpt>
      <trkpt lat="43.35587" lon="5.99217">
        <ele>573</ele>
        <time>2019-12-17T08:55:32.000Z</time>
      </trkpt>
      <trkpt lat="43.35587" lon="5.99216">
        <ele>573</ele>
        <time>2019-12-17T08:55:33.000Z</time>
      </trkpt>
      <trkpt lat="43.35588" lon="5.99216">
        <ele>573</ele>
        <time>2019-12-17T08:55:34.000Z</time>
      </trkpt>
      <trkpt lat="43.35588" lon="5.99216">
        <ele>573</ele>
        <time>2019-12-17T08:55:35.000Z</time>
      </trkpt>
      <trkpt lat="43.35589" lon="5.99216">
        <ele>573</ele>
        <time>2019-12-17T08:55:36.000Z</time>
      </trkpt>
      <trkpt lat="43.3559" lon="5.99216">
        <ele>573</ele>
        <time>2019-12-17T08:55:37.000Z</time>
      </trkpt>
      <trkpt lat="43.35591" lon="5.99216">
        <ele>573</ele>
        <time>2019-12-17T08:55:38.000Z</time>
      </trkpt>
      <trkpt lat="43.35592" lon="5.99216">
        <ele>573</ele>
        <time>2019-12-17T08:55:39.000Z</time>
      </trkpt>
      <trkpt lat="43.35593" lon="5.99216">
        <ele>573</ele>
        <time>2019-12-17T08:55:40.000Z</time>
      </trkpt>
      <trkpt lat="43.35594" lon="5.99216">
        <ele>573</ele>
        <time>2019-12-17T08:55:41.000Z</time>
      </trkpt>
      <trkpt lat="43.35595" lon="5.99216">
        <ele>573</ele>
        <time>2019-12-17T08:55:42.000Z</time>
      </trkpt>
      <trkpt lat="43.35596" lon="5.99216">
        <ele>573</ele>
        <time>2019-12-17T08:55:43.000Z</time>
      </trkpt>
      <trkpt lat="43.35597" lon="5.99217">
        <ele>573</ele>
        <time>2019-12-17T08:55:44.000Z</time>
      </trkpt>
      <trkpt lat="43.35597" lon="5.99217">
        <ele>573</ele>
        <time>2019-12-17T08:55:45.000Z</time>
      </trkpt>
      <trkpt lat="43.35598" lon="5.99217">
        <ele>573</ele>
        <time>2019-12-17T08:55:46.000Z</time>
      </trkpt>
      <trkpt lat="43.35599" lon="5.99217">
        <ele>573</ele>
        <time>2019-12-17T08:55:47.000Z</time>
      </trkpt>
      <trkpt lat="43.35601" lon="5.99217">
        <ele>573</ele>
        <time>2019-12-17T08:55:48.000Z</time>
      </trkpt>
      <trkpt lat="43.35602" lon="5.99217">
        <ele>573</ele>
        <time>2019-12-17T08:55:49.000Z</time>
      </trkpt>
      <trkpt lat="43.35602" lon="5.99217">
        <ele>573</ele>
        <time>2019-12-17T08:55:50.000Z</time>
      </trkpt>
      <trkpt lat="43.35603" lon="5.99218">
        <ele>573</ele>
        <time>2019-12-17T08:55:51.000Z</time>
      </trkpt>
      <trkpt lat="43.35604" lon="5.99218">
        <ele>572</ele>
        <time>2019-12-17T08:55:52.000Z</time>
      </trkpt>
      <trkpt lat="43.35605" lon="5.99218">
        <ele>572</ele>
        <time>2019-12-17T08:55:53.000Z</time>
      </trkpt>
      <trkpt lat="43.35606" lon="5.99218">
        <ele>572</ele>
        <time>2019-12-17T08:55:54.000Z</time>
      </trkpt>
      <trkpt lat="43.35607" lon="5.99218">
        <ele>572</ele>
        <time>2019-12-17T08:55:55.000Z</time>
      </trkpt>
      <trkpt lat="43.35608" lon="5.99218">
        <ele>572</ele>
        <time>2019-12-17T08:55:56.000Z</time>
      </trkpt>
      <trkpt lat="43.35609" lon="5.99219">
        <ele>572</ele>
        <time>2019-12-17T08:55:57.000Z</time>
      </trkpt>
      <trkpt lat="43.3561" lon="5.99219">
        <ele>573</ele>
        <time>2019-12-17T08:55:58.000Z</time>
      </trkpt>
      <trkpt lat="43.35611" lon="5.9922">
        <ele>573</ele>
        <time>2019-12-17T08:55:59.000Z</time>
      </trkpt>
      <trkpt lat="43.35612" lon="5.99221">
        <ele>573</ele>
        <time>2019-12-17T08:56:00.000Z</time>
      </trkpt>
      <trkpt lat="43.35613" lon="5.99222">
        <ele>573</ele>
        <time>2019-12-17T08:56:01.000Z</time>
      </trkpt>
      <trkpt lat="43.35613" lon="5.99223">
        <ele>573</ele>
        <time>2019-12-17T08:56:02.000Z</time>
      </trkpt>
      <trkpt lat="43.35614" lon="5.99223">
        <ele>573</ele>
        <time>2019-12-17T08:56:03.000Z</time>
      </trkpt>
      <trkpt lat="43.35615" lon="5.99223">
        <ele>573</ele>
        <time>2019-12-17T08:56:04.000Z</time>
      </trkpt>
      <trkpt lat="43.35616" lon="5.99222">
        <ele>572</ele>
        <time>2019-12-17T08:56:05.000Z</time>
      </trkpt>
      <trkpt lat="43.35617" lon="5.99222">
        <ele>572</ele>
        <time>2019-12-17T08:56:06.000Z</time>
      </trkpt>
      <trkpt lat="43.35618" lon="5.99221">
        <ele>573</ele>
        <time>2019-12-17T08:56:07.000Z</time>
      </trkpt>
      <trkpt lat="43.3562" lon="5.9922">
        <ele>573</ele>
        <time>2019-12-17T08:56:08.000Z</time>
      </trkpt>
      <trkpt lat="43.35621" lon="5.9922">
        <ele>573</ele>
        <time>2019-12-17T08:56:09.000Z</time>
      </trkpt>
      <trkpt lat="43.35622" lon="5.9922">
        <ele>573</ele>
        <time>2019-12-17T08:56:10.000Z</time>
      </trkpt>
      <trkpt lat="43.35623" lon="5.9922">
        <ele>573</ele>
        <time>2019-12-17T08:56:11.000Z</time>
      </trkpt>
      <trkpt lat="43.35623" lon="5.9922">
        <ele>573</ele>
        <time>2019-12-17T08:56:12.000Z</time>
      </trkpt>
      <trkpt lat="43.35624" lon="5.9922">
        <ele>573</ele>
        <time>2019-12-17T08:56:13.000Z</time>
      </trkpt>
      <trkpt lat="43.35624" lon="5.9922">
        <ele>573</ele>
        <time>2019-12-17T08:56:14.000Z</time>
      </trkpt>
      <trkpt lat="43.35625" lon="5.9922">
        <ele>573</ele>
        <time>2019-12-17T08:56:15.000Z</time>
      </trkpt>
      <trkpt lat="43.35625" lon="5.9922">
        <ele>573</ele>
        <time>2019-12-17T08:56:16.000Z</time>
      </trkpt>
      <trkpt lat="43.35625" lon="5.9922">
        <ele>573</ele>
        <time>2019-12-17T08:56:17.000Z</time>
      </trkpt>
      <trkpt lat="43.35625" lon="5.9922">
        <ele>573</ele>
        <time>2019-12-17T08:56:18.000Z</time>
      </trkpt>
      <trkpt lat="43.35625" lon="5.9922">
        <ele>573</ele>
        <time>2019-12-17T08:56:19.000Z</time>
      </trkpt>
      <trkpt lat="43.35625" lon="5.99221">
        <ele>573</ele>
        <time>2019-12-17T08:56:20.000Z</time>
      </trkpt>
      <trkpt lat="43.35626" lon="5.99221">
        <ele>573</ele>
        <time>2019-12-17T08:56:21.000Z</time>
      </trkpt>
      <trkpt lat="43.35626" lon="5.9922">
        <ele>573</ele>
        <time>2019-12-17T08:56:22.000Z</time>
      </trkpt>
      <trkpt lat="43.35626" lon="5.9922">
        <ele>573</ele>
        <time>2019-12-17T08:56:23.000Z</time>
      </trkpt>
      <trkpt lat="43.35626" lon="5.9922">
        <ele>573</ele>
        <time>2019-12-17T08:56:24.000Z</time>
      </trkpt>
      <trkpt lat="43.35626" lon="5.9922">
        <ele>573</ele>
        <time>2019-12-17T08:56:25.000Z</time>
      </trkpt>
      <trkpt lat="43.35626" lon="5.9922">
        <ele>573</ele>
        <time>2019-12-17T08:56:26.000Z</time>
      </trkpt>
      <trkpt lat="43.35626" lon="5.9922">
        <ele>574</ele>
        <time>2019-12-17T08:56:27.000Z</time>
      </trkpt>
      <trkpt lat="43.35626" lon="5.99219">
        <ele>574</ele>
        <time>2019-12-17T08:56:28.000Z</time>
      </trkpt>
      <trkpt lat="43.35627" lon="5.99218">
        <ele>574</ele>
        <time>2019-12-17T08:56:29.000Z</time>
      </trkpt>
      <trkpt lat="43.35627" lon="5.99218">
        <ele>574</ele>
        <time>2019-12-17T08:56:30.000Z</time>
      </trkpt>
      <trkpt lat="43.35628" lon="5.99218">
        <ele>574</ele>
        <time>2019-12-17T08:56:31.000Z</time>
      </trkpt>
      <trkpt lat="43.35628" lon="5.99218">
        <ele>574</ele>
        <time>2019-12-17T08:56:32.000Z</time>
      </trkpt>
      <trkpt lat="43.35629" lon="5.99218">
        <ele>574</ele>
        <time>2019-12-17T08:56:33.000Z</time>
      </trkpt>
      <trkpt lat="43.35629" lon="5.99218">
        <ele>574</ele>
        <time>2019-12-17T08:56:34.000Z</time>
      </trkpt>
      <trkpt lat="43.35629" lon="5.99218">
        <ele>574</ele>
        <time>2019-12-17T08:56:35.000Z</time>
      </trkpt>
      <trkpt lat="43.35629" lon="5.99218">
        <ele>574</ele>
        <time>2019-12-17T08:56:36.000Z</time>
      </trkpt>
      <trkpt lat="43.35629" lon="5.99218">
        <ele>574</ele>
        <time>2019-12-17T08:56:37.000Z</time>
      </trkpt>
      <trkpt lat="43.35629" lon="5.99218">
        <ele>574</ele>
        <time>2019-12-17T08:56:38.000Z</time>
      </trkpt>
      <trkpt lat="43.35629" lon="5.99218">
        <ele>574</ele>
        <time>2019-12-17T08:56:39.000Z</time>
      </trkpt>
      <trkpt lat="43.35629" lon="5.99218">
        <ele>574</ele>
        <time>2019-12-17T08:56:40.000Z</time>
      </trkpt>
      <trkpt lat="43.35629" lon="5.99218">
        <ele>574</ele>
        <time>2019-12-17T08:56:41.000Z</time>
      </trkpt>
      <trkpt lat="43.35629" lon="5.99217">
        <ele>574</ele>
        <time>2019-12-17T08:56:42.000Z</time>
      </trkpt>
      <trkpt lat="43.35629" lon="5.99217">
        <ele>574</ele>
        <time>2019-12-17T08:56:43.000Z</time>
      </trkpt>
      <trkpt lat="43.35629" lon="5.99217">
        <ele>574</ele>
        <time>2019-12-17T08:56:44.000Z</time>
      </trkpt>
      <trkpt lat="43.35629" lon="5.99217">
        <ele>574</ele>
        <time>2019-12-17T08:56:45.000Z</time>
      </trkpt>
      <trkpt lat="43.35629" lon="5.99217">
        <ele>574</ele>
        <time>2019-12-17T08:56:46.000Z</time>
      </trkpt>
      <trkpt lat="43.35629" lon="5.99217">
        <ele>574</ele>
        <time>2019-12-17T08:56:47.000Z</time>
      </trkpt>
      <trkpt lat="43.35629" lon="5.99217">
        <ele>574</ele>
        <time>2019-12-17T08:56:48.000Z</time>
      </trkpt>
      <trkpt lat="43.35629" lon="5.99217">
        <ele>574</ele>
        <time>2019-12-17T08:56:49.000Z</time>
      </trkpt>
      <trkpt lat="43.35629" lon="5.99217">
        <ele>574</ele>
        <time>2019-12-17T08:56:50.000Z</time>
      </trkpt>
      <trkpt lat="43.35629" lon="5.99217">
        <ele>574</ele>
        <time>2019-12-17T08:56:51.000Z</time>
      </trkpt>
      <trkpt lat="43.3563" lon="5.99217">
        <ele>574</ele>
        <time>2019-12-17T08:56:52.000Z</time>
      </trkpt>
      <trkpt lat="43.3563" lon="5.99217">
        <ele>574</ele>
        <time>2019-12-17T08:56:53.000Z</time>
      </trkpt>
      <trkpt lat="43.3563" lon="5.99216">
        <ele>574</ele>
        <time>2019-12-17T08:56:54.000Z</time>
      </trkpt>
      <trkpt lat="43.3563" lon="5.99215">
        <ele>574</ele>
        <time>2019-12-17T08:56:55.000Z</time>
      </trkpt>
      <trkpt lat="43.3563" lon="5.99214">
        <ele>574</ele>
        <time>2019-12-17T08:56:56.000Z</time>
      </trkpt>
      <trkpt lat="43.35631" lon="5.99213">
        <ele>574</ele>
        <time>2019-12-17T08:56:57.000Z</time>
      </trkpt>
      <trkpt lat="43.35631" lon="5.99212">
        <ele>574</ele>
        <time>2019-12-17T08:56:58.000Z</time>
      </trkpt>
      <trkpt lat="43.35631" lon="5.99211">
        <ele>575</ele>
        <time>2019-12-17T08:56:59.000Z</time>
      </trkpt>
      <trkpt lat="43.35632" lon="5.9921">
        <ele>575</ele>
        <time>2019-12-17T08:57:00.000Z</time>
      </trkpt>
      <trkpt lat="43.35632" lon="5.99209">
        <ele>575</ele>
        <time>2019-12-17T08:57:01.000Z</time>
      </trkpt>
      <trkpt lat="43.35633" lon="5.99208">
        <ele>575</ele>
        <time>2019-12-17T08:57:02.000Z</time>
      </trkpt>
      <trkpt lat="43.35633" lon="5.99207">
        <ele>575</ele>
        <time>2019-12-17T08:57:03.000Z</time>
      </trkpt>
      <trkpt lat="43.35633" lon="5.99206">
        <ele>575</ele>
        <time>2019-12-17T08:57:04.000Z</time>
      </trkpt>
      <trkpt lat="43.35633" lon="5.99205">
        <ele>575</ele>
        <time>2019-12-17T08:57:05.000Z</time>
      </trkpt>
      <trkpt lat="43.35633" lon="5.99204">
        <ele>575</ele>
        <time>2019-12-17T08:57:06.000Z</time>
      </trkpt>
      <trkpt lat="43.35633" lon="5.99203">
        <ele>575</ele>
        <time>2019-12-17T08:57:07.000Z</time>
      </trkpt>
      <trkpt lat="43.35632" lon="5.99203">
        <ele>575</ele>
        <time>2019-12-17T08:57:08.000Z</time>
      </trkpt>
      <trkpt lat="43.35632" lon="5.99202">
        <ele>575</ele>
        <time>2019-12-17T08:57:09.000Z</time>
      </trkpt>
      <trkpt lat="43.35631" lon="5.99201">
        <ele>575</ele>
        <time>2019-12-17T08:57:10.000Z</time>
      </trkpt>
      <trkpt lat="43.35631" lon="5.992">
        <ele>575</ele>
        <time>2019-12-17T08:57:11.000Z</time>
      </trkpt>
      <trkpt lat="43.3563" lon="5.99199">
        <ele>575</ele>
        <time>2019-12-17T08:57:12.000Z</time>
      </trkpt>
      <trkpt lat="43.3563" lon="5.99198">
        <ele>575</ele>
        <time>2019-12-17T08:57:13.000Z</time>
      </trkpt>
      <trkpt lat="43.35631" lon="5.99198">
        <ele>575</ele>
        <time>2019-12-17T08:57:14.000Z</time>
      </trkpt>
      <trkpt lat="43.35631" lon="5.99197">
        <ele>575</ele>
        <time>2019-12-17T08:57:15.000Z</time>
      </trkpt>
      <trkpt lat="43.35631" lon="5.99196">
        <ele>575</ele>
        <time>2019-12-17T08:57:16.000Z</time>
      </trkpt>
      <trkpt lat="43.35632" lon="5.99195">
        <ele>575</ele>
        <time>2019-12-17T08:57:17.000Z</time>
      </trkpt>
      <trkpt lat="43.35632" lon="5.99195">
        <ele>575</ele>
        <time>2019-12-17T08:57:18.000Z</time>
      </trkpt>
      <trkpt lat="43.35632" lon="5.99194">
        <ele>575</ele>
        <time>2019-12-17T08:57:19.000Z</time>
      </trkpt>
      <trkpt lat="43.35633" lon="5.99193">
        <ele>575</ele>
        <time>2019-12-17T08:57:20.000Z</time>
      </trkpt>
      <trkpt lat="43.35633" lon="5.99193">
        <ele>575</ele>
        <time>2019-12-17T08:57:21.000Z</time>
      </trkpt>
      <trkpt lat="43.35633" lon="5.99193">
        <ele>575</ele>
        <time>2019-12-17T08:57:22.000Z</time>
      </trkpt>
      <trkpt lat="43.35633" lon="5.99192">
        <ele>575</ele>
        <time>2019-12-17T08:57:23.000Z</time>
      </trkpt>
      <trkpt lat="43.35633" lon="5.99192">
        <ele>575</ele>
        <time>2019-12-17T08:57:24.000Z</time>
      </trkpt>
      <trkpt lat="43.35633" lon="5.99191">
        <ele>575</ele>
        <time>2019-12-17T08:57:25.000Z</time>
      </trkpt>
      <trkpt lat="43.35633" lon="5.99191">
        <ele>576</ele>
        <time>2019-12-17T08:57:26.000Z</time>
      </trkpt>
      <trkpt lat="43.35633" lon="5.99191">
        <ele>576</ele>
        <time>2019-12-17T08:57:27.000Z</time>
      </trkpt>
      <trkpt lat="43.35634" lon="5.9919">
        <ele>576</ele>
        <time>2019-12-17T08:57:28.000Z</time>
      </trkpt>
      <trkpt lat="43.35634" lon="5.9919">
        <ele>576</ele>
        <time>2019-12-17T08:57:29.000Z</time>
      </trkpt>
      <trkpt lat="43.35635" lon="5.9919">
        <ele>576</ele>
        <time>2019-12-17T08:57:30.000Z</time>
      </trkpt>
      <trkpt lat="43.35636" lon="5.99189">
        <ele>576</ele>
        <time>2019-12-17T08:57:31.000Z</time>
      </trkpt>
      <trkpt lat="43.35636" lon="5.99188">
        <ele>576</ele>
        <time>2019-12-17T08:57:32.000Z</time>
      </trkpt>
      <trkpt lat="43.35636" lon="5.99188">
        <ele>577</ele>
        <time>2019-12-17T08:57:33.000Z</time>
      </trkpt>
      <trkpt lat="43.35637" lon="5.99187">
        <ele>577</ele>
        <time>2019-12-17T08:57:34.000Z</time>
      </trkpt>
      <trkpt lat="43.35637" lon="5.99186">
        <ele>577</ele>
        <time>2019-12-17T08:57:35.000Z</time>
      </trkpt>
      <trkpt lat="43.35638" lon="5.99186">
        <ele>577</ele>
        <time>2019-12-17T08:57:36.000Z</time>
      </trkpt>
      <trkpt lat="43.35638" lon="5.99186">
        <ele>577</ele>
        <time>2019-12-17T08:57:37.000Z</time>
      </trkpt>
      <trkpt lat="43.35639" lon="5.99185">
        <ele>577</ele>
        <time>2019-12-17T08:57:38.000Z</time>
      </trkpt>
      <trkpt lat="43.35639" lon="5.99185">
        <ele>577</ele>
        <time>2019-12-17T08:57:39.000Z</time>
      </trkpt>
      <trkpt lat="43.35639" lon="5.99185">
        <ele>577</ele>
        <time>2019-12-17T08:57:40.000Z</time>
      </trkpt>
      <trkpt lat="43.3564" lon="5.99184">
        <ele>577</ele>
        <time>2019-12-17T08:57:41.000Z</time>
      </trkpt>
      <trkpt lat="43.3564" lon="5.99184">
        <ele>577</ele>
        <time>2019-12-17T08:57:42.000Z</time>
      </trkpt>
      <trkpt lat="43.3564" lon="5.99183">
        <ele>578</ele>
        <time>2019-12-17T08:57:43.000Z</time>
      </trkpt>
      <trkpt lat="43.35641" lon="5.99183">
        <ele>578</ele>
        <time>2019-12-17T08:57:44.000Z</time>
      </trkpt>
      <trkpt lat="43.35641" lon="5.99182">
        <ele>578</ele>
        <time>2019-12-17T08:57:45.000Z</time>
      </trkpt>
      <trkpt lat="43.35642" lon="5.99182">
        <ele>578</ele>
        <time>2019-12-17T08:57:46.000Z</time>
      </trkpt>
      <trkpt lat="43.35642" lon="5.99182">
        <ele>578</ele>
        <time>2019-12-17T08:57:47.000Z</time>
      </trkpt>
      <trkpt lat="43.35643" lon="5.99182">
        <ele>578</ele>
        <time>2019-12-17T08:57:48.000Z</time>
      </trkpt>
      <trkpt lat="43.35643" lon="5.99182">
        <ele>578</ele>
        <time>2019-12-17T08:57:49.000Z</time>
      </trkpt>
      <trkpt lat="43.35642" lon="5.99182">
        <ele>578</ele>
        <time>2019-12-17T08:57:50.000Z</time>
      </trkpt>
      <trkpt lat="43.35643" lon="5.99182">
        <ele>578</ele>
        <time>2019-12-17T08:57:51.000Z</time>
      </trkpt>
      <trkpt lat="43.35643" lon="5.99182">
        <ele>578</ele>
        <time>2019-12-17T08:57:52.000Z</time>
      </trkpt>
      <trkpt lat="43.35643" lon="5.99182">
        <ele>578</ele>
        <time>2019-12-17T08:57:53.000Z</time>
      </trkpt>
      <trkpt lat="43.35643" lon="5.99182">
        <ele>578</ele>
        <time>2019-12-17T08:57:54.000Z</time>
      </trkpt>
      <trkpt lat="43.35643" lon="5.99181">
        <ele>578</ele>
        <time>2019-12-17T08:57:55.000Z</time>
      </trkpt>
      <trkpt lat="43.35643" lon="5.99181">
        <ele>578</ele>
        <time>2019-12-17T08:57:56.000Z</time>
      </trkpt>
      <trkpt lat="43.35643" lon="5.99181">
        <ele>579</ele>
        <time>2019-12-17T08:57:57.000Z</time>
      </trkpt>
      <trkpt lat="43.35643" lon="5.99181">
        <ele>579</ele>
        <time>2019-12-17T08:57:58.000Z</time>
      </trkpt>
      <trkpt lat="43.35643" lon="5.99181">
        <ele>579</ele>
        <time>2019-12-17T08:57:59.000Z</time>
      </trkpt>
      <trkpt lat="43.35643" lon="5.99181">
        <ele>579</ele>
        <time>2019-12-17T08:58:00.000Z</time>
      </trkpt>
      <trkpt lat="43.35643" lon="5.99181">
        <ele>579</ele>
        <time>2019-12-17T08:58:01.000Z</time>
      </trkpt>
      <trkpt lat="43.35643" lon="5.99181">
        <ele>579</ele>
        <time>2019-12-17T08:58:02.000Z</time>
      </trkpt>
      <trkpt lat="43.35643" lon="5.99181">
        <ele>579</ele>
        <time>2019-12-17T08:58:03.000Z</time>
      </trkpt>
      <trkpt lat="43.35643" lon="5.99181">
        <ele>579</ele>
        <time>2019-12-17T08:58:04.000Z</time>
      </trkpt>
      <trkpt lat="43.35643" lon="5.99181">
        <ele>579</ele>
        <time>2019-12-17T08:58:05.000Z</time>
      </trkpt>
      <trkpt lat="43.35643" lon="5.99181">
        <ele>579</ele>
        <time>2019-12-17T08:58:06.000Z</time>
      </trkpt>
      <trkpt lat="43.35643" lon="5.99181">
        <ele>579</ele>
        <time>2019-12-17T08:58:07.000Z</time>
      </trkpt>
      <trkpt lat="43.35643" lon="5.99181">
        <ele>579</ele>
        <time>2019-12-17T08:58:08.000Z</time>
      </trkpt>
      <trkpt lat="43.35643" lon="5.99181">
        <ele>579</ele>
        <time>2019-12-17T08:58:09.000Z</time>
      </trkpt>
      <trkpt lat="43.35643" lon="5.99181">
        <ele>579</ele>
        <time>2019-12-17T08:58:10.000Z</time>
      </trkpt>
      <trkpt lat="43.35643" lon="5.9918">
        <ele>579</ele>
        <time>2019-12-17T08:58:11.000Z</time>
      </trkpt>
      <trkpt lat="43.35643" lon="5.9918">
        <ele>579</ele>
        <time>2019-12-17T08:58:12.000Z</time>
      </trkpt>
      <trkpt lat="43.35643" lon="5.9918">
        <ele>579</ele>
        <time>2019-12-17T08:58:13.000Z</time>
      </trkpt>
      <trkpt lat="43.35643" lon="5.9918">
        <ele>579</ele>
        <time>2019-12-17T08:58:14.000Z</time>
      </trkpt>
      <trkpt lat="43.35643" lon="5.9918">
        <ele>579</ele>
        <time>2019-12-17T08:58:15.000Z</time>
      </trkpt>
      <trkpt lat="43.35643" lon="5.9918">
        <ele>579</ele>
        <time>2019-12-17T08:58:16.000Z</time>
      </trkpt>
      <trkpt lat="43.35643" lon="5.9918">
        <ele>579</ele>
        <time>2019-12-17T08:58:17.000Z</time>
      </trkpt>
      <trkpt lat="43.35643" lon="5.9918">
        <ele>579</ele>
        <time>2019-12-17T08:58:18.000Z</time>
      </trkpt>
      <trkpt lat="43.35643" lon="5.99179">
        <ele>579</ele>
        <time>2019-12-17T08:58:19.000Z</time>
      </trkpt>
      <trkpt lat="43.35643" lon="5.99179">
        <ele>580</ele>
        <time>2019-12-17T08:58:20.000Z</time>
      </trkpt>
      <trkpt lat="43.35643" lon="5.99179">
        <ele>580</ele>
        <time>2019-12-17T08:58:21.000Z</time>
      </trkpt>
      <trkpt lat="43.35643" lon="5.99179">
        <ele>580</ele>
        <time>2019-12-17T08:58:22.000Z</time>
      </trkpt>
      <trkpt lat="43.35643" lon="5.99179">
        <ele>580</ele>
        <time>2019-12-17T08:58:23.000Z</time>
      </trkpt>
      <trkpt lat="43.35643" lon="5.99179">
        <ele>580</ele>
        <time>2019-12-17T08:58:24.000Z</time>
      </trkpt>
      <trkpt lat="43.35643" lon="5.99179">
        <ele>580</ele>
        <time>2019-12-17T08:58:25.000Z</time>
      </trkpt>
      <trkpt lat="43.35643" lon="5.99179">
        <ele>580</ele>
        <time>2019-12-17T08:58:26.000Z</time>
      </trkpt>
      <trkpt lat="43.35643" lon="5.99179">
        <ele>580</ele>
        <time>2019-12-17T08:58:27.000Z</time>
      </trkpt>
      <trkpt lat="43.35644" lon="5.99179">
        <ele>580</ele>
        <time>2019-12-17T08:58:28.000Z</time>
      </trkpt>
      <trkpt lat="43.35644" lon="5.99178">
        <ele>580</ele>
        <time>2019-12-17T08:58:29.000Z</time>
      </trkpt>
      <trkpt lat="43.35645" lon="5.99178">
        <ele>580</ele>
        <time>2019-12-17T08:58:30.000Z</time>
      </trkpt>
      <trkpt lat="43.35645" lon="5.99177">
        <ele>581</ele>
        <time>2019-12-17T08:58:31.000Z</time>
      </trkpt>
      <trkpt lat="43.35646" lon="5.99176">
        <ele>581</ele>
        <time>2019-12-17T08:58:32.000Z</time>
      </trkpt>
      <trkpt lat="43.35647" lon="5.99176">
        <ele>581</ele>
        <time>2019-12-17T08:58:33.000Z</time>
      </trkpt>
      <trkpt lat="43.35647" lon="5.99176">
        <ele>581</ele>
        <time>2019-12-17T08:58:34.000Z</time>
      </trkpt>
      <trkpt lat="43.35648" lon="5.99176">
        <ele>581</ele>
        <time>2019-12-17T08:58:35.000Z</time>
      </trkpt>
      <trkpt lat="43.35649" lon="5.99175">
        <ele>581</ele>
        <time>2019-12-17T08:58:36.000Z</time>
      </trkpt>
      <trkpt lat="43.35649" lon="5.99175">
        <ele>581</ele>
        <time>2019-12-17T08:58:37.000Z</time>
      </trkpt>
      <trkpt lat="43.3565" lon="5.99175">
        <ele>581</ele>
        <time>2019-12-17T08:58:38.000Z</time>
      </trkpt>
      <trkpt lat="43.35651" lon="5.99175">
        <ele>581</ele>
        <time>2019-12-17T08:58:39.000Z</time>
      </trkpt>
      <trkpt lat="43.35651" lon="5.99175">
        <ele>581</ele>
        <time>2019-12-17T08:58:40.000Z</time>
      </trkpt>
      <trkpt lat="43.35652" lon="5.99175">
        <ele>581</ele>
        <time>2019-12-17T08:58:41.000Z</time>
      </trkpt>
      <trkpt lat="43.35653" lon="5.99175">
        <ele>581</ele>
        <time>2019-12-17T08:58:42.000Z</time>
      </trkpt>
      <trkpt lat="43.35654" lon="5.99175">
        <ele>582</ele>
        <time>2019-12-17T08:58:43.000Z</time>
      </trkpt>
      <trkpt lat="43.35654" lon="5.99175">
        <ele>582</ele>
        <time>2019-12-17T08:58:44.000Z</time>
      </trkpt>
      <trkpt lat="43.35655" lon="5.99174">
        <ele>582</ele>
        <time>2019-12-17T08:58:45.000Z</time>
      </trkpt>
      <trkpt lat="43.35655" lon="5.99174">
        <ele>582</ele>
        <time>2019-12-17T08:58:46.000Z</time>
      </trkpt>
      <trkpt lat="43.35656" lon="5.99174">
        <ele>582</ele>
        <time>2019-12-17T08:58:47.000Z</time>
      </trkpt>
      <trkpt lat="43.35657" lon="5.99173">
        <ele>582</ele>
        <time>2019-12-17T08:58:48.000Z</time>
      </trkpt>
      <trkpt lat="43.35657" lon="5.99173">
        <ele>582</ele>
        <time>2019-12-17T08:58:49.000Z</time>
      </trkpt>
      <trkpt lat="43.35658" lon="5.99172">
        <ele>583</ele>
        <time>2019-12-17T08:58:50.000Z</time>
      </trkpt>
      <trkpt lat="43.35659" lon="5.99171">
        <ele>583</ele>
        <time>2019-12-17T08:58:51.000Z</time>
      </trkpt>
      <trkpt lat="43.3566" lon="5.99171">
        <ele>583</ele>
        <time>2019-12-17T08:58:52.000Z</time>
      </trkpt>
      <trkpt lat="43.35661" lon="5.9917">
        <ele>583</ele>
        <time>2019-12-17T08:58:53.000Z</time>
      </trkpt>
      <trkpt lat="43.35661" lon="5.9917">
        <ele>583</ele>
        <time>2019-12-17T08:58:54.000Z</time>
      </trkpt>
      <trkpt lat="43.35661" lon="5.9917">
        <ele>583</ele>
        <time>2019-12-17T08:58:55.000Z</time>
      </trkpt>
      <trkpt lat="43.35663" lon="5.99169">
        <ele>584</ele>
        <time>2019-12-17T08:58:56.000Z</time>
      </trkpt>
      <trkpt lat="43.35663" lon="5.99168">
        <ele>584</ele>
        <time>2019-12-17T08:58:57.000Z</time>
      </trkpt>
      <trkpt lat="43.35664" lon="5.99168">
        <ele>584</ele>
        <time>2019-12-17T08:58:58.000Z</time>
      </trkpt>
      <trkpt lat="43.35664" lon="5.99167">
        <ele>584</ele>
        <time>2019-12-17T08:58:59.000Z</time>
      </trkpt>
      <trkpt lat="43.35665" lon="5.99167">
        <ele>584</ele>
        <time>2019-12-17T08:59:00.000Z</time>
      </trkpt>
      <trkpt lat="43.35665" lon="5.99166">
        <ele>584</ele>
        <time>2019-12-17T08:59:01.000Z</time>
      </trkpt>
      <trkpt lat="43.35666" lon="5.99166">
        <ele>585</ele>
        <time>2019-12-17T08:59:02.000Z</time>
      </trkpt>
      <trkpt lat="43.35667" lon="5.99165">
        <ele>585</ele>
        <time>2019-12-17T08:59:03.000Z</time>
      </trkpt>
      <trkpt lat="43.35667" lon="5.99164">
        <ele>585</ele>
        <time>2019-12-17T08:59:04.000Z</time>
      </trkpt>
      <trkpt lat="43.35668" lon="5.99164">
        <ele>585</ele>
        <time>2019-12-17T08:59:05.000Z</time>
      </trkpt>
      <trkpt lat="43.35669" lon="5.99164">
        <ele>585</ele>
        <time>2019-12-17T08:59:06.000Z</time>
      </trkpt>
      <trkpt lat="43.3567" lon="5.99164">
        <ele>586</ele>
        <time>2019-12-17T08:59:07.000Z</time>
      </trkpt>
      <trkpt lat="43.3567" lon="5.99163">
        <ele>586</ele>
        <time>2019-12-17T08:59:08.000Z</time>
      </trkpt>
      <trkpt lat="43.35671" lon="5.99163">
        <ele>586</ele>
        <time>2019-12-17T08:59:09.000Z</time>
      </trkpt>
      <trkpt lat="43.35672" lon="5.99163">
        <ele>586</ele>
        <time>2019-12-17T08:59:10.000Z</time>
      </trkpt>
      <trkpt lat="43.35673" lon="5.99163">
        <ele>586</ele>
        <time>2019-12-17T08:59:11.000Z</time>
      </trkpt>
      <trkpt lat="43.35674" lon="5.99162">
        <ele>586</ele>
        <time>2019-12-17T08:59:12.000Z</time>
      </trkpt>
      <trkpt lat="43.35675" lon="5.99161">
        <ele>586</ele>
        <time>2019-12-17T08:59:13.000Z</time>
      </trkpt>
      <trkpt lat="43.35675" lon="5.99161">
        <ele>587</ele>
        <time>2019-12-17T08:59:14.000Z</time>
      </trkpt>
      <trkpt lat="43.35676" lon="5.9916">
        <ele>587</ele>
        <time>2019-12-17T08:59:15.000Z</time>
      </trkpt>
      <trkpt lat="43.35677" lon="5.9916">
        <ele>587</ele>
        <time>2019-12-17T08:59:16.000Z</time>
      </trkpt>
      <trkpt lat="43.35677" lon="5.9916">
        <ele>587</ele>
        <time>2019-12-17T08:59:17.000Z</time>
      </trkpt>
      <trkpt lat="43.35677" lon="5.99159">
        <ele>587</ele>
        <time>2019-12-17T08:59:18.000Z</time>
      </trkpt>
      <trkpt lat="43.35677" lon="5.99159">
        <ele>588</ele>
        <time>2019-12-17T08:59:19.000Z</time>
      </trkpt>
      <trkpt lat="43.35678" lon="5.99159">
        <ele>588</ele>
        <time>2019-12-17T08:59:20.000Z</time>
      </trkpt>
      <trkpt lat="43.35678" lon="5.99158">
        <ele>588</ele>
        <time>2019-12-17T08:59:21.000Z</time>
      </trkpt>
      <trkpt lat="43.35679" lon="5.99158">
        <ele>588</ele>
        <time>2019-12-17T08:59:22.000Z</time>
      </trkpt>
      <trkpt lat="43.35679" lon="5.99157">
        <ele>588</ele>
        <time>2019-12-17T08:59:23.000Z</time>
      </trkpt>
      <trkpt lat="43.35679" lon="5.99156">
        <ele>588</ele>
        <time>2019-12-17T08:59:24.000Z</time>
      </trkpt>
      <trkpt lat="43.3568" lon="5.99155">
        <ele>588</ele>
        <time>2019-12-17T08:59:25.000Z</time>
      </trkpt>
      <trkpt lat="43.3568" lon="5.99155">
        <ele>588</ele>
        <time>2019-12-17T08:59:26.000Z</time>
      </trkpt>
      <trkpt lat="43.3568" lon="5.99154">
        <ele>589</ele>
        <time>2019-12-17T08:59:27.000Z</time>
      </trkpt>
      <trkpt lat="43.3568" lon="5.99154">
        <ele>589</ele>
        <time>2019-12-17T08:59:28.000Z</time>
      </trkpt>
      <trkpt lat="43.35681" lon="5.99153">
        <ele>589</ele>
        <time>2019-12-17T08:59:29.000Z</time>
      </trkpt>
      <trkpt lat="43.35681" lon="5.99152">
        <ele>589</ele>
        <time>2019-12-17T08:59:30.000Z</time>
      </trkpt>
      <trkpt lat="43.35681" lon="5.99152">
        <ele>589</ele>
        <time>2019-12-17T08:59:31.000Z</time>
      </trkpt>
      <trkpt lat="43.35682" lon="5.99151">
        <ele>589</ele>
        <time>2019-12-17T08:59:32.000Z</time>
      </trkpt>
      <trkpt lat="43.35682" lon="5.99151">
        <ele>589</ele>
        <time>2019-12-17T08:59:33.000Z</time>
      </trkpt>
      <trkpt lat="43.35682" lon="5.99151">
        <ele>589</ele>
        <time>2019-12-17T08:59:34.000Z</time>
      </trkpt>
      <trkpt lat="43.35682" lon="5.99151">
        <ele>589</ele>
        <time>2019-12-17T08:59:35.000Z</time>
      </trkpt>
      <trkpt lat="43.35682" lon="5.9915">
        <ele>589</ele>
        <time>2019-12-17T08:59:36.000Z</time>
      </trkpt>
      <trkpt lat="43.35683" lon="5.9915">
        <ele>589</ele>
        <time>2019-12-17T08:59:37.000Z</time>
      </trkpt>
      <trkpt lat="43.35683" lon="5.99149">
        <ele>590</ele>
        <time>2019-12-17T08:59:38.000Z</time>
      </trkpt>
      <trkpt lat="43.35683" lon="5.99149">
        <ele>590</ele>
        <time>2019-12-17T08:59:39.000Z</time>
      </trkpt>
      <trkpt lat="43.35683" lon="5.99148">
        <ele>590</ele>
        <time>2019-12-17T08:59:40.000Z</time>
      </trkpt>
      <trkpt lat="43.35684" lon="5.99147">
        <ele>590</ele>
        <time>2019-12-17T08:59:41.000Z</time>
      </trkpt>
      <trkpt lat="43.35684" lon="5.99147">
        <ele>590</ele>
        <time>2019-12-17T08:59:42.000Z</time>
      </trkpt>
      <trkpt lat="43.35684" lon="5.99147">
        <ele>590</ele>
        <time>2019-12-17T08:59:43.000Z</time>
      </trkpt>
      <trkpt lat="43.35684" lon="5.99146">
        <ele>590</ele>
        <time>2019-12-17T08:59:44.000Z</time>
      </trkpt>
      <trkpt lat="43.35685" lon="5.99145">
        <ele>590</ele>
        <time>2019-12-17T08:59:45.000Z</time>
      </trkpt>
      <trkpt lat="43.35685" lon="5.99145">
        <ele>591</ele>
        <time>2019-12-17T08:59:46.000Z</time>
      </trkpt>
      <trkpt lat="43.35685" lon="5.99144">
        <ele>591</ele>
        <time>2019-12-17T08:59:47.000Z</time>
      </trkpt>
      <trkpt lat="43.35685" lon="5.99143">
        <ele>591</ele>
        <time>2019-12-17T08:59:48.000Z</time>
      </trkpt>
      <trkpt lat="43.35685" lon="5.99143">
        <ele>591</ele>
        <time>2019-12-17T08:59:49.000Z</time>
      </trkpt>
      <trkpt lat="43.35686" lon="5.99143">
        <ele>591</ele>
        <time>2019-12-17T08:59:50.000Z</time>
      </trkpt>
      <trkpt lat="43.35686" lon="5.99142">
        <ele>591</ele>
        <time>2019-12-17T08:59:51.000Z</time>
      </trkpt>
      <trkpt lat="43.35686" lon="5.99142">
        <ele>591</ele>
        <time>2019-12-17T08:59:52.000Z</time>
      </trkpt>
      <trkpt lat="43.35686" lon="5.99141">
        <ele>592</ele>
        <time>2019-12-17T08:59:53.000Z</time>
      </trkpt>
      <trkpt lat="43.35686" lon="5.99141">
        <ele>592</ele>
        <time>2019-12-17T08:59:54.000Z</time>
      </trkpt>
      <trkpt lat="43.35686" lon="5.9914">
        <ele>592</ele>
        <time>2019-12-17T08:59:55.000Z</time>
      </trkpt>
      <trkpt lat="43.35686" lon="5.99139">
        <ele>592</ele>
        <time>2019-12-17T08:59:56.000Z</time>
      </trkpt>
      <trkpt lat="43.35686" lon="5.99139">
        <ele>593</ele>
        <time>2019-12-17T08:59:57.000Z</time>
      </trkpt>
      <trkpt lat="43.35687" lon="5.99138">
        <ele>593</ele>
        <time>2019-12-17T08:59:58.000Z</time>
      </trkpt>
      <trkpt lat="43.35687" lon="5.99138">
        <ele>593</ele>
        <time>2019-12-17T08:59:59.000Z</time>
      </trkpt>
      <trkpt lat="43.35687" lon="5.99138">
        <ele>593</ele>
        <time>2019-12-17T09:00:00.000Z</time>
      </trkpt>
      <trkpt lat="43.35687" lon="5.99138">
        <ele>593</ele>
        <time>2019-12-17T09:00:01.000Z</time>
      </trkpt>
      <trkpt lat="43.35688" lon="5.99138">
        <ele>593</ele>
        <time>2019-12-17T09:00:02.000Z</time>
      </trkpt>
      <trkpt lat="43.35688" lon="5.99137">
        <ele>593</ele>
        <time>2019-12-17T09:00:03.000Z</time>
      </trkpt>
      <trkpt lat="43.35688" lon="5.99137">
        <ele>593</ele>
        <time>2019-12-17T09:00:04.000Z</time>
      </trkpt>
      <trkpt lat="43.35688" lon="5.99137">
        <ele>593</ele>
        <time>2019-12-17T09:00:05.000Z</time>
      </trkpt>
      <trkpt lat="43.35689" lon="5.99136">
        <ele>594</ele>
        <time>2019-12-17T09:00:06.000Z</time>
      </trkpt>
      <trkpt lat="43.35689" lon="5.99135">
        <ele>594</ele>
        <time>2019-12-17T09:00:07.000Z</time>
      </trkpt>
      <trkpt lat="43.35689" lon="5.99135">
        <ele>594</ele>
        <time>2019-12-17T09:00:08.000Z</time>
      </trkpt>
      <trkpt lat="43.35689" lon="5.99134">
        <ele>594</ele>
        <time>2019-12-17T09:00:09.000Z</time>
      </trkpt>
      <trkpt lat="43.35689" lon="5.99133">
        <ele>595</ele>
        <time>2019-12-17T09:00:10.000Z</time>
      </trkpt>
      <trkpt lat="43.35689" lon="5.99133">
        <ele>595</ele>
        <time>2019-12-17T09:00:11.000Z</time>
      </trkpt>
      <trkpt lat="43.35689" lon="5.99132">
        <ele>595</ele>
        <time>2019-12-17T09:00:12.000Z</time>
      </trkpt>
      <trkpt lat="43.35689" lon="5.99131">
        <ele>595</ele>
        <time>2019-12-17T09:00:13.000Z</time>
      </trkpt>
      <trkpt lat="43.3569" lon="5.99131">
        <ele>595</ele>
        <time>2019-12-17T09:00:14.000Z</time>
      </trkpt>
      <trkpt lat="43.3569" lon="5.99131">
        <ele>596</ele>
        <time>2019-12-17T09:00:15.000Z</time>
      </trkpt>
      <trkpt lat="43.3569" lon="5.9913">
        <ele>596</ele>
        <time>2019-12-17T09:00:16.000Z</time>
      </trkpt>
      <trkpt lat="43.3569" lon="5.9913">
        <ele>596</ele>
        <time>2019-12-17T09:00:17.000Z</time>
      </trkpt>
      <trkpt lat="43.3569" lon="5.99129">
        <ele>596</ele>
        <time>2019-12-17T09:00:18.000Z</time>
      </trkpt>
      <trkpt lat="43.3569" lon="5.99129">
        <ele>596</ele>
        <time>2019-12-17T09:00:19.000Z</time>
      </trkpt>
      <trkpt lat="43.3569" lon="5.99128">
        <ele>596</ele>
        <time>2019-12-17T09:00:20.000Z</time>
      </trkpt>
      <trkpt lat="43.3569" lon="5.99127">
        <ele>597</ele>
        <time>2019-12-17T09:00:21.000Z</time>
      </trkpt>
      <trkpt lat="43.3569" lon="5.99126">
        <ele>597</ele>
        <time>2019-12-17T09:00:22.000Z</time>
      </trkpt>
      <trkpt lat="43.3569" lon="5.99126">
        <ele>597</ele>
        <time>2019-12-17T09:00:23.000Z</time>
      </trkpt>
      <trkpt lat="43.35689" lon="5.99126">
        <ele>597</ele>
        <time>2019-12-17T09:00:24.000Z</time>
      </trkpt>
      <trkpt lat="43.35689" lon="5.99125">
        <ele>597</ele>
        <time>2019-12-17T09:00:25.000Z</time>
      </trkpt>
      <trkpt lat="43.35689" lon="5.99124">
        <ele>598</ele>
        <time>2019-12-17T09:00:26.000Z</time>
      </trkpt>
      <trkpt lat="43.35689" lon="5.99124">
        <ele>598</ele>
        <time>2019-12-17T09:00:27.000Z</time>
      </trkpt>
      <trkpt lat="43.35689" lon="5.99124">
        <ele>598</ele>
        <time>2019-12-17T09:00:28.000Z</time>
      </trkpt>
      <trkpt lat="43.35689" lon="5.99123">
        <ele>598</ele>
        <time>2019-12-17T09:00:29.000Z</time>
      </trkpt>
      <trkpt lat="43.35689" lon="5.99123">
        <ele>599</ele>
        <time>2019-12-17T09:00:30.000Z</time>
      </trkpt>
      <trkpt lat="43.35689" lon="5.99122">
        <ele>599</ele>
        <time>2019-12-17T09:00:31.000Z</time>
      </trkpt>
      <trkpt lat="43.3569" lon="5.99122">
        <ele>599</ele>
        <time>2019-12-17T09:00:32.000Z</time>
      </trkpt>
      <trkpt lat="43.3569" lon="5.99121">
        <ele>599</ele>
        <time>2019-12-17T09:00:33.000Z</time>
      </trkpt>
      <trkpt lat="43.3569" lon="5.99121">
        <ele>599</ele>
        <time>2019-12-17T09:00:34.000Z</time>
      </trkpt>
      <trkpt lat="43.3569" lon="5.9912">
        <ele>600</ele>
        <time>2019-12-17T09:00:35.000Z</time>
      </trkpt>
      <trkpt lat="43.3569" lon="5.9912">
        <ele>600</ele>
        <time>2019-12-17T09:00:36.000Z</time>
      </trkpt>
      <trkpt lat="43.3569" lon="5.99119">
        <ele>600</ele>
        <time>2019-12-17T09:00:37.000Z</time>
      </trkpt>
      <trkpt lat="43.3569" lon="5.99119">
        <ele>600</ele>
        <time>2019-12-17T09:00:38.000Z</time>
      </trkpt>
      <trkpt lat="43.3569" lon="5.99118">
        <ele>600</ele>
        <time>2019-12-17T09:00:39.000Z</time>
      </trkpt>
      <trkpt lat="43.35689" lon="5.99117">
        <ele>601</ele>
        <time>2019-12-17T09:00:40.000Z</time>
      </trkpt>
      <trkpt lat="43.35689" lon="5.99116">
        <ele>601</ele>
        <time>2019-12-17T09:00:41.000Z</time>
      </trkpt>
      <trkpt lat="43.35689" lon="5.99115">
        <ele>601</ele>
        <time>2019-12-17T09:00:42.000Z</time>
      </trkpt>
      <trkpt lat="43.35689" lon="5.99115">
        <ele>601</ele>
        <time>2019-12-17T09:00:43.000Z</time>
      </trkpt>
      <trkpt lat="43.35689" lon="5.99114">
        <ele>601</ele>
        <time>2019-12-17T09:00:44.000Z</time>
      </trkpt>
      <trkpt lat="43.35689" lon="5.99113">
        <ele>601</ele>
        <time>2019-12-17T09:00:45.000Z</time>
      </trkpt>
      <trkpt lat="43.35689" lon="5.99113">
        <ele>601</ele>
        <time>2019-12-17T09:00:46.000Z</time>
      </trkpt>
      <trkpt lat="43.35689" lon="5.99112">
        <ele>601</ele>
        <time>2019-12-17T09:00:47.000Z</time>
      </trkpt>
      <trkpt lat="43.3569" lon="5.99112">
        <ele>601</ele>
        <time>2019-12-17T09:00:48.000Z</time>
      </trkpt>
      <trkpt lat="43.3569" lon="5.99111">
        <ele>601</ele>
        <time>2019-12-17T09:00:49.000Z</time>
      </trkpt>
      <trkpt lat="43.3569" lon="5.99111">
        <ele>601</ele>
        <time>2019-12-17T09:00:50.000Z</time>
      </trkpt>
      <trkpt lat="43.35691" lon="5.9911">
        <ele>601</ele>
        <time>2019-12-17T09:00:51.000Z</time>
      </trkpt>
      <trkpt lat="43.35691" lon="5.9911">
        <ele>601</ele>
        <time>2019-12-17T09:00:52.000Z</time>
      </trkpt>
      <trkpt lat="43.35691" lon="5.9911">
        <ele>601</ele>
        <time>2019-12-17T09:00:53.000Z</time>
      </trkpt>
      <trkpt lat="43.35691" lon="5.99108">
        <ele>601</ele>
        <time>2019-12-17T09:00:54.000Z</time>
      </trkpt>
      <trkpt lat="43.35691" lon="5.99107">
        <ele>601</ele>
        <time>2019-12-17T09:00:55.000Z</time>
      </trkpt>
      <trkpt lat="43.35691" lon="5.99107">
        <ele>601</ele>
        <time>2019-12-17T09:00:56.000Z</time>
      </trkpt>
      <trkpt lat="43.35691" lon="5.99106">
        <ele>602</ele>
        <time>2019-12-17T09:00:57.000Z</time>
      </trkpt>
      <trkpt lat="43.35692" lon="5.99106">
        <ele>602</ele>
        <time>2019-12-17T09:00:58.000Z</time>
      </trkpt>
      <trkpt lat="43.35692" lon="5.99105">
        <ele>602</ele>
        <time>2019-12-17T09:00:59.000Z</time>
      </trkpt>
      <trkpt lat="43.35692" lon="5.99104">
        <ele>602</ele>
        <time>2019-12-17T09:01:00.000Z</time>
      </trkpt>
      <trkpt lat="43.35692" lon="5.99104">
        <ele>602</ele>
        <time>2019-12-17T09:01:01.000Z</time>
      </trkpt>
      <trkpt lat="43.35693" lon="5.99103">
        <ele>602</ele>
        <time>2019-12-17T09:01:02.000Z</time>
      </trkpt>
      <trkpt lat="43.35693" lon="5.99103">
        <ele>602</ele>
        <time>2019-12-17T09:01:03.000Z</time>
      </trkpt>
      <trkpt lat="43.35693" lon="5.99102">
        <ele>602</ele>
        <time>2019-12-17T09:01:04.000Z</time>
      </trkpt>
      <trkpt lat="43.35694" lon="5.99101">
        <ele>602</ele>
        <time>2019-12-17T09:01:05.000Z</time>
      </trkpt>
      <trkpt lat="43.35694" lon="5.991">
        <ele>603</ele>
        <time>2019-12-17T09:01:06.000Z</time>
      </trkpt>
      <trkpt lat="43.35694" lon="5.991">
        <ele>603</ele>
        <time>2019-12-17T09:01:07.000Z</time>
      </trkpt>
      <trkpt lat="43.35694" lon="5.99099">
        <ele>603</ele>
        <time>2019-12-17T09:01:08.000Z</time>
      </trkpt>
      <trkpt lat="43.35694" lon="5.99098">
        <ele>603</ele>
        <time>2019-12-17T09:01:09.000Z</time>
      </trkpt>
      <trkpt lat="43.35694" lon="5.99098">
        <ele>603</ele>
        <time>2019-12-17T09:01:10.000Z</time>
      </trkpt>
      <trkpt lat="43.35694" lon="5.99097">
        <ele>603</ele>
        <time>2019-12-17T09:01:11.000Z</time>
      </trkpt>
      <trkpt lat="43.35695" lon="5.99097">
        <ele>603</ele>
        <time>2019-12-17T09:01:12.000Z</time>
      </trkpt>
      <trkpt lat="43.35695" lon="5.99096">
        <ele>603</ele>
        <time>2019-12-17T09:01:13.000Z</time>
      </trkpt>
      <trkpt lat="43.35695" lon="5.99096">
        <ele>603</ele>
        <time>2019-12-17T09:01:14.000Z</time>
      </trkpt>
      <trkpt lat="43.35695" lon="5.99096">
        <ele>603</ele>
        <time>2019-12-17T09:01:15.000Z</time>
      </trkpt>
      <trkpt lat="43.35695" lon="5.99096">
        <ele>603</ele>
        <time>2019-12-17T09:01:16.000Z</time>
      </trkpt>
      <trkpt lat="43.35695" lon="5.99096">
        <ele>604</ele>
        <time>2019-12-17T09:01:17.000Z</time>
      </trkpt>
      <trkpt lat="43.35696" lon="5.99096">
        <ele>604</ele>
        <time>2019-12-17T09:01:18.000Z</time>
      </trkpt>
      <trkpt lat="43.35696" lon="5.99096">
        <ele>604</ele>
        <time>2019-12-17T09:01:19.000Z</time>
      </trkpt>
      <trkpt lat="43.35696" lon="5.99095">
        <ele>604</ele>
        <time>2019-12-17T09:01:20.000Z</time>
      </trkpt>
      <trkpt lat="43.35696" lon="5.99096">
        <ele>604</ele>
        <time>2019-12-17T09:01:21.000Z</time>
      </trkpt>
      <trkpt lat="43.35697" lon="5.99096">
        <ele>604</ele>
        <time>2019-12-17T09:01:22.000Z</time>
      </trkpt>
      <trkpt lat="43.35697" lon="5.99096">
        <ele>604</ele>
        <time>2019-12-17T09:01:23.000Z</time>
      </trkpt>
      <trkpt lat="43.35698" lon="5.99096">
        <ele>604</ele>
        <time>2019-12-17T09:01:24.000Z</time>
      </trkpt>
      <trkpt lat="43.35698" lon="5.99096">
        <ele>605</ele>
        <time>2019-12-17T09:01:25.000Z</time>
      </trkpt>
      <trkpt lat="43.35699" lon="5.99096">
        <ele>605</ele>
        <time>2019-12-17T09:01:26.000Z</time>
      </trkpt>
      <trkpt lat="43.35699" lon="5.99096">
        <ele>605</ele>
        <time>2019-12-17T09:01:27.000Z</time>
      </trkpt>
      <trkpt lat="43.35699" lon="5.99095">
        <ele>605</ele>
        <time>2019-12-17T09:01:28.000Z</time>
      </trkpt>
      <trkpt lat="43.357" lon="5.99095">
        <ele>605</ele>
        <time>2019-12-17T09:01:29.000Z</time>
      </trkpt>
      <trkpt lat="43.357" lon="5.99095">
        <ele>605</ele>
        <time>2019-12-17T09:01:30.000Z</time>
      </trkpt>
      <trkpt lat="43.35701" lon="5.99095">
        <ele>605</ele>
        <time>2019-12-17T09:01:31.000Z</time>
      </trkpt>
      <trkpt lat="43.35701" lon="5.99094">
        <ele>605</ele>
        <time>2019-12-17T09:01:32.000Z</time>
      </trkpt>
      <trkpt lat="43.35702" lon="5.99094">
        <ele>605</ele>
        <time>2019-12-17T09:01:33.000Z</time>
      </trkpt>
      <trkpt lat="43.35702" lon="5.99094">
        <ele>606</ele>
        <time>2019-12-17T09:01:34.000Z</time>
      </trkpt>
      <trkpt lat="43.35703" lon="5.99094">
        <ele>606</ele>
        <time>2019-12-17T09:01:35.000Z</time>
      </trkpt>
      <trkpt lat="43.35704" lon="5.99094">
        <ele>606</ele>
        <time>2019-12-17T09:01:36.000Z</time>
      </trkpt>
      <trkpt lat="43.35704" lon="5.99094">
        <ele>606</ele>
        <time>2019-12-17T09:01:37.000Z</time>
      </trkpt>
      <trkpt lat="43.35705" lon="5.99094">
        <ele>606</ele>
        <time>2019-12-17T09:01:38.000Z</time>
      </trkpt>
      <trkpt lat="43.35705" lon="5.99093">
        <ele>607</ele>
        <time>2019-12-17T09:01:39.000Z</time>
      </trkpt>
      <trkpt lat="43.35706" lon="5.99094">
        <ele>607</ele>
        <time>2019-12-17T09:01:40.000Z</time>
      </trkpt>
      <trkpt lat="43.35706" lon="5.99094">
        <ele>607</ele>
        <time>2019-12-17T09:01:41.000Z</time>
      </trkpt>
      <trkpt lat="43.35707" lon="5.99093">
        <ele>607</ele>
        <time>2019-12-17T09:01:42.000Z</time>
      </trkpt>
      <trkpt lat="43.35707" lon="5.99093">
        <ele>607</ele>
        <time>2019-12-17T09:01:43.000Z</time>
      </trkpt>
      <trkpt lat="43.35707" lon="5.99093">
        <ele>608</ele>
        <time>2019-12-17T09:01:44.000Z</time>
      </trkpt>
      <trkpt lat="43.35707" lon="5.99093">
        <ele>608</ele>
        <time>2019-12-17T09:01:45.000Z</time>
      </trkpt>
      <trkpt lat="43.35708" lon="5.99093">
        <ele>608</ele>
        <time>2019-12-17T09:01:46.000Z</time>
      </trkpt>
      <trkpt lat="43.35708" lon="5.99093">
        <ele>608</ele>
        <time>2019-12-17T09:01:47.000Z</time>
      </trkpt>
      <trkpt lat="43.35708" lon="5.99093">
        <ele>608</ele>
        <time>2019-12-17T09:01:48.000Z</time>
      </trkpt>
      <trkpt lat="43.35708" lon="5.99093">
        <ele>608</ele>
        <time>2019-12-17T09:01:49.000Z</time>
      </trkpt>
      <trkpt lat="43.35708" lon="5.99093">
        <ele>608</ele>
        <time>2019-12-17T09:01:50.000Z</time>
      </trkpt>
      <trkpt lat="43.35708" lon="5.99093">
        <ele>608</ele>
        <time>2019-12-17T09:01:51.000Z</time>
      </trkpt>
      <trkpt lat="43.35708" lon="5.99093">
        <ele>608</ele>
        <time>2019-12-17T09:01:52.000Z</time>
      </trkpt>
      <trkpt lat="43.35708" lon="5.99093">
        <ele>608</ele>
        <time>2019-12-17T09:01:53.000Z</time>
      </trkpt>
      <trkpt lat="43.35708" lon="5.99093">
        <ele>609</ele>
        <time>2019-12-17T09:01:54.000Z</time>
      </trkpt>
      <trkpt lat="43.35709" lon="5.99093">
        <ele>609</ele>
        <time>2019-12-17T09:01:55.000Z</time>
      </trkpt>
      <trkpt lat="43.35709" lon="5.99093">
        <ele>609</ele>
        <time>2019-12-17T09:01:56.000Z</time>
      </trkpt>
      <trkpt lat="43.35709" lon="5.99093">
        <ele>609</ele>
        <time>2019-12-17T09:01:57.000Z</time>
      </trkpt>
      <trkpt lat="43.35709" lon="5.99093">
        <ele>609</ele>
        <time>2019-12-17T09:01:58.000Z</time>
      </trkpt>
      <trkpt lat="43.3571" lon="5.99092">
        <ele>609</ele>
        <time>2019-12-17T09:01:59.000Z</time>
      </trkpt>
      <trkpt lat="43.3571" lon="5.99092">
        <ele>609</ele>
        <time>2019-12-17T09:02:00.000Z</time>
      </trkpt>
      <trkpt lat="43.3571" lon="5.99092">
        <ele>610</ele>
        <time>2019-12-17T09:02:01.000Z</time>
      </trkpt>
      <trkpt lat="43.3571" lon="5.99091">
        <ele>610</ele>
        <time>2019-12-17T09:02:02.000Z</time>
      </trkpt>
      <trkpt lat="43.3571" lon="5.99091">
        <ele>610</ele>
        <time>2019-12-17T09:02:03.000Z</time>
      </trkpt>
      <trkpt lat="43.3571" lon="5.9909">
        <ele>610</ele>
        <time>2019-12-17T09:02:04.000Z</time>
      </trkpt>
      <trkpt lat="43.3571" lon="5.99089">
        <ele>610</ele>
        <time>2019-12-17T09:02:05.000Z</time>
      </trkpt>
      <trkpt lat="43.3571" lon="5.99089">
        <ele>610</ele>
        <time>2019-12-17T09:02:06.000Z</time>
      </trkpt>
      <trkpt lat="43.35711" lon="5.99088">
        <ele>611</ele>
        <time>2019-12-17T09:02:07.000Z</time>
      </trkpt>
      <trkpt lat="43.35711" lon="5.99088">
        <ele>611</ele>
        <time>2019-12-17T09:02:08.000Z</time>
      </trkpt>
      <trkpt lat="43.35711" lon="5.99087">
        <ele>611</ele>
        <time>2019-12-17T09:02:09.000Z</time>
      </trkpt>
      <trkpt lat="43.35711" lon="5.99086">
        <ele>611</ele>
        <time>2019-12-17T09:02:10.000Z</time>
      </trkpt>
      <trkpt lat="43.35711" lon="5.99085">
        <ele>611</ele>
        <time>2019-12-17T09:02:11.000Z</time>
      </trkpt>
      <trkpt lat="43.3571" lon="5.99085">
        <ele>612</ele>
        <time>2019-12-17T09:02:12.000Z</time>
      </trkpt>
      <trkpt lat="43.35709" lon="5.99085">
        <ele>612</ele>
        <time>2019-12-17T09:02:13.000Z</time>
      </trkpt>
      <trkpt lat="43.35709" lon="5.99085">
        <ele>612</ele>
        <time>2019-12-17T09:02:14.000Z</time>
      </trkpt>
      <trkpt lat="43.35708" lon="5.99084">
        <ele>612</ele>
        <time>2019-12-17T09:02:15.000Z</time>
      </trkpt>
      <trkpt lat="43.35707" lon="5.99084">
        <ele>612</ele>
        <time>2019-12-17T09:02:16.000Z</time>
      </trkpt>
      <trkpt lat="43.35707" lon="5.99083">
        <ele>612</ele>
        <time>2019-12-17T09:02:17.000Z</time>
      </trkpt>
      <trkpt lat="43.35706" lon="5.99082">
        <ele>612</ele>
        <time>2019-12-17T09:02:18.000Z</time>
      </trkpt>
      <trkpt lat="43.35706" lon="5.99082">
        <ele>613</ele>
        <time>2019-12-17T09:02:19.000Z</time>
      </trkpt>
      <trkpt lat="43.35706" lon="5.99082">
        <ele>613</ele>
        <time>2019-12-17T09:02:20.000Z</time>
      </trkpt>
      <trkpt lat="43.35706" lon="5.99081">
        <ele>613</ele>
        <time>2019-12-17T09:02:21.000Z</time>
      </trkpt>
      <trkpt lat="43.35705" lon="5.99081">
        <ele>613</ele>
        <time>2019-12-17T09:02:22.000Z</time>
      </trkpt>
      <trkpt lat="43.35705" lon="5.99081">
        <ele>613</ele>
        <time>2019-12-17T09:02:23.000Z</time>
      </trkpt>
      <trkpt lat="43.35705" lon="5.99081">
        <ele>613</ele>
        <time>2019-12-17T09:02:24.000Z</time>
      </trkpt>
      <trkpt lat="43.35704" lon="5.99081">
        <ele>614</ele>
        <time>2019-12-17T09:02:25.000Z</time>
      </trkpt>
      <trkpt lat="43.35704" lon="5.99081">
        <ele>614</ele>
        <time>2019-12-17T09:02:26.000Z</time>
      </trkpt>
      <trkpt lat="43.35703" lon="5.99081">
        <ele>614</ele>
        <time>2019-12-17T09:02:27.000Z</time>
      </trkpt>
      <trkpt lat="43.35703" lon="5.99081">
        <ele>614</ele>
        <time>2019-12-17T09:02:28.000Z</time>
      </trkpt>
      <trkpt lat="43.35702" lon="5.9908">
        <ele>614</ele>
        <time>2019-12-17T09:02:29.000Z</time>
      </trkpt>
      <trkpt lat="43.35701" lon="5.9908">
        <ele>614</ele>
        <time>2019-12-17T09:02:30.000Z</time>
      </trkpt>
      <trkpt lat="43.357" lon="5.99079">
        <ele>615</ele>
        <time>2019-12-17T09:02:31.000Z</time>
      </trkpt>
      <trkpt lat="43.35699" lon="5.99079">
        <ele>615</ele>
        <time>2019-12-17T09:02:32.000Z</time>
      </trkpt>
      <trkpt lat="43.35699" lon="5.99079">
        <ele>615</ele>
        <time>2019-12-17T09:02:33.000Z</time>
      </trkpt>
      <trkpt lat="43.35699" lon="5.99078">
        <ele>615</ele>
        <time>2019-12-17T09:02:34.000Z</time>
      </trkpt>
      <trkpt lat="43.35698" lon="5.99078">
        <ele>615</ele>
        <time>2019-12-17T09:02:35.000Z</time>
      </trkpt>
      <trkpt lat="43.35698" lon="5.99077">
        <ele>616</ele>
        <time>2019-12-17T09:02:36.000Z</time>
      </trkpt>
      <trkpt lat="43.35698" lon="5.99077">
        <ele>616</ele>
        <time>2019-12-17T09:02:37.000Z</time>
      </trkpt>
      <trkpt lat="43.35697" lon="5.99076">
        <ele>616</ele>
        <time>2019-12-17T09:02:38.000Z</time>
      </trkpt>
      <trkpt lat="43.35697" lon="5.99076">
        <ele>616</ele>
        <time>2019-12-17T09:02:39.000Z</time>
      </trkpt>
      <trkpt lat="43.35697" lon="5.99076">
        <ele>616</ele>
        <time>2019-12-17T09:02:40.000Z</time>
      </trkpt>
      <trkpt lat="43.35697" lon="5.99076">
        <ele>616</ele>
        <time>2019-12-17T09:02:41.000Z</time>
      </trkpt>
      <trkpt lat="43.35697" lon="5.99076">
        <ele>616</ele>
        <time>2019-12-17T09:02:42.000Z</time>
      </trkpt>
      <trkpt lat="43.35698" lon="5.99076">
        <ele>616</ele>
        <time>2019-12-17T09:02:43.000Z</time>
      </trkpt>
      <trkpt lat="43.35698" lon="5.99076">
        <ele>616</ele>
        <time>2019-12-17T09:02:44.000Z</time>
      </trkpt>
      <trkpt lat="43.35698" lon="5.99075">
        <ele>616</ele>
        <time>2019-12-17T09:02:45.000Z</time>
      </trkpt>
      <trkpt lat="43.35698" lon="5.99075">
        <ele>616</ele>
        <time>2019-12-17T09:02:46.000Z</time>
      </trkpt>
      <trkpt lat="43.35698" lon="5.99074">
        <ele>616</ele>
        <time>2019-12-17T09:02:47.000Z</time>
      </trkpt>
      <trkpt lat="43.35698" lon="5.99074">
        <ele>616</ele>
        <time>2019-12-17T09:02:48.000Z</time>
      </trkpt>
      <trkpt lat="43.35698" lon="5.99073">
        <ele>616</ele>
        <time>2019-12-17T09:02:49.000Z</time>
      </trkpt>
      <trkpt lat="43.35698" lon="5.99073">
        <ele>616</ele>
        <time>2019-12-17T09:02:50.000Z</time>
      </trkpt>
      <trkpt lat="43.35698" lon="5.99073">
        <ele>616</ele>
        <time>2019-12-17T09:02:51.000Z</time>
      </trkpt>
      <trkpt lat="43.35698" lon="5.99072">
        <ele>617</ele>
        <time>2019-12-17T09:02:52.000Z</time>
      </trkpt>
      <trkpt lat="43.35699" lon="5.99071">
        <ele>617</ele>
        <time>2019-12-17T09:02:53.000Z</time>
      </trkpt>
      <trkpt lat="43.35699" lon="5.99071">
        <ele>617</ele>
        <time>2019-12-17T09:02:54.000Z</time>
      </trkpt>
      <trkpt lat="43.35699" lon="5.9907">
        <ele>617</ele>
        <time>2019-12-17T09:02:55.000Z</time>
      </trkpt>
      <trkpt lat="43.35699" lon="5.9907">
        <ele>617</ele>
        <time>2019-12-17T09:02:56.000Z</time>
      </trkpt>
      <trkpt lat="43.35699" lon="5.9907">
        <ele>617</ele>
        <time>2019-12-17T09:02:57.000Z</time>
      </trkpt>
      <trkpt lat="43.35699" lon="5.9907">
        <ele>617</ele>
        <time>2019-12-17T09:02:58.000Z</time>
      </trkpt>
      <trkpt lat="43.357" lon="5.9907">
        <ele>617</ele>
        <time>2019-12-17T09:02:59.000Z</time>
      </trkpt>
      <trkpt lat="43.35701" lon="5.99069">
        <ele>617</ele>
        <time>2019-12-17T09:03:00.000Z</time>
      </trkpt>
      <trkpt lat="43.35701" lon="5.99069">
        <ele>617</ele>
        <time>2019-12-17T09:03:01.000Z</time>
      </trkpt>
      <trkpt lat="43.35702" lon="5.99069">
        <ele>618</ele>
        <time>2019-12-17T09:03:02.000Z</time>
      </trkpt>
      <trkpt lat="43.35702" lon="5.99069">
        <ele>618</ele>
        <time>2019-12-17T09:03:03.000Z</time>
      </trkpt>
      <trkpt lat="43.35703" lon="5.9907">
        <ele>618</ele>
        <time>2019-12-17T09:03:04.000Z</time>
      </trkpt>
      <trkpt lat="43.35704" lon="5.99069">
        <ele>618</ele>
        <time>2019-12-17T09:03:05.000Z</time>
      </trkpt>
      <trkpt lat="43.35705" lon="5.99069">
        <ele>618</ele>
        <time>2019-12-17T09:03:06.000Z</time>
      </trkpt>
      <trkpt lat="43.35705" lon="5.99069">
        <ele>618</ele>
        <time>2019-12-17T09:03:07.000Z</time>
      </trkpt>
      <trkpt lat="43.35705" lon="5.99069">
        <ele>618</ele>
        <time>2019-12-17T09:03:08.000Z</time>
      </trkpt>
      <trkpt lat="43.35705" lon="5.99069">
        <ele>619</ele>
        <time>2019-12-17T09:03:09.000Z</time>
      </trkpt>
      <trkpt lat="43.35705" lon="5.99068">
        <ele>619</ele>
        <time>2019-12-17T09:03:10.000Z</time>
      </trkpt>
      <trkpt lat="43.35706" lon="5.99068">
        <ele>619</ele>
        <time>2019-12-17T09:03:11.000Z</time>
      </trkpt>
      <trkpt lat="43.35707" lon="5.99068">
        <ele>619</ele>
        <time>2019-12-17T09:03:12.000Z</time>
      </trkpt>
      <trkpt lat="43.35707" lon="5.99068">
        <ele>619</ele>
        <time>2019-12-17T09:03:13.000Z</time>
      </trkpt>
      <trkpt lat="43.35708" lon="5.99068">
        <ele>619</ele>
        <time>2019-12-17T09:03:14.000Z</time>
      </trkpt>
      <trkpt lat="43.35709" lon="5.99068">
        <ele>619</ele>
        <time>2019-12-17T09:03:15.000Z</time>
      </trkpt>
      <trkpt lat="43.35709" lon="5.99068">
        <ele>619</ele>
        <time>2019-12-17T09:03:16.000Z</time>
      </trkpt>
      <trkpt lat="43.35709" lon="5.99068">
        <ele>620</ele>
        <time>2019-12-17T09:03:17.000Z</time>
      </trkpt>
      <trkpt lat="43.35709" lon="5.99068">
        <ele>620</ele>
        <time>2019-12-17T09:03:18.000Z</time>
      </trkpt>
      <trkpt lat="43.3571" lon="5.99067">
        <ele>620</ele>
        <time>2019-12-17T09:03:19.000Z</time>
      </trkpt>
      <trkpt lat="43.3571" lon="5.99067">
        <ele>620</ele>
        <time>2019-12-17T09:03:20.000Z</time>
      </trkpt>
      <trkpt lat="43.3571" lon="5.99067">
        <ele>620</ele>
        <time>2019-12-17T09:03:21.000Z</time>
      </trkpt>
      <trkpt lat="43.3571" lon="5.99067">
        <ele>620</ele>
        <time>2019-12-17T09:03:22.000Z</time>
      </trkpt>
      <trkpt lat="43.3571" lon="5.99067">
        <ele>620</ele>
        <time>2019-12-17T09:03:23.000Z</time>
      </trkpt>
      <trkpt lat="43.35711" lon="5.99067">
        <ele>620</ele>
        <time>2019-12-17T09:03:24.000Z</time>
      </trkpt>
      <trkpt lat="43.35711" lon="5.99066">
        <ele>620</ele>
        <time>2019-12-17T09:03:25.000Z</time>
      </trkpt>
      <trkpt lat="43.35711" lon="5.99066">
        <ele>620</ele>
        <time>2019-12-17T09:03:26.000Z</time>
      </trkpt>
      <trkpt lat="43.35712" lon="5.99066">
        <ele>620</ele>
        <time>2019-12-17T09:03:27.000Z</time>
      </trkpt>
      <trkpt lat="43.35713" lon="5.99066">
        <ele>620</ele>
        <time>2019-12-17T09:03:28.000Z</time>
      </trkpt>
      <trkpt lat="43.35713" lon="5.99066">
        <ele>621</ele>
        <time>2019-12-17T09:03:29.000Z</time>
      </trkpt>
      <trkpt lat="43.35714" lon="5.99066">
        <ele>621</ele>
        <time>2019-12-17T09:03:30.000Z</time>
      </trkpt>
      <trkpt lat="43.35714" lon="5.99065">
        <ele>621</ele>
        <time>2019-12-17T09:03:31.000Z</time>
      </trkpt>
      <trkpt lat="43.35714" lon="5.99065">
        <ele>621</ele>
        <time>2019-12-17T09:03:32.000Z</time>
      </trkpt>
      <trkpt lat="43.35715" lon="5.99065">
        <ele>621</ele>
        <time>2019-12-17T09:03:33.000Z</time>
      </trkpt>
      <trkpt lat="43.35716" lon="5.99065">
        <ele>621</ele>
        <time>2019-12-17T09:03:34.000Z</time>
      </trkpt>
      <trkpt lat="43.35716" lon="5.99065">
        <ele>621</ele>
        <time>2019-12-17T09:03:35.000Z</time>
      </trkpt>
      <trkpt lat="43.35717" lon="5.99065">
        <ele>621</ele>
        <time>2019-12-17T09:03:36.000Z</time>
      </trkpt>
      <trkpt lat="43.35717" lon="5.99065">
        <ele>621</ele>
        <time>2019-12-17T09:03:37.000Z</time>
      </trkpt>
      <trkpt lat="43.35717" lon="5.99065">
        <ele>622</ele>
        <time>2019-12-17T09:03:38.000Z</time>
      </trkpt>
      <trkpt lat="43.35717" lon="5.99065">
        <ele>622</ele>
        <time>2019-12-17T09:03:39.000Z</time>
      </trkpt>
      <trkpt lat="43.35717" lon="5.99065">
        <ele>622</ele>
        <time>2019-12-17T09:03:40.000Z</time>
      </trkpt>
      <trkpt lat="43.35717" lon="5.99065">
        <ele>622</ele>
        <time>2019-12-17T09:03:41.000Z</time>
      </trkpt>
      <trkpt lat="43.35718" lon="5.99065">
        <ele>622</ele>
        <time>2019-12-17T09:03:42.000Z</time>
      </trkpt>
      <trkpt lat="43.35718" lon="5.99065">
        <ele>622</ele>
        <time>2019-12-17T09:03:43.000Z</time>
      </trkpt>
      <trkpt lat="43.35718" lon="5.99065">
        <ele>622</ele>
        <time>2019-12-17T09:03:44.000Z</time>
      </trkpt>
      <trkpt lat="43.35718" lon="5.99065">
        <ele>622</ele>
        <time>2019-12-17T09:03:45.000Z</time>
      </trkpt>
      <trkpt lat="43.35718" lon="5.99065">
        <ele>622</ele>
        <time>2019-12-17T09:03:46.000Z</time>
      </trkpt>
      <trkpt lat="43.35718" lon="5.99065">
        <ele>622</ele>
        <time>2019-12-17T09:03:47.000Z</time>
      </trkpt>
      <trkpt lat="43.35718" lon="5.99065">
        <ele>622</ele>
        <time>2019-12-17T09:03:48.000Z</time>
      </trkpt>
      <trkpt lat="43.35718" lon="5.99065">
        <ele>622</ele>
        <time>2019-12-17T09:03:49.000Z</time>
      </trkpt>
      <trkpt lat="43.35718" lon="5.99065">
        <ele>622</ele>
        <time>2019-12-17T09:03:50.000Z</time>
      </trkpt>
      <trkpt lat="43.35718" lon="5.99065">
        <ele>622</ele>
        <time>2019-12-17T09:03:51.000Z</time>
      </trkpt>
      <trkpt lat="43.35718" lon="5.99065">
        <ele>622</ele>
        <time>2019-12-17T09:03:52.000Z</time>
      </trkpt>
      <trkpt lat="43.35718" lon="5.99066">
        <ele>622</ele>
        <time>2019-12-17T09:03:53.000Z</time>
      </trkpt>
      <trkpt lat="43.35718" lon="5.99067">
        <ele>622</ele>
        <time>2019-12-17T09:03:54.000Z</time>
      </trkpt>
      <trkpt lat="43.35719" lon="5.99067">
        <ele>622</ele>
        <time>2019-12-17T09:03:55.000Z</time>
      </trkpt>
      <trkpt lat="43.35719" lon="5.99067">
        <ele>622</ele>
        <time>2019-12-17T09:03:56.000Z</time>
      </trkpt>
      <trkpt lat="43.35719" lon="5.99067">
        <ele>622</ele>
        <time>2019-12-17T09:03:57.000Z</time>
      </trkpt>
      <trkpt lat="43.35719" lon="5.99067">
        <ele>622</ele>
        <time>2019-12-17T09:03:58.000Z</time>
      </trkpt>
      <trkpt lat="43.35719" lon="5.99067">
        <ele>622</ele>
        <time>2019-12-17T09:03:59.000Z</time>
      </trkpt>
      <trkpt lat="43.35719" lon="5.99067">
        <ele>622</ele>
        <time>2019-12-17T09:04:00.000Z</time>
      </trkpt>
      <trkpt lat="43.35719" lon="5.99067">
        <ele>622</ele>
        <time>2019-12-17T09:04:01.000Z</time>
      </trkpt>
      <trkpt lat="43.35719" lon="5.99067">
        <ele>622</ele>
        <time>2019-12-17T09:04:02.000Z</time>
      </trkpt>
      <trkpt lat="43.35719" lon="5.99067">
        <ele>622</ele>
        <time>2019-12-17T09:04:03.000Z</time>
      </trkpt>
      <trkpt lat="43.35719" lon="5.99067">
        <ele>622</ele>
        <time>2019-12-17T09:04:04.000Z</time>
      </trkpt>
      <trkpt lat="43.35719" lon="5.99067">
        <ele>622</ele>
        <time>2019-12-17T09:04:05.000Z</time>
      </trkpt>
      <trkpt lat="43.35719" lon="5.99067">
        <ele>622</ele>
        <time>2019-12-17T09:04:06.000Z</time>
      </trkpt>
      <trkpt lat="43.35719" lon="5.99067">
        <ele>622</ele>
        <time>2019-12-17T09:04:07.000Z</time>
      </trkpt>
      <trkpt lat="43.35719" lon="5.99067">
        <ele>622</ele>
        <time>2019-12-17T09:04:08.000Z</time>
      </trkpt>
      <trkpt lat="43.35719" lon="5.99067">
        <ele>622</ele>
        <time>2019-12-17T09:04:09.000Z</time>
      </trkpt>
      <trkpt lat="43.35719" lon="5.99067">
        <ele>622</ele>
        <time>2019-12-17T09:04:10.000Z</time>
      </trkpt>
      <trkpt lat="43.35719" lon="5.99067">
        <ele>622</ele>
        <time>2019-12-17T09:04:11.000Z</time>
      </trkpt>
      <trkpt lat="43.35719" lon="5.99067">
        <ele>622</ele>
        <time>2019-12-17T09:04:12.000Z</time>
      </trkpt>
      <trkpt lat="43.35719" lon="5.99067">
        <ele>622</ele>
        <time>2019-12-17T09:04:13.000Z</time>
      </trkpt>
      <trkpt lat="43.35719" lon="5.99067">
        <ele>622</ele>
        <time>2019-12-17T09:04:14.000Z</time>
      </trkpt>
      <trkpt lat="43.35719" lon="5.99067">
        <ele>622</ele>
        <time>2019-12-17T09:04:15.000Z</time>
      </trkpt>
      <trkpt lat="43.35719" lon="5.99067">
        <ele>622</ele>
        <time>2019-12-17T09:04:16.000Z</time>
      </trkpt>
      <trkpt lat="43.35719" lon="5.99067">
        <ele>622</ele>
        <time>2019-12-17T09:04:17.000Z</time>
      </trkpt>
      <trkpt lat="43.35719" lon="5.99067">
        <ele>622</ele>
        <time>2019-12-17T09:04:18.000Z</time>
      </trkpt>
      <trkpt lat="43.35719" lon="5.99067">
        <ele>622</ele>
        <time>2019-12-17T09:04:19.000Z</time>
      </trkpt>
      <trkpt lat="43.35719" lon="5.99067">
        <ele>622</ele>
        <time>2019-12-17T09:04:20.000Z</time>
      </trkpt>
      <trkpt lat="43.35719" lon="5.99067">
        <ele>622</ele>
        <time>2019-12-17T09:04:21.000Z</time>
      </trkpt>
      <trkpt lat="43.35719" lon="5.99067">
        <ele>622</ele>
        <time>2019-12-17T09:04:22.000Z</time>
      </trkpt>
      <trkpt lat="43.35719" lon="5.99066">
        <ele>622</ele>
        <time>2019-12-17T09:04:23.000Z</time>
      </trkpt>
      <trkpt lat="43.35719" lon="5.99066">
        <ele>622</ele>
        <time>2019-12-17T09:04:24.000Z</time>
      </trkpt>
      <trkpt lat="43.35719" lon="5.99066">
        <ele>622</ele>
        <time>2019-12-17T09:04:25.000Z</time>
      </trkpt>
      <trkpt lat="43.3572" lon="5.99064">
        <ele>623</ele>
        <time>2019-12-17T09:04:26.000Z</time>
      </trkpt>
      <trkpt lat="43.35721" lon="5.99064">
        <ele>623</ele>
        <time>2019-12-17T09:04:27.000Z</time>
      </trkpt>
      <trkpt lat="43.35721" lon="5.99063">
        <ele>623</ele>
        <time>2019-12-17T09:04:28.000Z</time>
      </trkpt>
      <trkpt lat="43.35722" lon="5.99063">
        <ele>623</ele>
        <time>2019-12-17T09:04:29.000Z</time>
      </trkpt>
      <trkpt lat="43.35722" lon="5.99063">
        <ele>623</ele>
        <time>2019-12-17T09:04:30.000Z</time>
      </trkpt>
      <trkpt lat="43.35723" lon="5.99063">
        <ele>624</ele>
        <time>2019-12-17T09:04:31.000Z</time>
      </trkpt>
      <trkpt lat="43.35723" lon="5.99063">
        <ele>624</ele>
        <time>2019-12-17T09:04:32.000Z</time>
      </trkpt>
      <trkpt lat="43.35724" lon="5.99063">
        <ele>624</ele>
        <time>2019-12-17T09:04:33.000Z</time>
      </trkpt>
      <trkpt lat="43.35724" lon="5.99062">
        <ele>624</ele>
        <time>2019-12-17T09:04:34.000Z</time>
      </trkpt>
      <trkpt lat="43.35724" lon="5.99062">
        <ele>624</ele>
        <time>2019-12-17T09:04:35.000Z</time>
      </trkpt>
      <trkpt lat="43.35724" lon="5.99062">
        <ele>624</ele>
        <time>2019-12-17T09:04:36.000Z</time>
      </trkpt>
      <trkpt lat="43.35724" lon="5.99062">
        <ele>624</ele>
        <time>2019-12-17T09:04:37.000Z</time>
      </trkpt>
      <trkpt lat="43.35725" lon="5.99062">
        <ele>625</ele>
        <time>2019-12-17T09:04:38.000Z</time>
      </trkpt>
      <trkpt lat="43.35725" lon="5.99062">
        <ele>625</ele>
        <time>2019-12-17T09:04:39.000Z</time>
      </trkpt>
      <trkpt lat="43.35725" lon="5.99062">
        <ele>625</ele>
        <time>2019-12-17T09:04:40.000Z</time>
      </trkpt>
      <trkpt lat="43.35725" lon="5.99062">
        <ele>625</ele>
        <time>2019-12-17T09:04:41.000Z</time>
      </trkpt>
      <trkpt lat="43.35726" lon="5.99063">
        <ele>625</ele>
        <time>2019-12-17T09:04:42.000Z</time>
      </trkpt>
      <trkpt lat="43.35726" lon="5.99063">
        <ele>625</ele>
        <time>2019-12-17T09:04:43.000Z</time>
      </trkpt>
      <trkpt lat="43.35726" lon="5.99063">
        <ele>625</ele>
        <time>2019-12-17T09:04:44.000Z</time>
      </trkpt>
      <trkpt lat="43.35726" lon="5.99062">
        <ele>625</ele>
        <time>2019-12-17T09:04:45.000Z</time>
      </trkpt>
      <trkpt lat="43.35726" lon="5.99062">
        <ele>625</ele>
        <time>2019-12-17T09:04:46.000Z</time>
      </trkpt>
      <trkpt lat="43.35727" lon="5.99062">
        <ele>626</ele>
        <time>2019-12-17T09:04:47.000Z</time>
      </trkpt>
      <trkpt lat="43.35727" lon="5.99062">
        <ele>626</ele>
        <time>2019-12-17T09:04:48.000Z</time>
      </trkpt>
      <trkpt lat="43.35727" lon="5.99062">
        <ele>626</ele>
        <time>2019-12-17T09:04:49.000Z</time>
      </trkpt>
      <trkpt lat="43.35727" lon="5.99062">
        <ele>626</ele>
        <time>2019-12-17T09:04:50.000Z</time>
      </trkpt>
      <trkpt lat="43.35727" lon="5.99062">
        <ele>626</ele>
        <time>2019-12-17T09:04:51.000Z</time>
      </trkpt>
      <trkpt lat="43.35727" lon="5.99062">
        <ele>626</ele>
        <time>2019-12-17T09:04:52.000Z</time>
      </trkpt>
      <trkpt lat="43.35727" lon="5.99062">
        <ele>627</ele>
        <time>2019-12-17T09:04:53.000Z</time>
      </trkpt>
      <trkpt lat="43.35728" lon="5.99061">
        <ele>627</ele>
        <time>2019-12-17T09:04:54.000Z</time>
      </trkpt>
      <trkpt lat="43.35728" lon="5.99061">
        <ele>627</ele>
        <time>2019-12-17T09:04:55.000Z</time>
      </trkpt>
      <trkpt lat="43.35728" lon="5.99061">
        <ele>627</ele>
        <time>2019-12-17T09:04:56.000Z</time>
      </trkpt>
      <trkpt lat="43.35728" lon="5.99061">
        <ele>627</ele>
        <time>2019-12-17T09:04:57.000Z</time>
      </trkpt>
      <trkpt lat="43.35727" lon="5.99061">
        <ele>628</ele>
        <time>2019-12-17T09:04:58.000Z</time>
      </trkpt>
      <trkpt lat="43.35727" lon="5.99061">
        <ele>628</ele>
        <time>2019-12-17T09:04:59.000Z</time>
      </trkpt>
      <trkpt lat="43.35726" lon="5.9906">
        <ele>628</ele>
        <time>2019-12-17T09:05:00.000Z</time>
      </trkpt>
      <trkpt lat="43.35726" lon="5.9906">
        <ele>628</ele>
        <time>2019-12-17T09:05:01.000Z</time>
      </trkpt>
      <trkpt lat="43.35725" lon="5.99059">
        <ele>629</ele>
        <time>2019-12-17T09:05:02.000Z</time>
      </trkpt>
      <trkpt lat="43.35725" lon="5.99059">
        <ele>629</ele>
        <time>2019-12-17T09:05:03.000Z</time>
      </trkpt>
      <trkpt lat="43.35724" lon="5.99057">
        <ele>629</ele>
        <time>2019-12-17T09:05:04.000Z</time>
      </trkpt>
      <trkpt lat="43.35723" lon="5.99056">
        <ele>629</ele>
        <time>2019-12-17T09:05:05.000Z</time>
      </trkpt>
      <trkpt lat="43.35723" lon="5.99055">
        <ele>629</ele>
        <time>2019-12-17T09:05:06.000Z</time>
      </trkpt>
      <trkpt lat="43.35723" lon="5.99054">
        <ele>629</ele>
        <time>2019-12-17T09:05:07.000Z</time>
      </trkpt>
      <trkpt lat="43.35723" lon="5.99054">
        <ele>629</ele>
        <time>2019-12-17T09:05:08.000Z</time>
      </trkpt>
      <trkpt lat="43.35723" lon="5.99053">
        <ele>630</ele>
        <time>2019-12-17T09:05:09.000Z</time>
      </trkpt>
      <trkpt lat="43.35723" lon="5.99053">
        <ele>630</ele>
        <time>2019-12-17T09:05:10.000Z</time>
      </trkpt>
      <trkpt lat="43.35723" lon="5.99052">
        <ele>630</ele>
        <time>2019-12-17T09:05:11.000Z</time>
      </trkpt>
      <trkpt lat="43.35723" lon="5.99052">
        <ele>630</ele>
        <time>2019-12-17T09:05:12.000Z</time>
      </trkpt>
      <trkpt lat="43.35723" lon="5.99052">
        <ele>630</ele>
        <time>2019-12-17T09:05:13.000Z</time>
      </trkpt>
      <trkpt lat="43.35724" lon="5.99052">
        <ele>630</ele>
        <time>2019-12-17T09:05:14.000Z</time>
      </trkpt>
      <trkpt lat="43.35724" lon="5.99052">
        <ele>630</ele>
        <time>2019-12-17T09:05:15.000Z</time>
      </trkpt>
      <trkpt lat="43.35724" lon="5.99052">
        <ele>631</ele>
        <time>2019-12-17T09:05:16.000Z</time>
      </trkpt>
      <trkpt lat="43.35723" lon="5.99052">
        <ele>631</ele>
        <time>2019-12-17T09:05:17.000Z</time>
      </trkpt>
      <trkpt lat="43.35724" lon="5.99051">
        <ele>631</ele>
        <time>2019-12-17T09:05:18.000Z</time>
      </trkpt>
      <trkpt lat="43.35724" lon="5.99051">
        <ele>631</ele>
        <time>2019-12-17T09:05:19.000Z</time>
      </trkpt>
      <trkpt lat="43.35724" lon="5.9905">
        <ele>631</ele>
        <time>2019-12-17T09:05:20.000Z</time>
      </trkpt>
      <trkpt lat="43.35724" lon="5.9905">
        <ele>631</ele>
        <time>2019-12-17T09:05:21.000Z</time>
      </trkpt>
      <trkpt lat="43.35725" lon="5.99049">
        <ele>632</ele>
        <time>2019-12-17T09:05:22.000Z</time>
      </trkpt>
      <trkpt lat="43.35725" lon="5.99049">
        <ele>632</ele>
        <time>2019-12-17T09:05:23.000Z</time>
      </trkpt>
      <trkpt lat="43.35725" lon="5.99049">
        <ele>632</ele>
        <time>2019-12-17T09:05:24.000Z</time>
      </trkpt>
      <trkpt lat="43.35725" lon="5.99049">
        <ele>632</ele>
        <time>2019-12-17T09:05:25.000Z</time>
      </trkpt>
      <trkpt lat="43.35725" lon="5.99049">
        <ele>632</ele>
        <time>2019-12-17T09:05:26.000Z</time>
      </trkpt>
      <trkpt lat="43.35724" lon="5.99048">
        <ele>633</ele>
        <time>2019-12-17T09:05:27.000Z</time>
      </trkpt>
      <trkpt lat="43.35724" lon="5.99048">
        <ele>633</ele>
        <time>2019-12-17T09:05:28.000Z</time>
      </trkpt>
      <trkpt lat="43.35724" lon="5.99048">
        <ele>633</ele>
        <time>2019-12-17T09:05:29.000Z</time>
      </trkpt>
      <trkpt lat="43.35724" lon="5.99047">
        <ele>633</ele>
        <time>2019-12-17T09:05:30.000Z</time>
      </trkpt>
      <trkpt lat="43.35724" lon="5.99047">
        <ele>633</ele>
        <time>2019-12-17T09:05:31.000Z</time>
      </trkpt>
      <trkpt lat="43.35724" lon="5.99047">
        <ele>633</ele>
        <time>2019-12-17T09:05:32.000Z</time>
      </trkpt>
      <trkpt lat="43.35724" lon="5.99046">
        <ele>634</ele>
        <time>2019-12-17T09:05:33.000Z</time>
      </trkpt>
      <trkpt lat="43.35724" lon="5.99046">
        <ele>634</ele>
        <time>2019-12-17T09:05:34.000Z</time>
      </trkpt>
      <trkpt lat="43.35724" lon="5.99046">
        <ele>634</ele>
        <time>2019-12-17T09:05:35.000Z</time>
      </trkpt>
      <trkpt lat="43.35724" lon="5.99046">
        <ele>634</ele>
        <time>2019-12-17T09:05:36.000Z</time>
      </trkpt>
      <trkpt lat="43.35724" lon="5.99046">
        <ele>634</ele>
        <time>2019-12-17T09:05:37.000Z</time>
      </trkpt>
      <trkpt lat="43.35723" lon="5.99045">
        <ele>635</ele>
        <time>2019-12-17T09:05:38.000Z</time>
      </trkpt>
      <trkpt lat="43.35723" lon="5.99045">
        <ele>635</ele>
        <time>2019-12-17T09:05:39.000Z</time>
      </trkpt>
      <trkpt lat="43.35724" lon="5.99045">
        <ele>635</ele>
        <time>2019-12-17T09:05:40.000Z</time>
      </trkpt>
      <trkpt lat="43.35724" lon="5.99045">
        <ele>635</ele>
        <time>2019-12-17T09:05:41.000Z</time>
      </trkpt>
      <trkpt lat="43.35724" lon="5.99045">
        <ele>635</ele>
        <time>2019-12-17T09:05:42.000Z</time>
      </trkpt>
      <trkpt lat="43.35723" lon="5.99045">
        <ele>636</ele>
        <time>2019-12-17T09:05:43.000Z</time>
      </trkpt>
      <trkpt lat="43.35723" lon="5.99044">
        <ele>636</ele>
        <time>2019-12-17T09:05:44.000Z</time>
      </trkpt>
      <trkpt lat="43.35723" lon="5.99044">
        <ele>636</ele>
        <time>2019-12-17T09:05:45.000Z</time>
      </trkpt>
      <trkpt lat="43.35723" lon="5.99044">
        <ele>636</ele>
        <time>2019-12-17T09:05:46.000Z</time>
      </trkpt>
      <trkpt lat="43.35723" lon="5.99043">
        <ele>636</ele>
        <time>2019-12-17T09:05:47.000Z</time>
      </trkpt>
      <trkpt lat="43.35723" lon="5.99043">
        <ele>637</ele>
        <time>2019-12-17T09:05:48.000Z</time>
      </trkpt>
      <trkpt lat="43.35723" lon="5.99043">
        <ele>637</ele>
        <time>2019-12-17T09:05:49.000Z</time>
      </trkpt>
      <trkpt lat="43.35723" lon="5.99043">
        <ele>637</ele>
        <time>2019-12-17T09:05:50.000Z</time>
      </trkpt>
      <trkpt lat="43.35723" lon="5.99042">
        <ele>637</ele>
        <time>2019-12-17T09:05:51.000Z</time>
      </trkpt>
      <trkpt lat="43.35722" lon="5.99042">
        <ele>637</ele>
        <time>2019-12-17T09:05:52.000Z</time>
      </trkpt>
      <trkpt lat="43.35722" lon="5.99042">
        <ele>638</ele>
        <time>2019-12-17T09:05:53.000Z</time>
      </trkpt>
      <trkpt lat="43.35722" lon="5.99042">
        <ele>638</ele>
        <time>2019-12-17T09:05:54.000Z</time>
      </trkpt>
      <trkpt lat="43.35722" lon="5.99042">
        <ele>638</ele>
        <time>2019-12-17T09:05:55.000Z</time>
      </trkpt>
      <trkpt lat="43.35722" lon="5.99041">
        <ele>638</ele>
        <time>2019-12-17T09:05:56.000Z</time>
      </trkpt>
      <trkpt lat="43.35722" lon="5.99041">
        <ele>638</ele>
        <time>2019-12-17T09:05:57.000Z</time>
      </trkpt>
      <trkpt lat="43.35722" lon="5.99041">
        <ele>638</ele>
        <time>2019-12-17T09:05:58.000Z</time>
      </trkpt>
      <trkpt lat="43.35722" lon="5.99041">
        <ele>638</ele>
        <time>2019-12-17T09:05:59.000Z</time>
      </trkpt>
      <trkpt lat="43.35722" lon="5.99041">
        <ele>638</ele>
        <time>2019-12-17T09:06:00.000Z</time>
      </trkpt>
      <trkpt lat="43.35722" lon="5.99041">
        <ele>638</ele>
        <time>2019-12-17T09:06:01.000Z</time>
      </trkpt>
      <trkpt lat="43.35722" lon="5.99041">
        <ele>638</ele>
        <time>2019-12-17T09:06:02.000Z</time>
      </trkpt>
      <trkpt lat="43.35722" lon="5.99041">
        <ele>638</ele>
        <time>2019-12-17T09:06:03.000Z</time>
      </trkpt>
      <trkpt lat="43.35722" lon="5.99041">
        <ele>638</ele>
        <time>2019-12-17T09:06:04.000Z</time>
      </trkpt>
      <trkpt lat="43.35722" lon="5.99041">
        <ele>638</ele>
        <time>2019-12-17T09:06:05.000Z</time>
      </trkpt>
      <trkpt lat="43.35722" lon="5.99041">
        <ele>638</ele>
        <time>2019-12-17T09:06:06.000Z</time>
      </trkpt>
      <trkpt lat="43.35722" lon="5.9904">
        <ele>638</ele>
        <time>2019-12-17T09:06:07.000Z</time>
      </trkpt>
      <trkpt lat="43.35722" lon="5.9904">
        <ele>638</ele>
        <time>2019-12-17T09:06:08.000Z</time>
      </trkpt>
      <trkpt lat="43.35722" lon="5.9904">
        <ele>638</ele>
        <time>2019-12-17T09:06:09.000Z</time>
      </trkpt>
      <trkpt lat="43.35722" lon="5.9904">
        <ele>639</ele>
        <time>2019-12-17T09:06:10.000Z</time>
      </trkpt>
      <trkpt lat="43.35722" lon="5.9904">
        <ele>639</ele>
        <time>2019-12-17T09:06:11.000Z</time>
      </trkpt>
      <trkpt lat="43.35722" lon="5.9904">
        <ele>639</ele>
        <time>2019-12-17T09:06:12.000Z</time>
      </trkpt>
      <trkpt lat="43.35722" lon="5.9904">
        <ele>639</ele>
        <time>2019-12-17T09:06:13.000Z</time>
      </trkpt>
      <trkpt lat="43.35722" lon="5.9904">
        <ele>639</ele>
        <time>2019-12-17T09:06:14.000Z</time>
      </trkpt>
      <trkpt lat="43.35722" lon="5.9904">
        <ele>639</ele>
        <time>2019-12-17T09:06:15.000Z</time>
      </trkpt>
      <trkpt lat="43.35722" lon="5.9904">
        <ele>639</ele>
        <time>2019-12-17T09:06:16.000Z</time>
      </trkpt>
      <trkpt lat="43.35722" lon="5.9904">
        <ele>639</ele>
        <time>2019-12-17T09:06:17.000Z</time>
      </trkpt>
      <trkpt lat="43.35722" lon="5.9904">
        <ele>639</ele>
        <time>2019-12-17T09:06:18.000Z</time>
      </trkpt>
      <trkpt lat="43.35722" lon="5.9904">
        <ele>639</ele>
        <time>2019-12-17T09:06:19.000Z</time>
      </trkpt>
      <trkpt lat="43.35722" lon="5.9904">
        <ele>639</ele>
        <time>2019-12-17T09:06:20.000Z</time>
      </trkpt>
      <trkpt lat="43.35722" lon="5.9904">
        <ele>639</ele>
        <time>2019-12-17T09:06:21.000Z</time>
      </trkpt>
      <trkpt lat="43.35722" lon="5.9904">
        <ele>639</ele>
        <time>2019-12-17T09:06:22.000Z</time>
      </trkpt>
      <trkpt lat="43.35722" lon="5.9904">
        <ele>639</ele>
        <time>2019-12-17T09:06:23.000Z</time>
      </trkpt>
      <trkpt lat="43.35722" lon="5.9904">
        <ele>639</ele>
        <time>2019-12-17T09:06:24.000Z</time>
      </trkpt>
      <trkpt lat="43.35722" lon="5.9904">
        <ele>639</ele>
        <time>2019-12-17T09:06:25.000Z</time>
      </trkpt>
      <trkpt lat="43.35722" lon="5.9904">
        <ele>639</ele>
        <time>2019-12-17T09:06:26.000Z</time>
      </trkpt>
      <trkpt lat="43.35722" lon="5.9904">
        <ele>639</ele>
        <time>2019-12-17T09:06:27.000Z</time>
      </trkpt>
      <trkpt lat="43.35722" lon="5.9904">
        <ele>639</ele>
        <time>2019-12-17T09:06:28.000Z</time>
      </trkpt>
      <trkpt lat="43.35722" lon="5.9904">
        <ele>639</ele>
        <time>2019-12-17T09:06:29.000Z</time>
      </trkpt>
      <trkpt lat="43.35722" lon="5.9904">
        <ele>639</ele>
        <time>2019-12-17T09:06:30.000Z</time>
      </trkpt>
      <trkpt lat="43.35722" lon="5.9904">
        <ele>639</ele>
        <time>2019-12-17T09:06:31.000Z</time>
      </trkpt>
      <trkpt lat="43.35722" lon="5.9904">
        <ele>639</ele>
        <time>2019-12-17T09:06:32.000Z</time>
      </trkpt>
      <trkpt lat="43.35722" lon="5.9904">
        <ele>639</ele>
        <time>2019-12-17T09:06:33.000Z</time>
      </trkpt>
      <trkpt lat="43.35722" lon="5.9904">
        <ele>639</ele>
        <time>2019-12-17T09:06:34.000Z</time>
      </trkpt>
      <trkpt lat="43.35722" lon="5.9904">
        <ele>639</ele>
        <time>2019-12-17T09:06:35.000Z</time>
      </trkpt>
      <trkpt lat="43.35722" lon="5.9904">
        <ele>639</ele>
        <time>2019-12-17T09:06:36.000Z</time>
      </trkpt>
      <trkpt lat="43.35722" lon="5.9904">
        <ele>639</ele>
        <time>2019-12-17T09:06:37.000Z</time>
      </trkpt>
      <trkpt lat="43.35722" lon="5.9904">
        <ele>639</ele>
        <time>2019-12-17T09:06:38.000Z</time>
      </trkpt>
      <trkpt lat="43.35722" lon="5.9904">
        <ele>639</ele>
        <time>2019-12-17T09:06:39.000Z</time>
      </trkpt>
      <trkpt lat="43.35722" lon="5.9904">
        <ele>639</ele>
        <time>2019-12-17T09:06:40.000Z</time>
      </trkpt>
      <trkpt lat="43.35722" lon="5.9904">
        <ele>639</ele>
        <time>2019-12-17T09:06:41.000Z</time>
      </trkpt>
      <trkpt lat="43.35722" lon="5.9904">
        <ele>639</ele>
        <time>2019-12-17T09:06:42.000Z</time>
      </trkpt>
      <trkpt lat="43.35722" lon="5.99039">
        <ele>639</ele>
        <time>2019-12-17T09:06:43.000Z</time>
      </trkpt>
      <trkpt lat="43.35722" lon="5.99039">
        <ele>639</ele>
        <time>2019-12-17T09:06:44.000Z</time>
      </trkpt>
      <trkpt lat="43.35722" lon="5.99037">
        <ele>639</ele>
        <time>2019-12-17T09:06:45.000Z</time>
      </trkpt>
      <trkpt lat="43.35722" lon="5.99036">
        <ele>639</ele>
        <time>2019-12-17T09:06:46.000Z</time>
      </trkpt>
      <trkpt lat="43.35722" lon="5.99036">
        <ele>639</ele>
        <time>2019-12-17T09:06:47.000Z</time>
      </trkpt>
      <trkpt lat="43.35722" lon="5.99036">
        <ele>639</ele>
        <time>2019-12-17T09:06:48.000Z</time>
      </trkpt>
      <trkpt lat="43.35722" lon="5.99036">
        <ele>640</ele>
        <time>2019-12-17T09:06:49.000Z</time>
      </trkpt>
      <trkpt lat="43.35722" lon="5.99036">
        <ele>640</ele>
        <time>2019-12-17T09:06:50.000Z</time>
      </trkpt>
      <trkpt lat="43.35721" lon="5.99035">
        <ele>640</ele>
        <time>2019-12-17T09:06:51.000Z</time>
      </trkpt>
      <trkpt lat="43.35721" lon="5.99034">
        <ele>640</ele>
        <time>2019-12-17T09:06:52.000Z</time>
      </trkpt>
      <trkpt lat="43.35721" lon="5.99034">
        <ele>640</ele>
        <time>2019-12-17T09:06:53.000Z</time>
      </trkpt>
      <trkpt lat="43.35721" lon="5.99034">
        <ele>640</ele>
        <time>2019-12-17T09:06:54.000Z</time>
      </trkpt>
      <trkpt lat="43.3572" lon="5.99033">
        <ele>640</ele>
        <time>2019-12-17T09:06:55.000Z</time>
      </trkpt>
      <trkpt lat="43.3572" lon="5.99033">
        <ele>640</ele>
        <time>2019-12-17T09:06:56.000Z</time>
      </trkpt>
      <trkpt lat="43.3572" lon="5.99033">
        <ele>640</ele>
        <time>2019-12-17T09:06:57.000Z</time>
      </trkpt>
      <trkpt lat="43.3572" lon="5.99032">
        <ele>640</ele>
        <time>2019-12-17T09:06:58.000Z</time>
      </trkpt>
      <trkpt lat="43.3572" lon="5.99032">
        <ele>640</ele>
        <time>2019-12-17T09:06:59.000Z</time>
      </trkpt>
      <trkpt lat="43.3572" lon="5.99032">
        <ele>640</ele>
        <time>2019-12-17T09:07:00.000Z</time>
      </trkpt>
      <trkpt lat="43.3572" lon="5.99032">
        <ele>640</ele>
        <time>2019-12-17T09:07:01.000Z</time>
      </trkpt>
      <trkpt lat="43.3572" lon="5.99032">
        <ele>640</ele>
        <time>2019-12-17T09:07:02.000Z</time>
      </trkpt>
      <trkpt lat="43.3572" lon="5.99032">
        <ele>640</ele>
        <time>2019-12-17T09:07:03.000Z</time>
      </trkpt>
      <trkpt lat="43.3572" lon="5.99032">
        <ele>640</ele>
        <time>2019-12-17T09:07:04.000Z</time>
      </trkpt>
      <trkpt lat="43.35719" lon="5.99032">
        <ele>640</ele>
        <time>2019-12-17T09:07:05.000Z</time>
      </trkpt>
      <trkpt lat="43.35719" lon="5.99032">
        <ele>640</ele>
        <time>2019-12-17T09:07:06.000Z</time>
      </trkpt>
      <trkpt lat="43.35719" lon="5.99031">
        <ele>640</ele>
        <time>2019-12-17T09:07:07.000Z</time>
      </trkpt>
      <trkpt lat="43.35718" lon="5.9903">
        <ele>640</ele>
        <time>2019-12-17T09:07:08.000Z</time>
      </trkpt>
      <trkpt lat="43.35718" lon="5.9903">
        <ele>640</ele>
        <time>2019-12-17T09:07:09.000Z</time>
      </trkpt>
      <trkpt lat="43.35718" lon="5.9903">
        <ele>641</ele>
        <time>2019-12-17T09:07:10.000Z</time>
      </trkpt>
      <trkpt lat="43.35718" lon="5.9903">
        <ele>641</ele>
        <time>2019-12-17T09:07:11.000Z</time>
      </trkpt>
      <trkpt lat="43.35718" lon="5.9903">
        <ele>641</ele>
        <time>2019-12-17T09:07:12.000Z</time>
      </trkpt>
      <trkpt lat="43.35718" lon="5.9903">
        <ele>641</ele>
        <time>2019-12-17T09:07:13.000Z</time>
      </trkpt>
      <trkpt lat="43.35718" lon="5.9903">
        <ele>641</ele>
        <time>2019-12-17T09:07:14.000Z</time>
      </trkpt>
      <trkpt lat="43.35718" lon="5.9903">
        <ele>641</ele>
        <time>2019-12-17T09:07:15.000Z</time>
      </trkpt>
      <trkpt lat="43.35718" lon="5.9903">
        <ele>641</ele>
        <time>2019-12-17T09:07:16.000Z</time>
      </trkpt>
      <trkpt lat="43.35718" lon="5.9903">
        <ele>641</ele>
        <time>2019-12-17T09:07:17.000Z</time>
      </trkpt>
      <trkpt lat="43.35718" lon="5.9903">
        <ele>641</ele>
        <time>2019-12-17T09:07:18.000Z</time>
      </trkpt>
      <trkpt lat="43.35717" lon="5.9903">
        <ele>641</ele>
        <time>2019-12-17T09:07:19.000Z</time>
      </trkpt>
      <trkpt lat="43.35717" lon="5.9903">
        <ele>641</ele>
        <time>2019-12-17T09:07:20.000Z</time>
      </trkpt>
      <trkpt lat="43.35717" lon="5.99029">
        <ele>641</ele>
        <time>2019-12-17T09:07:21.000Z</time>
      </trkpt>
      <trkpt lat="43.35717" lon="5.99029">
        <ele>641</ele>
        <time>2019-12-17T09:07:22.000Z</time>
      </trkpt>
      <trkpt lat="43.35717" lon="5.99028">
        <ele>641</ele>
        <time>2019-12-17T09:07:23.000Z</time>
      </trkpt>
      <trkpt lat="43.35717" lon="5.99027">
        <ele>641</ele>
        <time>2019-12-17T09:07:24.000Z</time>
      </trkpt>
      <trkpt lat="43.35717" lon="5.99027">
        <ele>641</ele>
        <time>2019-12-17T09:07:25.000Z</time>
      </trkpt>
      <trkpt lat="43.35717" lon="5.99027">
        <ele>641</ele>
        <time>2019-12-17T09:07:26.000Z</time>
      </trkpt>
      <trkpt lat="43.35717" lon="5.99026">
        <ele>641</ele>
        <time>2019-12-17T09:07:27.000Z</time>
      </trkpt>
      <trkpt lat="43.35718" lon="5.99026">
        <ele>641</ele>
        <time>2019-12-17T09:07:28.000Z</time>
      </trkpt>
      <trkpt lat="43.35718" lon="5.99026">
        <ele>642</ele>
        <time>2019-12-17T09:07:29.000Z</time>
      </trkpt>
      <trkpt lat="43.35718" lon="5.99026">
        <ele>642</ele>
        <time>2019-12-17T09:07:30.000Z</time>
      </trkpt>
      <trkpt lat="43.35717" lon="5.99026">
        <ele>642</ele>
        <time>2019-12-17T09:07:31.000Z</time>
      </trkpt>
      <trkpt lat="43.35717" lon="5.99026">
        <ele>642</ele>
        <time>2019-12-17T09:07:32.000Z</time>
      </trkpt>
      <trkpt lat="43.35717" lon="5.99026">
        <ele>642</ele>
        <time>2019-12-17T09:07:33.000Z</time>
      </trkpt>
      <trkpt lat="43.35717" lon="5.99026">
        <ele>642</ele>
        <time>2019-12-17T09:07:34.000Z</time>
      </trkpt>
      <trkpt lat="43.35717" lon="5.99026">
        <ele>642</ele>
        <time>2019-12-17T09:07:35.000Z</time>
      </trkpt>
      <trkpt lat="43.35717" lon="5.99026">
        <ele>642</ele>
        <time>2019-12-17T09:07:36.000Z</time>
      </trkpt>
      <trkpt lat="43.35717" lon="5.99026">
        <ele>642</ele>
        <time>2019-12-17T09:07:37.000Z</time>
      </trkpt>
      <trkpt lat="43.35717" lon="5.99026">
        <ele>642</ele>
        <time>2019-12-17T09:07:38.000Z</time>
      </trkpt>
      <trkpt lat="43.35717" lon="5.99026">
        <ele>642</ele>
        <time>2019-12-17T09:07:39.000Z</time>
      </trkpt>
      <trkpt lat="43.35717" lon="5.99026">
        <ele>642</ele>
        <time>2019-12-17T09:07:40.000Z</time>
      </trkpt>
      <trkpt lat="43.35717" lon="5.99026">
        <ele>642</ele>
        <time>2019-12-17T09:07:41.000Z</time>
      </trkpt>
      <trkpt lat="43.35717" lon="5.99025">
        <ele>642</ele>
        <time>2019-12-17T09:07:42.000Z</time>
      </trkpt>
      <trkpt lat="43.35717" lon="5.99025">
        <ele>642</ele>
        <time>2019-12-17T09:07:43.000Z</time>
      </trkpt>
      <trkpt lat="43.35716" lon="5.99024">
        <ele>642</ele>
        <time>2019-12-17T09:07:44.000Z</time>
      </trkpt>
      <trkpt lat="43.35716" lon="5.99024">
        <ele>642</ele>
        <time>2019-12-17T09:07:45.000Z</time>
      </trkpt>
      <trkpt lat="43.35716" lon="5.99023">
        <ele>642</ele>
        <time>2019-12-17T09:07:46.000Z</time>
      </trkpt>
      <trkpt lat="43.35716" lon="5.99023">
        <ele>642</ele>
        <time>2019-12-17T09:07:47.000Z</time>
      </trkpt>
      <trkpt lat="43.35716" lon="5.99023">
        <ele>642</ele>
        <time>2019-12-17T09:07:48.000Z</time>
      </trkpt>
      <trkpt lat="43.35716" lon="5.99022">
        <ele>642</ele>
        <time>2019-12-17T09:07:49.000Z</time>
      </trkpt>
      <trkpt lat="43.35716" lon="5.99022">
        <ele>643</ele>
        <time>2019-12-17T09:07:50.000Z</time>
      </trkpt>
      <trkpt lat="43.35716" lon="5.99022">
        <ele>643</ele>
        <time>2019-12-17T09:07:51.000Z</time>
      </trkpt>
      <trkpt lat="43.35716" lon="5.99021">
        <ele>643</ele>
        <time>2019-12-17T09:07:52.000Z</time>
      </trkpt>
      <trkpt lat="43.35716" lon="5.9902">
        <ele>643</ele>
        <time>2019-12-17T09:07:53.000Z</time>
      </trkpt>
      <trkpt lat="43.35716" lon="5.9902">
        <ele>643</ele>
        <time>2019-12-17T09:07:54.000Z</time>
      </trkpt>
      <trkpt lat="43.35716" lon="5.9902">
        <ele>643</ele>
        <time>2019-12-17T09:07:55.000Z</time>
      </trkpt>
      <trkpt lat="43.35715" lon="5.99019">
        <ele>643</ele>
        <time>2019-12-17T09:07:56.000Z</time>
      </trkpt>
      <trkpt lat="43.35715" lon="5.99019">
        <ele>643</ele>
        <time>2019-12-17T09:07:57.000Z</time>
      </trkpt>
      <trkpt lat="43.35715" lon="5.99019">
        <ele>643</ele>
        <time>2019-12-17T09:07:58.000Z</time>
      </trkpt>
      <trkpt lat="43.35715" lon="5.99019">
        <ele>644</ele>
        <time>2019-12-17T09:07:59.000Z</time>
      </trkpt>
      <trkpt lat="43.35715" lon="5.99019">
        <ele>644</ele>
        <time>2019-12-17T09:08:00.000Z</time>
      </trkpt>
      <trkpt lat="43.35715" lon="5.99018">
        <ele>644</ele>
        <time>2019-12-17T09:08:01.000Z</time>
      </trkpt>
      <trkpt lat="43.35715" lon="5.99018">
        <ele>644</ele>
        <time>2019-12-17T09:08:02.000Z</time>
      </trkpt>
      <trkpt lat="43.35715" lon="5.99018">
        <ele>644</ele>
        <time>2019-12-17T09:08:03.000Z</time>
      </trkpt>
      <trkpt lat="43.35715" lon="5.99018">
        <ele>644</ele>
        <time>2019-12-17T09:08:04.000Z</time>
      </trkpt>
      <trkpt lat="43.35715" lon="5.99018">
        <ele>644</ele>
        <time>2019-12-17T09:08:05.000Z</time>
      </trkpt>
      <trkpt lat="43.35715" lon="5.99018">
        <ele>644</ele>
        <time>2019-12-17T09:08:06.000Z</time>
      </trkpt>
      <trkpt lat="43.35715" lon="5.99018">
        <ele>644</ele>
        <time>2019-12-17T09:08:07.000Z</time>
      </trkpt>
      <trkpt lat="43.35715" lon="5.99018">
        <ele>644</ele>
        <time>2019-12-17T09:08:08.000Z</time>
      </trkpt>
      <trkpt lat="43.35715" lon="5.99018">
        <ele>644</ele>
        <time>2019-12-17T09:08:09.000Z</time>
      </trkpt>
      <trkpt lat="43.35715" lon="5.99018">
        <ele>644</ele>
        <time>2019-12-17T09:08:10.000Z</time>
      </trkpt>
      <trkpt lat="43.35715" lon="5.99018">
        <ele>644</ele>
        <time>2019-12-17T09:08:11.000Z</time>
      </trkpt>
      <trkpt lat="43.35715" lon="5.99018">
        <ele>644</ele>
        <time>2019-12-17T09:08:12.000Z</time>
      </trkpt>
      <trkpt lat="43.35715" lon="5.99018">
        <ele>644</ele>
        <time>2019-12-17T09:08:13.000Z</time>
      </trkpt>
      <trkpt lat="43.35715" lon="5.99018">
        <ele>645</ele>
        <time>2019-12-17T09:08:14.000Z</time>
      </trkpt>
      <trkpt lat="43.35715" lon="5.99018">
        <ele>645</ele>
        <time>2019-12-17T09:08:15.000Z</time>
      </trkpt>
      <trkpt lat="43.35715" lon="5.99018">
        <ele>645</ele>
        <time>2019-12-17T09:08:16.000Z</time>
      </trkpt>
      <trkpt lat="43.35715" lon="5.99018">
        <ele>645</ele>
        <time>2019-12-17T09:08:17.000Z</time>
      </trkpt>
      <trkpt lat="43.35715" lon="5.99018">
        <ele>645</ele>
        <time>2019-12-17T09:08:18.000Z</time>
      </trkpt>
      <trkpt lat="43.35715" lon="5.99018">
        <ele>645</ele>
        <time>2019-12-17T09:08:19.000Z</time>
      </trkpt>
      <trkpt lat="43.35715" lon="5.99018">
        <ele>645</ele>
        <time>2019-12-17T09:08:20.000Z</time>
      </trkpt>
      <trkpt lat="43.35715" lon="5.99018">
        <ele>645</ele>
        <time>2019-12-17T09:08:21.000Z</time>
      </trkpt>
      <trkpt lat="43.35715" lon="5.99018">
        <ele>645</ele>
        <time>2019-12-17T09:08:22.000Z</time>
      </trkpt>
      <trkpt lat="43.35715" lon="5.99018">
        <ele>645</ele>
        <time>2019-12-17T09:08:23.000Z</time>
      </trkpt>
      <trkpt lat="43.35715" lon="5.99018">
        <ele>645</ele>
        <time>2019-12-17T09:08:24.000Z</time>
      </trkpt>
      <trkpt lat="43.35715" lon="5.99018">
        <ele>645</ele>
        <time>2019-12-17T09:08:25.000Z</time>
      </trkpt>
      <trkpt lat="43.35715" lon="5.99018">
        <ele>645</ele>
        <time>2019-12-17T09:08:26.000Z</time>
      </trkpt>
      <trkpt lat="43.35714" lon="5.99018">
        <ele>645</ele>
        <time>2019-12-17T09:08:27.000Z</time>
      </trkpt>
      <trkpt lat="43.35714" lon="5.99017">
        <ele>645</ele>
        <time>2019-12-17T09:08:28.000Z</time>
      </trkpt>
      <trkpt lat="43.35714" lon="5.99017">
        <ele>645</ele>
        <time>2019-12-17T09:08:29.000Z</time>
      </trkpt>
      <trkpt lat="43.35715" lon="5.99016">
        <ele>645</ele>
        <time>2019-12-17T09:08:30.000Z</time>
      </trkpt>
      <trkpt lat="43.35715" lon="5.99016">
        <ele>645</ele>
        <time>2019-12-17T09:08:31.000Z</time>
      </trkpt>
      <trkpt lat="43.35715" lon="5.99016">
        <ele>645</ele>
        <time>2019-12-17T09:08:32.000Z</time>
      </trkpt>
      <trkpt lat="43.35715" lon="5.99015">
        <ele>645</ele>
        <time>2019-12-17T09:08:33.000Z</time>
      </trkpt>
      <trkpt lat="43.35715" lon="5.99015">
        <ele>645</ele>
        <time>2019-12-17T09:08:34.000Z</time>
      </trkpt>
      <trkpt lat="43.35715" lon="5.99015">
        <ele>645</ele>
        <time>2019-12-17T09:08:35.000Z</time>
      </trkpt>
      <trkpt lat="43.35715" lon="5.99015">
        <ele>645</ele>
        <time>2019-12-17T09:08:36.000Z</time>
      </trkpt>
      <trkpt lat="43.35715" lon="5.99015">
        <ele>645</ele>
        <time>2019-12-17T09:08:37.000Z</time>
      </trkpt>
      <trkpt lat="43.35715" lon="5.99015">
        <ele>645</ele>
        <time>2019-12-17T09:08:38.000Z</time>
      </trkpt>
      <trkpt lat="43.35715" lon="5.99015">
        <ele>645</ele>
        <time>2019-12-17T09:08:39.000Z</time>
      </trkpt>
      <trkpt lat="43.35715" lon="5.99015">
        <ele>645</ele>
        <time>2019-12-17T09:08:40.000Z</time>
      </trkpt>
      <trkpt lat="43.35715" lon="5.99015">
        <ele>645</ele>
        <time>2019-12-17T09:08:41.000Z</time>
      </trkpt>
      <trkpt lat="43.35715" lon="5.99015">
        <ele>645</ele>
        <time>2019-12-17T09:08:42.000Z</time>
      </trkpt>
      <trkpt lat="43.35715" lon="5.99015">
        <ele>646</ele>
        <time>2019-12-17T09:08:43.000Z</time>
      </trkpt>
      <trkpt lat="43.35715" lon="5.99015">
        <ele>646</ele>
        <time>2019-12-17T09:08:44.000Z</time>
      </trkpt>
      <trkpt lat="43.35715" lon="5.99015">
        <ele>646</ele>
        <time>2019-12-17T09:08:45.000Z</time>
      </trkpt>
      <trkpt lat="43.35715" lon="5.99015">
        <ele>646</ele>
        <time>2019-12-17T09:08:46.000Z</time>
      </trkpt>
      <trkpt lat="43.35716" lon="5.99015">
        <ele>646</ele>
        <time>2019-12-17T09:08:47.000Z</time>
      </trkpt>
      <trkpt lat="43.35716" lon="5.99014">
        <ele>646</ele>
        <time>2019-12-17T09:08:48.000Z</time>
      </trkpt>
      <trkpt lat="43.35717" lon="5.99013">
        <ele>646</ele>
        <time>2019-12-17T09:08:49.000Z</time>
      </trkpt>
      <trkpt lat="43.35717" lon="5.99013">
        <ele>646</ele>
        <time>2019-12-17T09:08:50.000Z</time>
      </trkpt>
      <trkpt lat="43.35719" lon="5.99013">
        <ele>646</ele>
        <time>2019-12-17T09:08:51.000Z</time>
      </trkpt>
      <trkpt lat="43.35719" lon="5.99013">
        <ele>646</ele>
        <time>2019-12-17T09:08:52.000Z</time>
      </trkpt>
      <trkpt lat="43.35719" lon="5.99013">
        <ele>646</ele>
        <time>2019-12-17T09:08:53.000Z</time>
      </trkpt>
      <trkpt lat="43.3572" lon="5.99012">
        <ele>646</ele>
        <time>2019-12-17T09:08:54.000Z</time>
      </trkpt>
      <trkpt lat="43.3572" lon="5.99012">
        <ele>646</ele>
        <time>2019-12-17T09:08:55.000Z</time>
      </trkpt>
      <trkpt lat="43.35721" lon="5.99011">
        <ele>646</ele>
        <time>2019-12-17T09:08:56.000Z</time>
      </trkpt>
      <trkpt lat="43.35721" lon="5.99011">
        <ele>646</ele>
        <time>2019-12-17T09:08:57.000Z</time>
      </trkpt>
      <trkpt lat="43.35721" lon="5.9901">
        <ele>646</ele>
        <time>2019-12-17T09:08:58.000Z</time>
      </trkpt>
      <trkpt lat="43.35722" lon="5.9901">
        <ele>646</ele>
        <time>2019-12-17T09:08:59.000Z</time>
      </trkpt>
      <trkpt lat="43.35722" lon="5.9901">
        <ele>646</ele>
        <time>2019-12-17T09:09:00.000Z</time>
      </trkpt>
      <trkpt lat="43.35722" lon="5.99009">
        <ele>646</ele>
        <time>2019-12-17T09:09:01.000Z</time>
      </trkpt>
      <trkpt lat="43.35722" lon="5.99009">
        <ele>646</ele>
        <time>2019-12-17T09:09:02.000Z</time>
      </trkpt>
      <trkpt lat="43.35722" lon="5.99009">
        <ele>646</ele>
        <time>2019-12-17T09:09:03.000Z</time>
      </trkpt>
      <trkpt lat="43.35722" lon="5.99009">
        <ele>646</ele>
        <time>2019-12-17T09:09:04.000Z</time>
      </trkpt>
      <trkpt lat="43.35722" lon="5.99009">
        <ele>646</ele>
        <time>2019-12-17T09:09:05.000Z</time>
      </trkpt>
      <trkpt lat="43.35722" lon="5.99009">
        <ele>646</ele>
        <time>2019-12-17T09:09:06.000Z</time>
      </trkpt>
      <trkpt lat="43.35722" lon="5.99009">
        <ele>646</ele>
        <time>2019-12-17T09:09:07.000Z</time>
      </trkpt>
      <trkpt lat="43.35722" lon="5.99009">
        <ele>646</ele>
        <time>2019-12-17T09:09:08.000Z</time>
      </trkpt>
      <trkpt lat="43.35722" lon="5.99009">
        <ele>646</ele>
        <time>2019-12-17T09:09:09.000Z</time>
      </trkpt>
      <trkpt lat="43.35721" lon="5.99009">
        <ele>646</ele>
        <time>2019-12-17T09:09:10.000Z</time>
      </trkpt>
      <trkpt lat="43.35721" lon="5.99009">
        <ele>646</ele>
        <time>2019-12-17T09:09:11.000Z</time>
      </trkpt>
      <trkpt lat="43.35721" lon="5.99009">
        <ele>646</ele>
        <time>2019-12-17T09:09:12.000Z</time>
      </trkpt>
      <trkpt lat="43.35721" lon="5.99009">
        <ele>646</ele>
        <time>2019-12-17T09:09:13.000Z</time>
      </trkpt>
      <trkpt lat="43.35721" lon="5.99009">
        <ele>646</ele>
        <time>2019-12-17T09:09:14.000Z</time>
      </trkpt>
      <trkpt lat="43.35721" lon="5.99009">
        <ele>646</ele>
        <time>2019-12-17T09:09:15.000Z</time>
      </trkpt>
      <trkpt lat="43.35722" lon="5.99008">
        <ele>647</ele>
        <time>2019-12-17T09:09:16.000Z</time>
      </trkpt>
      <trkpt lat="43.35722" lon="5.99008">
        <ele>647</ele>
        <time>2019-12-17T09:09:17.000Z</time>
      </trkpt>
      <trkpt lat="43.35721" lon="5.99008">
        <ele>647</ele>
        <time>2019-12-17T09:09:18.000Z</time>
      </trkpt>
      <trkpt lat="43.35721" lon="5.99008">
        <ele>647</ele>
        <time>2019-12-17T09:09:19.000Z</time>
      </trkpt>
      <trkpt lat="43.35722" lon="5.99008">
        <ele>647</ele>
        <time>2019-12-17T09:09:20.000Z</time>
      </trkpt>
      <trkpt lat="43.35722" lon="5.99008">
        <ele>647</ele>
        <time>2019-12-17T09:09:21.000Z</time>
      </trkpt>
      <trkpt lat="43.35722" lon="5.99008">
        <ele>647</ele>
        <time>2019-12-17T09:09:22.000Z</time>
      </trkpt>
      <trkpt lat="43.35722" lon="5.99008">
        <ele>647</ele>
        <time>2019-12-17T09:09:23.000Z</time>
      </trkpt>
      <trkpt lat="43.35723" lon="5.99007">
        <ele>647</ele>
        <time>2019-12-17T09:09:24.000Z</time>
      </trkpt>
      <trkpt lat="43.35723" lon="5.99007">
        <ele>647</ele>
        <time>2019-12-17T09:09:25.000Z</time>
      </trkpt>
      <trkpt lat="43.35723" lon="5.99007">
        <ele>647</ele>
        <time>2019-12-17T09:09:26.000Z</time>
      </trkpt>
      <trkpt lat="43.35724" lon="5.99007">
        <ele>647</ele>
        <time>2019-12-17T09:09:27.000Z</time>
      </trkpt>
      <trkpt lat="43.35725" lon="5.99007">
        <ele>647</ele>
        <time>2019-12-17T09:09:28.000Z</time>
      </trkpt>
      <trkpt lat="43.35725" lon="5.99007">
        <ele>647</ele>
        <time>2019-12-17T09:09:29.000Z</time>
      </trkpt>
      <trkpt lat="43.35726" lon="5.99007">
        <ele>647</ele>
        <time>2019-12-17T09:09:30.000Z</time>
      </trkpt>
      <trkpt lat="43.35726" lon="5.99007">
        <ele>647</ele>
        <time>2019-12-17T09:09:31.000Z</time>
      </trkpt>
      <trkpt lat="43.35726" lon="5.99007">
        <ele>647</ele>
        <time>2019-12-17T09:09:32.000Z</time>
      </trkpt>
      <trkpt lat="43.35727" lon="5.99007">
        <ele>647</ele>
        <time>2019-12-17T09:09:33.000Z</time>
      </trkpt>
      <trkpt lat="43.35727" lon="5.99007">
        <ele>647</ele>
        <time>2019-12-17T09:09:34.000Z</time>
      </trkpt>
      <trkpt lat="43.35727" lon="5.99007">
        <ele>647</ele>
        <time>2019-12-17T09:09:35.000Z</time>
      </trkpt>
      <trkpt lat="43.35728" lon="5.99006">
        <ele>647</ele>
        <time>2019-12-17T09:09:36.000Z</time>
      </trkpt>
      <trkpt lat="43.35728" lon="5.99006">
        <ele>647</ele>
        <time>2019-12-17T09:09:37.000Z</time>
      </trkpt>
      <trkpt lat="43.3573" lon="5.99005">
        <ele>647</ele>
        <time>2019-12-17T09:09:38.000Z</time>
      </trkpt>
      <trkpt lat="43.3573" lon="5.99005">
        <ele>647</ele>
        <time>2019-12-17T09:09:39.000Z</time>
      </trkpt>
      <trkpt lat="43.3573" lon="5.99005">
        <ele>647</ele>
        <time>2019-12-17T09:09:40.000Z</time>
      </trkpt>
      <trkpt lat="43.35731" lon="5.99005">
        <ele>647</ele>
        <time>2019-12-17T09:09:41.000Z</time>
      </trkpt>
      <trkpt lat="43.35732" lon="5.99005">
        <ele>647</ele>
        <time>2019-12-17T09:09:42.000Z</time>
      </trkpt>
      <trkpt lat="43.35732" lon="5.99005">
        <ele>648</ele>
        <time>2019-12-17T09:09:43.000Z</time>
      </trkpt>
      <trkpt lat="43.35732" lon="5.99005">
        <ele>648</ele>
        <time>2019-12-17T09:09:44.000Z</time>
      </trkpt>
      <trkpt lat="43.35732" lon="5.99005">
        <ele>648</ele>
        <time>2019-12-17T09:09:45.000Z</time>
      </trkpt>
      <trkpt lat="43.35733" lon="5.99005">
        <ele>648</ele>
        <time>2019-12-17T09:09:46.000Z</time>
      </trkpt>
      <trkpt lat="43.35734" lon="5.99005">
        <ele>648</ele>
        <time>2019-12-17T09:09:47.000Z</time>
      </trkpt>
      <trkpt lat="43.35735" lon="5.99004">
        <ele>648</ele>
        <time>2019-12-17T09:09:48.000Z</time>
      </trkpt>
      <trkpt lat="43.35735" lon="5.99004">
        <ele>648</ele>
        <time>2019-12-17T09:09:49.000Z</time>
      </trkpt>
      <trkpt lat="43.35735" lon="5.99004">
        <ele>648</ele>
        <time>2019-12-17T09:09:50.000Z</time>
      </trkpt>
      <trkpt lat="43.35735" lon="5.99004">
        <ele>648</ele>
        <time>2019-12-17T09:09:51.000Z</time>
      </trkpt>
      <trkpt lat="43.35735" lon="5.99004">
        <ele>648</ele>
        <time>2019-12-17T09:09:52.000Z</time>
      </trkpt>
      <trkpt lat="43.35735" lon="5.99004">
        <ele>648</ele>
        <time>2019-12-17T09:09:53.000Z</time>
      </trkpt>
      <trkpt lat="43.35736" lon="5.99004">
        <ele>648</ele>
        <time>2019-12-17T09:09:54.000Z</time>
      </trkpt>
      <trkpt lat="43.35736" lon="5.99004">
        <ele>648</ele>
        <time>2019-12-17T09:09:55.000Z</time>
      </trkpt>
      <trkpt lat="43.35736" lon="5.99003">
        <ele>648</ele>
        <time>2019-12-17T09:09:56.000Z</time>
      </trkpt>
      <trkpt lat="43.35736" lon="5.99003">
        <ele>648</ele>
        <time>2019-12-17T09:09:57.000Z</time>
      </trkpt>
      <trkpt lat="43.35736" lon="5.99003">
        <ele>648</ele>
        <time>2019-12-17T09:09:58.000Z</time>
      </trkpt>
      <trkpt lat="43.35736" lon="5.99003">
        <ele>648</ele>
        <time>2019-12-17T09:09:59.000Z</time>
      </trkpt>
      <trkpt lat="43.35736" lon="5.99003">
        <ele>648</ele>
        <time>2019-12-17T09:10:00.000Z</time>
      </trkpt>
      <trkpt lat="43.35736" lon="5.99003">
        <ele>648</ele>
        <time>2019-12-17T09:10:01.000Z</time>
      </trkpt>
      <trkpt lat="43.35736" lon="5.99003">
        <ele>648</ele>
        <time>2019-12-17T09:10:02.000Z</time>
      </trkpt>
      <trkpt lat="43.35737" lon="5.99002">
        <ele>648</ele>
        <time>2019-12-17T09:10:03.000Z</time>
      </trkpt>
      <trkpt lat="43.35738" lon="5.99002">
        <ele>649</ele>
        <time>2019-12-17T09:10:04.000Z</time>
      </trkpt>
      <trkpt lat="43.35739" lon="5.99002">
        <ele>649</ele>
        <time>2019-12-17T09:10:05.000Z</time>
      </trkpt>
      <trkpt lat="43.35739" lon="5.99002">
        <ele>649</ele>
        <time>2019-12-17T09:10:06.000Z</time>
      </trkpt>
      <trkpt lat="43.35739" lon="5.99002">
        <ele>649</ele>
        <time>2019-12-17T09:10:07.000Z</time>
      </trkpt>
      <trkpt lat="43.3574" lon="5.99002">
        <ele>649</ele>
        <time>2019-12-17T09:10:08.000Z</time>
      </trkpt>
      <trkpt lat="43.3574" lon="5.99002">
        <ele>649</ele>
        <time>2019-12-17T09:10:09.000Z</time>
      </trkpt>
      <trkpt lat="43.3574" lon="5.99001">
        <ele>649</ele>
        <time>2019-12-17T09:10:10.000Z</time>
      </trkpt>
      <trkpt lat="43.3574" lon="5.99001">
        <ele>649</ele>
        <time>2019-12-17T09:10:11.000Z</time>
      </trkpt>
      <trkpt lat="43.3574" lon="5.99001">
        <ele>649</ele>
        <time>2019-12-17T09:10:12.000Z</time>
      </trkpt>
      <trkpt lat="43.3574" lon="5.99001">
        <ele>649</ele>
        <time>2019-12-17T09:10:13.000Z</time>
      </trkpt>
      <trkpt lat="43.3574" lon="5.99001">
        <ele>649</ele>
        <time>2019-12-17T09:10:14.000Z</time>
      </trkpt>
      <trkpt lat="43.3574" lon="5.99001">
        <ele>649</ele>
        <time>2019-12-17T09:10:15.000Z</time>
      </trkpt>
      <trkpt lat="43.3574" lon="5.99001">
        <ele>649</ele>
        <time>2019-12-17T09:10:16.000Z</time>
      </trkpt>
      <trkpt lat="43.3574" lon="5.99001">
        <ele>649</ele>
        <time>2019-12-17T09:10:17.000Z</time>
      </trkpt>
      <trkpt lat="43.3574" lon="5.99001">
        <ele>649</ele>
        <time>2019-12-17T09:10:18.000Z</time>
      </trkpt>
      <trkpt lat="43.3574" lon="5.99001">
        <ele>649</ele>
        <time>2019-12-17T09:10:19.000Z</time>
      </trkpt>
      <trkpt lat="43.3574" lon="5.99001">
        <ele>649</ele>
        <time>2019-12-17T09:10:20.000Z</time>
      </trkpt>
      <trkpt lat="43.35741" lon="5.99001">
        <ele>649</ele>
        <time>2019-12-17T09:10:21.000Z</time>
      </trkpt>
      <trkpt lat="43.35742" lon="5.99">
        <ele>649</ele>
        <time>2019-12-17T09:10:22.000Z</time>
      </trkpt>
      <trkpt lat="43.35742" lon="5.98999">
        <ele>649</ele>
        <time>2019-12-17T09:10:23.000Z</time>
      </trkpt>
      <trkpt lat="43.35742" lon="5.98999">
        <ele>649</ele>
        <time>2019-12-17T09:10:24.000Z</time>
      </trkpt>
      <trkpt lat="43.35742" lon="5.98999">
        <ele>649</ele>
        <time>2019-12-17T09:10:25.000Z</time>
      </trkpt>
      <trkpt lat="43.35742" lon="5.98999">
        <ele>649</ele>
        <time>2019-12-17T09:10:26.000Z</time>
      </trkpt>
      <trkpt lat="43.35743" lon="5.98999">
        <ele>649</ele>
        <time>2019-12-17T09:10:27.000Z</time>
      </trkpt>
      <trkpt lat="43.35743" lon="5.98999">
        <ele>649</ele>
        <time>2019-12-17T09:10:28.000Z</time>
      </trkpt>
      <trkpt lat="43.35743" lon="5.98999">
        <ele>649</ele>
        <time>2019-12-17T09:10:29.000Z</time>
      </trkpt>
      <trkpt lat="43.35743" lon="5.98999">
        <ele>649</ele>
        <time>2019-12-17T09:10:30.000Z</time>
      </trkpt>
      <trkpt lat="43.35743" lon="5.98999">
        <ele>650</ele>
        <time>2019-12-17T09:10:31.000Z</time>
      </trkpt>
      <trkpt lat="43.35743" lon="5.98999">
        <ele>650</ele>
        <time>2019-12-17T09:10:32.000Z</time>
      </trkpt>
      <trkpt lat="43.35743" lon="5.98999">
        <ele>650</ele>
        <time>2019-12-17T09:10:33.000Z</time>
      </trkpt>
      <trkpt lat="43.35743" lon="5.98999">
        <ele>650</ele>
        <time>2019-12-17T09:10:34.000Z</time>
      </trkpt>
      <trkpt lat="43.35743" lon="5.98999">
        <ele>650</ele>
        <time>2019-12-17T09:10:35.000Z</time>
      </trkpt>
      <trkpt lat="43.35743" lon="5.98999">
        <ele>650</ele>
        <time>2019-12-17T09:10:36.000Z</time>
      </trkpt>
      <trkpt lat="43.35743" lon="5.98999">
        <ele>650</ele>
        <time>2019-12-17T09:10:37.000Z</time>
      </trkpt>
      <trkpt lat="43.35743" lon="5.98999">
        <ele>650</ele>
        <time>2019-12-17T09:10:38.000Z</time>
      </trkpt>
      <trkpt lat="43.35743" lon="5.98999">
        <ele>650</ele>
        <time>2019-12-17T09:10:39.000Z</time>
      </trkpt>
      <trkpt lat="43.35743" lon="5.98999">
        <ele>650</ele>
        <time>2019-12-17T09:10:40.000Z</time>
      </trkpt>
      <trkpt lat="43.35744" lon="5.98999">
        <ele>649</ele>
        <time>2019-12-17T09:10:41.000Z</time>
      </trkpt>
      <trkpt lat="43.35744" lon="5.98998">
        <ele>649</ele>
        <time>2019-12-17T09:10:42.000Z</time>
      </trkpt>
      <trkpt lat="43.35744" lon="5.98998">
        <ele>649</ele>
        <time>2019-12-17T09:10:43.000Z</time>
      </trkpt>
      <trkpt lat="43.35745" lon="5.98998">
        <ele>649</ele>
        <time>2019-12-17T09:10:44.000Z</time>
      </trkpt>
      <trkpt lat="43.35746" lon="5.98997">
        <ele>649</ele>
        <time>2019-12-17T09:10:45.000Z</time>
      </trkpt>
      <trkpt lat="43.35746" lon="5.98997">
        <ele>649</ele>
        <time>2019-12-17T09:10:46.000Z</time>
      </trkpt>
      <trkpt lat="43.35747" lon="5.98997">
        <ele>649</ele>
        <time>2019-12-17T09:10:47.000Z</time>
      </trkpt>
      <trkpt lat="43.35748" lon="5.98996">
        <ele>649</ele>
        <time>2019-12-17T09:10:48.000Z</time>
      </trkpt>
      <trkpt lat="43.35749" lon="5.98996">
        <ele>649</ele>
        <time>2019-12-17T09:10:49.000Z</time>
      </trkpt>
      <trkpt lat="43.35749" lon="5.98995">
        <ele>649</ele>
        <time>2019-12-17T09:10:50.000Z</time>
      </trkpt>
      <trkpt lat="43.3575" lon="5.98995">
        <ele>649</ele>
        <time>2019-12-17T09:10:51.000Z</time>
      </trkpt>
      <trkpt lat="43.3575" lon="5.98994">
        <ele>649</ele>
        <time>2019-12-17T09:10:52.000Z</time>
      </trkpt>
      <trkpt lat="43.35751" lon="5.98994">
        <ele>649</ele>
        <time>2019-12-17T09:10:53.000Z</time>
      </trkpt>
      <trkpt lat="43.35752" lon="5.98994">
        <ele>649</ele>
        <time>2019-12-17T09:10:54.000Z</time>
      </trkpt>
      <trkpt lat="43.35753" lon="5.98994">
        <ele>649</ele>
        <time>2019-12-17T09:10:55.000Z</time>
      </trkpt>
      <trkpt lat="43.35753" lon="5.98994">
        <ele>649</ele>
        <time>2019-12-17T09:10:56.000Z</time>
      </trkpt>
      <trkpt lat="43.35754" lon="5.98994">
        <ele>649</ele>
        <time>2019-12-17T09:10:57.000Z</time>
      </trkpt>
      <trkpt lat="43.35754" lon="5.98994">
        <ele>649</ele>
        <time>2019-12-17T09:10:58.000Z</time>
      </trkpt>
      <trkpt lat="43.35754" lon="5.98994">
        <ele>649</ele>
        <time>2019-12-17T09:10:59.000Z</time>
      </trkpt>
      <trkpt lat="43.35755" lon="5.98995">
        <ele>649</ele>
        <time>2019-12-17T09:11:00.000Z</time>
      </trkpt>
      <trkpt lat="43.35755" lon="5.98996">
        <ele>649</ele>
        <time>2019-12-17T09:11:01.000Z</time>
      </trkpt>
      <trkpt lat="43.35756" lon="5.98996">
        <ele>649</ele>
        <time>2019-12-17T09:11:02.000Z</time>
      </trkpt>
      <trkpt lat="43.35756" lon="5.98997">
        <ele>649</ele>
        <time>2019-12-17T09:11:03.000Z</time>
      </trkpt>
      <trkpt lat="43.35757" lon="5.98998">
        <ele>649</ele>
        <time>2019-12-17T09:11:04.000Z</time>
      </trkpt>
      <trkpt lat="43.35757" lon="5.98999">
        <ele>649</ele>
        <time>2019-12-17T09:11:05.000Z</time>
      </trkpt>
      <trkpt lat="43.35757" lon="5.99">
        <ele>649</ele>
        <time>2019-12-17T09:11:06.000Z</time>
      </trkpt>
      <trkpt lat="43.35758" lon="5.99001">
        <ele>649</ele>
        <time>2019-12-17T09:11:07.000Z</time>
      </trkpt>
      <trkpt lat="43.35758" lon="5.99001">
        <ele>649</ele>
        <time>2019-12-17T09:11:08.000Z</time>
      </trkpt>
      <trkpt lat="43.35759" lon="5.99002">
        <ele>649</ele>
        <time>2019-12-17T09:11:09.000Z</time>
      </trkpt>
      <trkpt lat="43.35759" lon="5.99003">
        <ele>649</ele>
        <time>2019-12-17T09:11:10.000Z</time>
      </trkpt>
      <trkpt lat="43.3576" lon="5.99004">
        <ele>649</ele>
        <time>2019-12-17T09:11:11.000Z</time>
      </trkpt>
      <trkpt lat="43.3576" lon="5.99004">
        <ele>649</ele>
        <time>2019-12-17T09:11:12.000Z</time>
      </trkpt>
      <trkpt lat="43.3576" lon="5.99004">
        <ele>649</ele>
        <time>2019-12-17T09:11:13.000Z</time>
      </trkpt>
      <trkpt lat="43.35761" lon="5.99005">
        <ele>649</ele>
        <time>2019-12-17T09:11:14.000Z</time>
      </trkpt>
      <trkpt lat="43.35761" lon="5.99005">
        <ele>649</ele>
        <time>2019-12-17T09:11:15.000Z</time>
      </trkpt>
      <trkpt lat="43.35761" lon="5.99005">
        <ele>649</ele>
        <time>2019-12-17T09:11:16.000Z</time>
      </trkpt>
      <trkpt lat="43.35762" lon="5.99006">
        <ele>649</ele>
        <time>2019-12-17T09:11:17.000Z</time>
      </trkpt>
      <trkpt lat="43.35762" lon="5.99007">
        <ele>649</ele>
        <time>2019-12-17T09:11:18.000Z</time>
      </trkpt>
      <trkpt lat="43.35762" lon="5.99008">
        <ele>649</ele>
        <time>2019-12-17T09:11:19.000Z</time>
      </trkpt>
      <trkpt lat="43.35763" lon="5.99009">
        <ele>649</ele>
        <time>2019-12-17T09:11:20.000Z</time>
      </trkpt>
      <trkpt lat="43.35763" lon="5.99009">
        <ele>649</ele>
        <time>2019-12-17T09:11:21.000Z</time>
      </trkpt>
      <trkpt lat="43.35763" lon="5.99009">
        <ele>649</ele>
        <time>2019-12-17T09:11:22.000Z</time>
      </trkpt>
      <trkpt lat="43.35763" lon="5.99009">
        <ele>649</ele>
        <time>2019-12-17T09:11:23.000Z</time>
      </trkpt>
      <trkpt lat="43.35763" lon="5.99009">
        <ele>649</ele>
        <time>2019-12-17T09:11:24.000Z</time>
      </trkpt>
      <trkpt lat="43.35763" lon="5.99009">
        <ele>649</ele>
        <time>2019-12-17T09:11:25.000Z</time>
      </trkpt>
      <trkpt lat="43.35763" lon="5.99009">
        <ele>649</ele>
        <time>2019-12-17T09:11:26.000Z</time>
      </trkpt>
      <trkpt lat="43.35763" lon="5.99009">
        <ele>649</ele>
        <time>2019-12-17T09:11:27.000Z</time>
      </trkpt>
      <trkpt lat="43.35763" lon="5.99009">
        <ele>649</ele>
        <time>2019-12-17T09:11:28.000Z</time>
      </trkpt>
      <trkpt lat="43.35763" lon="5.99009">
        <ele>649</ele>
        <time>2019-12-17T09:11:29.000Z</time>
      </trkpt>
      <trkpt lat="43.35763" lon="5.99009">
        <ele>649</ele>
        <time>2019-12-17T09:11:30.000Z</time>
      </trkpt>
      <trkpt lat="43.35763" lon="5.99009">
        <ele>649</ele>
        <time>2019-12-17T09:11:31.000Z</time>
      </trkpt>
      <trkpt lat="43.35763" lon="5.99009">
        <ele>649</ele>
        <time>2019-12-17T09:11:32.000Z</time>
      </trkpt>
      <trkpt lat="43.35763" lon="5.9901">
        <ele>649</ele>
        <time>2019-12-17T09:11:33.000Z</time>
      </trkpt>
      <trkpt lat="43.35763" lon="5.99009">
        <ele>649</ele>
        <time>2019-12-17T09:11:34.000Z</time>
      </trkpt>
      <trkpt lat="43.35764" lon="5.9901">
        <ele>649</ele>
        <time>2019-12-17T09:11:35.000Z</time>
      </trkpt>
      <trkpt lat="43.35764" lon="5.9901">
        <ele>649</ele>
        <time>2019-12-17T09:11:36.000Z</time>
      </trkpt>
      <trkpt lat="43.35765" lon="5.9901">
        <ele>649</ele>
        <time>2019-12-17T09:11:37.000Z</time>
      </trkpt>
      <trkpt lat="43.35766" lon="5.9901">
        <ele>649</ele>
        <time>2019-12-17T09:11:38.000Z</time>
      </trkpt>
      <trkpt lat="43.35766" lon="5.9901">
        <ele>649</ele>
        <time>2019-12-17T09:11:39.000Z</time>
      </trkpt>
      <trkpt lat="43.35767" lon="5.99011">
        <ele>649</ele>
        <time>2019-12-17T09:11:40.000Z</time>
      </trkpt>
      <trkpt lat="43.35767" lon="5.99012">
        <ele>649</ele>
        <time>2019-12-17T09:11:41.000Z</time>
      </trkpt>
      <trkpt lat="43.35768" lon="5.99012">
        <ele>649</ele>
        <time>2019-12-17T09:11:42.000Z</time>
      </trkpt>
      <trkpt lat="43.35769" lon="5.99013">
        <ele>649</ele>
        <time>2019-12-17T09:11:43.000Z</time>
      </trkpt>
      <trkpt lat="43.3577" lon="5.99014">
        <ele>649</ele>
        <time>2019-12-17T09:11:44.000Z</time>
      </trkpt>
      <trkpt lat="43.3577" lon="5.99015">
        <ele>649</ele>
        <time>2019-12-17T09:11:45.000Z</time>
      </trkpt>
      <trkpt lat="43.35771" lon="5.99016">
        <ele>649</ele>
        <time>2019-12-17T09:11:46.000Z</time>
      </trkpt>
      <trkpt lat="43.35772" lon="5.99017">
        <ele>650</ele>
        <time>2019-12-17T09:11:47.000Z</time>
      </trkpt>
      <trkpt lat="43.35773" lon="5.99018">
        <ele>650</ele>
        <time>2019-12-17T09:11:48.000Z</time>
      </trkpt>
      <trkpt lat="43.35773" lon="5.99018">
        <ele>650</ele>
        <time>2019-12-17T09:11:49.000Z</time>
      </trkpt>
      <trkpt lat="43.35774" lon="5.99019">
        <ele>650</ele>
        <time>2019-12-17T09:11:50.000Z</time>
      </trkpt>
      <trkpt lat="43.35775" lon="5.9902">
        <ele>651</ele>
        <time>2019-12-17T09:11:51.000Z</time>
      </trkpt>
      <trkpt lat="43.35776" lon="5.99021">
        <ele>651</ele>
        <time>2019-12-17T09:11:52.000Z</time>
      </trkpt>
      <trkpt lat="43.35776" lon="5.99021">
        <ele>651</ele>
        <time>2019-12-17T09:11:53.000Z</time>
      </trkpt>
      <trkpt lat="43.35777" lon="5.99022">
        <ele>651</ele>
        <time>2019-12-17T09:11:54.000Z</time>
      </trkpt>
      <trkpt lat="43.35778" lon="5.99023">
        <ele>652</ele>
        <time>2019-12-17T09:11:55.000Z</time>
      </trkpt>
      <trkpt lat="43.35779" lon="5.99023">
        <ele>652</ele>
        <time>2019-12-17T09:11:56.000Z</time>
      </trkpt>
      <trkpt lat="43.3578" lon="5.99024">
        <ele>652</ele>
        <time>2019-12-17T09:11:57.000Z</time>
      </trkpt>
      <trkpt lat="43.3578" lon="5.99025">
        <ele>652</ele>
        <time>2019-12-17T09:11:58.000Z</time>
      </trkpt>
      <trkpt lat="43.35781" lon="5.99025">
        <ele>653</ele>
        <time>2019-12-17T09:11:59.000Z</time>
      </trkpt>
      <trkpt lat="43.35782" lon="5.99026">
        <ele>653</ele>
        <time>2019-12-17T09:12:00.000Z</time>
      </trkpt>
      <trkpt lat="43.35782" lon="5.99027">
        <ele>654</ele>
        <time>2019-12-17T09:12:01.000Z</time>
      </trkpt>
      <trkpt lat="43.35783" lon="5.99027">
        <ele>654</ele>
        <time>2019-12-17T09:12:02.000Z</time>
      </trkpt>
      <trkpt lat="43.35784" lon="5.99028">
        <ele>654</ele>
        <time>2019-12-17T09:12:03.000Z</time>
      </trkpt>
      <trkpt lat="43.35785" lon="5.99028">
        <ele>654</ele>
        <time>2019-12-17T09:12:04.000Z</time>
      </trkpt>
      <trkpt lat="43.35786" lon="5.99029">
        <ele>654</ele>
        <time>2019-12-17T09:12:05.000Z</time>
      </trkpt>
      <trkpt lat="43.35786" lon="5.99029">
        <ele>655</ele>
        <time>2019-12-17T09:12:06.000Z</time>
      </trkpt>
      <trkpt lat="43.35787" lon="5.99029">
        <ele>655</ele>
        <time>2019-12-17T09:12:07.000Z</time>
      </trkpt>
      <trkpt lat="43.35788" lon="5.9903">
        <ele>655</ele>
        <time>2019-12-17T09:12:08.000Z</time>
      </trkpt>
      <trkpt lat="43.35789" lon="5.9903">
        <ele>655</ele>
        <time>2019-12-17T09:12:09.000Z</time>
      </trkpt>
      <trkpt lat="43.35789" lon="5.99031">
        <ele>655</ele>
        <time>2019-12-17T09:12:10.000Z</time>
      </trkpt>
      <trkpt lat="43.3579" lon="5.99032">
        <ele>656</ele>
        <time>2019-12-17T09:12:11.000Z</time>
      </trkpt>
      <trkpt lat="43.35791" lon="5.99032">
        <ele>656</ele>
        <time>2019-12-17T09:12:12.000Z</time>
      </trkpt>
      <trkpt lat="43.35792" lon="5.99032">
        <ele>656</ele>
        <time>2019-12-17T09:12:13.000Z</time>
      </trkpt>
      <trkpt lat="43.35792" lon="5.99033">
        <ele>656</ele>
        <time>2019-12-17T09:12:14.000Z</time>
      </trkpt>
      <trkpt lat="43.35793" lon="5.99034">
        <ele>656</ele>
        <time>2019-12-17T09:12:15.000Z</time>
      </trkpt>
      <trkpt lat="43.35794" lon="5.99034">
        <ele>656</ele>
        <time>2019-12-17T09:12:16.000Z</time>
      </trkpt>
      <trkpt lat="43.35794" lon="5.99034">
        <ele>656</ele>
        <time>2019-12-17T09:12:17.000Z</time>
      </trkpt>
      <trkpt lat="43.35795" lon="5.99034">
        <ele>656</ele>
        <time>2019-12-17T09:12:18.000Z</time>
      </trkpt>
      <trkpt lat="43.35796" lon="5.99035">
        <ele>656</ele>
        <time>2019-12-17T09:12:19.000Z</time>
      </trkpt>
      <trkpt lat="43.35796" lon="5.99035">
        <ele>656</ele>
        <time>2019-12-17T09:12:20.000Z</time>
      </trkpt>
      <trkpt lat="43.35796" lon="5.99035">
        <ele>656</ele>
        <time>2019-12-17T09:12:21.000Z</time>
      </trkpt>
      <trkpt lat="43.35797" lon="5.99036">
        <ele>656</ele>
        <time>2019-12-17T09:12:22.000Z</time>
      </trkpt>
      <trkpt lat="43.35798" lon="5.99036">
        <ele>657</ele>
        <time>2019-12-17T09:12:23.000Z</time>
      </trkpt>
      <trkpt lat="43.35798" lon="5.99036">
        <ele>657</ele>
        <time>2019-12-17T09:12:24.000Z</time>
      </trkpt>
      <trkpt lat="43.35799" lon="5.99036">
        <ele>657</ele>
        <time>2019-12-17T09:12:25.000Z</time>
      </trkpt>
      <trkpt lat="43.35799" lon="5.99036">
        <ele>657</ele>
        <time>2019-12-17T09:12:26.000Z</time>
      </trkpt>
      <trkpt lat="43.358" lon="5.99036">
        <ele>657</ele>
        <time>2019-12-17T09:12:27.000Z</time>
      </trkpt>
      <trkpt lat="43.35801" lon="5.99036">
        <ele>657</ele>
        <time>2019-12-17T09:12:28.000Z</time>
      </trkpt>
      <trkpt lat="43.35802" lon="5.99037">
        <ele>658</ele>
        <time>2019-12-17T09:12:29.000Z</time>
      </trkpt>
      <trkpt lat="43.35803" lon="5.99037">
        <ele>658</ele>
        <time>2019-12-17T09:12:30.000Z</time>
      </trkpt>
      <trkpt lat="43.35804" lon="5.99037">
        <ele>658</ele>
        <time>2019-12-17T09:12:31.000Z</time>
      </trkpt>
      <trkpt lat="43.35805" lon="5.99037">
        <ele>658</ele>
        <time>2019-12-17T09:12:32.000Z</time>
      </trkpt>
      <trkpt lat="43.35806" lon="5.99037">
        <ele>658</ele>
        <time>2019-12-17T09:12:33.000Z</time>
      </trkpt>
      <trkpt lat="43.35807" lon="5.99037">
        <ele>658</ele>
        <time>2019-12-17T09:12:34.000Z</time>
      </trkpt>
      <trkpt lat="43.35807" lon="5.99037">
        <ele>658</ele>
        <time>2019-12-17T09:12:35.000Z</time>
      </trkpt>
      <trkpt lat="43.35808" lon="5.99037">
        <ele>659</ele>
        <time>2019-12-17T09:12:36.000Z</time>
      </trkpt>
      <trkpt lat="43.35809" lon="5.99037">
        <ele>659</ele>
        <time>2019-12-17T09:12:37.000Z</time>
      </trkpt>
      <trkpt lat="43.3581" lon="5.99037">
        <ele>659</ele>
        <time>2019-12-17T09:12:38.000Z</time>
      </trkpt>
      <trkpt lat="43.35811" lon="5.99038">
        <ele>659</ele>
        <time>2019-12-17T09:12:39.000Z</time>
      </trkpt>
      <trkpt lat="43.35812" lon="5.99038">
        <ele>659</ele>
        <time>2019-12-17T09:12:40.000Z</time>
      </trkpt>
      <trkpt lat="43.35813" lon="5.99038">
        <ele>659</ele>
        <time>2019-12-17T09:12:41.000Z</time>
      </trkpt>
      <trkpt lat="43.35814" lon="5.99038">
        <ele>659</ele>
        <time>2019-12-17T09:12:42.000Z</time>
      </trkpt>
      <trkpt lat="43.35815" lon="5.99037">
        <ele>659</ele>
        <time>2019-12-17T09:12:43.000Z</time>
      </trkpt>
      <trkpt lat="43.35816" lon="5.99037">
        <ele>659</ele>
        <time>2019-12-17T09:12:44.000Z</time>
      </trkpt>
      <trkpt lat="43.35816" lon="5.99037">
        <ele>660</ele>
        <time>2019-12-17T09:12:45.000Z</time>
      </trkpt>
      <trkpt lat="43.35817" lon="5.99037">
        <ele>660</ele>
        <time>2019-12-17T09:12:46.000Z</time>
      </trkpt>
      <trkpt lat="43.35818" lon="5.99037">
        <ele>660</ele>
        <time>2019-12-17T09:12:47.000Z</time>
      </trkpt>
      <trkpt lat="43.35818" lon="5.99038">
        <ele>660</ele>
        <time>2019-12-17T09:12:48.000Z</time>
      </trkpt>
      <trkpt lat="43.35819" lon="5.99038">
        <ele>660</ele>
        <time>2019-12-17T09:12:49.000Z</time>
      </trkpt>
      <trkpt lat="43.3582" lon="5.99037">
        <ele>660</ele>
        <time>2019-12-17T09:12:50.000Z</time>
      </trkpt>
      <trkpt lat="43.35821" lon="5.99037">
        <ele>660</ele>
        <time>2019-12-17T09:12:51.000Z</time>
      </trkpt>
      <trkpt lat="43.35821" lon="5.99037">
        <ele>660</ele>
        <time>2019-12-17T09:12:52.000Z</time>
      </trkpt>
      <trkpt lat="43.35822" lon="5.99037">
        <ele>660</ele>
        <time>2019-12-17T09:12:53.000Z</time>
      </trkpt>
      <trkpt lat="43.35823" lon="5.99037">
        <ele>660</ele>
        <time>2019-12-17T09:12:54.000Z</time>
      </trkpt>
      <trkpt lat="43.35824" lon="5.99037">
        <ele>660</ele>
        <time>2019-12-17T09:12:55.000Z</time>
      </trkpt>
      <trkpt lat="43.35825" lon="5.99037">
        <ele>660</ele>
        <time>2019-12-17T09:12:56.000Z</time>
      </trkpt>
      <trkpt lat="43.35826" lon="5.99037">
        <ele>660</ele>
        <time>2019-12-17T09:12:57.000Z</time>
      </trkpt>
      <trkpt lat="43.35827" lon="5.99037">
        <ele>661</ele>
        <time>2019-12-17T09:12:58.000Z</time>
      </trkpt>
      <trkpt lat="43.35828" lon="5.99038">
        <ele>661</ele>
        <time>2019-12-17T09:12:59.000Z</time>
      </trkpt>
      <trkpt lat="43.35828" lon="5.99038">
        <ele>661</ele>
        <time>2019-12-17T09:13:00.000Z</time>
      </trkpt>
      <trkpt lat="43.35829" lon="5.99038">
        <ele>661</ele>
        <time>2019-12-17T09:13:01.000Z</time>
      </trkpt>
      <trkpt lat="43.3583" lon="5.99038">
        <ele>661</ele>
        <time>2019-12-17T09:13:02.000Z</time>
      </trkpt>
      <trkpt lat="43.35831" lon="5.99039">
        <ele>661</ele>
        <time>2019-12-17T09:13:03.000Z</time>
      </trkpt>
      <trkpt lat="43.35832" lon="5.99039">
        <ele>661</ele>
        <time>2019-12-17T09:13:04.000Z</time>
      </trkpt>
      <trkpt lat="43.35833" lon="5.99038">
        <ele>661</ele>
        <time>2019-12-17T09:13:05.000Z</time>
      </trkpt>
      <trkpt lat="43.35834" lon="5.99038">
        <ele>662</ele>
        <time>2019-12-17T09:13:06.000Z</time>
      </trkpt>
      <trkpt lat="43.35835" lon="5.99039">
        <ele>662</ele>
        <time>2019-12-17T09:13:07.000Z</time>
      </trkpt>
      <trkpt lat="43.35836" lon="5.99039">
        <ele>662</ele>
        <time>2019-12-17T09:13:08.000Z</time>
      </trkpt>
      <trkpt lat="43.35837" lon="5.99039">
        <ele>662</ele>
        <time>2019-12-17T09:13:09.000Z</time>
      </trkpt>
      <trkpt lat="43.35837" lon="5.9904">
        <ele>662</ele>
        <time>2019-12-17T09:13:10.000Z</time>
      </trkpt>
      <trkpt lat="43.35838" lon="5.9904">
        <ele>662</ele>
        <time>2019-12-17T09:13:11.000Z</time>
      </trkpt>
      <trkpt lat="43.35839" lon="5.9904">
        <ele>662</ele>
        <time>2019-12-17T09:13:12.000Z</time>
      </trkpt>
      <trkpt lat="43.3584" lon="5.99041">
        <ele>662</ele>
        <time>2019-12-17T09:13:13.000Z</time>
      </trkpt>
      <trkpt lat="43.3584" lon="5.99041">
        <ele>662</ele>
        <time>2019-12-17T09:13:14.000Z</time>
      </trkpt>
      <trkpt lat="43.35841" lon="5.99041">
        <ele>663</ele>
        <time>2019-12-17T09:13:15.000Z</time>
      </trkpt>
      <trkpt lat="43.35842" lon="5.99042">
        <ele>663</ele>
        <time>2019-12-17T09:13:16.000Z</time>
      </trkpt>
      <trkpt lat="43.35843" lon="5.99042">
        <ele>663</ele>
        <time>2019-12-17T09:13:17.000Z</time>
      </trkpt>
      <trkpt lat="43.35844" lon="5.99042">
        <ele>663</ele>
        <time>2019-12-17T09:13:18.000Z</time>
      </trkpt>
      <trkpt lat="43.35844" lon="5.99043">
        <ele>663</ele>
        <time>2019-12-17T09:13:19.000Z</time>
      </trkpt>
      <trkpt lat="43.35845" lon="5.99043">
        <ele>663</ele>
        <time>2019-12-17T09:13:20.000Z</time>
      </trkpt>
      <trkpt lat="43.35846" lon="5.99043">
        <ele>663</ele>
        <time>2019-12-17T09:13:21.000Z</time>
      </trkpt>
      <trkpt lat="43.35847" lon="5.99044">
        <ele>663</ele>
        <time>2019-12-17T09:13:22.000Z</time>
      </trkpt>
      <trkpt lat="43.35847" lon="5.99044">
        <ele>663</ele>
        <time>2019-12-17T09:13:23.000Z</time>
      </trkpt>
      <trkpt lat="43.35848" lon="5.99045">
        <ele>663</ele>
        <time>2019-12-17T09:13:24.000Z</time>
      </trkpt>
      <trkpt lat="43.35849" lon="5.99045">
        <ele>664</ele>
        <time>2019-12-17T09:13:25.000Z</time>
      </trkpt>
      <trkpt lat="43.3585" lon="5.99046">
        <ele>664</ele>
        <time>2019-12-17T09:13:26.000Z</time>
      </trkpt>
      <trkpt lat="43.35851" lon="5.99046">
        <ele>664</ele>
        <time>2019-12-17T09:13:27.000Z</time>
      </trkpt>
      <trkpt lat="43.35851" lon="5.99046">
        <ele>664</ele>
        <time>2019-12-17T09:13:28.000Z</time>
      </trkpt>
      <trkpt lat="43.35852" lon="5.99047">
        <ele>664</ele>
        <time>2019-12-17T09:13:29.000Z</time>
      </trkpt>
      <trkpt lat="43.35853" lon="5.99047">
        <ele>665</ele>
        <time>2019-12-17T09:13:30.000Z</time>
      </trkpt>
      <trkpt lat="43.35854" lon="5.99047">
        <ele>665</ele>
        <time>2019-12-17T09:13:31.000Z</time>
      </trkpt>
      <trkpt lat="43.35855" lon="5.99048">
        <ele>665</ele>
        <time>2019-12-17T09:13:32.000Z</time>
      </trkpt>
      <trkpt lat="43.35855" lon="5.99048">
        <ele>665</ele>
        <time>2019-12-17T09:13:33.000Z</time>
      </trkpt>
      <trkpt lat="43.35856" lon="5.99049">
        <ele>666</ele>
        <time>2019-12-17T09:13:34.000Z</time>
      </trkpt>
      <trkpt lat="43.35857" lon="5.99049">
        <ele>666</ele>
        <time>2019-12-17T09:13:35.000Z</time>
      </trkpt>
      <trkpt lat="43.35858" lon="5.9905">
        <ele>666</ele>
        <time>2019-12-17T09:13:36.000Z</time>
      </trkpt>
      <trkpt lat="43.35859" lon="5.9905">
        <ele>666</ele>
        <time>2019-12-17T09:13:37.000Z</time>
      </trkpt>
      <trkpt lat="43.35859" lon="5.9905">
        <ele>666</ele>
        <time>2019-12-17T09:13:38.000Z</time>
      </trkpt>
      <trkpt lat="43.3586" lon="5.99051">
        <ele>666</ele>
        <time>2019-12-17T09:13:39.000Z</time>
      </trkpt>
      <trkpt lat="43.35861" lon="5.99051">
        <ele>667</ele>
        <time>2019-12-17T09:13:40.000Z</time>
      </trkpt>
      <trkpt lat="43.35861" lon="5.99051">
        <ele>667</ele>
        <time>2019-12-17T09:13:41.000Z</time>
      </trkpt>
      <trkpt lat="43.35862" lon="5.99051">
        <ele>667</ele>
        <time>2019-12-17T09:13:42.000Z</time>
      </trkpt>
      <trkpt lat="43.35863" lon="5.99052">
        <ele>667</ele>
        <time>2019-12-17T09:13:43.000Z</time>
      </trkpt>
      <trkpt lat="43.35864" lon="5.99052">
        <ele>667</ele>
        <time>2019-12-17T09:13:44.000Z</time>
      </trkpt>
      <trkpt lat="43.35865" lon="5.99052">
        <ele>668</ele>
        <time>2019-12-17T09:13:45.000Z</time>
      </trkpt>
      <trkpt lat="43.35865" lon="5.99053">
        <ele>668</ele>
        <time>2019-12-17T09:13:46.000Z</time>
      </trkpt>
      <trkpt lat="43.35866" lon="5.99053">
        <ele>668</ele>
        <time>2019-12-17T09:13:47.000Z</time>
      </trkpt>
      <trkpt lat="43.35867" lon="5.99053">
        <ele>668</ele>
        <time>2019-12-17T09:13:48.000Z</time>
      </trkpt>
      <trkpt lat="43.35867" lon="5.99053">
        <ele>668</ele>
        <time>2019-12-17T09:13:49.000Z</time>
      </trkpt>
      <trkpt lat="43.35868" lon="5.99054">
        <ele>668</ele>
        <time>2019-12-17T09:13:50.000Z</time>
      </trkpt>
      <trkpt lat="43.35869" lon="5.99054">
        <ele>668</ele>
        <time>2019-12-17T09:13:51.000Z</time>
      </trkpt>
      <trkpt lat="43.3587" lon="5.99054">
        <ele>668</ele>
        <time>2019-12-17T09:13:52.000Z</time>
      </trkpt>
      <trkpt lat="43.3587" lon="5.99055">
        <ele>669</ele>
        <time>2019-12-17T09:13:53.000Z</time>
      </trkpt>
      <trkpt lat="43.35871" lon="5.99055">
        <ele>669</ele>
        <time>2019-12-17T09:13:54.000Z</time>
      </trkpt>
      <trkpt lat="43.35872" lon="5.99055">
        <ele>669</ele>
        <time>2019-12-17T09:13:55.000Z</time>
      </trkpt>
      <trkpt lat="43.35873" lon="5.99056">
        <ele>669</ele>
        <time>2019-12-17T09:13:56.000Z</time>
      </trkpt>
      <trkpt lat="43.35874" lon="5.99056">
        <ele>669</ele>
        <time>2019-12-17T09:13:57.000Z</time>
      </trkpt>
      <trkpt lat="43.35874" lon="5.99056">
        <ele>669</ele>
        <time>2019-12-17T09:13:58.000Z</time>
      </trkpt>
      <trkpt lat="43.35875" lon="5.99057">
        <ele>670</ele>
        <time>2019-12-17T09:13:59.000Z</time>
      </trkpt>
      <trkpt lat="43.35876" lon="5.99057">
        <ele>670</ele>
        <time>2019-12-17T09:14:00.000Z</time>
      </trkpt>
      <trkpt lat="43.35877" lon="5.99057">
        <ele>670</ele>
        <time>2019-12-17T09:14:01.000Z</time>
      </trkpt>
      <trkpt lat="43.35878" lon="5.99058">
        <ele>670</ele>
        <time>2019-12-17T09:14:02.000Z</time>
      </trkpt>
      <trkpt lat="43.35879" lon="5.99058">
        <ele>670</ele>
        <time>2019-12-17T09:14:03.000Z</time>
      </trkpt>
      <trkpt lat="43.35879" lon="5.99059">
        <ele>670</ele>
        <time>2019-12-17T09:14:04.000Z</time>
      </trkpt>
      <trkpt lat="43.3588" lon="5.99059">
        <ele>670</ele>
        <time>2019-12-17T09:14:05.000Z</time>
      </trkpt>
      <trkpt lat="43.35881" lon="5.99059">
        <ele>670</ele>
        <time>2019-12-17T09:14:06.000Z</time>
      </trkpt>
      <trkpt lat="43.35882" lon="5.99059">
        <ele>671</ele>
        <time>2019-12-17T09:14:07.000Z</time>
      </trkpt>
      <trkpt lat="43.35883" lon="5.9906">
        <ele>671</ele>
        <time>2019-12-17T09:14:08.000Z</time>
      </trkpt>
      <trkpt lat="43.35883" lon="5.9906">
        <ele>671</ele>
        <time>2019-12-17T09:14:09.000Z</time>
      </trkpt>
      <trkpt lat="43.35884" lon="5.99061">
        <ele>671</ele>
        <time>2019-12-17T09:14:10.000Z</time>
      </trkpt>
      <trkpt lat="43.35885" lon="5.99061">
        <ele>671</ele>
        <time>2019-12-17T09:14:11.000Z</time>
      </trkpt>
      <trkpt lat="43.35886" lon="5.99061">
        <ele>671</ele>
        <time>2019-12-17T09:14:12.000Z</time>
      </trkpt>
      <trkpt lat="43.35886" lon="5.99062">
        <ele>671</ele>
        <time>2019-12-17T09:14:13.000Z</time>
      </trkpt>
      <trkpt lat="43.35887" lon="5.99062">
        <ele>671</ele>
        <time>2019-12-17T09:14:14.000Z</time>
      </trkpt>
      <trkpt lat="43.35888" lon="5.99063">
        <ele>671</ele>
        <time>2019-12-17T09:14:15.000Z</time>
      </trkpt>
      <trkpt lat="43.35889" lon="5.99063">
        <ele>672</ele>
        <time>2019-12-17T09:14:16.000Z</time>
      </trkpt>
      <trkpt lat="43.3589" lon="5.99064">
        <ele>672</ele>
        <time>2019-12-17T09:14:17.000Z</time>
      </trkpt>
      <trkpt lat="43.35891" lon="5.99065">
        <ele>672</ele>
        <time>2019-12-17T09:14:18.000Z</time>
      </trkpt>
      <trkpt lat="43.35891" lon="5.99065">
        <ele>672</ele>
        <time>2019-12-17T09:14:19.000Z</time>
      </trkpt>
      <trkpt lat="43.35892" lon="5.99066">
        <ele>672</ele>
        <time>2019-12-17T09:14:20.000Z</time>
      </trkpt>
      <trkpt lat="43.35893" lon="5.99066">
        <ele>672</ele>
        <time>2019-12-17T09:14:21.000Z</time>
      </trkpt>
      <trkpt lat="43.35894" lon="5.99067">
        <ele>672</ele>
        <time>2019-12-17T09:14:22.000Z</time>
      </trkpt>
      <trkpt lat="43.35895" lon="5.99067">
        <ele>672</ele>
        <time>2019-12-17T09:14:23.000Z</time>
      </trkpt>
      <trkpt lat="43.35895" lon="5.99068">
        <ele>672</ele>
        <time>2019-12-17T09:14:24.000Z</time>
      </trkpt>
      <trkpt lat="43.35896" lon="5.99069">
        <ele>672</ele>
        <time>2019-12-17T09:14:25.000Z</time>
      </trkpt>
      <trkpt lat="43.35897" lon="5.99069">
        <ele>672</ele>
        <time>2019-12-17T09:14:26.000Z</time>
      </trkpt>
      <trkpt lat="43.35898" lon="5.9907">
        <ele>672</ele>
        <time>2019-12-17T09:14:27.000Z</time>
      </trkpt>
      <trkpt lat="43.35899" lon="5.9907">
        <ele>672</ele>
        <time>2019-12-17T09:14:28.000Z</time>
      </trkpt>
      <trkpt lat="43.35899" lon="5.99071">
        <ele>672</ele>
        <time>2019-12-17T09:14:29.000Z</time>
      </trkpt>
      <trkpt lat="43.359" lon="5.99071">
        <ele>672</ele>
        <time>2019-12-17T09:14:30.000Z</time>
      </trkpt>
      <trkpt lat="43.35901" lon="5.99072">
        <ele>672</ele>
        <time>2019-12-17T09:14:31.000Z</time>
      </trkpt>
      <trkpt lat="43.35902" lon="5.99072">
        <ele>673</ele>
        <time>2019-12-17T09:14:32.000Z</time>
      </trkpt>
      <trkpt lat="43.35903" lon="5.99073">
        <ele>673</ele>
        <time>2019-12-17T09:14:33.000Z</time>
      </trkpt>
      <trkpt lat="43.35903" lon="5.99073">
        <ele>673</ele>
        <time>2019-12-17T09:14:34.000Z</time>
      </trkpt>
      <trkpt lat="43.35904" lon="5.99074">
        <ele>673</ele>
        <time>2019-12-17T09:14:35.000Z</time>
      </trkpt>
      <trkpt lat="43.35905" lon="5.99074">
        <ele>673</ele>
        <time>2019-12-17T09:14:36.000Z</time>
      </trkpt>
      <trkpt lat="43.35906" lon="5.99074">
        <ele>673</ele>
        <time>2019-12-17T09:14:37.000Z</time>
      </trkpt>
      <trkpt lat="43.35907" lon="5.99074">
        <ele>673</ele>
        <time>2019-12-17T09:14:38.000Z</time>
      </trkpt>
      <trkpt lat="43.35908" lon="5.99074">
        <ele>673</ele>
        <time>2019-12-17T09:14:39.000Z</time>
      </trkpt>
      <trkpt lat="43.35909" lon="5.99075">
        <ele>674</ele>
        <time>2019-12-17T09:14:40.000Z</time>
      </trkpt>
      <trkpt lat="43.3591" lon="5.99075">
        <ele>674</ele>
        <time>2019-12-17T09:14:41.000Z</time>
      </trkpt>
      <trkpt lat="43.3591" lon="5.99075">
        <ele>674</ele>
        <time>2019-12-17T09:14:42.000Z</time>
      </trkpt>
      <trkpt lat="43.35911" lon="5.99075">
        <ele>674</ele>
        <time>2019-12-17T09:14:43.000Z</time>
      </trkpt>
      <trkpt lat="43.35912" lon="5.99075">
        <ele>674</ele>
        <time>2019-12-17T09:14:44.000Z</time>
      </trkpt>
      <trkpt lat="43.35913" lon="5.99076">
        <ele>674</ele>
        <time>2019-12-17T09:14:45.000Z</time>
      </trkpt>
      <trkpt lat="43.35914" lon="5.99075">
        <ele>674</ele>
        <time>2019-12-17T09:14:46.000Z</time>
      </trkpt>
      <trkpt lat="43.35915" lon="5.99075">
        <ele>674</ele>
        <time>2019-12-17T09:14:47.000Z</time>
      </trkpt>
      <trkpt lat="43.35915" lon="5.99075">
        <ele>674</ele>
        <time>2019-12-17T09:14:48.000Z</time>
      </trkpt>
      <trkpt lat="43.35916" lon="5.99075">
        <ele>675</ele>
        <time>2019-12-17T09:14:49.000Z</time>
      </trkpt>
      <trkpt lat="43.35917" lon="5.99076">
        <ele>675</ele>
        <time>2019-12-17T09:14:50.000Z</time>
      </trkpt>
      <trkpt lat="43.35918" lon="5.99076">
        <ele>675</ele>
        <time>2019-12-17T09:14:51.000Z</time>
      </trkpt>
      <trkpt lat="43.35919" lon="5.99076">
        <ele>675</ele>
        <time>2019-12-17T09:14:52.000Z</time>
      </trkpt>
      <trkpt lat="43.3592" lon="5.99076">
        <ele>675</ele>
        <time>2019-12-17T09:14:53.000Z</time>
      </trkpt>
      <trkpt lat="43.35921" lon="5.99075">
        <ele>675</ele>
        <time>2019-12-17T09:14:54.000Z</time>
      </trkpt>
      <trkpt lat="43.35922" lon="5.99075">
        <ele>675</ele>
        <time>2019-12-17T09:14:55.000Z</time>
      </trkpt>
      <trkpt lat="43.35923" lon="5.99075">
        <ele>675</ele>
        <time>2019-12-17T09:14:56.000Z</time>
      </trkpt>
      <trkpt lat="43.35924" lon="5.99074">
        <ele>676</ele>
        <time>2019-12-17T09:14:57.000Z</time>
      </trkpt>
      <trkpt lat="43.35924" lon="5.99074">
        <ele>676</ele>
        <time>2019-12-17T09:14:58.000Z</time>
      </trkpt>
      <trkpt lat="43.35925" lon="5.99074">
        <ele>676</ele>
        <time>2019-12-17T09:14:59.000Z</time>
      </trkpt>
      <trkpt lat="43.35926" lon="5.99074">
        <ele>676</ele>
        <time>2019-12-17T09:15:00.000Z</time>
      </trkpt>
      <trkpt lat="43.35927" lon="5.99074">
        <ele>676</ele>
        <time>2019-12-17T09:15:01.000Z</time>
      </trkpt>
      <trkpt lat="43.35928" lon="5.99073">
        <ele>676</ele>
        <time>2019-12-17T09:15:02.000Z</time>
      </trkpt>
      <trkpt lat="43.35929" lon="5.99073">
        <ele>676</ele>
        <time>2019-12-17T09:15:03.000Z</time>
      </trkpt>
      <trkpt lat="43.3593" lon="5.99073">
        <ele>676</ele>
        <time>2019-12-17T09:15:04.000Z</time>
      </trkpt>
      <trkpt lat="43.3593" lon="5.99072">
        <ele>676</ele>
        <time>2019-12-17T09:15:05.000Z</time>
      </trkpt>
      <trkpt lat="43.35931" lon="5.99072">
        <ele>677</ele>
        <time>2019-12-17T09:15:06.000Z</time>
      </trkpt>
      <trkpt lat="43.35932" lon="5.99071">
        <ele>677</ele>
        <time>2019-12-17T09:15:07.000Z</time>
      </trkpt>
      <trkpt lat="43.35933" lon="5.99071">
        <ele>677</ele>
        <time>2019-12-17T09:15:08.000Z</time>
      </trkpt>
      <trkpt lat="43.35933" lon="5.9907">
        <ele>677</ele>
        <time>2019-12-17T09:15:09.000Z</time>
      </trkpt>
      <trkpt lat="43.35934" lon="5.99069">
        <ele>677</ele>
        <time>2019-12-17T09:15:10.000Z</time>
      </trkpt>
      <trkpt lat="43.35935" lon="5.99069">
        <ele>677</ele>
        <time>2019-12-17T09:15:11.000Z</time>
      </trkpt>
      <trkpt lat="43.35936" lon="5.99069">
        <ele>678</ele>
        <time>2019-12-17T09:15:12.000Z</time>
      </trkpt>
      <trkpt lat="43.35936" lon="5.99068">
        <ele>678</ele>
        <time>2019-12-17T09:15:13.000Z</time>
      </trkpt>
      <trkpt lat="43.35937" lon="5.99068">
        <ele>678</ele>
        <time>2019-12-17T09:15:14.000Z</time>
      </trkpt>
      <trkpt lat="43.35938" lon="5.99067">
        <ele>678</ele>
        <time>2019-12-17T09:15:15.000Z</time>
      </trkpt>
      <trkpt lat="43.35939" lon="5.99067">
        <ele>679</ele>
        <time>2019-12-17T09:15:16.000Z</time>
      </trkpt>
      <trkpt lat="43.3594" lon="5.99066">
        <ele>679</ele>
        <time>2019-12-17T09:15:17.000Z</time>
      </trkpt>
      <trkpt lat="43.35941" lon="5.99066">
        <ele>679</ele>
        <time>2019-12-17T09:15:18.000Z</time>
      </trkpt>
      <trkpt lat="43.35941" lon="5.99065">
        <ele>679</ele>
        <time>2019-12-17T09:15:19.000Z</time>
      </trkpt>
      <trkpt lat="43.35942" lon="5.99065">
        <ele>679</ele>
        <time>2019-12-17T09:15:20.000Z</time>
      </trkpt>
      <trkpt lat="43.35943" lon="5.99064">
        <ele>679</ele>
        <time>2019-12-17T09:15:21.000Z</time>
      </trkpt>
      <trkpt lat="43.35944" lon="5.99063">
        <ele>679</ele>
        <time>2019-12-17T09:15:22.000Z</time>
      </trkpt>
      <trkpt lat="43.35944" lon="5.99062">
        <ele>679</ele>
        <time>2019-12-17T09:15:23.000Z</time>
      </trkpt>
      <trkpt lat="43.35944" lon="5.99062">
        <ele>679</ele>
        <time>2019-12-17T09:15:24.000Z</time>
      </trkpt>
      <trkpt lat="43.35945" lon="5.9906">
        <ele>679</ele>
        <time>2019-12-17T09:15:25.000Z</time>
      </trkpt>
      <trkpt lat="43.35945" lon="5.99059">
        <ele>679</ele>
        <time>2019-12-17T09:15:26.000Z</time>
      </trkpt>
      <trkpt lat="43.35945" lon="5.99058">
        <ele>679</ele>
        <time>2019-12-17T09:15:27.000Z</time>
      </trkpt>
      <trkpt lat="43.35945" lon="5.99057">
        <ele>679</ele>
        <time>2019-12-17T09:15:28.000Z</time>
      </trkpt>
      <trkpt lat="43.35945" lon="5.99056">
        <ele>679</ele>
        <time>2019-12-17T09:15:29.000Z</time>
      </trkpt>
      <trkpt lat="43.35945" lon="5.99054">
        <ele>680</ele>
        <time>2019-12-17T09:15:30.000Z</time>
      </trkpt>
      <trkpt lat="43.35945" lon="5.99053">
        <ele>680</ele>
        <time>2019-12-17T09:15:31.000Z</time>
      </trkpt>
      <trkpt lat="43.35945" lon="5.99052">
        <ele>680</ele>
        <time>2019-12-17T09:15:32.000Z</time>
      </trkpt>
      <trkpt lat="43.35946" lon="5.99051">
        <ele>680</ele>
        <time>2019-12-17T09:15:33.000Z</time>
      </trkpt>
      <trkpt lat="43.35946" lon="5.9905">
        <ele>680</ele>
        <time>2019-12-17T09:15:34.000Z</time>
      </trkpt>
      <trkpt lat="43.35946" lon="5.99048">
        <ele>680</ele>
        <time>2019-12-17T09:15:35.000Z</time>
      </trkpt>
      <trkpt lat="43.35947" lon="5.99047">
        <ele>680</ele>
        <time>2019-12-17T09:15:36.000Z</time>
      </trkpt>
      <trkpt lat="43.35947" lon="5.99046">
        <ele>680</ele>
        <time>2019-12-17T09:15:37.000Z</time>
      </trkpt>
      <trkpt lat="43.35947" lon="5.99046">
        <ele>680</ele>
        <time>2019-12-17T09:15:38.000Z</time>
      </trkpt>
      <trkpt lat="43.35948" lon="5.99045">
        <ele>679</ele>
        <time>2019-12-17T09:15:39.000Z</time>
      </trkpt>
      <trkpt lat="43.35948" lon="5.99044">
        <ele>679</ele>
        <time>2019-12-17T09:15:40.000Z</time>
      </trkpt>
      <trkpt lat="43.35949" lon="5.99044">
        <ele>679</ele>
        <time>2019-12-17T09:15:41.000Z</time>
      </trkpt>
      <trkpt lat="43.35949" lon="5.99043">
        <ele>679</ele>
        <time>2019-12-17T09:15:42.000Z</time>
      </trkpt>
      <trkpt lat="43.3595" lon="5.99042">
        <ele>679</ele>
        <time>2019-12-17T09:15:43.000Z</time>
      </trkpt>
      <trkpt lat="43.3595" lon="5.99041">
        <ele>680</ele>
        <time>2019-12-17T09:15:44.000Z</time>
      </trkpt>
      <trkpt lat="43.35951" lon="5.99041">
        <ele>680</ele>
        <time>2019-12-17T09:15:45.000Z</time>
      </trkpt>
      <trkpt lat="43.35951" lon="5.9904">
        <ele>680</ele>
        <time>2019-12-17T09:15:46.000Z</time>
      </trkpt>
      <trkpt lat="43.35951" lon="5.99039">
        <ele>680</ele>
        <time>2019-12-17T09:15:47.000Z</time>
      </trkpt>
      <trkpt lat="43.35952" lon="5.99038">
        <ele>680</ele>
        <time>2019-12-17T09:15:48.000Z</time>
      </trkpt>
      <trkpt lat="43.35952" lon="5.99038">
        <ele>680</ele>
        <time>2019-12-17T09:15:49.000Z</time>
      </trkpt>
      <trkpt lat="43.35952" lon="5.99037">
        <ele>680</ele>
        <time>2019-12-17T09:15:50.000Z</time>
      </trkpt>
      <trkpt lat="43.35952" lon="5.99037">
        <ele>680</ele>
        <time>2019-12-17T09:15:51.000Z</time>
      </trkpt>
      <trkpt lat="43.35952" lon="5.99036">
        <ele>680</ele>
        <time>2019-12-17T09:15:52.000Z</time>
      </trkpt>
      <trkpt lat="43.35953" lon="5.99035">
        <ele>680</ele>
        <time>2019-12-17T09:15:53.000Z</time>
      </trkpt>
      <trkpt lat="43.35953" lon="5.99034">
        <ele>680</ele>
        <time>2019-12-17T09:15:54.000Z</time>
      </trkpt>
      <trkpt lat="43.35953" lon="5.99033">
        <ele>680</ele>
        <time>2019-12-17T09:15:55.000Z</time>
      </trkpt>
      <trkpt lat="43.35954" lon="5.99032">
        <ele>680</ele>
        <time>2019-12-17T09:15:56.000Z</time>
      </trkpt>
      <trkpt lat="43.35954" lon="5.99031">
        <ele>681</ele>
        <time>2019-12-17T09:15:57.000Z</time>
      </trkpt>
      <trkpt lat="43.35954" lon="5.9903">
        <ele>681</ele>
        <time>2019-12-17T09:15:58.000Z</time>
      </trkpt>
      <trkpt lat="43.35954" lon="5.99029">
        <ele>680</ele>
        <time>2019-12-17T09:15:59.000Z</time>
      </trkpt>
      <trkpt lat="43.35954" lon="5.99028">
        <ele>680</ele>
        <time>2019-12-17T09:16:00.000Z</time>
      </trkpt>
      <trkpt lat="43.35955" lon="5.99028">
        <ele>680</ele>
        <time>2019-12-17T09:16:01.000Z</time>
      </trkpt>
      <trkpt lat="43.35955" lon="5.99027">
        <ele>680</ele>
        <time>2019-12-17T09:16:02.000Z</time>
      </trkpt>
      <trkpt lat="43.35955" lon="5.99025">
        <ele>680</ele>
        <time>2019-12-17T09:16:03.000Z</time>
      </trkpt>
      <trkpt lat="43.35955" lon="5.99024">
        <ele>680</ele>
        <time>2019-12-17T09:16:04.000Z</time>
      </trkpt>
      <trkpt lat="43.35955" lon="5.99023">
        <ele>680</ele>
        <time>2019-12-17T09:16:05.000Z</time>
      </trkpt>
      <trkpt lat="43.35955" lon="5.99022">
        <ele>680</ele>
        <time>2019-12-17T09:16:06.000Z</time>
      </trkpt>
      <trkpt lat="43.35955" lon="5.99021">
        <ele>680</ele>
        <time>2019-12-17T09:16:07.000Z</time>
      </trkpt>
      <trkpt lat="43.35955" lon="5.9902">
        <ele>680</ele>
        <time>2019-12-17T09:16:08.000Z</time>
      </trkpt>
      <trkpt lat="43.35954" lon="5.99019">
        <ele>680</ele>
        <time>2019-12-17T09:16:09.000Z</time>
      </trkpt>
      <trkpt lat="43.35954" lon="5.99018">
        <ele>680</ele>
        <time>2019-12-17T09:16:10.000Z</time>
      </trkpt>
      <trkpt lat="43.35954" lon="5.99017">
        <ele>680</ele>
        <time>2019-12-17T09:16:11.000Z</time>
      </trkpt>
      <trkpt lat="43.35954" lon="5.99016">
        <ele>680</ele>
        <time>2019-12-17T09:16:12.000Z</time>
      </trkpt>
      <trkpt lat="43.35954" lon="5.99015">
        <ele>680</ele>
        <time>2019-12-17T09:16:13.000Z</time>
      </trkpt>
      <trkpt lat="43.35954" lon="5.99014">
        <ele>680</ele>
        <time>2019-12-17T09:16:14.000Z</time>
      </trkpt>
      <trkpt lat="43.35954" lon="5.99013">
        <ele>680</ele>
        <time>2019-12-17T09:16:15.000Z</time>
      </trkpt>
      <trkpt lat="43.35954" lon="5.99012">
        <ele>681</ele>
        <time>2019-12-17T09:16:16.000Z</time>
      </trkpt>
      <trkpt lat="43.35954" lon="5.99011">
        <ele>680</ele>
        <time>2019-12-17T09:16:17.000Z</time>
      </trkpt>
      <trkpt lat="43.35955" lon="5.9901">
        <ele>680</ele>
        <time>2019-12-17T09:16:18.000Z</time>
      </trkpt>
      <trkpt lat="43.35956" lon="5.99009">
        <ele>680</ele>
        <time>2019-12-17T09:16:19.000Z</time>
      </trkpt>
      <trkpt lat="43.35956" lon="5.99008">
        <ele>680</ele>
        <time>2019-12-17T09:16:20.000Z</time>
      </trkpt>
      <trkpt lat="43.35957" lon="5.99007">
        <ele>680</ele>
        <time>2019-12-17T09:16:21.000Z</time>
      </trkpt>
      <trkpt lat="43.35958" lon="5.99006">
        <ele>680</ele>
        <time>2019-12-17T09:16:22.000Z</time>
      </trkpt>
      <trkpt lat="43.35958" lon="5.99005">
        <ele>680</ele>
        <time>2019-12-17T09:16:23.000Z</time>
      </trkpt>
      <trkpt lat="43.35958" lon="5.99004">
        <ele>680</ele>
        <time>2019-12-17T09:16:24.000Z</time>
      </trkpt>
      <trkpt lat="43.35958" lon="5.99003">
        <ele>680</ele>
        <time>2019-12-17T09:16:25.000Z</time>
      </trkpt>
      <trkpt lat="43.35959" lon="5.99003">
        <ele>680</ele>
        <time>2019-12-17T09:16:26.000Z</time>
      </trkpt>
      <trkpt lat="43.35959" lon="5.99002">
        <ele>680</ele>
        <time>2019-12-17T09:16:27.000Z</time>
      </trkpt>
      <trkpt lat="43.3596" lon="5.99002">
        <ele>680</ele>
        <time>2019-12-17T09:16:28.000Z</time>
      </trkpt>
      <trkpt lat="43.3596" lon="5.99001">
        <ele>680</ele>
        <time>2019-12-17T09:16:29.000Z</time>
      </trkpt>
      <trkpt lat="43.35961" lon="5.99">
        <ele>680</ele>
        <time>2019-12-17T09:16:30.000Z</time>
      </trkpt>
      <trkpt lat="43.35961" lon="5.98999">
        <ele>680</ele>
        <time>2019-12-17T09:16:31.000Z</time>
      </trkpt>
      <trkpt lat="43.35961" lon="5.98998">
        <ele>679</ele>
        <time>2019-12-17T09:16:32.000Z</time>
      </trkpt>
      <trkpt lat="43.35961" lon="5.98997">
        <ele>679</ele>
        <time>2019-12-17T09:16:33.000Z</time>
      </trkpt>
      <trkpt lat="43.35961" lon="5.98995">
        <ele>679</ele>
        <time>2019-12-17T09:16:34.000Z</time>
      </trkpt>
      <trkpt lat="43.3596" lon="5.98994">
        <ele>679</ele>
        <time>2019-12-17T09:16:35.000Z</time>
      </trkpt>
      <trkpt lat="43.3596" lon="5.98992">
        <ele>679</ele>
        <time>2019-12-17T09:16:36.000Z</time>
      </trkpt>
      <trkpt lat="43.3596" lon="5.98991">
        <ele>679</ele>
        <time>2019-12-17T09:16:37.000Z</time>
      </trkpt>
      <trkpt lat="43.3596" lon="5.98989">
        <ele>679</ele>
        <time>2019-12-17T09:16:38.000Z</time>
      </trkpt>
      <trkpt lat="43.35959" lon="5.98988">
        <ele>678</ele>
        <time>2019-12-17T09:16:39.000Z</time>
      </trkpt>
      <trkpt lat="43.35958" lon="5.98987">
        <ele>678</ele>
        <time>2019-12-17T09:16:40.000Z</time>
      </trkpt>
      <trkpt lat="43.35958" lon="5.98986">
        <ele>678</ele>
        <time>2019-12-17T09:16:41.000Z</time>
      </trkpt>
      <trkpt lat="43.35958" lon="5.98984">
        <ele>678</ele>
        <time>2019-12-17T09:16:42.000Z</time>
      </trkpt>
      <trkpt lat="43.35958" lon="5.98983">
        <ele>677</ele>
        <time>2019-12-17T09:16:43.000Z</time>
      </trkpt>
      <trkpt lat="43.35957" lon="5.98982">
        <ele>677</ele>
        <time>2019-12-17T09:16:44.000Z</time>
      </trkpt>
      <trkpt lat="43.35957" lon="5.9898">
        <ele>677</ele>
        <time>2019-12-17T09:16:45.000Z</time>
      </trkpt>
      <trkpt lat="43.35957" lon="5.98979">
        <ele>677</ele>
        <time>2019-12-17T09:16:46.000Z</time>
      </trkpt>
      <trkpt lat="43.35957" lon="5.98977">
        <ele>677</ele>
        <time>2019-12-17T09:16:47.000Z</time>
      </trkpt>
      <trkpt lat="43.35956" lon="5.98976">
        <ele>676</ele>
        <time>2019-12-17T09:16:48.000Z</time>
      </trkpt>
      <trkpt lat="43.35956" lon="5.98975">
        <ele>676</ele>
        <time>2019-12-17T09:16:49.000Z</time>
      </trkpt>
      <trkpt lat="43.35956" lon="5.98973">
        <ele>676</ele>
        <time>2019-12-17T09:16:50.000Z</time>
      </trkpt>
      <trkpt lat="43.35957" lon="5.98973">
        <ele>676</ele>
        <time>2019-12-17T09:16:51.000Z</time>
      </trkpt>
      <trkpt lat="43.35956" lon="5.98971">
        <ele>676</ele>
        <time>2019-12-17T09:16:52.000Z</time>
      </trkpt>
      <trkpt lat="43.35956" lon="5.9897">
        <ele>676</ele>
        <time>2019-12-17T09:16:53.000Z</time>
      </trkpt>
      <trkpt lat="43.35956" lon="5.98969">
        <ele>676</ele>
        <time>2019-12-17T09:16:54.000Z</time>
      </trkpt>
      <trkpt lat="43.35956" lon="5.98968">
        <ele>675</ele>
        <time>2019-12-17T09:16:55.000Z</time>
      </trkpt>
      <trkpt lat="43.35956" lon="5.98967">
        <ele>675</ele>
        <time>2019-12-17T09:16:56.000Z</time>
      </trkpt>
      <trkpt lat="43.35956" lon="5.98966">
        <ele>675</ele>
        <time>2019-12-17T09:16:57.000Z</time>
      </trkpt>
      <trkpt lat="43.35956" lon="5.98965">
        <ele>675</ele>
        <time>2019-12-17T09:16:58.000Z</time>
      </trkpt>
      <trkpt lat="43.35956" lon="5.98964">
        <ele>674</ele>
        <time>2019-12-17T09:16:59.000Z</time>
      </trkpt>
      <trkpt lat="43.35955" lon="5.98963">
        <ele>674</ele>
        <time>2019-12-17T09:17:00.000Z</time>
      </trkpt>
      <trkpt lat="43.35955" lon="5.98962">
        <ele>674</ele>
        <time>2019-12-17T09:17:01.000Z</time>
      </trkpt>
      <trkpt lat="43.35955" lon="5.98961">
        <ele>674</ele>
        <time>2019-12-17T09:17:02.000Z</time>
      </trkpt>
      <trkpt lat="43.35955" lon="5.9896">
        <ele>673</ele>
        <time>2019-12-17T09:17:03.000Z</time>
      </trkpt>
      <trkpt lat="43.35956" lon="5.98959">
        <ele>673</ele>
        <time>2019-12-17T09:17:04.000Z</time>
      </trkpt>
      <trkpt lat="43.35956" lon="5.98957">
        <ele>673</ele>
        <time>2019-12-17T09:17:05.000Z</time>
      </trkpt>
      <trkpt lat="43.35956" lon="5.98956">
        <ele>673</ele>
        <time>2019-12-17T09:17:06.000Z</time>
      </trkpt>
      <trkpt lat="43.35957" lon="5.98955">
        <ele>673</ele>
        <time>2019-12-17T09:17:07.000Z</time>
      </trkpt>
      <trkpt lat="43.35957" lon="5.98954">
        <ele>672</ele>
        <time>2019-12-17T09:17:08.000Z</time>
      </trkpt>
      <trkpt lat="43.35957" lon="5.98954">
        <ele>672</ele>
        <time>2019-12-17T09:17:09.000Z</time>
      </trkpt>
      <trkpt lat="43.35957" lon="5.98954">
        <ele>672</ele>
        <time>2019-12-17T09:17:10.000Z</time>
      </trkpt>
      <trkpt lat="43.35957" lon="5.98954">
        <ele>672</ele>
        <time>2019-12-17T09:17:11.000Z</time>
      </trkpt>
      <trkpt lat="43.35957" lon="5.98953">
        <ele>672</ele>
        <time>2019-12-17T09:17:12.000Z</time>
      </trkpt>
      <trkpt lat="43.35957" lon="5.98953">
        <ele>672</ele>
        <time>2019-12-17T09:17:13.000Z</time>
      </trkpt>
      <trkpt lat="43.35957" lon="5.98953">
        <ele>672</ele>
        <time>2019-12-17T09:17:14.000Z</time>
      </trkpt>
      <trkpt lat="43.35958" lon="5.98953">
        <ele>672</ele>
        <time>2019-12-17T09:17:15.000Z</time>
      </trkpt>
      <trkpt lat="43.35958" lon="5.98953">
        <ele>672</ele>
        <time>2019-12-17T09:17:16.000Z</time>
      </trkpt>
      <trkpt lat="43.35958" lon="5.98953">
        <ele>672</ele>
        <time>2019-12-17T09:17:17.000Z</time>
      </trkpt>
      <trkpt lat="43.35958" lon="5.98952">
        <ele>672</ele>
        <time>2019-12-17T09:17:18.000Z</time>
      </trkpt>
      <trkpt lat="43.35958" lon="5.98952">
        <ele>672</ele>
        <time>2019-12-17T09:17:19.000Z</time>
      </trkpt>
      <trkpt lat="43.35958" lon="5.98952">
        <ele>672</ele>
        <time>2019-12-17T09:17:20.000Z</time>
      </trkpt>
      <trkpt lat="43.35958" lon="5.98952">
        <ele>672</ele>
        <time>2019-12-17T09:17:21.000Z</time>
      </trkpt>
      <trkpt lat="43.35958" lon="5.98952">
        <ele>672</ele>
        <time>2019-12-17T09:17:22.000Z</time>
      </trkpt>
      <trkpt lat="43.35958" lon="5.98952">
        <ele>672</ele>
        <time>2019-12-17T09:17:23.000Z</time>
      </trkpt>
      <trkpt lat="43.35958" lon="5.98952">
        <ele>671</ele>
        <time>2019-12-17T09:17:24.000Z</time>
      </trkpt>
      <trkpt lat="43.35959" lon="5.98952">
        <ele>671</ele>
        <time>2019-12-17T09:17:25.000Z</time>
      </trkpt>
      <trkpt lat="43.35959" lon="5.98951">
        <ele>671</ele>
        <time>2019-12-17T09:17:26.000Z</time>
      </trkpt>
      <trkpt lat="43.35959" lon="5.98951">
        <ele>671</ele>
        <time>2019-12-17T09:17:27.000Z</time>
      </trkpt>
      <trkpt lat="43.35959" lon="5.98951">
        <ele>671</ele>
        <time>2019-12-17T09:17:28.000Z</time>
      </trkpt>
      <trkpt lat="43.35959" lon="5.98951">
        <ele>671</ele>
        <time>2019-12-17T09:17:29.000Z</time>
      </trkpt>
      <trkpt lat="43.35959" lon="5.98951">
        <ele>671</ele>
        <time>2019-12-17T09:17:30.000Z</time>
      </trkpt>
      <trkpt lat="43.35959" lon="5.98951">
        <ele>671</ele>
        <time>2019-12-17T09:17:31.000Z</time>
      </trkpt>
      <trkpt lat="43.35959" lon="5.98951">
        <ele>671</ele>
        <time>2019-12-17T09:17:32.000Z</time>
      </trkpt>
      <trkpt lat="43.35959" lon="5.98951">
        <ele>671</ele>
        <time>2019-12-17T09:17:33.000Z</time>
      </trkpt>
      <trkpt lat="43.35959" lon="5.98951">
        <ele>671</ele>
        <time>2019-12-17T09:17:34.000Z</time>
      </trkpt>
      <trkpt lat="43.35959" lon="5.9895">
        <ele>671</ele>
        <time>2019-12-17T09:17:35.000Z</time>
      </trkpt>
      <trkpt lat="43.35959" lon="5.9895">
        <ele>671</ele>
        <time>2019-12-17T09:17:36.000Z</time>
      </trkpt>
      <trkpt lat="43.35959" lon="5.9895">
        <ele>671</ele>
        <time>2019-12-17T09:17:37.000Z</time>
      </trkpt>
      <trkpt lat="43.35959" lon="5.9895">
        <ele>671</ele>
        <time>2019-12-17T09:17:38.000Z</time>
      </trkpt>
      <trkpt lat="43.35959" lon="5.9895">
        <ele>671</ele>
        <time>2019-12-17T09:17:39.000Z</time>
      </trkpt>
      <trkpt lat="43.35959" lon="5.9895">
        <ele>671</ele>
        <time>2019-12-17T09:17:40.000Z</time>
      </trkpt>
      <trkpt lat="43.35959" lon="5.9895">
        <ele>671</ele>
        <time>2019-12-17T09:17:41.000Z</time>
      </trkpt>
      <trkpt lat="43.35959" lon="5.9895">
        <ele>671</ele>
        <time>2019-12-17T09:17:42.000Z</time>
      </trkpt>
      <trkpt lat="43.35959" lon="5.9895">
        <ele>671</ele>
        <time>2019-12-17T09:17:43.000Z</time>
      </trkpt>
      <trkpt lat="43.35959" lon="5.9895">
        <ele>671</ele>
        <time>2019-12-17T09:17:44.000Z</time>
      </trkpt>
      <trkpt lat="43.35959" lon="5.9895">
        <ele>671</ele>
        <time>2019-12-17T09:17:45.000Z</time>
      </trkpt>
      <trkpt lat="43.35959" lon="5.9895">
        <ele>671</ele>
        <time>2019-12-17T09:17:46.000Z</time>
      </trkpt>
      <trkpt lat="43.35959" lon="5.9895">
        <ele>671</ele>
        <time>2019-12-17T09:17:47.000Z</time>
      </trkpt>
      <trkpt lat="43.35959" lon="5.9895">
        <ele>671</ele>
        <time>2019-12-17T09:17:48.000Z</time>
      </trkpt>
      <trkpt lat="43.35959" lon="5.9895">
        <ele>671</ele>
        <time>2019-12-17T09:17:49.000Z</time>
      </trkpt>
      <trkpt lat="43.35959" lon="5.9895">
        <ele>671</ele>
        <time>2019-12-17T09:17:50.000Z</time>
      </trkpt>
      <trkpt lat="43.35959" lon="5.9895">
        <ele>671</ele>
        <time>2019-12-17T09:17:51.000Z</time>
      </trkpt>
      <trkpt lat="43.35959" lon="5.9895">
        <ele>671</ele>
        <time>2019-12-17T09:17:52.000Z</time>
      </trkpt>
      <trkpt lat="43.35959" lon="5.98949">
        <ele>671</ele>
        <time>2019-12-17T09:17:53.000Z</time>
      </trkpt>
      <trkpt lat="43.35959" lon="5.98949">
        <ele>671</ele>
        <time>2019-12-17T09:17:54.000Z</time>
      </trkpt>
      <trkpt lat="43.35959" lon="5.98949">
        <ele>671</ele>
        <time>2019-12-17T09:17:55.000Z</time>
      </trkpt>
      <trkpt lat="43.35959" lon="5.98949">
        <ele>671</ele>
        <time>2019-12-17T09:17:56.000Z</time>
      </trkpt>
      <trkpt lat="43.35959" lon="5.98949">
        <ele>671</ele>
        <time>2019-12-17T09:17:57.000Z</time>
      </trkpt>
      <trkpt lat="43.35959" lon="5.98949">
        <ele>671</ele>
        <time>2019-12-17T09:17:58.000Z</time>
      </trkpt>
      <trkpt lat="43.35959" lon="5.98949">
        <ele>671</ele>
        <time>2019-12-17T09:17:59.000Z</time>
      </trkpt>
      <trkpt lat="43.35959" lon="5.98949">
        <ele>671</ele>
        <time>2019-12-17T09:18:00.000Z</time>
      </trkpt>
      <trkpt lat="43.35959" lon="5.98949">
        <ele>671</ele>
        <time>2019-12-17T09:18:01.000Z</time>
      </trkpt>
      <trkpt lat="43.35959" lon="5.98949">
        <ele>671</ele>
        <time>2019-12-17T09:18:02.000Z</time>
      </trkpt>
      <trkpt lat="43.35959" lon="5.98949">
        <ele>672</ele>
        <time>2019-12-17T09:18:03.000Z</time>
      </trkpt>
      <trkpt lat="43.35959" lon="5.98949">
        <ele>672</ele>
        <time>2019-12-17T09:18:04.000Z</time>
      </trkpt>
      <trkpt lat="43.35959" lon="5.98949">
        <ele>672</ele>
        <time>2019-12-17T09:18:05.000Z</time>
      </trkpt>
      <trkpt lat="43.35959" lon="5.98949">
        <ele>672</ele>
        <time>2019-12-17T09:18:06.000Z</time>
      </trkpt>
      <trkpt lat="43.35959" lon="5.98949">
        <ele>672</ele>
        <time>2019-12-17T09:18:07.000Z</time>
      </trkpt>
      <trkpt lat="43.35959" lon="5.98949">
        <ele>672</ele>
        <time>2019-12-17T09:18:08.000Z</time>
      </trkpt>
      <trkpt lat="43.35959" lon="5.98949">
        <ele>672</ele>
        <time>2019-12-17T09:18:09.000Z</time>
      </trkpt>
      <trkpt lat="43.35959" lon="5.98949">
        <ele>672</ele>
        <time>2019-12-17T09:18:10.000Z</time>
      </trkpt>
      <trkpt lat="43.35959" lon="5.98949">
        <ele>672</ele>
        <time>2019-12-17T09:18:11.000Z</time>
      </trkpt>
      <trkpt lat="43.35959" lon="5.98949">
        <ele>672</ele>
        <time>2019-12-17T09:18:12.000Z</time>
      </trkpt>
      <trkpt lat="43.35959" lon="5.98949">
        <ele>672</ele>
        <time>2019-12-17T09:18:13.000Z</time>
      </trkpt>
      <trkpt lat="43.35959" lon="5.98949">
        <ele>672</ele>
        <time>2019-12-17T09:18:14.000Z</time>
      </trkpt>
      <trkpt lat="43.35959" lon="5.98949">
        <ele>672</ele>
        <time>2019-12-17T09:18:15.000Z</time>
      </trkpt>
      <trkpt lat="43.35959" lon="5.98949">
        <ele>672</ele>
        <time>2019-12-17T09:18:16.000Z</time>
      </trkpt>
      <trkpt lat="43.35959" lon="5.98949">
        <ele>672</ele>
        <time>2019-12-17T09:18:17.000Z</time>
      </trkpt>
      <trkpt lat="43.35959" lon="5.98949">
        <ele>672</ele>
        <time>2019-12-17T09:18:18.000Z</time>
      </trkpt>
      <trkpt lat="43.35959" lon="5.98949">
        <ele>672</ele>
        <time>2019-12-17T09:18:19.000Z</time>
      </trkpt>
      <trkpt lat="43.35959" lon="5.98949">
        <ele>672</ele>
        <time>2019-12-17T09:18:20.000Z</time>
      </trkpt>
      <trkpt lat="43.35959" lon="5.98949">
        <ele>672</ele>
        <time>2019-12-17T09:18:21.000Z</time>
      </trkpt>
      <trkpt lat="43.3596" lon="5.98949">
        <ele>672</ele>
        <time>2019-12-17T09:18:22.000Z</time>
      </trkpt>
      <trkpt lat="43.35961" lon="5.98949">
        <ele>672</ele>
        <time>2019-12-17T09:18:23.000Z</time>
      </trkpt>
      <trkpt lat="43.35962" lon="5.98949">
        <ele>672</ele>
        <time>2019-12-17T09:18:24.000Z</time>
      </trkpt>
      <trkpt lat="43.35963" lon="5.98949">
        <ele>672</ele>
        <time>2019-12-17T09:18:25.000Z</time>
      </trkpt>
      <trkpt lat="43.35963" lon="5.9895">
        <ele>673</ele>
        <time>2019-12-17T09:18:26.000Z</time>
      </trkpt>
      <trkpt lat="43.35964" lon="5.9895">
        <ele>673</ele>
        <time>2019-12-17T09:18:27.000Z</time>
      </trkpt>
      <trkpt lat="43.35965" lon="5.9895">
        <ele>673</ele>
        <time>2019-12-17T09:18:28.000Z</time>
      </trkpt>
      <trkpt lat="43.35965" lon="5.9895">
        <ele>673</ele>
        <time>2019-12-17T09:18:29.000Z</time>
      </trkpt>
      <trkpt lat="43.35966" lon="5.9895">
        <ele>673</ele>
        <time>2019-12-17T09:18:30.000Z</time>
      </trkpt>
      <trkpt lat="43.35967" lon="5.9895">
        <ele>673</ele>
        <time>2019-12-17T09:18:31.000Z</time>
      </trkpt>
      <trkpt lat="43.35967" lon="5.9895">
        <ele>673</ele>
        <time>2019-12-17T09:18:32.000Z</time>
      </trkpt>
      <trkpt lat="43.35968" lon="5.9895">
        <ele>673</ele>
        <time>2019-12-17T09:18:33.000Z</time>
      </trkpt>
      <trkpt lat="43.35969" lon="5.98951">
        <ele>672</ele>
        <time>2019-12-17T09:18:34.000Z</time>
      </trkpt>
      <trkpt lat="43.3597" lon="5.98951">
        <ele>672</ele>
        <time>2019-12-17T09:18:35.000Z</time>
      </trkpt>
      <trkpt lat="43.35971" lon="5.98952">
        <ele>672</ele>
        <time>2019-12-17T09:18:36.000Z</time>
      </trkpt>
      <trkpt lat="43.35971" lon="5.98952">
        <ele>672</ele>
        <time>2019-12-17T09:18:37.000Z</time>
      </trkpt>
      <trkpt lat="43.35972" lon="5.98953">
        <ele>672</ele>
        <time>2019-12-17T09:18:38.000Z</time>
      </trkpt>
      <trkpt lat="43.35973" lon="5.98953">
        <ele>672</ele>
        <time>2019-12-17T09:18:39.000Z</time>
      </trkpt>
      <trkpt lat="43.35974" lon="5.98954">
        <ele>672</ele>
        <time>2019-12-17T09:18:40.000Z</time>
      </trkpt>
      <trkpt lat="43.35974" lon="5.98955">
        <ele>672</ele>
        <time>2019-12-17T09:18:41.000Z</time>
      </trkpt>
      <trkpt lat="43.35975" lon="5.98955">
        <ele>672</ele>
        <time>2019-12-17T09:18:42.000Z</time>
      </trkpt>
      <trkpt lat="43.35976" lon="5.98956">
        <ele>672</ele>
        <time>2019-12-17T09:18:43.000Z</time>
      </trkpt>
      <trkpt lat="43.35976" lon="5.98956">
        <ele>672</ele>
        <time>2019-12-17T09:18:44.000Z</time>
      </trkpt>
      <trkpt lat="43.35977" lon="5.98957">
        <ele>672</ele>
        <time>2019-12-17T09:18:45.000Z</time>
      </trkpt>
      <trkpt lat="43.35978" lon="5.98957">
        <ele>672</ele>
        <time>2019-12-17T09:18:46.000Z</time>
      </trkpt>
      <trkpt lat="43.35978" lon="5.98958">
        <ele>672</ele>
        <time>2019-12-17T09:18:47.000Z</time>
      </trkpt>
      <trkpt lat="43.35979" lon="5.98958">
        <ele>672</ele>
        <time>2019-12-17T09:18:48.000Z</time>
      </trkpt>
      <trkpt lat="43.3598" lon="5.98958">
        <ele>672</ele>
        <time>2019-12-17T09:18:49.000Z</time>
      </trkpt>
      <trkpt lat="43.3598" lon="5.98959">
        <ele>672</ele>
        <time>2019-12-17T09:18:50.000Z</time>
      </trkpt>
      <trkpt lat="43.3598" lon="5.98959">
        <ele>672</ele>
        <time>2019-12-17T09:18:51.000Z</time>
      </trkpt>
      <trkpt lat="43.35981" lon="5.98959">
        <ele>672</ele>
        <time>2019-12-17T09:18:52.000Z</time>
      </trkpt>
      <trkpt lat="43.35981" lon="5.98959">
        <ele>672</ele>
        <time>2019-12-17T09:18:53.000Z</time>
      </trkpt>
      <trkpt lat="43.35981" lon="5.98959">
        <ele>672</ele>
        <time>2019-12-17T09:18:54.000Z</time>
      </trkpt>
      <trkpt lat="43.35982" lon="5.98959">
        <ele>673</ele>
        <time>2019-12-17T09:18:55.000Z</time>
      </trkpt>
      <trkpt lat="43.35982" lon="5.98959">
        <ele>673</ele>
        <time>2019-12-17T09:18:56.000Z</time>
      </trkpt>
      <trkpt lat="43.35983" lon="5.98959">
        <ele>673</ele>
        <time>2019-12-17T09:18:57.000Z</time>
      </trkpt>
      <trkpt lat="43.35984" lon="5.9896">
        <ele>673</ele>
        <time>2019-12-17T09:18:58.000Z</time>
      </trkpt>
      <trkpt lat="43.35985" lon="5.9896">
        <ele>673</ele>
        <time>2019-12-17T09:18:59.000Z</time>
      </trkpt>
      <trkpt lat="43.35986" lon="5.9896">
        <ele>673</ele>
        <time>2019-12-17T09:19:00.000Z</time>
      </trkpt>
      <trkpt lat="43.35987" lon="5.9896">
        <ele>673</ele>
        <time>2019-12-17T09:19:01.000Z</time>
      </trkpt>
      <trkpt lat="43.35987" lon="5.9896">
        <ele>673</ele>
        <time>2019-12-17T09:19:02.000Z</time>
      </trkpt>
      <trkpt lat="43.35987" lon="5.9896">
        <ele>673</ele>
        <time>2019-12-17T09:19:03.000Z</time>
      </trkpt>
      <trkpt lat="43.35988" lon="5.9896">
        <ele>673</ele>
        <time>2019-12-17T09:19:04.000Z</time>
      </trkpt>
      <trkpt lat="43.35989" lon="5.9896">
        <ele>673</ele>
        <time>2019-12-17T09:19:05.000Z</time>
      </trkpt>
      <trkpt lat="43.3599" lon="5.98959">
        <ele>673</ele>
        <time>2019-12-17T09:19:06.000Z</time>
      </trkpt>
      <trkpt lat="43.35991" lon="5.98959">
        <ele>673</ele>
        <time>2019-12-17T09:19:07.000Z</time>
      </trkpt>
      <trkpt lat="43.35992" lon="5.98959">
        <ele>673</ele>
        <time>2019-12-17T09:19:08.000Z</time>
      </trkpt>
      <trkpt lat="43.35993" lon="5.98958">
        <ele>673</ele>
        <time>2019-12-17T09:19:09.000Z</time>
      </trkpt>
      <trkpt lat="43.35994" lon="5.98958">
        <ele>674</ele>
        <time>2019-12-17T09:19:10.000Z</time>
      </trkpt>
      <trkpt lat="43.35995" lon="5.98958">
        <ele>674</ele>
        <time>2019-12-17T09:19:11.000Z</time>
      </trkpt>
      <trkpt lat="43.35996" lon="5.98957">
        <ele>674</ele>
        <time>2019-12-17T09:19:12.000Z</time>
      </trkpt>
      <trkpt lat="43.35997" lon="5.98957">
        <ele>674</ele>
        <time>2019-12-17T09:19:13.000Z</time>
      </trkpt>
      <trkpt lat="43.35998" lon="5.98957">
        <ele>674</ele>
        <time>2019-12-17T09:19:14.000Z</time>
      </trkpt>
      <trkpt lat="43.35999" lon="5.98958">
        <ele>674</ele>
        <time>2019-12-17T09:19:15.000Z</time>
      </trkpt>
      <trkpt lat="43.36" lon="5.98958">
        <ele>674</ele>
        <time>2019-12-17T09:19:16.000Z</time>
      </trkpt>
      <trkpt lat="43.36002" lon="5.98958">
        <ele>674</ele>
        <time>2019-12-17T09:19:17.000Z</time>
      </trkpt>
      <trkpt lat="43.36003" lon="5.98958">
        <ele>674</ele>
        <time>2019-12-17T09:19:18.000Z</time>
      </trkpt>
      <trkpt lat="43.36005" lon="5.98958">
        <ele>674</ele>
        <time>2019-12-17T09:19:19.000Z</time>
      </trkpt>
      <trkpt lat="43.36006" lon="5.98958">
        <ele>674</ele>
        <time>2019-12-17T09:19:20.000Z</time>
      </trkpt>
      <trkpt lat="43.36007" lon="5.98958">
        <ele>674</ele>
        <time>2019-12-17T09:19:21.000Z</time>
      </trkpt>
      <trkpt lat="43.36009" lon="5.98959">
        <ele>675</ele>
        <time>2019-12-17T09:19:22.000Z</time>
      </trkpt>
      <trkpt lat="43.3601" lon="5.98959">
        <ele>675</ele>
        <time>2019-12-17T09:19:23.000Z</time>
      </trkpt>
      <trkpt lat="43.36011" lon="5.98959">
        <ele>675</ele>
        <time>2019-12-17T09:19:24.000Z</time>
      </trkpt>
      <trkpt lat="43.36012" lon="5.9896">
        <ele>675</ele>
        <time>2019-12-17T09:19:25.000Z</time>
      </trkpt>
      <trkpt lat="43.36013" lon="5.9896">
        <ele>675</ele>
        <time>2019-12-17T09:19:26.000Z</time>
      </trkpt>
      <trkpt lat="43.36013" lon="5.98961">
        <ele>675</ele>
        <time>2019-12-17T09:19:27.000Z</time>
      </trkpt>
      <trkpt lat="43.36014" lon="5.98962">
        <ele>675</ele>
        <time>2019-12-17T09:19:28.000Z</time>
      </trkpt>
      <trkpt lat="43.36015" lon="5.98963">
        <ele>675</ele>
        <time>2019-12-17T09:19:29.000Z</time>
      </trkpt>
      <trkpt lat="43.36016" lon="5.98964">
        <ele>675</ele>
        <time>2019-12-17T09:19:30.000Z</time>
      </trkpt>
      <trkpt lat="43.36017" lon="5.98965">
        <ele>676</ele>
        <time>2019-12-17T09:19:31.000Z</time>
      </trkpt>
      <trkpt lat="43.36018" lon="5.98965">
        <ele>676</ele>
        <time>2019-12-17T09:19:32.000Z</time>
      </trkpt>
      <trkpt lat="43.36019" lon="5.98965">
        <ele>676</ele>
        <time>2019-12-17T09:19:33.000Z</time>
      </trkpt>
      <trkpt lat="43.3602" lon="5.98966">
        <ele>676</ele>
        <time>2019-12-17T09:19:34.000Z</time>
      </trkpt>
      <trkpt lat="43.36021" lon="5.98966">
        <ele>676</ele>
        <time>2019-12-17T09:19:35.000Z</time>
      </trkpt>
      <trkpt lat="43.36022" lon="5.98966">
        <ele>676</ele>
        <time>2019-12-17T09:19:36.000Z</time>
      </trkpt>
      <trkpt lat="43.36022" lon="5.98967">
        <ele>676</ele>
        <time>2019-12-17T09:19:37.000Z</time>
      </trkpt>
      <trkpt lat="43.36023" lon="5.98968">
        <ele>676</ele>
        <time>2019-12-17T09:19:38.000Z</time>
      </trkpt>
      <trkpt lat="43.36024" lon="5.98969">
        <ele>676</ele>
        <time>2019-12-17T09:19:39.000Z</time>
      </trkpt>
      <trkpt lat="43.36025" lon="5.98969">
        <ele>676</ele>
        <time>2019-12-17T09:19:40.000Z</time>
      </trkpt>
      <trkpt lat="43.36026" lon="5.9897">
        <ele>676</ele>
        <time>2019-12-17T09:19:41.000Z</time>
      </trkpt>
      <trkpt lat="43.36027" lon="5.98971">
        <ele>676</ele>
        <time>2019-12-17T09:19:42.000Z</time>
      </trkpt>
      <trkpt lat="43.36027" lon="5.98972">
        <ele>676</ele>
        <time>2019-12-17T09:19:43.000Z</time>
      </trkpt>
      <trkpt lat="43.36027" lon="5.98972">
        <ele>676</ele>
        <time>2019-12-17T09:19:44.000Z</time>
      </trkpt>
      <trkpt lat="43.36028" lon="5.98973">
        <ele>676</ele>
        <time>2019-12-17T09:19:45.000Z</time>
      </trkpt>
      <trkpt lat="43.36029" lon="5.98973">
        <ele>676</ele>
        <time>2019-12-17T09:19:46.000Z</time>
      </trkpt>
      <trkpt lat="43.3603" lon="5.98974">
        <ele>676</ele>
        <time>2019-12-17T09:19:47.000Z</time>
      </trkpt>
      <trkpt lat="43.36031" lon="5.98975">
        <ele>676</ele>
        <time>2019-12-17T09:19:48.000Z</time>
      </trkpt>
      <trkpt lat="43.36033" lon="5.98976">
        <ele>676</ele>
        <time>2019-12-17T09:19:49.000Z</time>
      </trkpt>
      <trkpt lat="43.36034" lon="5.98977">
        <ele>675</ele>
        <time>2019-12-17T09:19:50.000Z</time>
      </trkpt>
      <trkpt lat="43.36036" lon="5.98978">
        <ele>675</ele>
        <time>2019-12-17T09:19:51.000Z</time>
      </trkpt>
      <trkpt lat="43.36038" lon="5.98979">
        <ele>675</ele>
        <time>2019-12-17T09:19:52.000Z</time>
      </trkpt>
      <trkpt lat="43.3604" lon="5.9898">
        <ele>675</ele>
        <time>2019-12-17T09:19:53.000Z</time>
      </trkpt>
      <trkpt lat="43.36041" lon="5.98981">
        <ele>675</ele>
        <time>2019-12-17T09:19:54.000Z</time>
      </trkpt>
      <trkpt lat="43.36042" lon="5.98982">
        <ele>675</ele>
        <time>2019-12-17T09:19:55.000Z</time>
      </trkpt>
      <trkpt lat="43.36043" lon="5.98983">
        <ele>676</ele>
        <time>2019-12-17T09:19:56.000Z</time>
      </trkpt>
      <trkpt lat="43.36044" lon="5.98984">
        <ele>676</ele>
        <time>2019-12-17T09:19:57.000Z</time>
      </trkpt>
      <trkpt lat="43.36045" lon="5.98985">
        <ele>676</ele>
        <time>2019-12-17T09:19:58.000Z</time>
      </trkpt>
      <trkpt lat="43.36047" lon="5.98986">
        <ele>676</ele>
        <time>2019-12-17T09:19:59.000Z</time>
      </trkpt>
      <trkpt lat="43.36048" lon="5.98987">
        <ele>676</ele>
        <time>2019-12-17T09:20:00.000Z</time>
      </trkpt>
      <trkpt lat="43.36049" lon="5.98988">
        <ele>676</ele>
        <time>2019-12-17T09:20:01.000Z</time>
      </trkpt>
      <trkpt lat="43.3605" lon="5.98988">
        <ele>676</ele>
        <time>2019-12-17T09:20:02.000Z</time>
      </trkpt>
      <trkpt lat="43.36051" lon="5.98989">
        <ele>676</ele>
        <time>2019-12-17T09:20:03.000Z</time>
      </trkpt>
      <trkpt lat="43.36052" lon="5.98989">
        <ele>676</ele>
        <time>2019-12-17T09:20:04.000Z</time>
      </trkpt>
      <trkpt lat="43.36053" lon="5.98989">
        <ele>676</ele>
        <time>2019-12-17T09:20:05.000Z</time>
      </trkpt>
      <trkpt lat="43.36053" lon="5.98989">
        <ele>676</ele>
        <time>2019-12-17T09:20:06.000Z</time>
      </trkpt>
      <trkpt lat="43.36054" lon="5.98988">
        <ele>676</ele>
        <time>2019-12-17T09:20:07.000Z</time>
      </trkpt>
      <trkpt lat="43.36055" lon="5.98988">
        <ele>676</ele>
        <time>2019-12-17T09:20:08.000Z</time>
      </trkpt>
      <trkpt lat="43.36057" lon="5.98988">
        <ele>676</ele>
        <time>2019-12-17T09:20:09.000Z</time>
      </trkpt>
      <trkpt lat="43.36058" lon="5.98988">
        <ele>676</ele>
        <time>2019-12-17T09:20:10.000Z</time>
      </trkpt>
      <trkpt lat="43.36059" lon="5.98988">
        <ele>675</ele>
        <time>2019-12-17T09:20:11.000Z</time>
      </trkpt>
      <trkpt lat="43.3606" lon="5.98988">
        <ele>675</ele>
        <time>2019-12-17T09:20:12.000Z</time>
      </trkpt>
      <trkpt lat="43.3606" lon="5.98987">
        <ele>675</ele>
        <time>2019-12-17T09:20:13.000Z</time>
      </trkpt>
      <trkpt lat="43.36061" lon="5.98987">
        <ele>675</ele>
        <time>2019-12-17T09:20:14.000Z</time>
      </trkpt>
      <trkpt lat="43.36062" lon="5.98987">
        <ele>675</ele>
        <time>2019-12-17T09:20:15.000Z</time>
      </trkpt>
      <trkpt lat="43.36063" lon="5.98987">
        <ele>675</ele>
        <time>2019-12-17T09:20:16.000Z</time>
      </trkpt>
      <trkpt lat="43.36064" lon="5.98987">
        <ele>675</ele>
        <time>2019-12-17T09:20:17.000Z</time>
      </trkpt>
      <trkpt lat="43.36064" lon="5.98987">
        <ele>676</ele>
        <time>2019-12-17T09:20:18.000Z</time>
      </trkpt>
      <trkpt lat="43.36065" lon="5.98986">
        <ele>676</ele>
        <time>2019-12-17T09:20:19.000Z</time>
      </trkpt>
      <trkpt lat="43.36066" lon="5.98986">
        <ele>676</ele>
        <time>2019-12-17T09:20:20.000Z</time>
      </trkpt>
      <trkpt lat="43.36066" lon="5.98985">
        <ele>676</ele>
        <time>2019-12-17T09:20:21.000Z</time>
      </trkpt>
      <trkpt lat="43.36067" lon="5.98985">
        <ele>676</ele>
        <time>2019-12-17T09:20:22.000Z</time>
      </trkpt>
      <trkpt lat="43.36068" lon="5.98985">
        <ele>676</ele>
        <time>2019-12-17T09:20:23.000Z</time>
      </trkpt>
      <trkpt lat="43.36069" lon="5.98984">
        <ele>675</ele>
        <time>2019-12-17T09:20:24.000Z</time>
      </trkpt>
      <trkpt lat="43.3607" lon="5.98984">
        <ele>675</ele>
        <time>2019-12-17T09:20:25.000Z</time>
      </trkpt>
      <trkpt lat="43.36071" lon="5.98983">
        <ele>675</ele>
        <time>2019-12-17T09:20:26.000Z</time>
      </trkpt>
      <trkpt lat="43.36072" lon="5.98983">
        <ele>675</ele>
        <time>2019-12-17T09:20:27.000Z</time>
      </trkpt>
      <trkpt lat="43.36073" lon="5.98982">
        <ele>675</ele>
        <time>2019-12-17T09:20:28.000Z</time>
      </trkpt>
      <trkpt lat="43.36074" lon="5.98982">
        <ele>675</ele>
        <time>2019-12-17T09:20:29.000Z</time>
      </trkpt>
      <trkpt lat="43.36075" lon="5.98981">
        <ele>675</ele>
        <time>2019-12-17T09:20:30.000Z</time>
      </trkpt>
      <trkpt lat="43.36077" lon="5.98981">
        <ele>674</ele>
        <time>2019-12-17T09:20:31.000Z</time>
      </trkpt>
      <trkpt lat="43.36078" lon="5.98981">
        <ele>674</ele>
        <time>2019-12-17T09:20:32.000Z</time>
      </trkpt>
      <trkpt lat="43.36079" lon="5.98982">
        <ele>674</ele>
        <time>2019-12-17T09:20:33.000Z</time>
      </trkpt>
      <trkpt lat="43.3608" lon="5.98982">
        <ele>674</ele>
        <time>2019-12-17T09:20:34.000Z</time>
      </trkpt>
      <trkpt lat="43.36082" lon="5.98983">
        <ele>674</ele>
        <time>2019-12-17T09:20:35.000Z</time>
      </trkpt>
      <trkpt lat="43.36083" lon="5.98983">
        <ele>674</ele>
        <time>2019-12-17T09:20:36.000Z</time>
      </trkpt>
      <trkpt lat="43.36084" lon="5.98983">
        <ele>674</ele>
        <time>2019-12-17T09:20:37.000Z</time>
      </trkpt>
      <trkpt lat="43.36086" lon="5.98984">
        <ele>673</ele>
        <time>2019-12-17T09:20:38.000Z</time>
      </trkpt>
      <trkpt lat="43.36087" lon="5.98985">
        <ele>673</ele>
        <time>2019-12-17T09:20:39.000Z</time>
      </trkpt>
      <trkpt lat="43.36089" lon="5.98985">
        <ele>673</ele>
        <time>2019-12-17T09:20:40.000Z</time>
      </trkpt>
      <trkpt lat="43.36089" lon="5.98986">
        <ele>673</ele>
        <time>2019-12-17T09:20:41.000Z</time>
      </trkpt>
      <trkpt lat="43.3609" lon="5.98987">
        <ele>673</ele>
        <time>2019-12-17T09:20:42.000Z</time>
      </trkpt>
      <trkpt lat="43.36091" lon="5.98988">
        <ele>673</ele>
        <time>2019-12-17T09:20:43.000Z</time>
      </trkpt>
      <trkpt lat="43.36092" lon="5.98989">
        <ele>673</ele>
        <time>2019-12-17T09:20:44.000Z</time>
      </trkpt>
      <trkpt lat="43.36092" lon="5.9899">
        <ele>673</ele>
        <time>2019-12-17T09:20:45.000Z</time>
      </trkpt>
      <trkpt lat="43.36093" lon="5.98992">
        <ele>673</ele>
        <time>2019-12-17T09:20:46.000Z</time>
      </trkpt>
      <trkpt lat="43.36093" lon="5.98993">
        <ele>673</ele>
        <time>2019-12-17T09:20:47.000Z</time>
      </trkpt>
      <trkpt lat="43.36094" lon="5.98994">
        <ele>673</ele>
        <time>2019-12-17T09:20:48.000Z</time>
      </trkpt>
      <trkpt lat="43.36095" lon="5.98994">
        <ele>673</ele>
        <time>2019-12-17T09:20:49.000Z</time>
      </trkpt>
      <trkpt lat="43.36095" lon="5.98995">
        <ele>672</ele>
        <time>2019-12-17T09:20:50.000Z</time>
      </trkpt>
      <trkpt lat="43.36096" lon="5.98996">
        <ele>672</ele>
        <time>2019-12-17T09:20:51.000Z</time>
      </trkpt>
      <trkpt lat="43.36097" lon="5.98997">
        <ele>672</ele>
        <time>2019-12-17T09:20:52.000Z</time>
      </trkpt>
      <trkpt lat="43.36097" lon="5.98998">
        <ele>672</ele>
        <time>2019-12-17T09:20:53.000Z</time>
      </trkpt>
      <trkpt lat="43.36098" lon="5.98999">
        <ele>672</ele>
        <time>2019-12-17T09:20:54.000Z</time>
      </trkpt>
      <trkpt lat="43.36099" lon="5.99">
        <ele>672</ele>
        <time>2019-12-17T09:20:55.000Z</time>
      </trkpt>
      <trkpt lat="43.36099" lon="5.99001">
        <ele>672</ele>
        <time>2019-12-17T09:20:56.000Z</time>
      </trkpt>
      <trkpt lat="43.361" lon="5.99002">
        <ele>672</ele>
        <time>2019-12-17T09:20:57.000Z</time>
      </trkpt>
      <trkpt lat="43.36101" lon="5.99003">
        <ele>672</ele>
        <time>2019-12-17T09:20:58.000Z</time>
      </trkpt>
      <trkpt lat="43.36102" lon="5.99004">
        <ele>672</ele>
        <time>2019-12-17T09:20:59.000Z</time>
      </trkpt>
      <trkpt lat="43.36103" lon="5.99004">
        <ele>672</ele>
        <time>2019-12-17T09:21:00.000Z</time>
      </trkpt>
      <trkpt lat="43.36104" lon="5.99005">
        <ele>672</ele>
        <time>2019-12-17T09:21:01.000Z</time>
      </trkpt>
      <trkpt lat="43.36105" lon="5.99006">
        <ele>672</ele>
        <time>2019-12-17T09:21:02.000Z</time>
      </trkpt>
      <trkpt lat="43.36106" lon="5.99006">
        <ele>672</ele>
        <time>2019-12-17T09:21:03.000Z</time>
      </trkpt>
      <trkpt lat="43.36107" lon="5.99006">
        <ele>672</ele>
        <time>2019-12-17T09:21:04.000Z</time>
      </trkpt>
      <trkpt lat="43.36107" lon="5.99007">
        <ele>671</ele>
        <time>2019-12-17T09:21:05.000Z</time>
      </trkpt>
      <trkpt lat="43.36108" lon="5.99008">
        <ele>671</ele>
        <time>2019-12-17T09:21:06.000Z</time>
      </trkpt>
      <trkpt lat="43.36109" lon="5.99009">
        <ele>671</ele>
        <time>2019-12-17T09:21:07.000Z</time>
      </trkpt>
      <trkpt lat="43.3611" lon="5.9901">
        <ele>671</ele>
        <time>2019-12-17T09:21:08.000Z</time>
      </trkpt>
      <trkpt lat="43.3611" lon="5.99012">
        <ele>671</ele>
        <time>2019-12-17T09:21:09.000Z</time>
      </trkpt>
      <trkpt lat="43.36111" lon="5.99013">
        <ele>671</ele>
        <time>2019-12-17T09:21:10.000Z</time>
      </trkpt>
      <trkpt lat="43.36112" lon="5.99014">
        <ele>671</ele>
        <time>2019-12-17T09:21:11.000Z</time>
      </trkpt>
      <trkpt lat="43.36113" lon="5.99014">
        <ele>671</ele>
        <time>2019-12-17T09:21:12.000Z</time>
      </trkpt>
      <trkpt lat="43.36114" lon="5.99015">
        <ele>671</ele>
        <time>2019-12-17T09:21:13.000Z</time>
      </trkpt>
      <trkpt lat="43.36114" lon="5.99015">
        <ele>671</ele>
        <time>2019-12-17T09:21:14.000Z</time>
      </trkpt>
      <trkpt lat="43.36115" lon="5.99016">
        <ele>670</ele>
        <time>2019-12-17T09:21:15.000Z</time>
      </trkpt>
      <trkpt lat="43.36115" lon="5.99016">
        <ele>670</ele>
        <time>2019-12-17T09:21:16.000Z</time>
      </trkpt>
      <trkpt lat="43.36116" lon="5.99016">
        <ele>670</ele>
        <time>2019-12-17T09:21:17.000Z</time>
      </trkpt>
      <trkpt lat="43.36117" lon="5.99017">
        <ele>670</ele>
        <time>2019-12-17T09:21:18.000Z</time>
      </trkpt>
      <trkpt lat="43.36117" lon="5.99018">
        <ele>670</ele>
        <time>2019-12-17T09:21:19.000Z</time>
      </trkpt>
      <trkpt lat="43.36118" lon="5.99018">
        <ele>670</ele>
        <time>2019-12-17T09:21:20.000Z</time>
      </trkpt>
      <trkpt lat="43.36119" lon="5.99019">
        <ele>670</ele>
        <time>2019-12-17T09:21:21.000Z</time>
      </trkpt>
      <trkpt lat="43.3612" lon="5.9902">
        <ele>670</ele>
        <time>2019-12-17T09:21:22.000Z</time>
      </trkpt>
      <trkpt lat="43.36121" lon="5.9902">
        <ele>670</ele>
        <time>2019-12-17T09:21:23.000Z</time>
      </trkpt>
      <trkpt lat="43.36122" lon="5.99021">
        <ele>670</ele>
        <time>2019-12-17T09:21:24.000Z</time>
      </trkpt>
      <trkpt lat="43.36123" lon="5.99022">
        <ele>670</ele>
        <time>2019-12-17T09:21:25.000Z</time>
      </trkpt>
      <trkpt lat="43.36124" lon="5.99022">
        <ele>671</ele>
        <time>2019-12-17T09:21:26.000Z</time>
      </trkpt>
      <trkpt lat="43.36124" lon="5.99022">
        <ele>671</ele>
        <time>2019-12-17T09:21:27.000Z</time>
      </trkpt>
      <trkpt lat="43.36125" lon="5.99022">
        <ele>671</ele>
        <time>2019-12-17T09:21:28.000Z</time>
      </trkpt>
      <trkpt lat="43.36126" lon="5.99022">
        <ele>671</ele>
        <time>2019-12-17T09:21:29.000Z</time>
      </trkpt>
      <trkpt lat="43.36127" lon="5.99022">
        <ele>671</ele>
        <time>2019-12-17T09:21:30.000Z</time>
      </trkpt>
      <trkpt lat="43.36128" lon="5.99022">
        <ele>671</ele>
        <time>2019-12-17T09:21:31.000Z</time>
      </trkpt>
      <trkpt lat="43.36128" lon="5.99022">
        <ele>671</ele>
        <time>2019-12-17T09:21:32.000Z</time>
      </trkpt>
      <trkpt lat="43.36129" lon="5.99022">
        <ele>671</ele>
        <time>2019-12-17T09:21:33.000Z</time>
      </trkpt>
      <trkpt lat="43.3613" lon="5.99022">
        <ele>671</ele>
        <time>2019-12-17T09:21:34.000Z</time>
      </trkpt>
      <trkpt lat="43.3613" lon="5.99022">
        <ele>671</ele>
        <time>2019-12-17T09:21:35.000Z</time>
      </trkpt>
      <trkpt lat="43.36131" lon="5.99022">
        <ele>671</ele>
        <time>2019-12-17T09:21:36.000Z</time>
      </trkpt>
      <trkpt lat="43.36132" lon="5.99022">
        <ele>671</ele>
        <time>2019-12-17T09:21:37.000Z</time>
      </trkpt>
      <trkpt lat="43.36133" lon="5.99022">
        <ele>671</ele>
        <time>2019-12-17T09:21:38.000Z</time>
      </trkpt>
      <trkpt lat="43.36134" lon="5.99022">
        <ele>671</ele>
        <time>2019-12-17T09:21:39.000Z</time>
      </trkpt>
      <trkpt lat="43.36135" lon="5.99022">
        <ele>671</ele>
        <time>2019-12-17T09:21:40.000Z</time>
      </trkpt>
      <trkpt lat="43.36136" lon="5.99021">
        <ele>671</ele>
        <time>2019-12-17T09:21:41.000Z</time>
      </trkpt>
      <trkpt lat="43.36137" lon="5.99022">
        <ele>671</ele>
        <time>2019-12-17T09:21:42.000Z</time>
      </trkpt>
      <trkpt lat="43.36138" lon="5.99022">
        <ele>671</ele>
        <time>2019-12-17T09:21:43.000Z</time>
      </trkpt>
      <trkpt lat="43.36139" lon="5.99022">
        <ele>671</ele>
        <time>2019-12-17T09:21:44.000Z</time>
      </trkpt>
      <trkpt lat="43.3614" lon="5.99022">
        <ele>671</ele>
        <time>2019-12-17T09:21:45.000Z</time>
      </trkpt>
      <trkpt lat="43.36141" lon="5.99022">
        <ele>671</ele>
        <time>2019-12-17T09:21:46.000Z</time>
      </trkpt>
      <trkpt lat="43.36142" lon="5.99022">
        <ele>672</ele>
        <time>2019-12-17T09:21:47.000Z</time>
      </trkpt>
      <trkpt lat="43.36142" lon="5.99023">
        <ele>672</ele>
        <time>2019-12-17T09:21:48.000Z</time>
      </trkpt>
      <trkpt lat="43.36143" lon="5.99023">
        <ele>672</ele>
        <time>2019-12-17T09:21:49.000Z</time>
      </trkpt>
      <trkpt lat="43.36144" lon="5.99024">
        <ele>672</ele>
        <time>2019-12-17T09:21:50.000Z</time>
      </trkpt>
      <trkpt lat="43.36144" lon="5.99025">
        <ele>672</ele>
        <time>2019-12-17T09:21:51.000Z</time>
      </trkpt>
      <trkpt lat="43.36145" lon="5.99025">
        <ele>672</ele>
        <time>2019-12-17T09:21:52.000Z</time>
      </trkpt>
      <trkpt lat="43.36146" lon="5.99026">
        <ele>672</ele>
        <time>2019-12-17T09:21:53.000Z</time>
      </trkpt>
      <trkpt lat="43.36146" lon="5.99026">
        <ele>672</ele>
        <time>2019-12-17T09:21:54.000Z</time>
      </trkpt>
      <trkpt lat="43.36147" lon="5.99027">
        <ele>672</ele>
        <time>2019-12-17T09:21:55.000Z</time>
      </trkpt>
      <trkpt lat="43.36147" lon="5.99028">
        <ele>673</ele>
        <time>2019-12-17T09:21:56.000Z</time>
      </trkpt>
      <trkpt lat="43.36148" lon="5.99028">
        <ele>673</ele>
        <time>2019-12-17T09:21:57.000Z</time>
      </trkpt>
      <trkpt lat="43.36149" lon="5.99029">
        <ele>673</ele>
        <time>2019-12-17T09:21:58.000Z</time>
      </trkpt>
      <trkpt lat="43.3615" lon="5.99029">
        <ele>673</ele>
        <time>2019-12-17T09:21:59.000Z</time>
      </trkpt>
      <trkpt lat="43.36151" lon="5.9903">
        <ele>673</ele>
        <time>2019-12-17T09:22:00.000Z</time>
      </trkpt>
      <trkpt lat="43.36151" lon="5.9903">
        <ele>674</ele>
        <time>2019-12-17T09:22:01.000Z</time>
      </trkpt>
      <trkpt lat="43.36152" lon="5.99031">
        <ele>674</ele>
        <time>2019-12-17T09:22:02.000Z</time>
      </trkpt>
      <trkpt lat="43.36152" lon="5.99032">
        <ele>674</ele>
        <time>2019-12-17T09:22:03.000Z</time>
      </trkpt>
      <trkpt lat="43.36153" lon="5.99032">
        <ele>674</ele>
        <time>2019-12-17T09:22:04.000Z</time>
      </trkpt>
      <trkpt lat="43.36153" lon="5.99033">
        <ele>674</ele>
        <time>2019-12-17T09:22:05.000Z</time>
      </trkpt>
      <trkpt lat="43.36154" lon="5.99034">
        <ele>674</ele>
        <time>2019-12-17T09:22:06.000Z</time>
      </trkpt>
      <trkpt lat="43.36154" lon="5.99034">
        <ele>674</ele>
        <time>2019-12-17T09:22:07.000Z</time>
      </trkpt>
      <trkpt lat="43.36155" lon="5.99035">
        <ele>675</ele>
        <time>2019-12-17T09:22:08.000Z</time>
      </trkpt>
      <trkpt lat="43.36156" lon="5.99036">
        <ele>675</ele>
        <time>2019-12-17T09:22:09.000Z</time>
      </trkpt>
      <trkpt lat="43.36156" lon="5.99037">
        <ele>675</ele>
        <time>2019-12-17T09:22:10.000Z</time>
      </trkpt>
      <trkpt lat="43.36157" lon="5.99037">
        <ele>675</ele>
        <time>2019-12-17T09:22:11.000Z</time>
      </trkpt>
      <trkpt lat="43.36157" lon="5.99038">
        <ele>675</ele>
        <time>2019-12-17T09:22:12.000Z</time>
      </trkpt>
      <trkpt lat="43.36158" lon="5.99038">
        <ele>675</ele>
        <time>2019-12-17T09:22:13.000Z</time>
      </trkpt>
      <trkpt lat="43.36159" lon="5.99039">
        <ele>675</ele>
        <time>2019-12-17T09:22:14.000Z</time>
      </trkpt>
      <trkpt lat="43.36159" lon="5.99039">
        <ele>675</ele>
        <time>2019-12-17T09:22:15.000Z</time>
      </trkpt>
      <trkpt lat="43.3616" lon="5.99039">
        <ele>675</ele>
        <time>2019-12-17T09:22:16.000Z</time>
      </trkpt>
      <trkpt lat="43.36161" lon="5.99039">
        <ele>676</ele>
        <time>2019-12-17T09:22:17.000Z</time>
      </trkpt>
      <trkpt lat="43.36161" lon="5.9904">
        <ele>676</ele>
        <time>2019-12-17T09:22:18.000Z</time>
      </trkpt>
      <trkpt lat="43.36162" lon="5.9904">
        <ele>676</ele>
        <time>2019-12-17T09:22:19.000Z</time>
      </trkpt>
      <trkpt lat="43.36162" lon="5.99041">
        <ele>676</ele>
        <time>2019-12-17T09:22:20.000Z</time>
      </trkpt>
      <trkpt lat="43.36163" lon="5.99041">
        <ele>676</ele>
        <time>2019-12-17T09:22:21.000Z</time>
      </trkpt>
      <trkpt lat="43.36163" lon="5.99041">
        <ele>676</ele>
        <time>2019-12-17T09:22:22.000Z</time>
      </trkpt>
      <trkpt lat="43.36163" lon="5.99042">
        <ele>676</ele>
        <time>2019-12-17T09:22:23.000Z</time>
      </trkpt>
      <trkpt lat="43.36164" lon="5.99042">
        <ele>676</ele>
        <time>2019-12-17T09:22:24.000Z</time>
      </trkpt>
      <trkpt lat="43.36165" lon="5.99042">
        <ele>676</ele>
        <time>2019-12-17T09:22:25.000Z</time>
      </trkpt>
      <trkpt lat="43.36165" lon="5.99043">
        <ele>676</ele>
        <time>2019-12-17T09:22:26.000Z</time>
      </trkpt>
      <trkpt lat="43.36166" lon="5.99043">
        <ele>676</ele>
        <time>2019-12-17T09:22:27.000Z</time>
      </trkpt>
      <trkpt lat="43.36166" lon="5.99044">
        <ele>676</ele>
        <time>2019-12-17T09:22:28.000Z</time>
      </trkpt>
      <trkpt lat="43.36167" lon="5.99044">
        <ele>676</ele>
        <time>2019-12-17T09:22:29.000Z</time>
      </trkpt>
      <trkpt lat="43.36168" lon="5.99045">
        <ele>676</ele>
        <time>2019-12-17T09:22:30.000Z</time>
      </trkpt>
      <trkpt lat="43.36168" lon="5.99045">
        <ele>677</ele>
        <time>2019-12-17T09:22:31.000Z</time>
      </trkpt>
      <trkpt lat="43.36169" lon="5.99046">
        <ele>677</ele>
        <time>2019-12-17T09:22:32.000Z</time>
      </trkpt>
      <trkpt lat="43.36169" lon="5.99047">
        <ele>677</ele>
        <time>2019-12-17T09:22:33.000Z</time>
      </trkpt>
      <trkpt lat="43.3617" lon="5.99048">
        <ele>677</ele>
        <time>2019-12-17T09:22:34.000Z</time>
      </trkpt>
      <trkpt lat="43.3617" lon="5.99049">
        <ele>677</ele>
        <time>2019-12-17T09:22:35.000Z</time>
      </trkpt>
      <trkpt lat="43.36171" lon="5.99049">
        <ele>677</ele>
        <time>2019-12-17T09:22:36.000Z</time>
      </trkpt>
      <trkpt lat="43.36171" lon="5.9905">
        <ele>677</ele>
        <time>2019-12-17T09:22:37.000Z</time>
      </trkpt>
      <trkpt lat="43.36172" lon="5.99051">
        <ele>677</ele>
        <time>2019-12-17T09:22:38.000Z</time>
      </trkpt>
      <trkpt lat="43.36172" lon="5.99051">
        <ele>677</ele>
        <time>2019-12-17T09:22:39.000Z</time>
      </trkpt>
      <trkpt lat="43.36173" lon="5.99052">
        <ele>677</ele>
        <time>2019-12-17T09:22:40.000Z</time>
      </trkpt>
      <trkpt lat="43.36173" lon="5.99052">
        <ele>678</ele>
        <time>2019-12-17T09:22:41.000Z</time>
      </trkpt>
      <trkpt lat="43.36174" lon="5.99053">
        <ele>678</ele>
        <time>2019-12-17T09:22:42.000Z</time>
      </trkpt>
      <trkpt lat="43.36175" lon="5.99053">
        <ele>678</ele>
        <time>2019-12-17T09:22:43.000Z</time>
      </trkpt>
      <trkpt lat="43.36175" lon="5.99054">
        <ele>678</ele>
        <time>2019-12-17T09:22:44.000Z</time>
      </trkpt>
      <trkpt lat="43.36176" lon="5.99055">
        <ele>678</ele>
        <time>2019-12-17T09:22:45.000Z</time>
      </trkpt>
      <trkpt lat="43.36176" lon="5.99056">
        <ele>678</ele>
        <time>2019-12-17T09:22:46.000Z</time>
      </trkpt>
      <trkpt lat="43.36177" lon="5.99057">
        <ele>678</ele>
        <time>2019-12-17T09:22:47.000Z</time>
      </trkpt>
      <trkpt lat="43.36178" lon="5.99058">
        <ele>678</ele>
        <time>2019-12-17T09:22:48.000Z</time>
      </trkpt>
      <trkpt lat="43.36178" lon="5.99058">
        <ele>678</ele>
        <time>2019-12-17T09:22:49.000Z</time>
      </trkpt>
      <trkpt lat="43.36179" lon="5.99059">
        <ele>678</ele>
        <time>2019-12-17T09:22:50.000Z</time>
      </trkpt>
      <trkpt lat="43.3618" lon="5.9906">
        <ele>678</ele>
        <time>2019-12-17T09:22:51.000Z</time>
      </trkpt>
      <trkpt lat="43.3618" lon="5.99061">
        <ele>679</ele>
        <time>2019-12-17T09:22:52.000Z</time>
      </trkpt>
      <trkpt lat="43.36181" lon="5.99062">
        <ele>679</ele>
        <time>2019-12-17T09:22:53.000Z</time>
      </trkpt>
      <trkpt lat="43.36181" lon="5.99062">
        <ele>679</ele>
        <time>2019-12-17T09:22:54.000Z</time>
      </trkpt>
      <trkpt lat="43.36182" lon="5.99063">
        <ele>679</ele>
        <time>2019-12-17T09:22:55.000Z</time>
      </trkpt>
      <trkpt lat="43.36183" lon="5.99063">
        <ele>679</ele>
        <time>2019-12-17T09:22:56.000Z</time>
      </trkpt>
      <trkpt lat="43.36184" lon="5.99064">
        <ele>679</ele>
        <time>2019-12-17T09:22:57.000Z</time>
      </trkpt>
      <trkpt lat="43.36185" lon="5.99064">
        <ele>679</ele>
        <time>2019-12-17T09:22:58.000Z</time>
      </trkpt>
      <trkpt lat="43.36186" lon="5.99064">
        <ele>679</ele>
        <time>2019-12-17T09:22:59.000Z</time>
      </trkpt>
      <trkpt lat="43.36186" lon="5.99065">
        <ele>679</ele>
        <time>2019-12-17T09:23:00.000Z</time>
      </trkpt>
      <trkpt lat="43.36187" lon="5.99065">
        <ele>679</ele>
        <time>2019-12-17T09:23:01.000Z</time>
      </trkpt>
      <trkpt lat="43.36187" lon="5.99065">
        <ele>679</ele>
        <time>2019-12-17T09:23:02.000Z</time>
      </trkpt>
      <trkpt lat="43.36188" lon="5.99066">
        <ele>679</ele>
        <time>2019-12-17T09:23:03.000Z</time>
      </trkpt>
      <trkpt lat="43.36189" lon="5.99066">
        <ele>679</ele>
        <time>2019-12-17T09:23:04.000Z</time>
      </trkpt>
      <trkpt lat="43.36189" lon="5.99066">
        <ele>679</ele>
        <time>2019-12-17T09:23:05.000Z</time>
      </trkpt>
      <trkpt lat="43.3619" lon="5.99066">
        <ele>679</ele>
        <time>2019-12-17T09:23:06.000Z</time>
      </trkpt>
      <trkpt lat="43.36191" lon="5.99066">
        <ele>679</ele>
        <time>2019-12-17T09:23:07.000Z</time>
      </trkpt>
      <trkpt lat="43.36192" lon="5.99067">
        <ele>680</ele>
        <time>2019-12-17T09:23:08.000Z</time>
      </trkpt>
      <trkpt lat="43.36192" lon="5.99067">
        <ele>680</ele>
        <time>2019-12-17T09:23:09.000Z</time>
      </trkpt>
      <trkpt lat="43.36193" lon="5.99067">
        <ele>680</ele>
        <time>2019-12-17T09:23:10.000Z</time>
      </trkpt>
      <trkpt lat="43.36193" lon="5.99067">
        <ele>680</ele>
        <time>2019-12-17T09:23:11.000Z</time>
      </trkpt>
      <trkpt lat="43.36194" lon="5.99067">
        <ele>680</ele>
        <time>2019-12-17T09:23:12.000Z</time>
      </trkpt>
      <trkpt lat="43.36194" lon="5.99068">
        <ele>680</ele>
        <time>2019-12-17T09:23:13.000Z</time>
      </trkpt>
      <trkpt lat="43.36195" lon="5.99068">
        <ele>680</ele>
        <time>2019-12-17T09:23:14.000Z</time>
      </trkpt>
      <trkpt lat="43.36195" lon="5.99068">
        <ele>680</ele>
        <time>2019-12-17T09:23:15.000Z</time>
      </trkpt>
      <trkpt lat="43.36196" lon="5.99068">
        <ele>681</ele>
        <time>2019-12-17T09:23:16.000Z</time>
      </trkpt>
      <trkpt lat="43.36196" lon="5.99068">
        <ele>681</ele>
        <time>2019-12-17T09:23:17.000Z</time>
      </trkpt>
      <trkpt lat="43.36197" lon="5.99068">
        <ele>681</ele>
        <time>2019-12-17T09:23:18.000Z</time>
      </trkpt>
      <trkpt lat="43.36198" lon="5.99068">
        <ele>681</ele>
        <time>2019-12-17T09:23:19.000Z</time>
      </trkpt>
      <trkpt lat="43.36198" lon="5.99068">
        <ele>681</ele>
        <time>2019-12-17T09:23:20.000Z</time>
      </trkpt>
      <trkpt lat="43.36199" lon="5.99068">
        <ele>682</ele>
        <time>2019-12-17T09:23:21.000Z</time>
      </trkpt>
      <trkpt lat="43.362" lon="5.99068">
        <ele>682</ele>
        <time>2019-12-17T09:23:22.000Z</time>
      </trkpt>
      <trkpt lat="43.36201" lon="5.99068">
        <ele>682</ele>
        <time>2019-12-17T09:23:23.000Z</time>
      </trkpt>
      <trkpt lat="43.36202" lon="5.99068">
        <ele>682</ele>
        <time>2019-12-17T09:23:24.000Z</time>
      </trkpt>
      <trkpt lat="43.36203" lon="5.99068">
        <ele>682</ele>
        <time>2019-12-17T09:23:25.000Z</time>
      </trkpt>
      <trkpt lat="43.36203" lon="5.99068">
        <ele>682</ele>
        <time>2019-12-17T09:23:26.000Z</time>
      </trkpt>
      <trkpt lat="43.36204" lon="5.99068">
        <ele>682</ele>
        <time>2019-12-17T09:23:27.000Z</time>
      </trkpt>
      <trkpt lat="43.36205" lon="5.99069">
        <ele>682</ele>
        <time>2019-12-17T09:23:28.000Z</time>
      </trkpt>
      <trkpt lat="43.36205" lon="5.99069">
        <ele>682</ele>
        <time>2019-12-17T09:23:29.000Z</time>
      </trkpt>
      <trkpt lat="43.36206" lon="5.9907">
        <ele>682</ele>
        <time>2019-12-17T09:23:30.000Z</time>
      </trkpt>
      <trkpt lat="43.36207" lon="5.99071">
        <ele>682</ele>
        <time>2019-12-17T09:23:31.000Z</time>
      </trkpt>
      <trkpt lat="43.36207" lon="5.99072">
        <ele>682</ele>
        <time>2019-12-17T09:23:32.000Z</time>
      </trkpt>
      <trkpt lat="43.36207" lon="5.99074">
        <ele>682</ele>
        <time>2019-12-17T09:23:33.000Z</time>
      </trkpt>
      <trkpt lat="43.36207" lon="5.99074">
        <ele>682</ele>
        <time>2019-12-17T09:23:34.000Z</time>
      </trkpt>
      <trkpt lat="43.36207" lon="5.99075">
        <ele>682</ele>
        <time>2019-12-17T09:23:35.000Z</time>
      </trkpt>
      <trkpt lat="43.36207" lon="5.99076">
        <ele>682</ele>
        <time>2019-12-17T09:23:36.000Z</time>
      </trkpt>
      <trkpt lat="43.36208" lon="5.99077">
        <ele>683</ele>
        <time>2019-12-17T09:23:37.000Z</time>
      </trkpt>
      <trkpt lat="43.36209" lon="5.99077">
        <ele>683</ele>
        <time>2019-12-17T09:23:38.000Z</time>
      </trkpt>
      <trkpt lat="43.36209" lon="5.99078">
        <ele>683</ele>
        <time>2019-12-17T09:23:39.000Z</time>
      </trkpt>
      <trkpt lat="43.3621" lon="5.99079">
        <ele>683</ele>
        <time>2019-12-17T09:23:40.000Z</time>
      </trkpt>
      <trkpt lat="43.3621" lon="5.99079">
        <ele>683</ele>
        <time>2019-12-17T09:23:41.000Z</time>
      </trkpt>
      <trkpt lat="43.36211" lon="5.9908">
        <ele>683</ele>
        <time>2019-12-17T09:23:42.000Z</time>
      </trkpt>
      <trkpt lat="43.36211" lon="5.99081">
        <ele>683</ele>
        <time>2019-12-17T09:23:43.000Z</time>
      </trkpt>
      <trkpt lat="43.36212" lon="5.99082">
        <ele>683</ele>
        <time>2019-12-17T09:23:44.000Z</time>
      </trkpt>
      <trkpt lat="43.36212" lon="5.99083">
        <ele>684</ele>
        <time>2019-12-17T09:23:45.000Z</time>
      </trkpt>
      <trkpt lat="43.36212" lon="5.99084">
        <ele>684</ele>
        <time>2019-12-17T09:23:46.000Z</time>
      </trkpt>
      <trkpt lat="43.36212" lon="5.99084">
        <ele>684</ele>
        <time>2019-12-17T09:23:47.000Z</time>
      </trkpt>
      <trkpt lat="43.36213" lon="5.99086">
        <ele>684</ele>
        <time>2019-12-17T09:23:48.000Z</time>
      </trkpt>
      <trkpt lat="43.36213" lon="5.99087">
        <ele>685</ele>
        <time>2019-12-17T09:23:49.000Z</time>
      </trkpt>
      <trkpt lat="43.36214" lon="5.99088">
        <ele>685</ele>
        <time>2019-12-17T09:23:50.000Z</time>
      </trkpt>
      <trkpt lat="43.36214" lon="5.99089">
        <ele>685</ele>
        <time>2019-12-17T09:23:51.000Z</time>
      </trkpt>
      <trkpt lat="43.36214" lon="5.9909">
        <ele>685</ele>
        <time>2019-12-17T09:23:52.000Z</time>
      </trkpt>
      <trkpt lat="43.36214" lon="5.99091">
        <ele>685</ele>
        <time>2019-12-17T09:23:53.000Z</time>
      </trkpt>
      <trkpt lat="43.36215" lon="5.99093">
        <ele>685</ele>
        <time>2019-12-17T09:23:54.000Z</time>
      </trkpt>
      <trkpt lat="43.36215" lon="5.99094">
        <ele>685</ele>
        <time>2019-12-17T09:23:55.000Z</time>
      </trkpt>
      <trkpt lat="43.36216" lon="5.99095">
        <ele>685</ele>
        <time>2019-12-17T09:23:56.000Z</time>
      </trkpt>
      <trkpt lat="43.36216" lon="5.99096">
        <ele>686</ele>
        <time>2019-12-17T09:23:57.000Z</time>
      </trkpt>
      <trkpt lat="43.36216" lon="5.99097">
        <ele>685</ele>
        <time>2019-12-17T09:23:58.000Z</time>
      </trkpt>
      <trkpt lat="43.36217" lon="5.99098">
        <ele>685</ele>
        <time>2019-12-17T09:23:59.000Z</time>
      </trkpt>
      <trkpt lat="43.36217" lon="5.99099">
        <ele>685</ele>
        <time>2019-12-17T09:24:00.000Z</time>
      </trkpt>
      <trkpt lat="43.36217" lon="5.991">
        <ele>685</ele>
        <time>2019-12-17T09:24:01.000Z</time>
      </trkpt>
      <trkpt lat="43.36217" lon="5.99102">
        <ele>686</ele>
        <time>2019-12-17T09:24:02.000Z</time>
      </trkpt>
      <trkpt lat="43.36217" lon="5.99103">
        <ele>686</ele>
        <time>2019-12-17T09:24:03.000Z</time>
      </trkpt>
      <trkpt lat="43.36218" lon="5.99104">
        <ele>686</ele>
        <time>2019-12-17T09:24:04.000Z</time>
      </trkpt>
      <trkpt lat="43.36218" lon="5.99105">
        <ele>686</ele>
        <time>2019-12-17T09:24:05.000Z</time>
      </trkpt>
      <trkpt lat="43.36218" lon="5.99106">
        <ele>686</ele>
        <time>2019-12-17T09:24:06.000Z</time>
      </trkpt>
      <trkpt lat="43.36218" lon="5.99107">
        <ele>686</ele>
        <time>2019-12-17T09:24:07.000Z</time>
      </trkpt>
      <trkpt lat="43.36219" lon="5.99108">
        <ele>686</ele>
        <time>2019-12-17T09:24:08.000Z</time>
      </trkpt>
      <trkpt lat="43.36219" lon="5.99109">
        <ele>686</ele>
        <time>2019-12-17T09:24:09.000Z</time>
      </trkpt>
      <trkpt lat="43.36219" lon="5.9911">
        <ele>686</ele>
        <time>2019-12-17T09:24:10.000Z</time>
      </trkpt>
      <trkpt lat="43.36219" lon="5.99111">
        <ele>686</ele>
        <time>2019-12-17T09:24:11.000Z</time>
      </trkpt>
      <trkpt lat="43.36219" lon="5.99112">
        <ele>686</ele>
        <time>2019-12-17T09:24:12.000Z</time>
      </trkpt>
      <trkpt lat="43.36219" lon="5.99112">
        <ele>686</ele>
        <time>2019-12-17T09:24:13.000Z</time>
      </trkpt>
      <trkpt lat="43.36219" lon="5.99113">
        <ele>686</ele>
        <time>2019-12-17T09:24:14.000Z</time>
      </trkpt>
      <trkpt lat="43.36219" lon="5.99114">
        <ele>686</ele>
        <time>2019-12-17T09:24:15.000Z</time>
      </trkpt>
      <trkpt lat="43.36219" lon="5.99115">
        <ele>686</ele>
        <time>2019-12-17T09:24:16.000Z</time>
      </trkpt>
      <trkpt lat="43.36219" lon="5.99116">
        <ele>686</ele>
        <time>2019-12-17T09:24:17.000Z</time>
      </trkpt>
      <trkpt lat="43.36218" lon="5.99116">
        <ele>686</ele>
        <time>2019-12-17T09:24:18.000Z</time>
      </trkpt>
      <trkpt lat="43.36218" lon="5.99117">
        <ele>686</ele>
        <time>2019-12-17T09:24:19.000Z</time>
      </trkpt>
      <trkpt lat="43.36218" lon="5.99119">
        <ele>686</ele>
        <time>2019-12-17T09:24:20.000Z</time>
      </trkpt>
      <trkpt lat="43.36218" lon="5.9912">
        <ele>686</ele>
        <time>2019-12-17T09:24:21.000Z</time>
      </trkpt>
      <trkpt lat="43.36218" lon="5.99121">
        <ele>686</ele>
        <time>2019-12-17T09:24:22.000Z</time>
      </trkpt>
      <trkpt lat="43.36217" lon="5.99121">
        <ele>686</ele>
        <time>2019-12-17T09:24:23.000Z</time>
      </trkpt>
      <trkpt lat="43.36217" lon="5.99122">
        <ele>686</ele>
        <time>2019-12-17T09:24:24.000Z</time>
      </trkpt>
      <trkpt lat="43.36217" lon="5.99123">
        <ele>686</ele>
        <time>2019-12-17T09:24:25.000Z</time>
      </trkpt>
      <trkpt lat="43.36216" lon="5.99124">
        <ele>686</ele>
        <time>2019-12-17T09:24:26.000Z</time>
      </trkpt>
      <trkpt lat="43.36216" lon="5.99125">
        <ele>686</ele>
        <time>2019-12-17T09:24:27.000Z</time>
      </trkpt>
      <trkpt lat="43.36216" lon="5.99126">
        <ele>686</ele>
        <time>2019-12-17T09:24:28.000Z</time>
      </trkpt>
      <trkpt lat="43.36215" lon="5.99126">
        <ele>687</ele>
        <time>2019-12-17T09:24:29.000Z</time>
      </trkpt>
      <trkpt lat="43.36215" lon="5.99127">
        <ele>687</ele>
        <time>2019-12-17T09:24:30.000Z</time>
      </trkpt>
      <trkpt lat="43.36215" lon="5.99127">
        <ele>687</ele>
        <time>2019-12-17T09:24:31.000Z</time>
      </trkpt>
      <trkpt lat="43.36215" lon="5.99127">
        <ele>687</ele>
        <time>2019-12-17T09:24:32.000Z</time>
      </trkpt>
      <trkpt lat="43.36215" lon="5.99128">
        <ele>687</ele>
        <time>2019-12-17T09:24:33.000Z</time>
      </trkpt>
      <trkpt lat="43.36215" lon="5.99128">
        <ele>687</ele>
        <time>2019-12-17T09:24:34.000Z</time>
      </trkpt>
      <trkpt lat="43.36215" lon="5.99129">
        <ele>687</ele>
        <time>2019-12-17T09:24:35.000Z</time>
      </trkpt>
      <trkpt lat="43.36215" lon="5.9913">
        <ele>687</ele>
        <time>2019-12-17T09:24:36.000Z</time>
      </trkpt>
      <trkpt lat="43.36215" lon="5.99131">
        <ele>687</ele>
        <time>2019-12-17T09:24:37.000Z</time>
      </trkpt>
      <trkpt lat="43.36214" lon="5.99132">
        <ele>687</ele>
        <time>2019-12-17T09:24:38.000Z</time>
      </trkpt>
      <trkpt lat="43.36214" lon="5.99132">
        <ele>687</ele>
        <time>2019-12-17T09:24:39.000Z</time>
      </trkpt>
      <trkpt lat="43.36214" lon="5.99133">
        <ele>687</ele>
        <time>2019-12-17T09:24:40.000Z</time>
      </trkpt>
      <trkpt lat="43.36214" lon="5.99133">
        <ele>687</ele>
        <time>2019-12-17T09:24:41.000Z</time>
      </trkpt>
      <trkpt lat="43.36214" lon="5.99134">
        <ele>687</ele>
        <time>2019-12-17T09:24:42.000Z</time>
      </trkpt>
      <trkpt lat="43.36214" lon="5.99134">
        <ele>688</ele>
        <time>2019-12-17T09:24:43.000Z</time>
      </trkpt>
      <trkpt lat="43.36214" lon="5.99134">
        <ele>688</ele>
        <time>2019-12-17T09:24:44.000Z</time>
      </trkpt>
      <trkpt lat="43.36214" lon="5.99135">
        <ele>688</ele>
        <time>2019-12-17T09:24:45.000Z</time>
      </trkpt>
      <trkpt lat="43.36214" lon="5.99135">
        <ele>688</ele>
        <time>2019-12-17T09:24:46.000Z</time>
      </trkpt>
      <trkpt lat="43.36214" lon="5.99136">
        <ele>688</ele>
        <time>2019-12-17T09:24:47.000Z</time>
      </trkpt>
      <trkpt lat="43.36214" lon="5.99137">
        <ele>688</ele>
        <time>2019-12-17T09:24:48.000Z</time>
      </trkpt>
      <trkpt lat="43.36213" lon="5.99138">
        <ele>688</ele>
        <time>2019-12-17T09:24:49.000Z</time>
      </trkpt>
      <trkpt lat="43.36213" lon="5.99139">
        <ele>688</ele>
        <time>2019-12-17T09:24:50.000Z</time>
      </trkpt>
      <trkpt lat="43.36213" lon="5.99141">
        <ele>688</ele>
        <time>2019-12-17T09:24:51.000Z</time>
      </trkpt>
      <trkpt lat="43.36213" lon="5.99142">
        <ele>688</ele>
        <time>2019-12-17T09:24:52.000Z</time>
      </trkpt>
      <trkpt lat="43.36213" lon="5.99143">
        <ele>688</ele>
        <time>2019-12-17T09:24:53.000Z</time>
      </trkpt>
      <trkpt lat="43.36212" lon="5.99144">
        <ele>688</ele>
        <time>2019-12-17T09:24:54.000Z</time>
      </trkpt>
      <trkpt lat="43.36212" lon="5.99145">
        <ele>688</ele>
        <time>2019-12-17T09:24:55.000Z</time>
      </trkpt>
      <trkpt lat="43.36211" lon="5.99146">
        <ele>688</ele>
        <time>2019-12-17T09:24:56.000Z</time>
      </trkpt>
      <trkpt lat="43.36211" lon="5.99147">
        <ele>688</ele>
        <time>2019-12-17T09:24:57.000Z</time>
      </trkpt>
      <trkpt lat="43.36211" lon="5.99148">
        <ele>688</ele>
        <time>2019-12-17T09:24:58.000Z</time>
      </trkpt>
      <trkpt lat="43.36211" lon="5.99149">
        <ele>689</ele>
        <time>2019-12-17T09:24:59.000Z</time>
      </trkpt>
      <trkpt lat="43.36211" lon="5.9915">
        <ele>689</ele>
        <time>2019-12-17T09:25:00.000Z</time>
      </trkpt>
      <trkpt lat="43.36211" lon="5.99151">
        <ele>689</ele>
        <time>2019-12-17T09:25:01.000Z</time>
      </trkpt>
      <trkpt lat="43.36211" lon="5.99152">
        <ele>689</ele>
        <time>2019-12-17T09:25:02.000Z</time>
      </trkpt>
      <trkpt lat="43.36211" lon="5.99152">
        <ele>689</ele>
        <time>2019-12-17T09:25:03.000Z</time>
      </trkpt>
      <trkpt lat="43.36211" lon="5.99153">
        <ele>689</ele>
        <time>2019-12-17T09:25:04.000Z</time>
      </trkpt>
      <trkpt lat="43.36211" lon="5.99154">
        <ele>689</ele>
        <time>2019-12-17T09:25:05.000Z</time>
      </trkpt>
      <trkpt lat="43.36211" lon="5.99154">
        <ele>689</ele>
        <time>2019-12-17T09:25:06.000Z</time>
      </trkpt>
      <trkpt lat="43.36212" lon="5.99155">
        <ele>690</ele>
        <time>2019-12-17T09:25:07.000Z</time>
      </trkpt>
      <trkpt lat="43.36212" lon="5.99156">
        <ele>690</ele>
        <time>2019-12-17T09:25:08.000Z</time>
      </trkpt>
      <trkpt lat="43.36212" lon="5.99157">
        <ele>690</ele>
        <time>2019-12-17T09:25:09.000Z</time>
      </trkpt>
      <trkpt lat="43.36213" lon="5.99157">
        <ele>690</ele>
        <time>2019-12-17T09:25:10.000Z</time>
      </trkpt>
      <trkpt lat="43.36213" lon="5.99158">
        <ele>690</ele>
        <time>2019-12-17T09:25:11.000Z</time>
      </trkpt>
      <trkpt lat="43.36214" lon="5.99159">
        <ele>690</ele>
        <time>2019-12-17T09:25:12.000Z</time>
      </trkpt>
      <trkpt lat="43.36214" lon="5.99159">
        <ele>691</ele>
        <time>2019-12-17T09:25:13.000Z</time>
      </trkpt>
      <trkpt lat="43.36214" lon="5.9916">
        <ele>691</ele>
        <time>2019-12-17T09:25:14.000Z</time>
      </trkpt>
      <trkpt lat="43.36215" lon="5.9916">
        <ele>691</ele>
        <time>2019-12-17T09:25:15.000Z</time>
      </trkpt>
      <trkpt lat="43.36215" lon="5.99161">
        <ele>691</ele>
        <time>2019-12-17T09:25:16.000Z</time>
      </trkpt>
      <trkpt lat="43.36216" lon="5.99162">
        <ele>691</ele>
        <time>2019-12-17T09:25:17.000Z</time>
      </trkpt>
      <trkpt lat="43.36216" lon="5.99162">
        <ele>692</ele>
        <time>2019-12-17T09:25:18.000Z</time>
      </trkpt>
      <trkpt lat="43.36217" lon="5.99163">
        <ele>692</ele>
        <time>2019-12-17T09:25:19.000Z</time>
      </trkpt>
      <trkpt lat="43.36217" lon="5.99163">
        <ele>692</ele>
        <time>2019-12-17T09:25:20.000Z</time>
      </trkpt>
      <trkpt lat="43.36218" lon="5.99164">
        <ele>692</ele>
        <time>2019-12-17T09:25:21.000Z</time>
      </trkpt>
      <trkpt lat="43.36219" lon="5.99164">
        <ele>692</ele>
        <time>2019-12-17T09:25:22.000Z</time>
      </trkpt>
      <trkpt lat="43.36219" lon="5.99165">
        <ele>692</ele>
        <time>2019-12-17T09:25:23.000Z</time>
      </trkpt>
      <trkpt lat="43.3622" lon="5.99165">
        <ele>693</ele>
        <time>2019-12-17T09:25:24.000Z</time>
      </trkpt>
      <trkpt lat="43.36221" lon="5.99165">
        <ele>693</ele>
        <time>2019-12-17T09:25:25.000Z</time>
      </trkpt>
      <trkpt lat="43.36221" lon="5.99165">
        <ele>693</ele>
        <time>2019-12-17T09:25:26.000Z</time>
      </trkpt>
      <trkpt lat="43.36222" lon="5.99165">
        <ele>693</ele>
        <time>2019-12-17T09:25:27.000Z</time>
      </trkpt>
      <trkpt lat="43.36223" lon="5.99165">
        <ele>693</ele>
        <time>2019-12-17T09:25:28.000Z</time>
      </trkpt>
      <trkpt lat="43.36224" lon="5.99165">
        <ele>693</ele>
        <time>2019-12-17T09:25:29.000Z</time>
      </trkpt>
      <trkpt lat="43.36225" lon="5.99165">
        <ele>693</ele>
        <time>2019-12-17T09:25:30.000Z</time>
      </trkpt>
      <trkpt lat="43.36225" lon="5.99165">
        <ele>693</ele>
        <time>2019-12-17T09:25:31.000Z</time>
      </trkpt>
      <trkpt lat="43.36226" lon="5.99165">
        <ele>694</ele>
        <time>2019-12-17T09:25:32.000Z</time>
      </trkpt>
      <trkpt lat="43.36226" lon="5.99166">
        <ele>694</ele>
        <time>2019-12-17T09:25:33.000Z</time>
      </trkpt>
      <trkpt lat="43.36227" lon="5.99166">
        <ele>694</ele>
        <time>2019-12-17T09:25:34.000Z</time>
      </trkpt>
      <trkpt lat="43.36228" lon="5.99166">
        <ele>694</ele>
        <time>2019-12-17T09:25:35.000Z</time>
      </trkpt>
      <trkpt lat="43.36228" lon="5.99167">
        <ele>694</ele>
        <time>2019-12-17T09:25:36.000Z</time>
      </trkpt>
      <trkpt lat="43.36229" lon="5.99167">
        <ele>695</ele>
        <time>2019-12-17T09:25:37.000Z</time>
      </trkpt>
      <trkpt lat="43.36229" lon="5.99167">
        <ele>695</ele>
        <time>2019-12-17T09:25:38.000Z</time>
      </trkpt>
      <trkpt lat="43.3623" lon="5.99168">
        <ele>695</ele>
        <time>2019-12-17T09:25:39.000Z</time>
      </trkpt>
      <trkpt lat="43.3623" lon="5.99168">
        <ele>695</ele>
        <time>2019-12-17T09:25:40.000Z</time>
      </trkpt>
      <trkpt lat="43.36231" lon="5.99169">
        <ele>695</ele>
        <time>2019-12-17T09:25:41.000Z</time>
      </trkpt>
      <trkpt lat="43.36231" lon="5.99169">
        <ele>695</ele>
        <time>2019-12-17T09:25:42.000Z</time>
      </trkpt>
      <trkpt lat="43.36232" lon="5.9917">
        <ele>696</ele>
        <time>2019-12-17T09:25:43.000Z</time>
      </trkpt>
      <trkpt lat="43.36232" lon="5.99171">
        <ele>696</ele>
        <time>2019-12-17T09:25:44.000Z</time>
      </trkpt>
      <trkpt lat="43.36233" lon="5.99171">
        <ele>696</ele>
        <time>2019-12-17T09:25:45.000Z</time>
      </trkpt>
      <trkpt lat="43.36234" lon="5.99172">
        <ele>696</ele>
        <time>2019-12-17T09:25:46.000Z</time>
      </trkpt>
      <trkpt lat="43.36234" lon="5.99172">
        <ele>696</ele>
        <time>2019-12-17T09:25:47.000Z</time>
      </trkpt>
      <trkpt lat="43.36234" lon="5.99173">
        <ele>696</ele>
        <time>2019-12-17T09:25:48.000Z</time>
      </trkpt>
      <trkpt lat="43.36235" lon="5.99173">
        <ele>696</ele>
        <time>2019-12-17T09:25:49.000Z</time>
      </trkpt>
      <trkpt lat="43.36235" lon="5.99174">
        <ele>696</ele>
        <time>2019-12-17T09:25:50.000Z</time>
      </trkpt>
      <trkpt lat="43.36236" lon="5.99174">
        <ele>696</ele>
        <time>2019-12-17T09:25:51.000Z</time>
      </trkpt>
      <trkpt lat="43.36236" lon="5.99174">
        <ele>697</ele>
        <time>2019-12-17T09:25:52.000Z</time>
      </trkpt>
      <trkpt lat="43.36237" lon="5.99175">
        <ele>697</ele>
        <time>2019-12-17T09:25:53.000Z</time>
      </trkpt>
      <trkpt lat="43.36238" lon="5.99175">
        <ele>697</ele>
        <time>2019-12-17T09:25:54.000Z</time>
      </trkpt>
      <trkpt lat="43.36238" lon="5.99175">
        <ele>697</ele>
        <time>2019-12-17T09:25:55.000Z</time>
      </trkpt>
      <trkpt lat="43.36239" lon="5.99175">
        <ele>697</ele>
        <time>2019-12-17T09:25:56.000Z</time>
      </trkpt>
      <trkpt lat="43.3624" lon="5.99175">
        <ele>697</ele>
        <time>2019-12-17T09:25:57.000Z</time>
      </trkpt>
      <trkpt lat="43.3624" lon="5.99176">
        <ele>697</ele>
        <time>2019-12-17T09:25:58.000Z</time>
      </trkpt>
      <trkpt lat="43.36241" lon="5.99176">
        <ele>697</ele>
        <time>2019-12-17T09:25:59.000Z</time>
      </trkpt>
      <trkpt lat="43.36241" lon="5.99176">
        <ele>697</ele>
        <time>2019-12-17T09:26:00.000Z</time>
      </trkpt>
      <trkpt lat="43.36242" lon="5.99177">
        <ele>698</ele>
        <time>2019-12-17T09:26:01.000Z</time>
      </trkpt>
      <trkpt lat="43.36243" lon="5.99177">
        <ele>698</ele>
        <time>2019-12-17T09:26:02.000Z</time>
      </trkpt>
      <trkpt lat="43.36243" lon="5.99177">
        <ele>698</ele>
        <time>2019-12-17T09:26:03.000Z</time>
      </trkpt>
      <trkpt lat="43.36244" lon="5.99178">
        <ele>698</ele>
        <time>2019-12-17T09:26:04.000Z</time>
      </trkpt>
      <trkpt lat="43.36245" lon="5.99178">
        <ele>698</ele>
        <time>2019-12-17T09:26:05.000Z</time>
      </trkpt>
      <trkpt lat="43.36245" lon="5.99178">
        <ele>698</ele>
        <time>2019-12-17T09:26:06.000Z</time>
      </trkpt>
      <trkpt lat="43.36245" lon="5.99178">
        <ele>698</ele>
        <time>2019-12-17T09:26:07.000Z</time>
      </trkpt>
      <trkpt lat="43.36246" lon="5.99179">
        <ele>698</ele>
        <time>2019-12-17T09:26:08.000Z</time>
      </trkpt>
      <trkpt lat="43.36246" lon="5.99179">
        <ele>698</ele>
        <time>2019-12-17T09:26:09.000Z</time>
      </trkpt>
      <trkpt lat="43.36247" lon="5.99179">
        <ele>698</ele>
        <time>2019-12-17T09:26:10.000Z</time>
      </trkpt>
      <trkpt lat="43.36247" lon="5.99179">
        <ele>698</ele>
        <time>2019-12-17T09:26:11.000Z</time>
      </trkpt>
      <trkpt lat="43.36248" lon="5.99179">
        <ele>698</ele>
        <time>2019-12-17T09:26:12.000Z</time>
      </trkpt>
      <trkpt lat="43.36248" lon="5.99179">
        <ele>698</ele>
        <time>2019-12-17T09:26:13.000Z</time>
      </trkpt>
      <trkpt lat="43.36249" lon="5.99179">
        <ele>698</ele>
        <time>2019-12-17T09:26:14.000Z</time>
      </trkpt>
      <trkpt lat="43.3625" lon="5.99178">
        <ele>698</ele>
        <time>2019-12-17T09:26:15.000Z</time>
      </trkpt>
      <trkpt lat="43.3625" lon="5.99179">
        <ele>699</ele>
        <time>2019-12-17T09:26:16.000Z</time>
      </trkpt>
      <trkpt lat="43.36251" lon="5.99179">
        <ele>699</ele>
        <time>2019-12-17T09:26:17.000Z</time>
      </trkpt>
      <trkpt lat="43.36251" lon="5.99179">
        <ele>699</ele>
        <time>2019-12-17T09:26:18.000Z</time>
      </trkpt>
      <trkpt lat="43.36251" lon="5.99179">
        <ele>699</ele>
        <time>2019-12-17T09:26:19.000Z</time>
      </trkpt>
      <trkpt lat="43.36252" lon="5.99179">
        <ele>699</ele>
        <time>2019-12-17T09:26:20.000Z</time>
      </trkpt>
      <trkpt lat="43.36252" lon="5.99179">
        <ele>699</ele>
        <time>2019-12-17T09:26:21.000Z</time>
      </trkpt>
      <trkpt lat="43.36253" lon="5.99179">
        <ele>699</ele>
        <time>2019-12-17T09:26:22.000Z</time>
      </trkpt>
      <trkpt lat="43.36253" lon="5.99179">
        <ele>699</ele>
        <time>2019-12-17T09:26:23.000Z</time>
      </trkpt>
      <trkpt lat="43.36254" lon="5.99179">
        <ele>699</ele>
        <time>2019-12-17T09:26:24.000Z</time>
      </trkpt>
      <trkpt lat="43.36254" lon="5.99179">
        <ele>699</ele>
        <time>2019-12-17T09:26:25.000Z</time>
      </trkpt>
      <trkpt lat="43.36255" lon="5.99179">
        <ele>700</ele>
        <time>2019-12-17T09:26:26.000Z</time>
      </trkpt>
      <trkpt lat="43.36255" lon="5.99179">
        <ele>700</ele>
        <time>2019-12-17T09:26:27.000Z</time>
      </trkpt>
      <trkpt lat="43.36256" lon="5.99179">
        <ele>700</ele>
        <time>2019-12-17T09:26:28.000Z</time>
      </trkpt>
      <trkpt lat="43.36256" lon="5.99179">
        <ele>700</ele>
        <time>2019-12-17T09:26:29.000Z</time>
      </trkpt>
      <trkpt lat="43.36257" lon="5.99179">
        <ele>700</ele>
        <time>2019-12-17T09:26:30.000Z</time>
      </trkpt>
      <trkpt lat="43.36257" lon="5.99179">
        <ele>701</ele>
        <time>2019-12-17T09:26:31.000Z</time>
      </trkpt>
      <trkpt lat="43.36258" lon="5.99179">
        <ele>701</ele>
        <time>2019-12-17T09:26:32.000Z</time>
      </trkpt>
      <trkpt lat="43.36258" lon="5.99179">
        <ele>701</ele>
        <time>2019-12-17T09:26:33.000Z</time>
      </trkpt>
      <trkpt lat="43.36259" lon="5.9918">
        <ele>701</ele>
        <time>2019-12-17T09:26:34.000Z</time>
      </trkpt>
      <trkpt lat="43.36259" lon="5.9918">
        <ele>701</ele>
        <time>2019-12-17T09:26:35.000Z</time>
      </trkpt>
      <trkpt lat="43.3626" lon="5.9918">
        <ele>701</ele>
        <time>2019-12-17T09:26:36.000Z</time>
      </trkpt>
      <trkpt lat="43.3626" lon="5.99181">
        <ele>701</ele>
        <time>2019-12-17T09:26:37.000Z</time>
      </trkpt>
      <trkpt lat="43.36261" lon="5.99181">
        <ele>702</ele>
        <time>2019-12-17T09:26:38.000Z</time>
      </trkpt>
      <trkpt lat="43.36261" lon="5.99181">
        <ele>702</ele>
        <time>2019-12-17T09:26:39.000Z</time>
      </trkpt>
      <trkpt lat="43.36262" lon="5.99181">
        <ele>702</ele>
        <time>2019-12-17T09:26:40.000Z</time>
      </trkpt>
      <trkpt lat="43.36263" lon="5.99181">
        <ele>702</ele>
        <time>2019-12-17T09:26:41.000Z</time>
      </trkpt>
      <trkpt lat="43.36263" lon="5.99182">
        <ele>702</ele>
        <time>2019-12-17T09:26:42.000Z</time>
      </trkpt>
      <trkpt lat="43.36264" lon="5.99182">
        <ele>702</ele>
        <time>2019-12-17T09:26:43.000Z</time>
      </trkpt>
      <trkpt lat="43.36264" lon="5.99182">
        <ele>702</ele>
        <time>2019-12-17T09:26:44.000Z</time>
      </trkpt>
      <trkpt lat="43.36265" lon="5.99183">
        <ele>703</ele>
        <time>2019-12-17T09:26:45.000Z</time>
      </trkpt>
      <trkpt lat="43.36265" lon="5.99182">
        <ele>703</ele>
        <time>2019-12-17T09:26:46.000Z</time>
      </trkpt>
      <trkpt lat="43.36266" lon="5.99183">
        <ele>703</ele>
        <time>2019-12-17T09:26:47.000Z</time>
      </trkpt>
      <trkpt lat="43.36266" lon="5.99183">
        <ele>703</ele>
        <time>2019-12-17T09:26:48.000Z</time>
      </trkpt>
      <trkpt lat="43.36267" lon="5.99183">
        <ele>703</ele>
        <time>2019-12-17T09:26:49.000Z</time>
      </trkpt>
      <trkpt lat="43.36267" lon="5.99183">
        <ele>704</ele>
        <time>2019-12-17T09:26:50.000Z</time>
      </trkpt>
      <trkpt lat="43.36268" lon="5.99183">
        <ele>704</ele>
        <time>2019-12-17T09:26:51.000Z</time>
      </trkpt>
      <trkpt lat="43.36268" lon="5.99184">
        <ele>704</ele>
        <time>2019-12-17T09:26:52.000Z</time>
      </trkpt>
      <trkpt lat="43.36268" lon="5.99184">
        <ele>704</ele>
        <time>2019-12-17T09:26:53.000Z</time>
      </trkpt>
      <trkpt lat="43.36268" lon="5.99184">
        <ele>704</ele>
        <time>2019-12-17T09:26:54.000Z</time>
      </trkpt>
      <trkpt lat="43.36268" lon="5.99184">
        <ele>704</ele>
        <time>2019-12-17T09:26:55.000Z</time>
      </trkpt>
      <trkpt lat="43.36269" lon="5.99184">
        <ele>705</ele>
        <time>2019-12-17T09:26:56.000Z</time>
      </trkpt>
      <trkpt lat="43.36269" lon="5.99184">
        <ele>705</ele>
        <time>2019-12-17T09:26:57.000Z</time>
      </trkpt>
      <trkpt lat="43.36269" lon="5.99184">
        <ele>705</ele>
        <time>2019-12-17T09:26:58.000Z</time>
      </trkpt>
      <trkpt lat="43.3627" lon="5.99184">
        <ele>705</ele>
        <time>2019-12-17T09:26:59.000Z</time>
      </trkpt>
      <trkpt lat="43.3627" lon="5.99185">
        <ele>705</ele>
        <time>2019-12-17T09:27:00.000Z</time>
      </trkpt>
      <trkpt lat="43.36271" lon="5.99185">
        <ele>705</ele>
        <time>2019-12-17T09:27:01.000Z</time>
      </trkpt>
      <trkpt lat="43.36271" lon="5.99185">
        <ele>705</ele>
        <time>2019-12-17T09:27:02.000Z</time>
      </trkpt>
      <trkpt lat="43.36271" lon="5.99186">
        <ele>705</ele>
        <time>2019-12-17T09:27:03.000Z</time>
      </trkpt>
      <trkpt lat="43.36271" lon="5.99186">
        <ele>705</ele>
        <time>2019-12-17T09:27:04.000Z</time>
      </trkpt>
      <trkpt lat="43.36272" lon="5.99186">
        <ele>705</ele>
        <time>2019-12-17T09:27:05.000Z</time>
      </trkpt>
      <trkpt lat="43.36272" lon="5.99186">
        <ele>705</ele>
        <time>2019-12-17T09:27:06.000Z</time>
      </trkpt>
      <trkpt lat="43.36273" lon="5.99186">
        <ele>705</ele>
        <time>2019-12-17T09:27:07.000Z</time>
      </trkpt>
      <trkpt lat="43.36274" lon="5.99186">
        <ele>705</ele>
        <time>2019-12-17T09:27:08.000Z</time>
      </trkpt>
      <trkpt lat="43.36274" lon="5.99186">
        <ele>705</ele>
        <time>2019-12-17T09:27:09.000Z</time>
      </trkpt>
      <trkpt lat="43.36275" lon="5.99186">
        <ele>705</ele>
        <time>2019-12-17T09:27:10.000Z</time>
      </trkpt>
      <trkpt lat="43.36276" lon="5.99186">
        <ele>706</ele>
        <time>2019-12-17T09:27:11.000Z</time>
      </trkpt>
      <trkpt lat="43.36277" lon="5.99186">
        <ele>706</ele>
        <time>2019-12-17T09:27:12.000Z</time>
      </trkpt>
      <trkpt lat="43.36277" lon="5.99186">
        <ele>706</ele>
        <time>2019-12-17T09:27:13.000Z</time>
      </trkpt>
      <trkpt lat="43.36278" lon="5.99186">
        <ele>706</ele>
        <time>2019-12-17T09:27:14.000Z</time>
      </trkpt>
      <trkpt lat="43.36279" lon="5.99186">
        <ele>706</ele>
        <time>2019-12-17T09:27:15.000Z</time>
      </trkpt>
      <trkpt lat="43.36279" lon="5.99186">
        <ele>706</ele>
        <time>2019-12-17T09:27:16.000Z</time>
      </trkpt>
      <trkpt lat="43.3628" lon="5.99186">
        <ele>706</ele>
        <time>2019-12-17T09:27:17.000Z</time>
      </trkpt>
      <trkpt lat="43.3628" lon="5.99186">
        <ele>706</ele>
        <time>2019-12-17T09:27:18.000Z</time>
      </trkpt>
      <trkpt lat="43.3628" lon="5.99186">
        <ele>706</ele>
        <time>2019-12-17T09:27:19.000Z</time>
      </trkpt>
      <trkpt lat="43.36281" lon="5.99186">
        <ele>706</ele>
        <time>2019-12-17T09:27:20.000Z</time>
      </trkpt>
      <trkpt lat="43.36282" lon="5.99186">
        <ele>707</ele>
        <time>2019-12-17T09:27:21.000Z</time>
      </trkpt>
      <trkpt lat="43.36283" lon="5.99187">
        <ele>707</ele>
        <time>2019-12-17T09:27:22.000Z</time>
      </trkpt>
      <trkpt lat="43.36283" lon="5.99186">
        <ele>707</ele>
        <time>2019-12-17T09:27:23.000Z</time>
      </trkpt>
      <trkpt lat="43.36283" lon="5.99187">
        <ele>707</ele>
        <time>2019-12-17T09:27:24.000Z</time>
      </trkpt>
      <trkpt lat="43.36284" lon="5.99186">
        <ele>707</ele>
        <time>2019-12-17T09:27:25.000Z</time>
      </trkpt>
      <trkpt lat="43.36285" lon="5.99186">
        <ele>708</ele>
        <time>2019-12-17T09:27:26.000Z</time>
      </trkpt>
      <trkpt lat="43.36285" lon="5.99186">
        <ele>708</ele>
        <time>2019-12-17T09:27:27.000Z</time>
      </trkpt>
      <trkpt lat="43.36286" lon="5.99186">
        <ele>708</ele>
        <time>2019-12-17T09:27:28.000Z</time>
      </trkpt>
      <trkpt lat="43.36286" lon="5.99186">
        <ele>708</ele>
        <time>2019-12-17T09:27:29.000Z</time>
      </trkpt>
      <trkpt lat="43.36286" lon="5.99186">
        <ele>708</ele>
        <time>2019-12-17T09:27:30.000Z</time>
      </trkpt>
      <trkpt lat="43.36287" lon="5.99186">
        <ele>708</ele>
        <time>2019-12-17T09:27:31.000Z</time>
      </trkpt>
      <trkpt lat="43.36287" lon="5.99186">
        <ele>709</ele>
        <time>2019-12-17T09:27:32.000Z</time>
      </trkpt>
      <trkpt lat="43.36287" lon="5.99186">
        <ele>709</ele>
        <time>2019-12-17T09:27:33.000Z</time>
      </trkpt>
      <trkpt lat="43.36288" lon="5.99185">
        <ele>709</ele>
        <time>2019-12-17T09:27:34.000Z</time>
      </trkpt>
      <trkpt lat="43.36288" lon="5.99185">
        <ele>709</ele>
        <time>2019-12-17T09:27:35.000Z</time>
      </trkpt>
      <trkpt lat="43.36289" lon="5.99185">
        <ele>709</ele>
        <time>2019-12-17T09:27:36.000Z</time>
      </trkpt>
      <trkpt lat="43.36289" lon="5.99185">
        <ele>709</ele>
        <time>2019-12-17T09:27:37.000Z</time>
      </trkpt>
      <trkpt lat="43.36289" lon="5.99185">
        <ele>710</ele>
        <time>2019-12-17T09:27:38.000Z</time>
      </trkpt>
      <trkpt lat="43.36289" lon="5.99185">
        <ele>710</ele>
        <time>2019-12-17T09:27:39.000Z</time>
      </trkpt>
      <trkpt lat="43.36289" lon="5.99185">
        <ele>710</ele>
        <time>2019-12-17T09:27:40.000Z</time>
      </trkpt>
      <trkpt lat="43.36289" lon="5.99185">
        <ele>710</ele>
        <time>2019-12-17T09:27:41.000Z</time>
      </trkpt>
      <trkpt lat="43.36289" lon="5.99185">
        <ele>710</ele>
        <time>2019-12-17T09:27:42.000Z</time>
      </trkpt>
      <trkpt lat="43.36289" lon="5.99185">
        <ele>710</ele>
        <time>2019-12-17T09:27:43.000Z</time>
      </trkpt>
      <trkpt lat="43.36289" lon="5.99185">
        <ele>710</ele>
        <time>2019-12-17T09:27:44.000Z</time>
      </trkpt>
      <trkpt lat="43.36289" lon="5.99185">
        <ele>710</ele>
        <time>2019-12-17T09:27:45.000Z</time>
      </trkpt>
      <trkpt lat="43.36289" lon="5.99185">
        <ele>710</ele>
        <time>2019-12-17T09:27:46.000Z</time>
      </trkpt>
      <trkpt lat="43.36289" lon="5.99185">
        <ele>711</ele>
        <time>2019-12-17T09:27:47.000Z</time>
      </trkpt>
      <trkpt lat="43.36289" lon="5.99185">
        <ele>711</ele>
        <time>2019-12-17T09:27:48.000Z</time>
      </trkpt>
      <trkpt lat="43.36289" lon="5.99185">
        <ele>711</ele>
        <time>2019-12-17T09:27:49.000Z</time>
      </trkpt>
      <trkpt lat="43.36289" lon="5.99185">
        <ele>711</ele>
        <time>2019-12-17T09:27:50.000Z</time>
      </trkpt>
      <trkpt lat="43.36289" lon="5.99185">
        <ele>711</ele>
        <time>2019-12-17T09:27:51.000Z</time>
      </trkpt>
      <trkpt lat="43.36289" lon="5.99185">
        <ele>711</ele>
        <time>2019-12-17T09:27:52.000Z</time>
      </trkpt>
      <trkpt lat="43.36289" lon="5.99185">
        <ele>711</ele>
        <time>2019-12-17T09:27:53.000Z</time>
      </trkpt>
      <trkpt lat="43.3629" lon="5.99185">
        <ele>711</ele>
        <time>2019-12-17T09:27:54.000Z</time>
      </trkpt>
      <trkpt lat="43.3629" lon="5.99185">
        <ele>711</ele>
        <time>2019-12-17T09:27:55.000Z</time>
      </trkpt>
      <trkpt lat="43.3629" lon="5.99185">
        <ele>711</ele>
        <time>2019-12-17T09:27:56.000Z</time>
      </trkpt>
      <trkpt lat="43.3629" lon="5.99185">
        <ele>711</ele>
        <time>2019-12-17T09:27:57.000Z</time>
      </trkpt>
      <trkpt lat="43.3629" lon="5.99185">
        <ele>711</ele>
        <time>2019-12-17T09:27:58.000Z</time>
      </trkpt>
      <trkpt lat="43.3629" lon="5.99185">
        <ele>711</ele>
        <time>2019-12-17T09:27:59.000Z</time>
      </trkpt>
      <trkpt lat="43.3629" lon="5.99185">
        <ele>711</ele>
        <time>2019-12-17T09:28:00.000Z</time>
      </trkpt>
      <trkpt lat="43.3629" lon="5.99185">
        <ele>711</ele>
        <time>2019-12-17T09:28:01.000Z</time>
      </trkpt>
      <trkpt lat="43.3629" lon="5.99185">
        <ele>711</ele>
        <time>2019-12-17T09:28:02.000Z</time>
      </trkpt>
      <trkpt lat="43.3629" lon="5.99185">
        <ele>711</ele>
        <time>2019-12-17T09:28:03.000Z</time>
      </trkpt>
      <trkpt lat="43.3629" lon="5.99185">
        <ele>711</ele>
        <time>2019-12-17T09:28:04.000Z</time>
      </trkpt>
      <trkpt lat="43.3629" lon="5.99185">
        <ele>712</ele>
        <time>2019-12-17T09:28:05.000Z</time>
      </trkpt>
      <trkpt lat="43.3629" lon="5.99185">
        <ele>712</ele>
        <time>2019-12-17T09:28:06.000Z</time>
      </trkpt>
      <trkpt lat="43.3629" lon="5.99185">
        <ele>712</ele>
        <time>2019-12-17T09:28:07.000Z</time>
      </trkpt>
      <trkpt lat="43.3629" lon="5.99185">
        <ele>712</ele>
        <time>2019-12-17T09:28:08.000Z</time>
      </trkpt>
      <trkpt lat="43.3629" lon="5.99185">
        <ele>712</ele>
        <time>2019-12-17T09:28:09.000Z</time>
      </trkpt>
      <trkpt lat="43.3629" lon="5.99185">
        <ele>712</ele>
        <time>2019-12-17T09:28:10.000Z</time>
      </trkpt>
      <trkpt lat="43.3629" lon="5.99185">
        <ele>712</ele>
        <time>2019-12-17T09:28:11.000Z</time>
      </trkpt>
      <trkpt lat="43.3629" lon="5.99184">
        <ele>712</ele>
        <time>2019-12-17T09:28:12.000Z</time>
      </trkpt>
      <trkpt lat="43.3629" lon="5.99184">
        <ele>712</ele>
        <time>2019-12-17T09:28:13.000Z</time>
      </trkpt>
      <trkpt lat="43.3629" lon="5.99184">
        <ele>712</ele>
        <time>2019-12-17T09:28:14.000Z</time>
      </trkpt>
      <trkpt lat="43.36291" lon="5.99184">
        <ele>712</ele>
        <time>2019-12-17T09:28:15.000Z</time>
      </trkpt>
      <trkpt lat="43.36291" lon="5.99184">
        <ele>712</ele>
        <time>2019-12-17T09:28:16.000Z</time>
      </trkpt>
      <trkpt lat="43.36291" lon="5.99184">
        <ele>712</ele>
        <time>2019-12-17T09:28:17.000Z</time>
      </trkpt>
      <trkpt lat="43.36291" lon="5.99184">
        <ele>712</ele>
        <time>2019-12-17T09:28:18.000Z</time>
      </trkpt>
      <trkpt lat="43.36292" lon="5.99184">
        <ele>712</ele>
        <time>2019-12-17T09:28:19.000Z</time>
      </trkpt>
      <trkpt lat="43.36292" lon="5.99183">
        <ele>712</ele>
        <time>2019-12-17T09:28:20.000Z</time>
      </trkpt>
      <trkpt lat="43.36293" lon="5.99183">
        <ele>712</ele>
        <time>2019-12-17T09:28:21.000Z</time>
      </trkpt>
      <trkpt lat="43.36293" lon="5.99183">
        <ele>712</ele>
        <time>2019-12-17T09:28:22.000Z</time>
      </trkpt>
      <trkpt lat="43.36294" lon="5.99183">
        <ele>712</ele>
        <time>2019-12-17T09:28:23.000Z</time>
      </trkpt>
      <trkpt lat="43.36294" lon="5.99182">
        <ele>712</ele>
        <time>2019-12-17T09:28:24.000Z</time>
      </trkpt>
      <trkpt lat="43.36295" lon="5.99182">
        <ele>712</ele>
        <time>2019-12-17T09:28:25.000Z</time>
      </trkpt>
      <trkpt lat="43.36295" lon="5.99181">
        <ele>713</ele>
        <time>2019-12-17T09:28:26.000Z</time>
      </trkpt>
      <trkpt lat="43.36295" lon="5.99181">
        <ele>713</ele>
        <time>2019-12-17T09:28:27.000Z</time>
      </trkpt>
      <trkpt lat="43.36296" lon="5.99181">
        <ele>713</ele>
        <time>2019-12-17T09:28:28.000Z</time>
      </trkpt>
      <trkpt lat="43.36296" lon="5.99181">
        <ele>713</ele>
        <time>2019-12-17T09:28:29.000Z</time>
      </trkpt>
      <trkpt lat="43.36297" lon="5.99181">
        <ele>713</ele>
        <time>2019-12-17T09:28:30.000Z</time>
      </trkpt>
      <trkpt lat="43.36298" lon="5.99181">
        <ele>714</ele>
        <time>2019-12-17T09:28:31.000Z</time>
      </trkpt>
      <trkpt lat="43.36298" lon="5.99181">
        <ele>714</ele>
        <time>2019-12-17T09:28:32.000Z</time>
      </trkpt>
      <trkpt lat="43.36299" lon="5.99181">
        <ele>714</ele>
        <time>2019-12-17T09:28:33.000Z</time>
      </trkpt>
      <trkpt lat="43.36299" lon="5.99181">
        <ele>714</ele>
        <time>2019-12-17T09:28:34.000Z</time>
      </trkpt>
      <trkpt lat="43.363" lon="5.99181">
        <ele>714</ele>
        <time>2019-12-17T09:28:35.000Z</time>
      </trkpt>
      <trkpt lat="43.36301" lon="5.99181">
        <ele>715</ele>
        <time>2019-12-17T09:28:36.000Z</time>
      </trkpt>
      <trkpt lat="43.36302" lon="5.99181">
        <ele>715</ele>
        <time>2019-12-17T09:28:37.000Z</time>
      </trkpt>
      <trkpt lat="43.36302" lon="5.9918">
        <ele>715</ele>
        <time>2019-12-17T09:28:38.000Z</time>
      </trkpt>
      <trkpt lat="43.36303" lon="5.99181">
        <ele>715</ele>
        <time>2019-12-17T09:28:39.000Z</time>
      </trkpt>
      <trkpt lat="43.36304" lon="5.9918">
        <ele>715</ele>
        <time>2019-12-17T09:28:40.000Z</time>
      </trkpt>
      <trkpt lat="43.36305" lon="5.9918">
        <ele>716</ele>
        <time>2019-12-17T09:28:41.000Z</time>
      </trkpt>
      <trkpt lat="43.36306" lon="5.9918">
        <ele>716</ele>
        <time>2019-12-17T09:28:42.000Z</time>
      </trkpt>
      <trkpt lat="43.36307" lon="5.9918">
        <ele>716</ele>
        <time>2019-12-17T09:28:43.000Z</time>
      </trkpt>
      <trkpt lat="43.36307" lon="5.9918">
        <ele>716</ele>
        <time>2019-12-17T09:28:44.000Z</time>
      </trkpt>
      <trkpt lat="43.36308" lon="5.9918">
        <ele>716</ele>
        <time>2019-12-17T09:28:45.000Z</time>
      </trkpt>
      <trkpt lat="43.36309" lon="5.9918">
        <ele>717</ele>
        <time>2019-12-17T09:28:46.000Z</time>
      </trkpt>
      <trkpt lat="43.3631" lon="5.9918">
        <ele>717</ele>
        <time>2019-12-17T09:28:47.000Z</time>
      </trkpt>
      <trkpt lat="43.36311" lon="5.9918">
        <ele>717</ele>
        <time>2019-12-17T09:28:48.000Z</time>
      </trkpt>
      <trkpt lat="43.36311" lon="5.9918">
        <ele>717</ele>
        <time>2019-12-17T09:28:49.000Z</time>
      </trkpt>
      <trkpt lat="43.36312" lon="5.99179">
        <ele>717</ele>
        <time>2019-12-17T09:28:50.000Z</time>
      </trkpt>
      <trkpt lat="43.36313" lon="5.99179">
        <ele>718</ele>
        <time>2019-12-17T09:28:51.000Z</time>
      </trkpt>
      <trkpt lat="43.36313" lon="5.99179">
        <ele>718</ele>
        <time>2019-12-17T09:28:52.000Z</time>
      </trkpt>
      <trkpt lat="43.36314" lon="5.99179">
        <ele>718</ele>
        <time>2019-12-17T09:28:53.000Z</time>
      </trkpt>
      <trkpt lat="43.36315" lon="5.99179">
        <ele>718</ele>
        <time>2019-12-17T09:28:54.000Z</time>
      </trkpt>
      <trkpt lat="43.36316" lon="5.99178">
        <ele>719</ele>
        <time>2019-12-17T09:28:55.000Z</time>
      </trkpt>
      <trkpt lat="43.36317" lon="5.99178">
        <ele>719</ele>
        <time>2019-12-17T09:28:56.000Z</time>
      </trkpt>
      <trkpt lat="43.36317" lon="5.99178">
        <ele>719</ele>
        <time>2019-12-17T09:28:57.000Z</time>
      </trkpt>
      <trkpt lat="43.36318" lon="5.99178">
        <ele>720</ele>
        <time>2019-12-17T09:28:58.000Z</time>
      </trkpt>
      <trkpt lat="43.36319" lon="5.99178">
        <ele>720</ele>
        <time>2019-12-17T09:28:59.000Z</time>
      </trkpt>
      <trkpt lat="43.36319" lon="5.99178">
        <ele>720</ele>
        <time>2019-12-17T09:29:00.000Z</time>
      </trkpt>
      <trkpt lat="43.3632" lon="5.99177">
        <ele>720</ele>
        <time>2019-12-17T09:29:01.000Z</time>
      </trkpt>
      <trkpt lat="43.3632" lon="5.99177">
        <ele>721</ele>
        <time>2019-12-17T09:29:02.000Z</time>
      </trkpt>
      <trkpt lat="43.36321" lon="5.99177">
        <ele>721</ele>
        <time>2019-12-17T09:29:03.000Z</time>
      </trkpt>
      <trkpt lat="43.36321" lon="5.99177">
        <ele>721</ele>
        <time>2019-12-17T09:29:04.000Z</time>
      </trkpt>
      <trkpt lat="43.36322" lon="5.99176">
        <ele>721</ele>
        <time>2019-12-17T09:29:05.000Z</time>
      </trkpt>
      <trkpt lat="43.36322" lon="5.99176">
        <ele>721</ele>
        <time>2019-12-17T09:29:06.000Z</time>
      </trkpt>
      <trkpt lat="43.36323" lon="5.99175">
        <ele>722</ele>
        <time>2019-12-17T09:29:07.000Z</time>
      </trkpt>
      <trkpt lat="43.36323" lon="5.99175">
        <ele>722</ele>
        <time>2019-12-17T09:29:08.000Z</time>
      </trkpt>
      <trkpt lat="43.36323" lon="5.99175">
        <ele>722</ele>
        <time>2019-12-17T09:29:09.000Z</time>
      </trkpt>
      <trkpt lat="43.36323" lon="5.99175">
        <ele>722</ele>
        <time>2019-12-17T09:29:10.000Z</time>
      </trkpt>
      <trkpt lat="43.36324" lon="5.99175">
        <ele>722</ele>
        <time>2019-12-17T09:29:11.000Z</time>
      </trkpt>
      <trkpt lat="43.36324" lon="5.99175">
        <ele>722</ele>
        <time>2019-12-17T09:29:12.000Z</time>
      </trkpt>
      <trkpt lat="43.36325" lon="5.99175">
        <ele>723</ele>
        <time>2019-12-17T09:29:13.000Z</time>
      </trkpt>
      <trkpt lat="43.36325" lon="5.99175">
        <ele>723</ele>
        <time>2019-12-17T09:29:14.000Z</time>
      </trkpt>
      <trkpt lat="43.36326" lon="5.99175">
        <ele>723</ele>
        <time>2019-12-17T09:29:15.000Z</time>
      </trkpt>
      <trkpt lat="43.36326" lon="5.99175">
        <ele>723</ele>
        <time>2019-12-17T09:29:16.000Z</time>
      </trkpt>
      <trkpt lat="43.36327" lon="5.99175">
        <ele>723</ele>
        <time>2019-12-17T09:29:17.000Z</time>
      </trkpt>
      <trkpt lat="43.36328" lon="5.99175">
        <ele>723</ele>
        <time>2019-12-17T09:29:18.000Z</time>
      </trkpt>
      <trkpt lat="43.36328" lon="5.99175">
        <ele>723</ele>
        <time>2019-12-17T09:29:19.000Z</time>
      </trkpt>
      <trkpt lat="43.36329" lon="5.99175">
        <ele>723</ele>
        <time>2019-12-17T09:29:20.000Z</time>
      </trkpt>
      <trkpt lat="43.3633" lon="5.99175">
        <ele>723</ele>
        <time>2019-12-17T09:29:21.000Z</time>
      </trkpt>
      <trkpt lat="43.36331" lon="5.99175">
        <ele>723</ele>
        <time>2019-12-17T09:29:22.000Z</time>
      </trkpt>
      <trkpt lat="43.36331" lon="5.99175">
        <ele>723</ele>
        <time>2019-12-17T09:29:23.000Z</time>
      </trkpt>
      <trkpt lat="43.36332" lon="5.99176">
        <ele>723</ele>
        <time>2019-12-17T09:29:24.000Z</time>
      </trkpt>
      <trkpt lat="43.36332" lon="5.99175">
        <ele>723</ele>
        <time>2019-12-17T09:29:25.000Z</time>
      </trkpt>
      <trkpt lat="43.36333" lon="5.99175">
        <ele>724</ele>
        <time>2019-12-17T09:29:26.000Z</time>
      </trkpt>
      <trkpt lat="43.36333" lon="5.99175">
        <ele>724</ele>
        <time>2019-12-17T09:29:27.000Z</time>
      </trkpt>
      <trkpt lat="43.36334" lon="5.99175">
        <ele>724</ele>
        <time>2019-12-17T09:29:28.000Z</time>
      </trkpt>
      <trkpt lat="43.36335" lon="5.99175">
        <ele>724</ele>
        <time>2019-12-17T09:29:29.000Z</time>
      </trkpt>
      <trkpt lat="43.36336" lon="5.99175">
        <ele>724</ele>
        <time>2019-12-17T09:29:30.000Z</time>
      </trkpt>
      <trkpt lat="43.36336" lon="5.99176">
        <ele>724</ele>
        <time>2019-12-17T09:29:31.000Z</time>
      </trkpt>
      <trkpt lat="43.36337" lon="5.99176">
        <ele>724</ele>
        <time>2019-12-17T09:29:32.000Z</time>
      </trkpt>
      <trkpt lat="43.36337" lon="5.99176">
        <ele>724</ele>
        <time>2019-12-17T09:29:33.000Z</time>
      </trkpt>
      <trkpt lat="43.36338" lon="5.99177">
        <ele>724</ele>
        <time>2019-12-17T09:29:34.000Z</time>
      </trkpt>
      <trkpt lat="43.36338" lon="5.99177">
        <ele>724</ele>
        <time>2019-12-17T09:29:35.000Z</time>
      </trkpt>
      <trkpt lat="43.36339" lon="5.99177">
        <ele>724</ele>
        <time>2019-12-17T09:29:36.000Z</time>
      </trkpt>
      <trkpt lat="43.36339" lon="5.99177">
        <ele>724</ele>
        <time>2019-12-17T09:29:37.000Z</time>
      </trkpt>
      <trkpt lat="43.3634" lon="5.99177">
        <ele>724</ele>
        <time>2019-12-17T09:29:38.000Z</time>
      </trkpt>
      <trkpt lat="43.36341" lon="5.99177">
        <ele>724</ele>
        <time>2019-12-17T09:29:39.000Z</time>
      </trkpt>
      <trkpt lat="43.36341" lon="5.99178">
        <ele>724</ele>
        <time>2019-12-17T09:29:40.000Z</time>
      </trkpt>
      <trkpt lat="43.36342" lon="5.99178">
        <ele>724</ele>
        <time>2019-12-17T09:29:41.000Z</time>
      </trkpt>
      <trkpt lat="43.36342" lon="5.99179">
        <ele>724</ele>
        <time>2019-12-17T09:29:42.000Z</time>
      </trkpt>
      <trkpt lat="43.36343" lon="5.99179">
        <ele>724</ele>
        <time>2019-12-17T09:29:43.000Z</time>
      </trkpt>
      <trkpt lat="43.36344" lon="5.9918">
        <ele>724</ele>
        <time>2019-12-17T09:29:44.000Z</time>
      </trkpt>
      <trkpt lat="43.36345" lon="5.9918">
        <ele>724</ele>
        <time>2019-12-17T09:29:45.000Z</time>
      </trkpt>
      <trkpt lat="43.36346" lon="5.99181">
        <ele>724</ele>
        <time>2019-12-17T09:29:46.000Z</time>
      </trkpt>
      <trkpt lat="43.36347" lon="5.99181">
        <ele>724</ele>
        <time>2019-12-17T09:29:47.000Z</time>
      </trkpt>
      <trkpt lat="43.36347" lon="5.99182">
        <ele>725</ele>
        <time>2019-12-17T09:29:48.000Z</time>
      </trkpt>
      <trkpt lat="43.36348" lon="5.99182">
        <ele>725</ele>
        <time>2019-12-17T09:29:49.000Z</time>
      </trkpt>
      <trkpt lat="43.36349" lon="5.99183">
        <ele>725</ele>
        <time>2019-12-17T09:29:50.000Z</time>
      </trkpt>
      <trkpt lat="43.3635" lon="5.99183">
        <ele>725</ele>
        <time>2019-12-17T09:29:51.000Z</time>
      </trkpt>
      <trkpt lat="43.36351" lon="5.99182">
        <ele>725</ele>
        <time>2019-12-17T09:29:52.000Z</time>
      </trkpt>
      <trkpt lat="43.36352" lon="5.99183">
        <ele>725</ele>
        <time>2019-12-17T09:29:53.000Z</time>
      </trkpt>
      <trkpt lat="43.36352" lon="5.99183">
        <ele>726</ele>
        <time>2019-12-17T09:29:54.000Z</time>
      </trkpt>
      <trkpt lat="43.36353" lon="5.99183">
        <ele>726</ele>
        <time>2019-12-17T09:29:55.000Z</time>
      </trkpt>
      <trkpt lat="43.36354" lon="5.99183">
        <ele>726</ele>
        <time>2019-12-17T09:29:56.000Z</time>
      </trkpt>
      <trkpt lat="43.36355" lon="5.99183">
        <ele>726</ele>
        <time>2019-12-17T09:29:57.000Z</time>
      </trkpt>
      <trkpt lat="43.36356" lon="5.99183">
        <ele>726</ele>
        <time>2019-12-17T09:29:58.000Z</time>
      </trkpt>
      <trkpt lat="43.36356" lon="5.99183">
        <ele>726</ele>
        <time>2019-12-17T09:29:59.000Z</time>
      </trkpt>
      <trkpt lat="43.36356" lon="5.99183">
        <ele>726</ele>
        <time>2019-12-17T09:30:00.000Z</time>
      </trkpt>
      <trkpt lat="43.36356" lon="5.99183">
        <ele>727</ele>
        <time>2019-12-17T09:30:01.000Z</time>
      </trkpt>
      <trkpt lat="43.36356" lon="5.99183">
        <ele>727</ele>
        <time>2019-12-17T09:30:02.000Z</time>
      </trkpt>
      <trkpt lat="43.36357" lon="5.99183">
        <ele>727</ele>
        <time>2019-12-17T09:30:03.000Z</time>
      </trkpt>
      <trkpt lat="43.36357" lon="5.99183">
        <ele>727</ele>
        <time>2019-12-17T09:30:04.000Z</time>
      </trkpt>
      <trkpt lat="43.36357" lon="5.99183">
        <ele>727</ele>
        <time>2019-12-17T09:30:05.000Z</time>
      </trkpt>
      <trkpt lat="43.36357" lon="5.99183">
        <ele>727</ele>
        <time>2019-12-17T09:30:06.000Z</time>
      </trkpt>
      <trkpt lat="43.36356" lon="5.99183">
        <ele>727</ele>
        <time>2019-12-17T09:30:07.000Z</time>
      </trkpt>
      <trkpt lat="43.36356" lon="5.99183">
        <ele>727</ele>
        <time>2019-12-17T09:30:08.000Z</time>
      </trkpt>
      <trkpt lat="43.36357" lon="5.99183">
        <ele>727</ele>
        <time>2019-12-17T09:30:09.000Z</time>
      </trkpt>
      <trkpt lat="43.36357" lon="5.99183">
        <ele>727</ele>
        <time>2019-12-17T09:30:10.000Z</time>
      </trkpt>
      <trkpt lat="43.36357" lon="5.99183">
        <ele>727</ele>
        <time>2019-12-17T09:30:11.000Z</time>
      </trkpt>
      <trkpt lat="43.36357" lon="5.99183">
        <ele>728</ele>
        <time>2019-12-17T09:30:12.000Z</time>
      </trkpt>
      <trkpt lat="43.36357" lon="5.99183">
        <ele>728</ele>
        <time>2019-12-17T09:30:13.000Z</time>
      </trkpt>
      <trkpt lat="43.36357" lon="5.99183">
        <ele>728</ele>
        <time>2019-12-17T09:30:14.000Z</time>
      </trkpt>
      <trkpt lat="43.36357" lon="5.99183">
        <ele>728</ele>
        <time>2019-12-17T09:30:15.000Z</time>
      </trkpt>
      <trkpt lat="43.36357" lon="5.99183">
        <ele>728</ele>
        <time>2019-12-17T09:30:16.000Z</time>
      </trkpt>
      <trkpt lat="43.36357" lon="5.99183">
        <ele>728</ele>
        <time>2019-12-17T09:30:17.000Z</time>
      </trkpt>
      <trkpt lat="43.36357" lon="5.99183">
        <ele>728</ele>
        <time>2019-12-17T09:30:18.000Z</time>
      </trkpt>
      <trkpt lat="43.36357" lon="5.99184">
        <ele>728</ele>
        <time>2019-12-17T09:30:19.000Z</time>
      </trkpt>
      <trkpt lat="43.36358" lon="5.99183">
        <ele>728</ele>
        <time>2019-12-17T09:30:20.000Z</time>
      </trkpt>
      <trkpt lat="43.36358" lon="5.99184">
        <ele>728</ele>
        <time>2019-12-17T09:30:21.000Z</time>
      </trkpt>
      <trkpt lat="43.36358" lon="5.99184">
        <ele>728</ele>
        <time>2019-12-17T09:30:22.000Z</time>
      </trkpt>
      <trkpt lat="43.36358" lon="5.99184">
        <ele>728</ele>
        <time>2019-12-17T09:30:23.000Z</time>
      </trkpt>
      <trkpt lat="43.36358" lon="5.99184">
        <ele>728</ele>
        <time>2019-12-17T09:30:24.000Z</time>
      </trkpt>
      <trkpt lat="43.36358" lon="5.99184">
        <ele>728</ele>
        <time>2019-12-17T09:30:25.000Z</time>
      </trkpt>
      <trkpt lat="43.36358" lon="5.99184">
        <ele>728</ele>
        <time>2019-12-17T09:30:26.000Z</time>
      </trkpt>
      <trkpt lat="43.36358" lon="5.99184">
        <ele>728</ele>
        <time>2019-12-17T09:30:27.000Z</time>
      </trkpt>
      <trkpt lat="43.36358" lon="5.99184">
        <ele>728</ele>
        <time>2019-12-17T09:30:28.000Z</time>
      </trkpt>
      <trkpt lat="43.36358" lon="5.99184">
        <ele>728</ele>
        <time>2019-12-17T09:30:29.000Z</time>
      </trkpt>
      <trkpt lat="43.36358" lon="5.99184">
        <ele>728</ele>
        <time>2019-12-17T09:30:30.000Z</time>
      </trkpt>
      <trkpt lat="43.36358" lon="5.99184">
        <ele>729</ele>
        <time>2019-12-17T09:30:31.000Z</time>
      </trkpt>
      <trkpt lat="43.36358" lon="5.99184">
        <ele>729</ele>
        <time>2019-12-17T09:30:32.000Z</time>
      </trkpt>
      <trkpt lat="43.36358" lon="5.99184">
        <ele>729</ele>
        <time>2019-12-17T09:30:33.000Z</time>
      </trkpt>
      <trkpt lat="43.36358" lon="5.99184">
        <ele>729</ele>
        <time>2019-12-17T09:30:34.000Z</time>
      </trkpt>
      <trkpt lat="43.36358" lon="5.99184">
        <ele>728</ele>
        <time>2019-12-17T09:30:35.000Z</time>
      </trkpt>
      <trkpt lat="43.36358" lon="5.99184">
        <ele>728</ele>
        <time>2019-12-17T09:30:36.000Z</time>
      </trkpt>
      <trkpt lat="43.36358" lon="5.99184">
        <ele>728</ele>
        <time>2019-12-17T09:30:37.000Z</time>
      </trkpt>
      <trkpt lat="43.36358" lon="5.99184">
        <ele>728</ele>
        <time>2019-12-17T09:30:38.000Z</time>
      </trkpt>
      <trkpt lat="43.36358" lon="5.99184">
        <ele>728</ele>
        <time>2019-12-17T09:30:39.000Z</time>
      </trkpt>
      <trkpt lat="43.36358" lon="5.99184">
        <ele>728</ele>
        <time>2019-12-17T09:30:40.000Z</time>
      </trkpt>
      <trkpt lat="43.36358" lon="5.99184">
        <ele>728</ele>
        <time>2019-12-17T09:30:41.000Z</time>
      </trkpt>
      <trkpt lat="43.36358" lon="5.99184">
        <ele>728</ele>
        <time>2019-12-17T09:30:42.000Z</time>
      </trkpt>
      <trkpt lat="43.36358" lon="5.99184">
        <ele>728</ele>
        <time>2019-12-17T09:30:43.000Z</time>
      </trkpt>
      <trkpt lat="43.36358" lon="5.99184">
        <ele>728</ele>
        <time>2019-12-17T09:30:44.000Z</time>
      </trkpt>
      <trkpt lat="43.36358" lon="5.99184">
        <ele>728</ele>
        <time>2019-12-17T09:30:45.000Z</time>
      </trkpt>
      <trkpt lat="43.36358" lon="5.99184">
        <ele>728</ele>
        <time>2019-12-17T09:30:46.000Z</time>
      </trkpt>
      <trkpt lat="43.36358" lon="5.99184">
        <ele>728</ele>
        <time>2019-12-17T09:30:47.000Z</time>
      </trkpt>
      <trkpt lat="43.36358" lon="5.99184">
        <ele>728</ele>
        <time>2019-12-17T09:30:48.000Z</time>
      </trkpt>
      <trkpt lat="43.36358" lon="5.99184">
        <ele>728</ele>
        <time>2019-12-17T09:30:49.000Z</time>
      </trkpt>
      <trkpt lat="43.36358" lon="5.99184">
        <ele>728</ele>
        <time>2019-12-17T09:30:50.000Z</time>
      </trkpt>
      <trkpt lat="43.36358" lon="5.99184">
        <ele>728</ele>
        <time>2019-12-17T09:30:51.000Z</time>
      </trkpt>
      <trkpt lat="43.36358" lon="5.99184">
        <ele>728</ele>
        <time>2019-12-17T09:30:52.000Z</time>
      </trkpt>
      <trkpt lat="43.36358" lon="5.99184">
        <ele>728</ele>
        <time>2019-12-17T09:30:53.000Z</time>
      </trkpt>
      <trkpt lat="43.36358" lon="5.99184">
        <ele>728</ele>
        <time>2019-12-17T09:30:54.000Z</time>
      </trkpt>
      <trkpt lat="43.36358" lon="5.99184">
        <ele>728</ele>
        <time>2019-12-17T09:30:55.000Z</time>
      </trkpt>
      <trkpt lat="43.36358" lon="5.99184">
        <ele>728</ele>
        <time>2019-12-17T09:30:56.000Z</time>
      </trkpt>
      <trkpt lat="43.36359" lon="5.99184">
        <ele>728</ele>
        <time>2019-12-17T09:30:57.000Z</time>
      </trkpt>
      <trkpt lat="43.3636" lon="5.99184">
        <ele>728</ele>
        <time>2019-12-17T09:30:58.000Z</time>
      </trkpt>
      <trkpt lat="43.3636" lon="5.99183">
        <ele>728</ele>
        <time>2019-12-17T09:30:59.000Z</time>
      </trkpt>
      <trkpt lat="43.3636" lon="5.99183">
        <ele>728</ele>
        <time>2019-12-17T09:31:00.000Z</time>
      </trkpt>
      <trkpt lat="43.36361" lon="5.99182">
        <ele>728</ele>
        <time>2019-12-17T09:31:01.000Z</time>
      </trkpt>
      <trkpt lat="43.3636" lon="5.99181">
        <ele>729</ele>
        <time>2019-12-17T09:31:02.000Z</time>
      </trkpt>
      <trkpt lat="43.3636" lon="5.9918">
        <ele>729</ele>
        <time>2019-12-17T09:31:03.000Z</time>
      </trkpt>
      <trkpt lat="43.36361" lon="5.99179">
        <ele>729</ele>
        <time>2019-12-17T09:31:04.000Z</time>
      </trkpt>
      <trkpt lat="43.36361" lon="5.99177">
        <ele>729</ele>
        <time>2019-12-17T09:31:05.000Z</time>
      </trkpt>
      <trkpt lat="43.36362" lon="5.99176">
        <ele>729</ele>
        <time>2019-12-17T09:31:06.000Z</time>
      </trkpt>
      <trkpt lat="43.36362" lon="5.99176">
        <ele>729</ele>
        <time>2019-12-17T09:31:07.000Z</time>
      </trkpt>
      <trkpt lat="43.36363" lon="5.99175">
        <ele>729</ele>
        <time>2019-12-17T09:31:08.000Z</time>
      </trkpt>
      <trkpt lat="43.36364" lon="5.99175">
        <ele>729</ele>
        <time>2019-12-17T09:31:09.000Z</time>
      </trkpt>
      <trkpt lat="43.36365" lon="5.99174">
        <ele>729</ele>
        <time>2019-12-17T09:31:10.000Z</time>
      </trkpt>
      <trkpt lat="43.36365" lon="5.99174">
        <ele>729</ele>
        <time>2019-12-17T09:31:11.000Z</time>
      </trkpt>
      <trkpt lat="43.36366" lon="5.99173">
        <ele>730</ele>
        <time>2019-12-17T09:31:12.000Z</time>
      </trkpt>
      <trkpt lat="43.36367" lon="5.99173">
        <ele>730</ele>
        <time>2019-12-17T09:31:13.000Z</time>
      </trkpt>
      <trkpt lat="43.36368" lon="5.99173">
        <ele>730</ele>
        <time>2019-12-17T09:31:14.000Z</time>
      </trkpt>
      <trkpt lat="43.36369" lon="5.99173">
        <ele>730</ele>
        <time>2019-12-17T09:31:15.000Z</time>
      </trkpt>
      <trkpt lat="43.3637" lon="5.99173">
        <ele>730</ele>
        <time>2019-12-17T09:31:16.000Z</time>
      </trkpt>
      <trkpt lat="43.36371" lon="5.99172">
        <ele>730</ele>
        <time>2019-12-17T09:31:17.000Z</time>
      </trkpt>
      <trkpt lat="43.36372" lon="5.99172">
        <ele>730</ele>
        <time>2019-12-17T09:31:18.000Z</time>
      </trkpt>
      <trkpt lat="43.36372" lon="5.99172">
        <ele>730</ele>
        <time>2019-12-17T09:31:19.000Z</time>
      </trkpt>
      <trkpt lat="43.36373" lon="5.99172">
        <ele>730</ele>
        <time>2019-12-17T09:31:20.000Z</time>
      </trkpt>
      <trkpt lat="43.36374" lon="5.99172">
        <ele>730</ele>
        <time>2019-12-17T09:31:21.000Z</time>
      </trkpt>
      <trkpt lat="43.36374" lon="5.99171">
        <ele>730</ele>
        <time>2019-12-17T09:31:22.000Z</time>
      </trkpt>
      <trkpt lat="43.36375" lon="5.99171">
        <ele>730</ele>
        <time>2019-12-17T09:31:23.000Z</time>
      </trkpt>
      <trkpt lat="43.36375" lon="5.9917">
        <ele>730</ele>
        <time>2019-12-17T09:31:24.000Z</time>
      </trkpt>
      <trkpt lat="43.36376" lon="5.9917">
        <ele>730</ele>
        <time>2019-12-17T09:31:25.000Z</time>
      </trkpt>
      <trkpt lat="43.36376" lon="5.99169">
        <ele>730</ele>
        <time>2019-12-17T09:31:26.000Z</time>
      </trkpt>
      <trkpt lat="43.36377" lon="5.99168">
        <ele>730</ele>
        <time>2019-12-17T09:31:27.000Z</time>
      </trkpt>
      <trkpt lat="43.36377" lon="5.99167">
        <ele>730</ele>
        <time>2019-12-17T09:31:28.000Z</time>
      </trkpt>
      <trkpt lat="43.36377" lon="5.99166">
        <ele>731</ele>
        <time>2019-12-17T09:31:29.000Z</time>
      </trkpt>
      <trkpt lat="43.36378" lon="5.99165">
        <ele>731</ele>
        <time>2019-12-17T09:31:30.000Z</time>
      </trkpt>
      <trkpt lat="43.36378" lon="5.99163">
        <ele>731</ele>
        <time>2019-12-17T09:31:31.000Z</time>
      </trkpt>
      <trkpt lat="43.36378" lon="5.99162">
        <ele>731</ele>
        <time>2019-12-17T09:31:32.000Z</time>
      </trkpt>
      <trkpt lat="43.36378" lon="5.99162">
        <ele>731</ele>
        <time>2019-12-17T09:31:33.000Z</time>
      </trkpt>
      <trkpt lat="43.36378" lon="5.99161">
        <ele>731</ele>
        <time>2019-12-17T09:31:34.000Z</time>
      </trkpt>
      <trkpt lat="43.36378" lon="5.9916">
        <ele>731</ele>
        <time>2019-12-17T09:31:35.000Z</time>
      </trkpt>
      <trkpt lat="43.36378" lon="5.99159">
        <ele>731</ele>
        <time>2019-12-17T09:31:36.000Z</time>
      </trkpt>
      <trkpt lat="43.36378" lon="5.99158">
        <ele>731</ele>
        <time>2019-12-17T09:31:37.000Z</time>
      </trkpt>
      <trkpt lat="43.36378" lon="5.99157">
        <ele>731</ele>
        <time>2019-12-17T09:31:38.000Z</time>
      </trkpt>
      <trkpt lat="43.36379" lon="5.99156">
        <ele>732</ele>
        <time>2019-12-17T09:31:39.000Z</time>
      </trkpt>
      <trkpt lat="43.36379" lon="5.99155">
        <ele>732</ele>
        <time>2019-12-17T09:31:40.000Z</time>
      </trkpt>
      <trkpt lat="43.36379" lon="5.99154">
        <ele>732</ele>
        <time>2019-12-17T09:31:41.000Z</time>
      </trkpt>
      <trkpt lat="43.36379" lon="5.99153">
        <ele>732</ele>
        <time>2019-12-17T09:31:42.000Z</time>
      </trkpt>
      <trkpt lat="43.36379" lon="5.99152">
        <ele>732</ele>
        <time>2019-12-17T09:31:43.000Z</time>
      </trkpt>
      <trkpt lat="43.36379" lon="5.99151">
        <ele>732</ele>
        <time>2019-12-17T09:31:44.000Z</time>
      </trkpt>
      <trkpt lat="43.3638" lon="5.9915">
        <ele>732</ele>
        <time>2019-12-17T09:31:45.000Z</time>
      </trkpt>
      <trkpt lat="43.3638" lon="5.99149">
        <ele>732</ele>
        <time>2019-12-17T09:31:46.000Z</time>
      </trkpt>
      <trkpt lat="43.3638" lon="5.99149">
        <ele>732</ele>
        <time>2019-12-17T09:31:47.000Z</time>
      </trkpt>
      <trkpt lat="43.3638" lon="5.99148">
        <ele>732</ele>
        <time>2019-12-17T09:31:48.000Z</time>
      </trkpt>
      <trkpt lat="43.3638" lon="5.99147">
        <ele>732</ele>
        <time>2019-12-17T09:31:49.000Z</time>
      </trkpt>
      <trkpt lat="43.3638" lon="5.99146">
        <ele>732</ele>
        <time>2019-12-17T09:31:50.000Z</time>
      </trkpt>
      <trkpt lat="43.3638" lon="5.99145">
        <ele>732</ele>
        <time>2019-12-17T09:31:51.000Z</time>
      </trkpt>
      <trkpt lat="43.3638" lon="5.99144">
        <ele>732</ele>
        <time>2019-12-17T09:31:52.000Z</time>
      </trkpt>
      <trkpt lat="43.3638" lon="5.99143">
        <ele>732</ele>
        <time>2019-12-17T09:31:53.000Z</time>
      </trkpt>
      <trkpt lat="43.3638" lon="5.99142">
        <ele>732</ele>
        <time>2019-12-17T09:31:54.000Z</time>
      </trkpt>
      <trkpt lat="43.36379" lon="5.99142">
        <ele>732</ele>
        <time>2019-12-17T09:31:55.000Z</time>
      </trkpt>
      <trkpt lat="43.36378" lon="5.9914">
        <ele>732</ele>
        <time>2019-12-17T09:31:56.000Z</time>
      </trkpt>
      <trkpt lat="43.36378" lon="5.9914">
        <ele>732</ele>
        <time>2019-12-17T09:31:57.000Z</time>
      </trkpt>
      <trkpt lat="43.36377" lon="5.99139">
        <ele>732</ele>
        <time>2019-12-17T09:31:58.000Z</time>
      </trkpt>
      <trkpt lat="43.36377" lon="5.99138">
        <ele>732</ele>
        <time>2019-12-17T09:31:59.000Z</time>
      </trkpt>
      <trkpt lat="43.36376" lon="5.99137">
        <ele>732</ele>
        <time>2019-12-17T09:32:00.000Z</time>
      </trkpt>
      <trkpt lat="43.36376" lon="5.99136">
        <ele>732</ele>
        <time>2019-12-17T09:32:01.000Z</time>
      </trkpt>
      <trkpt lat="43.36375" lon="5.99135">
        <ele>732</ele>
        <time>2019-12-17T09:32:02.000Z</time>
      </trkpt>
      <trkpt lat="43.36375" lon="5.99134">
        <ele>732</ele>
        <time>2019-12-17T09:32:03.000Z</time>
      </trkpt>
      <trkpt lat="43.36375" lon="5.99133">
        <ele>731</ele>
        <time>2019-12-17T09:32:04.000Z</time>
      </trkpt>
      <trkpt lat="43.36375" lon="5.99131">
        <ele>731</ele>
        <time>2019-12-17T09:32:05.000Z</time>
      </trkpt>
      <trkpt lat="43.36375" lon="5.9913">
        <ele>732</ele>
        <time>2019-12-17T09:32:06.000Z</time>
      </trkpt>
      <trkpt lat="43.36375" lon="5.99129">
        <ele>732</ele>
        <time>2019-12-17T09:32:07.000Z</time>
      </trkpt>
      <trkpt lat="43.36376" lon="5.99128">
        <ele>732</ele>
        <time>2019-12-17T09:32:08.000Z</time>
      </trkpt>
      <trkpt lat="43.36377" lon="5.99127">
        <ele>732</ele>
        <time>2019-12-17T09:32:09.000Z</time>
      </trkpt>
      <trkpt lat="43.36377" lon="5.99127">
        <ele>732</ele>
        <time>2019-12-17T09:32:10.000Z</time>
      </trkpt>
      <trkpt lat="43.36378" lon="5.99126">
        <ele>732</ele>
        <time>2019-12-17T09:32:11.000Z</time>
      </trkpt>
      <trkpt lat="43.36379" lon="5.99125">
        <ele>732</ele>
        <time>2019-12-17T09:32:12.000Z</time>
      </trkpt>
      <trkpt lat="43.36379" lon="5.99125">
        <ele>732</ele>
        <time>2019-12-17T09:32:13.000Z</time>
      </trkpt>
      <trkpt lat="43.3638" lon="5.99124">
        <ele>732</ele>
        <time>2019-12-17T09:32:14.000Z</time>
      </trkpt>
      <trkpt lat="43.3638" lon="5.99124">
        <ele>732</ele>
        <time>2019-12-17T09:32:15.000Z</time>
      </trkpt>
      <trkpt lat="43.36381" lon="5.99123">
        <ele>732</ele>
        <time>2019-12-17T09:32:16.000Z</time>
      </trkpt>
      <trkpt lat="43.36381" lon="5.99123">
        <ele>732</ele>
        <time>2019-12-17T09:32:17.000Z</time>
      </trkpt>
      <trkpt lat="43.36382" lon="5.99122">
        <ele>732</ele>
        <time>2019-12-17T09:32:18.000Z</time>
      </trkpt>
      <trkpt lat="43.36382" lon="5.99121">
        <ele>732</ele>
        <time>2019-12-17T09:32:19.000Z</time>
      </trkpt>
      <trkpt lat="43.36383" lon="5.9912">
        <ele>732</ele>
        <time>2019-12-17T09:32:20.000Z</time>
      </trkpt>
      <trkpt lat="43.36383" lon="5.9912">
        <ele>732</ele>
        <time>2019-12-17T09:32:21.000Z</time>
      </trkpt>
      <trkpt lat="43.36384" lon="5.99119">
        <ele>732</ele>
        <time>2019-12-17T09:32:22.000Z</time>
      </trkpt>
      <trkpt lat="43.36384" lon="5.99118">
        <ele>732</ele>
        <time>2019-12-17T09:32:23.000Z</time>
      </trkpt>
      <trkpt lat="43.36384" lon="5.99117">
        <ele>732</ele>
        <time>2019-12-17T09:32:24.000Z</time>
      </trkpt>
      <trkpt lat="43.36384" lon="5.99117">
        <ele>732</ele>
        <time>2019-12-17T09:32:25.000Z</time>
      </trkpt>
      <trkpt lat="43.36384" lon="5.99116">
        <ele>733</ele>
        <time>2019-12-17T09:32:26.000Z</time>
      </trkpt>
      <trkpt lat="43.36384" lon="5.99115">
        <ele>733</ele>
        <time>2019-12-17T09:32:27.000Z</time>
      </trkpt>
      <trkpt lat="43.36385" lon="5.99114">
        <ele>733</ele>
        <time>2019-12-17T09:32:28.000Z</time>
      </trkpt>
      <trkpt lat="43.36385" lon="5.99113">
        <ele>733</ele>
        <time>2019-12-17T09:32:29.000Z</time>
      </trkpt>
      <trkpt lat="43.36385" lon="5.99112">
        <ele>733</ele>
        <time>2019-12-17T09:32:30.000Z</time>
      </trkpt>
      <trkpt lat="43.36386" lon="5.99112">
        <ele>733</ele>
        <time>2019-12-17T09:32:31.000Z</time>
      </trkpt>
      <trkpt lat="43.36387" lon="5.99111">
        <ele>733</ele>
        <time>2019-12-17T09:32:32.000Z</time>
      </trkpt>
      <trkpt lat="43.36387" lon="5.99111">
        <ele>733</ele>
        <time>2019-12-17T09:32:33.000Z</time>
      </trkpt>
      <trkpt lat="43.36388" lon="5.9911">
        <ele>734</ele>
        <time>2019-12-17T09:32:34.000Z</time>
      </trkpt>
      <trkpt lat="43.36389" lon="5.99109">
        <ele>734</ele>
        <time>2019-12-17T09:32:35.000Z</time>
      </trkpt>
      <trkpt lat="43.36389" lon="5.99109">
        <ele>734</ele>
        <time>2019-12-17T09:32:36.000Z</time>
      </trkpt>
      <trkpt lat="43.36389" lon="5.99108">
        <ele>734</ele>
        <time>2019-12-17T09:32:37.000Z</time>
      </trkpt>
      <trkpt lat="43.3639" lon="5.99108">
        <ele>734</ele>
        <time>2019-12-17T09:32:38.000Z</time>
      </trkpt>
      <trkpt lat="43.3639" lon="5.99107">
        <ele>734</ele>
        <time>2019-12-17T09:32:39.000Z</time>
      </trkpt>
      <trkpt lat="43.36391" lon="5.99107">
        <ele>734</ele>
        <time>2019-12-17T09:32:40.000Z</time>
      </trkpt>
      <trkpt lat="43.36391" lon="5.99106">
        <ele>734</ele>
        <time>2019-12-17T09:32:41.000Z</time>
      </trkpt>
      <trkpt lat="43.36392" lon="5.99106">
        <ele>734</ele>
        <time>2019-12-17T09:32:42.000Z</time>
      </trkpt>
      <trkpt lat="43.36392" lon="5.99105">
        <ele>734</ele>
        <time>2019-12-17T09:32:43.000Z</time>
      </trkpt>
      <trkpt lat="43.36392" lon="5.99104">
        <ele>734</ele>
        <time>2019-12-17T09:32:44.000Z</time>
      </trkpt>
      <trkpt lat="43.36393" lon="5.99103">
        <ele>734</ele>
        <time>2019-12-17T09:32:45.000Z</time>
      </trkpt>
      <trkpt lat="43.36393" lon="5.99102">
        <ele>735</ele>
        <time>2019-12-17T09:32:46.000Z</time>
      </trkpt>
      <trkpt lat="43.36394" lon="5.99102">
        <ele>735</ele>
        <time>2019-12-17T09:32:47.000Z</time>
      </trkpt>
      <trkpt lat="43.36394" lon="5.99101">
        <ele>735</ele>
        <time>2019-12-17T09:32:48.000Z</time>
      </trkpt>
      <trkpt lat="43.36395" lon="5.99101">
        <ele>735</ele>
        <time>2019-12-17T09:32:49.000Z</time>
      </trkpt>
      <trkpt lat="43.36395" lon="5.991">
        <ele>735</ele>
        <time>2019-12-17T09:32:50.000Z</time>
      </trkpt>
      <trkpt lat="43.36395" lon="5.991">
        <ele>735</ele>
        <time>2019-12-17T09:32:51.000Z</time>
      </trkpt>
      <trkpt lat="43.36396" lon="5.99099">
        <ele>735</ele>
        <time>2019-12-17T09:32:52.000Z</time>
      </trkpt>
      <trkpt lat="43.36396" lon="5.99098">
        <ele>735</ele>
        <time>2019-12-17T09:32:53.000Z</time>
      </trkpt>
      <trkpt lat="43.36397" lon="5.99098">
        <ele>735</ele>
        <time>2019-12-17T09:32:54.000Z</time>
      </trkpt>
      <trkpt lat="43.36397" lon="5.99097">
        <ele>736</ele>
        <time>2019-12-17T09:32:55.000Z</time>
      </trkpt>
      <trkpt lat="43.36398" lon="5.99096">
        <ele>736</ele>
        <time>2019-12-17T09:32:56.000Z</time>
      </trkpt>
      <trkpt lat="43.36398" lon="5.99096">
        <ele>736</ele>
        <time>2019-12-17T09:32:57.000Z</time>
      </trkpt>
      <trkpt lat="43.36399" lon="5.99095">
        <ele>736</ele>
        <time>2019-12-17T09:32:58.000Z</time>
      </trkpt>
      <trkpt lat="43.36399" lon="5.99095">
        <ele>736</ele>
        <time>2019-12-17T09:32:59.000Z</time>
      </trkpt>
      <trkpt lat="43.36399" lon="5.99094">
        <ele>736</ele>
        <time>2019-12-17T09:33:00.000Z</time>
      </trkpt>
      <trkpt lat="43.364" lon="5.99094">
        <ele>736</ele>
        <time>2019-12-17T09:33:01.000Z</time>
      </trkpt>
      <trkpt lat="43.364" lon="5.99093">
        <ele>736</ele>
        <time>2019-12-17T09:33:02.000Z</time>
      </trkpt>
      <trkpt lat="43.36401" lon="5.99093">
        <ele>737</ele>
        <time>2019-12-17T09:33:03.000Z</time>
      </trkpt>
      <trkpt lat="43.36402" lon="5.99092">
        <ele>737</ele>
        <time>2019-12-17T09:33:04.000Z</time>
      </trkpt>
      <trkpt lat="43.36402" lon="5.99092">
        <ele>737</ele>
        <time>2019-12-17T09:33:05.000Z</time>
      </trkpt>
      <trkpt lat="43.36403" lon="5.99091">
        <ele>737</ele>
        <time>2019-12-17T09:33:06.000Z</time>
      </trkpt>
      <trkpt lat="43.36403" lon="5.9909">
        <ele>737</ele>
        <time>2019-12-17T09:33:07.000Z</time>
      </trkpt>
      <trkpt lat="43.36404" lon="5.99089">
        <ele>737</ele>
        <time>2019-12-17T09:33:08.000Z</time>
      </trkpt>
      <trkpt lat="43.36404" lon="5.99088">
        <ele>737</ele>
        <time>2019-12-17T09:33:09.000Z</time>
      </trkpt>
      <trkpt lat="43.36404" lon="5.99088">
        <ele>737</ele>
        <time>2019-12-17T09:33:10.000Z</time>
      </trkpt>
      <trkpt lat="43.36404" lon="5.99087">
        <ele>737</ele>
        <time>2019-12-17T09:33:11.000Z</time>
      </trkpt>
      <trkpt lat="43.36404" lon="5.99086">
        <ele>737</ele>
        <time>2019-12-17T09:33:12.000Z</time>
      </trkpt>
      <trkpt lat="43.36404" lon="5.99085">
        <ele>737</ele>
        <time>2019-12-17T09:33:13.000Z</time>
      </trkpt>
      <trkpt lat="43.36404" lon="5.99085">
        <ele>737</ele>
        <time>2019-12-17T09:33:14.000Z</time>
      </trkpt>
      <trkpt lat="43.36404" lon="5.99084">
        <ele>738</ele>
        <time>2019-12-17T09:33:15.000Z</time>
      </trkpt>
      <trkpt lat="43.36404" lon="5.99083">
        <ele>738</ele>
        <time>2019-12-17T09:33:16.000Z</time>
      </trkpt>
      <trkpt lat="43.36403" lon="5.99082">
        <ele>738</ele>
        <time>2019-12-17T09:33:17.000Z</time>
      </trkpt>
      <trkpt lat="43.36402" lon="5.99081">
        <ele>738</ele>
        <time>2019-12-17T09:33:18.000Z</time>
      </trkpt>
      <trkpt lat="43.36402" lon="5.99081">
        <ele>738</ele>
        <time>2019-12-17T09:33:19.000Z</time>
      </trkpt>
      <trkpt lat="43.36402" lon="5.9908">
        <ele>738</ele>
        <time>2019-12-17T09:33:20.000Z</time>
      </trkpt>
      <trkpt lat="43.36401" lon="5.99079">
        <ele>738</ele>
        <time>2019-12-17T09:33:21.000Z</time>
      </trkpt>
      <trkpt lat="43.36401" lon="5.99078">
        <ele>738</ele>
        <time>2019-12-17T09:33:22.000Z</time>
      </trkpt>
      <trkpt lat="43.36401" lon="5.99077">
        <ele>738</ele>
        <time>2019-12-17T09:33:23.000Z</time>
      </trkpt>
      <trkpt lat="43.36402" lon="5.99076">
        <ele>738</ele>
        <time>2019-12-17T09:33:24.000Z</time>
      </trkpt>
      <trkpt lat="43.36402" lon="5.99075">
        <ele>738</ele>
        <time>2019-12-17T09:33:25.000Z</time>
      </trkpt>
      <trkpt lat="43.36402" lon="5.99074">
        <ele>738</ele>
        <time>2019-12-17T09:33:26.000Z</time>
      </trkpt>
      <trkpt lat="43.36403" lon="5.99073">
        <ele>738</ele>
        <time>2019-12-17T09:33:27.000Z</time>
      </trkpt>
      <trkpt lat="43.36403" lon="5.99073">
        <ele>738</ele>
        <time>2019-12-17T09:33:28.000Z</time>
      </trkpt>
      <trkpt lat="43.36403" lon="5.99072">
        <ele>738</ele>
        <time>2019-12-17T09:33:29.000Z</time>
      </trkpt>
      <trkpt lat="43.36404" lon="5.99071">
        <ele>738</ele>
        <time>2019-12-17T09:33:30.000Z</time>
      </trkpt>
      <trkpt lat="43.36404" lon="5.99071">
        <ele>738</ele>
        <time>2019-12-17T09:33:31.000Z</time>
      </trkpt>
      <trkpt lat="43.36404" lon="5.9907">
        <ele>738</ele>
        <time>2019-12-17T09:33:32.000Z</time>
      </trkpt>
      <trkpt lat="43.36405" lon="5.99069">
        <ele>739</ele>
        <time>2019-12-17T09:33:33.000Z</time>
      </trkpt>
      <trkpt lat="43.36405" lon="5.99068">
        <ele>739</ele>
        <time>2019-12-17T09:33:34.000Z</time>
      </trkpt>
      <trkpt lat="43.36406" lon="5.99068">
        <ele>739</ele>
        <time>2019-12-17T09:33:35.000Z</time>
      </trkpt>
      <trkpt lat="43.36406" lon="5.99067">
        <ele>739</ele>
        <time>2019-12-17T09:33:36.000Z</time>
      </trkpt>
      <trkpt lat="43.36406" lon="5.99067">
        <ele>739</ele>
        <time>2019-12-17T09:33:37.000Z</time>
      </trkpt>
      <trkpt lat="43.36407" lon="5.99066">
        <ele>739</ele>
        <time>2019-12-17T09:33:38.000Z</time>
      </trkpt>
      <trkpt lat="43.36407" lon="5.99066">
        <ele>739</ele>
        <time>2019-12-17T09:33:39.000Z</time>
      </trkpt>
      <trkpt lat="43.36407" lon="5.99065">
        <ele>739</ele>
        <time>2019-12-17T09:33:40.000Z</time>
      </trkpt>
      <trkpt lat="43.36408" lon="5.99064">
        <ele>739</ele>
        <time>2019-12-17T09:33:41.000Z</time>
      </trkpt>
      <trkpt lat="43.36408" lon="5.99064">
        <ele>739</ele>
        <time>2019-12-17T09:33:42.000Z</time>
      </trkpt>
      <trkpt lat="43.36409" lon="5.99063">
        <ele>739</ele>
        <time>2019-12-17T09:33:43.000Z</time>
      </trkpt>
      <trkpt lat="43.36409" lon="5.99063">
        <ele>740</ele>
        <time>2019-12-17T09:33:44.000Z</time>
      </trkpt>
      <trkpt lat="43.3641" lon="5.99062">
        <ele>740</ele>
        <time>2019-12-17T09:33:45.000Z</time>
      </trkpt>
      <trkpt lat="43.3641" lon="5.99062">
        <ele>740</ele>
        <time>2019-12-17T09:33:46.000Z</time>
      </trkpt>
      <trkpt lat="43.3641" lon="5.99061">
        <ele>740</ele>
        <time>2019-12-17T09:33:47.000Z</time>
      </trkpt>
      <trkpt lat="43.36411" lon="5.9906">
        <ele>740</ele>
        <time>2019-12-17T09:33:48.000Z</time>
      </trkpt>
      <trkpt lat="43.36411" lon="5.9906">
        <ele>740</ele>
        <time>2019-12-17T09:33:49.000Z</time>
      </trkpt>
      <trkpt lat="43.36412" lon="5.99059">
        <ele>740</ele>
        <time>2019-12-17T09:33:50.000Z</time>
      </trkpt>
      <trkpt lat="43.36412" lon="5.99059">
        <ele>740</ele>
        <time>2019-12-17T09:33:51.000Z</time>
      </trkpt>
      <trkpt lat="43.36413" lon="5.99059">
        <ele>740</ele>
        <time>2019-12-17T09:33:52.000Z</time>
      </trkpt>
      <trkpt lat="43.36413" lon="5.99058">
        <ele>740</ele>
        <time>2019-12-17T09:33:53.000Z</time>
      </trkpt>
      <trkpt lat="43.36414" lon="5.99058">
        <ele>740</ele>
        <time>2019-12-17T09:33:54.000Z</time>
      </trkpt>
      <trkpt lat="43.36414" lon="5.99057">
        <ele>740</ele>
        <time>2019-12-17T09:33:55.000Z</time>
      </trkpt>
      <trkpt lat="43.36414" lon="5.99057">
        <ele>741</ele>
        <time>2019-12-17T09:33:56.000Z</time>
      </trkpt>
      <trkpt lat="43.36415" lon="5.99057">
        <ele>741</ele>
        <time>2019-12-17T09:33:57.000Z</time>
      </trkpt>
      <trkpt lat="43.36415" lon="5.99056">
        <ele>741</ele>
        <time>2019-12-17T09:33:58.000Z</time>
      </trkpt>
      <trkpt lat="43.36415" lon="5.99056">
        <ele>741</ele>
        <time>2019-12-17T09:33:59.000Z</time>
      </trkpt>
      <trkpt lat="43.36415" lon="5.99056">
        <ele>741</ele>
        <time>2019-12-17T09:34:00.000Z</time>
      </trkpt>
      <trkpt lat="43.36416" lon="5.99056">
        <ele>741</ele>
        <time>2019-12-17T09:34:01.000Z</time>
      </trkpt>
      <trkpt lat="43.36416" lon="5.99055">
        <ele>741</ele>
        <time>2019-12-17T09:34:02.000Z</time>
      </trkpt>
      <trkpt lat="43.36416" lon="5.99055">
        <ele>742</ele>
        <time>2019-12-17T09:34:03.000Z</time>
      </trkpt>
      <trkpt lat="43.36416" lon="5.99055">
        <ele>742</ele>
        <time>2019-12-17T09:34:04.000Z</time>
      </trkpt>
      <trkpt lat="43.36416" lon="5.99055">
        <ele>742</ele>
        <time>2019-12-17T09:34:05.000Z</time>
      </trkpt>
      <trkpt lat="43.36416" lon="5.99055">
        <ele>742</ele>
        <time>2019-12-17T09:34:06.000Z</time>
      </trkpt>
      <trkpt lat="43.36416" lon="5.99055">
        <ele>742</ele>
        <time>2019-12-17T09:34:07.000Z</time>
      </trkpt>
      <trkpt lat="43.36417" lon="5.99055">
        <ele>742</ele>
        <time>2019-12-17T09:34:08.000Z</time>
      </trkpt>
      <trkpt lat="43.36417" lon="5.99054">
        <ele>742</ele>
        <time>2019-12-17T09:34:09.000Z</time>
      </trkpt>
      <trkpt lat="43.36417" lon="5.99054">
        <ele>742</ele>
        <time>2019-12-17T09:34:10.000Z</time>
      </trkpt>
      <trkpt lat="43.36417" lon="5.99054">
        <ele>742</ele>
        <time>2019-12-17T09:34:11.000Z</time>
      </trkpt>
      <trkpt lat="43.36417" lon="5.99053">
        <ele>742</ele>
        <time>2019-12-17T09:34:12.000Z</time>
      </trkpt>
      <trkpt lat="43.36417" lon="5.99053">
        <ele>742</ele>
        <time>2019-12-17T09:34:13.000Z</time>
      </trkpt>
      <trkpt lat="43.36418" lon="5.99052">
        <ele>743</ele>
        <time>2019-12-17T09:34:14.000Z</time>
      </trkpt>
      <trkpt lat="43.36418" lon="5.99052">
        <ele>743</ele>
        <time>2019-12-17T09:34:15.000Z</time>
      </trkpt>
      <trkpt lat="43.36418" lon="5.99052">
        <ele>743</ele>
        <time>2019-12-17T09:34:16.000Z</time>
      </trkpt>
      <trkpt lat="43.36418" lon="5.99051">
        <ele>743</ele>
        <time>2019-12-17T09:34:17.000Z</time>
      </trkpt>
      <trkpt lat="43.36419" lon="5.99051">
        <ele>743</ele>
        <time>2019-12-17T09:34:18.000Z</time>
      </trkpt>
      <trkpt lat="43.36419" lon="5.99051">
        <ele>743</ele>
        <time>2019-12-17T09:34:19.000Z</time>
      </trkpt>
      <trkpt lat="43.3642" lon="5.9905">
        <ele>743</ele>
        <time>2019-12-17T09:34:20.000Z</time>
      </trkpt>
      <trkpt lat="43.3642" lon="5.99049">
        <ele>743</ele>
        <time>2019-12-17T09:34:21.000Z</time>
      </trkpt>
      <trkpt lat="43.3642" lon="5.99049">
        <ele>743</ele>
        <time>2019-12-17T09:34:22.000Z</time>
      </trkpt>
      <trkpt lat="43.36421" lon="5.99048">
        <ele>744</ele>
        <time>2019-12-17T09:34:23.000Z</time>
      </trkpt>
      <trkpt lat="43.36421" lon="5.99048">
        <ele>744</ele>
        <time>2019-12-17T09:34:24.000Z</time>
      </trkpt>
      <trkpt lat="43.36421" lon="5.99047">
        <ele>744</ele>
        <time>2019-12-17T09:34:25.000Z</time>
      </trkpt>
      <trkpt lat="43.36422" lon="5.99047">
        <ele>744</ele>
        <time>2019-12-17T09:34:26.000Z</time>
      </trkpt>
      <trkpt lat="43.36422" lon="5.99046">
        <ele>744</ele>
        <time>2019-12-17T09:34:27.000Z</time>
      </trkpt>
      <trkpt lat="43.36423" lon="5.99046">
        <ele>744</ele>
        <time>2019-12-17T09:34:28.000Z</time>
      </trkpt>
      <trkpt lat="43.36423" lon="5.99045">
        <ele>745</ele>
        <time>2019-12-17T09:34:29.000Z</time>
      </trkpt>
      <trkpt lat="43.36424" lon="5.99045">
        <ele>745</ele>
        <time>2019-12-17T09:34:30.000Z</time>
      </trkpt>
      <trkpt lat="43.36425" lon="5.99045">
        <ele>745</ele>
        <time>2019-12-17T09:34:31.000Z</time>
      </trkpt>
      <trkpt lat="43.36425" lon="5.99045">
        <ele>745</ele>
        <time>2019-12-17T09:34:32.000Z</time>
      </trkpt>
      <trkpt lat="43.36426" lon="5.99045">
        <ele>745</ele>
        <time>2019-12-17T09:34:33.000Z</time>
      </trkpt>
      <trkpt lat="43.36426" lon="5.99046">
        <ele>746</ele>
        <time>2019-12-17T09:34:34.000Z</time>
      </trkpt>
      <trkpt lat="43.36427" lon="5.99046">
        <ele>746</ele>
        <time>2019-12-17T09:34:35.000Z</time>
      </trkpt>
      <trkpt lat="43.36427" lon="5.99046">
        <ele>746</ele>
        <time>2019-12-17T09:34:36.000Z</time>
      </trkpt>
      <trkpt lat="43.36428" lon="5.99045">
        <ele>746</ele>
        <time>2019-12-17T09:34:37.000Z</time>
      </trkpt>
      <trkpt lat="43.36428" lon="5.99045">
        <ele>746</ele>
        <time>2019-12-17T09:34:38.000Z</time>
      </trkpt>
      <trkpt lat="43.36429" lon="5.99044">
        <ele>746</ele>
        <time>2019-12-17T09:34:39.000Z</time>
      </trkpt>
      <trkpt lat="43.36429" lon="5.99044">
        <ele>747</ele>
        <time>2019-12-17T09:34:40.000Z</time>
      </trkpt>
      <trkpt lat="43.3643" lon="5.99043">
        <ele>747</ele>
        <time>2019-12-17T09:34:41.000Z</time>
      </trkpt>
      <trkpt lat="43.3643" lon="5.99043">
        <ele>747</ele>
        <time>2019-12-17T09:34:42.000Z</time>
      </trkpt>
      <trkpt lat="43.3643" lon="5.99043">
        <ele>747</ele>
        <time>2019-12-17T09:34:43.000Z</time>
      </trkpt>
      <trkpt lat="43.36431" lon="5.99042">
        <ele>747</ele>
        <time>2019-12-17T09:34:44.000Z</time>
      </trkpt>
      <trkpt lat="43.36431" lon="5.99042">
        <ele>748</ele>
        <time>2019-12-17T09:34:45.000Z</time>
      </trkpt>
      <trkpt lat="43.36431" lon="5.99041">
        <ele>748</ele>
        <time>2019-12-17T09:34:46.000Z</time>
      </trkpt>
      <trkpt lat="43.36432" lon="5.99041">
        <ele>748</ele>
        <time>2019-12-17T09:34:47.000Z</time>
      </trkpt>
      <trkpt lat="43.36432" lon="5.9904">
        <ele>748</ele>
        <time>2019-12-17T09:34:48.000Z</time>
      </trkpt>
      <trkpt lat="43.36432" lon="5.99039">
        <ele>748</ele>
        <time>2019-12-17T09:34:49.000Z</time>
      </trkpt>
      <trkpt lat="43.36432" lon="5.99038">
        <ele>748</ele>
        <time>2019-12-17T09:34:50.000Z</time>
      </trkpt>
      <trkpt lat="43.36432" lon="5.99037">
        <ele>748</ele>
        <time>2019-12-17T09:34:51.000Z</time>
      </trkpt>
      <trkpt lat="43.36432" lon="5.99036">
        <ele>748</ele>
        <time>2019-12-17T09:34:52.000Z</time>
      </trkpt>
      <trkpt lat="43.36432" lon="5.99036">
        <ele>748</ele>
        <time>2019-12-17T09:34:53.000Z</time>
      </trkpt>
      <trkpt lat="43.36432" lon="5.99035">
        <ele>748</ele>
        <time>2019-12-17T09:34:54.000Z</time>
      </trkpt>
      <trkpt lat="43.36431" lon="5.99034">
        <ele>748</ele>
        <time>2019-12-17T09:34:55.000Z</time>
      </trkpt>
      <trkpt lat="43.36431" lon="5.99033">
        <ele>748</ele>
        <time>2019-12-17T09:34:56.000Z</time>
      </trkpt>
      <trkpt lat="43.36431" lon="5.99031">
        <ele>748</ele>
        <time>2019-12-17T09:34:57.000Z</time>
      </trkpt>
      <trkpt lat="43.36431" lon="5.9903">
        <ele>748</ele>
        <time>2019-12-17T09:34:58.000Z</time>
      </trkpt>
      <trkpt lat="43.36431" lon="5.99029">
        <ele>748</ele>
        <time>2019-12-17T09:34:59.000Z</time>
      </trkpt>
      <trkpt lat="43.36431" lon="5.99028">
        <ele>748</ele>
        <time>2019-12-17T09:35:00.000Z</time>
      </trkpt>
      <trkpt lat="43.36431" lon="5.99027">
        <ele>748</ele>
        <time>2019-12-17T09:35:01.000Z</time>
      </trkpt>
      <trkpt lat="43.36431" lon="5.99026">
        <ele>748</ele>
        <time>2019-12-17T09:35:02.000Z</time>
      </trkpt>
      <trkpt lat="43.3643" lon="5.99026">
        <ele>748</ele>
        <time>2019-12-17T09:35:03.000Z</time>
      </trkpt>
      <trkpt lat="43.3643" lon="5.99025">
        <ele>748</ele>
        <time>2019-12-17T09:35:04.000Z</time>
      </trkpt>
      <trkpt lat="43.36429" lon="5.99024">
        <ele>748</ele>
        <time>2019-12-17T09:35:05.000Z</time>
      </trkpt>
      <trkpt lat="43.36429" lon="5.99022">
        <ele>748</ele>
        <time>2019-12-17T09:35:06.000Z</time>
      </trkpt>
      <trkpt lat="43.36429" lon="5.99021">
        <ele>748</ele>
        <time>2019-12-17T09:35:07.000Z</time>
      </trkpt>
      <trkpt lat="43.36428" lon="5.9902">
        <ele>748</ele>
        <time>2019-12-17T09:35:08.000Z</time>
      </trkpt>
      <trkpt lat="43.36427" lon="5.99019">
        <ele>748</ele>
        <time>2019-12-17T09:35:09.000Z</time>
      </trkpt>
      <trkpt lat="43.36427" lon="5.99019">
        <ele>749</ele>
        <time>2019-12-17T09:35:10.000Z</time>
      </trkpt>
      <trkpt lat="43.36426" lon="5.99017">
        <ele>749</ele>
        <time>2019-12-17T09:35:11.000Z</time>
      </trkpt>
      <trkpt lat="43.36426" lon="5.99016">
        <ele>749</ele>
        <time>2019-12-17T09:35:12.000Z</time>
      </trkpt>
      <trkpt lat="43.36426" lon="5.99015">
        <ele>749</ele>
        <time>2019-12-17T09:35:13.000Z</time>
      </trkpt>
      <trkpt lat="43.36426" lon="5.99014">
        <ele>749</ele>
        <time>2019-12-17T09:35:14.000Z</time>
      </trkpt>
      <trkpt lat="43.36426" lon="5.99014">
        <ele>749</ele>
        <time>2019-12-17T09:35:15.000Z</time>
      </trkpt>
      <trkpt lat="43.36426" lon="5.99013">
        <ele>749</ele>
        <time>2019-12-17T09:35:16.000Z</time>
      </trkpt>
      <trkpt lat="43.36425" lon="5.99012">
        <ele>749</ele>
        <time>2019-12-17T09:35:17.000Z</time>
      </trkpt>
      <trkpt lat="43.36424" lon="5.99011">
        <ele>749</ele>
        <time>2019-12-17T09:35:18.000Z</time>
      </trkpt>
      <trkpt lat="43.36424" lon="5.9901">
        <ele>749</ele>
        <time>2019-12-17T09:35:19.000Z</time>
      </trkpt>
      <trkpt lat="43.36424" lon="5.99008">
        <ele>749</ele>
        <time>2019-12-17T09:35:20.000Z</time>
      </trkpt>
      <trkpt lat="43.36424" lon="5.99007">
        <ele>749</ele>
        <time>2019-12-17T09:35:21.000Z</time>
      </trkpt>
      <trkpt lat="43.36424" lon="5.99006">
        <ele>749</ele>
        <time>2019-12-17T09:35:22.000Z</time>
      </trkpt>
      <trkpt lat="43.36424" lon="5.99005">
        <ele>749</ele>
        <time>2019-12-17T09:35:23.000Z</time>
      </trkpt>
      <trkpt lat="43.36424" lon="5.99004">
        <ele>750</ele>
        <time>2019-12-17T09:35:24.000Z</time>
      </trkpt>
      <trkpt lat="43.36424" lon="5.99003">
        <ele>750</ele>
        <time>2019-12-17T09:35:25.000Z</time>
      </trkpt>
      <trkpt lat="43.36424" lon="5.99002">
        <ele>750</ele>
        <time>2019-12-17T09:35:26.000Z</time>
      </trkpt>
      <trkpt lat="43.36425" lon="5.99001">
        <ele>750</ele>
        <time>2019-12-17T09:35:27.000Z</time>
      </trkpt>
      <trkpt lat="43.36425" lon="5.99">
        <ele>750</ele>
        <time>2019-12-17T09:35:28.000Z</time>
      </trkpt>
      <trkpt lat="43.36425" lon="5.98999">
        <ele>750</ele>
        <time>2019-12-17T09:35:29.000Z</time>
      </trkpt>
      <trkpt lat="43.36425" lon="5.98997">
        <ele>750</ele>
        <time>2019-12-17T09:35:30.000Z</time>
      </trkpt>
      <trkpt lat="43.36424" lon="5.98996">
        <ele>750</ele>
        <time>2019-12-17T09:35:31.000Z</time>
      </trkpt>
      <trkpt lat="43.36424" lon="5.98995">
        <ele>750</ele>
        <time>2019-12-17T09:35:32.000Z</time>
      </trkpt>
      <trkpt lat="43.36424" lon="5.98994">
        <ele>750</ele>
        <time>2019-12-17T09:35:33.000Z</time>
      </trkpt>
      <trkpt lat="43.36424" lon="5.98993">
        <ele>750</ele>
        <time>2019-12-17T09:35:34.000Z</time>
      </trkpt>
      <trkpt lat="43.36424" lon="5.98992">
        <ele>750</ele>
        <time>2019-12-17T09:35:35.000Z</time>
      </trkpt>
      <trkpt lat="43.36424" lon="5.98992">
        <ele>750</ele>
        <time>2019-12-17T09:35:36.000Z</time>
      </trkpt>
      <trkpt lat="43.36423" lon="5.98991">
        <ele>750</ele>
        <time>2019-12-17T09:35:37.000Z</time>
      </trkpt>
      <trkpt lat="43.36423" lon="5.9899">
        <ele>750</ele>
        <time>2019-12-17T09:35:38.000Z</time>
      </trkpt>
      <trkpt lat="43.36422" lon="5.9899">
        <ele>750</ele>
        <time>2019-12-17T09:35:39.000Z</time>
      </trkpt>
      <trkpt lat="43.36422" lon="5.98989">
        <ele>750</ele>
        <time>2019-12-17T09:35:40.000Z</time>
      </trkpt>
      <trkpt lat="43.36421" lon="5.98988">
        <ele>750</ele>
        <time>2019-12-17T09:35:41.000Z</time>
      </trkpt>
      <trkpt lat="43.3642" lon="5.98987">
        <ele>749</ele>
        <time>2019-12-17T09:35:42.000Z</time>
      </trkpt>
      <trkpt lat="43.3642" lon="5.98986">
        <ele>749</ele>
        <time>2019-12-17T09:35:43.000Z</time>
      </trkpt>
      <trkpt lat="43.3642" lon="5.98986">
        <ele>749</ele>
        <time>2019-12-17T09:35:44.000Z</time>
      </trkpt>
      <trkpt lat="43.36419" lon="5.98985">
        <ele>749</ele>
        <time>2019-12-17T09:35:45.000Z</time>
      </trkpt>
      <trkpt lat="43.36419" lon="5.98985">
        <ele>749</ele>
        <time>2019-12-17T09:35:46.000Z</time>
      </trkpt>
      <trkpt lat="43.36418" lon="5.98984">
        <ele>749</ele>
        <time>2019-12-17T09:35:47.000Z</time>
      </trkpt>
      <trkpt lat="43.36418" lon="5.98983">
        <ele>749</ele>
        <time>2019-12-17T09:35:48.000Z</time>
      </trkpt>
      <trkpt lat="43.36418" lon="5.98982">
        <ele>749</ele>
        <time>2019-12-17T09:35:49.000Z</time>
      </trkpt>
      <trkpt lat="43.36418" lon="5.98981">
        <ele>749</ele>
        <time>2019-12-17T09:35:50.000Z</time>
      </trkpt>
      <trkpt lat="43.36418" lon="5.9898">
        <ele>749</ele>
        <time>2019-12-17T09:35:51.000Z</time>
      </trkpt>
      <trkpt lat="43.36418" lon="5.98979">
        <ele>749</ele>
        <time>2019-12-17T09:35:52.000Z</time>
      </trkpt>
      <trkpt lat="43.36417" lon="5.98978">
        <ele>749</ele>
        <time>2019-12-17T09:35:53.000Z</time>
      </trkpt>
      <trkpt lat="43.36417" lon="5.98977">
        <ele>748</ele>
        <time>2019-12-17T09:35:54.000Z</time>
      </trkpt>
      <trkpt lat="43.36417" lon="5.98976">
        <ele>748</ele>
        <time>2019-12-17T09:35:55.000Z</time>
      </trkpt>
      <trkpt lat="43.36417" lon="5.98976">
        <ele>748</ele>
        <time>2019-12-17T09:35:56.000Z</time>
      </trkpt>
      <trkpt lat="43.36417" lon="5.98975">
        <ele>748</ele>
        <time>2019-12-17T09:35:57.000Z</time>
      </trkpt>
      <trkpt lat="43.36417" lon="5.98975">
        <ele>748</ele>
        <time>2019-12-17T09:35:58.000Z</time>
      </trkpt>
      <trkpt lat="43.36416" lon="5.98974">
        <ele>748</ele>
        <time>2019-12-17T09:35:59.000Z</time>
      </trkpt>
      <trkpt lat="43.36416" lon="5.98974">
        <ele>748</ele>
        <time>2019-12-17T09:36:00.000Z</time>
      </trkpt>
      <trkpt lat="43.36416" lon="5.98973">
        <ele>748</ele>
        <time>2019-12-17T09:36:01.000Z</time>
      </trkpt>
      <trkpt lat="43.36416" lon="5.98973">
        <ele>748</ele>
        <time>2019-12-17T09:36:02.000Z</time>
      </trkpt>
      <trkpt lat="43.36416" lon="5.98973">
        <ele>748</ele>
        <time>2019-12-17T09:36:03.000Z</time>
      </trkpt>
      <trkpt lat="43.36416" lon="5.98973">
        <ele>748</ele>
        <time>2019-12-17T09:36:04.000Z</time>
      </trkpt>
      <trkpt lat="43.36416" lon="5.98973">
        <ele>748</ele>
        <time>2019-12-17T09:36:05.000Z</time>
      </trkpt>
      <trkpt lat="43.36416" lon="5.98973">
        <ele>748</ele>
        <time>2019-12-17T09:36:06.000Z</time>
      </trkpt>
      <trkpt lat="43.36416" lon="5.98973">
        <ele>748</ele>
        <time>2019-12-17T09:36:07.000Z</time>
      </trkpt>
      <trkpt lat="43.36416" lon="5.98973">
        <ele>748</ele>
        <time>2019-12-17T09:36:08.000Z</time>
      </trkpt>
      <trkpt lat="43.36415" lon="5.98973">
        <ele>748</ele>
        <time>2019-12-17T09:36:09.000Z</time>
      </trkpt>
      <trkpt lat="43.36415" lon="5.98972">
        <ele>748</ele>
        <time>2019-12-17T09:36:10.000Z</time>
      </trkpt>
      <trkpt lat="43.36414" lon="5.98973">
        <ele>748</ele>
        <time>2019-12-17T09:36:11.000Z</time>
      </trkpt>
      <trkpt lat="43.36414" lon="5.98973">
        <ele>748</ele>
        <time>2019-12-17T09:36:12.000Z</time>
      </trkpt>
      <trkpt lat="43.36414" lon="5.98973">
        <ele>748</ele>
        <time>2019-12-17T09:36:13.000Z</time>
      </trkpt>
      <trkpt lat="43.36414" lon="5.98974">
        <ele>748</ele>
        <time>2019-12-17T09:36:14.000Z</time>
      </trkpt>
      <trkpt lat="43.36413" lon="5.98974">
        <ele>748</ele>
        <time>2019-12-17T09:36:15.000Z</time>
      </trkpt>
      <trkpt lat="43.36413" lon="5.98974">
        <ele>747</ele>
        <time>2019-12-17T09:36:16.000Z</time>
      </trkpt>
      <trkpt lat="43.36413" lon="5.98974">
        <ele>747</ele>
        <time>2019-12-17T09:36:17.000Z</time>
      </trkpt>
      <trkpt lat="43.36413" lon="5.98974">
        <ele>747</ele>
        <time>2019-12-17T09:36:18.000Z</time>
      </trkpt>
      <trkpt lat="43.36413" lon="5.98974">
        <ele>747</ele>
        <time>2019-12-17T09:36:19.000Z</time>
      </trkpt>
      <trkpt lat="43.36413" lon="5.98974">
        <ele>747</ele>
        <time>2019-12-17T09:36:20.000Z</time>
      </trkpt>
      <trkpt lat="43.36413" lon="5.98974">
        <ele>747</ele>
        <time>2019-12-17T09:36:21.000Z</time>
      </trkpt>
      <trkpt lat="43.36413" lon="5.98974">
        <ele>747</ele>
        <time>2019-12-17T09:36:22.000Z</time>
      </trkpt>
      <trkpt lat="43.36413" lon="5.98974">
        <ele>747</ele>
        <time>2019-12-17T09:36:23.000Z</time>
      </trkpt>
      <trkpt lat="43.36413" lon="5.98974">
        <ele>747</ele>
        <time>2019-12-17T09:36:24.000Z</time>
      </trkpt>
      <trkpt lat="43.36413" lon="5.98973">
        <ele>747</ele>
        <time>2019-12-17T09:36:25.000Z</time>
      </trkpt>
      <trkpt lat="43.36413" lon="5.98972">
        <ele>747</ele>
        <time>2019-12-17T09:36:26.000Z</time>
      </trkpt>
      <trkpt lat="43.36414" lon="5.98972">
        <ele>747</ele>
        <time>2019-12-17T09:36:27.000Z</time>
      </trkpt>
      <trkpt lat="43.36414" lon="5.98971">
        <ele>747</ele>
        <time>2019-12-17T09:36:28.000Z</time>
      </trkpt>
      <trkpt lat="43.36414" lon="5.98971">
        <ele>747</ele>
        <time>2019-12-17T09:36:29.000Z</time>
      </trkpt>
      <trkpt lat="43.36414" lon="5.98971">
        <ele>747</ele>
        <time>2019-12-17T09:36:30.000Z</time>
      </trkpt>
      <trkpt lat="43.36414" lon="5.98971">
        <ele>747</ele>
        <time>2019-12-17T09:36:31.000Z</time>
      </trkpt>
      <trkpt lat="43.36414" lon="5.98971">
        <ele>747</ele>
        <time>2019-12-17T09:36:32.000Z</time>
      </trkpt>
      <trkpt lat="43.36414" lon="5.98971">
        <ele>747</ele>
        <time>2019-12-17T09:36:33.000Z</time>
      </trkpt>
      <trkpt lat="43.36414" lon="5.9897">
        <ele>747</ele>
        <time>2019-12-17T09:36:34.000Z</time>
      </trkpt>
      <trkpt lat="43.36415" lon="5.98969">
        <ele>747</ele>
        <time>2019-12-17T09:36:35.000Z</time>
      </trkpt>
      <trkpt lat="43.36415" lon="5.98968">
        <ele>747</ele>
        <time>2019-12-17T09:36:36.000Z</time>
      </trkpt>
      <trkpt lat="43.36415" lon="5.98967">
        <ele>747</ele>
        <time>2019-12-17T09:36:37.000Z</time>
      </trkpt>
      <trkpt lat="43.36415" lon="5.98966">
        <ele>747</ele>
        <time>2019-12-17T09:36:38.000Z</time>
      </trkpt>
      <trkpt lat="43.36415" lon="5.98965">
        <ele>747</ele>
        <time>2019-12-17T09:36:39.000Z</time>
      </trkpt>
      <trkpt lat="43.36415" lon="5.98965">
        <ele>747</ele>
        <time>2019-12-17T09:36:40.000Z</time>
      </trkpt>
      <trkpt lat="43.36415" lon="5.98964">
        <ele>747</ele>
        <time>2019-12-17T09:36:41.000Z</time>
      </trkpt>
      <trkpt lat="43.36415" lon="5.98963">
        <ele>747</ele>
        <time>2019-12-17T09:36:42.000Z</time>
      </trkpt>
      <trkpt lat="43.36415" lon="5.98963">
        <ele>747</ele>
        <time>2019-12-17T09:36:43.000Z</time>
      </trkpt>
      <trkpt lat="43.36415" lon="5.98962">
        <ele>747</ele>
        <time>2019-12-17T09:36:44.000Z</time>
      </trkpt>
      <trkpt lat="43.36415" lon="5.98962">
        <ele>747</ele>
        <time>2019-12-17T09:36:45.000Z</time>
      </trkpt>
      <trkpt lat="43.36415" lon="5.98962">
        <ele>747</ele>
        <time>2019-12-17T09:36:46.000Z</time>
      </trkpt>
      <trkpt lat="43.36415" lon="5.98962">
        <ele>747</ele>
        <time>2019-12-17T09:36:47.000Z</time>
      </trkpt>
      <trkpt lat="43.36415" lon="5.98961">
        <ele>747</ele>
        <time>2019-12-17T09:36:48.000Z</time>
      </trkpt>
      <trkpt lat="43.36415" lon="5.98961">
        <ele>747</ele>
        <time>2019-12-17T09:36:49.000Z</time>
      </trkpt>
      <trkpt lat="43.36415" lon="5.9896">
        <ele>747</ele>
        <time>2019-12-17T09:36:50.000Z</time>
      </trkpt>
      <trkpt lat="43.36415" lon="5.9896">
        <ele>747</ele>
        <time>2019-12-17T09:36:51.000Z</time>
      </trkpt>
      <trkpt lat="43.36415" lon="5.9896">
        <ele>747</ele>
        <time>2019-12-17T09:36:52.000Z</time>
      </trkpt>
      <trkpt lat="43.36416" lon="5.98959">
        <ele>747</ele>
        <time>2019-12-17T09:36:53.000Z</time>
      </trkpt>
      <trkpt lat="43.36416" lon="5.98959">
        <ele>747</ele>
        <time>2019-12-17T09:36:54.000Z</time>
      </trkpt>
      <trkpt lat="43.36416" lon="5.98959">
        <ele>747</ele>
        <time>2019-12-17T09:36:55.000Z</time>
      </trkpt>
      <trkpt lat="43.36416" lon="5.98958">
        <ele>747</ele>
        <time>2019-12-17T09:36:56.000Z</time>
      </trkpt>
      <trkpt lat="43.36416" lon="5.98958">
        <ele>747</ele>
        <time>2019-12-17T09:36:57.000Z</time>
      </trkpt>
      <trkpt lat="43.36416" lon="5.98958">
        <ele>747</ele>
        <time>2019-12-17T09:36:58.000Z</time>
      </trkpt>
      <trkpt lat="43.36417" lon="5.98957">
        <ele>747</ele>
        <time>2019-12-17T09:36:59.000Z</time>
      </trkpt>
      <trkpt lat="43.36417" lon="5.98957">
        <ele>747</ele>
        <time>2019-12-17T09:37:00.000Z</time>
      </trkpt>
      <trkpt lat="43.36417" lon="5.98956">
        <ele>747</ele>
        <time>2019-12-17T09:37:01.000Z</time>
      </trkpt>
      <trkpt lat="43.36417" lon="5.98955">
        <ele>747</ele>
        <time>2019-12-17T09:37:02.000Z</time>
      </trkpt>
      <trkpt lat="43.36417" lon="5.98955">
        <ele>747</ele>
        <time>2019-12-17T09:37:03.000Z</time>
      </trkpt>
      <trkpt lat="43.36417" lon="5.98954">
        <ele>747</ele>
        <time>2019-12-17T09:37:04.000Z</time>
      </trkpt>
      <trkpt lat="43.36417" lon="5.98954">
        <ele>747</ele>
        <time>2019-12-17T09:37:05.000Z</time>
      </trkpt>
      <trkpt lat="43.36417" lon="5.98953">
        <ele>747</ele>
        <time>2019-12-17T09:37:06.000Z</time>
      </trkpt>
      <trkpt lat="43.36417" lon="5.98953">
        <ele>747</ele>
        <time>2019-12-17T09:37:07.000Z</time>
      </trkpt>
      <trkpt lat="43.36417" lon="5.98953">
        <ele>747</ele>
        <time>2019-12-17T09:37:08.000Z</time>
      </trkpt>
      <trkpt lat="43.36416" lon="5.98952">
        <ele>748</ele>
        <time>2019-12-17T09:37:09.000Z</time>
      </trkpt>
      <trkpt lat="43.36416" lon="5.98953">
        <ele>748</ele>
        <time>2019-12-17T09:37:10.000Z</time>
      </trkpt>
      <trkpt lat="43.36416" lon="5.98953">
        <ele>748</ele>
        <time>2019-12-17T09:37:11.000Z</time>
      </trkpt>
      <trkpt lat="43.36416" lon="5.98953">
        <ele>748</ele>
        <time>2019-12-17T09:37:12.000Z</time>
      </trkpt>
      <trkpt lat="43.36416" lon="5.98953">
        <ele>748</ele>
        <time>2019-12-17T09:37:13.000Z</time>
      </trkpt>
      <trkpt lat="43.36416" lon="5.98953">
        <ele>748</ele>
        <time>2019-12-17T09:37:14.000Z</time>
      </trkpt>
      <trkpt lat="43.36416" lon="5.98953">
        <ele>748</ele>
        <time>2019-12-17T09:37:15.000Z</time>
      </trkpt>
      <trkpt lat="43.36416" lon="5.98953">
        <ele>748</ele>
        <time>2019-12-17T09:37:16.000Z</time>
      </trkpt>
      <trkpt lat="43.36416" lon="5.98953">
        <ele>748</ele>
        <time>2019-12-17T09:37:17.000Z</time>
      </trkpt>
      <trkpt lat="43.36416" lon="5.98953">
        <ele>748</ele>
        <time>2019-12-17T09:37:18.000Z</time>
      </trkpt>
      <trkpt lat="43.36416" lon="5.98953">
        <ele>748</ele>
        <time>2019-12-17T09:37:19.000Z</time>
      </trkpt>
      <trkpt lat="43.36416" lon="5.98953">
        <ele>748</ele>
        <time>2019-12-17T09:37:20.000Z</time>
      </trkpt>
      <trkpt lat="43.36416" lon="5.98953">
        <ele>748</ele>
        <time>2019-12-17T09:37:21.000Z</time>
      </trkpt>
      <trkpt lat="43.36416" lon="5.98953">
        <ele>748</ele>
        <time>2019-12-17T09:37:22.000Z</time>
      </trkpt>
      <trkpt lat="43.36416" lon="5.98953">
        <ele>748</ele>
        <time>2019-12-17T09:37:23.000Z</time>
      </trkpt>
      <trkpt lat="43.36416" lon="5.98953">
        <ele>748</ele>
        <time>2019-12-17T09:37:24.000Z</time>
      </trkpt>
      <trkpt lat="43.36416" lon="5.98953">
        <ele>748</ele>
        <time>2019-12-17T09:37:25.000Z</time>
      </trkpt>
      <trkpt lat="43.36416" lon="5.98953">
        <ele>748</ele>
        <time>2019-12-17T09:37:26.000Z</time>
      </trkpt>
      <trkpt lat="43.36416" lon="5.98953">
        <ele>748</ele>
        <time>2019-12-17T09:37:27.000Z</time>
      </trkpt>
      <trkpt lat="43.36416" lon="5.98953">
        <ele>748</ele>
        <time>2019-12-17T09:37:28.000Z</time>
      </trkpt>
      <trkpt lat="43.36416" lon="5.98954">
        <ele>748</ele>
        <time>2019-12-17T09:37:29.000Z</time>
      </trkpt>
      <trkpt lat="43.36416" lon="5.98954">
        <ele>748</ele>
        <time>2019-12-17T09:37:30.000Z</time>
      </trkpt>
      <trkpt lat="43.36416" lon="5.98955">
        <ele>748</ele>
        <time>2019-12-17T09:37:31.000Z</time>
      </trkpt>
      <trkpt lat="43.36417" lon="5.98955">
        <ele>748</ele>
        <time>2019-12-17T09:37:32.000Z</time>
      </trkpt>
      <trkpt lat="43.36417" lon="5.98955">
        <ele>748</ele>
        <time>2019-12-17T09:37:33.000Z</time>
      </trkpt>
      <trkpt lat="43.36417" lon="5.98955">
        <ele>748</ele>
        <time>2019-12-17T09:37:34.000Z</time>
      </trkpt>
      <trkpt lat="43.36417" lon="5.98955">
        <ele>748</ele>
        <time>2019-12-17T09:37:35.000Z</time>
      </trkpt>
      <trkpt lat="43.36417" lon="5.98955">
        <ele>748</ele>
        <time>2019-12-17T09:37:36.000Z</time>
      </trkpt>
      <trkpt lat="43.36417" lon="5.98955">
        <ele>748</ele>
        <time>2019-12-17T09:37:37.000Z</time>
      </trkpt>
      <trkpt lat="43.36417" lon="5.98955">
        <ele>748</ele>
        <time>2019-12-17T09:37:38.000Z</time>
      </trkpt>
      <trkpt lat="43.36417" lon="5.98956">
        <ele>748</ele>
        <time>2019-12-17T09:37:39.000Z</time>
      </trkpt>
      <trkpt lat="43.36417" lon="5.98956">
        <ele>748</ele>
        <time>2019-12-17T09:37:40.000Z</time>
      </trkpt>
      <trkpt lat="43.36417" lon="5.98956">
        <ele>748</ele>
        <time>2019-12-17T09:37:41.000Z</time>
      </trkpt>
      <trkpt lat="43.36417" lon="5.98956">
        <ele>748</ele>
        <time>2019-12-17T09:37:42.000Z</time>
      </trkpt>
      <trkpt lat="43.36417" lon="5.98956">
        <ele>749</ele>
        <time>2019-12-17T09:37:43.000Z</time>
      </trkpt>
      <trkpt lat="43.36417" lon="5.98956">
        <ele>749</ele>
        <time>2019-12-17T09:37:44.000Z</time>
      </trkpt>
      <trkpt lat="43.36417" lon="5.98956">
        <ele>749</ele>
        <time>2019-12-17T09:37:45.000Z</time>
      </trkpt>
      <trkpt lat="43.36417" lon="5.98956">
        <ele>749</ele>
        <time>2019-12-17T09:37:46.000Z</time>
      </trkpt>
      <trkpt lat="43.36417" lon="5.98956">
        <ele>749</ele>
        <time>2019-12-17T09:37:47.000Z</time>
      </trkpt>
      <trkpt lat="43.36417" lon="5.98956">
        <ele>749</ele>
        <time>2019-12-17T09:37:48.000Z</time>
      </trkpt>
      <trkpt lat="43.36417" lon="5.98956">
        <ele>749</ele>
        <time>2019-12-17T09:37:49.000Z</time>
      </trkpt>
      <trkpt lat="43.36417" lon="5.98956">
        <ele>749</ele>
        <time>2019-12-17T09:37:50.000Z</time>
      </trkpt>
      <trkpt lat="43.36417" lon="5.98956">
        <ele>749</ele>
        <time>2019-12-17T09:37:51.000Z</time>
      </trkpt>
      <trkpt lat="43.36417" lon="5.98956">
        <ele>749</ele>
        <time>2019-12-17T09:37:52.000Z</time>
      </trkpt>
      <trkpt lat="43.36417" lon="5.98956">
        <ele>749</ele>
        <time>2019-12-17T09:37:53.000Z</time>
      </trkpt>
      <trkpt lat="43.36417" lon="5.98956">
        <ele>749</ele>
        <time>2019-12-17T09:37:54.000Z</time>
      </trkpt>
      <trkpt lat="43.36417" lon="5.98956">
        <ele>749</ele>
        <time>2019-12-17T09:37:55.000Z</time>
      </trkpt>
      <trkpt lat="43.36417" lon="5.98956">
        <ele>749</ele>
        <time>2019-12-17T09:37:56.000Z</time>
      </trkpt>
      <trkpt lat="43.36417" lon="5.98956">
        <ele>749</ele>
        <time>2019-12-17T09:37:57.000Z</time>
      </trkpt>
      <trkpt lat="43.36417" lon="5.98956">
        <ele>749</ele>
        <time>2019-12-17T09:37:58.000Z</time>
      </trkpt>
      <trkpt lat="43.36417" lon="5.98956">
        <ele>749</ele>
        <time>2019-12-17T09:37:59.000Z</time>
      </trkpt>
      <trkpt lat="43.36417" lon="5.98956">
        <ele>749</ele>
        <time>2019-12-17T09:38:00.000Z</time>
      </trkpt>
      <trkpt lat="43.36417" lon="5.98956">
        <ele>749</ele>
        <time>2019-12-17T09:38:01.000Z</time>
      </trkpt>
      <trkpt lat="43.36417" lon="5.98956">
        <ele>749</ele>
        <time>2019-12-17T09:38:02.000Z</time>
      </trkpt>
      <trkpt lat="43.36417" lon="5.98957">
        <ele>749</ele>
        <time>2019-12-17T09:38:03.000Z</time>
      </trkpt>
      <trkpt lat="43.36417" lon="5.98957">
        <ele>749</ele>
        <time>2019-12-17T09:38:04.000Z</time>
      </trkpt>
      <trkpt lat="43.36416" lon="5.98958">
        <ele>749</ele>
        <time>2019-12-17T09:38:05.000Z</time>
      </trkpt>
      <trkpt lat="43.36416" lon="5.98958">
        <ele>749</ele>
        <time>2019-12-17T09:38:06.000Z</time>
      </trkpt>
      <trkpt lat="43.36416" lon="5.98959">
        <ele>749</ele>
        <time>2019-12-17T09:38:07.000Z</time>
      </trkpt>
      <trkpt lat="43.36416" lon="5.98959">
        <ele>749</ele>
        <time>2019-12-17T09:38:08.000Z</time>
      </trkpt>
      <trkpt lat="43.36415" lon="5.9896">
        <ele>749</ele>
        <time>2019-12-17T09:38:09.000Z</time>
      </trkpt>
      <trkpt lat="43.36415" lon="5.9896">
        <ele>749</ele>
        <time>2019-12-17T09:38:10.000Z</time>
      </trkpt>
      <trkpt lat="43.36414" lon="5.9896">
        <ele>749</ele>
        <time>2019-12-17T09:38:11.000Z</time>
      </trkpt>
      <trkpt lat="43.36414" lon="5.9896">
        <ele>749</ele>
        <time>2019-12-17T09:38:12.000Z</time>
      </trkpt>
      <trkpt lat="43.36413" lon="5.9896">
        <ele>749</ele>
        <time>2019-12-17T09:38:13.000Z</time>
      </trkpt>
      <trkpt lat="43.36413" lon="5.9896">
        <ele>749</ele>
        <time>2019-12-17T09:38:14.000Z</time>
      </trkpt>
      <trkpt lat="43.36412" lon="5.9896">
        <ele>749</ele>
        <time>2019-12-17T09:38:15.000Z</time>
      </trkpt>
      <trkpt lat="43.36411" lon="5.98961">
        <ele>749</ele>
        <time>2019-12-17T09:38:16.000Z</time>
      </trkpt>
      <trkpt lat="43.36411" lon="5.98961">
        <ele>749</ele>
        <time>2019-12-17T09:38:17.000Z</time>
      </trkpt>
      <trkpt lat="43.3641" lon="5.98961">
        <ele>749</ele>
        <time>2019-12-17T09:38:18.000Z</time>
      </trkpt>
      <trkpt lat="43.36409" lon="5.98961">
        <ele>749</ele>
        <time>2019-12-17T09:38:19.000Z</time>
      </trkpt>
      <trkpt lat="43.36409" lon="5.9896">
        <ele>749</ele>
        <time>2019-12-17T09:38:20.000Z</time>
      </trkpt>
      <trkpt lat="43.36408" lon="5.98959">
        <ele>749</ele>
        <time>2019-12-17T09:38:21.000Z</time>
      </trkpt>
      <trkpt lat="43.36407" lon="5.98959">
        <ele>749</ele>
        <time>2019-12-17T09:38:22.000Z</time>
      </trkpt>
      <trkpt lat="43.36407" lon="5.98958">
        <ele>748</ele>
        <time>2019-12-17T09:38:23.000Z</time>
      </trkpt>
      <trkpt lat="43.36406" lon="5.98957">
        <ele>748</ele>
        <time>2019-12-17T09:38:24.000Z</time>
      </trkpt>
      <trkpt lat="43.36405" lon="5.98956">
        <ele>748</ele>
        <time>2019-12-17T09:38:25.000Z</time>
      </trkpt>
      <trkpt lat="43.36405" lon="5.98955">
        <ele>748</ele>
        <time>2019-12-17T09:38:26.000Z</time>
      </trkpt>
      <trkpt lat="43.36405" lon="5.98954">
        <ele>748</ele>
        <time>2019-12-17T09:38:27.000Z</time>
      </trkpt>
      <trkpt lat="43.36404" lon="5.98952">
        <ele>748</ele>
        <time>2019-12-17T09:38:28.000Z</time>
      </trkpt>
      <trkpt lat="43.36404" lon="5.98951">
        <ele>748</ele>
        <time>2019-12-17T09:38:29.000Z</time>
      </trkpt>
      <trkpt lat="43.36404" lon="5.9895">
        <ele>747</ele>
        <time>2019-12-17T09:38:30.000Z</time>
      </trkpt>
      <trkpt lat="43.36403" lon="5.98949">
        <ele>747</ele>
        <time>2019-12-17T09:38:31.000Z</time>
      </trkpt>
      <trkpt lat="43.36403" lon="5.98948">
        <ele>747</ele>
        <time>2019-12-17T09:38:32.000Z</time>
      </trkpt>
      <trkpt lat="43.36402" lon="5.98947">
        <ele>747</ele>
        <time>2019-12-17T09:38:33.000Z</time>
      </trkpt>
      <trkpt lat="43.36401" lon="5.98946">
        <ele>747</ele>
        <time>2019-12-17T09:38:34.000Z</time>
      </trkpt>
      <trkpt lat="43.36401" lon="5.98945">
        <ele>747</ele>
        <time>2019-12-17T09:38:35.000Z</time>
      </trkpt>
      <trkpt lat="43.36401" lon="5.98944">
        <ele>747</ele>
        <time>2019-12-17T09:38:36.000Z</time>
      </trkpt>
      <trkpt lat="43.36401" lon="5.98942">
        <ele>747</ele>
        <time>2019-12-17T09:38:37.000Z</time>
      </trkpt>
      <trkpt lat="43.36401" lon="5.98941">
        <ele>747</ele>
        <time>2019-12-17T09:38:38.000Z</time>
      </trkpt>
      <trkpt lat="43.364" lon="5.9894">
        <ele>747</ele>
        <time>2019-12-17T09:38:39.000Z</time>
      </trkpt>
      <trkpt lat="43.364" lon="5.98938">
        <ele>748</ele>
        <time>2019-12-17T09:38:40.000Z</time>
      </trkpt>
      <trkpt lat="43.364" lon="5.98937">
        <ele>748</ele>
        <time>2019-12-17T09:38:41.000Z</time>
      </trkpt>
      <trkpt lat="43.364" lon="5.98936">
        <ele>748</ele>
        <time>2019-12-17T09:38:42.000Z</time>
      </trkpt>
      <trkpt lat="43.364" lon="5.98935">
        <ele>748</ele>
        <time>2019-12-17T09:38:43.000Z</time>
      </trkpt>
      <trkpt lat="43.364" lon="5.98933">
        <ele>748</ele>
        <time>2019-12-17T09:38:44.000Z</time>
      </trkpt>
      <trkpt lat="43.364" lon="5.98932">
        <ele>748</ele>
        <time>2019-12-17T09:38:45.000Z</time>
      </trkpt>
      <trkpt lat="43.36399" lon="5.9893">
        <ele>748</ele>
        <time>2019-12-17T09:38:46.000Z</time>
      </trkpt>
      <trkpt lat="43.36399" lon="5.98929">
        <ele>748</ele>
        <time>2019-12-17T09:38:47.000Z</time>
      </trkpt>
      <trkpt lat="43.36399" lon="5.98928">
        <ele>748</ele>
        <time>2019-12-17T09:38:48.000Z</time>
      </trkpt>
      <trkpt lat="43.36399" lon="5.98927">
        <ele>748</ele>
        <time>2019-12-17T09:38:49.000Z</time>
      </trkpt>
      <trkpt lat="43.36399" lon="5.98926">
        <ele>749</ele>
        <time>2019-12-17T09:38:50.000Z</time>
      </trkpt>
      <trkpt lat="43.36399" lon="5.98924">
        <ele>749</ele>
        <time>2019-12-17T09:38:51.000Z</time>
      </trkpt>
      <trkpt lat="43.36399" lon="5.98923">
        <ele>749</ele>
        <time>2019-12-17T09:38:52.000Z</time>
      </trkpt>
      <trkpt lat="43.36399" lon="5.98922">
        <ele>749</ele>
        <time>2019-12-17T09:38:53.000Z</time>
      </trkpt>
      <trkpt lat="43.36399" lon="5.98921">
        <ele>749</ele>
        <time>2019-12-17T09:38:54.000Z</time>
      </trkpt>
      <trkpt lat="43.36398" lon="5.9892">
        <ele>749</ele>
        <time>2019-12-17T09:38:55.000Z</time>
      </trkpt>
      <trkpt lat="43.36398" lon="5.98919">
        <ele>749</ele>
        <time>2019-12-17T09:38:56.000Z</time>
      </trkpt>
      <trkpt lat="43.36398" lon="5.98917">
        <ele>749</ele>
        <time>2019-12-17T09:38:57.000Z</time>
      </trkpt>
      <trkpt lat="43.36398" lon="5.98916">
        <ele>749</ele>
        <time>2019-12-17T09:38:58.000Z</time>
      </trkpt>
      <trkpt lat="43.36398" lon="5.98915">
        <ele>749</ele>
        <time>2019-12-17T09:38:59.000Z</time>
      </trkpt>
      <trkpt lat="43.36398" lon="5.98913">
        <ele>749</ele>
        <time>2019-12-17T09:39:00.000Z</time>
      </trkpt>
      <trkpt lat="43.36398" lon="5.98912">
        <ele>749</ele>
        <time>2019-12-17T09:39:01.000Z</time>
      </trkpt>
      <trkpt lat="43.36398" lon="5.98911">
        <ele>749</ele>
        <time>2019-12-17T09:39:02.000Z</time>
      </trkpt>
      <trkpt lat="43.36398" lon="5.9891">
        <ele>749</ele>
        <time>2019-12-17T09:39:03.000Z</time>
      </trkpt>
      <trkpt lat="43.36398" lon="5.98908">
        <ele>749</ele>
        <time>2019-12-17T09:39:04.000Z</time>
      </trkpt>
      <trkpt lat="43.36398" lon="5.98907">
        <ele>749</ele>
        <time>2019-12-17T09:39:05.000Z</time>
      </trkpt>
      <trkpt lat="43.36398" lon="5.98906">
        <ele>749</ele>
        <time>2019-12-17T09:39:06.000Z</time>
      </trkpt>
      <trkpt lat="43.36397" lon="5.98905">
        <ele>749</ele>
        <time>2019-12-17T09:39:07.000Z</time>
      </trkpt>
      <trkpt lat="43.36397" lon="5.98903">
        <ele>748</ele>
        <time>2019-12-17T09:39:08.000Z</time>
      </trkpt>
      <trkpt lat="43.36397" lon="5.98901">
        <ele>748</ele>
        <time>2019-12-17T09:39:09.000Z</time>
      </trkpt>
      <trkpt lat="43.36397" lon="5.989">
        <ele>748</ele>
        <time>2019-12-17T09:39:10.000Z</time>
      </trkpt>
      <trkpt lat="43.36397" lon="5.98899">
        <ele>748</ele>
        <time>2019-12-17T09:39:11.000Z</time>
      </trkpt>
      <trkpt lat="43.36397" lon="5.98897">
        <ele>748</ele>
        <time>2019-12-17T09:39:12.000Z</time>
      </trkpt>
      <trkpt lat="43.36398" lon="5.98896">
        <ele>748</ele>
        <time>2019-12-17T09:39:13.000Z</time>
      </trkpt>
      <trkpt lat="43.36398" lon="5.98895">
        <ele>749</ele>
        <time>2019-12-17T09:39:14.000Z</time>
      </trkpt>
      <trkpt lat="43.36397" lon="5.98894">
        <ele>748</ele>
        <time>2019-12-17T09:39:15.000Z</time>
      </trkpt>
      <trkpt lat="43.36397" lon="5.98893">
        <ele>749</ele>
        <time>2019-12-17T09:39:16.000Z</time>
      </trkpt>
      <trkpt lat="43.36397" lon="5.98893">
        <ele>749</ele>
        <time>2019-12-17T09:39:17.000Z</time>
      </trkpt>
      <trkpt lat="43.36397" lon="5.98892">
        <ele>749</ele>
        <time>2019-12-17T09:39:18.000Z</time>
      </trkpt>
      <trkpt lat="43.36397" lon="5.98891">
        <ele>749</ele>
        <time>2019-12-17T09:39:19.000Z</time>
      </trkpt>
      <trkpt lat="43.36396" lon="5.9889">
        <ele>749</ele>
        <time>2019-12-17T09:39:20.000Z</time>
      </trkpt>
      <trkpt lat="43.36396" lon="5.98889">
        <ele>749</ele>
        <time>2019-12-17T09:39:21.000Z</time>
      </trkpt>
      <trkpt lat="43.36395" lon="5.98888">
        <ele>749</ele>
        <time>2019-12-17T09:39:22.000Z</time>
      </trkpt>
      <trkpt lat="43.36395" lon="5.98887">
        <ele>749</ele>
        <time>2019-12-17T09:39:23.000Z</time>
      </trkpt>
      <trkpt lat="43.36394" lon="5.98887">
        <ele>749</ele>
        <time>2019-12-17T09:39:24.000Z</time>
      </trkpt>
      <trkpt lat="43.36393" lon="5.98886">
        <ele>749</ele>
        <time>2019-12-17T09:39:25.000Z</time>
      </trkpt>
      <trkpt lat="43.36392" lon="5.98885">
        <ele>749</ele>
        <time>2019-12-17T09:39:26.000Z</time>
      </trkpt>
      <trkpt lat="43.36392" lon="5.98883">
        <ele>749</ele>
        <time>2019-12-17T09:39:27.000Z</time>
      </trkpt>
      <trkpt lat="43.36392" lon="5.98882">
        <ele>749</ele>
        <time>2019-12-17T09:39:28.000Z</time>
      </trkpt>
      <trkpt lat="43.36391" lon="5.9888">
        <ele>749</ele>
        <time>2019-12-17T09:39:29.000Z</time>
      </trkpt>
      <trkpt lat="43.36391" lon="5.98879">
        <ele>749</ele>
        <time>2019-12-17T09:39:30.000Z</time>
      </trkpt>
      <trkpt lat="43.36391" lon="5.98878">
        <ele>749</ele>
        <time>2019-12-17T09:39:31.000Z</time>
      </trkpt>
      <trkpt lat="43.36391" lon="5.98876">
        <ele>749</ele>
        <time>2019-12-17T09:39:32.000Z</time>
      </trkpt>
      <trkpt lat="43.3639" lon="5.98875">
        <ele>749</ele>
        <time>2019-12-17T09:39:33.000Z</time>
      </trkpt>
      <trkpt lat="43.36391" lon="5.98873">
        <ele>749</ele>
        <time>2019-12-17T09:39:34.000Z</time>
      </trkpt>
      <trkpt lat="43.36391" lon="5.98871">
        <ele>749</ele>
        <time>2019-12-17T09:39:35.000Z</time>
      </trkpt>
      <trkpt lat="43.3639" lon="5.98871">
        <ele>749</ele>
        <time>2019-12-17T09:39:36.000Z</time>
      </trkpt>
      <trkpt lat="43.3639" lon="5.9887">
        <ele>749</ele>
        <time>2019-12-17T09:39:37.000Z</time>
      </trkpt>
      <trkpt lat="43.3639" lon="5.98869">
        <ele>749</ele>
        <time>2019-12-17T09:39:38.000Z</time>
      </trkpt>
      <trkpt lat="43.36391" lon="5.98868">
        <ele>750</ele>
        <time>2019-12-17T09:39:39.000Z</time>
      </trkpt>
      <trkpt lat="43.36391" lon="5.98867">
        <ele>750</ele>
        <time>2019-12-17T09:39:40.000Z</time>
      </trkpt>
      <trkpt lat="43.36392" lon="5.98865">
        <ele>750</ele>
        <time>2019-12-17T09:39:41.000Z</time>
      </trkpt>
      <trkpt lat="43.36393" lon="5.98864">
        <ele>750</ele>
        <time>2019-12-17T09:39:42.000Z</time>
      </trkpt>
      <trkpt lat="43.36393" lon="5.98863">
        <ele>750</ele>
        <time>2019-12-17T09:39:43.000Z</time>
      </trkpt>
      <trkpt lat="43.36394" lon="5.98862">
        <ele>750</ele>
        <time>2019-12-17T09:39:44.000Z</time>
      </trkpt>
      <trkpt lat="43.36394" lon="5.98861">
        <ele>750</ele>
        <time>2019-12-17T09:39:45.000Z</time>
      </trkpt>
      <trkpt lat="43.36395" lon="5.98861">
        <ele>750</ele>
        <time>2019-12-17T09:39:46.000Z</time>
      </trkpt>
      <trkpt lat="43.36396" lon="5.9886">
        <ele>750</ele>
        <time>2019-12-17T09:39:47.000Z</time>
      </trkpt>
      <trkpt lat="43.36396" lon="5.9886">
        <ele>751</ele>
        <time>2019-12-17T09:39:48.000Z</time>
      </trkpt>
      <trkpt lat="43.36397" lon="5.98859">
        <ele>751</ele>
        <time>2019-12-17T09:39:49.000Z</time>
      </trkpt>
      <trkpt lat="43.36398" lon="5.98859">
        <ele>751</ele>
        <time>2019-12-17T09:39:50.000Z</time>
      </trkpt>
      <trkpt lat="43.36398" lon="5.98859">
        <ele>751</ele>
        <time>2019-12-17T09:39:51.000Z</time>
      </trkpt>
      <trkpt lat="43.36399" lon="5.98858">
        <ele>751</ele>
        <time>2019-12-17T09:39:52.000Z</time>
      </trkpt>
      <trkpt lat="43.364" lon="5.98858">
        <ele>751</ele>
        <time>2019-12-17T09:39:53.000Z</time>
      </trkpt>
      <trkpt lat="43.364" lon="5.98857">
        <ele>751</ele>
        <time>2019-12-17T09:39:54.000Z</time>
      </trkpt>
      <trkpt lat="43.36401" lon="5.98856">
        <ele>751</ele>
        <time>2019-12-17T09:39:55.000Z</time>
      </trkpt>
      <trkpt lat="43.36401" lon="5.98855">
        <ele>751</ele>
        <time>2019-12-17T09:39:56.000Z</time>
      </trkpt>
      <trkpt lat="43.36401" lon="5.98854">
        <ele>751</ele>
        <time>2019-12-17T09:39:57.000Z</time>
      </trkpt>
      <trkpt lat="43.36402" lon="5.98853">
        <ele>751</ele>
        <time>2019-12-17T09:39:58.000Z</time>
      </trkpt>
      <trkpt lat="43.36402" lon="5.98853">
        <ele>751</ele>
        <time>2019-12-17T09:39:59.000Z</time>
      </trkpt>
      <trkpt lat="43.36403" lon="5.98852">
        <ele>752</ele>
        <time>2019-12-17T09:40:00.000Z</time>
      </trkpt>
      <trkpt lat="43.36404" lon="5.98851">
        <ele>752</ele>
        <time>2019-12-17T09:40:01.000Z</time>
      </trkpt>
      <trkpt lat="43.36404" lon="5.9885">
        <ele>752</ele>
        <time>2019-12-17T09:40:02.000Z</time>
      </trkpt>
      <trkpt lat="43.36404" lon="5.98849">
        <ele>752</ele>
        <time>2019-12-17T09:40:03.000Z</time>
      </trkpt>
      <trkpt lat="43.36405" lon="5.98848">
        <ele>752</ele>
        <time>2019-12-17T09:40:04.000Z</time>
      </trkpt>
      <trkpt lat="43.36406" lon="5.98847">
        <ele>752</ele>
        <time>2019-12-17T09:40:05.000Z</time>
      </trkpt>
      <trkpt lat="43.36407" lon="5.98846">
        <ele>752</ele>
        <time>2019-12-17T09:40:06.000Z</time>
      </trkpt>
      <trkpt lat="43.36408" lon="5.98846">
        <ele>752</ele>
        <time>2019-12-17T09:40:07.000Z</time>
      </trkpt>
      <trkpt lat="43.36409" lon="5.98845">
        <ele>752</ele>
        <time>2019-12-17T09:40:08.000Z</time>
      </trkpt>
      <trkpt lat="43.3641" lon="5.98845">
        <ele>752</ele>
        <time>2019-12-17T09:40:09.000Z</time>
      </trkpt>
      <trkpt lat="43.3641" lon="5.98844">
        <ele>752</ele>
        <time>2019-12-17T09:40:10.000Z</time>
      </trkpt>
      <trkpt lat="43.36411" lon="5.98843">
        <ele>752</ele>
        <time>2019-12-17T09:40:11.000Z</time>
      </trkpt>
      <trkpt lat="43.36412" lon="5.98843">
        <ele>752</ele>
        <time>2019-12-17T09:40:12.000Z</time>
      </trkpt>
      <trkpt lat="43.36413" lon="5.98843">
        <ele>752</ele>
        <time>2019-12-17T09:40:13.000Z</time>
      </trkpt>
      <trkpt lat="43.36414" lon="5.98843">
        <ele>752</ele>
        <time>2019-12-17T09:40:14.000Z</time>
      </trkpt>
      <trkpt lat="43.36414" lon="5.98843">
        <ele>752</ele>
        <time>2019-12-17T09:40:15.000Z</time>
      </trkpt>
      <trkpt lat="43.36415" lon="5.98842">
        <ele>752</ele>
        <time>2019-12-17T09:40:16.000Z</time>
      </trkpt>
      <trkpt lat="43.36415" lon="5.98842">
        <ele>752</ele>
        <time>2019-12-17T09:40:17.000Z</time>
      </trkpt>
      <trkpt lat="43.36416" lon="5.98842">
        <ele>752</ele>
        <time>2019-12-17T09:40:18.000Z</time>
      </trkpt>
      <trkpt lat="43.36417" lon="5.98842">
        <ele>752</ele>
        <time>2019-12-17T09:40:19.000Z</time>
      </trkpt>
      <trkpt lat="43.36418" lon="5.98842">
        <ele>752</ele>
        <time>2019-12-17T09:40:20.000Z</time>
      </trkpt>
      <trkpt lat="43.36419" lon="5.98842">
        <ele>752</ele>
        <time>2019-12-17T09:40:21.000Z</time>
      </trkpt>
      <trkpt lat="43.36419" lon="5.98843">
        <ele>752</ele>
        <time>2019-12-17T09:40:22.000Z</time>
      </trkpt>
      <trkpt lat="43.3642" lon="5.98843">
        <ele>751</ele>
        <time>2019-12-17T09:40:23.000Z</time>
      </trkpt>
      <trkpt lat="43.36421" lon="5.98843">
        <ele>751</ele>
        <time>2019-12-17T09:40:24.000Z</time>
      </trkpt>
      <trkpt lat="43.36422" lon="5.98843">
        <ele>751</ele>
        <time>2019-12-17T09:40:25.000Z</time>
      </trkpt>
      <trkpt lat="43.36422" lon="5.98843">
        <ele>752</ele>
        <time>2019-12-17T09:40:26.000Z</time>
      </trkpt>
      <trkpt lat="43.36423" lon="5.98842">
        <ele>752</ele>
        <time>2019-12-17T09:40:27.000Z</time>
      </trkpt>
      <trkpt lat="43.36424" lon="5.98842">
        <ele>752</ele>
        <time>2019-12-17T09:40:28.000Z</time>
      </trkpt>
      <trkpt lat="43.36424" lon="5.98842">
        <ele>752</ele>
        <time>2019-12-17T09:40:29.000Z</time>
      </trkpt>
      <trkpt lat="43.36425" lon="5.98841">
        <ele>752</ele>
        <time>2019-12-17T09:40:30.000Z</time>
      </trkpt>
      <trkpt lat="43.36426" lon="5.98841">
        <ele>752</ele>
        <time>2019-12-17T09:40:31.000Z</time>
      </trkpt>
      <trkpt lat="43.36427" lon="5.98841">
        <ele>752</ele>
        <time>2019-12-17T09:40:32.000Z</time>
      </trkpt>
      <trkpt lat="43.36427" lon="5.9884">
        <ele>752</ele>
        <time>2019-12-17T09:40:33.000Z</time>
      </trkpt>
      <trkpt lat="43.36428" lon="5.9884">
        <ele>752</ele>
        <time>2019-12-17T09:40:34.000Z</time>
      </trkpt>
      <trkpt lat="43.36429" lon="5.98839">
        <ele>752</ele>
        <time>2019-12-17T09:40:35.000Z</time>
      </trkpt>
      <trkpt lat="43.36429" lon="5.98839">
        <ele>752</ele>
        <time>2019-12-17T09:40:36.000Z</time>
      </trkpt>
      <trkpt lat="43.3643" lon="5.98838">
        <ele>752</ele>
        <time>2019-12-17T09:40:37.000Z</time>
      </trkpt>
      <trkpt lat="43.36431" lon="5.98838">
        <ele>752</ele>
        <time>2019-12-17T09:40:38.000Z</time>
      </trkpt>
      <trkpt lat="43.36431" lon="5.98837">
        <ele>752</ele>
        <time>2019-12-17T09:40:39.000Z</time>
      </trkpt>
      <trkpt lat="43.36432" lon="5.98836">
        <ele>752</ele>
        <time>2019-12-17T09:40:40.000Z</time>
      </trkpt>
      <trkpt lat="43.36432" lon="5.98835">
        <ele>753</ele>
        <time>2019-12-17T09:40:41.000Z</time>
      </trkpt>
      <trkpt lat="43.36433" lon="5.98834">
        <ele>753</ele>
        <time>2019-12-17T09:40:42.000Z</time>
      </trkpt>
      <trkpt lat="43.36434" lon="5.98833">
        <ele>753</ele>
        <time>2019-12-17T09:40:43.000Z</time>
      </trkpt>
      <trkpt lat="43.36434" lon="5.98833">
        <ele>753</ele>
        <time>2019-12-17T09:40:44.000Z</time>
      </trkpt>
      <trkpt lat="43.36435" lon="5.98832">
        <ele>753</ele>
        <time>2019-12-17T09:40:45.000Z</time>
      </trkpt>
      <trkpt lat="43.36435" lon="5.98831">
        <ele>753</ele>
        <time>2019-12-17T09:40:46.000Z</time>
      </trkpt>
      <trkpt lat="43.36435" lon="5.9883">
        <ele>753</ele>
        <time>2019-12-17T09:40:47.000Z</time>
      </trkpt>
      <trkpt lat="43.36436" lon="5.98829">
        <ele>754</ele>
        <time>2019-12-17T09:40:48.000Z</time>
      </trkpt>
      <trkpt lat="43.36437" lon="5.98828">
        <ele>754</ele>
        <time>2019-12-17T09:40:49.000Z</time>
      </trkpt>
      <trkpt lat="43.36437" lon="5.98827">
        <ele>754</ele>
        <time>2019-12-17T09:40:50.000Z</time>
      </trkpt>
      <trkpt lat="43.36437" lon="5.98826">
        <ele>754</ele>
        <time>2019-12-17T09:40:51.000Z</time>
      </trkpt>
      <trkpt lat="43.36437" lon="5.98825">
        <ele>754</ele>
        <time>2019-12-17T09:40:52.000Z</time>
      </trkpt>
      <trkpt lat="43.36437" lon="5.98824">
        <ele>754</ele>
        <time>2019-12-17T09:40:53.000Z</time>
      </trkpt>
      <trkpt lat="43.36437" lon="5.98822">
        <ele>754</ele>
        <time>2019-12-17T09:40:54.000Z</time>
      </trkpt>
      <trkpt lat="43.36437" lon="5.98821">
        <ele>755</ele>
        <time>2019-12-17T09:40:55.000Z</time>
      </trkpt>
      <trkpt lat="43.36437" lon="5.9882">
        <ele>755</ele>
        <time>2019-12-17T09:40:56.000Z</time>
      </trkpt>
      <trkpt lat="43.36437" lon="5.98819">
        <ele>755</ele>
        <time>2019-12-17T09:40:57.000Z</time>
      </trkpt>
      <trkpt lat="43.36437" lon="5.98817">
        <ele>755</ele>
        <time>2019-12-17T09:40:58.000Z</time>
      </trkpt>
      <trkpt lat="43.36437" lon="5.98816">
        <ele>755</ele>
        <time>2019-12-17T09:40:59.000Z</time>
      </trkpt>
      <trkpt lat="43.36437" lon="5.98815">
        <ele>755</ele>
        <time>2019-12-17T09:41:00.000Z</time>
      </trkpt>
      <trkpt lat="43.36436" lon="5.98814">
        <ele>755</ele>
        <time>2019-12-17T09:41:01.000Z</time>
      </trkpt>
      <trkpt lat="43.36436" lon="5.98813">
        <ele>755</ele>
        <time>2019-12-17T09:41:02.000Z</time>
      </trkpt>
      <trkpt lat="43.36436" lon="5.98812">
        <ele>755</ele>
        <time>2019-12-17T09:41:03.000Z</time>
      </trkpt>
      <trkpt lat="43.36436" lon="5.98811">
        <ele>755</ele>
        <time>2019-12-17T09:41:04.000Z</time>
      </trkpt>
      <trkpt lat="43.36435" lon="5.9881">
        <ele>756</ele>
        <time>2019-12-17T09:41:05.000Z</time>
      </trkpt>
      <trkpt lat="43.36435" lon="5.98808">
        <ele>756</ele>
        <time>2019-12-17T09:41:06.000Z</time>
      </trkpt>
      <trkpt lat="43.36436" lon="5.98806">
        <ele>756</ele>
        <time>2019-12-17T09:41:07.000Z</time>
      </trkpt>
      <trkpt lat="43.36436" lon="5.98805">
        <ele>756</ele>
        <time>2019-12-17T09:41:08.000Z</time>
      </trkpt>
      <trkpt lat="43.36436" lon="5.98804">
        <ele>756</ele>
        <time>2019-12-17T09:41:09.000Z</time>
      </trkpt>
      <trkpt lat="43.36436" lon="5.98803">
        <ele>756</ele>
        <time>2019-12-17T09:41:10.000Z</time>
      </trkpt>
      <trkpt lat="43.36436" lon="5.98803">
        <ele>756</ele>
        <time>2019-12-17T09:41:11.000Z</time>
      </trkpt>
      <trkpt lat="43.36437" lon="5.98802">
        <ele>756</ele>
        <time>2019-12-17T09:41:12.000Z</time>
      </trkpt>
      <trkpt lat="43.36437" lon="5.98801">
        <ele>756</ele>
        <time>2019-12-17T09:41:13.000Z</time>
      </trkpt>
      <trkpt lat="43.36437" lon="5.988">
        <ele>756</ele>
        <time>2019-12-17T09:41:14.000Z</time>
      </trkpt>
      <trkpt lat="43.36437" lon="5.98798">
        <ele>756</ele>
        <time>2019-12-17T09:41:15.000Z</time>
      </trkpt>
      <trkpt lat="43.36437" lon="5.98797">
        <ele>756</ele>
        <time>2019-12-17T09:41:16.000Z</time>
      </trkpt>
      <trkpt lat="43.36438" lon="5.98797">
        <ele>756</ele>
        <time>2019-12-17T09:41:17.000Z</time>
      </trkpt>
      <trkpt lat="43.36438" lon="5.98796">
        <ele>756</ele>
        <time>2019-12-17T09:41:18.000Z</time>
      </trkpt>
      <trkpt lat="43.36439" lon="5.98795">
        <ele>756</ele>
        <time>2019-12-17T09:41:19.000Z</time>
      </trkpt>
      <trkpt lat="43.36439" lon="5.98794">
        <ele>756</ele>
        <time>2019-12-17T09:41:20.000Z</time>
      </trkpt>
      <trkpt lat="43.36439" lon="5.98794">
        <ele>756</ele>
        <time>2019-12-17T09:41:21.000Z</time>
      </trkpt>
      <trkpt lat="43.36439" lon="5.98793">
        <ele>756</ele>
        <time>2019-12-17T09:41:22.000Z</time>
      </trkpt>
      <trkpt lat="43.36439" lon="5.98792">
        <ele>756</ele>
        <time>2019-12-17T09:41:23.000Z</time>
      </trkpt>
      <trkpt lat="43.3644" lon="5.98791">
        <ele>756</ele>
        <time>2019-12-17T09:41:24.000Z</time>
      </trkpt>
      <trkpt lat="43.3644" lon="5.9879">
        <ele>756</ele>
        <time>2019-12-17T09:41:25.000Z</time>
      </trkpt>
      <trkpt lat="43.3644" lon="5.9879">
        <ele>756</ele>
        <time>2019-12-17T09:41:26.000Z</time>
      </trkpt>
      <trkpt lat="43.3644" lon="5.98789">
        <ele>756</ele>
        <time>2019-12-17T09:41:27.000Z</time>
      </trkpt>
      <trkpt lat="43.3644" lon="5.98788">
        <ele>756</ele>
        <time>2019-12-17T09:41:28.000Z</time>
      </trkpt>
      <trkpt lat="43.3644" lon="5.98788">
        <ele>756</ele>
        <time>2019-12-17T09:41:29.000Z</time>
      </trkpt>
      <trkpt lat="43.3644" lon="5.98787">
        <ele>756</ele>
        <time>2019-12-17T09:41:30.000Z</time>
      </trkpt>
      <trkpt lat="43.3644" lon="5.98787">
        <ele>756</ele>
        <time>2019-12-17T09:41:31.000Z</time>
      </trkpt>
      <trkpt lat="43.3644" lon="5.98787">
        <ele>756</ele>
        <time>2019-12-17T09:41:32.000Z</time>
      </trkpt>
      <trkpt lat="43.3644" lon="5.98787">
        <ele>756</ele>
        <time>2019-12-17T09:41:33.000Z</time>
      </trkpt>
      <trkpt lat="43.3644" lon="5.98787">
        <ele>756</ele>
        <time>2019-12-17T09:41:34.000Z</time>
      </trkpt>
      <trkpt lat="43.3644" lon="5.98787">
        <ele>756</ele>
        <time>2019-12-17T09:41:35.000Z</time>
      </trkpt>
      <trkpt lat="43.3644" lon="5.98787">
        <ele>756</ele>
        <time>2019-12-17T09:41:36.000Z</time>
      </trkpt>
      <trkpt lat="43.3644" lon="5.98787">
        <ele>756</ele>
        <time>2019-12-17T09:41:37.000Z</time>
      </trkpt>
      <trkpt lat="43.3644" lon="5.98787">
        <ele>756</ele>
        <time>2019-12-17T09:41:38.000Z</time>
      </trkpt>
      <trkpt lat="43.3644" lon="5.98787">
        <ele>756</ele>
        <time>2019-12-17T09:41:39.000Z</time>
      </trkpt>
      <trkpt lat="43.3644" lon="5.98787">
        <ele>756</ele>
        <time>2019-12-17T09:41:40.000Z</time>
      </trkpt>
      <trkpt lat="43.3644" lon="5.98787">
        <ele>756</ele>
        <time>2019-12-17T09:41:41.000Z</time>
      </trkpt>
      <trkpt lat="43.3644" lon="5.98786">
        <ele>756</ele>
        <time>2019-12-17T09:41:42.000Z</time>
      </trkpt>
      <trkpt lat="43.3644" lon="5.98786">
        <ele>756</ele>
        <time>2019-12-17T09:41:43.000Z</time>
      </trkpt>
      <trkpt lat="43.3644" lon="5.98786">
        <ele>756</ele>
        <time>2019-12-17T09:41:44.000Z</time>
      </trkpt>
      <trkpt lat="43.3644" lon="5.98786">
        <ele>756</ele>
        <time>2019-12-17T09:41:45.000Z</time>
      </trkpt>
      <trkpt lat="43.3644" lon="5.98786">
        <ele>756</ele>
        <time>2019-12-17T09:41:46.000Z</time>
      </trkpt>
      <trkpt lat="43.3644" lon="5.98786">
        <ele>756</ele>
        <time>2019-12-17T09:41:47.000Z</time>
      </trkpt>
      <trkpt lat="43.3644" lon="5.98787">
        <ele>756</ele>
        <time>2019-12-17T09:41:48.000Z</time>
      </trkpt>
      <trkpt lat="43.3644" lon="5.98787">
        <ele>756</ele>
        <time>2019-12-17T09:41:49.000Z</time>
      </trkpt>
      <trkpt lat="43.3644" lon="5.98787">
        <ele>756</ele>
        <time>2019-12-17T09:41:50.000Z</time>
      </trkpt>
      <trkpt lat="43.3644" lon="5.98787">
        <ele>756</ele>
        <time>2019-12-17T09:41:51.000Z</time>
      </trkpt>
      <trkpt lat="43.3644" lon="5.98786">
        <ele>756</ele>
        <time>2019-12-17T09:41:52.000Z</time>
      </trkpt>
      <trkpt lat="43.36439" lon="5.98786">
        <ele>756</ele>
        <time>2019-12-17T09:41:53.000Z</time>
      </trkpt>
      <trkpt lat="43.36439" lon="5.98786">
        <ele>756</ele>
        <time>2019-12-17T09:41:54.000Z</time>
      </trkpt>
      <trkpt lat="43.36439" lon="5.98786">
        <ele>756</ele>
        <time>2019-12-17T09:41:55.000Z</time>
      </trkpt>
      <trkpt lat="43.3644" lon="5.98786">
        <ele>756</ele>
        <time>2019-12-17T09:41:56.000Z</time>
      </trkpt>
      <trkpt lat="43.3644" lon="5.98786">
        <ele>756</ele>
        <time>2019-12-17T09:41:57.000Z</time>
      </trkpt>
      <trkpt lat="43.36439" lon="5.98786">
        <ele>756</ele>
        <time>2019-12-17T09:41:58.000Z</time>
      </trkpt>
      <trkpt lat="43.36439" lon="5.98786">
        <ele>756</ele>
        <time>2019-12-17T09:41:59.000Z</time>
      </trkpt>
      <trkpt lat="43.36439" lon="5.98786">
        <ele>756</ele>
        <time>2019-12-17T09:42:00.000Z</time>
      </trkpt>
      <trkpt lat="43.36439" lon="5.98786">
        <ele>756</ele>
        <time>2019-12-17T09:42:01.000Z</time>
      </trkpt>
      <trkpt lat="43.36439" lon="5.98786">
        <ele>756</ele>
        <time>2019-12-17T09:42:02.000Z</time>
      </trkpt>
      <trkpt lat="43.36439" lon="5.98786">
        <ele>756</ele>
        <time>2019-12-17T09:42:03.000Z</time>
      </trkpt>
      <trkpt lat="43.36439" lon="5.98786">
        <ele>756</ele>
        <time>2019-12-17T09:42:04.000Z</time>
      </trkpt>
      <trkpt lat="43.3644" lon="5.98786">
        <ele>756</ele>
        <time>2019-12-17T09:42:05.000Z</time>
      </trkpt>
      <trkpt lat="43.3644" lon="5.98786">
        <ele>756</ele>
        <time>2019-12-17T09:42:06.000Z</time>
      </trkpt>
      <trkpt lat="43.3644" lon="5.98786">
        <ele>756</ele>
        <time>2019-12-17T09:42:07.000Z</time>
      </trkpt>
      <trkpt lat="43.3644" lon="5.98786">
        <ele>756</ele>
        <time>2019-12-17T09:42:08.000Z</time>
      </trkpt>
      <trkpt lat="43.3644" lon="5.98786">
        <ele>756</ele>
        <time>2019-12-17T09:42:09.000Z</time>
      </trkpt>
      <trkpt lat="43.3644" lon="5.98786">
        <ele>756</ele>
        <time>2019-12-17T09:42:10.000Z</time>
      </trkpt>
      <trkpt lat="43.3644" lon="5.98786">
        <ele>756</ele>
        <time>2019-12-17T09:42:11.000Z</time>
      </trkpt>
      <trkpt lat="43.3644" lon="5.98786">
        <ele>756</ele>
        <time>2019-12-17T09:42:12.000Z</time>
      </trkpt>
      <trkpt lat="43.3644" lon="5.98786">
        <ele>756</ele>
        <time>2019-12-17T09:42:13.000Z</time>
      </trkpt>
      <trkpt lat="43.3644" lon="5.98786">
        <ele>756</ele>
        <time>2019-12-17T09:42:14.000Z</time>
      </trkpt>
      <trkpt lat="43.3644" lon="5.98786">
        <ele>756</ele>
        <time>2019-12-17T09:42:15.000Z</time>
      </trkpt>
      <trkpt lat="43.3644" lon="5.98786">
        <ele>756</ele>
        <time>2019-12-17T09:42:16.000Z</time>
      </trkpt>
      <trkpt lat="43.3644" lon="5.98786">
        <ele>756</ele>
        <time>2019-12-17T09:42:17.000Z</time>
      </trkpt>
      <trkpt lat="43.3644" lon="5.98786">
        <ele>756</ele>
        <time>2019-12-17T09:42:18.000Z</time>
      </trkpt>
      <trkpt lat="43.36441" lon="5.98786">
        <ele>756</ele>
        <time>2019-12-17T09:42:19.000Z</time>
      </trkpt>
      <trkpt lat="43.36441" lon="5.98786">
        <ele>756</ele>
        <time>2019-12-17T09:42:20.000Z</time>
      </trkpt>
      <trkpt lat="43.36442" lon="5.98786">
        <ele>756</ele>
        <time>2019-12-17T09:42:21.000Z</time>
      </trkpt>
      <trkpt lat="43.36442" lon="5.98786">
        <ele>756</ele>
        <time>2019-12-17T09:42:22.000Z</time>
      </trkpt>
      <trkpt lat="43.36442" lon="5.98786">
        <ele>756</ele>
        <time>2019-12-17T09:42:23.000Z</time>
      </trkpt>
      <trkpt lat="43.36442" lon="5.98787">
        <ele>756</ele>
        <time>2019-12-17T09:42:24.000Z</time>
      </trkpt>
      <trkpt lat="43.36443" lon="5.98787">
        <ele>756</ele>
        <time>2019-12-17T09:42:25.000Z</time>
      </trkpt>
      <trkpt lat="43.36442" lon="5.98787">
        <ele>756</ele>
        <time>2019-12-17T09:42:26.000Z</time>
      </trkpt>
      <trkpt lat="43.36442" lon="5.98787">
        <ele>756</ele>
        <time>2019-12-17T09:42:27.000Z</time>
      </trkpt>
      <trkpt lat="43.36443" lon="5.98787">
        <ele>756</ele>
        <time>2019-12-17T09:42:28.000Z</time>
      </trkpt>
      <trkpt lat="43.36443" lon="5.98787">
        <ele>756</ele>
        <time>2019-12-17T09:42:29.000Z</time>
      </trkpt>
      <trkpt lat="43.36443" lon="5.98786">
        <ele>756</ele>
        <time>2019-12-17T09:42:30.000Z</time>
      </trkpt>
      <trkpt lat="43.36443" lon="5.98786">
        <ele>756</ele>
        <time>2019-12-17T09:42:31.000Z</time>
      </trkpt>
      <trkpt lat="43.36443" lon="5.98786">
        <ele>756</ele>
        <time>2019-12-17T09:42:32.000Z</time>
      </trkpt>
      <trkpt lat="43.36443" lon="5.98786">
        <ele>756</ele>
        <time>2019-12-17T09:42:33.000Z</time>
      </trkpt>
      <trkpt lat="43.36443" lon="5.98786">
        <ele>756</ele>
        <time>2019-12-17T09:42:34.000Z</time>
      </trkpt>
      <trkpt lat="43.36443" lon="5.98787">
        <ele>756</ele>
        <time>2019-12-17T09:42:35.000Z</time>
      </trkpt>
      <trkpt lat="43.36443" lon="5.98787">
        <ele>756</ele>
        <time>2019-12-17T09:42:36.000Z</time>
      </trkpt>
      <trkpt lat="43.36443" lon="5.98788">
        <ele>756</ele>
        <time>2019-12-17T09:42:37.000Z</time>
      </trkpt>
      <trkpt lat="43.36443" lon="5.98789">
        <ele>756</ele>
        <time>2019-12-17T09:42:38.000Z</time>
      </trkpt>
      <trkpt lat="43.36443" lon="5.9879">
        <ele>756</ele>
        <time>2019-12-17T09:42:39.000Z</time>
      </trkpt>
      <trkpt lat="43.36443" lon="5.98791">
        <ele>756</ele>
        <time>2019-12-17T09:42:40.000Z</time>
      </trkpt>
      <trkpt lat="43.36443" lon="5.98791">
        <ele>756</ele>
        <time>2019-12-17T09:42:41.000Z</time>
      </trkpt>
      <trkpt lat="43.36443" lon="5.98792">
        <ele>756</ele>
        <time>2019-12-17T09:42:42.000Z</time>
      </trkpt>
      <trkpt lat="43.36443" lon="5.98792">
        <ele>756</ele>
        <time>2019-12-17T09:42:43.000Z</time>
      </trkpt>
      <trkpt lat="43.36443" lon="5.98792">
        <ele>756</ele>
        <time>2019-12-17T09:42:44.000Z</time>
      </trkpt>
      <trkpt lat="43.36443" lon="5.98792">
        <ele>756</ele>
        <time>2019-12-17T09:42:45.000Z</time>
      </trkpt>
      <trkpt lat="43.36444" lon="5.98793">
        <ele>756</ele>
        <time>2019-12-17T09:42:46.000Z</time>
      </trkpt>
      <trkpt lat="43.36444" lon="5.98793">
        <ele>756</ele>
        <time>2019-12-17T09:42:47.000Z</time>
      </trkpt>
      <trkpt lat="43.36445" lon="5.98794">
        <ele>756</ele>
        <time>2019-12-17T09:42:48.000Z</time>
      </trkpt>
      <trkpt lat="43.36445" lon="5.98795">
        <ele>756</ele>
        <time>2019-12-17T09:42:49.000Z</time>
      </trkpt>
      <trkpt lat="43.36445" lon="5.98796">
        <ele>756</ele>
        <time>2019-12-17T09:42:50.000Z</time>
      </trkpt>
      <trkpt lat="43.36444" lon="5.98797">
        <ele>756</ele>
        <time>2019-12-17T09:42:51.000Z</time>
      </trkpt>
      <trkpt lat="43.36444" lon="5.98798">
        <ele>756</ele>
        <time>2019-12-17T09:42:52.000Z</time>
      </trkpt>
      <trkpt lat="43.36444" lon="5.98798">
        <ele>756</ele>
        <time>2019-12-17T09:42:53.000Z</time>
      </trkpt>
      <trkpt lat="43.36443" lon="5.98799">
        <ele>756</ele>
        <time>2019-12-17T09:42:54.000Z</time>
      </trkpt>
      <trkpt lat="43.36443" lon="5.988">
        <ele>756</ele>
        <time>2019-12-17T09:42:55.000Z</time>
      </trkpt>
      <trkpt lat="43.36444" lon="5.98801">
        <ele>755</ele>
        <time>2019-12-17T09:42:56.000Z</time>
      </trkpt>
      <trkpt lat="43.36444" lon="5.98802">
        <ele>755</ele>
        <time>2019-12-17T09:42:57.000Z</time>
      </trkpt>
      <trkpt lat="43.36445" lon="5.98802">
        <ele>755</ele>
        <time>2019-12-17T09:42:58.000Z</time>
      </trkpt>
      <trkpt lat="43.36445" lon="5.98802">
        <ele>755</ele>
        <time>2019-12-17T09:42:59.000Z</time>
      </trkpt>
      <trkpt lat="43.36446" lon="5.98802">
        <ele>756</ele>
        <time>2019-12-17T09:43:00.000Z</time>
      </trkpt>
      <trkpt lat="43.36447" lon="5.98803">
        <ele>756</ele>
        <time>2019-12-17T09:43:01.000Z</time>
      </trkpt>
      <trkpt lat="43.36448" lon="5.98804">
        <ele>756</ele>
        <time>2019-12-17T09:43:02.000Z</time>
      </trkpt>
      <trkpt lat="43.36448" lon="5.98805">
        <ele>756</ele>
        <time>2019-12-17T09:43:03.000Z</time>
      </trkpt>
      <trkpt lat="43.36448" lon="5.98805">
        <ele>756</ele>
        <time>2019-12-17T09:43:04.000Z</time>
      </trkpt>
      <trkpt lat="43.36449" lon="5.98806">
        <ele>756</ele>
        <time>2019-12-17T09:43:05.000Z</time>
      </trkpt>
      <trkpt lat="43.3645" lon="5.98806">
        <ele>756</ele>
        <time>2019-12-17T09:43:06.000Z</time>
      </trkpt>
      <trkpt lat="43.3645" lon="5.98807">
        <ele>756</ele>
        <time>2019-12-17T09:43:07.000Z</time>
      </trkpt>
      <trkpt lat="43.36451" lon="5.98808">
        <ele>756</ele>
        <time>2019-12-17T09:43:08.000Z</time>
      </trkpt>
      <trkpt lat="43.36452" lon="5.98809">
        <ele>756</ele>
        <time>2019-12-17T09:43:09.000Z</time>
      </trkpt>
      <trkpt lat="43.36452" lon="5.98809">
        <ele>756</ele>
        <time>2019-12-17T09:43:10.000Z</time>
      </trkpt>
      <trkpt lat="43.36453" lon="5.9881">
        <ele>756</ele>
        <time>2019-12-17T09:43:11.000Z</time>
      </trkpt>
      <trkpt lat="43.36454" lon="5.9881">
        <ele>757</ele>
        <time>2019-12-17T09:43:12.000Z</time>
      </trkpt>
      <trkpt lat="43.36455" lon="5.98811">
        <ele>757</ele>
        <time>2019-12-17T09:43:13.000Z</time>
      </trkpt>
      <trkpt lat="43.36456" lon="5.98811">
        <ele>757</ele>
        <time>2019-12-17T09:43:14.000Z</time>
      </trkpt>
      <trkpt lat="43.36456" lon="5.98812">
        <ele>757</ele>
        <time>2019-12-17T09:43:15.000Z</time>
      </trkpt>
      <trkpt lat="43.36456" lon="5.98812">
        <ele>757</ele>
        <time>2019-12-17T09:43:16.000Z</time>
      </trkpt>
      <trkpt lat="43.36456" lon="5.98812">
        <ele>757</ele>
        <time>2019-12-17T09:43:17.000Z</time>
      </trkpt>
      <trkpt lat="43.36457" lon="5.98813">
        <ele>758</ele>
        <time>2019-12-17T09:43:18.000Z</time>
      </trkpt>
      <trkpt lat="43.36458" lon="5.98813">
        <ele>758</ele>
        <time>2019-12-17T09:43:19.000Z</time>
      </trkpt>
      <trkpt lat="43.36458" lon="5.98813">
        <ele>758</ele>
        <time>2019-12-17T09:43:20.000Z</time>
      </trkpt>
      <trkpt lat="43.36459" lon="5.98814">
        <ele>758</ele>
        <time>2019-12-17T09:43:21.000Z</time>
      </trkpt>
      <trkpt lat="43.36459" lon="5.98814">
        <ele>759</ele>
        <time>2019-12-17T09:43:22.000Z</time>
      </trkpt>
      <trkpt lat="43.3646" lon="5.98815">
        <ele>759</ele>
        <time>2019-12-17T09:43:23.000Z</time>
      </trkpt>
      <trkpt lat="43.3646" lon="5.98816">
        <ele>759</ele>
        <time>2019-12-17T09:43:24.000Z</time>
      </trkpt>
      <trkpt lat="43.36461" lon="5.98816">
        <ele>759</ele>
        <time>2019-12-17T09:43:25.000Z</time>
      </trkpt>
      <trkpt lat="43.36461" lon="5.98817">
        <ele>759</ele>
        <time>2019-12-17T09:43:26.000Z</time>
      </trkpt>
      <trkpt lat="43.36462" lon="5.98818">
        <ele>759</ele>
        <time>2019-12-17T09:43:27.000Z</time>
      </trkpt>
      <trkpt lat="43.36462" lon="5.98818">
        <ele>759</ele>
        <time>2019-12-17T09:43:28.000Z</time>
      </trkpt>
      <trkpt lat="43.36463" lon="5.98818">
        <ele>759</ele>
        <time>2019-12-17T09:43:29.000Z</time>
      </trkpt>
      <trkpt lat="43.36464" lon="5.98818">
        <ele>759</ele>
        <time>2019-12-17T09:43:30.000Z</time>
      </trkpt>
      <trkpt lat="43.36464" lon="5.98819">
        <ele>759</ele>
        <time>2019-12-17T09:43:31.000Z</time>
      </trkpt>
      <trkpt lat="43.36465" lon="5.98818">
        <ele>759</ele>
        <time>2019-12-17T09:43:32.000Z</time>
      </trkpt>
      <trkpt lat="43.36465" lon="5.98818">
        <ele>759</ele>
        <time>2019-12-17T09:43:33.000Z</time>
      </trkpt>
      <trkpt lat="43.36466" lon="5.98818">
        <ele>760</ele>
        <time>2019-12-17T09:43:34.000Z</time>
      </trkpt>
      <trkpt lat="43.36466" lon="5.98818">
        <ele>760</ele>
        <time>2019-12-17T09:43:35.000Z</time>
      </trkpt>
      <trkpt lat="43.36467" lon="5.98817">
        <ele>760</ele>
        <time>2019-12-17T09:43:36.000Z</time>
      </trkpt>
      <trkpt lat="43.36467" lon="5.98816">
        <ele>760</ele>
        <time>2019-12-17T09:43:37.000Z</time>
      </trkpt>
      <trkpt lat="43.36468" lon="5.98816">
        <ele>760</ele>
        <time>2019-12-17T09:43:38.000Z</time>
      </trkpt>
      <trkpt lat="43.36468" lon="5.98815">
        <ele>760</ele>
        <time>2019-12-17T09:43:39.000Z</time>
      </trkpt>
      <trkpt lat="43.36469" lon="5.98815">
        <ele>761</ele>
        <time>2019-12-17T09:43:40.000Z</time>
      </trkpt>
      <trkpt lat="43.36469" lon="5.98814">
        <ele>761</ele>
        <time>2019-12-17T09:43:41.000Z</time>
      </trkpt>
      <trkpt lat="43.3647" lon="5.98814">
        <ele>761</ele>
        <time>2019-12-17T09:43:42.000Z</time>
      </trkpt>
      <trkpt lat="43.3647" lon="5.98814">
        <ele>761</ele>
        <time>2019-12-17T09:43:43.000Z</time>
      </trkpt>
      <trkpt lat="43.36471" lon="5.98814">
        <ele>761</ele>
        <time>2019-12-17T09:43:44.000Z</time>
      </trkpt>
      <trkpt lat="43.36472" lon="5.98813">
        <ele>761</ele>
        <time>2019-12-17T09:43:45.000Z</time>
      </trkpt>
      <trkpt lat="43.36472" lon="5.98813">
        <ele>761</ele>
        <time>2019-12-17T09:43:46.000Z</time>
      </trkpt>
      <trkpt lat="43.36472" lon="5.98813">
        <ele>761</ele>
        <time>2019-12-17T09:43:47.000Z</time>
      </trkpt>
      <trkpt lat="43.36473" lon="5.98813">
        <ele>761</ele>
        <time>2019-12-17T09:43:48.000Z</time>
      </trkpt>
      <trkpt lat="43.36474" lon="5.98813">
        <ele>761</ele>
        <time>2019-12-17T09:43:49.000Z</time>
      </trkpt>
      <trkpt lat="43.36474" lon="5.98813">
        <ele>762</ele>
        <time>2019-12-17T09:43:50.000Z</time>
      </trkpt>
      <trkpt lat="43.36475" lon="5.98812">
        <ele>762</ele>
        <time>2019-12-17T09:43:51.000Z</time>
      </trkpt>
      <trkpt lat="43.36476" lon="5.98812">
        <ele>762</ele>
        <time>2019-12-17T09:43:52.000Z</time>
      </trkpt>
      <trkpt lat="43.36476" lon="5.98812">
        <ele>762</ele>
        <time>2019-12-17T09:43:53.000Z</time>
      </trkpt>
      <trkpt lat="43.36477" lon="5.98812">
        <ele>762</ele>
        <time>2019-12-17T09:43:54.000Z</time>
      </trkpt>
      <trkpt lat="43.36477" lon="5.98811">
        <ele>762</ele>
        <time>2019-12-17T09:43:55.000Z</time>
      </trkpt>
      <trkpt lat="43.36477" lon="5.98811">
        <ele>762</ele>
        <time>2019-12-17T09:43:56.000Z</time>
      </trkpt>
      <trkpt lat="43.36477" lon="5.98811">
        <ele>762</ele>
        <time>2019-12-17T09:43:57.000Z</time>
      </trkpt>
      <trkpt lat="43.36477" lon="5.98811">
        <ele>762</ele>
        <time>2019-12-17T09:43:58.000Z</time>
      </trkpt>
      <trkpt lat="43.36478" lon="5.98811">
        <ele>762</ele>
        <time>2019-12-17T09:43:59.000Z</time>
      </trkpt>
      <trkpt lat="43.36477" lon="5.98811">
        <ele>762</ele>
        <time>2019-12-17T09:44:00.000Z</time>
      </trkpt>
      <trkpt lat="43.36478" lon="5.98811">
        <ele>762</ele>
        <time>2019-12-17T09:44:01.000Z</time>
      </trkpt>
      <trkpt lat="43.36478" lon="5.9881">
        <ele>762</ele>
        <time>2019-12-17T09:44:02.000Z</time>
      </trkpt>
      <trkpt lat="43.36479" lon="5.9881">
        <ele>762</ele>
        <time>2019-12-17T09:44:03.000Z</time>
      </trkpt>
      <trkpt lat="43.3648" lon="5.98809">
        <ele>763</ele>
        <time>2019-12-17T09:44:04.000Z</time>
      </trkpt>
      <trkpt lat="43.3648" lon="5.98809">
        <ele>763</ele>
        <time>2019-12-17T09:44:05.000Z</time>
      </trkpt>
      <trkpt lat="43.36481" lon="5.98809">
        <ele>763</ele>
        <time>2019-12-17T09:44:06.000Z</time>
      </trkpt>
      <trkpt lat="43.36482" lon="5.98809">
        <ele>763</ele>
        <time>2019-12-17T09:44:07.000Z</time>
      </trkpt>
      <trkpt lat="43.36483" lon="5.98808">
        <ele>763</ele>
        <time>2019-12-17T09:44:08.000Z</time>
      </trkpt>
      <trkpt lat="43.36483" lon="5.98808">
        <ele>763</ele>
        <time>2019-12-17T09:44:09.000Z</time>
      </trkpt>
      <trkpt lat="43.36484" lon="5.98808">
        <ele>763</ele>
        <time>2019-12-17T09:44:10.000Z</time>
      </trkpt>
      <trkpt lat="43.36484" lon="5.98807">
        <ele>763</ele>
        <time>2019-12-17T09:44:11.000Z</time>
      </trkpt>
      <trkpt lat="43.36485" lon="5.98807">
        <ele>763</ele>
        <time>2019-12-17T09:44:12.000Z</time>
      </trkpt>
      <trkpt lat="43.36485" lon="5.98807">
        <ele>763</ele>
        <time>2019-12-17T09:44:13.000Z</time>
      </trkpt>
      <trkpt lat="43.36485" lon="5.98807">
        <ele>764</ele>
        <time>2019-12-17T09:44:14.000Z</time>
      </trkpt>
      <trkpt lat="43.36485" lon="5.98808">
        <ele>764</ele>
        <time>2019-12-17T09:44:15.000Z</time>
      </trkpt>
      <trkpt lat="43.36485" lon="5.98808">
        <ele>764</ele>
        <time>2019-12-17T09:44:16.000Z</time>
      </trkpt>
      <trkpt lat="43.36485" lon="5.98808">
        <ele>764</ele>
        <time>2019-12-17T09:44:17.000Z</time>
      </trkpt>
      <trkpt lat="43.36486" lon="5.98808">
        <ele>764</ele>
        <time>2019-12-17T09:44:18.000Z</time>
      </trkpt>
      <trkpt lat="43.36487" lon="5.98807">
        <ele>764</ele>
        <time>2019-12-17T09:44:19.000Z</time>
      </trkpt>
      <trkpt lat="43.36487" lon="5.98807">
        <ele>764</ele>
        <time>2019-12-17T09:44:20.000Z</time>
      </trkpt>
      <trkpt lat="43.36488" lon="5.98807">
        <ele>764</ele>
        <time>2019-12-17T09:44:21.000Z</time>
      </trkpt>
      <trkpt lat="43.36488" lon="5.98807">
        <ele>764</ele>
        <time>2019-12-17T09:44:22.000Z</time>
      </trkpt>
      <trkpt lat="43.36489" lon="5.98807">
        <ele>764</ele>
        <time>2019-12-17T09:44:23.000Z</time>
      </trkpt>
      <trkpt lat="43.36489" lon="5.98807">
        <ele>765</ele>
        <time>2019-12-17T09:44:24.000Z</time>
      </trkpt>
      <trkpt lat="43.3649" lon="5.98807">
        <ele>765</ele>
        <time>2019-12-17T09:44:25.000Z</time>
      </trkpt>
      <trkpt lat="43.3649" lon="5.98807">
        <ele>765</ele>
        <time>2019-12-17T09:44:26.000Z</time>
      </trkpt>
      <trkpt lat="43.3649" lon="5.98807">
        <ele>765</ele>
        <time>2019-12-17T09:44:27.000Z</time>
      </trkpt>
      <trkpt lat="43.36491" lon="5.98806">
        <ele>765</ele>
        <time>2019-12-17T09:44:28.000Z</time>
      </trkpt>
      <trkpt lat="43.36491" lon="5.98806">
        <ele>765</ele>
        <time>2019-12-17T09:44:29.000Z</time>
      </trkpt>
      <trkpt lat="43.36492" lon="5.98806">
        <ele>766</ele>
        <time>2019-12-17T09:44:30.000Z</time>
      </trkpt>
      <trkpt lat="43.36492" lon="5.98806">
        <ele>766</ele>
        <time>2019-12-17T09:44:31.000Z</time>
      </trkpt>
      <trkpt lat="43.36493" lon="5.98805">
        <ele>766</ele>
        <time>2019-12-17T09:44:32.000Z</time>
      </trkpt>
      <trkpt lat="43.36493" lon="5.98805">
        <ele>766</ele>
        <time>2019-12-17T09:44:33.000Z</time>
      </trkpt>
      <trkpt lat="43.36494" lon="5.98805">
        <ele>766</ele>
        <time>2019-12-17T09:44:34.000Z</time>
      </trkpt>
      <trkpt lat="43.36495" lon="5.98805">
        <ele>766</ele>
        <time>2019-12-17T09:44:35.000Z</time>
      </trkpt>
      <trkpt lat="43.36496" lon="5.98805">
        <ele>766</ele>
        <time>2019-12-17T09:44:36.000Z</time>
      </trkpt>
      <trkpt lat="43.36496" lon="5.98805">
        <ele>767</ele>
        <time>2019-12-17T09:44:37.000Z</time>
      </trkpt>
      <trkpt lat="43.36497" lon="5.98805">
        <ele>767</ele>
        <time>2019-12-17T09:44:38.000Z</time>
      </trkpt>
      <trkpt lat="43.36497" lon="5.98805">
        <ele>767</ele>
        <time>2019-12-17T09:44:39.000Z</time>
      </trkpt>
      <trkpt lat="43.36497" lon="5.98805">
        <ele>767</ele>
        <time>2019-12-17T09:44:40.000Z</time>
      </trkpt>
      <trkpt lat="43.36498" lon="5.98805">
        <ele>768</ele>
        <time>2019-12-17T09:44:41.000Z</time>
      </trkpt>
      <trkpt lat="43.36498" lon="5.98805">
        <ele>768</ele>
        <time>2019-12-17T09:44:42.000Z</time>
      </trkpt>
      <trkpt lat="43.36499" lon="5.98805">
        <ele>768</ele>
        <time>2019-12-17T09:44:43.000Z</time>
      </trkpt>
      <trkpt lat="43.36499" lon="5.98805">
        <ele>768</ele>
        <time>2019-12-17T09:44:44.000Z</time>
      </trkpt>
      <trkpt lat="43.36499" lon="5.98805">
        <ele>768</ele>
        <time>2019-12-17T09:44:45.000Z</time>
      </trkpt>
      <trkpt lat="43.36499" lon="5.98805">
        <ele>768</ele>
        <time>2019-12-17T09:44:46.000Z</time>
      </trkpt>
      <trkpt lat="43.36499" lon="5.98805">
        <ele>769</ele>
        <time>2019-12-17T09:44:47.000Z</time>
      </trkpt>
      <trkpt lat="43.36499" lon="5.98805">
        <ele>769</ele>
        <time>2019-12-17T09:44:48.000Z</time>
      </trkpt>
      <trkpt lat="43.36499" lon="5.98805">
        <ele>769</ele>
        <time>2019-12-17T09:44:49.000Z</time>
      </trkpt>
      <trkpt lat="43.36499" lon="5.98805">
        <ele>769</ele>
        <time>2019-12-17T09:44:50.000Z</time>
      </trkpt>
      <trkpt lat="43.365" lon="5.98805">
        <ele>769</ele>
        <time>2019-12-17T09:44:51.000Z</time>
      </trkpt>
      <trkpt lat="43.36501" lon="5.98805">
        <ele>769</ele>
        <time>2019-12-17T09:44:52.000Z</time>
      </trkpt>
      <trkpt lat="43.36501" lon="5.98804">
        <ele>769</ele>
        <time>2019-12-17T09:44:53.000Z</time>
      </trkpt>
      <trkpt lat="43.36502" lon="5.98805">
        <ele>769</ele>
        <time>2019-12-17T09:44:54.000Z</time>
      </trkpt>
      <trkpt lat="43.36502" lon="5.98804">
        <ele>770</ele>
        <time>2019-12-17T09:44:55.000Z</time>
      </trkpt>
      <trkpt lat="43.36502" lon="5.98804">
        <ele>770</ele>
        <time>2019-12-17T09:44:56.000Z</time>
      </trkpt>
      <trkpt lat="43.36502" lon="5.98804">
        <ele>770</ele>
        <time>2019-12-17T09:44:57.000Z</time>
      </trkpt>
      <trkpt lat="43.36503" lon="5.98804">
        <ele>770</ele>
        <time>2019-12-17T09:44:58.000Z</time>
      </trkpt>
      <trkpt lat="43.36503" lon="5.98804">
        <ele>770</ele>
        <time>2019-12-17T09:44:59.000Z</time>
      </trkpt>
      <trkpt lat="43.36504" lon="5.98803">
        <ele>770</ele>
        <time>2019-12-17T09:45:00.000Z</time>
      </trkpt>
      <trkpt lat="43.36504" lon="5.98803">
        <ele>770</ele>
        <time>2019-12-17T09:45:01.000Z</time>
      </trkpt>
      <trkpt lat="43.36504" lon="5.98803">
        <ele>770</ele>
        <time>2019-12-17T09:45:02.000Z</time>
      </trkpt>
      <trkpt lat="43.36504" lon="5.98803">
        <ele>770</ele>
        <time>2019-12-17T09:45:03.000Z</time>
      </trkpt>
      <trkpt lat="43.36505" lon="5.98803">
        <ele>770</ele>
        <time>2019-12-17T09:45:04.000Z</time>
      </trkpt>
      <trkpt lat="43.36505" lon="5.98803">
        <ele>770</ele>
        <time>2019-12-17T09:45:05.000Z</time>
      </trkpt>
      <trkpt lat="43.36506" lon="5.98803">
        <ele>770</ele>
        <time>2019-12-17T09:45:06.000Z</time>
      </trkpt>
      <trkpt lat="43.36506" lon="5.98803">
        <ele>770</ele>
        <time>2019-12-17T09:45:07.000Z</time>
      </trkpt>
      <trkpt lat="43.36506" lon="5.98803">
        <ele>771</ele>
        <time>2019-12-17T09:45:08.000Z</time>
      </trkpt>
      <trkpt lat="43.36506" lon="5.98803">
        <ele>771</ele>
        <time>2019-12-17T09:45:09.000Z</time>
      </trkpt>
      <trkpt lat="43.36506" lon="5.98803">
        <ele>771</ele>
        <time>2019-12-17T09:45:10.000Z</time>
      </trkpt>
      <trkpt lat="43.36506" lon="5.98803">
        <ele>771</ele>
        <time>2019-12-17T09:45:11.000Z</time>
      </trkpt>
      <trkpt lat="43.36506" lon="5.98803">
        <ele>771</ele>
        <time>2019-12-17T09:45:12.000Z</time>
      </trkpt>
      <trkpt lat="43.36506" lon="5.98803">
        <ele>771</ele>
        <time>2019-12-17T09:45:13.000Z</time>
      </trkpt>
      <trkpt lat="43.36506" lon="5.98803">
        <ele>771</ele>
        <time>2019-12-17T09:45:14.000Z</time>
      </trkpt>
      <trkpt lat="43.36506" lon="5.98803">
        <ele>771</ele>
        <time>2019-12-17T09:45:15.000Z</time>
      </trkpt>
      <trkpt lat="43.36506" lon="5.98803">
        <ele>771</ele>
        <time>2019-12-17T09:45:16.000Z</time>
      </trkpt>
      <trkpt lat="43.36506" lon="5.98803">
        <ele>771</ele>
        <time>2019-12-17T09:45:17.000Z</time>
      </trkpt>
      <trkpt lat="43.36506" lon="5.98802">
        <ele>771</ele>
        <time>2019-12-17T09:45:18.000Z</time>
      </trkpt>
      <trkpt lat="43.36506" lon="5.98802">
        <ele>771</ele>
        <time>2019-12-17T09:45:19.000Z</time>
      </trkpt>
      <trkpt lat="43.36507" lon="5.98802">
        <ele>771</ele>
        <time>2019-12-17T09:45:20.000Z</time>
      </trkpt>
      <trkpt lat="43.36507" lon="5.98802">
        <ele>771</ele>
        <time>2019-12-17T09:45:21.000Z</time>
      </trkpt>
      <trkpt lat="43.36508" lon="5.98802">
        <ele>772</ele>
        <time>2019-12-17T09:45:22.000Z</time>
      </trkpt>
      <trkpt lat="43.36508" lon="5.98801">
        <ele>772</ele>
        <time>2019-12-17T09:45:23.000Z</time>
      </trkpt>
      <trkpt lat="43.36508" lon="5.98801">
        <ele>772</ele>
        <time>2019-12-17T09:45:24.000Z</time>
      </trkpt>
      <trkpt lat="43.36508" lon="5.98801">
        <ele>772</ele>
        <time>2019-12-17T09:45:25.000Z</time>
      </trkpt>
      <trkpt lat="43.36508" lon="5.98801">
        <ele>772</ele>
        <time>2019-12-17T09:45:26.000Z</time>
      </trkpt>
      <trkpt lat="43.36508" lon="5.98801">
        <ele>772</ele>
        <time>2019-12-17T09:45:27.000Z</time>
      </trkpt>
      <trkpt lat="43.36508" lon="5.98801">
        <ele>772</ele>
        <time>2019-12-17T09:45:28.000Z</time>
      </trkpt>
      <trkpt lat="43.36508" lon="5.98801">
        <ele>772</ele>
        <time>2019-12-17T09:45:29.000Z</time>
      </trkpt>
      <trkpt lat="43.36508" lon="5.98801">
        <ele>772</ele>
        <time>2019-12-17T09:45:30.000Z</time>
      </trkpt>
      <trkpt lat="43.36508" lon="5.98801">
        <ele>772</ele>
        <time>2019-12-17T09:45:31.000Z</time>
      </trkpt>
      <trkpt lat="43.36508" lon="5.98801">
        <ele>772</ele>
        <time>2019-12-17T09:45:32.000Z</time>
      </trkpt>
      <trkpt lat="43.36508" lon="5.98801">
        <ele>772</ele>
        <time>2019-12-17T09:45:33.000Z</time>
      </trkpt>
      <trkpt lat="43.36508" lon="5.98801">
        <ele>772</ele>
        <time>2019-12-17T09:45:34.000Z</time>
      </trkpt>
      <trkpt lat="43.36508" lon="5.98801">
        <ele>772</ele>
        <time>2019-12-17T09:45:35.000Z</time>
      </trkpt>
      <trkpt lat="43.36508" lon="5.988">
        <ele>772</ele>
        <time>2019-12-17T09:45:36.000Z</time>
      </trkpt>
      <trkpt lat="43.36508" lon="5.988">
        <ele>773</ele>
        <time>2019-12-17T09:45:37.000Z</time>
      </trkpt>
      <trkpt lat="43.36508" lon="5.988">
        <ele>773</ele>
        <time>2019-12-17T09:45:38.000Z</time>
      </trkpt>
      <trkpt lat="43.36508" lon="5.988">
        <ele>773</ele>
        <time>2019-12-17T09:45:39.000Z</time>
      </trkpt>
      <trkpt lat="43.36508" lon="5.988">
        <ele>773</ele>
        <time>2019-12-17T09:45:40.000Z</time>
      </trkpt>
      <trkpt lat="43.36508" lon="5.988">
        <ele>773</ele>
        <time>2019-12-17T09:45:41.000Z</time>
      </trkpt>
      <trkpt lat="43.36508" lon="5.988">
        <ele>773</ele>
        <time>2019-12-17T09:45:42.000Z</time>
      </trkpt>
      <trkpt lat="43.36508" lon="5.98801">
        <ele>773</ele>
        <time>2019-12-17T09:45:43.000Z</time>
      </trkpt>
      <trkpt lat="43.36508" lon="5.98801">
        <ele>773</ele>
        <time>2019-12-17T09:45:44.000Z</time>
      </trkpt>
      <trkpt lat="43.36508" lon="5.98801">
        <ele>773</ele>
        <time>2019-12-17T09:45:45.000Z</time>
      </trkpt>
      <trkpt lat="43.36508" lon="5.988">
        <ele>773</ele>
        <time>2019-12-17T09:45:46.000Z</time>
      </trkpt>
      <trkpt lat="43.36508" lon="5.98801">
        <ele>773</ele>
        <time>2019-12-17T09:45:47.000Z</time>
      </trkpt>
      <trkpt lat="43.36508" lon="5.98801">
        <ele>773</ele>
        <time>2019-12-17T09:45:48.000Z</time>
      </trkpt>
      <trkpt lat="43.36508" lon="5.98801">
        <ele>773</ele>
        <time>2019-12-17T09:45:49.000Z</time>
      </trkpt>
      <trkpt lat="43.36508" lon="5.98801">
        <ele>773</ele>
        <time>2019-12-17T09:45:50.000Z</time>
      </trkpt>
      <trkpt lat="43.36508" lon="5.98801">
        <ele>773</ele>
        <time>2019-12-17T09:45:51.000Z</time>
      </trkpt>
      <trkpt lat="43.36508" lon="5.98801">
        <ele>773</ele>
        <time>2019-12-17T09:45:52.000Z</time>
      </trkpt>
      <trkpt lat="43.36508" lon="5.98801">
        <ele>773</ele>
        <time>2019-12-17T09:45:53.000Z</time>
      </trkpt>
      <trkpt lat="43.36508" lon="5.98801">
        <ele>773</ele>
        <time>2019-12-17T09:45:54.000Z</time>
      </trkpt>
      <trkpt lat="43.36508" lon="5.98801">
        <ele>773</ele>
        <time>2019-12-17T09:45:55.000Z</time>
      </trkpt>
      <trkpt lat="43.36507" lon="5.98801">
        <ele>773</ele>
        <time>2019-12-17T09:45:56.000Z</time>
      </trkpt>
      <trkpt lat="43.36507" lon="5.98801">
        <ele>773</ele>
        <time>2019-12-17T09:45:57.000Z</time>
      </trkpt>
      <trkpt lat="43.36507" lon="5.98801">
        <ele>774</ele>
        <time>2019-12-17T09:45:58.000Z</time>
      </trkpt>
      <trkpt lat="43.36507" lon="5.98801">
        <ele>774</ele>
        <time>2019-12-17T09:45:59.000Z</time>
      </trkpt>
      <trkpt lat="43.36507" lon="5.98801">
        <ele>774</ele>
        <time>2019-12-17T09:46:00.000Z</time>
      </trkpt>
      <trkpt lat="43.36507" lon="5.98801">
        <ele>774</ele>
        <time>2019-12-17T09:46:01.000Z</time>
      </trkpt>
      <trkpt lat="43.36507" lon="5.98801">
        <ele>774</ele>
        <time>2019-12-17T09:46:02.000Z</time>
      </trkpt>
      <trkpt lat="43.36507" lon="5.98801">
        <ele>774</ele>
        <time>2019-12-17T09:46:03.000Z</time>
      </trkpt>
      <trkpt lat="43.36508" lon="5.98801">
        <ele>773</ele>
        <time>2019-12-17T09:46:04.000Z</time>
      </trkpt>
      <trkpt lat="43.36508" lon="5.98801">
        <ele>773</ele>
        <time>2019-12-17T09:46:05.000Z</time>
      </trkpt>
      <trkpt lat="43.36508" lon="5.98801">
        <ele>773</ele>
        <time>2019-12-17T09:46:06.000Z</time>
      </trkpt>
      <trkpt lat="43.36508" lon="5.98801">
        <ele>773</ele>
        <time>2019-12-17T09:46:07.000Z</time>
      </trkpt>
      <trkpt lat="43.36507" lon="5.98801">
        <ele>773</ele>
        <time>2019-12-17T09:46:08.000Z</time>
      </trkpt>
      <trkpt lat="43.36507" lon="5.98801">
        <ele>773</ele>
        <time>2019-12-17T09:46:09.000Z</time>
      </trkpt>
      <trkpt lat="43.36507" lon="5.98801">
        <ele>773</ele>
        <time>2019-12-17T09:46:10.000Z</time>
      </trkpt>
      <trkpt lat="43.36507" lon="5.98801">
        <ele>773</ele>
        <time>2019-12-17T09:46:11.000Z</time>
      </trkpt>
      <trkpt lat="43.36507" lon="5.98801">
        <ele>773</ele>
        <time>2019-12-17T09:46:12.000Z</time>
      </trkpt>
      <trkpt lat="43.36508" lon="5.98801">
        <ele>773</ele>
        <time>2019-12-17T09:46:13.000Z</time>
      </trkpt>
      <trkpt lat="43.36508" lon="5.98801">
        <ele>773</ele>
        <time>2019-12-17T09:46:14.000Z</time>
      </trkpt>
      <trkpt lat="43.36508" lon="5.988">
        <ele>773</ele>
        <time>2019-12-17T09:46:15.000Z</time>
      </trkpt>
      <trkpt lat="43.36508" lon="5.988">
        <ele>773</ele>
        <time>2019-12-17T09:46:16.000Z</time>
      </trkpt>
      <trkpt lat="43.36507" lon="5.98799">
        <ele>773</ele>
        <time>2019-12-17T09:46:17.000Z</time>
      </trkpt>
      <trkpt lat="43.36507" lon="5.98799">
        <ele>773</ele>
        <time>2019-12-17T09:46:18.000Z</time>
      </trkpt>
      <trkpt lat="43.36507" lon="5.98798">
        <ele>773</ele>
        <time>2019-12-17T09:46:19.000Z</time>
      </trkpt>
      <trkpt lat="43.36507" lon="5.98797">
        <ele>773</ele>
        <time>2019-12-17T09:46:20.000Z</time>
      </trkpt>
      <trkpt lat="43.36507" lon="5.98796">
        <ele>773</ele>
        <time>2019-12-17T09:46:21.000Z</time>
      </trkpt>
      <trkpt lat="43.36507" lon="5.98796">
        <ele>773</ele>
        <time>2019-12-17T09:46:22.000Z</time>
      </trkpt>
      <trkpt lat="43.36507" lon="5.98796">
        <ele>773</ele>
        <time>2019-12-17T09:46:23.000Z</time>
      </trkpt>
      <trkpt lat="43.36507" lon="5.98795">
        <ele>773</ele>
        <time>2019-12-17T09:46:24.000Z</time>
      </trkpt>
      <trkpt lat="43.36507" lon="5.98794">
        <ele>773</ele>
        <time>2019-12-17T09:46:25.000Z</time>
      </trkpt>
      <trkpt lat="43.36507" lon="5.98794">
        <ele>773</ele>
        <time>2019-12-17T09:46:26.000Z</time>
      </trkpt>
      <trkpt lat="43.36508" lon="5.98793">
        <ele>773</ele>
        <time>2019-12-17T09:46:27.000Z</time>
      </trkpt>
      <trkpt lat="43.36508" lon="5.98793">
        <ele>773</ele>
        <time>2019-12-17T09:46:28.000Z</time>
      </trkpt>
      <trkpt lat="43.36508" lon="5.98793">
        <ele>773</ele>
        <time>2019-12-17T09:46:29.000Z</time>
      </trkpt>
      <trkpt lat="43.36508" lon="5.98793">
        <ele>773</ele>
        <time>2019-12-17T09:46:30.000Z</time>
      </trkpt>
      <trkpt lat="43.36508" lon="5.98793">
        <ele>773</ele>
        <time>2019-12-17T09:46:31.000Z</time>
      </trkpt>
      <trkpt lat="43.36508" lon="5.98793">
        <ele>773</ele>
        <time>2019-12-17T09:46:32.000Z</time>
      </trkpt>
      <trkpt lat="43.36509" lon="5.98793">
        <ele>773</ele>
        <time>2019-12-17T09:46:33.000Z</time>
      </trkpt>
      <trkpt lat="43.36509" lon="5.98793">
        <ele>773</ele>
        <time>2019-12-17T09:46:34.000Z</time>
      </trkpt>
      <trkpt lat="43.36509" lon="5.98793">
        <ele>773</ele>
        <time>2019-12-17T09:46:35.000Z</time>
      </trkpt>
      <trkpt lat="43.36509" lon="5.98793">
        <ele>773</ele>
        <time>2019-12-17T09:46:36.000Z</time>
      </trkpt>
      <trkpt lat="43.36509" lon="5.98793">
        <ele>773</ele>
        <time>2019-12-17T09:46:37.000Z</time>
      </trkpt>
      <trkpt lat="43.36509" lon="5.98793">
        <ele>773</ele>
        <time>2019-12-17T09:46:38.000Z</time>
      </trkpt>
      <trkpt lat="43.36509" lon="5.98793">
        <ele>773</ele>
        <time>2019-12-17T09:46:39.000Z</time>
      </trkpt>
      <trkpt lat="43.36509" lon="5.98793">
        <ele>773</ele>
        <time>2019-12-17T09:46:40.000Z</time>
      </trkpt>
      <trkpt lat="43.36509" lon="5.98793">
        <ele>773</ele>
        <time>2019-12-17T09:46:41.000Z</time>
      </trkpt>
      <trkpt lat="43.36509" lon="5.98793">
        <ele>773</ele>
        <time>2019-12-17T09:46:42.000Z</time>
      </trkpt>
      <trkpt lat="43.36509" lon="5.98793">
        <ele>773</ele>
        <time>2019-12-17T09:46:43.000Z</time>
      </trkpt>
      <trkpt lat="43.36509" lon="5.98793">
        <ele>773</ele>
        <time>2019-12-17T09:46:44.000Z</time>
      </trkpt>
      <trkpt lat="43.36509" lon="5.98793">
        <ele>773</ele>
        <time>2019-12-17T09:46:45.000Z</time>
      </trkpt>
      <trkpt lat="43.36509" lon="5.98793">
        <ele>773</ele>
        <time>2019-12-17T09:46:46.000Z</time>
      </trkpt>
      <trkpt lat="43.36509" lon="5.98793">
        <ele>773</ele>
        <time>2019-12-17T09:46:47.000Z</time>
      </trkpt>
      <trkpt lat="43.36509" lon="5.98793">
        <ele>773</ele>
        <time>2019-12-17T09:46:48.000Z</time>
      </trkpt>
      <trkpt lat="43.36509" lon="5.98793">
        <ele>773</ele>
        <time>2019-12-17T09:46:49.000Z</time>
      </trkpt>
      <trkpt lat="43.36509" lon="5.98794">
        <ele>773</ele>
        <time>2019-12-17T09:46:50.000Z</time>
      </trkpt>
      <trkpt lat="43.36509" lon="5.98794">
        <ele>773</ele>
        <time>2019-12-17T09:46:51.000Z</time>
      </trkpt>
      <trkpt lat="43.36509" lon="5.98794">
        <ele>773</ele>
        <time>2019-12-17T09:46:52.000Z</time>
      </trkpt>
      <trkpt lat="43.36509" lon="5.98794">
        <ele>773</ele>
        <time>2019-12-17T09:46:53.000Z</time>
      </trkpt>
      <trkpt lat="43.36509" lon="5.98793">
        <ele>773</ele>
        <time>2019-12-17T09:46:54.000Z</time>
      </trkpt>
      <trkpt lat="43.36509" lon="5.98793">
        <ele>773</ele>
        <time>2019-12-17T09:46:55.000Z</time>
      </trkpt>
      <trkpt lat="43.36509" lon="5.98793">
        <ele>773</ele>
        <time>2019-12-17T09:46:56.000Z</time>
      </trkpt>
      <trkpt lat="43.36509" lon="5.98793">
        <ele>773</ele>
        <time>2019-12-17T09:46:57.000Z</time>
      </trkpt>
      <trkpt lat="43.3651" lon="5.98793">
        <ele>773</ele>
        <time>2019-12-17T09:46:58.000Z</time>
      </trkpt>
      <trkpt lat="43.3651" lon="5.98793">
        <ele>773</ele>
        <time>2019-12-17T09:46:59.000Z</time>
      </trkpt>
      <trkpt lat="43.3651" lon="5.98793">
        <ele>773</ele>
        <time>2019-12-17T09:47:00.000Z</time>
      </trkpt>
      <trkpt lat="43.3651" lon="5.98793">
        <ele>773</ele>
        <time>2019-12-17T09:47:01.000Z</time>
      </trkpt>
      <trkpt lat="43.3651" lon="5.98793">
        <ele>773</ele>
        <time>2019-12-17T09:47:02.000Z</time>
      </trkpt>
      <trkpt lat="43.3651" lon="5.98793">
        <ele>773</ele>
        <time>2019-12-17T09:47:03.000Z</time>
      </trkpt>
      <trkpt lat="43.3651" lon="5.98793">
        <ele>773</ele>
        <time>2019-12-17T09:47:04.000Z</time>
      </trkpt>
      <trkpt lat="43.3651" lon="5.98793">
        <ele>773</ele>
        <time>2019-12-17T09:47:05.000Z</time>
      </trkpt>
      <trkpt lat="43.3651" lon="5.98793">
        <ele>773</ele>
        <time>2019-12-17T09:47:06.000Z</time>
      </trkpt>
      <trkpt lat="43.3651" lon="5.98793">
        <ele>773</ele>
        <time>2019-12-17T09:47:07.000Z</time>
      </trkpt>
      <trkpt lat="43.3651" lon="5.98793">
        <ele>773</ele>
        <time>2019-12-17T09:47:08.000Z</time>
      </trkpt>
      <trkpt lat="43.3651" lon="5.98793">
        <ele>773</ele>
        <time>2019-12-17T09:47:09.000Z</time>
      </trkpt>
      <trkpt lat="43.3651" lon="5.98793">
        <ele>773</ele>
        <time>2019-12-17T09:47:10.000Z</time>
      </trkpt>
      <trkpt lat="43.3651" lon="5.98793">
        <ele>773</ele>
        <time>2019-12-17T09:47:11.000Z</time>
      </trkpt>
      <trkpt lat="43.3651" lon="5.98793">
        <ele>773</ele>
        <time>2019-12-17T09:47:12.000Z</time>
      </trkpt>
      <trkpt lat="43.3651" lon="5.98794">
        <ele>773</ele>
        <time>2019-12-17T09:47:13.000Z</time>
      </trkpt>
      <trkpt lat="43.3651" lon="5.98794">
        <ele>773</ele>
        <time>2019-12-17T09:47:14.000Z</time>
      </trkpt>
      <trkpt lat="43.3651" lon="5.98794">
        <ele>773</ele>
        <time>2019-12-17T09:47:15.000Z</time>
      </trkpt>
      <trkpt lat="43.3651" lon="5.98794">
        <ele>773</ele>
        <time>2019-12-17T09:47:16.000Z</time>
      </trkpt>
      <trkpt lat="43.3651" lon="5.98794">
        <ele>773</ele>
        <time>2019-12-17T09:47:17.000Z</time>
      </trkpt>
      <trkpt lat="43.3651" lon="5.98794">
        <ele>773</ele>
        <time>2019-12-17T09:47:18.000Z</time>
      </trkpt>
      <trkpt lat="43.3651" lon="5.98794">
        <ele>773</ele>
        <time>2019-12-17T09:47:19.000Z</time>
      </trkpt>
      <trkpt lat="43.3651" lon="5.98794">
        <ele>773</ele>
        <time>2019-12-17T09:47:20.000Z</time>
      </trkpt>
      <trkpt lat="43.3651" lon="5.98794">
        <ele>773</ele>
        <time>2019-12-17T09:47:21.000Z</time>
      </trkpt>
      <trkpt lat="43.3651" lon="5.98794">
        <ele>773</ele>
        <time>2019-12-17T09:47:22.000Z</time>
      </trkpt>
      <trkpt lat="43.3651" lon="5.98794">
        <ele>773</ele>
        <time>2019-12-17T09:47:23.000Z</time>
      </trkpt>
      <trkpt lat="43.3651" lon="5.98794">
        <ele>773</ele>
        <time>2019-12-17T09:47:24.000Z</time>
      </trkpt>
      <trkpt lat="43.3651" lon="5.98794">
        <ele>773</ele>
        <time>2019-12-17T09:47:25.000Z</time>
      </trkpt>
      <trkpt lat="43.3651" lon="5.98794">
        <ele>773</ele>
        <time>2019-12-17T09:47:26.000Z</time>
      </trkpt>
      <trkpt lat="43.36509" lon="5.98795">
        <ele>773</ele>
        <time>2019-12-17T09:47:27.000Z</time>
      </trkpt>
      <trkpt lat="43.36509" lon="5.98795">
        <ele>773</ele>
        <time>2019-12-17T09:47:28.000Z</time>
      </trkpt>
      <trkpt lat="43.36508" lon="5.98795">
        <ele>773</ele>
        <time>2019-12-17T09:47:29.000Z</time>
      </trkpt>
      <trkpt lat="43.36508" lon="5.98795">
        <ele>773</ele>
        <time>2019-12-17T09:47:30.000Z</time>
      </trkpt>
      <trkpt lat="43.36508" lon="5.98795">
        <ele>773</ele>
        <time>2019-12-17T09:47:31.000Z</time>
      </trkpt>
      <trkpt lat="43.36508" lon="5.98795">
        <ele>773</ele>
        <time>2019-12-17T09:47:32.000Z</time>
      </trkpt>
      <trkpt lat="43.36508" lon="5.98796">
        <ele>773</ele>
        <time>2019-12-17T09:47:33.000Z</time>
      </trkpt>
      <trkpt lat="43.36508" lon="5.98796">
        <ele>773</ele>
        <time>2019-12-17T09:47:34.000Z</time>
      </trkpt>
      <trkpt lat="43.36508" lon="5.98796">
        <ele>773</ele>
        <time>2019-12-17T09:47:35.000Z</time>
      </trkpt>
      <trkpt lat="43.36508" lon="5.98796">
        <ele>773</ele>
        <time>2019-12-17T09:47:36.000Z</time>
      </trkpt>
      <trkpt lat="43.36508" lon="5.98796">
        <ele>773</ele>
        <time>2019-12-17T09:47:37.000Z</time>
      </trkpt>
      <trkpt lat="43.36508" lon="5.98797">
        <ele>773</ele>
        <time>2019-12-17T09:47:38.000Z</time>
      </trkpt>
      <trkpt lat="43.36509" lon="5.98797">
        <ele>773</ele>
        <time>2019-12-17T09:47:39.000Z</time>
      </trkpt>
      <trkpt lat="43.36509" lon="5.98798">
        <ele>773</ele>
        <time>2019-12-17T09:47:40.000Z</time>
      </trkpt>
      <trkpt lat="43.36509" lon="5.98798">
        <ele>773</ele>
        <time>2019-12-17T09:47:41.000Z</time>
      </trkpt>
      <trkpt lat="43.3651" lon="5.98799">
        <ele>773</ele>
        <time>2019-12-17T09:47:42.000Z</time>
      </trkpt>
      <trkpt lat="43.3651" lon="5.98799">
        <ele>773</ele>
        <time>2019-12-17T09:47:43.000Z</time>
      </trkpt>
      <trkpt lat="43.3651" lon="5.988">
        <ele>773</ele>
        <time>2019-12-17T09:47:44.000Z</time>
      </trkpt>
      <trkpt lat="43.3651" lon="5.988">
        <ele>773</ele>
        <time>2019-12-17T09:47:45.000Z</time>
      </trkpt>
      <trkpt lat="43.3651" lon="5.988">
        <ele>773</ele>
        <time>2019-12-17T09:47:46.000Z</time>
      </trkpt>
      <trkpt lat="43.3651" lon="5.988">
        <ele>773</ele>
        <time>2019-12-17T09:47:47.000Z</time>
      </trkpt>
      <trkpt lat="43.36509" lon="5.988">
        <ele>773</ele>
        <time>2019-12-17T09:47:48.000Z</time>
      </trkpt>
      <trkpt lat="43.36509" lon="5.988">
        <ele>773</ele>
        <time>2019-12-17T09:47:49.000Z</time>
      </trkpt>
      <trkpt lat="43.36509" lon="5.988">
        <ele>773</ele>
        <time>2019-12-17T09:47:50.000Z</time>
      </trkpt>
      <trkpt lat="43.3651" lon="5.988">
        <ele>773</ele>
        <time>2019-12-17T09:47:51.000Z</time>
      </trkpt>
      <trkpt lat="43.3651" lon="5.988">
        <ele>773</ele>
        <time>2019-12-17T09:47:52.000Z</time>
      </trkpt>
      <trkpt lat="43.36509" lon="5.98801">
        <ele>773</ele>
        <time>2019-12-17T09:47:53.000Z</time>
      </trkpt>
      <trkpt lat="43.3651" lon="5.98801">
        <ele>773</ele>
        <time>2019-12-17T09:47:54.000Z</time>
      </trkpt>
      <trkpt lat="43.3651" lon="5.98801">
        <ele>773</ele>
        <time>2019-12-17T09:47:55.000Z</time>
      </trkpt>
      <trkpt lat="43.36509" lon="5.98802">
        <ele>773</ele>
        <time>2019-12-17T09:47:56.000Z</time>
      </trkpt>
      <trkpt lat="43.36509" lon="5.98802">
        <ele>773</ele>
        <time>2019-12-17T09:47:57.000Z</time>
      </trkpt>
      <trkpt lat="43.36509" lon="5.98802">
        <ele>773</ele>
        <time>2019-12-17T09:47:58.000Z</time>
      </trkpt>
      <trkpt lat="43.36509" lon="5.98802">
        <ele>773</ele>
        <time>2019-12-17T09:47:59.000Z</time>
      </trkpt>
      <trkpt lat="43.36509" lon="5.98802">
        <ele>773</ele>
        <time>2019-12-17T09:48:00.000Z</time>
      </trkpt>
      <trkpt lat="43.36509" lon="5.98802">
        <ele>773</ele>
        <time>2019-12-17T09:48:01.000Z</time>
      </trkpt>
      <trkpt lat="43.36508" lon="5.98802">
        <ele>773</ele>
        <time>2019-12-17T09:48:02.000Z</time>
      </trkpt>
      <trkpt lat="43.36508" lon="5.98803">
        <ele>773</ele>
        <time>2019-12-17T09:48:03.000Z</time>
      </trkpt>
      <trkpt lat="43.36507" lon="5.98804">
        <ele>773</ele>
        <time>2019-12-17T09:48:04.000Z</time>
      </trkpt>
      <trkpt lat="43.36507" lon="5.98804">
        <ele>773</ele>
        <time>2019-12-17T09:48:05.000Z</time>
      </trkpt>
      <trkpt lat="43.36507" lon="5.98805">
        <ele>773</ele>
        <time>2019-12-17T09:48:06.000Z</time>
      </trkpt>
      <trkpt lat="43.36507" lon="5.98806">
        <ele>773</ele>
        <time>2019-12-17T09:48:07.000Z</time>
      </trkpt>
      <trkpt lat="43.36507" lon="5.98807">
        <ele>773</ele>
        <time>2019-12-17T09:48:08.000Z</time>
      </trkpt>
      <trkpt lat="43.36507" lon="5.98808">
        <ele>773</ele>
        <time>2019-12-17T09:48:09.000Z</time>
      </trkpt>
      <trkpt lat="43.36507" lon="5.98809">
        <ele>773</ele>
        <time>2019-12-17T09:48:10.000Z</time>
      </trkpt>
      <trkpt lat="43.36507" lon="5.98809">
        <ele>773</ele>
        <time>2019-12-17T09:48:11.000Z</time>
      </trkpt>
      <trkpt lat="43.36507" lon="5.98809">
        <ele>773</ele>
        <time>2019-12-17T09:48:12.000Z</time>
      </trkpt>
      <trkpt lat="43.36507" lon="5.9881">
        <ele>773</ele>
        <time>2019-12-17T09:48:13.000Z</time>
      </trkpt>
      <trkpt lat="43.36508" lon="5.9881">
        <ele>773</ele>
        <time>2019-12-17T09:48:14.000Z</time>
      </trkpt>
      <trkpt lat="43.36508" lon="5.9881">
        <ele>773</ele>
        <time>2019-12-17T09:48:15.000Z</time>
      </trkpt>
      <trkpt lat="43.36508" lon="5.9881">
        <ele>773</ele>
        <time>2019-12-17T09:48:16.000Z</time>
      </trkpt>
      <trkpt lat="43.36508" lon="5.98811">
        <ele>773</ele>
        <time>2019-12-17T09:48:17.000Z</time>
      </trkpt>
      <trkpt lat="43.36508" lon="5.98812">
        <ele>773</ele>
        <time>2019-12-17T09:48:18.000Z</time>
      </trkpt>
      <trkpt lat="43.36508" lon="5.98812">
        <ele>773</ele>
        <time>2019-12-17T09:48:19.000Z</time>
      </trkpt>
      <trkpt lat="43.36508" lon="5.98812">
        <ele>773</ele>
        <time>2019-12-17T09:48:20.000Z</time>
      </trkpt>
      <trkpt lat="43.36508" lon="5.98812">
        <ele>773</ele>
        <time>2019-12-17T09:48:21.000Z</time>
      </trkpt>
      <trkpt lat="43.36508" lon="5.98813">
        <ele>773</ele>
        <time>2019-12-17T09:48:22.000Z</time>
      </trkpt>
      <trkpt lat="43.36507" lon="5.98813">
        <ele>773</ele>
        <time>2019-12-17T09:48:23.000Z</time>
      </trkpt>
      <trkpt lat="43.36508" lon="5.98813">
        <ele>773</ele>
        <time>2019-12-17T09:48:24.000Z</time>
      </trkpt>
      <trkpt lat="43.36508" lon="5.98813">
        <ele>773</ele>
        <time>2019-12-17T09:48:25.000Z</time>
      </trkpt>
      <trkpt lat="43.36508" lon="5.98813">
        <ele>773</ele>
        <time>2019-12-17T09:48:26.000Z</time>
      </trkpt>
      <trkpt lat="43.36508" lon="5.98813">
        <ele>773</ele>
        <time>2019-12-17T09:48:27.000Z</time>
      </trkpt>
      <trkpt lat="43.36508" lon="5.98814">
        <ele>773</ele>
        <time>2019-12-17T09:48:28.000Z</time>
      </trkpt>
      <trkpt lat="43.36507" lon="5.98814">
        <ele>774</ele>
        <time>2019-12-17T09:48:29.000Z</time>
      </trkpt>
      <trkpt lat="43.36507" lon="5.98814">
        <ele>774</ele>
        <time>2019-12-17T09:48:30.000Z</time>
      </trkpt>
      <trkpt lat="43.36507" lon="5.98815">
        <ele>774</ele>
        <time>2019-12-17T09:48:31.000Z</time>
      </trkpt>
      <trkpt lat="43.36507" lon="5.98815">
        <ele>774</ele>
        <time>2019-12-17T09:48:32.000Z</time>
      </trkpt>
      <trkpt lat="43.36507" lon="5.98815">
        <ele>774</ele>
        <time>2019-12-17T09:48:33.000Z</time>
      </trkpt>
      <trkpt lat="43.36507" lon="5.98816">
        <ele>774</ele>
        <time>2019-12-17T09:48:34.000Z</time>
      </trkpt>
      <trkpt lat="43.36508" lon="5.98817">
        <ele>774</ele>
        <time>2019-12-17T09:48:35.000Z</time>
      </trkpt>
      <trkpt lat="43.36508" lon="5.98818">
        <ele>774</ele>
        <time>2019-12-17T09:48:36.000Z</time>
      </trkpt>
      <trkpt lat="43.36509" lon="5.98819">
        <ele>774</ele>
        <time>2019-12-17T09:48:37.000Z</time>
      </trkpt>
      <trkpt lat="43.3651" lon="5.9882">
        <ele>774</ele>
        <time>2019-12-17T09:48:38.000Z</time>
      </trkpt>
      <trkpt lat="43.3651" lon="5.98821">
        <ele>774</ele>
        <time>2019-12-17T09:48:39.000Z</time>
      </trkpt>
      <trkpt lat="43.36511" lon="5.98822">
        <ele>774</ele>
        <time>2019-12-17T09:48:40.000Z</time>
      </trkpt>
      <trkpt lat="43.36512" lon="5.98822">
        <ele>773</ele>
        <time>2019-12-17T09:48:41.000Z</time>
      </trkpt>
      <trkpt lat="43.36513" lon="5.98822">
        <ele>773</ele>
        <time>2019-12-17T09:48:42.000Z</time>
      </trkpt>
      <trkpt lat="43.36513" lon="5.98822">
        <ele>773</ele>
        <time>2019-12-17T09:48:43.000Z</time>
      </trkpt>
      <trkpt lat="43.36514" lon="5.98822">
        <ele>773</ele>
        <time>2019-12-17T09:48:44.000Z</time>
      </trkpt>
      <trkpt lat="43.36515" lon="5.98822">
        <ele>773</ele>
        <time>2019-12-17T09:48:45.000Z</time>
      </trkpt>
      <trkpt lat="43.36515" lon="5.98822">
        <ele>773</ele>
        <time>2019-12-17T09:48:46.000Z</time>
      </trkpt>
      <trkpt lat="43.36515" lon="5.98822">
        <ele>773</ele>
        <time>2019-12-17T09:48:47.000Z</time>
      </trkpt>
      <trkpt lat="43.36516" lon="5.98821">
        <ele>773</ele>
        <time>2019-12-17T09:48:48.000Z</time>
      </trkpt>
      <trkpt lat="43.36516" lon="5.98821">
        <ele>773</ele>
        <time>2019-12-17T09:48:49.000Z</time>
      </trkpt>
      <trkpt lat="43.36516" lon="5.98821">
        <ele>774</ele>
        <time>2019-12-17T09:48:50.000Z</time>
      </trkpt>
      <trkpt lat="43.36517" lon="5.98821">
        <ele>774</ele>
        <time>2019-12-17T09:48:51.000Z</time>
      </trkpt>
      <trkpt lat="43.36517" lon="5.98821">
        <ele>773</ele>
        <time>2019-12-17T09:48:52.000Z</time>
      </trkpt>
      <trkpt lat="43.36517" lon="5.98821">
        <ele>773</ele>
        <time>2019-12-17T09:48:53.000Z</time>
      </trkpt>
      <trkpt lat="43.36518" lon="5.98821">
        <ele>774</ele>
        <time>2019-12-17T09:48:54.000Z</time>
      </trkpt>
      <trkpt lat="43.36518" lon="5.98821">
        <ele>774</ele>
        <time>2019-12-17T09:48:55.000Z</time>
      </trkpt>
      <trkpt lat="43.36518" lon="5.98821">
        <ele>774</ele>
        <time>2019-12-17T09:48:56.000Z</time>
      </trkpt>
      <trkpt lat="43.36518" lon="5.98821">
        <ele>774</ele>
        <time>2019-12-17T09:48:57.000Z</time>
      </trkpt>
      <trkpt lat="43.36518" lon="5.98821">
        <ele>774</ele>
        <time>2019-12-17T09:48:58.000Z</time>
      </trkpt>
      <trkpt lat="43.36518" lon="5.98821">
        <ele>774</ele>
        <time>2019-12-17T09:48:59.000Z</time>
      </trkpt>
      <trkpt lat="43.36518" lon="5.98821">
        <ele>774</ele>
        <time>2019-12-17T09:49:00.000Z</time>
      </trkpt>
      <trkpt lat="43.36518" lon="5.98821">
        <ele>774</ele>
        <time>2019-12-17T09:49:01.000Z</time>
      </trkpt>
      <trkpt lat="43.36518" lon="5.98822">
        <ele>774</ele>
        <time>2019-12-17T09:49:02.000Z</time>
      </trkpt>
      <trkpt lat="43.36518" lon="5.98822">
        <ele>774</ele>
        <time>2019-12-17T09:49:03.000Z</time>
      </trkpt>
      <trkpt lat="43.36518" lon="5.98822">
        <ele>774</ele>
        <time>2019-12-17T09:49:04.000Z</time>
      </trkpt>
      <trkpt lat="43.36518" lon="5.98822">
        <ele>774</ele>
        <time>2019-12-17T09:49:05.000Z</time>
      </trkpt>
      <trkpt lat="43.36519" lon="5.98822">
        <ele>774</ele>
        <time>2019-12-17T09:49:06.000Z</time>
      </trkpt>
      <trkpt lat="43.36519" lon="5.98822">
        <ele>774</ele>
        <time>2019-12-17T09:49:07.000Z</time>
      </trkpt>
      <trkpt lat="43.36519" lon="5.98822">
        <ele>774</ele>
        <time>2019-12-17T09:49:08.000Z</time>
      </trkpt>
      <trkpt lat="43.3652" lon="5.98823">
        <ele>774</ele>
        <time>2019-12-17T09:49:09.000Z</time>
      </trkpt>
      <trkpt lat="43.3652" lon="5.98823">
        <ele>774</ele>
        <time>2019-12-17T09:49:10.000Z</time>
      </trkpt>
      <trkpt lat="43.3652" lon="5.98823">
        <ele>774</ele>
        <time>2019-12-17T09:49:11.000Z</time>
      </trkpt>
      <trkpt lat="43.36521" lon="5.98824">
        <ele>775</ele>
        <time>2019-12-17T09:49:12.000Z</time>
      </trkpt>
      <trkpt lat="43.36521" lon="5.98825">
        <ele>775</ele>
        <time>2019-12-17T09:49:13.000Z</time>
      </trkpt>
      <trkpt lat="43.36521" lon="5.98826">
        <ele>775</ele>
        <time>2019-12-17T09:49:14.000Z</time>
      </trkpt>
      <trkpt lat="43.36521" lon="5.98827">
        <ele>775</ele>
        <time>2019-12-17T09:49:15.000Z</time>
      </trkpt>
      <trkpt lat="43.36521" lon="5.98828">
        <ele>775</ele>
        <time>2019-12-17T09:49:16.000Z</time>
      </trkpt>
      <trkpt lat="43.36521" lon="5.98828">
        <ele>775</ele>
        <time>2019-12-17T09:49:17.000Z</time>
      </trkpt>
      <trkpt lat="43.36522" lon="5.98829">
        <ele>775</ele>
        <time>2019-12-17T09:49:18.000Z</time>
      </trkpt>
      <trkpt lat="43.36522" lon="5.98829">
        <ele>775</ele>
        <time>2019-12-17T09:49:19.000Z</time>
      </trkpt>
      <trkpt lat="43.36522" lon="5.98829">
        <ele>775</ele>
        <time>2019-12-17T09:49:20.000Z</time>
      </trkpt>
      <trkpt lat="43.36522" lon="5.98829">
        <ele>776</ele>
        <time>2019-12-17T09:49:21.000Z</time>
      </trkpt>
      <trkpt lat="43.36522" lon="5.98829">
        <ele>776</ele>
        <time>2019-12-17T09:49:22.000Z</time>
      </trkpt>
      <trkpt lat="43.36522" lon="5.98829">
        <ele>776</ele>
        <time>2019-12-17T09:49:23.000Z</time>
      </trkpt>
      <trkpt lat="43.36522" lon="5.98829">
        <ele>776</ele>
        <time>2019-12-17T09:49:24.000Z</time>
      </trkpt>
      <trkpt lat="43.36522" lon="5.98829">
        <ele>776</ele>
        <time>2019-12-17T09:49:25.000Z</time>
      </trkpt>
      <trkpt lat="43.36522" lon="5.9883">
        <ele>776</ele>
        <time>2019-12-17T09:49:26.000Z</time>
      </trkpt>
      <trkpt lat="43.36523" lon="5.9883">
        <ele>776</ele>
        <time>2019-12-17T09:49:27.000Z</time>
      </trkpt>
      <trkpt lat="43.36523" lon="5.9883">
        <ele>776</ele>
        <time>2019-12-17T09:49:28.000Z</time>
      </trkpt>
      <trkpt lat="43.36523" lon="5.98831">
        <ele>776</ele>
        <time>2019-12-17T09:49:29.000Z</time>
      </trkpt>
      <trkpt lat="43.36523" lon="5.98831">
        <ele>776</ele>
        <time>2019-12-17T09:49:30.000Z</time>
      </trkpt>
      <trkpt lat="43.36523" lon="5.98831">
        <ele>776</ele>
        <time>2019-12-17T09:49:31.000Z</time>
      </trkpt>
      <trkpt lat="43.36523" lon="5.98831">
        <ele>776</ele>
        <time>2019-12-17T09:49:32.000Z</time>
      </trkpt>
      <trkpt lat="43.36523" lon="5.98831">
        <ele>776</ele>
        <time>2019-12-17T09:49:33.000Z</time>
      </trkpt>
      <trkpt lat="43.36523" lon="5.98831">
        <ele>776</ele>
        <time>2019-12-17T09:49:34.000Z</time>
      </trkpt>
      <trkpt lat="43.36523" lon="5.98831">
        <ele>776</ele>
        <time>2019-12-17T09:49:35.000Z</time>
      </trkpt>
      <trkpt lat="43.36523" lon="5.98831">
        <ele>776</ele>
        <time>2019-12-17T09:49:36.000Z</time>
      </trkpt>
      <trkpt lat="43.36523" lon="5.98831">
        <ele>776</ele>
        <time>2019-12-17T09:49:37.000Z</time>
      </trkpt>
      <trkpt lat="43.36523" lon="5.98831">
        <ele>776</ele>
        <time>2019-12-17T09:49:38.000Z</time>
      </trkpt>
      <trkpt lat="43.36524" lon="5.9883">
        <ele>776</ele>
        <time>2019-12-17T09:49:39.000Z</time>
      </trkpt>
      <trkpt lat="43.36524" lon="5.9883">
        <ele>776</ele>
        <time>2019-12-17T09:49:40.000Z</time>
      </trkpt>
      <trkpt lat="43.36525" lon="5.9883">
        <ele>776</ele>
        <time>2019-12-17T09:49:41.000Z</time>
      </trkpt>
      <trkpt lat="43.36526" lon="5.9883">
        <ele>777</ele>
        <time>2019-12-17T09:49:42.000Z</time>
      </trkpt>
      <trkpt lat="43.36526" lon="5.9883">
        <ele>777</ele>
        <time>2019-12-17T09:49:43.000Z</time>
      </trkpt>
      <trkpt lat="43.36526" lon="5.9883">
        <ele>777</ele>
        <time>2019-12-17T09:49:44.000Z</time>
      </trkpt>
      <trkpt lat="43.36526" lon="5.9883">
        <ele>777</ele>
        <time>2019-12-17T09:49:45.000Z</time>
      </trkpt>
      <trkpt lat="43.36526" lon="5.9883">
        <ele>777</ele>
        <time>2019-12-17T09:49:46.000Z</time>
      </trkpt>
      <trkpt lat="43.36526" lon="5.9883">
        <ele>777</ele>
        <time>2019-12-17T09:49:47.000Z</time>
      </trkpt>
      <trkpt lat="43.36526" lon="5.9883">
        <ele>777</ele>
        <time>2019-12-17T09:49:48.000Z</time>
      </trkpt>
      <trkpt lat="43.36526" lon="5.9883">
        <ele>777</ele>
        <time>2019-12-17T09:49:49.000Z</time>
      </trkpt>
      <trkpt lat="43.36526" lon="5.9883">
        <ele>777</ele>
        <time>2019-12-17T09:49:50.000Z</time>
      </trkpt>
      <trkpt lat="43.36526" lon="5.9883">
        <ele>777</ele>
        <time>2019-12-17T09:49:51.000Z</time>
      </trkpt>
      <trkpt lat="43.36526" lon="5.98831">
        <ele>777</ele>
        <time>2019-12-17T09:49:52.000Z</time>
      </trkpt>
      <trkpt lat="43.36526" lon="5.98831">
        <ele>777</ele>
        <time>2019-12-17T09:49:53.000Z</time>
      </trkpt>
      <trkpt lat="43.36526" lon="5.98831">
        <ele>777</ele>
        <time>2019-12-17T09:49:54.000Z</time>
      </trkpt>
      <trkpt lat="43.36526" lon="5.98831">
        <ele>777</ele>
        <time>2019-12-17T09:49:55.000Z</time>
      </trkpt>
      <trkpt lat="43.36526" lon="5.98831">
        <ele>777</ele>
        <time>2019-12-17T09:49:56.000Z</time>
      </trkpt>
      <trkpt lat="43.36526" lon="5.98831">
        <ele>777</ele>
        <time>2019-12-17T09:49:57.000Z</time>
      </trkpt>
      <trkpt lat="43.36526" lon="5.98831">
        <ele>777</ele>
        <time>2019-12-17T09:49:58.000Z</time>
      </trkpt>
      <trkpt lat="43.36526" lon="5.98831">
        <ele>777</ele>
        <time>2019-12-17T09:49:59.000Z</time>
      </trkpt>
      <trkpt lat="43.36526" lon="5.98831">
        <ele>778</ele>
        <time>2019-12-17T09:50:00.000Z</time>
      </trkpt>
      <trkpt lat="43.36526" lon="5.98831">
        <ele>778</ele>
        <time>2019-12-17T09:50:01.000Z</time>
      </trkpt>
      <trkpt lat="43.36526" lon="5.98832">
        <ele>778</ele>
        <time>2019-12-17T09:50:02.000Z</time>
      </trkpt>
      <trkpt lat="43.36526" lon="5.98832">
        <ele>778</ele>
        <time>2019-12-17T09:50:03.000Z</time>
      </trkpt>
      <trkpt lat="43.36526" lon="5.98832">
        <ele>778</ele>
        <time>2019-12-17T09:50:04.000Z</time>
      </trkpt>
      <trkpt lat="43.36526" lon="5.98832">
        <ele>778</ele>
        <time>2019-12-17T09:50:05.000Z</time>
      </trkpt>
      <trkpt lat="43.36526" lon="5.98832">
        <ele>778</ele>
        <time>2019-12-17T09:50:06.000Z</time>
      </trkpt>
      <trkpt lat="43.36526" lon="5.98832">
        <ele>778</ele>
        <time>2019-12-17T09:50:07.000Z</time>
      </trkpt>
      <trkpt lat="43.36527" lon="5.98833">
        <ele>778</ele>
        <time>2019-12-17T09:50:08.000Z</time>
      </trkpt>
      <trkpt lat="43.36527" lon="5.98833">
        <ele>778</ele>
        <time>2019-12-17T09:50:09.000Z</time>
      </trkpt>
      <trkpt lat="43.36528" lon="5.98833">
        <ele>778</ele>
        <time>2019-12-17T09:50:10.000Z</time>
      </trkpt>
      <trkpt lat="43.36529" lon="5.98833">
        <ele>778</ele>
        <time>2019-12-17T09:50:11.000Z</time>
      </trkpt>
      <trkpt lat="43.3653" lon="5.98833">
        <ele>778</ele>
        <time>2019-12-17T09:50:12.000Z</time>
      </trkpt>
      <trkpt lat="43.3653" lon="5.98833">
        <ele>778</ele>
        <time>2019-12-17T09:50:13.000Z</time>
      </trkpt>
      <trkpt lat="43.3653" lon="5.98833">
        <ele>778</ele>
        <time>2019-12-17T09:50:14.000Z</time>
      </trkpt>
      <trkpt lat="43.36531" lon="5.98832">
        <ele>778</ele>
        <time>2019-12-17T09:50:15.000Z</time>
      </trkpt>
      <trkpt lat="43.36531" lon="5.98832">
        <ele>778</ele>
        <time>2019-12-17T09:50:16.000Z</time>
      </trkpt>
      <trkpt lat="43.36531" lon="5.98832">
        <ele>779</ele>
        <time>2019-12-17T09:50:17.000Z</time>
      </trkpt>
      <trkpt lat="43.36531" lon="5.98832">
        <ele>779</ele>
        <time>2019-12-17T09:50:18.000Z</time>
      </trkpt>
      <trkpt lat="43.36531" lon="5.98832">
        <ele>779</ele>
        <time>2019-12-17T09:50:19.000Z</time>
      </trkpt>
      <trkpt lat="43.36531" lon="5.98832">
        <ele>779</ele>
        <time>2019-12-17T09:50:20.000Z</time>
      </trkpt>
      <trkpt lat="43.36531" lon="5.98832">
        <ele>779</ele>
        <time>2019-12-17T09:50:21.000Z</time>
      </trkpt>
      <trkpt lat="43.36531" lon="5.98832">
        <ele>779</ele>
        <time>2019-12-17T09:50:22.000Z</time>
      </trkpt>
      <trkpt lat="43.36532" lon="5.98832">
        <ele>779</ele>
        <time>2019-12-17T09:50:23.000Z</time>
      </trkpt>
      <trkpt lat="43.36532" lon="5.98832">
        <ele>779</ele>
        <time>2019-12-17T09:50:24.000Z</time>
      </trkpt>
      <trkpt lat="43.36532" lon="5.98832">
        <ele>779</ele>
        <time>2019-12-17T09:50:25.000Z</time>
      </trkpt>
      <trkpt lat="43.36532" lon="5.98832">
        <ele>779</ele>
        <time>2019-12-17T09:50:26.000Z</time>
      </trkpt>
      <trkpt lat="43.36533" lon="5.98832">
        <ele>779</ele>
        <time>2019-12-17T09:50:27.000Z</time>
      </trkpt>
      <trkpt lat="43.36533" lon="5.98832">
        <ele>779</ele>
        <time>2019-12-17T09:50:28.000Z</time>
      </trkpt>
      <trkpt lat="43.36533" lon="5.98832">
        <ele>779</ele>
        <time>2019-12-17T09:50:29.000Z</time>
      </trkpt>
      <trkpt lat="43.36533" lon="5.98832">
        <ele>779</ele>
        <time>2019-12-17T09:50:30.000Z</time>
      </trkpt>
      <trkpt lat="43.36534" lon="5.98832">
        <ele>780</ele>
        <time>2019-12-17T09:50:31.000Z</time>
      </trkpt>
      <trkpt lat="43.36534" lon="5.98832">
        <ele>780</ele>
        <time>2019-12-17T09:50:32.000Z</time>
      </trkpt>
      <trkpt lat="43.36534" lon="5.98831">
        <ele>780</ele>
        <time>2019-12-17T09:50:33.000Z</time>
      </trkpt>
      <trkpt lat="43.36535" lon="5.98831">
        <ele>780</ele>
        <time>2019-12-17T09:50:34.000Z</time>
      </trkpt>
      <trkpt lat="43.36535" lon="5.98831">
        <ele>780</ele>
        <time>2019-12-17T09:50:35.000Z</time>
      </trkpt>
      <trkpt lat="43.36535" lon="5.98831">
        <ele>780</ele>
        <time>2019-12-17T09:50:36.000Z</time>
      </trkpt>
      <trkpt lat="43.36536" lon="5.98831">
        <ele>780</ele>
        <time>2019-12-17T09:50:37.000Z</time>
      </trkpt>
      <trkpt lat="43.36536" lon="5.98831">
        <ele>780</ele>
        <time>2019-12-17T09:50:38.000Z</time>
      </trkpt>
      <trkpt lat="43.36537" lon="5.98831">
        <ele>781</ele>
        <time>2019-12-17T09:50:39.000Z</time>
      </trkpt>
      <trkpt lat="43.36537" lon="5.98831">
        <ele>781</ele>
        <time>2019-12-17T09:50:40.000Z</time>
      </trkpt>
      <trkpt lat="43.36537" lon="5.98831">
        <ele>781</ele>
        <time>2019-12-17T09:50:41.000Z</time>
      </trkpt>
      <trkpt lat="43.36537" lon="5.98831">
        <ele>781</ele>
        <time>2019-12-17T09:50:42.000Z</time>
      </trkpt>
      <trkpt lat="43.36537" lon="5.98831">
        <ele>781</ele>
        <time>2019-12-17T09:50:43.000Z</time>
      </trkpt>
      <trkpt lat="43.36537" lon="5.98831">
        <ele>781</ele>
        <time>2019-12-17T09:50:44.000Z</time>
      </trkpt>
      <trkpt lat="43.36537" lon="5.98831">
        <ele>782</ele>
        <time>2019-12-17T09:50:45.000Z</time>
      </trkpt>
      <trkpt lat="43.36537" lon="5.98831">
        <ele>782</ele>
        <time>2019-12-17T09:50:46.000Z</time>
      </trkpt>
      <trkpt lat="43.36537" lon="5.98831">
        <ele>782</ele>
        <time>2019-12-17T09:50:47.000Z</time>
      </trkpt>
      <trkpt lat="43.36537" lon="5.98831">
        <ele>782</ele>
        <time>2019-12-17T09:50:48.000Z</time>
      </trkpt>
      <trkpt lat="43.36537" lon="5.98831">
        <ele>782</ele>
        <time>2019-12-17T09:50:49.000Z</time>
      </trkpt>
      <trkpt lat="43.36538" lon="5.98831">
        <ele>782</ele>
        <time>2019-12-17T09:50:50.000Z</time>
      </trkpt>
      <trkpt lat="43.36538" lon="5.98831">
        <ele>782</ele>
        <time>2019-12-17T09:50:51.000Z</time>
      </trkpt>
      <trkpt lat="43.36538" lon="5.98831">
        <ele>782</ele>
        <time>2019-12-17T09:50:52.000Z</time>
      </trkpt>
      <trkpt lat="43.36538" lon="5.98831">
        <ele>782</ele>
        <time>2019-12-17T09:50:53.000Z</time>
      </trkpt>
      <trkpt lat="43.36538" lon="5.98831">
        <ele>783</ele>
        <time>2019-12-17T09:50:54.000Z</time>
      </trkpt>
      <trkpt lat="43.36538" lon="5.98831">
        <ele>783</ele>
        <time>2019-12-17T09:50:55.000Z</time>
      </trkpt>
      <trkpt lat="43.36538" lon="5.98831">
        <ele>783</ele>
        <time>2019-12-17T09:50:56.000Z</time>
      </trkpt>
      <trkpt lat="43.36538" lon="5.98831">
        <ele>783</ele>
        <time>2019-12-17T09:50:57.000Z</time>
      </trkpt>
      <trkpt lat="43.36538" lon="5.98831">
        <ele>783</ele>
        <time>2019-12-17T09:50:58.000Z</time>
      </trkpt>
      <trkpt lat="43.36538" lon="5.98831">
        <ele>783</ele>
        <time>2019-12-17T09:50:59.000Z</time>
      </trkpt>
      <trkpt lat="43.36538" lon="5.98831">
        <ele>783</ele>
        <time>2019-12-17T09:51:00.000Z</time>
      </trkpt>
      <trkpt lat="43.36538" lon="5.98831">
        <ele>783</ele>
        <time>2019-12-17T09:51:01.000Z</time>
      </trkpt>
      <trkpt lat="43.36538" lon="5.98831">
        <ele>783</ele>
        <time>2019-12-17T09:51:02.000Z</time>
      </trkpt>
      <trkpt lat="43.36538" lon="5.98831">
        <ele>783</ele>
        <time>2019-12-17T09:51:03.000Z</time>
      </trkpt>
      <trkpt lat="43.36538" lon="5.98831">
        <ele>783</ele>
        <time>2019-12-17T09:51:04.000Z</time>
      </trkpt>
      <trkpt lat="43.36538" lon="5.98831">
        <ele>783</ele>
        <time>2019-12-17T09:51:05.000Z</time>
      </trkpt>
      <trkpt lat="43.36538" lon="5.98831">
        <ele>783</ele>
        <time>2019-12-17T09:51:06.000Z</time>
      </trkpt>
      <trkpt lat="43.36538" lon="5.98831">
        <ele>783</ele>
        <time>2019-12-17T09:51:07.000Z</time>
      </trkpt>
      <trkpt lat="43.36538" lon="5.9883">
        <ele>784</ele>
        <time>2019-12-17T09:51:08.000Z</time>
      </trkpt>
      <trkpt lat="43.36538" lon="5.9883">
        <ele>784</ele>
        <time>2019-12-17T09:51:09.000Z</time>
      </trkpt>
      <trkpt lat="43.36538" lon="5.9883">
        <ele>784</ele>
        <time>2019-12-17T09:51:10.000Z</time>
      </trkpt>
      <trkpt lat="43.36538" lon="5.9883">
        <ele>784</ele>
        <time>2019-12-17T09:51:11.000Z</time>
      </trkpt>
      <trkpt lat="43.36538" lon="5.9883">
        <ele>784</ele>
        <time>2019-12-17T09:51:12.000Z</time>
      </trkpt>
      <trkpt lat="43.36538" lon="5.9883">
        <ele>784</ele>
        <time>2019-12-17T09:51:13.000Z</time>
      </trkpt>
      <trkpt lat="43.36538" lon="5.9883">
        <ele>784</ele>
        <time>2019-12-17T09:51:14.000Z</time>
      </trkpt>
      <trkpt lat="43.36538" lon="5.9883">
        <ele>784</ele>
        <time>2019-12-17T09:51:15.000Z</time>
      </trkpt>
      <trkpt lat="43.36538" lon="5.9883">
        <ele>784</ele>
        <time>2019-12-17T09:51:16.000Z</time>
      </trkpt>
      <trkpt lat="43.36538" lon="5.9883">
        <ele>784</ele>
        <time>2019-12-17T09:51:17.000Z</time>
      </trkpt>
      <trkpt lat="43.36538" lon="5.98829">
        <ele>784</ele>
        <time>2019-12-17T09:51:18.000Z</time>
      </trkpt>
      <trkpt lat="43.36538" lon="5.98829">
        <ele>784</ele>
        <time>2019-12-17T09:51:19.000Z</time>
      </trkpt>
      <trkpt lat="43.36538" lon="5.98829">
        <ele>784</ele>
        <time>2019-12-17T09:51:20.000Z</time>
      </trkpt>
      <trkpt lat="43.36538" lon="5.98828">
        <ele>784</ele>
        <time>2019-12-17T09:51:21.000Z</time>
      </trkpt>
      <trkpt lat="43.36538" lon="5.98828">
        <ele>784</ele>
        <time>2019-12-17T09:51:22.000Z</time>
      </trkpt>
      <trkpt lat="43.36538" lon="5.98828">
        <ele>784</ele>
        <time>2019-12-17T09:51:23.000Z</time>
      </trkpt>
      <trkpt lat="43.36538" lon="5.98828">
        <ele>784</ele>
        <time>2019-12-17T09:51:24.000Z</time>
      </trkpt>
      <trkpt lat="43.36538" lon="5.98828">
        <ele>784</ele>
        <time>2019-12-17T09:51:25.000Z</time>
      </trkpt>
      <trkpt lat="43.36538" lon="5.98828">
        <ele>784</ele>
        <time>2019-12-17T09:51:26.000Z</time>
      </trkpt>
      <trkpt lat="43.36538" lon="5.98828">
        <ele>784</ele>
        <time>2019-12-17T09:51:27.000Z</time>
      </trkpt>
      <trkpt lat="43.36538" lon="5.98828">
        <ele>784</ele>
        <time>2019-12-17T09:51:28.000Z</time>
      </trkpt>
      <trkpt lat="43.36538" lon="5.98828">
        <ele>784</ele>
        <time>2019-12-17T09:51:29.000Z</time>
      </trkpt>
      <trkpt lat="43.36538" lon="5.98828">
        <ele>784</ele>
        <time>2019-12-17T09:51:30.000Z</time>
      </trkpt>
      <trkpt lat="43.36538" lon="5.98827">
        <ele>784</ele>
        <time>2019-12-17T09:51:31.000Z</time>
      </trkpt>
      <trkpt lat="43.36538" lon="5.98827">
        <ele>784</ele>
        <time>2019-12-17T09:51:32.000Z</time>
      </trkpt>
      <trkpt lat="43.36538" lon="5.98827">
        <ele>784</ele>
        <time>2019-12-17T09:51:33.000Z</time>
      </trkpt>
      <trkpt lat="43.36538" lon="5.98827">
        <ele>784</ele>
        <time>2019-12-17T09:51:34.000Z</time>
      </trkpt>
      <trkpt lat="43.36538" lon="5.98827">
        <ele>784</ele>
        <time>2019-12-17T09:51:35.000Z</time>
      </trkpt>
      <trkpt lat="43.36539" lon="5.98827">
        <ele>784</ele>
        <time>2019-12-17T09:51:36.000Z</time>
      </trkpt>
      <trkpt lat="43.36539" lon="5.98826">
        <ele>784</ele>
        <time>2019-12-17T09:51:37.000Z</time>
      </trkpt>
      <trkpt lat="43.3654" lon="5.98826">
        <ele>784</ele>
        <time>2019-12-17T09:51:38.000Z</time>
      </trkpt>
      <trkpt lat="43.3654" lon="5.98826">
        <ele>784</ele>
        <time>2019-12-17T09:51:39.000Z</time>
      </trkpt>
      <trkpt lat="43.36541" lon="5.98825">
        <ele>784</ele>
        <time>2019-12-17T09:51:40.000Z</time>
      </trkpt>
      <trkpt lat="43.36541" lon="5.98825">
        <ele>784</ele>
        <time>2019-12-17T09:51:41.000Z</time>
      </trkpt>
      <trkpt lat="43.36542" lon="5.98825">
        <ele>784</ele>
        <time>2019-12-17T09:51:42.000Z</time>
      </trkpt>
      <trkpt lat="43.36542" lon="5.98824">
        <ele>784</ele>
        <time>2019-12-17T09:51:43.000Z</time>
      </trkpt>
      <trkpt lat="43.36542" lon="5.98824">
        <ele>784</ele>
        <time>2019-12-17T09:51:44.000Z</time>
      </trkpt>
      <trkpt lat="43.36542" lon="5.98824">
        <ele>784</ele>
        <time>2019-12-17T09:51:45.000Z</time>
      </trkpt>
      <trkpt lat="43.36542" lon="5.98823">
        <ele>785</ele>
        <time>2019-12-17T09:51:46.000Z</time>
      </trkpt>
      <trkpt lat="43.36542" lon="5.98823">
        <ele>785</ele>
        <time>2019-12-17T09:51:47.000Z</time>
      </trkpt>
      <trkpt lat="43.36543" lon="5.98823">
        <ele>785</ele>
        <time>2019-12-17T09:51:48.000Z</time>
      </trkpt>
      <trkpt lat="43.36543" lon="5.98823">
        <ele>785</ele>
        <time>2019-12-17T09:51:49.000Z</time>
      </trkpt>
      <trkpt lat="43.36543" lon="5.98822">
        <ele>785</ele>
        <time>2019-12-17T09:51:50.000Z</time>
      </trkpt>
      <trkpt lat="43.36543" lon="5.98822">
        <ele>785</ele>
        <time>2019-12-17T09:51:51.000Z</time>
      </trkpt>
      <trkpt lat="43.36544" lon="5.98822">
        <ele>785</ele>
        <time>2019-12-17T09:51:52.000Z</time>
      </trkpt>
      <trkpt lat="43.36544" lon="5.98822">
        <ele>785</ele>
        <time>2019-12-17T09:51:53.000Z</time>
      </trkpt>
      <trkpt lat="43.36544" lon="5.98821">
        <ele>785</ele>
        <time>2019-12-17T09:51:54.000Z</time>
      </trkpt>
      <trkpt lat="43.36544" lon="5.98822">
        <ele>785</ele>
        <time>2019-12-17T09:51:55.000Z</time>
      </trkpt>
      <trkpt lat="43.36544" lon="5.98822">
        <ele>785</ele>
        <time>2019-12-17T09:51:56.000Z</time>
      </trkpt>
      <trkpt lat="43.36544" lon="5.98822">
        <ele>785</ele>
        <time>2019-12-17T09:51:57.000Z</time>
      </trkpt>
      <trkpt lat="43.36544" lon="5.98822">
        <ele>785</ele>
        <time>2019-12-17T09:51:58.000Z</time>
      </trkpt>
      <trkpt lat="43.36544" lon="5.98822">
        <ele>786</ele>
        <time>2019-12-17T09:51:59.000Z</time>
      </trkpt>
      <trkpt lat="43.36545" lon="5.98821">
        <ele>786</ele>
        <time>2019-12-17T09:52:00.000Z</time>
      </trkpt>
      <trkpt lat="43.36545" lon="5.98821">
        <ele>786</ele>
        <time>2019-12-17T09:52:01.000Z</time>
      </trkpt>
      <trkpt lat="43.36545" lon="5.98821">
        <ele>786</ele>
        <time>2019-12-17T09:52:02.000Z</time>
      </trkpt>
      <trkpt lat="43.36546" lon="5.98821">
        <ele>786</ele>
        <time>2019-12-17T09:52:03.000Z</time>
      </trkpt>
      <trkpt lat="43.36546" lon="5.98821">
        <ele>786</ele>
        <time>2019-12-17T09:52:04.000Z</time>
      </trkpt>
      <trkpt lat="43.36547" lon="5.98821">
        <ele>786</ele>
        <time>2019-12-17T09:52:05.000Z</time>
      </trkpt>
      <trkpt lat="43.36548" lon="5.98822">
        <ele>786</ele>
        <time>2019-12-17T09:52:06.000Z</time>
      </trkpt>
      <trkpt lat="43.36548" lon="5.98823">
        <ele>786</ele>
        <time>2019-12-17T09:52:07.000Z</time>
      </trkpt>
      <trkpt lat="43.36548" lon="5.98824">
        <ele>786</ele>
        <time>2019-12-17T09:52:08.000Z</time>
      </trkpt>
      <trkpt lat="43.36548" lon="5.98824">
        <ele>786</ele>
        <time>2019-12-17T09:52:09.000Z</time>
      </trkpt>
      <trkpt lat="43.36548" lon="5.98825">
        <ele>786</ele>
        <time>2019-12-17T09:52:10.000Z</time>
      </trkpt>
      <trkpt lat="43.36548" lon="5.98825">
        <ele>787</ele>
        <time>2019-12-17T09:52:11.000Z</time>
      </trkpt>
      <trkpt lat="43.36548" lon="5.98826">
        <ele>787</ele>
        <time>2019-12-17T09:52:12.000Z</time>
      </trkpt>
      <trkpt lat="43.36548" lon="5.98826">
        <ele>787</ele>
        <time>2019-12-17T09:52:13.000Z</time>
      </trkpt>
      <trkpt lat="43.36548" lon="5.98826">
        <ele>787</ele>
        <time>2019-12-17T09:52:14.000Z</time>
      </trkpt>
      <trkpt lat="43.36548" lon="5.98826">
        <ele>787</ele>
        <time>2019-12-17T09:52:15.000Z</time>
      </trkpt>
      <trkpt lat="43.36548" lon="5.98826">
        <ele>787</ele>
        <time>2019-12-17T09:52:16.000Z</time>
      </trkpt>
      <trkpt lat="43.36548" lon="5.98827">
        <ele>788</ele>
        <time>2019-12-17T09:52:17.000Z</time>
      </trkpt>
      <trkpt lat="43.36549" lon="5.98827">
        <ele>788</ele>
        <time>2019-12-17T09:52:18.000Z</time>
      </trkpt>
      <trkpt lat="43.36549" lon="5.98828">
        <ele>788</ele>
        <time>2019-12-17T09:52:19.000Z</time>
      </trkpt>
      <trkpt lat="43.36549" lon="5.98828">
        <ele>788</ele>
        <time>2019-12-17T09:52:20.000Z</time>
      </trkpt>
      <trkpt lat="43.36549" lon="5.98829">
        <ele>788</ele>
        <time>2019-12-17T09:52:21.000Z</time>
      </trkpt>
      <trkpt lat="43.36549" lon="5.9883">
        <ele>788</ele>
        <time>2019-12-17T09:52:22.000Z</time>
      </trkpt>
      <trkpt lat="43.36549" lon="5.9883">
        <ele>789</ele>
        <time>2019-12-17T09:52:23.000Z</time>
      </trkpt>
      <trkpt lat="43.3655" lon="5.9883">
        <ele>789</ele>
        <time>2019-12-17T09:52:24.000Z</time>
      </trkpt>
      <trkpt lat="43.3655" lon="5.9883">
        <ele>789</ele>
        <time>2019-12-17T09:52:25.000Z</time>
      </trkpt>
      <trkpt lat="43.3655" lon="5.9883">
        <ele>789</ele>
        <time>2019-12-17T09:52:26.000Z</time>
      </trkpt>
      <trkpt lat="43.36551" lon="5.9883">
        <ele>790</ele>
        <time>2019-12-17T09:52:27.000Z</time>
      </trkpt>
      <trkpt lat="43.36551" lon="5.9883">
        <ele>790</ele>
        <time>2019-12-17T09:52:28.000Z</time>
      </trkpt>
      <trkpt lat="43.36551" lon="5.9883">
        <ele>790</ele>
        <time>2019-12-17T09:52:29.000Z</time>
      </trkpt>
      <trkpt lat="43.36552" lon="5.98829">
        <ele>790</ele>
        <time>2019-12-17T09:52:30.000Z</time>
      </trkpt>
      <trkpt lat="43.36552" lon="5.98828">
        <ele>790</ele>
        <time>2019-12-17T09:52:31.000Z</time>
      </trkpt>
      <trkpt lat="43.36552" lon="5.98828">
        <ele>791</ele>
        <time>2019-12-17T09:52:32.000Z</time>
      </trkpt>
      <trkpt lat="43.36553" lon="5.98827">
        <ele>791</ele>
        <time>2019-12-17T09:52:33.000Z</time>
      </trkpt>
      <trkpt lat="43.36553" lon="5.98826">
        <ele>791</ele>
        <time>2019-12-17T09:52:34.000Z</time>
      </trkpt>
      <trkpt lat="43.36553" lon="5.98825">
        <ele>791</ele>
        <time>2019-12-17T09:52:35.000Z</time>
      </trkpt>
      <trkpt lat="43.36553" lon="5.98825">
        <ele>791</ele>
        <time>2019-12-17T09:52:36.000Z</time>
      </trkpt>
      <trkpt lat="43.36553" lon="5.98824">
        <ele>791</ele>
        <time>2019-12-17T09:52:37.000Z</time>
      </trkpt>
      <trkpt lat="43.36554" lon="5.98823">
        <ele>791</ele>
        <time>2019-12-17T09:52:38.000Z</time>
      </trkpt>
      <trkpt lat="43.36554" lon="5.98823">
        <ele>791</ele>
        <time>2019-12-17T09:52:39.000Z</time>
      </trkpt>
      <trkpt lat="43.36554" lon="5.98822">
        <ele>791</ele>
        <time>2019-12-17T09:52:40.000Z</time>
      </trkpt>
      <trkpt lat="43.36554" lon="5.98822">
        <ele>791</ele>
        <time>2019-12-17T09:52:41.000Z</time>
      </trkpt>
      <trkpt lat="43.36554" lon="5.98821">
        <ele>791</ele>
        <time>2019-12-17T09:52:42.000Z</time>
      </trkpt>
      <trkpt lat="43.36555" lon="5.98821">
        <ele>791</ele>
        <time>2019-12-17T09:52:43.000Z</time>
      </trkpt>
      <trkpt lat="43.36555" lon="5.9882">
        <ele>791</ele>
        <time>2019-12-17T09:52:44.000Z</time>
      </trkpt>
      <trkpt lat="43.36555" lon="5.9882">
        <ele>791</ele>
        <time>2019-12-17T09:52:45.000Z</time>
      </trkpt>
      <trkpt lat="43.36555" lon="5.9882">
        <ele>791</ele>
        <time>2019-12-17T09:52:46.000Z</time>
      </trkpt>
      <trkpt lat="43.36555" lon="5.9882">
        <ele>791</ele>
        <time>2019-12-17T09:52:47.000Z</time>
      </trkpt>
      <trkpt lat="43.36555" lon="5.9882">
        <ele>792</ele>
        <time>2019-12-17T09:52:48.000Z</time>
      </trkpt>
      <trkpt lat="43.36555" lon="5.9882">
        <ele>792</ele>
        <time>2019-12-17T09:52:49.000Z</time>
      </trkpt>
      <trkpt lat="43.36554" lon="5.9882">
        <ele>792</ele>
        <time>2019-12-17T09:52:50.000Z</time>
      </trkpt>
      <trkpt lat="43.36554" lon="5.9882">
        <ele>792</ele>
        <time>2019-12-17T09:52:51.000Z</time>
      </trkpt>
      <trkpt lat="43.36554" lon="5.9882">
        <ele>792</ele>
        <time>2019-12-17T09:52:52.000Z</time>
      </trkpt>
      <trkpt lat="43.36554" lon="5.9882">
        <ele>792</ele>
        <time>2019-12-17T09:52:53.000Z</time>
      </trkpt>
      <trkpt lat="43.36554" lon="5.9882">
        <ele>792</ele>
        <time>2019-12-17T09:52:54.000Z</time>
      </trkpt>
      <trkpt lat="43.36555" lon="5.9882">
        <ele>792</ele>
        <time>2019-12-17T09:52:55.000Z</time>
      </trkpt>
      <trkpt lat="43.36555" lon="5.9882">
        <ele>792</ele>
        <time>2019-12-17T09:52:56.000Z</time>
      </trkpt>
      <trkpt lat="43.36555" lon="5.9882">
        <ele>792</ele>
        <time>2019-12-17T09:52:57.000Z</time>
      </trkpt>
      <trkpt lat="43.36554" lon="5.9882">
        <ele>792</ele>
        <time>2019-12-17T09:52:58.000Z</time>
      </trkpt>
      <trkpt lat="43.36554" lon="5.9882">
        <ele>792</ele>
        <time>2019-12-17T09:52:59.000Z</time>
      </trkpt>
      <trkpt lat="43.36555" lon="5.9882">
        <ele>792</ele>
        <time>2019-12-17T09:53:00.000Z</time>
      </trkpt>
      <trkpt lat="43.36555" lon="5.9882">
        <ele>792</ele>
        <time>2019-12-17T09:53:01.000Z</time>
      </trkpt>
      <trkpt lat="43.36555" lon="5.98819">
        <ele>792</ele>
        <time>2019-12-17T09:53:02.000Z</time>
      </trkpt>
      <trkpt lat="43.36555" lon="5.98819">
        <ele>792</ele>
        <time>2019-12-17T09:53:03.000Z</time>
      </trkpt>
      <trkpt lat="43.36555" lon="5.98818">
        <ele>792</ele>
        <time>2019-12-17T09:53:04.000Z</time>
      </trkpt>
      <trkpt lat="43.36555" lon="5.98818">
        <ele>792</ele>
        <time>2019-12-17T09:53:05.000Z</time>
      </trkpt>
      <trkpt lat="43.36555" lon="5.98817">
        <ele>793</ele>
        <time>2019-12-17T09:53:06.000Z</time>
      </trkpt>
      <trkpt lat="43.36555" lon="5.98817">
        <ele>793</ele>
        <time>2019-12-17T09:53:07.000Z</time>
      </trkpt>
      <trkpt lat="43.36555" lon="5.98817">
        <ele>793</ele>
        <time>2019-12-17T09:53:08.000Z</time>
      </trkpt>
      <trkpt lat="43.36555" lon="5.98817">
        <ele>793</ele>
        <time>2019-12-17T09:53:09.000Z</time>
      </trkpt>
      <trkpt lat="43.36555" lon="5.98817">
        <ele>793</ele>
        <time>2019-12-17T09:53:10.000Z</time>
      </trkpt>
      <trkpt lat="43.36555" lon="5.98817">
        <ele>793</ele>
        <time>2019-12-17T09:53:11.000Z</time>
      </trkpt>
      <trkpt lat="43.36555" lon="5.98817">
        <ele>793</ele>
        <time>2019-12-17T09:53:12.000Z</time>
      </trkpt>
      <trkpt lat="43.36555" lon="5.98816">
        <ele>793</ele>
        <time>2019-12-17T09:53:13.000Z</time>
      </trkpt>
      <trkpt lat="43.36555" lon="5.98816">
        <ele>793</ele>
        <time>2019-12-17T09:53:14.000Z</time>
      </trkpt>
      <trkpt lat="43.36556" lon="5.98816">
        <ele>793</ele>
        <time>2019-12-17T09:53:15.000Z</time>
      </trkpt>
      <trkpt lat="43.36556" lon="5.98816">
        <ele>793</ele>
        <time>2019-12-17T09:53:16.000Z</time>
      </trkpt>
      <trkpt lat="43.36556" lon="5.98815">
        <ele>793</ele>
        <time>2019-12-17T09:53:17.000Z</time>
      </trkpt>
      <trkpt lat="43.36557" lon="5.98815">
        <ele>793</ele>
        <time>2019-12-17T09:53:18.000Z</time>
      </trkpt>
      <trkpt lat="43.36557" lon="5.98816">
        <ele>793</ele>
        <time>2019-12-17T09:53:19.000Z</time>
      </trkpt>
      <trkpt lat="43.36557" lon="5.98816">
        <ele>794</ele>
        <time>2019-12-17T09:53:20.000Z</time>
      </trkpt>
      <trkpt lat="43.36557" lon="5.98816">
        <ele>794</ele>
        <time>2019-12-17T09:53:21.000Z</time>
      </trkpt>
      <trkpt lat="43.36557" lon="5.98816">
        <ele>794</ele>
        <time>2019-12-17T09:53:22.000Z</time>
      </trkpt>
      <trkpt lat="43.36557" lon="5.98816">
        <ele>794</ele>
        <time>2019-12-17T09:53:23.000Z</time>
      </trkpt>
      <trkpt lat="43.36557" lon="5.98815">
        <ele>794</ele>
        <time>2019-12-17T09:53:24.000Z</time>
      </trkpt>
      <trkpt lat="43.36557" lon="5.98815">
        <ele>794</ele>
        <time>2019-12-17T09:53:25.000Z</time>
      </trkpt>
      <trkpt lat="43.36557" lon="5.98815">
        <ele>794</ele>
        <time>2019-12-17T09:53:26.000Z</time>
      </trkpt>
      <trkpt lat="43.36557" lon="5.98815">
        <ele>794</ele>
        <time>2019-12-17T09:53:27.000Z</time>
      </trkpt>
      <trkpt lat="43.36557" lon="5.98815">
        <ele>794</ele>
        <time>2019-12-17T09:53:28.000Z</time>
      </trkpt>
      <trkpt lat="43.36558" lon="5.98815">
        <ele>794</ele>
        <time>2019-12-17T09:53:29.000Z</time>
      </trkpt>
      <trkpt lat="43.36558" lon="5.98815">
        <ele>794</ele>
        <time>2019-12-17T09:53:30.000Z</time>
      </trkpt>
      <trkpt lat="43.36559" lon="5.98815">
        <ele>794</ele>
        <time>2019-12-17T09:53:31.000Z</time>
      </trkpt>
      <trkpt lat="43.36559" lon="5.98816">
        <ele>794</ele>
        <time>2019-12-17T09:53:32.000Z</time>
      </trkpt>
      <trkpt lat="43.3656" lon="5.98816">
        <ele>794</ele>
        <time>2019-12-17T09:53:33.000Z</time>
      </trkpt>
      <trkpt lat="43.3656" lon="5.98816">
        <ele>794</ele>
        <time>2019-12-17T09:53:34.000Z</time>
      </trkpt>
      <trkpt lat="43.36561" lon="5.98817">
        <ele>794</ele>
        <time>2019-12-17T09:53:35.000Z</time>
      </trkpt>
      <trkpt lat="43.36561" lon="5.98817">
        <ele>794</ele>
        <time>2019-12-17T09:53:36.000Z</time>
      </trkpt>
      <trkpt lat="43.36562" lon="5.98817">
        <ele>794</ele>
        <time>2019-12-17T09:53:37.000Z</time>
      </trkpt>
      <trkpt lat="43.36562" lon="5.98817">
        <ele>794</ele>
        <time>2019-12-17T09:53:38.000Z</time>
      </trkpt>
      <trkpt lat="43.36562" lon="5.98817">
        <ele>794</ele>
        <time>2019-12-17T09:53:39.000Z</time>
      </trkpt>
      <trkpt lat="43.36562" lon="5.98817">
        <ele>794</ele>
        <time>2019-12-17T09:53:40.000Z</time>
      </trkpt>
      <trkpt lat="43.36562" lon="5.98817">
        <ele>794</ele>
        <time>2019-12-17T09:53:41.000Z</time>
      </trkpt>
      <trkpt lat="43.36562" lon="5.98817">
        <ele>794</ele>
        <time>2019-12-17T09:53:42.000Z</time>
      </trkpt>
      <trkpt lat="43.36562" lon="5.98817">
        <ele>794</ele>
        <time>2019-12-17T09:53:43.000Z</time>
      </trkpt>
      <trkpt lat="43.36562" lon="5.98817">
        <ele>794</ele>
        <time>2019-12-17T09:53:44.000Z</time>
      </trkpt>
      <trkpt lat="43.36562" lon="5.98817">
        <ele>794</ele>
        <time>2019-12-17T09:53:45.000Z</time>
      </trkpt>
      <trkpt lat="43.36562" lon="5.98817">
        <ele>794</ele>
        <time>2019-12-17T09:53:46.000Z</time>
      </trkpt>
      <trkpt lat="43.36562" lon="5.98818">
        <ele>794</ele>
        <time>2019-12-17T09:53:47.000Z</time>
      </trkpt>
      <trkpt lat="43.36562" lon="5.98818">
        <ele>795</ele>
        <time>2019-12-17T09:53:48.000Z</time>
      </trkpt>
      <trkpt lat="43.36563" lon="5.98819">
        <ele>795</ele>
        <time>2019-12-17T09:53:49.000Z</time>
      </trkpt>
      <trkpt lat="43.36563" lon="5.98819">
        <ele>795</ele>
        <time>2019-12-17T09:53:50.000Z</time>
      </trkpt>
      <trkpt lat="43.36564" lon="5.9882">
        <ele>795</ele>
        <time>2019-12-17T09:53:51.000Z</time>
      </trkpt>
      <trkpt lat="43.36564" lon="5.9882">
        <ele>795</ele>
        <time>2019-12-17T09:53:52.000Z</time>
      </trkpt>
      <trkpt lat="43.36565" lon="5.9882">
        <ele>795</ele>
        <time>2019-12-17T09:53:53.000Z</time>
      </trkpt>
      <trkpt lat="43.36565" lon="5.98821">
        <ele>795</ele>
        <time>2019-12-17T09:53:54.000Z</time>
      </trkpt>
      <trkpt lat="43.36564" lon="5.98821">
        <ele>795</ele>
        <time>2019-12-17T09:53:55.000Z</time>
      </trkpt>
      <trkpt lat="43.36564" lon="5.9882">
        <ele>795</ele>
        <time>2019-12-17T09:53:56.000Z</time>
      </trkpt>
      <trkpt lat="43.36564" lon="5.9882">
        <ele>795</ele>
        <time>2019-12-17T09:53:57.000Z</time>
      </trkpt>
      <trkpt lat="43.36564" lon="5.9882">
        <ele>795</ele>
        <time>2019-12-17T09:53:58.000Z</time>
      </trkpt>
      <trkpt lat="43.36564" lon="5.9882">
        <ele>795</ele>
        <time>2019-12-17T09:53:59.000Z</time>
      </trkpt>
      <trkpt lat="43.36564" lon="5.98821">
        <ele>795</ele>
        <time>2019-12-17T09:54:00.000Z</time>
      </trkpt>
      <trkpt lat="43.36564" lon="5.98821">
        <ele>795</ele>
        <time>2019-12-17T09:54:01.000Z</time>
      </trkpt>
      <trkpt lat="43.36564" lon="5.98822">
        <ele>795</ele>
        <time>2019-12-17T09:54:02.000Z</time>
      </trkpt>
      <trkpt lat="43.36564" lon="5.98822">
        <ele>795</ele>
        <time>2019-12-17T09:54:03.000Z</time>
      </trkpt>
      <trkpt lat="43.36564" lon="5.98823">
        <ele>795</ele>
        <time>2019-12-17T09:54:04.000Z</time>
      </trkpt>
      <trkpt lat="43.36564" lon="5.98823">
        <ele>795</ele>
        <time>2019-12-17T09:54:05.000Z</time>
      </trkpt>
      <trkpt lat="43.36564" lon="5.98824">
        <ele>795</ele>
        <time>2019-12-17T09:54:06.000Z</time>
      </trkpt>
      <trkpt lat="43.36565" lon="5.98824">
        <ele>795</ele>
        <time>2019-12-17T09:54:07.000Z</time>
      </trkpt>
      <trkpt lat="43.36565" lon="5.98824">
        <ele>795</ele>
        <time>2019-12-17T09:54:08.000Z</time>
      </trkpt>
      <trkpt lat="43.36565" lon="5.98823">
        <ele>795</ele>
        <time>2019-12-17T09:54:09.000Z</time>
      </trkpt>
      <trkpt lat="43.36565" lon="5.98823">
        <ele>795</ele>
        <time>2019-12-17T09:54:10.000Z</time>
      </trkpt>
      <trkpt lat="43.36565" lon="5.98823">
        <ele>795</ele>
        <time>2019-12-17T09:54:11.000Z</time>
      </trkpt>
      <trkpt lat="43.36565" lon="5.98823">
        <ele>795</ele>
        <time>2019-12-17T09:54:12.000Z</time>
      </trkpt>
      <trkpt lat="43.36565" lon="5.98823">
        <ele>795</ele>
        <time>2019-12-17T09:54:13.000Z</time>
      </trkpt>
      <trkpt lat="43.36565" lon="5.98823">
        <ele>795</ele>
        <time>2019-12-17T09:54:14.000Z</time>
      </trkpt>
      <trkpt lat="43.36565" lon="5.98823">
        <ele>795</ele>
        <time>2019-12-17T09:54:15.000Z</time>
      </trkpt>
      <trkpt lat="43.36566" lon="5.98823">
        <ele>795</ele>
        <time>2019-12-17T09:54:16.000Z</time>
      </trkpt>
      <trkpt lat="43.36566" lon="5.98823">
        <ele>795</ele>
        <time>2019-12-17T09:54:17.000Z</time>
      </trkpt>
      <trkpt lat="43.36566" lon="5.98823">
        <ele>795</ele>
        <time>2019-12-17T09:54:18.000Z</time>
      </trkpt>
      <trkpt lat="43.36565" lon="5.98823">
        <ele>795</ele>
        <time>2019-12-17T09:54:19.000Z</time>
      </trkpt>
      <trkpt lat="43.36565" lon="5.98824">
        <ele>795</ele>
        <time>2019-12-17T09:54:20.000Z</time>
      </trkpt>
      <trkpt lat="43.36565" lon="5.98824">
        <ele>795</ele>
        <time>2019-12-17T09:54:21.000Z</time>
      </trkpt>
      <trkpt lat="43.36564" lon="5.98825">
        <ele>795</ele>
        <time>2019-12-17T09:54:22.000Z</time>
      </trkpt>
      <trkpt lat="43.36564" lon="5.98825">
        <ele>795</ele>
        <time>2019-12-17T09:54:23.000Z</time>
      </trkpt>
      <trkpt lat="43.36563" lon="5.98826">
        <ele>796</ele>
        <time>2019-12-17T09:54:24.000Z</time>
      </trkpt>
      <trkpt lat="43.36564" lon="5.98827">
        <ele>796</ele>
        <time>2019-12-17T09:54:25.000Z</time>
      </trkpt>
      <trkpt lat="43.36564" lon="5.98827">
        <ele>796</ele>
        <time>2019-12-17T09:54:26.000Z</time>
      </trkpt>
      <trkpt lat="43.36564" lon="5.98827">
        <ele>796</ele>
        <time>2019-12-17T09:54:27.000Z</time>
      </trkpt>
      <trkpt lat="43.36565" lon="5.98827">
        <ele>796</ele>
        <time>2019-12-17T09:54:28.000Z</time>
      </trkpt>
      <trkpt lat="43.36566" lon="5.98827">
        <ele>796</ele>
        <time>2019-12-17T09:54:29.000Z</time>
      </trkpt>
      <trkpt lat="43.36566" lon="5.98827">
        <ele>796</ele>
        <time>2019-12-17T09:54:30.000Z</time>
      </trkpt>
      <trkpt lat="43.36567" lon="5.98827">
        <ele>796</ele>
        <time>2019-12-17T09:54:31.000Z</time>
      </trkpt>
      <trkpt lat="43.36567" lon="5.98827">
        <ele>796</ele>
        <time>2019-12-17T09:54:32.000Z</time>
      </trkpt>
      <trkpt lat="43.36567" lon="5.98827">
        <ele>796</ele>
        <time>2019-12-17T09:54:33.000Z</time>
      </trkpt>
      <trkpt lat="43.36567" lon="5.98827">
        <ele>795</ele>
        <time>2019-12-17T09:54:34.000Z</time>
      </trkpt>
      <trkpt lat="43.36567" lon="5.98827">
        <ele>795</ele>
        <time>2019-12-17T09:54:41.000Z</time>
      </trkpt>
      <trkpt lat="43.36567" lon="5.98827">
        <ele>795</ele>
        <time>2019-12-17T09:54:42.000Z</time>
      </trkpt>
      <trkpt lat="43.36569" lon="5.98824">
        <ele>795</ele>
        <time>2019-12-17T09:54:43.000Z</time>
      </trkpt>
      <trkpt lat="43.36569" lon="5.98824">
        <ele>796</ele>
        <time>2019-12-17T09:54:46.000Z</time>
      </trkpt>
      <trkpt lat="43.36569" lon="5.98824">
        <ele>796</ele>
        <time>2019-12-17T09:54:47.000Z</time>
      </trkpt>
      <trkpt lat="43.36571" lon="5.98822">
        <ele>796</ele>
        <time>2019-12-17T09:54:48.000Z</time>
      </trkpt>
      <trkpt lat="43.36572" lon="5.98822">
        <ele>796</ele>
        <time>2019-12-17T09:54:49.000Z</time>
      </trkpt>
      <trkpt lat="43.36573" lon="5.98822">
        <ele>797</ele>
        <time>2019-12-17T09:54:50.000Z</time>
      </trkpt>
      <trkpt lat="43.36575" lon="5.98821">
        <ele>797</ele>
        <time>2019-12-17T09:54:51.000Z</time>
      </trkpt>
      <trkpt lat="43.36576" lon="5.98821">
        <ele>797</ele>
        <time>2019-12-17T09:54:52.000Z</time>
      </trkpt>
      <trkpt lat="43.36576" lon="5.98821">
        <ele>797</ele>
        <time>2019-12-17T09:54:53.000Z</time>
      </trkpt>
      <trkpt lat="43.36577" lon="5.98822">
        <ele>797</ele>
        <time>2019-12-17T09:54:54.000Z</time>
      </trkpt>
      <trkpt lat="43.36577" lon="5.98822">
        <ele>797</ele>
        <time>2019-12-17T09:54:55.000Z</time>
      </trkpt>
      <trkpt lat="43.36577" lon="5.98822">
        <ele>797</ele>
        <time>2019-12-17T09:54:56.000Z</time>
      </trkpt>
      <trkpt lat="43.36577" lon="5.98823">
        <ele>797</ele>
        <time>2019-12-17T09:54:57.000Z</time>
      </trkpt>
      <trkpt lat="43.36577" lon="5.98823">
        <ele>797</ele>
        <time>2019-12-17T09:54:58.000Z</time>
      </trkpt>
      <trkpt lat="43.36578" lon="5.98823">
        <ele>797</ele>
        <time>2019-12-17T09:54:59.000Z</time>
      </trkpt>
      <trkpt lat="43.36578" lon="5.98824">
        <ele>797</ele>
        <time>2019-12-17T09:55:00.000Z</time>
      </trkpt>
      <trkpt lat="43.36578" lon="5.98824">
        <ele>797</ele>
        <time>2019-12-17T09:55:01.000Z</time>
      </trkpt>
      <trkpt lat="43.36577" lon="5.98825">
        <ele>797</ele>
        <time>2019-12-17T09:55:02.000Z</time>
      </trkpt>
      <trkpt lat="43.36577" lon="5.98826">
        <ele>797</ele>
        <time>2019-12-17T09:55:03.000Z</time>
      </trkpt>
      <trkpt lat="43.36576" lon="5.98827">
        <ele>797</ele>
        <time>2019-12-17T09:55:04.000Z</time>
      </trkpt>
      <trkpt lat="43.36576" lon="5.98828">
        <ele>797</ele>
        <time>2019-12-17T09:55:05.000Z</time>
      </trkpt>
      <trkpt lat="43.36575" lon="5.98829">
        <ele>798</ele>
        <time>2019-12-17T09:55:06.000Z</time>
      </trkpt>
      <trkpt lat="43.36574" lon="5.9883">
        <ele>798</ele>
        <time>2019-12-17T09:55:07.000Z</time>
      </trkpt>
      <trkpt lat="43.36574" lon="5.98831">
        <ele>799</ele>
        <time>2019-12-17T09:55:08.000Z</time>
      </trkpt>
      <trkpt lat="43.36573" lon="5.98832">
        <ele>799</ele>
        <time>2019-12-17T09:55:09.000Z</time>
      </trkpt>
      <trkpt lat="43.36573" lon="5.98834">
        <ele>799</ele>
        <time>2019-12-17T09:55:10.000Z</time>
      </trkpt>
      <trkpt lat="43.36573" lon="5.98835">
        <ele>799</ele>
        <time>2019-12-17T09:55:11.000Z</time>
      </trkpt>
      <trkpt lat="43.36572" lon="5.98836">
        <ele>800</ele>
        <time>2019-12-17T09:55:12.000Z</time>
      </trkpt>
      <trkpt lat="43.36571" lon="5.98837">
        <ele>800</ele>
        <time>2019-12-17T09:55:13.000Z</time>
      </trkpt>
      <trkpt lat="43.36571" lon="5.98838">
        <ele>800</ele>
        <time>2019-12-17T09:55:14.000Z</time>
      </trkpt>
      <trkpt lat="43.36571" lon="5.98839">
        <ele>800</ele>
        <time>2019-12-17T09:55:15.000Z</time>
      </trkpt>
      <trkpt lat="43.3657" lon="5.9884">
        <ele>800</ele>
        <time>2019-12-17T09:55:16.000Z</time>
      </trkpt>
      <trkpt lat="43.3657" lon="5.98841">
        <ele>800</ele>
        <time>2019-12-17T09:55:17.000Z</time>
      </trkpt>
      <trkpt lat="43.36569" lon="5.98842">
        <ele>800</ele>
        <time>2019-12-17T09:55:18.000Z</time>
      </trkpt>
      <trkpt lat="43.36569" lon="5.98843">
        <ele>801</ele>
        <time>2019-12-17T09:55:19.000Z</time>
      </trkpt>
      <trkpt lat="43.36569" lon="5.98844">
        <ele>801</ele>
        <time>2019-12-17T09:55:20.000Z</time>
      </trkpt>
      <trkpt lat="43.3657" lon="5.98845">
        <ele>801</ele>
        <time>2019-12-17T09:55:21.000Z</time>
      </trkpt>
      <trkpt lat="43.3657" lon="5.98846">
        <ele>801</ele>
        <time>2019-12-17T09:55:22.000Z</time>
      </trkpt>
      <trkpt lat="43.3657" lon="5.98846">
        <ele>801</ele>
        <time>2019-12-17T09:55:23.000Z</time>
      </trkpt>
      <trkpt lat="43.3657" lon="5.98847">
        <ele>801</ele>
        <time>2019-12-17T09:55:24.000Z</time>
      </trkpt>
      <trkpt lat="43.36571" lon="5.98847">
        <ele>801</ele>
        <time>2019-12-17T09:55:25.000Z</time>
      </trkpt>
      <trkpt lat="43.36571" lon="5.98848">
        <ele>801</ele>
        <time>2019-12-17T09:55:26.000Z</time>
      </trkpt>
      <trkpt lat="43.36571" lon="5.98848">
        <ele>801</ele>
        <time>2019-12-17T09:55:27.000Z</time>
      </trkpt>
      <trkpt lat="43.36572" lon="5.98848">
        <ele>801</ele>
        <time>2019-12-17T09:55:28.000Z</time>
      </trkpt>
      <trkpt lat="43.36572" lon="5.98849">
        <ele>801</ele>
        <time>2019-12-17T09:55:29.000Z</time>
      </trkpt>
      <trkpt lat="43.36572" lon="5.98849">
        <ele>801</ele>
        <time>2019-12-17T09:55:30.000Z</time>
      </trkpt>
      <trkpt lat="43.36572" lon="5.9885">
        <ele>801</ele>
        <time>2019-12-17T09:55:31.000Z</time>
      </trkpt>
      <trkpt lat="43.36572" lon="5.98851">
        <ele>801</ele>
        <time>2019-12-17T09:55:32.000Z</time>
      </trkpt>
      <trkpt lat="43.36572" lon="5.98851">
        <ele>801</ele>
        <time>2019-12-17T09:55:33.000Z</time>
      </trkpt>
      <trkpt lat="43.36572" lon="5.98852">
        <ele>801</ele>
        <time>2019-12-17T09:55:34.000Z</time>
      </trkpt>
      <trkpt lat="43.36573" lon="5.98852">
        <ele>801</ele>
        <time>2019-12-17T09:55:35.000Z</time>
      </trkpt>
      <trkpt lat="43.36573" lon="5.98852">
        <ele>801</ele>
        <time>2019-12-17T09:55:36.000Z</time>
      </trkpt>
      <trkpt lat="43.36573" lon="5.98852">
        <ele>801</ele>
        <time>2019-12-17T09:55:37.000Z</time>
      </trkpt>
      <trkpt lat="43.36573" lon="5.98852">
        <ele>801</ele>
        <time>2019-12-17T09:55:38.000Z</time>
      </trkpt>
      <trkpt lat="43.36573" lon="5.98852">
        <ele>801</ele>
        <time>2019-12-17T09:55:39.000Z</time>
      </trkpt>
      <trkpt lat="43.36574" lon="5.98852">
        <ele>801</ele>
        <time>2019-12-17T09:55:40.000Z</time>
      </trkpt>
      <trkpt lat="43.36574" lon="5.98852">
        <ele>801</ele>
        <time>2019-12-17T09:55:41.000Z</time>
      </trkpt>
      <trkpt lat="43.36574" lon="5.98852">
        <ele>801</ele>
        <time>2019-12-17T09:55:42.000Z</time>
      </trkpt>
      <trkpt lat="43.36574" lon="5.98852">
        <ele>801</ele>
        <time>2019-12-17T09:55:43.000Z</time>
      </trkpt>
      <trkpt lat="43.36575" lon="5.98852">
        <ele>802</ele>
        <time>2019-12-17T09:55:44.000Z</time>
      </trkpt>
      <trkpt lat="43.36575" lon="5.98853">
        <ele>802</ele>
        <time>2019-12-17T09:55:45.000Z</time>
      </trkpt>
      <trkpt lat="43.36575" lon="5.98853">
        <ele>802</ele>
        <time>2019-12-17T09:55:46.000Z</time>
      </trkpt>
      <trkpt lat="43.36576" lon="5.98853">
        <ele>802</ele>
        <time>2019-12-17T09:55:47.000Z</time>
      </trkpt>
      <trkpt lat="43.36576" lon="5.98853">
        <ele>802</ele>
        <time>2019-12-17T09:55:48.000Z</time>
      </trkpt>
      <trkpt lat="43.36577" lon="5.98854">
        <ele>802</ele>
        <time>2019-12-17T09:55:49.000Z</time>
      </trkpt>
      <trkpt lat="43.36577" lon="5.98854">
        <ele>802</ele>
        <time>2019-12-17T09:55:50.000Z</time>
      </trkpt>
      <trkpt lat="43.36578" lon="5.98853">
        <ele>802</ele>
        <time>2019-12-17T09:55:51.000Z</time>
      </trkpt>
      <trkpt lat="43.36578" lon="5.98854">
        <ele>802</ele>
        <time>2019-12-17T09:55:52.000Z</time>
      </trkpt>
      <trkpt lat="43.36578" lon="5.98854">
        <ele>802</ele>
        <time>2019-12-17T09:55:53.000Z</time>
      </trkpt>
      <trkpt lat="43.36579" lon="5.98854">
        <ele>802</ele>
        <time>2019-12-17T09:55:54.000Z</time>
      </trkpt>
      <trkpt lat="43.36579" lon="5.98854">
        <ele>802</ele>
        <time>2019-12-17T09:55:55.000Z</time>
      </trkpt>
      <trkpt lat="43.36579" lon="5.98854">
        <ele>802</ele>
        <time>2019-12-17T09:55:56.000Z</time>
      </trkpt>
      <trkpt lat="43.36579" lon="5.98854">
        <ele>803</ele>
        <time>2019-12-17T09:55:57.000Z</time>
      </trkpt>
      <trkpt lat="43.36579" lon="5.98854">
        <ele>803</ele>
        <time>2019-12-17T09:55:58.000Z</time>
      </trkpt>
      <trkpt lat="43.36579" lon="5.98854">
        <ele>803</ele>
        <time>2019-12-17T09:55:59.000Z</time>
      </trkpt>
      <trkpt lat="43.36579" lon="5.98854">
        <ele>803</ele>
        <time>2019-12-17T09:56:00.000Z</time>
      </trkpt>
      <trkpt lat="43.36579" lon="5.98854">
        <ele>803</ele>
        <time>2019-12-17T09:56:01.000Z</time>
      </trkpt>
      <trkpt lat="43.36579" lon="5.98854">
        <ele>803</ele>
        <time>2019-12-17T09:56:02.000Z</time>
      </trkpt>
      <trkpt lat="43.36579" lon="5.98854">
        <ele>803</ele>
        <time>2019-12-17T09:56:03.000Z</time>
      </trkpt>
      <trkpt lat="43.3658" lon="5.98855">
        <ele>803</ele>
        <time>2019-12-17T09:56:04.000Z</time>
      </trkpt>
      <trkpt lat="43.3658" lon="5.98856">
        <ele>803</ele>
        <time>2019-12-17T09:56:05.000Z</time>
      </trkpt>
      <trkpt lat="43.36581" lon="5.98857">
        <ele>803</ele>
        <time>2019-12-17T09:56:06.000Z</time>
      </trkpt>
      <trkpt lat="43.36581" lon="5.98858">
        <ele>803</ele>
        <time>2019-12-17T09:56:07.000Z</time>
      </trkpt>
      <trkpt lat="43.36581" lon="5.98859">
        <ele>803</ele>
        <time>2019-12-17T09:56:08.000Z</time>
      </trkpt>
      <trkpt lat="43.36581" lon="5.9886">
        <ele>803</ele>
        <time>2019-12-17T09:56:09.000Z</time>
      </trkpt>
      <trkpt lat="43.36582" lon="5.98862">
        <ele>803</ele>
        <time>2019-12-17T09:56:10.000Z</time>
      </trkpt>
      <trkpt lat="43.36582" lon="5.98863">
        <ele>803</ele>
        <time>2019-12-17T09:56:11.000Z</time>
      </trkpt>
      <trkpt lat="43.36582" lon="5.98864">
        <ele>804</ele>
        <time>2019-12-17T09:56:12.000Z</time>
      </trkpt>
      <trkpt lat="43.36582" lon="5.98865">
        <ele>804</ele>
        <time>2019-12-17T09:56:13.000Z</time>
      </trkpt>
      <trkpt lat="43.36581" lon="5.98866">
        <ele>804</ele>
        <time>2019-12-17T09:56:14.000Z</time>
      </trkpt>
      <trkpt lat="43.36581" lon="5.98867">
        <ele>804</ele>
        <time>2019-12-17T09:56:15.000Z</time>
      </trkpt>
      <trkpt lat="43.36581" lon="5.98868">
        <ele>804</ele>
        <time>2019-12-17T09:56:16.000Z</time>
      </trkpt>
      <trkpt lat="43.36581" lon="5.98869">
        <ele>804</ele>
        <time>2019-12-17T09:56:17.000Z</time>
      </trkpt>
      <trkpt lat="43.36581" lon="5.9887">
        <ele>804</ele>
        <time>2019-12-17T09:56:18.000Z</time>
      </trkpt>
      <trkpt lat="43.36581" lon="5.98871">
        <ele>804</ele>
        <time>2019-12-17T09:56:19.000Z</time>
      </trkpt>
      <trkpt lat="43.36581" lon="5.98872">
        <ele>804</ele>
        <time>2019-12-17T09:56:20.000Z</time>
      </trkpt>
      <trkpt lat="43.36582" lon="5.98873">
        <ele>804</ele>
        <time>2019-12-17T09:56:21.000Z</time>
      </trkpt>
      <trkpt lat="43.36582" lon="5.98874">
        <ele>804</ele>
        <time>2019-12-17T09:56:22.000Z</time>
      </trkpt>
      <trkpt lat="43.36583" lon="5.98875">
        <ele>804</ele>
        <time>2019-12-17T09:56:23.000Z</time>
      </trkpt>
      <trkpt lat="43.36583" lon="5.98876">
        <ele>804</ele>
        <time>2019-12-17T09:56:24.000Z</time>
      </trkpt>
      <trkpt lat="43.36583" lon="5.98877">
        <ele>805</ele>
        <time>2019-12-17T09:56:25.000Z</time>
      </trkpt>
      <trkpt lat="43.36584" lon="5.98878">
        <ele>805</ele>
        <time>2019-12-17T09:56:26.000Z</time>
      </trkpt>
      <trkpt lat="43.36584" lon="5.98879">
        <ele>805</ele>
        <time>2019-12-17T09:56:27.000Z</time>
      </trkpt>
      <trkpt lat="43.36584" lon="5.9888">
        <ele>805</ele>
        <time>2019-12-17T09:56:28.000Z</time>
      </trkpt>
      <trkpt lat="43.36585" lon="5.98881">
        <ele>805</ele>
        <time>2019-12-17T09:56:29.000Z</time>
      </trkpt>
      <trkpt lat="43.36585" lon="5.98882">
        <ele>805</ele>
        <time>2019-12-17T09:56:30.000Z</time>
      </trkpt>
      <trkpt lat="43.36586" lon="5.98883">
        <ele>805</ele>
        <time>2019-12-17T09:56:31.000Z</time>
      </trkpt>
      <trkpt lat="43.36586" lon="5.98884">
        <ele>805</ele>
        <time>2019-12-17T09:56:32.000Z</time>
      </trkpt>
      <trkpt lat="43.36587" lon="5.98885">
        <ele>806</ele>
        <time>2019-12-17T09:56:33.000Z</time>
      </trkpt>
      <trkpt lat="43.36588" lon="5.98886">
        <ele>806</ele>
        <time>2019-12-17T09:56:34.000Z</time>
      </trkpt>
      <trkpt lat="43.36588" lon="5.98887">
        <ele>806</ele>
        <time>2019-12-17T09:56:35.000Z</time>
      </trkpt>
      <trkpt lat="43.36589" lon="5.98887">
        <ele>806</ele>
        <time>2019-12-17T09:56:36.000Z</time>
      </trkpt>
      <trkpt lat="43.36589" lon="5.98887">
        <ele>806</ele>
        <time>2019-12-17T09:56:37.000Z</time>
      </trkpt>
      <trkpt lat="43.3659" lon="5.98888">
        <ele>806</ele>
        <time>2019-12-17T09:56:38.000Z</time>
      </trkpt>
      <trkpt lat="43.36591" lon="5.98889">
        <ele>806</ele>
        <time>2019-12-17T09:56:39.000Z</time>
      </trkpt>
      <trkpt lat="43.36591" lon="5.9889">
        <ele>807</ele>
        <time>2019-12-17T09:56:40.000Z</time>
      </trkpt>
      <trkpt lat="43.36592" lon="5.98891">
        <ele>807</ele>
        <time>2019-12-17T09:56:41.000Z</time>
      </trkpt>
      <trkpt lat="43.36593" lon="5.98892">
        <ele>807</ele>
        <time>2019-12-17T09:56:42.000Z</time>
      </trkpt>
      <trkpt lat="43.36593" lon="5.98892">
        <ele>807</ele>
        <time>2019-12-17T09:56:43.000Z</time>
      </trkpt>
      <trkpt lat="43.36594" lon="5.98893">
        <ele>807</ele>
        <time>2019-12-17T09:56:44.000Z</time>
      </trkpt>
      <trkpt lat="43.36595" lon="5.98894">
        <ele>807</ele>
        <time>2019-12-17T09:56:45.000Z</time>
      </trkpt>
      <trkpt lat="43.36595" lon="5.98895">
        <ele>808</ele>
        <time>2019-12-17T09:56:46.000Z</time>
      </trkpt>
      <trkpt lat="43.36596" lon="5.98896">
        <ele>808</ele>
        <time>2019-12-17T09:56:47.000Z</time>
      </trkpt>
      <trkpt lat="43.36596" lon="5.98897">
        <ele>808</ele>
        <time>2019-12-17T09:56:48.000Z</time>
      </trkpt>
      <trkpt lat="43.36597" lon="5.98897">
        <ele>808</ele>
        <time>2019-12-17T09:56:49.000Z</time>
      </trkpt>
      <trkpt lat="43.36597" lon="5.98898">
        <ele>808</ele>
        <time>2019-12-17T09:56:50.000Z</time>
      </trkpt>
      <trkpt lat="43.36598" lon="5.98899">
        <ele>808</ele>
        <time>2019-12-17T09:56:51.000Z</time>
      </trkpt>
      <trkpt lat="43.36599" lon="5.989">
        <ele>808</ele>
        <time>2019-12-17T09:56:52.000Z</time>
      </trkpt>
      <trkpt lat="43.36599" lon="5.98901">
        <ele>808</ele>
        <time>2019-12-17T09:56:53.000Z</time>
      </trkpt>
      <trkpt lat="43.366" lon="5.98901">
        <ele>808</ele>
        <time>2019-12-17T09:56:54.000Z</time>
      </trkpt>
      <trkpt lat="43.36601" lon="5.98902">
        <ele>808</ele>
        <time>2019-12-17T09:56:55.000Z</time>
      </trkpt>
      <trkpt lat="43.36601" lon="5.98902">
        <ele>808</ele>
        <time>2019-12-17T09:56:56.000Z</time>
      </trkpt>
      <trkpt lat="43.36602" lon="5.98902">
        <ele>809</ele>
        <time>2019-12-17T09:56:57.000Z</time>
      </trkpt>
      <trkpt lat="43.36603" lon="5.98902">
        <ele>809</ele>
        <time>2019-12-17T09:56:58.000Z</time>
      </trkpt>
      <trkpt lat="43.36604" lon="5.98903">
        <ele>809</ele>
        <time>2019-12-17T09:56:59.000Z</time>
      </trkpt>
      <trkpt lat="43.36605" lon="5.98903">
        <ele>809</ele>
        <time>2019-12-17T09:57:00.000Z</time>
      </trkpt>
      <trkpt lat="43.36606" lon="5.98903">
        <ele>809</ele>
        <time>2019-12-17T09:57:01.000Z</time>
      </trkpt>
      <trkpt lat="43.36606" lon="5.98903">
        <ele>809</ele>
        <time>2019-12-17T09:57:02.000Z</time>
      </trkpt>
      <trkpt lat="43.36607" lon="5.98904">
        <ele>809</ele>
        <time>2019-12-17T09:57:03.000Z</time>
      </trkpt>
      <trkpt lat="43.36608" lon="5.98904">
        <ele>809</ele>
        <time>2019-12-17T09:57:04.000Z</time>
      </trkpt>
      <trkpt lat="43.36608" lon="5.98904">
        <ele>809</ele>
        <time>2019-12-17T09:57:05.000Z</time>
      </trkpt>
      <trkpt lat="43.36608" lon="5.98905">
        <ele>809</ele>
        <time>2019-12-17T09:57:06.000Z</time>
      </trkpt>
      <trkpt lat="43.36609" lon="5.98905">
        <ele>810</ele>
        <time>2019-12-17T09:57:07.000Z</time>
      </trkpt>
      <trkpt lat="43.36608" lon="5.98905">
        <ele>810</ele>
        <time>2019-12-17T09:57:08.000Z</time>
      </trkpt>
      <trkpt lat="43.36608" lon="5.98906">
        <ele>810</ele>
        <time>2019-12-17T09:57:09.000Z</time>
      </trkpt>
      <trkpt lat="43.36609" lon="5.98906">
        <ele>810</ele>
        <time>2019-12-17T09:57:10.000Z</time>
      </trkpt>
      <trkpt lat="43.36609" lon="5.98905">
        <ele>810</ele>
        <time>2019-12-17T09:57:11.000Z</time>
      </trkpt>
      <trkpt lat="43.36609" lon="5.98905">
        <ele>810</ele>
        <time>2019-12-17T09:57:12.000Z</time>
      </trkpt>
      <trkpt lat="43.36609" lon="5.98905">
        <ele>810</ele>
        <time>2019-12-17T09:57:13.000Z</time>
      </trkpt>
      <trkpt lat="43.36609" lon="5.98904">
        <ele>810</ele>
        <time>2019-12-17T09:57:14.000Z</time>
      </trkpt>
      <trkpt lat="43.36609" lon="5.98904">
        <ele>810</ele>
        <time>2019-12-17T09:57:15.000Z</time>
      </trkpt>
      <trkpt lat="43.36609" lon="5.98903">
        <ele>811</ele>
        <time>2019-12-17T09:57:16.000Z</time>
      </trkpt>
      <trkpt lat="43.36609" lon="5.98903">
        <ele>811</ele>
        <time>2019-12-17T09:57:17.000Z</time>
      </trkpt>
      <trkpt lat="43.36609" lon="5.98902">
        <ele>811</ele>
        <time>2019-12-17T09:57:18.000Z</time>
      </trkpt>
      <trkpt lat="43.36609" lon="5.98902">
        <ele>811</ele>
        <time>2019-12-17T09:57:19.000Z</time>
      </trkpt>
      <trkpt lat="43.36609" lon="5.98902">
        <ele>811</ele>
        <time>2019-12-17T09:57:20.000Z</time>
      </trkpt>
      <trkpt lat="43.36609" lon="5.98902">
        <ele>811</ele>
        <time>2019-12-17T09:57:21.000Z</time>
      </trkpt>
      <trkpt lat="43.36609" lon="5.98902">
        <ele>811</ele>
        <time>2019-12-17T09:57:22.000Z</time>
      </trkpt>
      <trkpt lat="43.36609" lon="5.98902">
        <ele>811</ele>
        <time>2019-12-17T09:57:23.000Z</time>
      </trkpt>
      <trkpt lat="43.36609" lon="5.98901">
        <ele>811</ele>
        <time>2019-12-17T09:57:24.000Z</time>
      </trkpt>
      <trkpt lat="43.36609" lon="5.989">
        <ele>811</ele>
        <time>2019-12-17T09:57:25.000Z</time>
      </trkpt>
      <trkpt lat="43.36609" lon="5.98899">
        <ele>811</ele>
        <time>2019-12-17T09:57:26.000Z</time>
      </trkpt>
      <trkpt lat="43.36609" lon="5.98898">
        <ele>812</ele>
        <time>2019-12-17T09:57:27.000Z</time>
      </trkpt>
      <trkpt lat="43.36609" lon="5.98897">
        <ele>812</ele>
        <time>2019-12-17T09:57:28.000Z</time>
      </trkpt>
      <trkpt lat="43.36609" lon="5.98896">
        <ele>812</ele>
        <time>2019-12-17T09:57:29.000Z</time>
      </trkpt>
      <trkpt lat="43.36609" lon="5.98895">
        <ele>812</ele>
        <time>2019-12-17T09:57:30.000Z</time>
      </trkpt>
      <trkpt lat="43.36609" lon="5.98894">
        <ele>812</ele>
        <time>2019-12-17T09:57:31.000Z</time>
      </trkpt>
      <trkpt lat="43.36609" lon="5.98893">
        <ele>812</ele>
        <time>2019-12-17T09:57:32.000Z</time>
      </trkpt>
      <trkpt lat="43.36609" lon="5.98892">
        <ele>812</ele>
        <time>2019-12-17T09:57:33.000Z</time>
      </trkpt>
      <trkpt lat="43.36609" lon="5.9889">
        <ele>812</ele>
        <time>2019-12-17T09:57:34.000Z</time>
      </trkpt>
      <trkpt lat="43.36609" lon="5.9889">
        <ele>812</ele>
        <time>2019-12-17T09:57:35.000Z</time>
      </trkpt>
      <trkpt lat="43.3661" lon="5.98889">
        <ele>812</ele>
        <time>2019-12-17T09:57:36.000Z</time>
      </trkpt>
      <trkpt lat="43.3661" lon="5.98888">
        <ele>812</ele>
        <time>2019-12-17T09:57:37.000Z</time>
      </trkpt>
      <trkpt lat="43.3661" lon="5.98887">
        <ele>812</ele>
        <time>2019-12-17T09:57:38.000Z</time>
      </trkpt>
      <trkpt lat="43.3661" lon="5.98885">
        <ele>812</ele>
        <time>2019-12-17T09:57:39.000Z</time>
      </trkpt>
      <trkpt lat="43.36611" lon="5.98884">
        <ele>813</ele>
        <time>2019-12-17T09:57:40.000Z</time>
      </trkpt>
      <trkpt lat="43.3661" lon="5.98883">
        <ele>813</ele>
        <time>2019-12-17T09:57:41.000Z</time>
      </trkpt>
      <trkpt lat="43.3661" lon="5.98882">
        <ele>813</ele>
        <time>2019-12-17T09:57:42.000Z</time>
      </trkpt>
      <trkpt lat="43.3661" lon="5.9888">
        <ele>813</ele>
        <time>2019-12-17T09:57:43.000Z</time>
      </trkpt>
      <trkpt lat="43.36611" lon="5.98879">
        <ele>813</ele>
        <time>2019-12-17T09:57:44.000Z</time>
      </trkpt>
      <trkpt lat="43.36611" lon="5.98878">
        <ele>813</ele>
        <time>2019-12-17T09:57:45.000Z</time>
      </trkpt>
      <trkpt lat="43.36611" lon="5.98877">
        <ele>813</ele>
        <time>2019-12-17T09:57:46.000Z</time>
      </trkpt>
      <trkpt lat="43.36611" lon="5.98876">
        <ele>813</ele>
        <time>2019-12-17T09:57:47.000Z</time>
      </trkpt>
      <trkpt lat="43.36611" lon="5.98874">
        <ele>813</ele>
        <time>2019-12-17T09:57:48.000Z</time>
      </trkpt>
      <trkpt lat="43.36611" lon="5.98873">
        <ele>813</ele>
        <time>2019-12-17T09:57:49.000Z</time>
      </trkpt>
      <trkpt lat="43.36612" lon="5.98872">
        <ele>813</ele>
        <time>2019-12-17T09:57:50.000Z</time>
      </trkpt>
      <trkpt lat="43.36613" lon="5.98871">
        <ele>813</ele>
        <time>2019-12-17T09:57:51.000Z</time>
      </trkpt>
      <trkpt lat="43.36613" lon="5.98871">
        <ele>813</ele>
        <time>2019-12-17T09:57:52.000Z</time>
      </trkpt>
      <trkpt lat="43.36613" lon="5.9887">
        <ele>813</ele>
        <time>2019-12-17T09:57:53.000Z</time>
      </trkpt>
      <trkpt lat="43.36614" lon="5.9887">
        <ele>813</ele>
        <time>2019-12-17T09:57:54.000Z</time>
      </trkpt>
      <trkpt lat="43.36614" lon="5.98869">
        <ele>813</ele>
        <time>2019-12-17T09:57:55.000Z</time>
      </trkpt>
      <trkpt lat="43.36614" lon="5.98868">
        <ele>813</ele>
        <time>2019-12-17T09:57:56.000Z</time>
      </trkpt>
      <trkpt lat="43.36613" lon="5.98867">
        <ele>813</ele>
        <time>2019-12-17T09:57:57.000Z</time>
      </trkpt>
      <trkpt lat="43.36613" lon="5.98866">
        <ele>813</ele>
        <time>2019-12-17T09:57:58.000Z</time>
      </trkpt>
      <trkpt lat="43.36613" lon="5.98865">
        <ele>813</ele>
        <time>2019-12-17T09:57:59.000Z</time>
      </trkpt>
      <trkpt lat="43.36613" lon="5.98864">
        <ele>813</ele>
        <time>2019-12-17T09:58:00.000Z</time>
      </trkpt>
      <trkpt lat="43.36613" lon="5.98863">
        <ele>813</ele>
        <time>2019-12-17T09:58:01.000Z</time>
      </trkpt>
      <trkpt lat="43.36614" lon="5.98862">
        <ele>813</ele>
        <time>2019-12-17T09:58:02.000Z</time>
      </trkpt>
      <trkpt lat="43.36614" lon="5.98862">
        <ele>813</ele>
        <time>2019-12-17T09:58:03.000Z</time>
      </trkpt>
      <trkpt lat="43.36615" lon="5.98861">
        <ele>813</ele>
        <time>2019-12-17T09:58:04.000Z</time>
      </trkpt>
      <trkpt lat="43.36615" lon="5.98861">
        <ele>813</ele>
        <time>2019-12-17T09:58:05.000Z</time>
      </trkpt>
      <trkpt lat="43.36616" lon="5.98861">
        <ele>814</ele>
        <time>2019-12-17T09:58:06.000Z</time>
      </trkpt>
      <trkpt lat="43.36616" lon="5.98861">
        <ele>814</ele>
        <time>2019-12-17T09:58:07.000Z</time>
      </trkpt>
      <trkpt lat="43.36616" lon="5.98861">
        <ele>814</ele>
        <time>2019-12-17T09:58:08.000Z</time>
      </trkpt>
      <trkpt lat="43.36617" lon="5.98861">
        <ele>814</ele>
        <time>2019-12-17T09:58:09.000Z</time>
      </trkpt>
      <trkpt lat="43.36617" lon="5.98861">
        <ele>814</ele>
        <time>2019-12-17T09:58:10.000Z</time>
      </trkpt>
      <trkpt lat="43.36618" lon="5.98862">
        <ele>814</ele>
        <time>2019-12-17T09:58:11.000Z</time>
      </trkpt>
      <trkpt lat="43.36618" lon="5.98862">
        <ele>814</ele>
        <time>2019-12-17T09:58:12.000Z</time>
      </trkpt>
      <trkpt lat="43.36619" lon="5.98862">
        <ele>814</ele>
        <time>2019-12-17T09:58:13.000Z</time>
      </trkpt>
      <trkpt lat="43.3662" lon="5.98863">
        <ele>814</ele>
        <time>2019-12-17T09:58:14.000Z</time>
      </trkpt>
      <trkpt lat="43.3662" lon="5.98863">
        <ele>814</ele>
        <time>2019-12-17T09:58:15.000Z</time>
      </trkpt>
      <trkpt lat="43.36621" lon="5.98862">
        <ele>814</ele>
        <time>2019-12-17T09:58:16.000Z</time>
      </trkpt>
      <trkpt lat="43.36622" lon="5.98862">
        <ele>814</ele>
        <time>2019-12-17T09:58:17.000Z</time>
      </trkpt>
      <trkpt lat="43.36622" lon="5.98862">
        <ele>814</ele>
        <time>2019-12-17T09:58:18.000Z</time>
      </trkpt>
      <trkpt lat="43.36623" lon="5.98861">
        <ele>814</ele>
        <time>2019-12-17T09:58:19.000Z</time>
      </trkpt>
      <trkpt lat="43.36624" lon="5.98861">
        <ele>815</ele>
        <time>2019-12-17T09:58:20.000Z</time>
      </trkpt>
      <trkpt lat="43.36625" lon="5.98861">
        <ele>815</ele>
        <time>2019-12-17T09:58:21.000Z</time>
      </trkpt>
      <trkpt lat="43.36626" lon="5.98861">
        <ele>815</ele>
        <time>2019-12-17T09:58:22.000Z</time>
      </trkpt>
      <trkpt lat="43.36626" lon="5.9886">
        <ele>815</ele>
        <time>2019-12-17T09:58:23.000Z</time>
      </trkpt>
      <trkpt lat="43.36626" lon="5.9886">
        <ele>815</ele>
        <time>2019-12-17T09:58:24.000Z</time>
      </trkpt>
      <trkpt lat="43.36627" lon="5.9886">
        <ele>815</ele>
        <time>2019-12-17T09:58:25.000Z</time>
      </trkpt>
      <trkpt lat="43.36627" lon="5.9886">
        <ele>815</ele>
        <time>2019-12-17T09:58:26.000Z</time>
      </trkpt>
      <trkpt lat="43.36627" lon="5.9886">
        <ele>815</ele>
        <time>2019-12-17T09:58:27.000Z</time>
      </trkpt>
      <trkpt lat="43.36627" lon="5.9886">
        <ele>815</ele>
        <time>2019-12-17T09:58:28.000Z</time>
      </trkpt>
      <trkpt lat="43.36627" lon="5.9886">
        <ele>815</ele>
        <time>2019-12-17T09:58:29.000Z</time>
      </trkpt>
      <trkpt lat="43.36627" lon="5.9886">
        <ele>815</ele>
        <time>2019-12-17T09:58:30.000Z</time>
      </trkpt>
      <trkpt lat="43.36627" lon="5.9886">
        <ele>816</ele>
        <time>2019-12-17T09:58:31.000Z</time>
      </trkpt>
      <trkpt lat="43.36627" lon="5.9886">
        <ele>816</ele>
        <time>2019-12-17T09:58:32.000Z</time>
      </trkpt>
      <trkpt lat="43.36627" lon="5.9886">
        <ele>816</ele>
        <time>2019-12-17T09:58:33.000Z</time>
      </trkpt>
      <trkpt lat="43.36627" lon="5.9886">
        <ele>816</ele>
        <time>2019-12-17T09:58:34.000Z</time>
      </trkpt>
      <trkpt lat="43.36627" lon="5.9886">
        <ele>816</ele>
        <time>2019-12-17T09:58:35.000Z</time>
      </trkpt>
      <trkpt lat="43.36627" lon="5.9886">
        <ele>816</ele>
        <time>2019-12-17T09:58:36.000Z</time>
      </trkpt>
      <trkpt lat="43.36627" lon="5.9886">
        <ele>816</ele>
        <time>2019-12-17T09:58:37.000Z</time>
      </trkpt>
      <trkpt lat="43.36627" lon="5.9886">
        <ele>816</ele>
        <time>2019-12-17T09:58:38.000Z</time>
      </trkpt>
      <trkpt lat="43.36627" lon="5.9886">
        <ele>816</ele>
        <time>2019-12-17T09:58:39.000Z</time>
      </trkpt>
      <trkpt lat="43.36627" lon="5.9886">
        <ele>817</ele>
        <time>2019-12-17T09:58:40.000Z</time>
      </trkpt>
      <trkpt lat="43.36627" lon="5.9886">
        <ele>817</ele>
        <time>2019-12-17T09:58:41.000Z</time>
      </trkpt>
      <trkpt lat="43.36626" lon="5.98859">
        <ele>817</ele>
        <time>2019-12-17T09:58:42.000Z</time>
      </trkpt>
      <trkpt lat="43.36626" lon="5.98859">
        <ele>817</ele>
        <time>2019-12-17T09:58:43.000Z</time>
      </trkpt>
      <trkpt lat="43.36626" lon="5.98858">
        <ele>817</ele>
        <time>2019-12-17T09:58:44.000Z</time>
      </trkpt>
      <trkpt lat="43.36627" lon="5.98857">
        <ele>817</ele>
        <time>2019-12-17T09:58:45.000Z</time>
      </trkpt>
      <trkpt lat="43.36627" lon="5.98857">
        <ele>817</ele>
        <time>2019-12-17T09:58:46.000Z</time>
      </trkpt>
      <trkpt lat="43.36628" lon="5.98856">
        <ele>818</ele>
        <time>2019-12-17T09:58:47.000Z</time>
      </trkpt>
      <trkpt lat="43.36628" lon="5.98856">
        <ele>818</ele>
        <time>2019-12-17T09:58:48.000Z</time>
      </trkpt>
      <trkpt lat="43.36629" lon="5.98856">
        <ele>818</ele>
        <time>2019-12-17T09:58:49.000Z</time>
      </trkpt>
      <trkpt lat="43.36629" lon="5.98855">
        <ele>818</ele>
        <time>2019-12-17T09:58:50.000Z</time>
      </trkpt>
      <trkpt lat="43.36629" lon="5.98855">
        <ele>818</ele>
        <time>2019-12-17T09:58:51.000Z</time>
      </trkpt>
      <trkpt lat="43.3663" lon="5.98854">
        <ele>818</ele>
        <time>2019-12-17T09:58:52.000Z</time>
      </trkpt>
      <trkpt lat="43.3663" lon="5.98853">
        <ele>818</ele>
        <time>2019-12-17T09:58:53.000Z</time>
      </trkpt>
      <trkpt lat="43.3663" lon="5.98853">
        <ele>818</ele>
        <time>2019-12-17T09:58:54.000Z</time>
      </trkpt>
      <trkpt lat="43.36631" lon="5.98852">
        <ele>818</ele>
        <time>2019-12-17T09:58:55.000Z</time>
      </trkpt>
      <trkpt lat="43.36631" lon="5.98852">
        <ele>818</ele>
        <time>2019-12-17T09:58:56.000Z</time>
      </trkpt>
      <trkpt lat="43.36631" lon="5.98852">
        <ele>818</ele>
        <time>2019-12-17T09:58:57.000Z</time>
      </trkpt>
      <trkpt lat="43.36631" lon="5.98852">
        <ele>818</ele>
        <time>2019-12-17T09:58:58.000Z</time>
      </trkpt>
      <trkpt lat="43.36631" lon="5.98852">
        <ele>819</ele>
        <time>2019-12-17T09:58:59.000Z</time>
      </trkpt>
      <trkpt lat="43.36631" lon="5.98852">
        <ele>819</ele>
        <time>2019-12-17T09:59:00.000Z</time>
      </trkpt>
      <trkpt lat="43.36631" lon="5.98852">
        <ele>819</ele>
        <time>2019-12-17T09:59:01.000Z</time>
      </trkpt>
      <trkpt lat="43.36631" lon="5.98852">
        <ele>819</ele>
        <time>2019-12-17T09:59:02.000Z</time>
      </trkpt>
      <trkpt lat="43.36631" lon="5.98852">
        <ele>819</ele>
        <time>2019-12-17T09:59:03.000Z</time>
      </trkpt>
      <trkpt lat="43.36631" lon="5.98852">
        <ele>819</ele>
        <time>2019-12-17T09:59:04.000Z</time>
      </trkpt>
      <trkpt lat="43.36631" lon="5.98852">
        <ele>819</ele>
        <time>2019-12-17T09:59:05.000Z</time>
      </trkpt>
      <trkpt lat="43.36631" lon="5.98852">
        <ele>819</ele>
        <time>2019-12-17T09:59:06.000Z</time>
      </trkpt>
      <trkpt lat="43.36631" lon="5.98852">
        <ele>819</ele>
        <time>2019-12-17T09:59:07.000Z</time>
      </trkpt>
      <trkpt lat="43.36631" lon="5.98852">
        <ele>819</ele>
        <time>2019-12-17T09:59:08.000Z</time>
      </trkpt>
      <trkpt lat="43.36631" lon="5.98852">
        <ele>819</ele>
        <time>2019-12-17T09:59:09.000Z</time>
      </trkpt>
      <trkpt lat="43.36631" lon="5.98852">
        <ele>819</ele>
        <time>2019-12-17T09:59:10.000Z</time>
      </trkpt>
      <trkpt lat="43.36631" lon="5.98852">
        <ele>819</ele>
        <time>2019-12-17T09:59:11.000Z</time>
      </trkpt>
      <trkpt lat="43.36631" lon="5.98853">
        <ele>819</ele>
        <time>2019-12-17T09:59:12.000Z</time>
      </trkpt>
      <trkpt lat="43.36631" lon="5.98853">
        <ele>819</ele>
        <time>2019-12-17T09:59:13.000Z</time>
      </trkpt>
      <trkpt lat="43.36631" lon="5.98853">
        <ele>819</ele>
        <time>2019-12-17T09:59:14.000Z</time>
      </trkpt>
      <trkpt lat="43.36631" lon="5.98853">
        <ele>819</ele>
        <time>2019-12-17T09:59:15.000Z</time>
      </trkpt>
      <trkpt lat="43.36631" lon="5.98853">
        <ele>819</ele>
        <time>2019-12-17T09:59:16.000Z</time>
      </trkpt>
      <trkpt lat="43.36631" lon="5.98852">
        <ele>819</ele>
        <time>2019-12-17T09:59:17.000Z</time>
      </trkpt>
      <trkpt lat="43.36631" lon="5.98852">
        <ele>819</ele>
        <time>2019-12-17T09:59:18.000Z</time>
      </trkpt>
      <trkpt lat="43.36631" lon="5.98852">
        <ele>819</ele>
        <time>2019-12-17T09:59:19.000Z</time>
      </trkpt>
      <trkpt lat="43.36632" lon="5.98853">
        <ele>819</ele>
        <time>2019-12-17T09:59:20.000Z</time>
      </trkpt>
      <trkpt lat="43.36632" lon="5.98853">
        <ele>819</ele>
        <time>2019-12-17T09:59:21.000Z</time>
      </trkpt>
      <trkpt lat="43.36632" lon="5.98853">
        <ele>819</ele>
        <time>2019-12-17T09:59:22.000Z</time>
      </trkpt>
      <trkpt lat="43.36632" lon="5.98852">
        <ele>819</ele>
        <time>2019-12-17T09:59:23.000Z</time>
      </trkpt>
      <trkpt lat="43.36632" lon="5.98852">
        <ele>819</ele>
        <time>2019-12-17T09:59:24.000Z</time>
      </trkpt>
      <trkpt lat="43.36632" lon="5.98853">
        <ele>819</ele>
        <time>2019-12-17T09:59:25.000Z</time>
      </trkpt>
      <trkpt lat="43.36632" lon="5.98853">
        <ele>820</ele>
        <time>2019-12-17T09:59:26.000Z</time>
      </trkpt>
      <trkpt lat="43.36633" lon="5.98852">
        <ele>820</ele>
        <time>2019-12-17T09:59:27.000Z</time>
      </trkpt>
      <trkpt lat="43.36633" lon="5.98853">
        <ele>820</ele>
        <time>2019-12-17T09:59:28.000Z</time>
      </trkpt>
      <trkpt lat="43.36632" lon="5.98853">
        <ele>820</ele>
        <time>2019-12-17T09:59:29.000Z</time>
      </trkpt>
      <trkpt lat="43.36632" lon="5.98852">
        <ele>820</ele>
        <time>2019-12-17T09:59:30.000Z</time>
      </trkpt>
      <trkpt lat="43.36632" lon="5.98852">
        <ele>820</ele>
        <time>2019-12-17T09:59:31.000Z</time>
      </trkpt>
      <trkpt lat="43.36631" lon="5.98852">
        <ele>820</ele>
        <time>2019-12-17T09:59:32.000Z</time>
      </trkpt>
      <trkpt lat="43.36631" lon="5.98851">
        <ele>820</ele>
        <time>2019-12-17T09:59:33.000Z</time>
      </trkpt>
      <trkpt lat="43.36631" lon="5.98851">
        <ele>820</ele>
        <time>2019-12-17T09:59:34.000Z</time>
      </trkpt>
      <trkpt lat="43.36631" lon="5.98851">
        <ele>820</ele>
        <time>2019-12-17T09:59:35.000Z</time>
      </trkpt>
      <trkpt lat="43.3663" lon="5.98851">
        <ele>820</ele>
        <time>2019-12-17T09:59:36.000Z</time>
      </trkpt>
      <trkpt lat="43.3663" lon="5.98851">
        <ele>820</ele>
        <time>2019-12-17T09:59:37.000Z</time>
      </trkpt>
      <trkpt lat="43.3663" lon="5.98851">
        <ele>820</ele>
        <time>2019-12-17T09:59:38.000Z</time>
      </trkpt>
      <trkpt lat="43.3663" lon="5.98851">
        <ele>820</ele>
        <time>2019-12-17T09:59:39.000Z</time>
      </trkpt>
      <trkpt lat="43.3663" lon="5.98851">
        <ele>820</ele>
        <time>2019-12-17T09:59:40.000Z</time>
      </trkpt>
      <trkpt lat="43.3663" lon="5.98851">
        <ele>820</ele>
        <time>2019-12-17T09:59:41.000Z</time>
      </trkpt>
      <trkpt lat="43.3663" lon="5.98851">
        <ele>820</ele>
        <time>2019-12-17T09:59:42.000Z</time>
      </trkpt>
      <trkpt lat="43.3663" lon="5.98851">
        <ele>821</ele>
        <time>2019-12-17T09:59:43.000Z</time>
      </trkpt>
      <trkpt lat="43.36629" lon="5.98851">
        <ele>821</ele>
        <time>2019-12-17T09:59:44.000Z</time>
      </trkpt>
      <trkpt lat="43.36629" lon="5.98851">
        <ele>821</ele>
        <time>2019-12-17T09:59:45.000Z</time>
      </trkpt>
      <trkpt lat="43.36629" lon="5.98851">
        <ele>821</ele>
        <time>2019-12-17T09:59:46.000Z</time>
      </trkpt>
      <trkpt lat="43.36629" lon="5.98851">
        <ele>821</ele>
        <time>2019-12-17T09:59:47.000Z</time>
      </trkpt>
      <trkpt lat="43.36629" lon="5.98851">
        <ele>821</ele>
        <time>2019-12-17T09:59:48.000Z</time>
      </trkpt>
      <trkpt lat="43.36629" lon="5.98851">
        <ele>821</ele>
        <time>2019-12-17T09:59:49.000Z</time>
      </trkpt>
      <trkpt lat="43.36629" lon="5.98851">
        <ele>821</ele>
        <time>2019-12-17T09:59:50.000Z</time>
      </trkpt>
      <trkpt lat="43.36629" lon="5.98851">
        <ele>821</ele>
        <time>2019-12-17T09:59:51.000Z</time>
      </trkpt>
      <trkpt lat="43.36629" lon="5.98851">
        <ele>821</ele>
        <time>2019-12-17T09:59:52.000Z</time>
      </trkpt>
      <trkpt lat="43.36629" lon="5.98851">
        <ele>821</ele>
        <time>2019-12-17T09:59:53.000Z</time>
      </trkpt>
      <trkpt lat="43.36629" lon="5.98851">
        <ele>821</ele>
        <time>2019-12-17T09:59:54.000Z</time>
      </trkpt>
      <trkpt lat="43.36629" lon="5.98851">
        <ele>821</ele>
        <time>2019-12-17T09:59:55.000Z</time>
      </trkpt>
      <trkpt lat="43.36629" lon="5.98851">
        <ele>821</ele>
        <time>2019-12-17T09:59:56.000Z</time>
      </trkpt>
      <trkpt lat="43.36629" lon="5.98851">
        <ele>821</ele>
        <time>2019-12-17T09:59:57.000Z</time>
      </trkpt>
      <trkpt lat="43.36629" lon="5.98851">
        <ele>821</ele>
        <time>2019-12-17T09:59:58.000Z</time>
      </trkpt>
      <trkpt lat="43.36629" lon="5.98851">
        <ele>821</ele>
        <time>2019-12-17T09:59:59.000Z</time>
      </trkpt>
      <trkpt lat="43.36629" lon="5.98851">
        <ele>821</ele>
        <time>2019-12-17T10:00:00.000Z</time>
      </trkpt>
      <trkpt lat="43.36629" lon="5.98851">
        <ele>821</ele>
        <time>2019-12-17T10:00:01.000Z</time>
      </trkpt>
      <trkpt lat="43.36629" lon="5.98851">
        <ele>821</ele>
        <time>2019-12-17T10:00:02.000Z</time>
      </trkpt>
      <trkpt lat="43.36629" lon="5.98851">
        <ele>821</ele>
        <time>2019-12-17T10:00:03.000Z</time>
      </trkpt>
      <trkpt lat="43.36629" lon="5.98851">
        <ele>821</ele>
        <time>2019-12-17T10:00:04.000Z</time>
      </trkpt>
      <trkpt lat="43.3663" lon="5.98851">
        <ele>821</ele>
        <time>2019-12-17T10:00:05.000Z</time>
      </trkpt>
      <trkpt lat="43.3663" lon="5.98851">
        <ele>821</ele>
        <time>2019-12-17T10:00:06.000Z</time>
      </trkpt>
      <trkpt lat="43.3663" lon="5.98851">
        <ele>821</ele>
        <time>2019-12-17T10:00:07.000Z</time>
      </trkpt>
      <trkpt lat="43.3663" lon="5.98851">
        <ele>821</ele>
        <time>2019-12-17T10:00:08.000Z</time>
      </trkpt>
      <trkpt lat="43.3663" lon="5.98851">
        <ele>821</ele>
        <time>2019-12-17T10:00:09.000Z</time>
      </trkpt>
      <trkpt lat="43.36631" lon="5.98851">
        <ele>822</ele>
        <time>2019-12-17T10:00:10.000Z</time>
      </trkpt>
      <trkpt lat="43.36631" lon="5.98851">
        <ele>822</ele>
        <time>2019-12-17T10:00:11.000Z</time>
      </trkpt>
      <trkpt lat="43.36631" lon="5.98851">
        <ele>822</ele>
        <time>2019-12-17T10:00:12.000Z</time>
      </trkpt>
      <trkpt lat="43.36631" lon="5.98851">
        <ele>822</ele>
        <time>2019-12-17T10:00:13.000Z</time>
      </trkpt>
      <trkpt lat="43.36631" lon="5.98851">
        <ele>822</ele>
        <time>2019-12-17T10:00:14.000Z</time>
      </trkpt>
      <trkpt lat="43.36631" lon="5.98851">
        <ele>822</ele>
        <time>2019-12-17T10:00:15.000Z</time>
      </trkpt>
      <trkpt lat="43.36631" lon="5.98851">
        <ele>822</ele>
        <time>2019-12-17T10:00:16.000Z</time>
      </trkpt>
      <trkpt lat="43.36631" lon="5.98851">
        <ele>822</ele>
        <time>2019-12-17T10:00:17.000Z</time>
      </trkpt>
      <trkpt lat="43.36631" lon="5.98851">
        <ele>822</ele>
        <time>2019-12-17T10:00:18.000Z</time>
      </trkpt>
      <trkpt lat="43.36631" lon="5.98851">
        <ele>822</ele>
        <time>2019-12-17T10:00:19.000Z</time>
      </trkpt>
      <trkpt lat="43.36631" lon="5.98851">
        <ele>822</ele>
        <time>2019-12-17T10:00:20.000Z</time>
      </trkpt>
      <trkpt lat="43.36631" lon="5.9885">
        <ele>822</ele>
        <time>2019-12-17T10:00:21.000Z</time>
      </trkpt>
      <trkpt lat="43.36631" lon="5.9885">
        <ele>822</ele>
        <time>2019-12-17T10:00:22.000Z</time>
      </trkpt>
      <trkpt lat="43.36632" lon="5.9885">
        <ele>822</ele>
        <time>2019-12-17T10:00:23.000Z</time>
      </trkpt>
      <trkpt lat="43.36632" lon="5.9885">
        <ele>822</ele>
        <time>2019-12-17T10:00:24.000Z</time>
      </trkpt>
      <trkpt lat="43.36632" lon="5.9885">
        <ele>822</ele>
        <time>2019-12-17T10:00:25.000Z</time>
      </trkpt>
      <trkpt lat="43.36632" lon="5.98851">
        <ele>823</ele>
        <time>2019-12-17T10:00:26.000Z</time>
      </trkpt>
      <trkpt lat="43.36632" lon="5.98851">
        <ele>823</ele>
        <time>2019-12-17T10:00:27.000Z</time>
      </trkpt>
      <trkpt lat="43.36632" lon="5.98851">
        <ele>823</ele>
        <time>2019-12-17T10:00:28.000Z</time>
      </trkpt>
      <trkpt lat="43.36632" lon="5.98851">
        <ele>823</ele>
        <time>2019-12-17T10:00:29.000Z</time>
      </trkpt>
      <trkpt lat="43.36632" lon="5.98851">
        <ele>823</ele>
        <time>2019-12-17T10:00:30.000Z</time>
      </trkpt>
      <trkpt lat="43.36632" lon="5.98851">
        <ele>823</ele>
        <time>2019-12-17T10:00:31.000Z</time>
      </trkpt>
      <trkpt lat="43.36632" lon="5.98851">
        <ele>823</ele>
        <time>2019-12-17T10:00:32.000Z</time>
      </trkpt>
      <trkpt lat="43.36632" lon="5.98851">
        <ele>823</ele>
        <time>2019-12-17T10:00:33.000Z</time>
      </trkpt>
      <trkpt lat="43.36632" lon="5.98851">
        <ele>823</ele>
        <time>2019-12-17T10:00:34.000Z</time>
      </trkpt>
      <trkpt lat="43.36632" lon="5.98851">
        <ele>823</ele>
        <time>2019-12-17T10:00:35.000Z</time>
      </trkpt>
      <trkpt lat="43.36633" lon="5.98851">
        <ele>823</ele>
        <time>2019-12-17T10:00:36.000Z</time>
      </trkpt>
      <trkpt lat="43.36633" lon="5.98851">
        <ele>823</ele>
        <time>2019-12-17T10:00:37.000Z</time>
      </trkpt>
      <trkpt lat="43.36633" lon="5.98851">
        <ele>823</ele>
        <time>2019-12-17T10:00:38.000Z</time>
      </trkpt>
      <trkpt lat="43.36633" lon="5.98851">
        <ele>823</ele>
        <time>2019-12-17T10:00:39.000Z</time>
      </trkpt>
      <trkpt lat="43.36633" lon="5.98851">
        <ele>823</ele>
        <time>2019-12-17T10:00:40.000Z</time>
      </trkpt>
      <trkpt lat="43.36633" lon="5.98852">
        <ele>823</ele>
        <time>2019-12-17T10:00:41.000Z</time>
      </trkpt>
      <trkpt lat="43.36632" lon="5.98851">
        <ele>823</ele>
        <time>2019-12-17T10:00:42.000Z</time>
      </trkpt>
      <trkpt lat="43.36632" lon="5.98851">
        <ele>823</ele>
        <time>2019-12-17T10:00:43.000Z</time>
      </trkpt>
      <trkpt lat="43.36632" lon="5.98851">
        <ele>823</ele>
        <time>2019-12-17T10:00:44.000Z</time>
      </trkpt>
      <trkpt lat="43.36632" lon="5.98851">
        <ele>823</ele>
        <time>2019-12-17T10:00:45.000Z</time>
      </trkpt>
      <trkpt lat="43.36632" lon="5.98851">
        <ele>823</ele>
        <time>2019-12-17T10:00:46.000Z</time>
      </trkpt>
      <trkpt lat="43.36632" lon="5.98851">
        <ele>823</ele>
        <time>2019-12-17T10:00:47.000Z</time>
      </trkpt>
      <trkpt lat="43.36632" lon="5.98851">
        <ele>823</ele>
        <time>2019-12-17T10:00:48.000Z</time>
      </trkpt>
      <trkpt lat="43.36632" lon="5.98851">
        <ele>823</ele>
        <time>2019-12-17T10:00:49.000Z</time>
      </trkpt>
      <trkpt lat="43.36632" lon="5.98852">
        <ele>823</ele>
        <time>2019-12-17T10:00:50.000Z</time>
      </trkpt>
      <trkpt lat="43.36632" lon="5.98852">
        <ele>823</ele>
        <time>2019-12-17T10:00:51.000Z</time>
      </trkpt>
      <trkpt lat="43.36633" lon="5.98852">
        <ele>823</ele>
        <time>2019-12-17T10:00:52.000Z</time>
      </trkpt>
      <trkpt lat="43.36633" lon="5.98852">
        <ele>823</ele>
        <time>2019-12-17T10:00:53.000Z</time>
      </trkpt>
      <trkpt lat="43.36633" lon="5.98852">
        <ele>823</ele>
        <time>2019-12-17T10:00:54.000Z</time>
      </trkpt>
      <trkpt lat="43.36633" lon="5.98852">
        <ele>823</ele>
        <time>2019-12-17T10:00:55.000Z</time>
      </trkpt>
      <trkpt lat="43.36633" lon="5.98852">
        <ele>823</ele>
        <time>2019-12-17T10:00:56.000Z</time>
      </trkpt>
      <trkpt lat="43.36632" lon="5.98852">
        <ele>823</ele>
        <time>2019-12-17T10:00:57.000Z</time>
      </trkpt>
      <trkpt lat="43.36632" lon="5.98853">
        <ele>823</ele>
        <time>2019-12-17T10:00:58.000Z</time>
      </trkpt>
      <trkpt lat="43.36632" lon="5.98853">
        <ele>823</ele>
        <time>2019-12-17T10:00:59.000Z</time>
      </trkpt>
      <trkpt lat="43.36632" lon="5.98853">
        <ele>823</ele>
        <time>2019-12-17T10:01:00.000Z</time>
      </trkpt>
      <trkpt lat="43.36632" lon="5.98853">
        <ele>823</ele>
        <time>2019-12-17T10:01:01.000Z</time>
      </trkpt>
      <trkpt lat="43.36632" lon="5.98853">
        <ele>823</ele>
        <time>2019-12-17T10:01:02.000Z</time>
      </trkpt>
      <trkpt lat="43.36632" lon="5.98853">
        <ele>823</ele>
        <time>2019-12-17T10:01:03.000Z</time>
      </trkpt>
      <trkpt lat="43.36632" lon="5.98853">
        <ele>823</ele>
        <time>2019-12-17T10:01:04.000Z</time>
      </trkpt>
      <trkpt lat="43.36632" lon="5.98853">
        <ele>823</ele>
        <time>2019-12-17T10:01:05.000Z</time>
      </trkpt>
      <trkpt lat="43.36632" lon="5.98853">
        <ele>823</ele>
        <time>2019-12-17T10:01:06.000Z</time>
      </trkpt>
      <trkpt lat="43.36632" lon="5.98853">
        <ele>823</ele>
        <time>2019-12-17T10:01:07.000Z</time>
      </trkpt>
      <trkpt lat="43.36632" lon="5.98854">
        <ele>823</ele>
        <time>2019-12-17T10:01:08.000Z</time>
      </trkpt>
      <trkpt lat="43.36632" lon="5.98854">
        <ele>823</ele>
        <time>2019-12-17T10:01:09.000Z</time>
      </trkpt>
      <trkpt lat="43.36632" lon="5.98854">
        <ele>823</ele>
        <time>2019-12-17T10:01:10.000Z</time>
      </trkpt>
      <trkpt lat="43.36632" lon="5.98854">
        <ele>823</ele>
        <time>2019-12-17T10:01:11.000Z</time>
      </trkpt>
      <trkpt lat="43.36632" lon="5.98854">
        <ele>823</ele>
        <time>2019-12-17T10:01:12.000Z</time>
      </trkpt>
      <trkpt lat="43.36632" lon="5.98854">
        <ele>823</ele>
        <time>2019-12-17T10:01:13.000Z</time>
      </trkpt>
      <trkpt lat="43.36632" lon="5.98854">
        <ele>823</ele>
        <time>2019-12-17T10:01:14.000Z</time>
      </trkpt>
      <trkpt lat="43.36632" lon="5.98854">
        <ele>823</ele>
        <time>2019-12-17T10:01:15.000Z</time>
      </trkpt>
      <trkpt lat="43.36632" lon="5.98853">
        <ele>823</ele>
        <time>2019-12-17T10:01:16.000Z</time>
      </trkpt>
      <trkpt lat="43.36632" lon="5.98853">
        <ele>823</ele>
        <time>2019-12-17T10:01:17.000Z</time>
      </trkpt>
      <trkpt lat="43.36632" lon="5.98853">
        <ele>823</ele>
        <time>2019-12-17T10:01:18.000Z</time>
      </trkpt>
      <trkpt lat="43.36632" lon="5.98853">
        <ele>823</ele>
        <time>2019-12-17T10:01:19.000Z</time>
      </trkpt>
      <trkpt lat="43.36632" lon="5.98853">
        <ele>823</ele>
        <time>2019-12-17T10:01:20.000Z</time>
      </trkpt>
      <trkpt lat="43.36632" lon="5.98853">
        <ele>823</ele>
        <time>2019-12-17T10:01:21.000Z</time>
      </trkpt>
      <trkpt lat="43.36632" lon="5.98853">
        <ele>823</ele>
        <time>2019-12-17T10:01:22.000Z</time>
      </trkpt>
      <trkpt lat="43.36632" lon="5.98853">
        <ele>823</ele>
        <time>2019-12-17T10:01:23.000Z</time>
      </trkpt>
      <trkpt lat="43.36632" lon="5.98853">
        <ele>823</ele>
        <time>2019-12-17T10:01:24.000Z</time>
      </trkpt>
      <trkpt lat="43.36632" lon="5.98853">
        <ele>823</ele>
        <time>2019-12-17T10:01:25.000Z</time>
      </trkpt>
      <trkpt lat="43.36632" lon="5.98853">
        <ele>823</ele>
        <time>2019-12-17T10:01:26.000Z</time>
      </trkpt>
      <trkpt lat="43.36632" lon="5.98853">
        <ele>823</ele>
        <time>2019-12-17T10:01:27.000Z</time>
      </trkpt>
      <trkpt lat="43.36632" lon="5.98853">
        <ele>823</ele>
        <time>2019-12-17T10:01:28.000Z</time>
      </trkpt>
      <trkpt lat="43.36632" lon="5.98853">
        <ele>823</ele>
        <time>2019-12-17T10:01:29.000Z</time>
      </trkpt>
      <trkpt lat="43.36631" lon="5.98853">
        <ele>823</ele>
        <time>2019-12-17T10:01:30.000Z</time>
      </trkpt>
      <trkpt lat="43.36631" lon="5.98853">
        <ele>824</ele>
        <time>2019-12-17T10:01:31.000Z</time>
      </trkpt>
      <trkpt lat="43.36631" lon="5.98854">
        <ele>824</ele>
        <time>2019-12-17T10:01:32.000Z</time>
      </trkpt>
      <trkpt lat="43.36632" lon="5.98854">
        <ele>824</ele>
        <time>2019-12-17T10:01:33.000Z</time>
      </trkpt>
      <trkpt lat="43.36632" lon="5.98854">
        <ele>824</ele>
        <time>2019-12-17T10:01:34.000Z</time>
      </trkpt>
      <trkpt lat="43.36631" lon="5.98854">
        <ele>824</ele>
        <time>2019-12-17T10:01:35.000Z</time>
      </trkpt>
      <trkpt lat="43.36631" lon="5.98854">
        <ele>824</ele>
        <time>2019-12-17T10:01:36.000Z</time>
      </trkpt>
      <trkpt lat="43.36631" lon="5.98854">
        <ele>824</ele>
        <time>2019-12-17T10:01:37.000Z</time>
      </trkpt>
      <trkpt lat="43.36631" lon="5.98854">
        <ele>824</ele>
        <time>2019-12-17T10:01:38.000Z</time>
      </trkpt>
      <trkpt lat="43.36631" lon="5.98855">
        <ele>824</ele>
        <time>2019-12-17T10:01:39.000Z</time>
      </trkpt>
      <trkpt lat="43.36631" lon="5.98855">
        <ele>824</ele>
        <time>2019-12-17T10:01:40.000Z</time>
      </trkpt>
      <trkpt lat="43.36631" lon="5.98855">
        <ele>824</ele>
        <time>2019-12-17T10:01:41.000Z</time>
      </trkpt>
      <trkpt lat="43.36631" lon="5.98855">
        <ele>824</ele>
        <time>2019-12-17T10:01:42.000Z</time>
      </trkpt>
      <trkpt lat="43.36631" lon="5.98855">
        <ele>824</ele>
        <time>2019-12-17T10:01:43.000Z</time>
      </trkpt>
      <trkpt lat="43.36631" lon="5.98855">
        <ele>824</ele>
        <time>2019-12-17T10:01:44.000Z</time>
      </trkpt>
      <trkpt lat="43.36631" lon="5.98855">
        <ele>824</ele>
        <time>2019-12-17T10:01:45.000Z</time>
      </trkpt>
      <trkpt lat="43.36631" lon="5.98855">
        <ele>824</ele>
        <time>2019-12-17T10:01:46.000Z</time>
      </trkpt>
      <trkpt lat="43.36631" lon="5.98855">
        <ele>824</ele>
        <time>2019-12-17T10:01:47.000Z</time>
      </trkpt>
      <trkpt lat="43.3663" lon="5.98855">
        <ele>824</ele>
        <time>2019-12-17T10:01:48.000Z</time>
      </trkpt>
      <trkpt lat="43.3663" lon="5.98855">
        <ele>824</ele>
        <time>2019-12-17T10:01:49.000Z</time>
      </trkpt>
      <trkpt lat="43.3663" lon="5.98855">
        <ele>824</ele>
        <time>2019-12-17T10:01:50.000Z</time>
      </trkpt>
      <trkpt lat="43.3663" lon="5.98855">
        <ele>824</ele>
        <time>2019-12-17T10:01:51.000Z</time>
      </trkpt>
      <trkpt lat="43.3663" lon="5.98855">
        <ele>825</ele>
        <time>2019-12-17T10:01:52.000Z</time>
      </trkpt>
      <trkpt lat="43.36629" lon="5.98854">
        <ele>825</ele>
        <time>2019-12-17T10:01:53.000Z</time>
      </trkpt>
      <trkpt lat="43.36629" lon="5.98855">
        <ele>825</ele>
        <time>2019-12-17T10:01:54.000Z</time>
      </trkpt>
      <trkpt lat="43.36629" lon="5.98855">
        <ele>825</ele>
        <time>2019-12-17T10:01:55.000Z</time>
      </trkpt>
      <trkpt lat="43.36629" lon="5.98855">
        <ele>825</ele>
        <time>2019-12-17T10:01:56.000Z</time>
      </trkpt>
      <trkpt lat="43.36629" lon="5.98855">
        <ele>825</ele>
        <time>2019-12-17T10:01:57.000Z</time>
      </trkpt>
      <trkpt lat="43.36629" lon="5.98855">
        <ele>825</ele>
        <time>2019-12-17T10:01:58.000Z</time>
      </trkpt>
      <trkpt lat="43.36629" lon="5.98855">
        <ele>825</ele>
        <time>2019-12-17T10:01:59.000Z</time>
      </trkpt>
      <trkpt lat="43.36629" lon="5.98855">
        <ele>825</ele>
        <time>2019-12-17T10:02:00.000Z</time>
      </trkpt>
      <trkpt lat="43.36629" lon="5.98855">
        <ele>825</ele>
        <time>2019-12-17T10:02:01.000Z</time>
      </trkpt>
      <trkpt lat="43.36629" lon="5.98855">
        <ele>825</ele>
        <time>2019-12-17T10:02:02.000Z</time>
      </trkpt>
      <trkpt lat="43.36629" lon="5.98855">
        <ele>825</ele>
        <time>2019-12-17T10:02:03.000Z</time>
      </trkpt>
      <trkpt lat="43.36629" lon="5.98855">
        <ele>825</ele>
        <time>2019-12-17T10:02:04.000Z</time>
      </trkpt>
      <trkpt lat="43.36629" lon="5.98855">
        <ele>825</ele>
        <time>2019-12-17T10:02:05.000Z</time>
      </trkpt>
      <trkpt lat="43.36629" lon="5.98854">
        <ele>825</ele>
        <time>2019-12-17T10:02:06.000Z</time>
      </trkpt>
      <trkpt lat="43.36629" lon="5.98854">
        <ele>825</ele>
        <time>2019-12-17T10:02:07.000Z</time>
      </trkpt>
      <trkpt lat="43.36629" lon="5.98854">
        <ele>825</ele>
        <time>2019-12-17T10:02:08.000Z</time>
      </trkpt>
      <trkpt lat="43.36629" lon="5.98854">
        <ele>825</ele>
        <time>2019-12-17T10:02:09.000Z</time>
      </trkpt>
      <trkpt lat="43.36629" lon="5.98854">
        <ele>825</ele>
        <time>2019-12-17T10:02:10.000Z</time>
      </trkpt>
      <trkpt lat="43.36629" lon="5.98854">
        <ele>825</ele>
        <time>2019-12-17T10:02:11.000Z</time>
      </trkpt>
      <trkpt lat="43.36629" lon="5.98855">
        <ele>825</ele>
        <time>2019-12-17T10:02:12.000Z</time>
      </trkpt>
      <trkpt lat="43.36629" lon="5.98854">
        <ele>825</ele>
        <time>2019-12-17T10:02:13.000Z</time>
      </trkpt>
      <trkpt lat="43.36629" lon="5.98854">
        <ele>825</ele>
        <time>2019-12-17T10:02:14.000Z</time>
      </trkpt>
      <trkpt lat="43.3663" lon="5.98854">
        <ele>825</ele>
        <time>2019-12-17T10:02:15.000Z</time>
      </trkpt>
      <trkpt lat="43.3663" lon="5.98855">
        <ele>825</ele>
        <time>2019-12-17T10:02:16.000Z</time>
      </trkpt>
      <trkpt lat="43.3663" lon="5.98854">
        <ele>825</ele>
        <time>2019-12-17T10:02:17.000Z</time>
      </trkpt>
      <trkpt lat="43.3663" lon="5.98854">
        <ele>825</ele>
        <time>2019-12-17T10:02:18.000Z</time>
      </trkpt>
      <trkpt lat="43.3663" lon="5.98854">
        <ele>825</ele>
        <time>2019-12-17T10:02:19.000Z</time>
      </trkpt>
      <trkpt lat="43.3663" lon="5.98854">
        <ele>825</ele>
        <time>2019-12-17T10:02:20.000Z</time>
      </trkpt>
      <trkpt lat="43.3663" lon="5.98854">
        <ele>825</ele>
        <time>2019-12-17T10:02:21.000Z</time>
      </trkpt>
      <trkpt lat="43.3663" lon="5.98854">
        <ele>825</ele>
        <time>2019-12-17T10:02:22.000Z</time>
      </trkpt>
      <trkpt lat="43.3663" lon="5.98854">
        <ele>825</ele>
        <time>2019-12-17T10:02:23.000Z</time>
      </trkpt>
      <trkpt lat="43.3663" lon="5.98854">
        <ele>825</ele>
        <time>2019-12-17T10:02:24.000Z</time>
      </trkpt>
      <trkpt lat="43.3663" lon="5.98853">
        <ele>825</ele>
        <time>2019-12-17T10:02:25.000Z</time>
      </trkpt>
      <trkpt lat="43.3663" lon="5.98853">
        <ele>825</ele>
        <time>2019-12-17T10:02:26.000Z</time>
      </trkpt>
      <trkpt lat="43.3663" lon="5.98853">
        <ele>825</ele>
        <time>2019-12-17T10:02:27.000Z</time>
      </trkpt>
      <trkpt lat="43.3663" lon="5.98852">
        <ele>825</ele>
        <time>2019-12-17T10:02:28.000Z</time>
      </trkpt>
      <trkpt lat="43.36631" lon="5.98852">
        <ele>825</ele>
        <time>2019-12-17T10:02:29.000Z</time>
      </trkpt>
      <trkpt lat="43.36631" lon="5.98853">
        <ele>825</ele>
        <time>2019-12-17T10:02:30.000Z</time>
      </trkpt>
      <trkpt lat="43.36631" lon="5.98853">
        <ele>825</ele>
        <time>2019-12-17T10:02:31.000Z</time>
      </trkpt>
      <trkpt lat="43.36631" lon="5.98852">
        <ele>825</ele>
        <time>2019-12-17T10:02:32.000Z</time>
      </trkpt>
      <trkpt lat="43.36631" lon="5.98852">
        <ele>825</ele>
        <time>2019-12-17T10:02:33.000Z</time>
      </trkpt>
      <trkpt lat="43.36631" lon="5.98853">
        <ele>825</ele>
        <time>2019-12-17T10:02:34.000Z</time>
      </trkpt>
      <trkpt lat="43.36631" lon="5.98853">
        <ele>825</ele>
        <time>2019-12-17T10:02:35.000Z</time>
      </trkpt>
      <trkpt lat="43.36631" lon="5.98853">
        <ele>825</ele>
        <time>2019-12-17T10:02:36.000Z</time>
      </trkpt>
      <trkpt lat="43.36631" lon="5.98853">
        <ele>825</ele>
        <time>2019-12-17T10:02:37.000Z</time>
      </trkpt>
      <trkpt lat="43.36631" lon="5.98853">
        <ele>825</ele>
        <time>2019-12-17T10:02:38.000Z</time>
      </trkpt>
      <trkpt lat="43.36631" lon="5.98853">
        <ele>825</ele>
        <time>2019-12-17T10:02:39.000Z</time>
      </trkpt>
      <trkpt lat="43.36631" lon="5.98853">
        <ele>825</ele>
        <time>2019-12-17T10:02:40.000Z</time>
      </trkpt>
      <trkpt lat="43.36631" lon="5.98853">
        <ele>825</ele>
        <time>2019-12-17T10:02:41.000Z</time>
      </trkpt>
      <trkpt lat="43.36631" lon="5.98853">
        <ele>825</ele>
        <time>2019-12-17T10:02:42.000Z</time>
      </trkpt>
      <trkpt lat="43.3663" lon="5.98853">
        <ele>825</ele>
        <time>2019-12-17T10:02:43.000Z</time>
      </trkpt>
      <trkpt lat="43.3663" lon="5.98853">
        <ele>825</ele>
        <time>2019-12-17T10:02:44.000Z</time>
      </trkpt>
      <trkpt lat="43.3663" lon="5.98852">
        <ele>825</ele>
        <time>2019-12-17T10:02:45.000Z</time>
      </trkpt>
      <trkpt lat="43.3663" lon="5.98852">
        <ele>825</ele>
        <time>2019-12-17T10:02:46.000Z</time>
      </trkpt>
      <trkpt lat="43.36631" lon="5.98852">
        <ele>825</ele>
        <time>2019-12-17T10:02:47.000Z</time>
      </trkpt>
      <trkpt lat="43.3663" lon="5.98852">
        <ele>825</ele>
        <time>2019-12-17T10:02:48.000Z</time>
      </trkpt>
      <trkpt lat="43.3663" lon="5.98852">
        <ele>825</ele>
        <time>2019-12-17T10:02:49.000Z</time>
      </trkpt>
      <trkpt lat="43.3663" lon="5.98852">
        <ele>825</ele>
        <time>2019-12-17T10:02:50.000Z</time>
      </trkpt>
      <trkpt lat="43.3663" lon="5.98852">
        <ele>825</ele>
        <time>2019-12-17T10:02:51.000Z</time>
      </trkpt>
      <trkpt lat="43.3663" lon="5.98852">
        <ele>825</ele>
        <time>2019-12-17T10:02:52.000Z</time>
      </trkpt>
      <trkpt lat="43.3663" lon="5.98852">
        <ele>825</ele>
        <time>2019-12-17T10:02:53.000Z</time>
      </trkpt>
      <trkpt lat="43.3663" lon="5.98852">
        <ele>825</ele>
        <time>2019-12-17T10:02:54.000Z</time>
      </trkpt>
      <trkpt lat="43.3663" lon="5.98852">
        <ele>825</ele>
        <time>2019-12-17T10:02:55.000Z</time>
      </trkpt>
      <trkpt lat="43.3663" lon="5.98852">
        <ele>825</ele>
        <time>2019-12-17T10:02:56.000Z</time>
      </trkpt>
      <trkpt lat="43.3663" lon="5.98852">
        <ele>825</ele>
        <time>2019-12-17T10:02:57.000Z</time>
      </trkpt>
      <trkpt lat="43.3663" lon="5.98852">
        <ele>825</ele>
        <time>2019-12-17T10:02:58.000Z</time>
      </trkpt>
      <trkpt lat="43.3663" lon="5.98852">
        <ele>825</ele>
        <time>2019-12-17T10:02:59.000Z</time>
      </trkpt>
      <trkpt lat="43.3663" lon="5.98852">
        <ele>825</ele>
        <time>2019-12-17T10:03:00.000Z</time>
      </trkpt>
      <trkpt lat="43.3663" lon="5.98852">
        <ele>825</ele>
        <time>2019-12-17T10:03:01.000Z</time>
      </trkpt>
      <trkpt lat="43.3663" lon="5.98852">
        <ele>825</ele>
        <time>2019-12-17T10:03:02.000Z</time>
      </trkpt>
      <trkpt lat="43.3663" lon="5.98852">
        <ele>825</ele>
        <time>2019-12-17T10:03:03.000Z</time>
      </trkpt>
      <trkpt lat="43.3663" lon="5.98852">
        <ele>825</ele>
        <time>2019-12-17T10:03:04.000Z</time>
      </trkpt>
      <trkpt lat="43.3663" lon="5.98852">
        <ele>825</ele>
        <time>2019-12-17T10:03:05.000Z</time>
      </trkpt>
      <trkpt lat="43.3663" lon="5.98852">
        <ele>825</ele>
        <time>2019-12-17T10:03:06.000Z</time>
      </trkpt>
      <trkpt lat="43.3663" lon="5.98852">
        <ele>825</ele>
        <time>2019-12-17T10:03:07.000Z</time>
      </trkpt>
      <trkpt lat="43.3663" lon="5.98852">
        <ele>825</ele>
        <time>2019-12-17T10:03:08.000Z</time>
      </trkpt>
      <trkpt lat="43.3663" lon="5.98852">
        <ele>825</ele>
        <time>2019-12-17T10:03:09.000Z</time>
      </trkpt>
      <trkpt lat="43.3663" lon="5.98852">
        <ele>825</ele>
        <time>2019-12-17T10:03:10.000Z</time>
      </trkpt>
      <trkpt lat="43.3663" lon="5.98852">
        <ele>825</ele>
        <time>2019-12-17T10:03:11.000Z</time>
      </trkpt>
      <trkpt lat="43.3663" lon="5.98852">
        <ele>825</ele>
        <time>2019-12-17T10:03:12.000Z</time>
      </trkpt>
      <trkpt lat="43.3663" lon="5.98852">
        <ele>825</ele>
        <time>2019-12-17T10:03:13.000Z</time>
      </trkpt>
      <trkpt lat="43.3663" lon="5.98852">
        <ele>825</ele>
        <time>2019-12-17T10:03:14.000Z</time>
      </trkpt>
      <trkpt lat="43.3663" lon="5.98852">
        <ele>825</ele>
        <time>2019-12-17T10:03:15.000Z</time>
      </trkpt>
      <trkpt lat="43.3663" lon="5.98853">
        <ele>825</ele>
        <time>2019-12-17T10:03:16.000Z</time>
      </trkpt>
      <trkpt lat="43.3663" lon="5.98853">
        <ele>825</ele>
        <time>2019-12-17T10:03:17.000Z</time>
      </trkpt>
      <trkpt lat="43.3663" lon="5.98853">
        <ele>825</ele>
        <time>2019-12-17T10:03:18.000Z</time>
      </trkpt>
      <trkpt lat="43.3663" lon="5.98853">
        <ele>825</ele>
        <time>2019-12-17T10:03:19.000Z</time>
      </trkpt>
      <trkpt lat="43.3663" lon="5.98853">
        <ele>825</ele>
        <time>2019-12-17T10:03:20.000Z</time>
      </trkpt>
      <trkpt lat="43.3663" lon="5.98853">
        <ele>825</ele>
        <time>2019-12-17T10:03:21.000Z</time>
      </trkpt>
      <trkpt lat="43.3663" lon="5.98853">
        <ele>825</ele>
        <time>2019-12-17T10:03:22.000Z</time>
      </trkpt>
      <trkpt lat="43.3663" lon="5.98853">
        <ele>825</ele>
        <time>2019-12-17T10:03:23.000Z</time>
      </trkpt>
      <trkpt lat="43.3663" lon="5.98853">
        <ele>825</ele>
        <time>2019-12-17T10:03:24.000Z</time>
      </trkpt>
      <trkpt lat="43.3663" lon="5.98852">
        <ele>825</ele>
        <time>2019-12-17T10:03:25.000Z</time>
      </trkpt>
      <trkpt lat="43.3663" lon="5.98852">
        <ele>825</ele>
        <time>2019-12-17T10:03:26.000Z</time>
      </trkpt>
      <trkpt lat="43.3663" lon="5.98852">
        <ele>825</ele>
        <time>2019-12-17T10:03:27.000Z</time>
      </trkpt>
      <trkpt lat="43.3663" lon="5.98852">
        <ele>825</ele>
        <time>2019-12-17T10:03:28.000Z</time>
      </trkpt>
      <trkpt lat="43.36631" lon="5.98852">
        <ele>826</ele>
        <time>2019-12-17T10:03:29.000Z</time>
      </trkpt>
      <trkpt lat="43.36631" lon="5.98852">
        <ele>826</ele>
        <time>2019-12-17T10:03:30.000Z</time>
      </trkpt>
      <trkpt lat="43.3663" lon="5.98852">
        <ele>826</ele>
        <time>2019-12-17T10:03:31.000Z</time>
      </trkpt>
      <trkpt lat="43.3663" lon="5.98852">
        <ele>826</ele>
        <time>2019-12-17T10:03:32.000Z</time>
      </trkpt>
      <trkpt lat="43.36631" lon="5.98852">
        <ele>825</ele>
        <time>2019-12-17T10:03:33.000Z</time>
      </trkpt>
      <trkpt lat="43.3663" lon="5.98851">
        <ele>825</ele>
        <time>2019-12-17T10:03:34.000Z</time>
      </trkpt>
      <trkpt lat="43.3663" lon="5.98851">
        <ele>825</ele>
        <time>2019-12-17T10:03:35.000Z</time>
      </trkpt>
      <trkpt lat="43.3663" lon="5.98851">
        <ele>825</ele>
        <time>2019-12-17T10:03:36.000Z</time>
      </trkpt>
      <trkpt lat="43.3663" lon="5.98851">
        <ele>825</ele>
        <time>2019-12-17T10:03:37.000Z</time>
      </trkpt>
      <trkpt lat="43.3663" lon="5.98851">
        <ele>825</ele>
        <time>2019-12-17T10:03:38.000Z</time>
      </trkpt>
      <trkpt lat="43.3663" lon="5.98851">
        <ele>825</ele>
        <time>2019-12-17T10:03:39.000Z</time>
      </trkpt>
      <trkpt lat="43.3663" lon="5.98851">
        <ele>825</ele>
        <time>2019-12-17T10:03:40.000Z</time>
      </trkpt>
      <trkpt lat="43.3663" lon="5.9885">
        <ele>825</ele>
        <time>2019-12-17T10:03:41.000Z</time>
      </trkpt>
      <trkpt lat="43.3663" lon="5.98851">
        <ele>825</ele>
        <time>2019-12-17T10:03:42.000Z</time>
      </trkpt>
      <trkpt lat="43.3663" lon="5.98851">
        <ele>825</ele>
        <time>2019-12-17T10:03:43.000Z</time>
      </trkpt>
      <trkpt lat="43.3663" lon="5.9885">
        <ele>825</ele>
        <time>2019-12-17T10:03:44.000Z</time>
      </trkpt>
      <trkpt lat="43.3663" lon="5.9885">
        <ele>825</ele>
        <time>2019-12-17T10:03:45.000Z</time>
      </trkpt>
      <trkpt lat="43.36631" lon="5.98849">
        <ele>825</ele>
        <time>2019-12-17T10:03:46.000Z</time>
      </trkpt>
      <trkpt lat="43.36631" lon="5.98849">
        <ele>824</ele>
        <time>2019-12-17T10:03:47.000Z</time>
      </trkpt>
      <trkpt lat="43.36631" lon="5.98848">
        <ele>824</ele>
        <time>2019-12-17T10:03:48.000Z</time>
      </trkpt>
      <trkpt lat="43.3663" lon="5.98848">
        <ele>824</ele>
        <time>2019-12-17T10:03:49.000Z</time>
      </trkpt>
      <trkpt lat="43.3663" lon="5.98847">
        <ele>824</ele>
        <time>2019-12-17T10:03:50.000Z</time>
      </trkpt>
      <trkpt lat="43.3663" lon="5.98846">
        <ele>823</ele>
        <time>2019-12-17T10:03:51.000Z</time>
      </trkpt>
      <trkpt lat="43.3663" lon="5.98846">
        <ele>823</ele>
        <time>2019-12-17T10:03:52.000Z</time>
      </trkpt>
      <trkpt lat="43.3663" lon="5.98845">
        <ele>823</ele>
        <time>2019-12-17T10:03:53.000Z</time>
      </trkpt>
      <trkpt lat="43.3663" lon="5.98844">
        <ele>823</ele>
        <time>2019-12-17T10:03:54.000Z</time>
      </trkpt>
      <trkpt lat="43.36629" lon="5.98843">
        <ele>822</ele>
        <time>2019-12-17T10:03:55.000Z</time>
      </trkpt>
      <trkpt lat="43.36629" lon="5.98843">
        <ele>822</ele>
        <time>2019-12-17T10:03:56.000Z</time>
      </trkpt>
      <trkpt lat="43.36629" lon="5.98842">
        <ele>822</ele>
        <time>2019-12-17T10:03:57.000Z</time>
      </trkpt>
      <trkpt lat="43.36628" lon="5.98842">
        <ele>822</ele>
        <time>2019-12-17T10:03:58.000Z</time>
      </trkpt>
      <trkpt lat="43.36628" lon="5.98841">
        <ele>822</ele>
        <time>2019-12-17T10:03:59.000Z</time>
      </trkpt>
      <trkpt lat="43.36628" lon="5.9884">
        <ele>822</ele>
        <time>2019-12-17T10:04:00.000Z</time>
      </trkpt>
      <trkpt lat="43.36628" lon="5.9884">
        <ele>821</ele>
        <time>2019-12-17T10:04:01.000Z</time>
      </trkpt>
      <trkpt lat="43.36628" lon="5.9884">
        <ele>821</ele>
        <time>2019-12-17T10:04:02.000Z</time>
      </trkpt>
      <trkpt lat="43.36628" lon="5.9884">
        <ele>821</ele>
        <time>2019-12-17T10:04:03.000Z</time>
      </trkpt>
      <trkpt lat="43.36628" lon="5.9884">
        <ele>821</ele>
        <time>2019-12-17T10:04:04.000Z</time>
      </trkpt>
      <trkpt lat="43.36628" lon="5.9884">
        <ele>821</ele>
        <time>2019-12-17T10:04:05.000Z</time>
      </trkpt>
      <trkpt lat="43.36628" lon="5.9884">
        <ele>821</ele>
        <time>2019-12-17T10:04:06.000Z</time>
      </trkpt>
      <trkpt lat="43.36628" lon="5.9884">
        <ele>821</ele>
        <time>2019-12-17T10:04:07.000Z</time>
      </trkpt>
      <trkpt lat="43.36628" lon="5.9884">
        <ele>821</ele>
        <time>2019-12-17T10:04:08.000Z</time>
      </trkpt>
      <trkpt lat="43.36628" lon="5.98839">
        <ele>821</ele>
        <time>2019-12-17T10:04:09.000Z</time>
      </trkpt>
      <trkpt lat="43.36628" lon="5.98839">
        <ele>821</ele>
        <time>2019-12-17T10:04:10.000Z</time>
      </trkpt>
      <trkpt lat="43.36628" lon="5.9884">
        <ele>821</ele>
        <time>2019-12-17T10:04:11.000Z</time>
      </trkpt>
      <trkpt lat="43.36628" lon="5.9884">
        <ele>821</ele>
        <time>2019-12-17T10:04:12.000Z</time>
      </trkpt>
      <trkpt lat="43.36628" lon="5.9884">
        <ele>821</ele>
        <time>2019-12-17T10:04:13.000Z</time>
      </trkpt>
      <trkpt lat="43.36628" lon="5.9884">
        <ele>821</ele>
        <time>2019-12-17T10:04:14.000Z</time>
      </trkpt>
      <trkpt lat="43.36628" lon="5.9884">
        <ele>821</ele>
        <time>2019-12-17T10:04:15.000Z</time>
      </trkpt>
      <trkpt lat="43.36628" lon="5.9884">
        <ele>821</ele>
        <time>2019-12-17T10:04:16.000Z</time>
      </trkpt>
      <trkpt lat="43.36628" lon="5.9884">
        <ele>821</ele>
        <time>2019-12-17T10:04:17.000Z</time>
      </trkpt>
      <trkpt lat="43.36628" lon="5.9884">
        <ele>821</ele>
        <time>2019-12-17T10:04:18.000Z</time>
      </trkpt>
      <trkpt lat="43.36628" lon="5.9884">
        <ele>821</ele>
        <time>2019-12-17T10:04:19.000Z</time>
      </trkpt>
      <trkpt lat="43.36628" lon="5.9884">
        <ele>821</ele>
        <time>2019-12-17T10:04:20.000Z</time>
      </trkpt>
      <trkpt lat="43.36628" lon="5.9884">
        <ele>820</ele>
        <time>2019-12-17T10:04:21.000Z</time>
      </trkpt>
      <trkpt lat="43.36627" lon="5.9884">
        <ele>820</ele>
        <time>2019-12-17T10:04:22.000Z</time>
      </trkpt>
      <trkpt lat="43.36627" lon="5.9884">
        <ele>820</ele>
        <time>2019-12-17T10:04:23.000Z</time>
      </trkpt>
      <trkpt lat="43.36626" lon="5.9884">
        <ele>820</ele>
        <time>2019-12-17T10:04:24.000Z</time>
      </trkpt>
      <trkpt lat="43.36626" lon="5.9884">
        <ele>820</ele>
        <time>2019-12-17T10:04:25.000Z</time>
      </trkpt>
      <trkpt lat="43.36625" lon="5.9884">
        <ele>820</ele>
        <time>2019-12-17T10:04:26.000Z</time>
      </trkpt>
      <trkpt lat="43.36625" lon="5.98841">
        <ele>820</ele>
        <time>2019-12-17T10:04:27.000Z</time>
      </trkpt>
      <trkpt lat="43.36624" lon="5.98841">
        <ele>820</ele>
        <time>2019-12-17T10:04:28.000Z</time>
      </trkpt>
      <trkpt lat="43.36624" lon="5.98842">
        <ele>820</ele>
        <time>2019-12-17T10:04:29.000Z</time>
      </trkpt>
      <trkpt lat="43.36623" lon="5.98842">
        <ele>820</ele>
        <time>2019-12-17T10:04:30.000Z</time>
      </trkpt>
      <trkpt lat="43.36622" lon="5.98843">
        <ele>820</ele>
        <time>2019-12-17T10:04:31.000Z</time>
      </trkpt>
      <trkpt lat="43.36621" lon="5.98843">
        <ele>820</ele>
        <time>2019-12-17T10:04:32.000Z</time>
      </trkpt>
      <trkpt lat="43.3662" lon="5.98844">
        <ele>819</ele>
        <time>2019-12-17T10:04:33.000Z</time>
      </trkpt>
      <trkpt lat="43.36619" lon="5.98844">
        <ele>819</ele>
        <time>2019-12-17T10:04:34.000Z</time>
      </trkpt>
      <trkpt lat="43.36619" lon="5.98844">
        <ele>819</ele>
        <time>2019-12-17T10:04:35.000Z</time>
      </trkpt>
      <trkpt lat="43.36618" lon="5.98845">
        <ele>819</ele>
        <time>2019-12-17T10:04:36.000Z</time>
      </trkpt>
      <trkpt lat="43.36618" lon="5.98845">
        <ele>819</ele>
        <time>2019-12-17T10:04:37.000Z</time>
      </trkpt>
      <trkpt lat="43.36617" lon="5.98845">
        <ele>819</ele>
        <time>2019-12-17T10:04:38.000Z</time>
      </trkpt>
      <trkpt lat="43.36617" lon="5.98846">
        <ele>819</ele>
        <time>2019-12-17T10:04:39.000Z</time>
      </trkpt>
      <trkpt lat="43.36617" lon="5.98847">
        <ele>819</ele>
        <time>2019-12-17T10:04:40.000Z</time>
      </trkpt>
      <trkpt lat="43.36616" lon="5.98848">
        <ele>819</ele>
        <time>2019-12-17T10:04:41.000Z</time>
      </trkpt>
      <trkpt lat="43.36616" lon="5.98848">
        <ele>819</ele>
        <time>2019-12-17T10:04:42.000Z</time>
      </trkpt>
      <trkpt lat="43.36615" lon="5.98848">
        <ele>819</ele>
        <time>2019-12-17T10:04:43.000Z</time>
      </trkpt>
      <trkpt lat="43.36615" lon="5.98849">
        <ele>818</ele>
        <time>2019-12-17T10:04:44.000Z</time>
      </trkpt>
      <trkpt lat="43.36615" lon="5.9885">
        <ele>818</ele>
        <time>2019-12-17T10:04:45.000Z</time>
      </trkpt>
      <trkpt lat="43.36615" lon="5.98851">
        <ele>818</ele>
        <time>2019-12-17T10:04:46.000Z</time>
      </trkpt>
      <trkpt lat="43.36614" lon="5.98852">
        <ele>818</ele>
        <time>2019-12-17T10:04:47.000Z</time>
      </trkpt>
      <trkpt lat="43.36614" lon="5.98853">
        <ele>818</ele>
        <time>2019-12-17T10:04:48.000Z</time>
      </trkpt>
      <trkpt lat="43.36614" lon="5.98854">
        <ele>818</ele>
        <time>2019-12-17T10:04:49.000Z</time>
      </trkpt>
      <trkpt lat="43.36614" lon="5.98856">
        <ele>818</ele>
        <time>2019-12-17T10:04:50.000Z</time>
      </trkpt>
      <trkpt lat="43.36614" lon="5.98857">
        <ele>817</ele>
        <time>2019-12-17T10:04:51.000Z</time>
      </trkpt>
      <trkpt lat="43.36613" lon="5.98858">
        <ele>817</ele>
        <time>2019-12-17T10:04:52.000Z</time>
      </trkpt>
      <trkpt lat="43.36613" lon="5.98859">
        <ele>817</ele>
        <time>2019-12-17T10:04:53.000Z</time>
      </trkpt>
      <trkpt lat="43.36614" lon="5.9886">
        <ele>817</ele>
        <time>2019-12-17T10:04:54.000Z</time>
      </trkpt>
      <trkpt lat="43.36614" lon="5.98861">
        <ele>817</ele>
        <time>2019-12-17T10:04:55.000Z</time>
      </trkpt>
      <trkpt lat="43.36614" lon="5.98862">
        <ele>817</ele>
        <time>2019-12-17T10:04:56.000Z</time>
      </trkpt>
      <trkpt lat="43.36614" lon="5.98863">
        <ele>817</ele>
        <time>2019-12-17T10:04:57.000Z</time>
      </trkpt>
      <trkpt lat="43.36614" lon="5.98865">
        <ele>817</ele>
        <time>2019-12-17T10:04:58.000Z</time>
      </trkpt>
      <trkpt lat="43.36614" lon="5.98866">
        <ele>817</ele>
        <time>2019-12-17T10:04:59.000Z</time>
      </trkpt>
      <trkpt lat="43.36615" lon="5.98866">
        <ele>817</ele>
        <time>2019-12-17T10:05:00.000Z</time>
      </trkpt>
      <trkpt lat="43.36615" lon="5.98867">
        <ele>817</ele>
        <time>2019-12-17T10:05:01.000Z</time>
      </trkpt>
      <trkpt lat="43.36614" lon="5.98868">
        <ele>816</ele>
        <time>2019-12-17T10:05:02.000Z</time>
      </trkpt>
      <trkpt lat="43.36614" lon="5.98868">
        <ele>816</ele>
        <time>2019-12-17T10:05:03.000Z</time>
      </trkpt>
      <trkpt lat="43.36614" lon="5.98869">
        <ele>816</ele>
        <time>2019-12-17T10:05:04.000Z</time>
      </trkpt>
      <trkpt lat="43.36613" lon="5.9887">
        <ele>816</ele>
        <time>2019-12-17T10:05:05.000Z</time>
      </trkpt>
      <trkpt lat="43.36613" lon="5.9887">
        <ele>816</ele>
        <time>2019-12-17T10:05:06.000Z</time>
      </trkpt>
      <trkpt lat="43.36613" lon="5.98872">
        <ele>816</ele>
        <time>2019-12-17T10:05:07.000Z</time>
      </trkpt>
      <trkpt lat="43.36613" lon="5.98873">
        <ele>816</ele>
        <time>2019-12-17T10:05:08.000Z</time>
      </trkpt>
      <trkpt lat="43.36613" lon="5.98874">
        <ele>815</ele>
        <time>2019-12-17T10:05:09.000Z</time>
      </trkpt>
      <trkpt lat="43.36613" lon="5.98875">
        <ele>815</ele>
        <time>2019-12-17T10:05:10.000Z</time>
      </trkpt>
      <trkpt lat="43.36613" lon="5.98876">
        <ele>815</ele>
        <time>2019-12-17T10:05:11.000Z</time>
      </trkpt>
      <trkpt lat="43.36613" lon="5.98877">
        <ele>815</ele>
        <time>2019-12-17T10:05:12.000Z</time>
      </trkpt>
      <trkpt lat="43.36613" lon="5.98879">
        <ele>815</ele>
        <time>2019-12-17T10:05:13.000Z</time>
      </trkpt>
      <trkpt lat="43.36612" lon="5.98881">
        <ele>815</ele>
        <time>2019-12-17T10:05:14.000Z</time>
      </trkpt>
      <trkpt lat="43.36612" lon="5.98882">
        <ele>815</ele>
        <time>2019-12-17T10:05:15.000Z</time>
      </trkpt>
      <trkpt lat="43.36612" lon="5.98883">
        <ele>815</ele>
        <time>2019-12-17T10:05:16.000Z</time>
      </trkpt>
      <trkpt lat="43.36612" lon="5.98884">
        <ele>814</ele>
        <time>2019-12-17T10:05:17.000Z</time>
      </trkpt>
      <trkpt lat="43.36612" lon="5.98885">
        <ele>814</ele>
        <time>2019-12-17T10:05:18.000Z</time>
      </trkpt>
      <trkpt lat="43.36612" lon="5.98885">
        <ele>814</ele>
        <time>2019-12-17T10:05:19.000Z</time>
      </trkpt>
      <trkpt lat="43.36612" lon="5.98886">
        <ele>814</ele>
        <time>2019-12-17T10:05:20.000Z</time>
      </trkpt>
      <trkpt lat="43.36611" lon="5.98887">
        <ele>814</ele>
        <time>2019-12-17T10:05:21.000Z</time>
      </trkpt>
      <trkpt lat="43.36611" lon="5.98887">
        <ele>814</ele>
        <time>2019-12-17T10:05:22.000Z</time>
      </trkpt>
      <trkpt lat="43.3661" lon="5.98889">
        <ele>814</ele>
        <time>2019-12-17T10:05:23.000Z</time>
      </trkpt>
      <trkpt lat="43.3661" lon="5.9889">
        <ele>814</ele>
        <time>2019-12-17T10:05:24.000Z</time>
      </trkpt>
      <trkpt lat="43.3661" lon="5.98891">
        <ele>814</ele>
        <time>2019-12-17T10:05:25.000Z</time>
      </trkpt>
      <trkpt lat="43.3661" lon="5.98892">
        <ele>814</ele>
        <time>2019-12-17T10:05:26.000Z</time>
      </trkpt>
      <trkpt lat="43.3661" lon="5.98894">
        <ele>814</ele>
        <time>2019-12-17T10:05:27.000Z</time>
      </trkpt>
      <trkpt lat="43.3661" lon="5.98895">
        <ele>814</ele>
        <time>2019-12-17T10:05:28.000Z</time>
      </trkpt>
      <trkpt lat="43.36609" lon="5.98896">
        <ele>814</ele>
        <time>2019-12-17T10:05:29.000Z</time>
      </trkpt>
      <trkpt lat="43.36609" lon="5.98898">
        <ele>814</ele>
        <time>2019-12-17T10:05:30.000Z</time>
      </trkpt>
      <trkpt lat="43.3661" lon="5.98899">
        <ele>814</ele>
        <time>2019-12-17T10:05:31.000Z</time>
      </trkpt>
      <trkpt lat="43.3661" lon="5.98901">
        <ele>814</ele>
        <time>2019-12-17T10:05:32.000Z</time>
      </trkpt>
      <trkpt lat="43.3661" lon="5.98902">
        <ele>814</ele>
        <time>2019-12-17T10:05:33.000Z</time>
      </trkpt>
      <trkpt lat="43.3661" lon="5.98903">
        <ele>814</ele>
        <time>2019-12-17T10:05:34.000Z</time>
      </trkpt>
      <trkpt lat="43.36611" lon="5.98904">
        <ele>814</ele>
        <time>2019-12-17T10:05:35.000Z</time>
      </trkpt>
      <trkpt lat="43.36611" lon="5.98906">
        <ele>814</ele>
        <time>2019-12-17T10:05:36.000Z</time>
      </trkpt>
      <trkpt lat="43.36611" lon="5.98907">
        <ele>813</ele>
        <time>2019-12-17T10:05:37.000Z</time>
      </trkpt>
      <trkpt lat="43.36611" lon="5.98908">
        <ele>813</ele>
        <time>2019-12-17T10:05:38.000Z</time>
      </trkpt>
      <trkpt lat="43.36611" lon="5.98909">
        <ele>813</ele>
        <time>2019-12-17T10:05:39.000Z</time>
      </trkpt>
      <trkpt lat="43.36611" lon="5.9891">
        <ele>813</ele>
        <time>2019-12-17T10:05:40.000Z</time>
      </trkpt>
      <trkpt lat="43.36611" lon="5.98912">
        <ele>813</ele>
        <time>2019-12-17T10:05:41.000Z</time>
      </trkpt>
      <trkpt lat="43.36612" lon="5.98913">
        <ele>813</ele>
        <time>2019-12-17T10:05:42.000Z</time>
      </trkpt>
      <trkpt lat="43.36612" lon="5.98914">
        <ele>813</ele>
        <time>2019-12-17T10:05:43.000Z</time>
      </trkpt>
      <trkpt lat="43.36612" lon="5.98915">
        <ele>813</ele>
        <time>2019-12-17T10:05:44.000Z</time>
      </trkpt>
      <trkpt lat="43.36612" lon="5.98917">
        <ele>813</ele>
        <time>2019-12-17T10:05:45.000Z</time>
      </trkpt>
      <trkpt lat="43.36612" lon="5.98918">
        <ele>813</ele>
        <time>2019-12-17T10:05:46.000Z</time>
      </trkpt>
      <trkpt lat="43.36612" lon="5.98919">
        <ele>813</ele>
        <time>2019-12-17T10:05:47.000Z</time>
      </trkpt>
      <trkpt lat="43.36612" lon="5.9892">
        <ele>813</ele>
        <time>2019-12-17T10:05:48.000Z</time>
      </trkpt>
      <trkpt lat="43.36612" lon="5.9892">
        <ele>812</ele>
        <time>2019-12-17T10:05:49.000Z</time>
      </trkpt>
      <trkpt lat="43.36613" lon="5.98921">
        <ele>812</ele>
        <time>2019-12-17T10:05:50.000Z</time>
      </trkpt>
      <trkpt lat="43.36613" lon="5.98921">
        <ele>812</ele>
        <time>2019-12-17T10:05:51.000Z</time>
      </trkpt>
      <trkpt lat="43.36613" lon="5.98922">
        <ele>812</ele>
        <time>2019-12-17T10:05:52.000Z</time>
      </trkpt>
      <trkpt lat="43.36613" lon="5.98923">
        <ele>812</ele>
        <time>2019-12-17T10:05:53.000Z</time>
      </trkpt>
      <trkpt lat="43.36613" lon="5.98924">
        <ele>812</ele>
        <time>2019-12-17T10:05:54.000Z</time>
      </trkpt>
      <trkpt lat="43.36613" lon="5.98925">
        <ele>812</ele>
        <time>2019-12-17T10:05:55.000Z</time>
      </trkpt>
      <trkpt lat="43.36613" lon="5.98926">
        <ele>812</ele>
        <time>2019-12-17T10:05:56.000Z</time>
      </trkpt>
      <trkpt lat="43.36613" lon="5.98927">
        <ele>812</ele>
        <time>2019-12-17T10:05:57.000Z</time>
      </trkpt>
      <trkpt lat="43.36613" lon="5.98928">
        <ele>812</ele>
        <time>2019-12-17T10:05:58.000Z</time>
      </trkpt>
      <trkpt lat="43.36614" lon="5.9893">
        <ele>812</ele>
        <time>2019-12-17T10:05:59.000Z</time>
      </trkpt>
      <trkpt lat="43.36614" lon="5.98931">
        <ele>812</ele>
        <time>2019-12-17T10:06:00.000Z</time>
      </trkpt>
      <trkpt lat="43.36614" lon="5.98932">
        <ele>812</ele>
        <time>2019-12-17T10:06:01.000Z</time>
      </trkpt>
      <trkpt lat="43.36614" lon="5.98933">
        <ele>811</ele>
        <time>2019-12-17T10:06:02.000Z</time>
      </trkpt>
      <trkpt lat="43.36614" lon="5.98934">
        <ele>811</ele>
        <time>2019-12-17T10:06:03.000Z</time>
      </trkpt>
      <trkpt lat="43.36615" lon="5.98935">
        <ele>811</ele>
        <time>2019-12-17T10:06:04.000Z</time>
      </trkpt>
      <trkpt lat="43.36615" lon="5.98936">
        <ele>811</ele>
        <time>2019-12-17T10:06:05.000Z</time>
      </trkpt>
      <trkpt lat="43.36615" lon="5.98937">
        <ele>811</ele>
        <time>2019-12-17T10:06:06.000Z</time>
      </trkpt>
      <trkpt lat="43.36615" lon="5.98938">
        <ele>811</ele>
        <time>2019-12-17T10:06:07.000Z</time>
      </trkpt>
      <trkpt lat="43.36615" lon="5.98939">
        <ele>811</ele>
        <time>2019-12-17T10:06:08.000Z</time>
      </trkpt>
      <trkpt lat="43.36616" lon="5.98941">
        <ele>811</ele>
        <time>2019-12-17T10:06:09.000Z</time>
      </trkpt>
      <trkpt lat="43.36616" lon="5.98942">
        <ele>811</ele>
        <time>2019-12-17T10:06:10.000Z</time>
      </trkpt>
      <trkpt lat="43.36616" lon="5.98943">
        <ele>811</ele>
        <time>2019-12-17T10:06:11.000Z</time>
      </trkpt>
      <trkpt lat="43.36616" lon="5.98944">
        <ele>810</ele>
        <time>2019-12-17T10:06:12.000Z</time>
      </trkpt>
      <trkpt lat="43.36616" lon="5.98946">
        <ele>810</ele>
        <time>2019-12-17T10:06:13.000Z</time>
      </trkpt>
      <trkpt lat="43.36616" lon="5.98947">
        <ele>810</ele>
        <time>2019-12-17T10:06:14.000Z</time>
      </trkpt>
      <trkpt lat="43.36616" lon="5.98948">
        <ele>810</ele>
        <time>2019-12-17T10:06:15.000Z</time>
      </trkpt>
      <trkpt lat="43.36616" lon="5.9895">
        <ele>810</ele>
        <time>2019-12-17T10:06:16.000Z</time>
      </trkpt>
      <trkpt lat="43.36616" lon="5.98952">
        <ele>810</ele>
        <time>2019-12-17T10:06:17.000Z</time>
      </trkpt>
      <trkpt lat="43.36616" lon="5.98953">
        <ele>810</ele>
        <time>2019-12-17T10:06:18.000Z</time>
      </trkpt>
      <trkpt lat="43.36616" lon="5.98954">
        <ele>810</ele>
        <time>2019-12-17T10:06:19.000Z</time>
      </trkpt>
      <trkpt lat="43.36616" lon="5.98955">
        <ele>810</ele>
        <time>2019-12-17T10:06:20.000Z</time>
      </trkpt>
      <trkpt lat="43.36617" lon="5.98957">
        <ele>810</ele>
        <time>2019-12-17T10:06:21.000Z</time>
      </trkpt>
      <trkpt lat="43.36617" lon="5.98958">
        <ele>810</ele>
        <time>2019-12-17T10:06:22.000Z</time>
      </trkpt>
      <trkpt lat="43.36617" lon="5.98959">
        <ele>810</ele>
        <time>2019-12-17T10:06:23.000Z</time>
      </trkpt>
      <trkpt lat="43.36618" lon="5.98961">
        <ele>810</ele>
        <time>2019-12-17T10:06:24.000Z</time>
      </trkpt>
      <trkpt lat="43.36618" lon="5.98962">
        <ele>810</ele>
        <time>2019-12-17T10:06:25.000Z</time>
      </trkpt>
      <trkpt lat="43.36618" lon="5.98964">
        <ele>810</ele>
        <time>2019-12-17T10:06:26.000Z</time>
      </trkpt>
      <trkpt lat="43.36618" lon="5.98964">
        <ele>810</ele>
        <time>2019-12-17T10:06:27.000Z</time>
      </trkpt>
      <trkpt lat="43.36618" lon="5.98965">
        <ele>810</ele>
        <time>2019-12-17T10:06:28.000Z</time>
      </trkpt>
      <trkpt lat="43.36618" lon="5.98965">
        <ele>810</ele>
        <time>2019-12-17T10:06:29.000Z</time>
      </trkpt>
      <trkpt lat="43.36618" lon="5.98965">
        <ele>810</ele>
        <time>2019-12-17T10:06:30.000Z</time>
      </trkpt>
      <trkpt lat="43.36618" lon="5.98965">
        <ele>810</ele>
        <time>2019-12-17T10:06:31.000Z</time>
      </trkpt>
      <trkpt lat="43.36618" lon="5.98966">
        <ele>810</ele>
        <time>2019-12-17T10:06:32.000Z</time>
      </trkpt>
      <trkpt lat="43.36618" lon="5.98967">
        <ele>810</ele>
        <time>2019-12-17T10:06:33.000Z</time>
      </trkpt>
      <trkpt lat="43.36618" lon="5.98968">
        <ele>810</ele>
        <time>2019-12-17T10:06:34.000Z</time>
      </trkpt>
      <trkpt lat="43.36618" lon="5.98969">
        <ele>810</ele>
        <time>2019-12-17T10:06:35.000Z</time>
      </trkpt>
      <trkpt lat="43.36619" lon="5.9897">
        <ele>810</ele>
        <time>2019-12-17T10:06:36.000Z</time>
      </trkpt>
      <trkpt lat="43.36619" lon="5.98971">
        <ele>810</ele>
        <time>2019-12-17T10:06:37.000Z</time>
      </trkpt>
      <trkpt lat="43.36619" lon="5.98972">
        <ele>810</ele>
        <time>2019-12-17T10:06:38.000Z</time>
      </trkpt>
      <trkpt lat="43.36619" lon="5.98973">
        <ele>810</ele>
        <time>2019-12-17T10:06:39.000Z</time>
      </trkpt>
      <trkpt lat="43.3662" lon="5.98975">
        <ele>810</ele>
        <time>2019-12-17T10:06:40.000Z</time>
      </trkpt>
      <trkpt lat="43.3662" lon="5.98976">
        <ele>810</ele>
        <time>2019-12-17T10:06:41.000Z</time>
      </trkpt>
      <trkpt lat="43.36621" lon="5.98976">
        <ele>810</ele>
        <time>2019-12-17T10:06:42.000Z</time>
      </trkpt>
      <trkpt lat="43.36621" lon="5.98977">
        <ele>810</ele>
        <time>2019-12-17T10:06:43.000Z</time>
      </trkpt>
      <trkpt lat="43.36622" lon="5.98978">
        <ele>810</ele>
        <time>2019-12-17T10:06:44.000Z</time>
      </trkpt>
      <trkpt lat="43.36623" lon="5.98979">
        <ele>810</ele>
        <time>2019-12-17T10:06:45.000Z</time>
      </trkpt>
      <trkpt lat="43.36623" lon="5.98979">
        <ele>810</ele>
        <time>2019-12-17T10:06:46.000Z</time>
      </trkpt>
      <trkpt lat="43.36624" lon="5.9898">
        <ele>810</ele>
        <time>2019-12-17T10:06:47.000Z</time>
      </trkpt>
      <trkpt lat="43.36624" lon="5.98981">
        <ele>810</ele>
        <time>2019-12-17T10:06:48.000Z</time>
      </trkpt>
      <trkpt lat="43.36625" lon="5.98981">
        <ele>810</ele>
        <time>2019-12-17T10:06:49.000Z</time>
      </trkpt>
      <trkpt lat="43.36626" lon="5.98982">
        <ele>811</ele>
        <time>2019-12-17T10:06:50.000Z</time>
      </trkpt>
      <trkpt lat="43.36627" lon="5.98982">
        <ele>811</ele>
        <time>2019-12-17T10:06:51.000Z</time>
      </trkpt>
      <trkpt lat="43.36627" lon="5.98982">
        <ele>811</ele>
        <time>2019-12-17T10:06:52.000Z</time>
      </trkpt>
      <trkpt lat="43.36628" lon="5.98983">
        <ele>811</ele>
        <time>2019-12-17T10:06:53.000Z</time>
      </trkpt>
      <trkpt lat="43.3663" lon="5.98983">
        <ele>811</ele>
        <time>2019-12-17T10:06:54.000Z</time>
      </trkpt>
      <trkpt lat="43.36631" lon="5.98983">
        <ele>811</ele>
        <time>2019-12-17T10:06:55.000Z</time>
      </trkpt>
      <trkpt lat="43.36632" lon="5.98983">
        <ele>811</ele>
        <time>2019-12-17T10:06:56.000Z</time>
      </trkpt>
      <trkpt lat="43.36633" lon="5.98983">
        <ele>812</ele>
        <time>2019-12-17T10:06:57.000Z</time>
      </trkpt>
      <trkpt lat="43.36633" lon="5.98984">
        <ele>812</ele>
        <time>2019-12-17T10:06:58.000Z</time>
      </trkpt>
      <trkpt lat="43.36634" lon="5.98984">
        <ele>812</ele>
        <time>2019-12-17T10:06:59.000Z</time>
      </trkpt>
      <trkpt lat="43.36635" lon="5.98985">
        <ele>812</ele>
        <time>2019-12-17T10:07:00.000Z</time>
      </trkpt>
      <trkpt lat="43.36636" lon="5.98986">
        <ele>812</ele>
        <time>2019-12-17T10:07:01.000Z</time>
      </trkpt>
      <trkpt lat="43.36636" lon="5.98987">
        <ele>812</ele>
        <time>2019-12-17T10:07:02.000Z</time>
      </trkpt>
      <trkpt lat="43.36637" lon="5.98988">
        <ele>812</ele>
        <time>2019-12-17T10:07:03.000Z</time>
      </trkpt>
      <trkpt lat="43.36637" lon="5.98989">
        <ele>812</ele>
        <time>2019-12-17T10:07:04.000Z</time>
      </trkpt>
      <trkpt lat="43.36638" lon="5.9899">
        <ele>812</ele>
        <time>2019-12-17T10:07:05.000Z</time>
      </trkpt>
      <trkpt lat="43.36639" lon="5.98991">
        <ele>812</ele>
        <time>2019-12-17T10:07:06.000Z</time>
      </trkpt>
      <trkpt lat="43.36639" lon="5.98992">
        <ele>812</ele>
        <time>2019-12-17T10:07:07.000Z</time>
      </trkpt>
      <trkpt lat="43.36639" lon="5.98993">
        <ele>812</ele>
        <time>2019-12-17T10:07:08.000Z</time>
      </trkpt>
      <trkpt lat="43.3664" lon="5.98994">
        <ele>812</ele>
        <time>2019-12-17T10:07:09.000Z</time>
      </trkpt>
      <trkpt lat="43.3664" lon="5.98995">
        <ele>812</ele>
        <time>2019-12-17T10:07:10.000Z</time>
      </trkpt>
      <trkpt lat="43.36641" lon="5.98996">
        <ele>812</ele>
        <time>2019-12-17T10:07:11.000Z</time>
      </trkpt>
      <trkpt lat="43.36642" lon="5.98997">
        <ele>812</ele>
        <time>2019-12-17T10:07:12.000Z</time>
      </trkpt>
      <trkpt lat="43.36642" lon="5.98998">
        <ele>811</ele>
        <time>2019-12-17T10:07:13.000Z</time>
      </trkpt>
      <trkpt lat="43.36643" lon="5.99">
        <ele>811</ele>
        <time>2019-12-17T10:07:14.000Z</time>
      </trkpt>
      <trkpt lat="43.36643" lon="5.99001">
        <ele>811</ele>
        <time>2019-12-17T10:07:15.000Z</time>
      </trkpt>
      <trkpt lat="43.36644" lon="5.99002">
        <ele>811</ele>
        <time>2019-12-17T10:07:16.000Z</time>
      </trkpt>
      <trkpt lat="43.36644" lon="5.99003">
        <ele>811</ele>
        <time>2019-12-17T10:07:17.000Z</time>
      </trkpt>
      <trkpt lat="43.36645" lon="5.99004">
        <ele>811</ele>
        <time>2019-12-17T10:07:18.000Z</time>
      </trkpt>
      <trkpt lat="43.36646" lon="5.99005">
        <ele>811</ele>
        <time>2019-12-17T10:07:19.000Z</time>
      </trkpt>
      <trkpt lat="43.36647" lon="5.99005">
        <ele>811</ele>
        <time>2019-12-17T10:07:20.000Z</time>
      </trkpt>
      <trkpt lat="43.36648" lon="5.99006">
        <ele>811</ele>
        <time>2019-12-17T10:07:21.000Z</time>
      </trkpt>
      <trkpt lat="43.36649" lon="5.99007">
        <ele>811</ele>
        <time>2019-12-17T10:07:22.000Z</time>
      </trkpt>
      <trkpt lat="43.36649" lon="5.99008">
        <ele>811</ele>
        <time>2019-12-17T10:07:23.000Z</time>
      </trkpt>
      <trkpt lat="43.3665" lon="5.99009">
        <ele>811</ele>
        <time>2019-12-17T10:07:24.000Z</time>
      </trkpt>
      <trkpt lat="43.36651" lon="5.99009">
        <ele>811</ele>
        <time>2019-12-17T10:07:25.000Z</time>
      </trkpt>
      <trkpt lat="43.36652" lon="5.9901">
        <ele>811</ele>
        <time>2019-12-17T10:07:26.000Z</time>
      </trkpt>
      <trkpt lat="43.36653" lon="5.99011">
        <ele>811</ele>
        <time>2019-12-17T10:07:27.000Z</time>
      </trkpt>
      <trkpt lat="43.36654" lon="5.99012">
        <ele>811</ele>
        <time>2019-12-17T10:07:28.000Z</time>
      </trkpt>
      <trkpt lat="43.36655" lon="5.99012">
        <ele>811</ele>
        <time>2019-12-17T10:07:29.000Z</time>
      </trkpt>
      <trkpt lat="43.36656" lon="5.99012">
        <ele>811</ele>
        <time>2019-12-17T10:07:30.000Z</time>
      </trkpt>
      <trkpt lat="43.36657" lon="5.99013">
        <ele>811</ele>
        <time>2019-12-17T10:07:31.000Z</time>
      </trkpt>
      <trkpt lat="43.36658" lon="5.99014">
        <ele>811</ele>
        <time>2019-12-17T10:07:32.000Z</time>
      </trkpt>
      <trkpt lat="43.36659" lon="5.99014">
        <ele>811</ele>
        <time>2019-12-17T10:07:33.000Z</time>
      </trkpt>
      <trkpt lat="43.3666" lon="5.99015">
        <ele>811</ele>
        <time>2019-12-17T10:07:34.000Z</time>
      </trkpt>
      <trkpt lat="43.36661" lon="5.99016">
        <ele>811</ele>
        <time>2019-12-17T10:07:35.000Z</time>
      </trkpt>
      <trkpt lat="43.36662" lon="5.99016">
        <ele>811</ele>
        <time>2019-12-17T10:07:36.000Z</time>
      </trkpt>
      <trkpt lat="43.36663" lon="5.99017">
        <ele>811</ele>
        <time>2019-12-17T10:07:37.000Z</time>
      </trkpt>
      <trkpt lat="43.36664" lon="5.99018">
        <ele>811</ele>
        <time>2019-12-17T10:07:38.000Z</time>
      </trkpt>
      <trkpt lat="43.36665" lon="5.99018">
        <ele>811</ele>
        <time>2019-12-17T10:07:39.000Z</time>
      </trkpt>
      <trkpt lat="43.36666" lon="5.99019">
        <ele>811</ele>
        <time>2019-12-17T10:07:40.000Z</time>
      </trkpt>
      <trkpt lat="43.36666" lon="5.9902">
        <ele>811</ele>
        <time>2019-12-17T10:07:41.000Z</time>
      </trkpt>
      <trkpt lat="43.36667" lon="5.9902">
        <ele>811</ele>
        <time>2019-12-17T10:07:42.000Z</time>
      </trkpt>
      <trkpt lat="43.36668" lon="5.99021">
        <ele>811</ele>
        <time>2019-12-17T10:07:43.000Z</time>
      </trkpt>
      <trkpt lat="43.36669" lon="5.99022">
        <ele>811</ele>
        <time>2019-12-17T10:07:44.000Z</time>
      </trkpt>
      <trkpt lat="43.36669" lon="5.99022">
        <ele>811</ele>
        <time>2019-12-17T10:07:45.000Z</time>
      </trkpt>
      <trkpt lat="43.3667" lon="5.99023">
        <ele>811</ele>
        <time>2019-12-17T10:07:46.000Z</time>
      </trkpt>
      <trkpt lat="43.36671" lon="5.99024">
        <ele>811</ele>
        <time>2019-12-17T10:07:47.000Z</time>
      </trkpt>
      <trkpt lat="43.36672" lon="5.99024">
        <ele>811</ele>
        <time>2019-12-17T10:07:48.000Z</time>
      </trkpt>
      <trkpt lat="43.36673" lon="5.99025">
        <ele>811</ele>
        <time>2019-12-17T10:07:49.000Z</time>
      </trkpt>
      <trkpt lat="43.36674" lon="5.99025">
        <ele>811</ele>
        <time>2019-12-17T10:07:50.000Z</time>
      </trkpt>
      <trkpt lat="43.36675" lon="5.99026">
        <ele>811</ele>
        <time>2019-12-17T10:07:51.000Z</time>
      </trkpt>
      <trkpt lat="43.36676" lon="5.99027">
        <ele>811</ele>
        <time>2019-12-17T10:07:52.000Z</time>
      </trkpt>
      <trkpt lat="43.36677" lon="5.99027">
        <ele>811</ele>
        <time>2019-12-17T10:07:53.000Z</time>
      </trkpt>
      <trkpt lat="43.36678" lon="5.99028">
        <ele>812</ele>
        <time>2019-12-17T10:07:54.000Z</time>
      </trkpt>
      <trkpt lat="43.36679" lon="5.99028">
        <ele>812</ele>
        <time>2019-12-17T10:07:55.000Z</time>
      </trkpt>
      <trkpt lat="43.3668" lon="5.99029">
        <ele>812</ele>
        <time>2019-12-17T10:07:56.000Z</time>
      </trkpt>
      <trkpt lat="43.36681" lon="5.99029">
        <ele>812</ele>
        <time>2019-12-17T10:07:57.000Z</time>
      </trkpt>
      <trkpt lat="43.36682" lon="5.9903">
        <ele>812</ele>
        <time>2019-12-17T10:07:58.000Z</time>
      </trkpt>
      <trkpt lat="43.36683" lon="5.9903">
        <ele>812</ele>
        <time>2019-12-17T10:07:59.000Z</time>
      </trkpt>
      <trkpt lat="43.36684" lon="5.99031">
        <ele>812</ele>
        <time>2019-12-17T10:08:00.000Z</time>
      </trkpt>
      <trkpt lat="43.36685" lon="5.99031">
        <ele>812</ele>
        <time>2019-12-17T10:08:01.000Z</time>
      </trkpt>
      <trkpt lat="43.36686" lon="5.99032">
        <ele>811</ele>
        <time>2019-12-17T10:08:02.000Z</time>
      </trkpt>
      <trkpt lat="43.36687" lon="5.99032">
        <ele>811</ele>
        <time>2019-12-17T10:08:03.000Z</time>
      </trkpt>
      <trkpt lat="43.36688" lon="5.99032">
        <ele>811</ele>
        <time>2019-12-17T10:08:04.000Z</time>
      </trkpt>
      <trkpt lat="43.36689" lon="5.99032">
        <ele>811</ele>
        <time>2019-12-17T10:08:05.000Z</time>
      </trkpt>
      <trkpt lat="43.3669" lon="5.99033">
        <ele>811</ele>
        <time>2019-12-17T10:08:06.000Z</time>
      </trkpt>
      <trkpt lat="43.36691" lon="5.99033">
        <ele>811</ele>
        <time>2019-12-17T10:08:07.000Z</time>
      </trkpt>
      <trkpt lat="43.36692" lon="5.99033">
        <ele>811</ele>
        <time>2019-12-17T10:08:08.000Z</time>
      </trkpt>
      <trkpt lat="43.36693" lon="5.99034">
        <ele>811</ele>
        <time>2019-12-17T10:08:09.000Z</time>
      </trkpt>
      <trkpt lat="43.36693" lon="5.99035">
        <ele>811</ele>
        <time>2019-12-17T10:08:10.000Z</time>
      </trkpt>
      <trkpt lat="43.36694" lon="5.99036">
        <ele>811</ele>
        <time>2019-12-17T10:08:11.000Z</time>
      </trkpt>
      <trkpt lat="43.36695" lon="5.99036">
        <ele>811</ele>
        <time>2019-12-17T10:08:12.000Z</time>
      </trkpt>
      <trkpt lat="43.36697" lon="5.99037">
        <ele>811</ele>
        <time>2019-12-17T10:08:13.000Z</time>
      </trkpt>
      <trkpt lat="43.36698" lon="5.99037">
        <ele>811</ele>
        <time>2019-12-17T10:08:14.000Z</time>
      </trkpt>
      <trkpt lat="43.36699" lon="5.99038">
        <ele>810</ele>
        <time>2019-12-17T10:08:15.000Z</time>
      </trkpt>
      <trkpt lat="43.367" lon="5.99039">
        <ele>810</ele>
        <time>2019-12-17T10:08:16.000Z</time>
      </trkpt>
      <trkpt lat="43.36701" lon="5.9904">
        <ele>810</ele>
        <time>2019-12-17T10:08:17.000Z</time>
      </trkpt>
      <trkpt lat="43.36701" lon="5.9904">
        <ele>810</ele>
        <time>2019-12-17T10:08:18.000Z</time>
      </trkpt>
      <trkpt lat="43.36702" lon="5.99041">
        <ele>810</ele>
        <time>2019-12-17T10:08:19.000Z</time>
      </trkpt>
      <trkpt lat="43.36703" lon="5.99042">
        <ele>810</ele>
        <time>2019-12-17T10:08:20.000Z</time>
      </trkpt>
      <trkpt lat="43.36704" lon="5.99043">
        <ele>810</ele>
        <time>2019-12-17T10:08:21.000Z</time>
      </trkpt>
      <trkpt lat="43.36705" lon="5.99044">
        <ele>810</ele>
        <time>2019-12-17T10:08:22.000Z</time>
      </trkpt>
      <trkpt lat="43.36706" lon="5.99045">
        <ele>810</ele>
        <time>2019-12-17T10:08:23.000Z</time>
      </trkpt>
      <trkpt lat="43.36707" lon="5.99046">
        <ele>810</ele>
        <time>2019-12-17T10:08:24.000Z</time>
      </trkpt>
      <trkpt lat="43.36708" lon="5.99047">
        <ele>810</ele>
        <time>2019-12-17T10:08:25.000Z</time>
      </trkpt>
      <trkpt lat="43.36708" lon="5.99048">
        <ele>809</ele>
        <time>2019-12-17T10:08:26.000Z</time>
      </trkpt>
      <trkpt lat="43.36708" lon="5.9905">
        <ele>809</ele>
        <time>2019-12-17T10:08:27.000Z</time>
      </trkpt>
      <trkpt lat="43.36709" lon="5.99051">
        <ele>809</ele>
        <time>2019-12-17T10:08:28.000Z</time>
      </trkpt>
      <trkpt lat="43.36709" lon="5.99052">
        <ele>809</ele>
        <time>2019-12-17T10:08:29.000Z</time>
      </trkpt>
      <trkpt lat="43.3671" lon="5.99054">
        <ele>809</ele>
        <time>2019-12-17T10:08:30.000Z</time>
      </trkpt>
      <trkpt lat="43.3671" lon="5.99055">
        <ele>809</ele>
        <time>2019-12-17T10:08:31.000Z</time>
      </trkpt>
      <trkpt lat="43.36711" lon="5.99056">
        <ele>809</ele>
        <time>2019-12-17T10:08:32.000Z</time>
      </trkpt>
      <trkpt lat="43.36712" lon="5.99058">
        <ele>809</ele>
        <time>2019-12-17T10:08:33.000Z</time>
      </trkpt>
      <trkpt lat="43.36713" lon="5.99059">
        <ele>809</ele>
        <time>2019-12-17T10:08:34.000Z</time>
      </trkpt>
      <trkpt lat="43.36713" lon="5.9906">
        <ele>808</ele>
        <time>2019-12-17T10:08:35.000Z</time>
      </trkpt>
      <trkpt lat="43.36714" lon="5.99062">
        <ele>808</ele>
        <time>2019-12-17T10:08:36.000Z</time>
      </trkpt>
      <trkpt lat="43.36715" lon="5.99063">
        <ele>808</ele>
        <time>2019-12-17T10:08:37.000Z</time>
      </trkpt>
      <trkpt lat="43.36715" lon="5.99065">
        <ele>808</ele>
        <time>2019-12-17T10:08:38.000Z</time>
      </trkpt>
      <trkpt lat="43.36716" lon="5.99065">
        <ele>808</ele>
        <time>2019-12-17T10:08:39.000Z</time>
      </trkpt>
      <trkpt lat="43.36717" lon="5.99066">
        <ele>808</ele>
        <time>2019-12-17T10:08:40.000Z</time>
      </trkpt>
      <trkpt lat="43.36719" lon="5.99067">
        <ele>808</ele>
        <time>2019-12-17T10:08:41.000Z</time>
      </trkpt>
      <trkpt lat="43.3672" lon="5.99068">
        <ele>808</ele>
        <time>2019-12-17T10:08:42.000Z</time>
      </trkpt>
      <trkpt lat="43.36721" lon="5.99069">
        <ele>808</ele>
        <time>2019-12-17T10:08:43.000Z</time>
      </trkpt>
      <trkpt lat="43.36723" lon="5.9907">
        <ele>808</ele>
        <time>2019-12-17T10:08:44.000Z</time>
      </trkpt>
      <trkpt lat="43.36724" lon="5.99071">
        <ele>808</ele>
        <time>2019-12-17T10:08:45.000Z</time>
      </trkpt>
      <trkpt lat="43.36725" lon="5.99072">
        <ele>808</ele>
        <time>2019-12-17T10:08:46.000Z</time>
      </trkpt>
      <trkpt lat="43.36726" lon="5.99073">
        <ele>808</ele>
        <time>2019-12-17T10:08:47.000Z</time>
      </trkpt>
      <trkpt lat="43.36726" lon="5.99075">
        <ele>808</ele>
        <time>2019-12-17T10:08:48.000Z</time>
      </trkpt>
      <trkpt lat="43.36727" lon="5.99076">
        <ele>808</ele>
        <time>2019-12-17T10:08:49.000Z</time>
      </trkpt>
      <trkpt lat="43.36728" lon="5.99077">
        <ele>808</ele>
        <time>2019-12-17T10:08:50.000Z</time>
      </trkpt>
      <trkpt lat="43.36729" lon="5.99079">
        <ele>808</ele>
        <time>2019-12-17T10:08:51.000Z</time>
      </trkpt>
      <trkpt lat="43.3673" lon="5.9908">
        <ele>807</ele>
        <time>2019-12-17T10:08:52.000Z</time>
      </trkpt>
      <trkpt lat="43.36731" lon="5.99081">
        <ele>807</ele>
        <time>2019-12-17T10:08:53.000Z</time>
      </trkpt>
      <trkpt lat="43.36732" lon="5.99082">
        <ele>807</ele>
        <time>2019-12-17T10:08:54.000Z</time>
      </trkpt>
      <trkpt lat="43.36733" lon="5.99083">
        <ele>808</ele>
        <time>2019-12-17T10:08:55.000Z</time>
      </trkpt>
      <trkpt lat="43.36734" lon="5.99085">
        <ele>808</ele>
        <time>2019-12-17T10:08:56.000Z</time>
      </trkpt>
      <trkpt lat="43.36734" lon="5.99086">
        <ele>808</ele>
        <time>2019-12-17T10:08:57.000Z</time>
      </trkpt>
      <trkpt lat="43.36735" lon="5.99087">
        <ele>808</ele>
        <time>2019-12-17T10:08:58.000Z</time>
      </trkpt>
      <trkpt lat="43.36736" lon="5.99088">
        <ele>808</ele>
        <time>2019-12-17T10:08:59.000Z</time>
      </trkpt>
      <trkpt lat="43.36736" lon="5.99089">
        <ele>808</ele>
        <time>2019-12-17T10:09:00.000Z</time>
      </trkpt>
      <trkpt lat="43.36737" lon="5.9909">
        <ele>808</ele>
        <time>2019-12-17T10:09:01.000Z</time>
      </trkpt>
      <trkpt lat="43.36738" lon="5.99091">
        <ele>809</ele>
        <time>2019-12-17T10:09:02.000Z</time>
      </trkpt>
      <trkpt lat="43.36738" lon="5.99093">
        <ele>809</ele>
        <time>2019-12-17T10:09:03.000Z</time>
      </trkpt>
      <trkpt lat="43.36739" lon="5.99094">
        <ele>809</ele>
        <time>2019-12-17T10:09:04.000Z</time>
      </trkpt>
      <trkpt lat="43.36739" lon="5.99095">
        <ele>809</ele>
        <time>2019-12-17T10:09:05.000Z</time>
      </trkpt>
      <trkpt lat="43.3674" lon="5.99096">
        <ele>809</ele>
        <time>2019-12-17T10:09:06.000Z</time>
      </trkpt>
      <trkpt lat="43.3674" lon="5.99098">
        <ele>809</ele>
        <time>2019-12-17T10:09:07.000Z</time>
      </trkpt>
      <trkpt lat="43.36741" lon="5.99099">
        <ele>809</ele>
        <time>2019-12-17T10:09:08.000Z</time>
      </trkpt>
      <trkpt lat="43.36741" lon="5.99101">
        <ele>809</ele>
        <time>2019-12-17T10:09:09.000Z</time>
      </trkpt>
      <trkpt lat="43.36741" lon="5.99102">
        <ele>809</ele>
        <time>2019-12-17T10:09:10.000Z</time>
      </trkpt>
      <trkpt lat="43.36742" lon="5.99103">
        <ele>809</ele>
        <time>2019-12-17T10:09:11.000Z</time>
      </trkpt>
      <trkpt lat="43.36742" lon="5.99105">
        <ele>809</ele>
        <time>2019-12-17T10:09:12.000Z</time>
      </trkpt>
      <trkpt lat="43.36742" lon="5.99106">
        <ele>809</ele>
        <time>2019-12-17T10:09:13.000Z</time>
      </trkpt>
      <trkpt lat="43.36742" lon="5.99107">
        <ele>809</ele>
        <time>2019-12-17T10:09:14.000Z</time>
      </trkpt>
      <trkpt lat="43.36742" lon="5.99108">
        <ele>809</ele>
        <time>2019-12-17T10:09:15.000Z</time>
      </trkpt>
      <trkpt lat="43.36743" lon="5.9911">
        <ele>809</ele>
        <time>2019-12-17T10:09:16.000Z</time>
      </trkpt>
      <trkpt lat="43.36743" lon="5.99111">
        <ele>810</ele>
        <time>2019-12-17T10:09:17.000Z</time>
      </trkpt>
      <trkpt lat="43.36744" lon="5.99112">
        <ele>810</ele>
        <time>2019-12-17T10:09:18.000Z</time>
      </trkpt>
      <trkpt lat="43.36745" lon="5.99113">
        <ele>810</ele>
        <time>2019-12-17T10:09:19.000Z</time>
      </trkpt>
      <trkpt lat="43.36745" lon="5.99114">
        <ele>810</ele>
        <time>2019-12-17T10:09:20.000Z</time>
      </trkpt>
      <trkpt lat="43.36746" lon="5.99116">
        <ele>810</ele>
        <time>2019-12-17T10:09:21.000Z</time>
      </trkpt>
      <trkpt lat="43.36746" lon="5.99117">
        <ele>810</ele>
        <time>2019-12-17T10:09:22.000Z</time>
      </trkpt>
      <trkpt lat="43.36747" lon="5.99118">
        <ele>810</ele>
        <time>2019-12-17T10:09:23.000Z</time>
      </trkpt>
      <trkpt lat="43.36747" lon="5.9912">
        <ele>809</ele>
        <time>2019-12-17T10:09:24.000Z</time>
      </trkpt>
      <trkpt lat="43.36748" lon="5.99121">
        <ele>809</ele>
        <time>2019-12-17T10:09:25.000Z</time>
      </trkpt>
      <trkpt lat="43.36748" lon="5.99123">
        <ele>809</ele>
        <time>2019-12-17T10:09:26.000Z</time>
      </trkpt>
      <trkpt lat="43.36748" lon="5.99124">
        <ele>809</ele>
        <time>2019-12-17T10:09:27.000Z</time>
      </trkpt>
      <trkpt lat="43.36749" lon="5.99125">
        <ele>809</ele>
        <time>2019-12-17T10:09:28.000Z</time>
      </trkpt>
      <trkpt lat="43.36749" lon="5.99126">
        <ele>809</ele>
        <time>2019-12-17T10:09:29.000Z</time>
      </trkpt>
      <trkpt lat="43.3675" lon="5.99128">
        <ele>809</ele>
        <time>2019-12-17T10:09:30.000Z</time>
      </trkpt>
      <trkpt lat="43.3675" lon="5.99129">
        <ele>809</ele>
        <time>2019-12-17T10:09:31.000Z</time>
      </trkpt>
      <trkpt lat="43.3675" lon="5.9913">
        <ele>809</ele>
        <time>2019-12-17T10:09:32.000Z</time>
      </trkpt>
      <trkpt lat="43.36751" lon="5.99131">
        <ele>809</ele>
        <time>2019-12-17T10:09:33.000Z</time>
      </trkpt>
      <trkpt lat="43.36751" lon="5.99133">
        <ele>809</ele>
        <time>2019-12-17T10:09:34.000Z</time>
      </trkpt>
      <trkpt lat="43.36752" lon="5.99134">
        <ele>808</ele>
        <time>2019-12-17T10:09:35.000Z</time>
      </trkpt>
      <trkpt lat="43.36753" lon="5.99135">
        <ele>808</ele>
        <time>2019-12-17T10:09:36.000Z</time>
      </trkpt>
      <trkpt lat="43.36753" lon="5.99136">
        <ele>808</ele>
        <time>2019-12-17T10:09:37.000Z</time>
      </trkpt>
      <trkpt lat="43.36754" lon="5.99137">
        <ele>808</ele>
        <time>2019-12-17T10:09:38.000Z</time>
      </trkpt>
      <trkpt lat="43.36754" lon="5.99138">
        <ele>808</ele>
        <time>2019-12-17T10:09:39.000Z</time>
      </trkpt>
      <trkpt lat="43.36755" lon="5.99139">
        <ele>808</ele>
        <time>2019-12-17T10:09:40.000Z</time>
      </trkpt>
      <trkpt lat="43.36755" lon="5.9914">
        <ele>808</ele>
        <time>2019-12-17T10:09:41.000Z</time>
      </trkpt>
      <trkpt lat="43.36755" lon="5.99141">
        <ele>808</ele>
        <time>2019-12-17T10:09:42.000Z</time>
      </trkpt>
      <trkpt lat="43.36756" lon="5.99143">
        <ele>808</ele>
        <time>2019-12-17T10:09:43.000Z</time>
      </trkpt>
      <trkpt lat="43.36756" lon="5.99144">
        <ele>808</ele>
        <time>2019-12-17T10:09:44.000Z</time>
      </trkpt>
      <trkpt lat="43.36757" lon="5.99145">
        <ele>808</ele>
        <time>2019-12-17T10:09:45.000Z</time>
      </trkpt>
      <trkpt lat="43.36757" lon="5.99146">
        <ele>808</ele>
        <time>2019-12-17T10:09:46.000Z</time>
      </trkpt>
      <trkpt lat="43.36757" lon="5.99148">
        <ele>808</ele>
        <time>2019-12-17T10:09:47.000Z</time>
      </trkpt>
      <trkpt lat="43.36758" lon="5.99149">
        <ele>808</ele>
        <time>2019-12-17T10:09:48.000Z</time>
      </trkpt>
      <trkpt lat="43.36758" lon="5.9915">
        <ele>808</ele>
        <time>2019-12-17T10:09:49.000Z</time>
      </trkpt>
      <trkpt lat="43.36758" lon="5.99151">
        <ele>807</ele>
        <time>2019-12-17T10:09:50.000Z</time>
      </trkpt>
      <trkpt lat="43.36759" lon="5.99152">
        <ele>807</ele>
        <time>2019-12-17T10:09:51.000Z</time>
      </trkpt>
      <trkpt lat="43.3676" lon="5.99153">
        <ele>807</ele>
        <time>2019-12-17T10:09:52.000Z</time>
      </trkpt>
      <trkpt lat="43.36761" lon="5.99154">
        <ele>807</ele>
        <time>2019-12-17T10:09:53.000Z</time>
      </trkpt>
      <trkpt lat="43.36762" lon="5.99155">
        <ele>807</ele>
        <time>2019-12-17T10:09:54.000Z</time>
      </trkpt>
      <trkpt lat="43.36763" lon="5.99156">
        <ele>807</ele>
        <time>2019-12-17T10:09:55.000Z</time>
      </trkpt>
      <trkpt lat="43.36764" lon="5.99157">
        <ele>807</ele>
        <time>2019-12-17T10:09:56.000Z</time>
      </trkpt>
      <trkpt lat="43.36765" lon="5.99157">
        <ele>807</ele>
        <time>2019-12-17T10:09:57.000Z</time>
      </trkpt>
      <trkpt lat="43.36766" lon="5.99158">
        <ele>807</ele>
        <time>2019-12-17T10:09:58.000Z</time>
      </trkpt>
      <trkpt lat="43.36767" lon="5.99159">
        <ele>807</ele>
        <time>2019-12-17T10:09:59.000Z</time>
      </trkpt>
      <trkpt lat="43.36768" lon="5.9916">
        <ele>807</ele>
        <time>2019-12-17T10:10:00.000Z</time>
      </trkpt>
      <trkpt lat="43.36768" lon="5.99161">
        <ele>806</ele>
        <time>2019-12-17T10:10:01.000Z</time>
      </trkpt>
      <trkpt lat="43.36769" lon="5.99162">
        <ele>806</ele>
        <time>2019-12-17T10:10:02.000Z</time>
      </trkpt>
      <trkpt lat="43.3677" lon="5.99163">
        <ele>806</ele>
        <time>2019-12-17T10:10:03.000Z</time>
      </trkpt>
      <trkpt lat="43.3677" lon="5.99164">
        <ele>806</ele>
        <time>2019-12-17T10:10:04.000Z</time>
      </trkpt>
      <trkpt lat="43.36771" lon="5.99166">
        <ele>806</ele>
        <time>2019-12-17T10:10:05.000Z</time>
      </trkpt>
      <trkpt lat="43.36771" lon="5.99167">
        <ele>806</ele>
        <time>2019-12-17T10:10:06.000Z</time>
      </trkpt>
      <trkpt lat="43.36772" lon="5.99167">
        <ele>805</ele>
        <time>2019-12-17T10:10:07.000Z</time>
      </trkpt>
      <trkpt lat="43.36772" lon="5.99169">
        <ele>805</ele>
        <time>2019-12-17T10:10:08.000Z</time>
      </trkpt>
      <trkpt lat="43.36773" lon="5.9917">
        <ele>805</ele>
        <time>2019-12-17T10:10:09.000Z</time>
      </trkpt>
      <trkpt lat="43.36774" lon="5.99171">
        <ele>805</ele>
        <time>2019-12-17T10:10:10.000Z</time>
      </trkpt>
      <trkpt lat="43.36774" lon="5.99172">
        <ele>805</ele>
        <time>2019-12-17T10:10:11.000Z</time>
      </trkpt>
      <trkpt lat="43.36775" lon="5.99173">
        <ele>805</ele>
        <time>2019-12-17T10:10:12.000Z</time>
      </trkpt>
      <trkpt lat="43.36776" lon="5.99174">
        <ele>805</ele>
        <time>2019-12-17T10:10:13.000Z</time>
      </trkpt>
      <trkpt lat="43.36777" lon="5.99175">
        <ele>805</ele>
        <time>2019-12-17T10:10:14.000Z</time>
      </trkpt>
      <trkpt lat="43.36778" lon="5.99176">
        <ele>804</ele>
        <time>2019-12-17T10:10:15.000Z</time>
      </trkpt>
      <trkpt lat="43.36779" lon="5.99177">
        <ele>804</ele>
        <time>2019-12-17T10:10:16.000Z</time>
      </trkpt>
      <trkpt lat="43.36779" lon="5.99178">
        <ele>804</ele>
        <time>2019-12-17T10:10:17.000Z</time>
      </trkpt>
      <trkpt lat="43.36779" lon="5.99179">
        <ele>804</ele>
        <time>2019-12-17T10:10:18.000Z</time>
      </trkpt>
      <trkpt lat="43.36779" lon="5.9918">
        <ele>804</ele>
        <time>2019-12-17T10:10:19.000Z</time>
      </trkpt>
      <trkpt lat="43.36779" lon="5.9918">
        <ele>805</ele>
        <time>2019-12-17T10:10:20.000Z</time>
      </trkpt>
      <trkpt lat="43.36779" lon="5.99181">
        <ele>805</ele>
        <time>2019-12-17T10:10:21.000Z</time>
      </trkpt>
      <trkpt lat="43.3678" lon="5.99181">
        <ele>805</ele>
        <time>2019-12-17T10:10:22.000Z</time>
      </trkpt>
      <trkpt lat="43.3678" lon="5.99181">
        <ele>805</ele>
        <time>2019-12-17T10:10:23.000Z</time>
      </trkpt>
      <trkpt lat="43.3678" lon="5.99181">
        <ele>805</ele>
        <time>2019-12-17T10:10:24.000Z</time>
      </trkpt>
      <trkpt lat="43.3678" lon="5.99181">
        <ele>805</ele>
        <time>2019-12-17T10:10:25.000Z</time>
      </trkpt>
      <trkpt lat="43.36781" lon="5.99181">
        <ele>805</ele>
        <time>2019-12-17T10:10:26.000Z</time>
      </trkpt>
      <trkpt lat="43.36781" lon="5.99181">
        <ele>805</ele>
        <time>2019-12-17T10:10:27.000Z</time>
      </trkpt>
      <trkpt lat="43.36781" lon="5.99181">
        <ele>805</ele>
        <time>2019-12-17T10:10:28.000Z</time>
      </trkpt>
      <trkpt lat="43.36781" lon="5.9918">
        <ele>805</ele>
        <time>2019-12-17T10:10:29.000Z</time>
      </trkpt>
      <trkpt lat="43.36781" lon="5.9918">
        <ele>805</ele>
        <time>2019-12-17T10:10:30.000Z</time>
      </trkpt>
      <trkpt lat="43.36781" lon="5.9918">
        <ele>805</ele>
        <time>2019-12-17T10:10:31.000Z</time>
      </trkpt>
      <trkpt lat="43.36782" lon="5.9918">
        <ele>806</ele>
        <time>2019-12-17T10:10:32.000Z</time>
      </trkpt>
      <trkpt lat="43.36782" lon="5.99179">
        <ele>806</ele>
        <time>2019-12-17T10:10:33.000Z</time>
      </trkpt>
      <trkpt lat="43.36782" lon="5.99179">
        <ele>806</ele>
        <time>2019-12-17T10:10:34.000Z</time>
      </trkpt>
      <trkpt lat="43.36782" lon="5.99179">
        <ele>806</ele>
        <time>2019-12-17T10:10:35.000Z</time>
      </trkpt>
      <trkpt lat="43.36782" lon="5.99179">
        <ele>806</ele>
        <time>2019-12-17T10:10:36.000Z</time>
      </trkpt>
      <trkpt lat="43.36782" lon="5.99179">
        <ele>806</ele>
        <time>2019-12-17T10:10:37.000Z</time>
      </trkpt>
      <trkpt lat="43.36782" lon="5.99179">
        <ele>806</ele>
        <time>2019-12-17T10:10:38.000Z</time>
      </trkpt>
      <trkpt lat="43.36782" lon="5.99179">
        <ele>806</ele>
        <time>2019-12-17T10:10:39.000Z</time>
      </trkpt>
      <trkpt lat="43.36782" lon="5.99179">
        <ele>806</ele>
        <time>2019-12-17T10:10:40.000Z</time>
      </trkpt>
      <trkpt lat="43.36782" lon="5.99179">
        <ele>806</ele>
        <time>2019-12-17T10:10:41.000Z</time>
      </trkpt>
      <trkpt lat="43.36782" lon="5.99179">
        <ele>806</ele>
        <time>2019-12-17T10:10:42.000Z</time>
      </trkpt>
      <trkpt lat="43.36782" lon="5.99179">
        <ele>806</ele>
        <time>2019-12-17T10:10:43.000Z</time>
      </trkpt>
      <trkpt lat="43.36782" lon="5.99179">
        <ele>806</ele>
        <time>2019-12-17T10:10:44.000Z</time>
      </trkpt>
      <trkpt lat="43.36783" lon="5.99179">
        <ele>806</ele>
        <time>2019-12-17T10:10:45.000Z</time>
      </trkpt>
      <trkpt lat="43.36783" lon="5.9918">
        <ele>806</ele>
        <time>2019-12-17T10:10:46.000Z</time>
      </trkpt>
      <trkpt lat="43.36784" lon="5.99181">
        <ele>806</ele>
        <time>2019-12-17T10:10:47.000Z</time>
      </trkpt>
      <trkpt lat="43.36784" lon="5.99182">
        <ele>806</ele>
        <time>2019-12-17T10:10:48.000Z</time>
      </trkpt>
      <trkpt lat="43.36785" lon="5.99183">
        <ele>806</ele>
        <time>2019-12-17T10:10:49.000Z</time>
      </trkpt>
      <trkpt lat="43.36785" lon="5.99184">
        <ele>806</ele>
        <time>2019-12-17T10:10:50.000Z</time>
      </trkpt>
      <trkpt lat="43.36785" lon="5.99185">
        <ele>806</ele>
        <time>2019-12-17T10:10:51.000Z</time>
      </trkpt>
      <trkpt lat="43.36786" lon="5.99186">
        <ele>806</ele>
        <time>2019-12-17T10:10:52.000Z</time>
      </trkpt>
      <trkpt lat="43.36786" lon="5.99187">
        <ele>806</ele>
        <time>2019-12-17T10:10:53.000Z</time>
      </trkpt>
      <trkpt lat="43.36787" lon="5.99189">
        <ele>806</ele>
        <time>2019-12-17T10:10:54.000Z</time>
      </trkpt>
      <trkpt lat="43.36786" lon="5.9919">
        <ele>806</ele>
        <time>2019-12-17T10:10:55.000Z</time>
      </trkpt>
      <trkpt lat="43.36786" lon="5.99191">
        <ele>806</ele>
        <time>2019-12-17T10:10:56.000Z</time>
      </trkpt>
      <trkpt lat="43.36786" lon="5.99193">
        <ele>806</ele>
        <time>2019-12-17T10:10:57.000Z</time>
      </trkpt>
      <trkpt lat="43.36786" lon="5.99195">
        <ele>805</ele>
        <time>2019-12-17T10:10:58.000Z</time>
      </trkpt>
      <trkpt lat="43.36786" lon="5.99196">
        <ele>805</ele>
        <time>2019-12-17T10:10:59.000Z</time>
      </trkpt>
      <trkpt lat="43.36786" lon="5.99198">
        <ele>805</ele>
        <time>2019-12-17T10:11:00.000Z</time>
      </trkpt>
      <trkpt lat="43.36786" lon="5.99199">
        <ele>804</ele>
        <time>2019-12-17T10:11:01.000Z</time>
      </trkpt>
      <trkpt lat="43.36786" lon="5.99201">
        <ele>804</ele>
        <time>2019-12-17T10:11:02.000Z</time>
      </trkpt>
      <trkpt lat="43.36786" lon="5.99203">
        <ele>804</ele>
        <time>2019-12-17T10:11:03.000Z</time>
      </trkpt>
      <trkpt lat="43.36786" lon="5.99204">
        <ele>803</ele>
        <time>2019-12-17T10:11:04.000Z</time>
      </trkpt>
      <trkpt lat="43.36787" lon="5.99206">
        <ele>803</ele>
        <time>2019-12-17T10:11:05.000Z</time>
      </trkpt>
      <trkpt lat="43.36786" lon="5.99208">
        <ele>803</ele>
        <time>2019-12-17T10:11:06.000Z</time>
      </trkpt>
      <trkpt lat="43.36787" lon="5.99209">
        <ele>802</ele>
        <time>2019-12-17T10:11:07.000Z</time>
      </trkpt>
      <trkpt lat="43.36787" lon="5.99211">
        <ele>802</ele>
        <time>2019-12-17T10:11:08.000Z</time>
      </trkpt>
      <trkpt lat="43.36787" lon="5.99212">
        <ele>802</ele>
        <time>2019-12-17T10:11:09.000Z</time>
      </trkpt>
      <trkpt lat="43.36787" lon="5.99213">
        <ele>802</ele>
        <time>2019-12-17T10:11:10.000Z</time>
      </trkpt>
      <trkpt lat="43.36787" lon="5.99215">
        <ele>801</ele>
        <time>2019-12-17T10:11:11.000Z</time>
      </trkpt>
      <trkpt lat="43.36787" lon="5.99217">
        <ele>801</ele>
        <time>2019-12-17T10:11:12.000Z</time>
      </trkpt>
      <trkpt lat="43.36787" lon="5.99218">
        <ele>801</ele>
        <time>2019-12-17T10:11:13.000Z</time>
      </trkpt>
      <trkpt lat="43.36787" lon="5.9922">
        <ele>801</ele>
        <time>2019-12-17T10:11:14.000Z</time>
      </trkpt>
      <trkpt lat="43.36787" lon="5.99222">
        <ele>801</ele>
        <time>2019-12-17T10:11:15.000Z</time>
      </trkpt>
      <trkpt lat="43.36788" lon="5.99223">
        <ele>801</ele>
        <time>2019-12-17T10:11:16.000Z</time>
      </trkpt>
      <trkpt lat="43.36788" lon="5.99225">
        <ele>801</ele>
        <time>2019-12-17T10:11:17.000Z</time>
      </trkpt>
      <trkpt lat="43.36788" lon="5.99227">
        <ele>801</ele>
        <time>2019-12-17T10:11:18.000Z</time>
      </trkpt>
      <trkpt lat="43.36788" lon="5.99228">
        <ele>801</ele>
        <time>2019-12-17T10:11:19.000Z</time>
      </trkpt>
      <trkpt lat="43.36788" lon="5.9923">
        <ele>800</ele>
        <time>2019-12-17T10:11:20.000Z</time>
      </trkpt>
      <trkpt lat="43.36788" lon="5.99232">
        <ele>800</ele>
        <time>2019-12-17T10:11:21.000Z</time>
      </trkpt>
      <trkpt lat="43.36788" lon="5.99233">
        <ele>800</ele>
        <time>2019-12-17T10:11:22.000Z</time>
      </trkpt>
      <trkpt lat="43.36788" lon="5.99235">
        <ele>800</ele>
        <time>2019-12-17T10:11:23.000Z</time>
      </trkpt>
      <trkpt lat="43.36788" lon="5.99237">
        <ele>800</ele>
        <time>2019-12-17T10:11:24.000Z</time>
      </trkpt>
      <trkpt lat="43.36788" lon="5.99238">
        <ele>800</ele>
        <time>2019-12-17T10:11:25.000Z</time>
      </trkpt>
      <trkpt lat="43.36788" lon="5.9924">
        <ele>800</ele>
        <time>2019-12-17T10:11:26.000Z</time>
      </trkpt>
      <trkpt lat="43.36788" lon="5.99242">
        <ele>800</ele>
        <time>2019-12-17T10:11:27.000Z</time>
      </trkpt>
      <trkpt lat="43.36788" lon="5.99243">
        <ele>800</ele>
        <time>2019-12-17T10:11:28.000Z</time>
      </trkpt>
      <trkpt lat="43.36788" lon="5.99245">
        <ele>800</ele>
        <time>2019-12-17T10:11:29.000Z</time>
      </trkpt>
      <trkpt lat="43.36788" lon="5.99246">
        <ele>800</ele>
        <time>2019-12-17T10:11:30.000Z</time>
      </trkpt>
      <trkpt lat="43.36788" lon="5.99248">
        <ele>800</ele>
        <time>2019-12-17T10:11:31.000Z</time>
      </trkpt>
      <trkpt lat="43.36789" lon="5.99249">
        <ele>800</ele>
        <time>2019-12-17T10:11:32.000Z</time>
      </trkpt>
      <trkpt lat="43.36789" lon="5.99251">
        <ele>800</ele>
        <time>2019-12-17T10:11:33.000Z</time>
      </trkpt>
      <trkpt lat="43.36789" lon="5.99253">
        <ele>800</ele>
        <time>2019-12-17T10:11:34.000Z</time>
      </trkpt>
      <trkpt lat="43.36789" lon="5.99254">
        <ele>800</ele>
        <time>2019-12-17T10:11:35.000Z</time>
      </trkpt>
      <trkpt lat="43.3679" lon="5.99255">
        <ele>799</ele>
        <time>2019-12-17T10:11:36.000Z</time>
      </trkpt>
      <trkpt lat="43.3679" lon="5.99257">
        <ele>799</ele>
        <time>2019-12-17T10:11:37.000Z</time>
      </trkpt>
      <trkpt lat="43.36791" lon="5.99258">
        <ele>799</ele>
        <time>2019-12-17T10:11:38.000Z</time>
      </trkpt>
      <trkpt lat="43.36791" lon="5.99259">
        <ele>799</ele>
        <time>2019-12-17T10:11:39.000Z</time>
      </trkpt>
      <trkpt lat="43.36791" lon="5.99261">
        <ele>799</ele>
        <time>2019-12-17T10:11:40.000Z</time>
      </trkpt>
      <trkpt lat="43.36791" lon="5.99262">
        <ele>799</ele>
        <time>2019-12-17T10:11:41.000Z</time>
      </trkpt>
      <trkpt lat="43.36791" lon="5.99262">
        <ele>799</ele>
        <time>2019-12-17T10:11:42.000Z</time>
      </trkpt>
      <trkpt lat="43.36791" lon="5.99262">
        <ele>799</ele>
        <time>2019-12-17T10:11:43.000Z</time>
      </trkpt>
      <trkpt lat="43.36791" lon="5.99262">
        <ele>799</ele>
        <time>2019-12-17T10:11:44.000Z</time>
      </trkpt>
      <trkpt lat="43.36791" lon="5.99262">
        <ele>798</ele>
        <time>2019-12-17T10:11:45.000Z</time>
      </trkpt>
      <trkpt lat="43.36791" lon="5.99262">
        <ele>798</ele>
        <time>2019-12-17T10:11:46.000Z</time>
      </trkpt>
      <trkpt lat="43.36792" lon="5.99263">
        <ele>798</ele>
        <time>2019-12-17T10:11:47.000Z</time>
      </trkpt>
      <trkpt lat="43.36791" lon="5.99264">
        <ele>798</ele>
        <time>2019-12-17T10:11:48.000Z</time>
      </trkpt>
      <trkpt lat="43.36792" lon="5.99265">
        <ele>798</ele>
        <time>2019-12-17T10:11:49.000Z</time>
      </trkpt>
      <trkpt lat="43.36792" lon="5.99267">
        <ele>798</ele>
        <time>2019-12-17T10:11:50.000Z</time>
      </trkpt>
      <trkpt lat="43.36792" lon="5.99268">
        <ele>798</ele>
        <time>2019-12-17T10:11:51.000Z</time>
      </trkpt>
      <trkpt lat="43.36792" lon="5.99269">
        <ele>798</ele>
        <time>2019-12-17T10:11:52.000Z</time>
      </trkpt>
      <trkpt lat="43.36792" lon="5.99271">
        <ele>798</ele>
        <time>2019-12-17T10:11:53.000Z</time>
      </trkpt>
      <trkpt lat="43.36792" lon="5.99272">
        <ele>798</ele>
        <time>2019-12-17T10:11:54.000Z</time>
      </trkpt>
      <trkpt lat="43.36793" lon="5.99274">
        <ele>797</ele>
        <time>2019-12-17T10:11:55.000Z</time>
      </trkpt>
      <trkpt lat="43.36793" lon="5.99275">
        <ele>797</ele>
        <time>2019-12-17T10:11:56.000Z</time>
      </trkpt>
      <trkpt lat="43.36793" lon="5.99276">
        <ele>797</ele>
        <time>2019-12-17T10:11:57.000Z</time>
      </trkpt>
      <trkpt lat="43.36793" lon="5.99277">
        <ele>797</ele>
        <time>2019-12-17T10:11:58.000Z</time>
      </trkpt>
      <trkpt lat="43.36793" lon="5.99279">
        <ele>797</ele>
        <time>2019-12-17T10:11:59.000Z</time>
      </trkpt>
      <trkpt lat="43.36793" lon="5.99281">
        <ele>797</ele>
        <time>2019-12-17T10:12:00.000Z</time>
      </trkpt>
      <trkpt lat="43.36793" lon="5.99282">
        <ele>797</ele>
        <time>2019-12-17T10:12:01.000Z</time>
      </trkpt>
      <trkpt lat="43.36793" lon="5.99283">
        <ele>797</ele>
        <time>2019-12-17T10:12:02.000Z</time>
      </trkpt>
      <trkpt lat="43.36793" lon="5.99285">
        <ele>797</ele>
        <time>2019-12-17T10:12:03.000Z</time>
      </trkpt>
      <trkpt lat="43.36793" lon="5.99286">
        <ele>797</ele>
        <time>2019-12-17T10:12:04.000Z</time>
      </trkpt>
      <trkpt lat="43.36794" lon="5.99288">
        <ele>796</ele>
        <time>2019-12-17T10:12:05.000Z</time>
      </trkpt>
      <trkpt lat="43.36794" lon="5.99289">
        <ele>796</ele>
        <time>2019-12-17T10:12:06.000Z</time>
      </trkpt>
      <trkpt lat="43.36794" lon="5.99291">
        <ele>796</ele>
        <time>2019-12-17T10:12:07.000Z</time>
      </trkpt>
      <trkpt lat="43.36794" lon="5.99292">
        <ele>796</ele>
        <time>2019-12-17T10:12:08.000Z</time>
      </trkpt>
      <trkpt lat="43.36794" lon="5.99294">
        <ele>796</ele>
        <time>2019-12-17T10:12:09.000Z</time>
      </trkpt>
      <trkpt lat="43.36794" lon="5.99295">
        <ele>796</ele>
        <time>2019-12-17T10:12:10.000Z</time>
      </trkpt>
      <trkpt lat="43.36794" lon="5.99297">
        <ele>796</ele>
        <time>2019-12-17T10:12:11.000Z</time>
      </trkpt>
      <trkpt lat="43.36794" lon="5.99299">
        <ele>796</ele>
        <time>2019-12-17T10:12:12.000Z</time>
      </trkpt>
      <trkpt lat="43.36794" lon="5.993">
        <ele>796</ele>
        <time>2019-12-17T10:12:13.000Z</time>
      </trkpt>
      <trkpt lat="43.36795" lon="5.99301">
        <ele>796</ele>
        <time>2019-12-17T10:12:14.000Z</time>
      </trkpt>
      <trkpt lat="43.36795" lon="5.99303">
        <ele>795</ele>
        <time>2019-12-17T10:12:15.000Z</time>
      </trkpt>
      <trkpt lat="43.36795" lon="5.99304">
        <ele>795</ele>
        <time>2019-12-17T10:12:16.000Z</time>
      </trkpt>
      <trkpt lat="43.36795" lon="5.99306">
        <ele>795</ele>
        <time>2019-12-17T10:12:17.000Z</time>
      </trkpt>
      <trkpt lat="43.36795" lon="5.99308">
        <ele>795</ele>
        <time>2019-12-17T10:12:18.000Z</time>
      </trkpt>
      <trkpt lat="43.36795" lon="5.99309">
        <ele>795</ele>
        <time>2019-12-17T10:12:19.000Z</time>
      </trkpt>
      <trkpt lat="43.36796" lon="5.9931">
        <ele>795</ele>
        <time>2019-12-17T10:12:20.000Z</time>
      </trkpt>
      <trkpt lat="43.36795" lon="5.99312">
        <ele>795</ele>
        <time>2019-12-17T10:12:21.000Z</time>
      </trkpt>
      <trkpt lat="43.36796" lon="5.99314">
        <ele>795</ele>
        <time>2019-12-17T10:12:22.000Z</time>
      </trkpt>
      <trkpt lat="43.36796" lon="5.99315">
        <ele>795</ele>
        <time>2019-12-17T10:12:23.000Z</time>
      </trkpt>
      <trkpt lat="43.36796" lon="5.99316">
        <ele>795</ele>
        <time>2019-12-17T10:12:24.000Z</time>
      </trkpt>
      <trkpt lat="43.36796" lon="5.99317">
        <ele>795</ele>
        <time>2019-12-17T10:12:25.000Z</time>
      </trkpt>
      <trkpt lat="43.36796" lon="5.99319">
        <ele>795</ele>
        <time>2019-12-17T10:12:26.000Z</time>
      </trkpt>
      <trkpt lat="43.36796" lon="5.9932">
        <ele>795</ele>
        <time>2019-12-17T10:12:27.000Z</time>
      </trkpt>
      <trkpt lat="43.36796" lon="5.99322">
        <ele>794</ele>
        <time>2019-12-17T10:12:28.000Z</time>
      </trkpt>
      <trkpt lat="43.36796" lon="5.99323">
        <ele>794</ele>
        <time>2019-12-17T10:12:29.000Z</time>
      </trkpt>
      <trkpt lat="43.36796" lon="5.99325">
        <ele>794</ele>
        <time>2019-12-17T10:12:30.000Z</time>
      </trkpt>
      <trkpt lat="43.36796" lon="5.99327">
        <ele>794</ele>
        <time>2019-12-17T10:12:31.000Z</time>
      </trkpt>
      <trkpt lat="43.36796" lon="5.99328">
        <ele>794</ele>
        <time>2019-12-17T10:12:32.000Z</time>
      </trkpt>
      <trkpt lat="43.36796" lon="5.9933">
        <ele>794</ele>
        <time>2019-12-17T10:12:33.000Z</time>
      </trkpt>
      <trkpt lat="43.36795" lon="5.99331">
        <ele>794</ele>
        <time>2019-12-17T10:12:34.000Z</time>
      </trkpt>
      <trkpt lat="43.36795" lon="5.99333">
        <ele>794</ele>
        <time>2019-12-17T10:12:35.000Z</time>
      </trkpt>
      <trkpt lat="43.36795" lon="5.99335">
        <ele>794</ele>
        <time>2019-12-17T10:12:36.000Z</time>
      </trkpt>
      <trkpt lat="43.36795" lon="5.99336">
        <ele>794</ele>
        <time>2019-12-17T10:12:37.000Z</time>
      </trkpt>
      <trkpt lat="43.36795" lon="5.99337">
        <ele>794</ele>
        <time>2019-12-17T10:12:38.000Z</time>
      </trkpt>
      <trkpt lat="43.36796" lon="5.99339">
        <ele>794</ele>
        <time>2019-12-17T10:12:39.000Z</time>
      </trkpt>
      <trkpt lat="43.36796" lon="5.9934">
        <ele>794</ele>
        <time>2019-12-17T10:12:40.000Z</time>
      </trkpt>
      <trkpt lat="43.36795" lon="5.99342">
        <ele>793</ele>
        <time>2019-12-17T10:12:41.000Z</time>
      </trkpt>
      <trkpt lat="43.36795" lon="5.99343">
        <ele>793</ele>
        <time>2019-12-17T10:12:42.000Z</time>
      </trkpt>
      <trkpt lat="43.36795" lon="5.99345">
        <ele>793</ele>
        <time>2019-12-17T10:12:43.000Z</time>
      </trkpt>
      <trkpt lat="43.36795" lon="5.99346">
        <ele>793</ele>
        <time>2019-12-17T10:12:44.000Z</time>
      </trkpt>
      <trkpt lat="43.36795" lon="5.99348">
        <ele>793</ele>
        <time>2019-12-17T10:12:45.000Z</time>
      </trkpt>
      <trkpt lat="43.36795" lon="5.99349">
        <ele>793</ele>
        <time>2019-12-17T10:12:46.000Z</time>
      </trkpt>
      <trkpt lat="43.36794" lon="5.9935">
        <ele>793</ele>
        <time>2019-12-17T10:12:47.000Z</time>
      </trkpt>
      <trkpt lat="43.36794" lon="5.99351">
        <ele>793</ele>
        <time>2019-12-17T10:12:48.000Z</time>
      </trkpt>
      <trkpt lat="43.36794" lon="5.99352">
        <ele>793</ele>
        <time>2019-12-17T10:12:49.000Z</time>
      </trkpt>
      <trkpt lat="43.36794" lon="5.99353">
        <ele>793</ele>
        <time>2019-12-17T10:12:50.000Z</time>
      </trkpt>
      <trkpt lat="43.36794" lon="5.99354">
        <ele>793</ele>
        <time>2019-12-17T10:12:51.000Z</time>
      </trkpt>
      <trkpt lat="43.36793" lon="5.99355">
        <ele>793</ele>
        <time>2019-12-17T10:12:52.000Z</time>
      </trkpt>
      <trkpt lat="43.36793" lon="5.99357">
        <ele>793</ele>
        <time>2019-12-17T10:12:53.000Z</time>
      </trkpt>
      <trkpt lat="43.36793" lon="5.99358">
        <ele>793</ele>
        <time>2019-12-17T10:12:54.000Z</time>
      </trkpt>
      <trkpt lat="43.36793" lon="5.99359">
        <ele>793</ele>
        <time>2019-12-17T10:12:55.000Z</time>
      </trkpt>
      <trkpt lat="43.36792" lon="5.99361">
        <ele>793</ele>
        <time>2019-12-17T10:12:56.000Z</time>
      </trkpt>
      <trkpt lat="43.36792" lon="5.99362">
        <ele>793</ele>
        <time>2019-12-17T10:12:57.000Z</time>
      </trkpt>
      <trkpt lat="43.36791" lon="5.99363">
        <ele>793</ele>
        <time>2019-12-17T10:12:58.000Z</time>
      </trkpt>
      <trkpt lat="43.36791" lon="5.99365">
        <ele>793</ele>
        <time>2019-12-17T10:12:59.000Z</time>
      </trkpt>
      <trkpt lat="43.36791" lon="5.99366">
        <ele>793</ele>
        <time>2019-12-17T10:13:00.000Z</time>
      </trkpt>
      <trkpt lat="43.3679" lon="5.99368">
        <ele>793</ele>
        <time>2019-12-17T10:13:01.000Z</time>
      </trkpt>
      <trkpt lat="43.3679" lon="5.99369">
        <ele>793</ele>
        <time>2019-12-17T10:13:02.000Z</time>
      </trkpt>
      <trkpt lat="43.36789" lon="5.99371">
        <ele>793</ele>
        <time>2019-12-17T10:13:03.000Z</time>
      </trkpt>
      <trkpt lat="43.36789" lon="5.99372">
        <ele>793</ele>
        <time>2019-12-17T10:13:04.000Z</time>
      </trkpt>
      <trkpt lat="43.36788" lon="5.99373">
        <ele>793</ele>
        <time>2019-12-17T10:13:05.000Z</time>
      </trkpt>
      <trkpt lat="43.36788" lon="5.99374">
        <ele>793</ele>
        <time>2019-12-17T10:13:06.000Z</time>
      </trkpt>
      <trkpt lat="43.36787" lon="5.99376">
        <ele>793</ele>
        <time>2019-12-17T10:13:07.000Z</time>
      </trkpt>
      <trkpt lat="43.36787" lon="5.99376">
        <ele>794</ele>
        <time>2019-12-17T10:13:08.000Z</time>
      </trkpt>
      <trkpt lat="43.36786" lon="5.99377">
        <ele>794</ele>
        <time>2019-12-17T10:13:09.000Z</time>
      </trkpt>
      <trkpt lat="43.36785" lon="5.99378">
        <ele>794</ele>
        <time>2019-12-17T10:13:10.000Z</time>
      </trkpt>
      <trkpt lat="43.36784" lon="5.99378">
        <ele>794</ele>
        <time>2019-12-17T10:13:11.000Z</time>
      </trkpt>
      <trkpt lat="43.36784" lon="5.99379">
        <ele>794</ele>
        <time>2019-12-17T10:13:12.000Z</time>
      </trkpt>
      <trkpt lat="43.36783" lon="5.9938">
        <ele>793</ele>
        <time>2019-12-17T10:13:13.000Z</time>
      </trkpt>
      <trkpt lat="43.36782" lon="5.9938">
        <ele>793</ele>
        <time>2019-12-17T10:13:14.000Z</time>
      </trkpt>
      <trkpt lat="43.36781" lon="5.99381">
        <ele>793</ele>
        <time>2019-12-17T10:13:15.000Z</time>
      </trkpt>
      <trkpt lat="43.3678" lon="5.99381">
        <ele>793</ele>
        <time>2019-12-17T10:13:16.000Z</time>
      </trkpt>
      <trkpt lat="43.3678" lon="5.99382">
        <ele>793</ele>
        <time>2019-12-17T10:13:17.000Z</time>
      </trkpt>
      <trkpt lat="43.36779" lon="5.99382">
        <ele>793</ele>
        <time>2019-12-17T10:13:18.000Z</time>
      </trkpt>
      <trkpt lat="43.36778" lon="5.99383">
        <ele>793</ele>
        <time>2019-12-17T10:13:19.000Z</time>
      </trkpt>
      <trkpt lat="43.36777" lon="5.99384">
        <ele>793</ele>
        <time>2019-12-17T10:13:20.000Z</time>
      </trkpt>
      <trkpt lat="43.36776" lon="5.99384">
        <ele>793</ele>
        <time>2019-12-17T10:13:21.000Z</time>
      </trkpt>
      <trkpt lat="43.36776" lon="5.99385">
        <ele>792</ele>
        <time>2019-12-17T10:13:22.000Z</time>
      </trkpt>
      <trkpt lat="43.36775" lon="5.99385">
        <ele>792</ele>
        <time>2019-12-17T10:13:23.000Z</time>
      </trkpt>
      <trkpt lat="43.36774" lon="5.99386">
        <ele>792</ele>
        <time>2019-12-17T10:13:24.000Z</time>
      </trkpt>
      <trkpt lat="43.36773" lon="5.99386">
        <ele>792</ele>
        <time>2019-12-17T10:13:25.000Z</time>
      </trkpt>
      <trkpt lat="43.36772" lon="5.99387">
        <ele>792</ele>
        <time>2019-12-17T10:13:26.000Z</time>
      </trkpt>
      <trkpt lat="43.36771" lon="5.99388">
        <ele>792</ele>
        <time>2019-12-17T10:13:27.000Z</time>
      </trkpt>
      <trkpt lat="43.36771" lon="5.99389">
        <ele>792</ele>
        <time>2019-12-17T10:13:28.000Z</time>
      </trkpt>
      <trkpt lat="43.3677" lon="5.9939">
        <ele>792</ele>
        <time>2019-12-17T10:13:29.000Z</time>
      </trkpt>
      <trkpt lat="43.36769" lon="5.99391">
        <ele>792</ele>
        <time>2019-12-17T10:13:30.000Z</time>
      </trkpt>
      <trkpt lat="43.36769" lon="5.99392">
        <ele>792</ele>
        <time>2019-12-17T10:13:31.000Z</time>
      </trkpt>
      <trkpt lat="43.36768" lon="5.99393">
        <ele>792</ele>
        <time>2019-12-17T10:13:32.000Z</time>
      </trkpt>
      <trkpt lat="43.36767" lon="5.99393">
        <ele>791</ele>
        <time>2019-12-17T10:13:33.000Z</time>
      </trkpt>
      <trkpt lat="43.36767" lon="5.99394">
        <ele>791</ele>
        <time>2019-12-17T10:13:34.000Z</time>
      </trkpt>
      <trkpt lat="43.36766" lon="5.99395">
        <ele>791</ele>
        <time>2019-12-17T10:13:35.000Z</time>
      </trkpt>
      <trkpt lat="43.36765" lon="5.99396">
        <ele>791</ele>
        <time>2019-12-17T10:13:36.000Z</time>
      </trkpt>
      <trkpt lat="43.36765" lon="5.99397">
        <ele>791</ele>
        <time>2019-12-17T10:13:37.000Z</time>
      </trkpt>
      <trkpt lat="43.36764" lon="5.99397">
        <ele>791</ele>
        <time>2019-12-17T10:13:38.000Z</time>
      </trkpt>
      <trkpt lat="43.36764" lon="5.99398">
        <ele>791</ele>
        <time>2019-12-17T10:13:39.000Z</time>
      </trkpt>
      <trkpt lat="43.36763" lon="5.99399">
        <ele>791</ele>
        <time>2019-12-17T10:13:40.000Z</time>
      </trkpt>
      <trkpt lat="43.36762" lon="5.994">
        <ele>791</ele>
        <time>2019-12-17T10:13:41.000Z</time>
      </trkpt>
      <trkpt lat="43.36762" lon="5.99401">
        <ele>791</ele>
        <time>2019-12-17T10:13:42.000Z</time>
      </trkpt>
      <trkpt lat="43.36761" lon="5.99402">
        <ele>791</ele>
        <time>2019-12-17T10:13:43.000Z</time>
      </trkpt>
      <trkpt lat="43.36761" lon="5.99403">
        <ele>791</ele>
        <time>2019-12-17T10:13:44.000Z</time>
      </trkpt>
      <trkpt lat="43.3676" lon="5.99405">
        <ele>791</ele>
        <time>2019-12-17T10:13:45.000Z</time>
      </trkpt>
      <trkpt lat="43.3676" lon="5.99406">
        <ele>791</ele>
        <time>2019-12-17T10:13:46.000Z</time>
      </trkpt>
      <trkpt lat="43.36759" lon="5.99407">
        <ele>791</ele>
        <time>2019-12-17T10:13:47.000Z</time>
      </trkpt>
      <trkpt lat="43.36758" lon="5.99408">
        <ele>791</ele>
        <time>2019-12-17T10:13:48.000Z</time>
      </trkpt>
      <trkpt lat="43.36758" lon="5.99409">
        <ele>791</ele>
        <time>2019-12-17T10:13:49.000Z</time>
      </trkpt>
      <trkpt lat="43.36757" lon="5.99411">
        <ele>791</ele>
        <time>2019-12-17T10:13:50.000Z</time>
      </trkpt>
      <trkpt lat="43.36756" lon="5.99412">
        <ele>791</ele>
        <time>2019-12-17T10:13:51.000Z</time>
      </trkpt>
      <trkpt lat="43.36756" lon="5.99413">
        <ele>791</ele>
        <time>2019-12-17T10:13:52.000Z</time>
      </trkpt>
      <trkpt lat="43.36755" lon="5.99414">
        <ele>791</ele>
        <time>2019-12-17T10:13:53.000Z</time>
      </trkpt>
      <trkpt lat="43.36754" lon="5.99415">
        <ele>791</ele>
        <time>2019-12-17T10:13:54.000Z</time>
      </trkpt>
      <trkpt lat="43.36753" lon="5.99417">
        <ele>791</ele>
        <time>2019-12-17T10:13:55.000Z</time>
      </trkpt>
      <trkpt lat="43.36753" lon="5.99418">
        <ele>791</ele>
        <time>2019-12-17T10:13:56.000Z</time>
      </trkpt>
      <trkpt lat="43.36752" lon="5.9942">
        <ele>791</ele>
        <time>2019-12-17T10:13:57.000Z</time>
      </trkpt>
      <trkpt lat="43.36752" lon="5.99421">
        <ele>791</ele>
        <time>2019-12-17T10:13:58.000Z</time>
      </trkpt>
      <trkpt lat="43.36752" lon="5.99422">
        <ele>790</ele>
        <time>2019-12-17T10:13:59.000Z</time>
      </trkpt>
      <trkpt lat="43.36751" lon="5.99424">
        <ele>790</ele>
        <time>2019-12-17T10:14:00.000Z</time>
      </trkpt>
      <trkpt lat="43.36751" lon="5.99425">
        <ele>790</ele>
        <time>2019-12-17T10:14:01.000Z</time>
      </trkpt>
      <trkpt lat="43.36751" lon="5.99427">
        <ele>790</ele>
        <time>2019-12-17T10:14:02.000Z</time>
      </trkpt>
      <trkpt lat="43.3675" lon="5.99428">
        <ele>790</ele>
        <time>2019-12-17T10:14:03.000Z</time>
      </trkpt>
      <trkpt lat="43.3675" lon="5.9943">
        <ele>790</ele>
        <time>2019-12-17T10:14:04.000Z</time>
      </trkpt>
      <trkpt lat="43.36751" lon="5.99431">
        <ele>790</ele>
        <time>2019-12-17T10:14:05.000Z</time>
      </trkpt>
      <trkpt lat="43.36751" lon="5.99432">
        <ele>790</ele>
        <time>2019-12-17T10:14:06.000Z</time>
      </trkpt>
      <trkpt lat="43.36751" lon="5.99433">
        <ele>790</ele>
        <time>2019-12-17T10:14:07.000Z</time>
      </trkpt>
      <trkpt lat="43.36751" lon="5.99434">
        <ele>790</ele>
        <time>2019-12-17T10:14:08.000Z</time>
      </trkpt>
      <trkpt lat="43.36751" lon="5.99435">
        <ele>790</ele>
        <time>2019-12-17T10:14:09.000Z</time>
      </trkpt>
      <trkpt lat="43.36751" lon="5.99437">
        <ele>790</ele>
        <time>2019-12-17T10:14:10.000Z</time>
      </trkpt>
      <trkpt lat="43.3675" lon="5.99438">
        <ele>790</ele>
        <time>2019-12-17T10:14:11.000Z</time>
      </trkpt>
      <trkpt lat="43.3675" lon="5.99439">
        <ele>790</ele>
        <time>2019-12-17T10:14:12.000Z</time>
      </trkpt>
      <trkpt lat="43.3675" lon="5.9944">
        <ele>789</ele>
        <time>2019-12-17T10:14:13.000Z</time>
      </trkpt>
      <trkpt lat="43.3675" lon="5.9944">
        <ele>789</ele>
        <time>2019-12-17T10:14:14.000Z</time>
      </trkpt>
      <trkpt lat="43.3675" lon="5.99441">
        <ele>789</ele>
        <time>2019-12-17T10:14:15.000Z</time>
      </trkpt>
      <trkpt lat="43.36749" lon="5.99442">
        <ele>789</ele>
        <time>2019-12-17T10:14:16.000Z</time>
      </trkpt>
      <trkpt lat="43.36749" lon="5.99444">
        <ele>789</ele>
        <time>2019-12-17T10:14:17.000Z</time>
      </trkpt>
      <trkpt lat="43.36749" lon="5.99445">
        <ele>789</ele>
        <time>2019-12-17T10:14:18.000Z</time>
      </trkpt>
      <trkpt lat="43.36748" lon="5.99446">
        <ele>789</ele>
        <time>2019-12-17T10:14:19.000Z</time>
      </trkpt>
      <trkpt lat="43.36748" lon="5.99448">
        <ele>789</ele>
        <time>2019-12-17T10:14:20.000Z</time>
      </trkpt>
      <trkpt lat="43.36748" lon="5.99449">
        <ele>789</ele>
        <time>2019-12-17T10:14:21.000Z</time>
      </trkpt>
      <trkpt lat="43.36748" lon="5.99451">
        <ele>789</ele>
        <time>2019-12-17T10:14:22.000Z</time>
      </trkpt>
      <trkpt lat="43.36748" lon="5.99452">
        <ele>789</ele>
        <time>2019-12-17T10:14:23.000Z</time>
      </trkpt>
      <trkpt lat="43.36747" lon="5.99453">
        <ele>789</ele>
        <time>2019-12-17T10:14:24.000Z</time>
      </trkpt>
      <trkpt lat="43.36747" lon="5.99454">
        <ele>789</ele>
        <time>2019-12-17T10:14:25.000Z</time>
      </trkpt>
      <trkpt lat="43.36747" lon="5.99455">
        <ele>788</ele>
        <time>2019-12-17T10:14:26.000Z</time>
      </trkpt>
      <trkpt lat="43.36748" lon="5.99456">
        <ele>788</ele>
        <time>2019-12-17T10:14:27.000Z</time>
      </trkpt>
      <trkpt lat="43.36748" lon="5.99456">
        <ele>788</ele>
        <time>2019-12-17T10:14:28.000Z</time>
      </trkpt>
      <trkpt lat="43.36748" lon="5.99458">
        <ele>788</ele>
        <time>2019-12-17T10:14:29.000Z</time>
      </trkpt>
      <trkpt lat="43.36748" lon="5.99459">
        <ele>788</ele>
        <time>2019-12-17T10:14:30.000Z</time>
      </trkpt>
      <trkpt lat="43.36749" lon="5.9946">
        <ele>788</ele>
        <time>2019-12-17T10:14:31.000Z</time>
      </trkpt>
      <trkpt lat="43.3675" lon="5.99461">
        <ele>788</ele>
        <time>2019-12-17T10:14:32.000Z</time>
      </trkpt>
      <trkpt lat="43.3675" lon="5.99462">
        <ele>788</ele>
        <time>2019-12-17T10:14:33.000Z</time>
      </trkpt>
      <trkpt lat="43.36751" lon="5.99463">
        <ele>788</ele>
        <time>2019-12-17T10:14:34.000Z</time>
      </trkpt>
      <trkpt lat="43.36751" lon="5.99464">
        <ele>788</ele>
        <time>2019-12-17T10:14:35.000Z</time>
      </trkpt>
      <trkpt lat="43.36751" lon="5.99464">
        <ele>787</ele>
        <time>2019-12-17T10:14:36.000Z</time>
      </trkpt>
      <trkpt lat="43.36751" lon="5.99464">
        <ele>787</ele>
        <time>2019-12-17T10:14:37.000Z</time>
      </trkpt>
      <trkpt lat="43.3675" lon="5.99464">
        <ele>787</ele>
        <time>2019-12-17T10:14:38.000Z</time>
      </trkpt>
      <trkpt lat="43.3675" lon="5.99463">
        <ele>787</ele>
        <time>2019-12-17T10:14:39.000Z</time>
      </trkpt>
      <trkpt lat="43.3675" lon="5.99464">
        <ele>787</ele>
        <time>2019-12-17T10:14:40.000Z</time>
      </trkpt>
      <trkpt lat="43.3675" lon="5.99464">
        <ele>787</ele>
        <time>2019-12-17T10:14:41.000Z</time>
      </trkpt>
      <trkpt lat="43.36751" lon="5.99465">
        <ele>787</ele>
        <time>2019-12-17T10:14:42.000Z</time>
      </trkpt>
      <trkpt lat="43.36751" lon="5.99466">
        <ele>787</ele>
        <time>2019-12-17T10:14:43.000Z</time>
      </trkpt>
      <trkpt lat="43.36752" lon="5.99467">
        <ele>787</ele>
        <time>2019-12-17T10:14:44.000Z</time>
      </trkpt>
      <trkpt lat="43.36752" lon="5.99468">
        <ele>786</ele>
        <time>2019-12-17T10:14:45.000Z</time>
      </trkpt>
      <trkpt lat="43.36752" lon="5.99469">
        <ele>786</ele>
        <time>2019-12-17T10:14:46.000Z</time>
      </trkpt>
      <trkpt lat="43.36753" lon="5.9947">
        <ele>786</ele>
        <time>2019-12-17T10:14:47.000Z</time>
      </trkpt>
      <trkpt lat="43.36753" lon="5.99471">
        <ele>786</ele>
        <time>2019-12-17T10:14:48.000Z</time>
      </trkpt>
      <trkpt lat="43.36754" lon="5.99473">
        <ele>786</ele>
        <time>2019-12-17T10:14:49.000Z</time>
      </trkpt>
      <trkpt lat="43.36754" lon="5.99474">
        <ele>786</ele>
        <time>2019-12-17T10:14:50.000Z</time>
      </trkpt>
      <trkpt lat="43.36754" lon="5.99476">
        <ele>785</ele>
        <time>2019-12-17T10:14:51.000Z</time>
      </trkpt>
      <trkpt lat="43.36755" lon="5.99478">
        <ele>785</ele>
        <time>2019-12-17T10:14:52.000Z</time>
      </trkpt>
      <trkpt lat="43.36755" lon="5.99479">
        <ele>785</ele>
        <time>2019-12-17T10:14:53.000Z</time>
      </trkpt>
      <trkpt lat="43.36755" lon="5.9948">
        <ele>785</ele>
        <time>2019-12-17T10:14:54.000Z</time>
      </trkpt>
      <trkpt lat="43.36756" lon="5.99481">
        <ele>784</ele>
        <time>2019-12-17T10:14:55.000Z</time>
      </trkpt>
      <trkpt lat="43.36756" lon="5.99482">
        <ele>784</ele>
        <time>2019-12-17T10:14:56.000Z</time>
      </trkpt>
      <trkpt lat="43.36757" lon="5.99483">
        <ele>784</ele>
        <time>2019-12-17T10:14:57.000Z</time>
      </trkpt>
      <trkpt lat="43.36758" lon="5.99484">
        <ele>784</ele>
        <time>2019-12-17T10:14:58.000Z</time>
      </trkpt>
      <trkpt lat="43.36758" lon="5.99484">
        <ele>784</ele>
        <time>2019-12-17T10:14:59.000Z</time>
      </trkpt>
      <trkpt lat="43.36759" lon="5.99485">
        <ele>784</ele>
        <time>2019-12-17T10:15:00.000Z</time>
      </trkpt>
      <trkpt lat="43.3676" lon="5.99485">
        <ele>784</ele>
        <time>2019-12-17T10:15:01.000Z</time>
      </trkpt>
      <trkpt lat="43.36761" lon="5.99485">
        <ele>783</ele>
        <time>2019-12-17T10:15:02.000Z</time>
      </trkpt>
      <trkpt lat="43.36762" lon="5.99485">
        <ele>783</ele>
        <time>2019-12-17T10:15:03.000Z</time>
      </trkpt>
      <trkpt lat="43.36763" lon="5.99485">
        <ele>783</ele>
        <time>2019-12-17T10:15:04.000Z</time>
      </trkpt>
      <trkpt lat="43.36764" lon="5.99485">
        <ele>783</ele>
        <time>2019-12-17T10:15:05.000Z</time>
      </trkpt>
      <trkpt lat="43.36765" lon="5.99486">
        <ele>783</ele>
        <time>2019-12-17T10:15:06.000Z</time>
      </trkpt>
      <trkpt lat="43.36766" lon="5.99486">
        <ele>783</ele>
        <time>2019-12-17T10:15:07.000Z</time>
      </trkpt>
      <trkpt lat="43.36767" lon="5.99486">
        <ele>783</ele>
        <time>2019-12-17T10:15:08.000Z</time>
      </trkpt>
      <trkpt lat="43.36768" lon="5.99486">
        <ele>783</ele>
        <time>2019-12-17T10:15:09.000Z</time>
      </trkpt>
      <trkpt lat="43.3677" lon="5.99487">
        <ele>783</ele>
        <time>2019-12-17T10:15:10.000Z</time>
      </trkpt>
      <trkpt lat="43.36771" lon="5.99487">
        <ele>783</ele>
        <time>2019-12-17T10:15:11.000Z</time>
      </trkpt>
      <trkpt lat="43.36772" lon="5.99486">
        <ele>783</ele>
        <time>2019-12-17T10:15:12.000Z</time>
      </trkpt>
      <trkpt lat="43.36773" lon="5.99485">
        <ele>783</ele>
        <time>2019-12-17T10:15:13.000Z</time>
      </trkpt>
      <trkpt lat="43.36773" lon="5.99485">
        <ele>783</ele>
        <time>2019-12-17T10:15:14.000Z</time>
      </trkpt>
      <trkpt lat="43.36774" lon="5.99484">
        <ele>783</ele>
        <time>2019-12-17T10:15:15.000Z</time>
      </trkpt>
      <trkpt lat="43.36775" lon="5.99484">
        <ele>783</ele>
        <time>2019-12-17T10:15:16.000Z</time>
      </trkpt>
      <trkpt lat="43.36775" lon="5.99483">
        <ele>783</ele>
        <time>2019-12-17T10:15:17.000Z</time>
      </trkpt>
      <trkpt lat="43.36776" lon="5.99482">
        <ele>783</ele>
        <time>2019-12-17T10:15:18.000Z</time>
      </trkpt>
      <trkpt lat="43.36776" lon="5.99482">
        <ele>783</ele>
        <time>2019-12-17T10:15:19.000Z</time>
      </trkpt>
      <trkpt lat="43.36778" lon="5.99482">
        <ele>783</ele>
        <time>2019-12-17T10:15:20.000Z</time>
      </trkpt>
      <trkpt lat="43.36779" lon="5.99482">
        <ele>783</ele>
        <time>2019-12-17T10:15:21.000Z</time>
      </trkpt>
      <trkpt lat="43.3678" lon="5.99483">
        <ele>783</ele>
        <time>2019-12-17T10:15:22.000Z</time>
      </trkpt>
      <trkpt lat="43.36781" lon="5.99484">
        <ele>782</ele>
        <time>2019-12-17T10:15:23.000Z</time>
      </trkpt>
      <trkpt lat="43.36782" lon="5.99484">
        <ele>782</ele>
        <time>2019-12-17T10:15:24.000Z</time>
      </trkpt>
      <trkpt lat="43.36782" lon="5.99485">
        <ele>782</ele>
        <time>2019-12-17T10:15:25.000Z</time>
      </trkpt>
      <trkpt lat="43.36783" lon="5.99486">
        <ele>782</ele>
        <time>2019-12-17T10:15:26.000Z</time>
      </trkpt>
      <trkpt lat="43.36783" lon="5.99487">
        <ele>782</ele>
        <time>2019-12-17T10:15:27.000Z</time>
      </trkpt>
      <trkpt lat="43.36784" lon="5.99489">
        <ele>782</ele>
        <time>2019-12-17T10:15:28.000Z</time>
      </trkpt>
      <trkpt lat="43.36784" lon="5.9949">
        <ele>782</ele>
        <time>2019-12-17T10:15:29.000Z</time>
      </trkpt>
      <trkpt lat="43.36785" lon="5.99492">
        <ele>782</ele>
        <time>2019-12-17T10:15:30.000Z</time>
      </trkpt>
      <trkpt lat="43.36785" lon="5.99493">
        <ele>782</ele>
        <time>2019-12-17T10:15:31.000Z</time>
      </trkpt>
      <trkpt lat="43.36786" lon="5.99494">
        <ele>782</ele>
        <time>2019-12-17T10:15:32.000Z</time>
      </trkpt>
      <trkpt lat="43.36787" lon="5.99495">
        <ele>782</ele>
        <time>2019-12-17T10:15:33.000Z</time>
      </trkpt>
      <trkpt lat="43.36787" lon="5.99497">
        <ele>782</ele>
        <time>2019-12-17T10:15:34.000Z</time>
      </trkpt>
      <trkpt lat="43.36788" lon="5.99498">
        <ele>781</ele>
        <time>2019-12-17T10:15:35.000Z</time>
      </trkpt>
      <trkpt lat="43.36788" lon="5.99499">
        <ele>781</ele>
        <time>2019-12-17T10:15:36.000Z</time>
      </trkpt>
      <trkpt lat="43.36789" lon="5.995">
        <ele>781</ele>
        <time>2019-12-17T10:15:37.000Z</time>
      </trkpt>
      <trkpt lat="43.36789" lon="5.99501">
        <ele>781</ele>
        <time>2019-12-17T10:15:38.000Z</time>
      </trkpt>
      <trkpt lat="43.3679" lon="5.99502">
        <ele>781</ele>
        <time>2019-12-17T10:15:39.000Z</time>
      </trkpt>
      <trkpt lat="43.36791" lon="5.99503">
        <ele>781</ele>
        <time>2019-12-17T10:15:40.000Z</time>
      </trkpt>
      <trkpt lat="43.36791" lon="5.99504">
        <ele>781</ele>
        <time>2019-12-17T10:15:41.000Z</time>
      </trkpt>
      <trkpt lat="43.36791" lon="5.99504">
        <ele>781</ele>
        <time>2019-12-17T10:15:42.000Z</time>
      </trkpt>
      <trkpt lat="43.36791" lon="5.99506">
        <ele>781</ele>
        <time>2019-12-17T10:15:43.000Z</time>
      </trkpt>
      <trkpt lat="43.36791" lon="5.99507">
        <ele>781</ele>
        <time>2019-12-17T10:15:44.000Z</time>
      </trkpt>
      <trkpt lat="43.36792" lon="5.99508">
        <ele>781</ele>
        <time>2019-12-17T10:15:45.000Z</time>
      </trkpt>
      <trkpt lat="43.36792" lon="5.99509">
        <ele>781</ele>
        <time>2019-12-17T10:15:46.000Z</time>
      </trkpt>
      <trkpt lat="43.36792" lon="5.99511">
        <ele>781</ele>
        <time>2019-12-17T10:15:47.000Z</time>
      </trkpt>
      <trkpt lat="43.36792" lon="5.99512">
        <ele>781</ele>
        <time>2019-12-17T10:15:48.000Z</time>
      </trkpt>
      <trkpt lat="43.36793" lon="5.99514">
        <ele>781</ele>
        <time>2019-12-17T10:15:49.000Z</time>
      </trkpt>
      <trkpt lat="43.36792" lon="5.99515">
        <ele>781</ele>
        <time>2019-12-17T10:15:50.000Z</time>
      </trkpt>
      <trkpt lat="43.36792" lon="5.99516">
        <ele>781</ele>
        <time>2019-12-17T10:15:51.000Z</time>
      </trkpt>
      <trkpt lat="43.36792" lon="5.99517">
        <ele>781</ele>
        <time>2019-12-17T10:15:52.000Z</time>
      </trkpt>
      <trkpt lat="43.36792" lon="5.99517">
        <ele>781</ele>
        <time>2019-12-17T10:15:53.000Z</time>
      </trkpt>
      <trkpt lat="43.36792" lon="5.99518">
        <ele>781</ele>
        <time>2019-12-17T10:15:54.000Z</time>
      </trkpt>
      <trkpt lat="43.36792" lon="5.99519">
        <ele>781</ele>
        <time>2019-12-17T10:15:55.000Z</time>
      </trkpt>
      <trkpt lat="43.36792" lon="5.99519">
        <ele>781</ele>
        <time>2019-12-17T10:15:56.000Z</time>
      </trkpt>
      <trkpt lat="43.36792" lon="5.9952">
        <ele>781</ele>
        <time>2019-12-17T10:15:57.000Z</time>
      </trkpt>
      <trkpt lat="43.36793" lon="5.9952">
        <ele>781</ele>
        <time>2019-12-17T10:15:58.000Z</time>
      </trkpt>
      <trkpt lat="43.36793" lon="5.99521">
        <ele>781</ele>
        <time>2019-12-17T10:15:59.000Z</time>
      </trkpt>
      <trkpt lat="43.36794" lon="5.99522">
        <ele>781</ele>
        <time>2019-12-17T10:16:00.000Z</time>
      </trkpt>
      <trkpt lat="43.36794" lon="5.99524">
        <ele>781</ele>
        <time>2019-12-17T10:16:01.000Z</time>
      </trkpt>
      <trkpt lat="43.36795" lon="5.99525">
        <ele>781</ele>
        <time>2019-12-17T10:16:02.000Z</time>
      </trkpt>
      <trkpt lat="43.36795" lon="5.99526">
        <ele>781</ele>
        <time>2019-12-17T10:16:03.000Z</time>
      </trkpt>
      <trkpt lat="43.36795" lon="5.99527">
        <ele>781</ele>
        <time>2019-12-17T10:16:04.000Z</time>
      </trkpt>
      <trkpt lat="43.36795" lon="5.99528">
        <ele>781</ele>
        <time>2019-12-17T10:16:05.000Z</time>
      </trkpt>
      <trkpt lat="43.36795" lon="5.99528">
        <ele>781</ele>
        <time>2019-12-17T10:16:06.000Z</time>
      </trkpt>
      <trkpt lat="43.36796" lon="5.99529">
        <ele>781</ele>
        <time>2019-12-17T10:16:07.000Z</time>
      </trkpt>
      <trkpt lat="43.36796" lon="5.99529">
        <ele>781</ele>
        <time>2019-12-17T10:16:08.000Z</time>
      </trkpt>
      <trkpt lat="43.36796" lon="5.9953">
        <ele>781</ele>
        <time>2019-12-17T10:16:09.000Z</time>
      </trkpt>
      <trkpt lat="43.36796" lon="5.99531">
        <ele>781</ele>
        <time>2019-12-17T10:16:10.000Z</time>
      </trkpt>
      <trkpt lat="43.36796" lon="5.99531">
        <ele>781</ele>
        <time>2019-12-17T10:16:11.000Z</time>
      </trkpt>
      <trkpt lat="43.36796" lon="5.99532">
        <ele>782</ele>
        <time>2019-12-17T10:16:12.000Z</time>
      </trkpt>
      <trkpt lat="43.36795" lon="5.99533">
        <ele>782</ele>
        <time>2019-12-17T10:16:13.000Z</time>
      </trkpt>
      <trkpt lat="43.36794" lon="5.99534">
        <ele>782</ele>
        <time>2019-12-17T10:16:14.000Z</time>
      </trkpt>
      <trkpt lat="43.36793" lon="5.99534">
        <ele>782</ele>
        <time>2019-12-17T10:16:15.000Z</time>
      </trkpt>
      <trkpt lat="43.36793" lon="5.99535">
        <ele>782</ele>
        <time>2019-12-17T10:16:16.000Z</time>
      </trkpt>
      <trkpt lat="43.36792" lon="5.99536">
        <ele>782</ele>
        <time>2019-12-17T10:16:17.000Z</time>
      </trkpt>
      <trkpt lat="43.36792" lon="5.99536">
        <ele>782</ele>
        <time>2019-12-17T10:16:18.000Z</time>
      </trkpt>
      <trkpt lat="43.36792" lon="5.99537">
        <ele>783</ele>
        <time>2019-12-17T10:16:19.000Z</time>
      </trkpt>
      <trkpt lat="43.36792" lon="5.99538">
        <ele>783</ele>
        <time>2019-12-17T10:16:20.000Z</time>
      </trkpt>
      <trkpt lat="43.36792" lon="5.99539">
        <ele>783</ele>
        <time>2019-12-17T10:16:21.000Z</time>
      </trkpt>
      <trkpt lat="43.36792" lon="5.99539">
        <ele>783</ele>
        <time>2019-12-17T10:16:22.000Z</time>
      </trkpt>
      <trkpt lat="43.36792" lon="5.9954">
        <ele>783</ele>
        <time>2019-12-17T10:16:23.000Z</time>
      </trkpt>
      <trkpt lat="43.36791" lon="5.99541">
        <ele>783</ele>
        <time>2019-12-17T10:16:24.000Z</time>
      </trkpt>
      <trkpt lat="43.36791" lon="5.99542">
        <ele>783</ele>
        <time>2019-12-17T10:16:25.000Z</time>
      </trkpt>
      <trkpt lat="43.36791" lon="5.99542">
        <ele>783</ele>
        <time>2019-12-17T10:16:26.000Z</time>
      </trkpt>
      <trkpt lat="43.36791" lon="5.99543">
        <ele>784</ele>
        <time>2019-12-17T10:16:27.000Z</time>
      </trkpt>
      <trkpt lat="43.3679" lon="5.99543">
        <ele>784</ele>
        <time>2019-12-17T10:16:28.000Z</time>
      </trkpt>
      <trkpt lat="43.3679" lon="5.99544">
        <ele>784</ele>
        <time>2019-12-17T10:16:29.000Z</time>
      </trkpt>
      <trkpt lat="43.3679" lon="5.99545">
        <ele>784</ele>
        <time>2019-12-17T10:16:30.000Z</time>
      </trkpt>
      <trkpt lat="43.36789" lon="5.99546">
        <ele>784</ele>
        <time>2019-12-17T10:16:31.000Z</time>
      </trkpt>
      <trkpt lat="43.36789" lon="5.99547">
        <ele>784</ele>
        <time>2019-12-17T10:16:32.000Z</time>
      </trkpt>
      <trkpt lat="43.36788" lon="5.99547">
        <ele>784</ele>
        <time>2019-12-17T10:16:33.000Z</time>
      </trkpt>
      <trkpt lat="43.36788" lon="5.99548">
        <ele>784</ele>
        <time>2019-12-17T10:16:34.000Z</time>
      </trkpt>
      <trkpt lat="43.36787" lon="5.99548">
        <ele>784</ele>
        <time>2019-12-17T10:16:35.000Z</time>
      </trkpt>
      <trkpt lat="43.36786" lon="5.99549">
        <ele>784</ele>
        <time>2019-12-17T10:16:36.000Z</time>
      </trkpt>
      <trkpt lat="43.36786" lon="5.99549">
        <ele>784</ele>
        <time>2019-12-17T10:16:37.000Z</time>
      </trkpt>
      <trkpt lat="43.36785" lon="5.9955">
        <ele>784</ele>
        <time>2019-12-17T10:16:38.000Z</time>
      </trkpt>
      <trkpt lat="43.36785" lon="5.99551">
        <ele>784</ele>
        <time>2019-12-17T10:16:39.000Z</time>
      </trkpt>
      <trkpt lat="43.36784" lon="5.99552">
        <ele>785</ele>
        <time>2019-12-17T10:16:40.000Z</time>
      </trkpt>
      <trkpt lat="43.36784" lon="5.99553">
        <ele>785</ele>
        <time>2019-12-17T10:16:41.000Z</time>
      </trkpt>
      <trkpt lat="43.36783" lon="5.99554">
        <ele>785</ele>
        <time>2019-12-17T10:16:42.000Z</time>
      </trkpt>
      <trkpt lat="43.36783" lon="5.99555">
        <ele>785</ele>
        <time>2019-12-17T10:16:43.000Z</time>
      </trkpt>
      <trkpt lat="43.36783" lon="5.99557">
        <ele>785</ele>
        <time>2019-12-17T10:16:44.000Z</time>
      </trkpt>
      <trkpt lat="43.36783" lon="5.99558">
        <ele>785</ele>
        <time>2019-12-17T10:16:45.000Z</time>
      </trkpt>
      <trkpt lat="43.36783" lon="5.99559">
        <ele>785</ele>
        <time>2019-12-17T10:16:46.000Z</time>
      </trkpt>
      <trkpt lat="43.36784" lon="5.9956">
        <ele>785</ele>
        <time>2019-12-17T10:16:47.000Z</time>
      </trkpt>
      <trkpt lat="43.36784" lon="5.99561">
        <ele>785</ele>
        <time>2019-12-17T10:16:48.000Z</time>
      </trkpt>
      <trkpt lat="43.36784" lon="5.99562">
        <ele>785</ele>
        <time>2019-12-17T10:16:49.000Z</time>
      </trkpt>
      <trkpt lat="43.36784" lon="5.99563">
        <ele>785</ele>
        <time>2019-12-17T10:16:50.000Z</time>
      </trkpt>
      <trkpt lat="43.36784" lon="5.99564">
        <ele>785</ele>
        <time>2019-12-17T10:16:51.000Z</time>
      </trkpt>
      <trkpt lat="43.36784" lon="5.99565">
        <ele>785</ele>
        <time>2019-12-17T10:16:52.000Z</time>
      </trkpt>
      <trkpt lat="43.36785" lon="5.99567">
        <ele>785</ele>
        <time>2019-12-17T10:16:53.000Z</time>
      </trkpt>
      <trkpt lat="43.36785" lon="5.99567">
        <ele>785</ele>
        <time>2019-12-17T10:16:54.000Z</time>
      </trkpt>
      <trkpt lat="43.36785" lon="5.99568">
        <ele>785</ele>
        <time>2019-12-17T10:16:55.000Z</time>
      </trkpt>
      <trkpt lat="43.36786" lon="5.99569">
        <ele>785</ele>
        <time>2019-12-17T10:16:56.000Z</time>
      </trkpt>
      <trkpt lat="43.36786" lon="5.99569">
        <ele>785</ele>
        <time>2019-12-17T10:16:57.000Z</time>
      </trkpt>
      <trkpt lat="43.36787" lon="5.9957">
        <ele>785</ele>
        <time>2019-12-17T10:16:58.000Z</time>
      </trkpt>
      <trkpt lat="43.36788" lon="5.99571">
        <ele>785</ele>
        <time>2019-12-17T10:16:59.000Z</time>
      </trkpt>
      <trkpt lat="43.36788" lon="5.99571">
        <ele>785</ele>
        <time>2019-12-17T10:17:00.000Z</time>
      </trkpt>
      <trkpt lat="43.36789" lon="5.99572">
        <ele>785</ele>
        <time>2019-12-17T10:17:01.000Z</time>
      </trkpt>
      <trkpt lat="43.36789" lon="5.99573">
        <ele>785</ele>
        <time>2019-12-17T10:17:02.000Z</time>
      </trkpt>
      <trkpt lat="43.3679" lon="5.99574">
        <ele>785</ele>
        <time>2019-12-17T10:17:03.000Z</time>
      </trkpt>
      <trkpt lat="43.3679" lon="5.99575">
        <ele>785</ele>
        <time>2019-12-17T10:17:04.000Z</time>
      </trkpt>
      <trkpt lat="43.36791" lon="5.99576">
        <ele>785</ele>
        <time>2019-12-17T10:17:05.000Z</time>
      </trkpt>
      <trkpt lat="43.36791" lon="5.99577">
        <ele>785</ele>
        <time>2019-12-17T10:17:06.000Z</time>
      </trkpt>
      <trkpt lat="43.36791" lon="5.99578">
        <ele>785</ele>
        <time>2019-12-17T10:17:07.000Z</time>
      </trkpt>
      <trkpt lat="43.36792" lon="5.99578">
        <ele>785</ele>
        <time>2019-12-17T10:17:08.000Z</time>
      </trkpt>
      <trkpt lat="43.36793" lon="5.99579">
        <ele>785</ele>
        <time>2019-12-17T10:17:09.000Z</time>
      </trkpt>
      <trkpt lat="43.36793" lon="5.9958">
        <ele>785</ele>
        <time>2019-12-17T10:17:10.000Z</time>
      </trkpt>
      <trkpt lat="43.36794" lon="5.99581">
        <ele>785</ele>
        <time>2019-12-17T10:17:11.000Z</time>
      </trkpt>
      <trkpt lat="43.36794" lon="5.99583">
        <ele>785</ele>
        <time>2019-12-17T10:17:12.000Z</time>
      </trkpt>
      <trkpt lat="43.36795" lon="5.99584">
        <ele>785</ele>
        <time>2019-12-17T10:17:13.000Z</time>
      </trkpt>
      <trkpt lat="43.36795" lon="5.99584">
        <ele>785</ele>
        <time>2019-12-17T10:17:14.000Z</time>
      </trkpt>
      <trkpt lat="43.36795" lon="5.99585">
        <ele>785</ele>
        <time>2019-12-17T10:17:15.000Z</time>
      </trkpt>
      <trkpt lat="43.36795" lon="5.99585">
        <ele>785</ele>
        <time>2019-12-17T10:17:16.000Z</time>
      </trkpt>
      <trkpt lat="43.36796" lon="5.99586">
        <ele>785</ele>
        <time>2019-12-17T10:17:17.000Z</time>
      </trkpt>
      <trkpt lat="43.36796" lon="5.99587">
        <ele>785</ele>
        <time>2019-12-17T10:17:18.000Z</time>
      </trkpt>
      <trkpt lat="43.36796" lon="5.99588">
        <ele>784</ele>
        <time>2019-12-17T10:17:19.000Z</time>
      </trkpt>
      <trkpt lat="43.36797" lon="5.99589">
        <ele>784</ele>
        <time>2019-12-17T10:17:20.000Z</time>
      </trkpt>
      <trkpt lat="43.36797" lon="5.9959">
        <ele>784</ele>
        <time>2019-12-17T10:17:21.000Z</time>
      </trkpt>
      <trkpt lat="43.36797" lon="5.99591">
        <ele>784</ele>
        <time>2019-12-17T10:17:22.000Z</time>
      </trkpt>
      <trkpt lat="43.36797" lon="5.99592">
        <ele>784</ele>
        <time>2019-12-17T10:17:23.000Z</time>
      </trkpt>
      <trkpt lat="43.36798" lon="5.99593">
        <ele>784</ele>
        <time>2019-12-17T10:17:24.000Z</time>
      </trkpt>
      <trkpt lat="43.36799" lon="5.99594">
        <ele>785</ele>
        <time>2019-12-17T10:17:25.000Z</time>
      </trkpt>
      <trkpt lat="43.36799" lon="5.99595">
        <ele>785</ele>
        <time>2019-12-17T10:17:26.000Z</time>
      </trkpt>
      <trkpt lat="43.36799" lon="5.99596">
        <ele>785</ele>
        <time>2019-12-17T10:17:27.000Z</time>
      </trkpt>
      <trkpt lat="43.36799" lon="5.99598">
        <ele>785</ele>
        <time>2019-12-17T10:17:28.000Z</time>
      </trkpt>
      <trkpt lat="43.36799" lon="5.99599">
        <ele>785</ele>
        <time>2019-12-17T10:17:29.000Z</time>
      </trkpt>
      <trkpt lat="43.36799" lon="5.99601">
        <ele>785</ele>
        <time>2019-12-17T10:17:30.000Z</time>
      </trkpt>
      <trkpt lat="43.368" lon="5.99602">
        <ele>785</ele>
        <time>2019-12-17T10:17:31.000Z</time>
      </trkpt>
      <trkpt lat="43.368" lon="5.99603">
        <ele>785</ele>
        <time>2019-12-17T10:17:32.000Z</time>
      </trkpt>
      <trkpt lat="43.36801" lon="5.99603">
        <ele>785</ele>
        <time>2019-12-17T10:17:33.000Z</time>
      </trkpt>
      <trkpt lat="43.36802" lon="5.99604">
        <ele>785</ele>
        <time>2019-12-17T10:17:34.000Z</time>
      </trkpt>
      <trkpt lat="43.36804" lon="5.99604">
        <ele>785</ele>
        <time>2019-12-17T10:17:35.000Z</time>
      </trkpt>
      <trkpt lat="43.36805" lon="5.99605">
        <ele>785</ele>
        <time>2019-12-17T10:17:36.000Z</time>
      </trkpt>
      <trkpt lat="43.36806" lon="5.99606">
        <ele>785</ele>
        <time>2019-12-17T10:17:37.000Z</time>
      </trkpt>
      <trkpt lat="43.36806" lon="5.99607">
        <ele>785</ele>
        <time>2019-12-17T10:17:38.000Z</time>
      </trkpt>
      <trkpt lat="43.36807" lon="5.99607">
        <ele>785</ele>
        <time>2019-12-17T10:17:39.000Z</time>
      </trkpt>
      <trkpt lat="43.36808" lon="5.99609">
        <ele>785</ele>
        <time>2019-12-17T10:17:40.000Z</time>
      </trkpt>
      <trkpt lat="43.36809" lon="5.9961">
        <ele>785</ele>
        <time>2019-12-17T10:17:41.000Z</time>
      </trkpt>
      <trkpt lat="43.36809" lon="5.99611">
        <ele>785</ele>
        <time>2019-12-17T10:17:42.000Z</time>
      </trkpt>
      <trkpt lat="43.3681" lon="5.99612">
        <ele>785</ele>
        <time>2019-12-17T10:17:43.000Z</time>
      </trkpt>
      <trkpt lat="43.36811" lon="5.99612">
        <ele>785</ele>
        <time>2019-12-17T10:17:44.000Z</time>
      </trkpt>
      <trkpt lat="43.36812" lon="5.99612">
        <ele>785</ele>
        <time>2019-12-17T10:17:45.000Z</time>
      </trkpt>
      <trkpt lat="43.36813" lon="5.99612">
        <ele>785</ele>
        <time>2019-12-17T10:17:46.000Z</time>
      </trkpt>
      <trkpt lat="43.36814" lon="5.99612">
        <ele>785</ele>
        <time>2019-12-17T10:17:47.000Z</time>
      </trkpt>
      <trkpt lat="43.36815" lon="5.99612">
        <ele>785</ele>
        <time>2019-12-17T10:17:48.000Z</time>
      </trkpt>
      <trkpt lat="43.36816" lon="5.99612">
        <ele>785</ele>
        <time>2019-12-17T10:17:49.000Z</time>
      </trkpt>
      <trkpt lat="43.36817" lon="5.99611">
        <ele>785</ele>
        <time>2019-12-17T10:17:50.000Z</time>
      </trkpt>
      <trkpt lat="43.36818" lon="5.9961">
        <ele>785</ele>
        <time>2019-12-17T10:17:51.000Z</time>
      </trkpt>
      <trkpt lat="43.36818" lon="5.9961">
        <ele>785</ele>
        <time>2019-12-17T10:17:52.000Z</time>
      </trkpt>
      <trkpt lat="43.36819" lon="5.9961">
        <ele>785</ele>
        <time>2019-12-17T10:17:53.000Z</time>
      </trkpt>
      <trkpt lat="43.3682" lon="5.99611">
        <ele>785</ele>
        <time>2019-12-17T10:17:54.000Z</time>
      </trkpt>
      <trkpt lat="43.36821" lon="5.99611">
        <ele>785</ele>
        <time>2019-12-17T10:17:55.000Z</time>
      </trkpt>
      <trkpt lat="43.36821" lon="5.99611">
        <ele>785</ele>
        <time>2019-12-17T10:17:56.000Z</time>
      </trkpt>
      <trkpt lat="43.36822" lon="5.99611">
        <ele>785</ele>
        <time>2019-12-17T10:17:57.000Z</time>
      </trkpt>
      <trkpt lat="43.36823" lon="5.99611">
        <ele>785</ele>
        <time>2019-12-17T10:17:58.000Z</time>
      </trkpt>
      <trkpt lat="43.36824" lon="5.99611">
        <ele>785</ele>
        <time>2019-12-17T10:17:59.000Z</time>
      </trkpt>
      <trkpt lat="43.36824" lon="5.9961">
        <ele>785</ele>
        <time>2019-12-17T10:18:00.000Z</time>
      </trkpt>
      <trkpt lat="43.36825" lon="5.99611">
        <ele>785</ele>
        <time>2019-12-17T10:18:01.000Z</time>
      </trkpt>
      <trkpt lat="43.36826" lon="5.99612">
        <ele>785</ele>
        <time>2019-12-17T10:18:02.000Z</time>
      </trkpt>
      <trkpt lat="43.36827" lon="5.99612">
        <ele>785</ele>
        <time>2019-12-17T10:18:03.000Z</time>
      </trkpt>
      <trkpt lat="43.36828" lon="5.99613">
        <ele>785</ele>
        <time>2019-12-17T10:18:04.000Z</time>
      </trkpt>
      <trkpt lat="43.36829" lon="5.99614">
        <ele>785</ele>
        <time>2019-12-17T10:18:05.000Z</time>
      </trkpt>
      <trkpt lat="43.36829" lon="5.99615">
        <ele>784</ele>
        <time>2019-12-17T10:18:06.000Z</time>
      </trkpt>
      <trkpt lat="43.3683" lon="5.99615">
        <ele>784</ele>
        <time>2019-12-17T10:18:07.000Z</time>
      </trkpt>
      <trkpt lat="43.36831" lon="5.99616">
        <ele>784</ele>
        <time>2019-12-17T10:18:08.000Z</time>
      </trkpt>
      <trkpt lat="43.36832" lon="5.99617">
        <ele>784</ele>
        <time>2019-12-17T10:18:09.000Z</time>
      </trkpt>
      <trkpt lat="43.36833" lon="5.99618">
        <ele>784</ele>
        <time>2019-12-17T10:18:10.000Z</time>
      </trkpt>
      <trkpt lat="43.36833" lon="5.99618">
        <ele>784</ele>
        <time>2019-12-17T10:18:11.000Z</time>
      </trkpt>
      <trkpt lat="43.36834" lon="5.99619">
        <ele>784</ele>
        <time>2019-12-17T10:18:12.000Z</time>
      </trkpt>
      <trkpt lat="43.36835" lon="5.9962">
        <ele>784</ele>
        <time>2019-12-17T10:18:13.000Z</time>
      </trkpt>
      <trkpt lat="43.36836" lon="5.99621">
        <ele>785</ele>
        <time>2019-12-17T10:18:14.000Z</time>
      </trkpt>
      <trkpt lat="43.36836" lon="5.99623">
        <ele>785</ele>
        <time>2019-12-17T10:18:15.000Z</time>
      </trkpt>
      <trkpt lat="43.36836" lon="5.99624">
        <ele>785</ele>
        <time>2019-12-17T10:18:16.000Z</time>
      </trkpt>
      <trkpt lat="43.36837" lon="5.99626">
        <ele>785</ele>
        <time>2019-12-17T10:18:17.000Z</time>
      </trkpt>
      <trkpt lat="43.36837" lon="5.99628">
        <ele>785</ele>
        <time>2019-12-17T10:18:18.000Z</time>
      </trkpt>
      <trkpt lat="43.36838" lon="5.99629">
        <ele>785</ele>
        <time>2019-12-17T10:18:19.000Z</time>
      </trkpt>
      <trkpt lat="43.36838" lon="5.9963">
        <ele>785</ele>
        <time>2019-12-17T10:18:20.000Z</time>
      </trkpt>
      <trkpt lat="43.36839" lon="5.99632">
        <ele>785</ele>
        <time>2019-12-17T10:18:21.000Z</time>
      </trkpt>
      <trkpt lat="43.36839" lon="5.99633">
        <ele>784</ele>
        <time>2019-12-17T10:18:22.000Z</time>
      </trkpt>
      <trkpt lat="43.3684" lon="5.99634">
        <ele>784</ele>
        <time>2019-12-17T10:18:23.000Z</time>
      </trkpt>
      <trkpt lat="43.3684" lon="5.99634">
        <ele>784</ele>
        <time>2019-12-17T10:18:24.000Z</time>
      </trkpt>
      <trkpt lat="43.36841" lon="5.99635">
        <ele>784</ele>
        <time>2019-12-17T10:18:25.000Z</time>
      </trkpt>
      <trkpt lat="43.36842" lon="5.99636">
        <ele>784</ele>
        <time>2019-12-17T10:18:26.000Z</time>
      </trkpt>
      <trkpt lat="43.36843" lon="5.99637">
        <ele>784</ele>
        <time>2019-12-17T10:18:27.000Z</time>
      </trkpt>
      <trkpt lat="43.36843" lon="5.99638">
        <ele>784</ele>
        <time>2019-12-17T10:18:28.000Z</time>
      </trkpt>
      <trkpt lat="43.36844" lon="5.99639">
        <ele>785</ele>
        <time>2019-12-17T10:18:29.000Z</time>
      </trkpt>
      <trkpt lat="43.36844" lon="5.9964">
        <ele>785</ele>
        <time>2019-12-17T10:18:30.000Z</time>
      </trkpt>
      <trkpt lat="43.36845" lon="5.99641">
        <ele>785</ele>
        <time>2019-12-17T10:18:31.000Z</time>
      </trkpt>
      <trkpt lat="43.36846" lon="5.99641">
        <ele>785</ele>
        <time>2019-12-17T10:18:32.000Z</time>
      </trkpt>
      <trkpt lat="43.36846" lon="5.99642">
        <ele>785</ele>
        <time>2019-12-17T10:18:33.000Z</time>
      </trkpt>
      <trkpt lat="43.36846" lon="5.99644">
        <ele>785</ele>
        <time>2019-12-17T10:18:34.000Z</time>
      </trkpt>
      <trkpt lat="43.36846" lon="5.99644">
        <ele>785</ele>
        <time>2019-12-17T10:18:35.000Z</time>
      </trkpt>
      <trkpt lat="43.36846" lon="5.99644">
        <ele>785</ele>
        <time>2019-12-17T10:18:36.000Z</time>
      </trkpt>
      <trkpt lat="43.36847" lon="5.99645">
        <ele>785</ele>
        <time>2019-12-17T10:18:37.000Z</time>
      </trkpt>
      <trkpt lat="43.36847" lon="5.99646">
        <ele>785</ele>
        <time>2019-12-17T10:18:38.000Z</time>
      </trkpt>
      <trkpt lat="43.36847" lon="5.99646">
        <ele>785</ele>
        <time>2019-12-17T10:18:39.000Z</time>
      </trkpt>
      <trkpt lat="43.36847" lon="5.99647">
        <ele>784</ele>
        <time>2019-12-17T10:18:40.000Z</time>
      </trkpt>
      <trkpt lat="43.36848" lon="5.99648">
        <ele>784</ele>
        <time>2019-12-17T10:18:41.000Z</time>
      </trkpt>
      <trkpt lat="43.36848" lon="5.99649">
        <ele>784</ele>
        <time>2019-12-17T10:18:42.000Z</time>
      </trkpt>
      <trkpt lat="43.36848" lon="5.9965">
        <ele>784</ele>
        <time>2019-12-17T10:18:43.000Z</time>
      </trkpt>
      <trkpt lat="43.36848" lon="5.9965">
        <ele>784</ele>
        <time>2019-12-17T10:18:44.000Z</time>
      </trkpt>
      <trkpt lat="43.36849" lon="5.99651">
        <ele>784</ele>
        <time>2019-12-17T10:18:45.000Z</time>
      </trkpt>
      <trkpt lat="43.36849" lon="5.99652">
        <ele>784</ele>
        <time>2019-12-17T10:18:46.000Z</time>
      </trkpt>
      <trkpt lat="43.36849" lon="5.99653">
        <ele>784</ele>
        <time>2019-12-17T10:18:47.000Z</time>
      </trkpt>
      <trkpt lat="43.3685" lon="5.99654">
        <ele>784</ele>
        <time>2019-12-17T10:18:48.000Z</time>
      </trkpt>
      <trkpt lat="43.3685" lon="5.99655">
        <ele>784</ele>
        <time>2019-12-17T10:18:49.000Z</time>
      </trkpt>
      <trkpt lat="43.3685" lon="5.99656">
        <ele>784</ele>
        <time>2019-12-17T10:18:50.000Z</time>
      </trkpt>
      <trkpt lat="43.36851" lon="5.99656">
        <ele>784</ele>
        <time>2019-12-17T10:18:51.000Z</time>
      </trkpt>
      <trkpt lat="43.36851" lon="5.99656">
        <ele>784</ele>
        <time>2019-12-17T10:18:52.000Z</time>
      </trkpt>
      <trkpt lat="43.36852" lon="5.99656">
        <ele>783</ele>
        <time>2019-12-17T10:18:53.000Z</time>
      </trkpt>
      <trkpt lat="43.36852" lon="5.99656">
        <ele>783</ele>
        <time>2019-12-17T10:18:54.000Z</time>
      </trkpt>
      <trkpt lat="43.36852" lon="5.99656">
        <ele>783</ele>
        <time>2019-12-17T10:18:55.000Z</time>
      </trkpt>
      <trkpt lat="43.36852" lon="5.99656">
        <ele>783</ele>
        <time>2019-12-17T10:18:56.000Z</time>
      </trkpt>
      <trkpt lat="43.36853" lon="5.99657">
        <ele>783</ele>
        <time>2019-12-17T10:18:57.000Z</time>
      </trkpt>
      <trkpt lat="43.36853" lon="5.99657">
        <ele>783</ele>
        <time>2019-12-17T10:18:58.000Z</time>
      </trkpt>
      <trkpt lat="43.36853" lon="5.99657">
        <ele>783</ele>
        <time>2019-12-17T10:18:59.000Z</time>
      </trkpt>
      <trkpt lat="43.36853" lon="5.99658">
        <ele>783</ele>
        <time>2019-12-17T10:19:00.000Z</time>
      </trkpt>
      <trkpt lat="43.36853" lon="5.99659">
        <ele>783</ele>
        <time>2019-12-17T10:19:01.000Z</time>
      </trkpt>
      <trkpt lat="43.36853" lon="5.9966">
        <ele>783</ele>
        <time>2019-12-17T10:19:02.000Z</time>
      </trkpt>
      <trkpt lat="43.36854" lon="5.99661">
        <ele>783</ele>
        <time>2019-12-17T10:19:03.000Z</time>
      </trkpt>
      <trkpt lat="43.36853" lon="5.99662">
        <ele>783</ele>
        <time>2019-12-17T10:19:04.000Z</time>
      </trkpt>
      <trkpt lat="43.36853" lon="5.99663">
        <ele>783</ele>
        <time>2019-12-17T10:19:05.000Z</time>
      </trkpt>
      <trkpt lat="43.36853" lon="5.99663">
        <ele>783</ele>
        <time>2019-12-17T10:19:06.000Z</time>
      </trkpt>
      <trkpt lat="43.36853" lon="5.99663">
        <ele>783</ele>
        <time>2019-12-17T10:19:07.000Z</time>
      </trkpt>
      <trkpt lat="43.36853" lon="5.99663">
        <ele>783</ele>
        <time>2019-12-17T10:19:08.000Z</time>
      </trkpt>
      <trkpt lat="43.36853" lon="5.99664">
        <ele>783</ele>
        <time>2019-12-17T10:19:09.000Z</time>
      </trkpt>
      <trkpt lat="43.36853" lon="5.99663">
        <ele>783</ele>
        <time>2019-12-17T10:19:10.000Z</time>
      </trkpt>
      <trkpt lat="43.36853" lon="5.99663">
        <ele>783</ele>
        <time>2019-12-17T10:19:11.000Z</time>
      </trkpt>
      <trkpt lat="43.36853" lon="5.99663">
        <ele>783</ele>
        <time>2019-12-17T10:19:12.000Z</time>
      </trkpt>
      <trkpt lat="43.36853" lon="5.99663">
        <ele>783</ele>
        <time>2019-12-17T10:19:13.000Z</time>
      </trkpt>
      <trkpt lat="43.36853" lon="5.99664">
        <ele>783</ele>
        <time>2019-12-17T10:19:14.000Z</time>
      </trkpt>
      <trkpt lat="43.36853" lon="5.99664">
        <ele>783</ele>
        <time>2019-12-17T10:19:15.000Z</time>
      </trkpt>
      <trkpt lat="43.36853" lon="5.99664">
        <ele>783</ele>
        <time>2019-12-17T10:19:16.000Z</time>
      </trkpt>
      <trkpt lat="43.36853" lon="5.99664">
        <ele>783</ele>
        <time>2019-12-17T10:19:17.000Z</time>
      </trkpt>
      <trkpt lat="43.36853" lon="5.99664">
        <ele>783</ele>
        <time>2019-12-17T10:19:18.000Z</time>
      </trkpt>
      <trkpt lat="43.36853" lon="5.99664">
        <ele>783</ele>
        <time>2019-12-17T10:19:19.000Z</time>
      </trkpt>
      <trkpt lat="43.36853" lon="5.99664">
        <ele>783</ele>
        <time>2019-12-17T10:19:20.000Z</time>
      </trkpt>
      <trkpt lat="43.36853" lon="5.99664">
        <ele>783</ele>
        <time>2019-12-17T10:19:21.000Z</time>
      </trkpt>
      <trkpt lat="43.36853" lon="5.99664">
        <ele>783</ele>
        <time>2019-12-17T10:19:22.000Z</time>
      </trkpt>
      <trkpt lat="43.36853" lon="5.99664">
        <ele>783</ele>
        <time>2019-12-17T10:19:23.000Z</time>
      </trkpt>
      <trkpt lat="43.36853" lon="5.99664">
        <ele>783</ele>
        <time>2019-12-17T10:19:24.000Z</time>
      </trkpt>
      <trkpt lat="43.36853" lon="5.99665">
        <ele>783</ele>
        <time>2019-12-17T10:19:25.000Z</time>
      </trkpt>
      <trkpt lat="43.36853" lon="5.99665">
        <ele>783</ele>
        <time>2019-12-17T10:19:26.000Z</time>
      </trkpt>
      <trkpt lat="43.36854" lon="5.99666">
        <ele>783</ele>
        <time>2019-12-17T10:19:27.000Z</time>
      </trkpt>
      <trkpt lat="43.36854" lon="5.99666">
        <ele>783</ele>
        <time>2019-12-17T10:19:28.000Z</time>
      </trkpt>
      <trkpt lat="43.36854" lon="5.99667">
        <ele>783</ele>
        <time>2019-12-17T10:19:29.000Z</time>
      </trkpt>
      <trkpt lat="43.36854" lon="5.99668">
        <ele>783</ele>
        <time>2019-12-17T10:19:30.000Z</time>
      </trkpt>
      <trkpt lat="43.36855" lon="5.99669">
        <ele>783</ele>
        <time>2019-12-17T10:19:31.000Z</time>
      </trkpt>
      <trkpt lat="43.36855" lon="5.99669">
        <ele>783</ele>
        <time>2019-12-17T10:19:32.000Z</time>
      </trkpt>
      <trkpt lat="43.36855" lon="5.9967">
        <ele>783</ele>
        <time>2019-12-17T10:19:33.000Z</time>
      </trkpt>
      <trkpt lat="43.36855" lon="5.99671">
        <ele>783</ele>
        <time>2019-12-17T10:19:34.000Z</time>
      </trkpt>
      <trkpt lat="43.36855" lon="5.99671">
        <ele>783</ele>
        <time>2019-12-17T10:19:35.000Z</time>
      </trkpt>
      <trkpt lat="43.36855" lon="5.99672">
        <ele>783</ele>
        <time>2019-12-17T10:19:36.000Z</time>
      </trkpt>
      <trkpt lat="43.36855" lon="5.99672">
        <ele>783</ele>
        <time>2019-12-17T10:19:37.000Z</time>
      </trkpt>
      <trkpt lat="43.36855" lon="5.99673">
        <ele>784</ele>
        <time>2019-12-17T10:19:38.000Z</time>
      </trkpt>
      <trkpt lat="43.36855" lon="5.99673">
        <ele>784</ele>
        <time>2019-12-17T10:19:39.000Z</time>
      </trkpt>
      <trkpt lat="43.36855" lon="5.99673">
        <ele>784</ele>
        <time>2019-12-17T10:19:40.000Z</time>
      </trkpt>
      <trkpt lat="43.36855" lon="5.99674">
        <ele>784</ele>
        <time>2019-12-17T10:19:41.000Z</time>
      </trkpt>
      <trkpt lat="43.36855" lon="5.99675">
        <ele>784</ele>
        <time>2019-12-17T10:19:42.000Z</time>
      </trkpt>
      <trkpt lat="43.36855" lon="5.99676">
        <ele>784</ele>
        <time>2019-12-17T10:19:43.000Z</time>
      </trkpt>
      <trkpt lat="43.36855" lon="5.99677">
        <ele>784</ele>
        <time>2019-12-17T10:19:44.000Z</time>
      </trkpt>
      <trkpt lat="43.36855" lon="5.99678">
        <ele>784</ele>
        <time>2019-12-17T10:19:45.000Z</time>
      </trkpt>
      <trkpt lat="43.36855" lon="5.99679">
        <ele>784</ele>
        <time>2019-12-17T10:19:46.000Z</time>
      </trkpt>
      <trkpt lat="43.36856" lon="5.99681">
        <ele>784</ele>
        <time>2019-12-17T10:19:47.000Z</time>
      </trkpt>
      <trkpt lat="43.36856" lon="5.99682">
        <ele>784</ele>
        <time>2019-12-17T10:19:48.000Z</time>
      </trkpt>
      <trkpt lat="43.36856" lon="5.99683">
        <ele>784</ele>
        <time>2019-12-17T10:19:49.000Z</time>
      </trkpt>
      <trkpt lat="43.36856" lon="5.99684">
        <ele>784</ele>
        <time>2019-12-17T10:19:50.000Z</time>
      </trkpt>
      <trkpt lat="43.36856" lon="5.99684">
        <ele>784</ele>
        <time>2019-12-17T10:19:51.000Z</time>
      </trkpt>
      <trkpt lat="43.36856" lon="5.99685">
        <ele>784</ele>
        <time>2019-12-17T10:19:52.000Z</time>
      </trkpt>
      <trkpt lat="43.36857" lon="5.99686">
        <ele>784</ele>
        <time>2019-12-17T10:19:53.000Z</time>
      </trkpt>
      <trkpt lat="43.36857" lon="5.99686">
        <ele>784</ele>
        <time>2019-12-17T10:19:54.000Z</time>
      </trkpt>
      <trkpt lat="43.36858" lon="5.99687">
        <ele>784</ele>
        <time>2019-12-17T10:19:55.000Z</time>
      </trkpt>
      <trkpt lat="43.36858" lon="5.99688">
        <ele>784</ele>
        <time>2019-12-17T10:19:56.000Z</time>
      </trkpt>
      <trkpt lat="43.36857" lon="5.99689">
        <ele>784</ele>
        <time>2019-12-17T10:19:57.000Z</time>
      </trkpt>
      <trkpt lat="43.36857" lon="5.9969">
        <ele>784</ele>
        <time>2019-12-17T10:19:58.000Z</time>
      </trkpt>
      <trkpt lat="43.36857" lon="5.99691">
        <ele>784</ele>
        <time>2019-12-17T10:19:59.000Z</time>
      </trkpt>
      <trkpt lat="43.36858" lon="5.99691">
        <ele>784</ele>
        <time>2019-12-17T10:20:00.000Z</time>
      </trkpt>
      <trkpt lat="43.36858" lon="5.99692">
        <ele>784</ele>
        <time>2019-12-17T10:20:01.000Z</time>
      </trkpt>
      <trkpt lat="43.36859" lon="5.99693">
        <ele>784</ele>
        <time>2019-12-17T10:20:02.000Z</time>
      </trkpt>
      <trkpt lat="43.36859" lon="5.99693">
        <ele>784</ele>
        <time>2019-12-17T10:20:03.000Z</time>
      </trkpt>
      <trkpt lat="43.3686" lon="5.99694">
        <ele>784</ele>
        <time>2019-12-17T10:20:04.000Z</time>
      </trkpt>
      <trkpt lat="43.3686" lon="5.99695">
        <ele>784</ele>
        <time>2019-12-17T10:20:05.000Z</time>
      </trkpt>
      <trkpt lat="43.3686" lon="5.99697">
        <ele>784</ele>
        <time>2019-12-17T10:20:06.000Z</time>
      </trkpt>
      <trkpt lat="43.3686" lon="5.99698">
        <ele>784</ele>
        <time>2019-12-17T10:20:07.000Z</time>
      </trkpt>
      <trkpt lat="43.3686" lon="5.99699">
        <ele>784</ele>
        <time>2019-12-17T10:20:08.000Z</time>
      </trkpt>
      <trkpt lat="43.3686" lon="5.997">
        <ele>784</ele>
        <time>2019-12-17T10:20:09.000Z</time>
      </trkpt>
      <trkpt lat="43.3686" lon="5.99701">
        <ele>784</ele>
        <time>2019-12-17T10:20:10.000Z</time>
      </trkpt>
      <trkpt lat="43.3686" lon="5.99702">
        <ele>784</ele>
        <time>2019-12-17T10:20:11.000Z</time>
      </trkpt>
      <trkpt lat="43.36861" lon="5.99703">
        <ele>784</ele>
        <time>2019-12-17T10:20:12.000Z</time>
      </trkpt>
      <trkpt lat="43.36861" lon="5.99704">
        <ele>784</ele>
        <time>2019-12-17T10:20:13.000Z</time>
      </trkpt>
      <trkpt lat="43.36861" lon="5.99705">
        <ele>784</ele>
        <time>2019-12-17T10:20:14.000Z</time>
      </trkpt>
      <trkpt lat="43.36861" lon="5.99706">
        <ele>784</ele>
        <time>2019-12-17T10:20:15.000Z</time>
      </trkpt>
      <trkpt lat="43.36861" lon="5.99707">
        <ele>784</ele>
        <time>2019-12-17T10:20:16.000Z</time>
      </trkpt>
      <trkpt lat="43.36862" lon="5.99708">
        <ele>784</ele>
        <time>2019-12-17T10:20:17.000Z</time>
      </trkpt>
      <trkpt lat="43.36862" lon="5.99709">
        <ele>783</ele>
        <time>2019-12-17T10:20:18.000Z</time>
      </trkpt>
      <trkpt lat="43.36862" lon="5.99709">
        <ele>783</ele>
        <time>2019-12-17T10:20:19.000Z</time>
      </trkpt>
      <trkpt lat="43.36862" lon="5.9971">
        <ele>783</ele>
        <time>2019-12-17T10:20:20.000Z</time>
      </trkpt>
      <trkpt lat="43.36862" lon="5.99711">
        <ele>783</ele>
        <time>2019-12-17T10:20:21.000Z</time>
      </trkpt>
      <trkpt lat="43.36862" lon="5.99711">
        <ele>783</ele>
        <time>2019-12-17T10:20:22.000Z</time>
      </trkpt>
      <trkpt lat="43.36862" lon="5.99712">
        <ele>783</ele>
        <time>2019-12-17T10:20:23.000Z</time>
      </trkpt>
      <trkpt lat="43.36863" lon="5.99712">
        <ele>783</ele>
        <time>2019-12-17T10:20:24.000Z</time>
      </trkpt>
      <trkpt lat="43.36863" lon="5.99713">
        <ele>782</ele>
        <time>2019-12-17T10:20:25.000Z</time>
      </trkpt>
      <trkpt lat="43.36863" lon="5.99714">
        <ele>782</ele>
        <time>2019-12-17T10:20:26.000Z</time>
      </trkpt>
      <trkpt lat="43.36864" lon="5.99716">
        <ele>782</ele>
        <time>2019-12-17T10:20:27.000Z</time>
      </trkpt>
      <trkpt lat="43.36864" lon="5.99717">
        <ele>782</ele>
        <time>2019-12-17T10:20:28.000Z</time>
      </trkpt>
      <trkpt lat="43.36865" lon="5.99718">
        <ele>782</ele>
        <time>2019-12-17T10:20:29.000Z</time>
      </trkpt>
      <trkpt lat="43.36865" lon="5.99719">
        <ele>783</ele>
        <time>2019-12-17T10:20:30.000Z</time>
      </trkpt>
      <trkpt lat="43.36865" lon="5.99721">
        <ele>783</ele>
        <time>2019-12-17T10:20:31.000Z</time>
      </trkpt>
      <trkpt lat="43.36866" lon="5.99721">
        <ele>783</ele>
        <time>2019-12-17T10:20:32.000Z</time>
      </trkpt>
      <trkpt lat="43.36866" lon="5.99722">
        <ele>783</ele>
        <time>2019-12-17T10:20:33.000Z</time>
      </trkpt>
      <trkpt lat="43.36867" lon="5.99723">
        <ele>783</ele>
        <time>2019-12-17T10:20:34.000Z</time>
      </trkpt>
      <trkpt lat="43.36868" lon="5.99724">
        <ele>783</ele>
        <time>2019-12-17T10:20:35.000Z</time>
      </trkpt>
      <trkpt lat="43.36869" lon="5.99725">
        <ele>782</ele>
        <time>2019-12-17T10:20:36.000Z</time>
      </trkpt>
      <trkpt lat="43.36869" lon="5.99725">
        <ele>782</ele>
        <time>2019-12-17T10:20:37.000Z</time>
      </trkpt>
      <trkpt lat="43.3687" lon="5.99726">
        <ele>782</ele>
        <time>2019-12-17T10:20:38.000Z</time>
      </trkpt>
      <trkpt lat="43.3687" lon="5.99727">
        <ele>782</ele>
        <time>2019-12-17T10:20:39.000Z</time>
      </trkpt>
      <trkpt lat="43.3687" lon="5.99728">
        <ele>782</ele>
        <time>2019-12-17T10:20:40.000Z</time>
      </trkpt>
      <trkpt lat="43.3687" lon="5.99728">
        <ele>782</ele>
        <time>2019-12-17T10:20:41.000Z</time>
      </trkpt>
      <trkpt lat="43.36871" lon="5.99728">
        <ele>782</ele>
        <time>2019-12-17T10:20:42.000Z</time>
      </trkpt>
      <trkpt lat="43.36871" lon="5.99728">
        <ele>782</ele>
        <time>2019-12-17T10:20:43.000Z</time>
      </trkpt>
      <trkpt lat="43.36871" lon="5.99728">
        <ele>782</ele>
        <time>2019-12-17T10:20:44.000Z</time>
      </trkpt>
      <trkpt lat="43.36871" lon="5.99728">
        <ele>782</ele>
        <time>2019-12-17T10:20:45.000Z</time>
      </trkpt>
      <trkpt lat="43.36871" lon="5.99728">
        <ele>782</ele>
        <time>2019-12-17T10:20:46.000Z</time>
      </trkpt>
      <trkpt lat="43.36871" lon="5.99729">
        <ele>782</ele>
        <time>2019-12-17T10:20:47.000Z</time>
      </trkpt>
      <trkpt lat="43.36872" lon="5.99729">
        <ele>781</ele>
        <time>2019-12-17T10:20:48.000Z</time>
      </trkpt>
      <trkpt lat="43.36872" lon="5.9973">
        <ele>781</ele>
        <time>2019-12-17T10:20:49.000Z</time>
      </trkpt>
      <trkpt lat="43.36873" lon="5.99731">
        <ele>781</ele>
        <time>2019-12-17T10:20:50.000Z</time>
      </trkpt>
      <trkpt lat="43.36874" lon="5.99731">
        <ele>781</ele>
        <time>2019-12-17T10:20:51.000Z</time>
      </trkpt>
      <trkpt lat="43.36875" lon="5.99732">
        <ele>781</ele>
        <time>2019-12-17T10:20:52.000Z</time>
      </trkpt>
      <trkpt lat="43.36876" lon="5.99732">
        <ele>781</ele>
        <time>2019-12-17T10:20:53.000Z</time>
      </trkpt>
      <trkpt lat="43.36876" lon="5.99732">
        <ele>781</ele>
        <time>2019-12-17T10:20:54.000Z</time>
      </trkpt>
      <trkpt lat="43.36877" lon="5.99733">
        <ele>781</ele>
        <time>2019-12-17T10:20:55.000Z</time>
      </trkpt>
      <trkpt lat="43.36878" lon="5.99733">
        <ele>781</ele>
        <time>2019-12-17T10:20:56.000Z</time>
      </trkpt>
      <trkpt lat="43.36878" lon="5.99734">
        <ele>780</ele>
        <time>2019-12-17T10:20:57.000Z</time>
      </trkpt>
      <trkpt lat="43.36879" lon="5.99735">
        <ele>780</ele>
        <time>2019-12-17T10:20:58.000Z</time>
      </trkpt>
      <trkpt lat="43.36879" lon="5.99736">
        <ele>780</ele>
        <time>2019-12-17T10:20:59.000Z</time>
      </trkpt>
      <trkpt lat="43.36879" lon="5.99737">
        <ele>780</ele>
        <time>2019-12-17T10:21:00.000Z</time>
      </trkpt>
      <trkpt lat="43.36879" lon="5.99737">
        <ele>780</ele>
        <time>2019-12-17T10:21:01.000Z</time>
      </trkpt>
      <trkpt lat="43.36879" lon="5.99738">
        <ele>780</ele>
        <time>2019-12-17T10:21:02.000Z</time>
      </trkpt>
      <trkpt lat="43.36879" lon="5.99739">
        <ele>780</ele>
        <time>2019-12-17T10:21:03.000Z</time>
      </trkpt>
      <trkpt lat="43.36879" lon="5.99739">
        <ele>780</ele>
        <time>2019-12-17T10:21:04.000Z</time>
      </trkpt>
      <trkpt lat="43.36879" lon="5.99739">
        <ele>779</ele>
        <time>2019-12-17T10:21:05.000Z</time>
      </trkpt>
      <trkpt lat="43.36879" lon="5.99739">
        <ele>779</ele>
        <time>2019-12-17T10:21:06.000Z</time>
      </trkpt>
      <trkpt lat="43.36879" lon="5.99739">
        <ele>779</ele>
        <time>2019-12-17T10:21:07.000Z</time>
      </trkpt>
      <trkpt lat="43.36879" lon="5.99739">
        <ele>779</ele>
        <time>2019-12-17T10:21:08.000Z</time>
      </trkpt>
      <trkpt lat="43.36879" lon="5.99739">
        <ele>779</ele>
        <time>2019-12-17T10:21:09.000Z</time>
      </trkpt>
      <trkpt lat="43.36879" lon="5.99739">
        <ele>779</ele>
        <time>2019-12-17T10:21:10.000Z</time>
      </trkpt>
      <trkpt lat="43.36879" lon="5.99739">
        <ele>779</ele>
        <time>2019-12-17T10:21:11.000Z</time>
      </trkpt>
      <trkpt lat="43.3688" lon="5.99739">
        <ele>779</ele>
        <time>2019-12-17T10:21:12.000Z</time>
      </trkpt>
      <trkpt lat="43.3688" lon="5.99739">
        <ele>779</ele>
        <time>2019-12-17T10:21:13.000Z</time>
      </trkpt>
      <trkpt lat="43.3688" lon="5.99739">
        <ele>779</ele>
        <time>2019-12-17T10:21:14.000Z</time>
      </trkpt>
      <trkpt lat="43.3688" lon="5.99739">
        <ele>779</ele>
        <time>2019-12-17T10:21:15.000Z</time>
      </trkpt>
      <trkpt lat="43.3688" lon="5.99739">
        <ele>779</ele>
        <time>2019-12-17T10:21:16.000Z</time>
      </trkpt>
      <trkpt lat="43.3688" lon="5.9974">
        <ele>779</ele>
        <time>2019-12-17T10:21:17.000Z</time>
      </trkpt>
      <trkpt lat="43.3688" lon="5.99741">
        <ele>779</ele>
        <time>2019-12-17T10:21:18.000Z</time>
      </trkpt>
      <trkpt lat="43.3688" lon="5.99741">
        <ele>779</ele>
        <time>2019-12-17T10:21:19.000Z</time>
      </trkpt>
      <trkpt lat="43.36881" lon="5.99741">
        <ele>778</ele>
        <time>2019-12-17T10:21:20.000Z</time>
      </trkpt>
      <trkpt lat="43.36881" lon="5.99741">
        <ele>778</ele>
        <time>2019-12-17T10:21:21.000Z</time>
      </trkpt>
      <trkpt lat="43.36881" lon="5.99742">
        <ele>778</ele>
        <time>2019-12-17T10:21:22.000Z</time>
      </trkpt>
      <trkpt lat="43.36881" lon="5.99742">
        <ele>778</ele>
        <time>2019-12-17T10:21:23.000Z</time>
      </trkpt>
      <trkpt lat="43.36881" lon="5.99742">
        <ele>778</ele>
        <time>2019-12-17T10:21:24.000Z</time>
      </trkpt>
      <trkpt lat="43.36881" lon="5.99742">
        <ele>778</ele>
        <time>2019-12-17T10:21:25.000Z</time>
      </trkpt>
      <trkpt lat="43.36881" lon="5.99742">
        <ele>778</ele>
        <time>2019-12-17T10:21:26.000Z</time>
      </trkpt>
      <trkpt lat="43.36881" lon="5.99742">
        <ele>778</ele>
        <time>2019-12-17T10:21:27.000Z</time>
      </trkpt>
      <trkpt lat="43.36881" lon="5.99742">
        <ele>778</ele>
        <time>2019-12-17T10:21:28.000Z</time>
      </trkpt>
      <trkpt lat="43.36881" lon="5.99742">
        <ele>778</ele>
        <time>2019-12-17T10:21:29.000Z</time>
      </trkpt>
      <trkpt lat="43.36881" lon="5.99742">
        <ele>778</ele>
        <time>2019-12-17T10:21:30.000Z</time>
      </trkpt>
      <trkpt lat="43.3688" lon="5.99742">
        <ele>778</ele>
        <time>2019-12-17T10:21:31.000Z</time>
      </trkpt>
      <trkpt lat="43.3688" lon="5.99742">
        <ele>778</ele>
        <time>2019-12-17T10:21:32.000Z</time>
      </trkpt>
      <trkpt lat="43.3688" lon="5.99743">
        <ele>778</ele>
        <time>2019-12-17T10:21:33.000Z</time>
      </trkpt>
      <trkpt lat="43.3688" lon="5.99743">
        <ele>778</ele>
        <time>2019-12-17T10:21:34.000Z</time>
      </trkpt>
      <trkpt lat="43.36879" lon="5.99743">
        <ele>778</ele>
        <time>2019-12-17T10:21:35.000Z</time>
      </trkpt>
      <trkpt lat="43.36879" lon="5.99744">
        <ele>778</ele>
        <time>2019-12-17T10:21:36.000Z</time>
      </trkpt>
      <trkpt lat="43.36879" lon="5.99744">
        <ele>778</ele>
        <time>2019-12-17T10:21:37.000Z</time>
      </trkpt>
      <trkpt lat="43.3688" lon="5.99744">
        <ele>778</ele>
        <time>2019-12-17T10:21:38.000Z</time>
      </trkpt>
      <trkpt lat="43.3688" lon="5.99745">
        <ele>778</ele>
        <time>2019-12-17T10:21:39.000Z</time>
      </trkpt>
      <trkpt lat="43.3688" lon="5.99745">
        <ele>778</ele>
        <time>2019-12-17T10:21:40.000Z</time>
      </trkpt>
      <trkpt lat="43.3688" lon="5.99746">
        <ele>778</ele>
        <time>2019-12-17T10:21:41.000Z</time>
      </trkpt>
      <trkpt lat="43.3688" lon="5.99746">
        <ele>778</ele>
        <time>2019-12-17T10:21:42.000Z</time>
      </trkpt>
      <trkpt lat="43.3688" lon="5.99746">
        <ele>778</ele>
        <time>2019-12-17T10:21:43.000Z</time>
      </trkpt>
      <trkpt lat="43.3688" lon="5.99746">
        <ele>778</ele>
        <time>2019-12-17T10:21:44.000Z</time>
      </trkpt>
      <trkpt lat="43.3688" lon="5.99746">
        <ele>778</ele>
        <time>2019-12-17T10:21:45.000Z</time>
      </trkpt>
      <trkpt lat="43.3688" lon="5.99746">
        <ele>778</ele>
        <time>2019-12-17T10:21:46.000Z</time>
      </trkpt>
      <trkpt lat="43.36879" lon="5.99746">
        <ele>778</ele>
        <time>2019-12-17T10:21:47.000Z</time>
      </trkpt>
      <trkpt lat="43.36879" lon="5.99747">
        <ele>778</ele>
        <time>2019-12-17T10:21:48.000Z</time>
      </trkpt>
      <trkpt lat="43.36879" lon="5.99747">
        <ele>778</ele>
        <time>2019-12-17T10:21:49.000Z</time>
      </trkpt>
      <trkpt lat="43.36879" lon="5.99747">
        <ele>778</ele>
        <time>2019-12-17T10:21:50.000Z</time>
      </trkpt>
      <trkpt lat="43.36879" lon="5.99747">
        <ele>778</ele>
        <time>2019-12-17T10:21:51.000Z</time>
      </trkpt>
      <trkpt lat="43.36879" lon="5.99748">
        <ele>778</ele>
        <time>2019-12-17T10:21:52.000Z</time>
      </trkpt>
      <trkpt lat="43.36879" lon="5.99748">
        <ele>778</ele>
        <time>2019-12-17T10:21:53.000Z</time>
      </trkpt>
      <trkpt lat="43.36879" lon="5.99748">
        <ele>778</ele>
        <time>2019-12-17T10:21:54.000Z</time>
      </trkpt>
      <trkpt lat="43.36879" lon="5.99748">
        <ele>778</ele>
        <time>2019-12-17T10:21:55.000Z</time>
      </trkpt>
      <trkpt lat="43.36879" lon="5.99748">
        <ele>778</ele>
        <time>2019-12-17T10:21:56.000Z</time>
      </trkpt>
      <trkpt lat="43.36879" lon="5.99748">
        <ele>778</ele>
        <time>2019-12-17T10:21:57.000Z</time>
      </trkpt>
      <trkpt lat="43.36879" lon="5.99749">
        <ele>778</ele>
        <time>2019-12-17T10:21:58.000Z</time>
      </trkpt>
      <trkpt lat="43.36879" lon="5.99748">
        <ele>778</ele>
        <time>2019-12-17T10:21:59.000Z</time>
      </trkpt>
      <trkpt lat="43.36879" lon="5.99749">
        <ele>778</ele>
        <time>2019-12-17T10:22:00.000Z</time>
      </trkpt>
      <trkpt lat="43.36879" lon="5.99749">
        <ele>778</ele>
        <time>2019-12-17T10:22:01.000Z</time>
      </trkpt>
      <trkpt lat="43.36879" lon="5.9975">
        <ele>778</ele>
        <time>2019-12-17T10:22:02.000Z</time>
      </trkpt>
      <trkpt lat="43.36879" lon="5.99751">
        <ele>778</ele>
        <time>2019-12-17T10:22:03.000Z</time>
      </trkpt>
      <trkpt lat="43.36879" lon="5.99751">
        <ele>778</ele>
        <time>2019-12-17T10:22:04.000Z</time>
      </trkpt>
      <trkpt lat="43.36879" lon="5.99751">
        <ele>778</ele>
        <time>2019-12-17T10:22:05.000Z</time>
      </trkpt>
      <trkpt lat="43.36879" lon="5.99752">
        <ele>778</ele>
        <time>2019-12-17T10:22:06.000Z</time>
      </trkpt>
      <trkpt lat="43.36879" lon="5.99752">
        <ele>778</ele>
        <time>2019-12-17T10:22:07.000Z</time>
      </trkpt>
      <trkpt lat="43.36879" lon="5.99753">
        <ele>778</ele>
        <time>2019-12-17T10:22:08.000Z</time>
      </trkpt>
      <trkpt lat="43.36879" lon="5.99753">
        <ele>778</ele>
        <time>2019-12-17T10:22:09.000Z</time>
      </trkpt>
      <trkpt lat="43.36879" lon="5.99754">
        <ele>778</ele>
        <time>2019-12-17T10:22:10.000Z</time>
      </trkpt>
      <trkpt lat="43.36878" lon="5.99755">
        <ele>778</ele>
        <time>2019-12-17T10:22:11.000Z</time>
      </trkpt>
      <trkpt lat="43.36878" lon="5.99755">
        <ele>778</ele>
        <time>2019-12-17T10:22:12.000Z</time>
      </trkpt>
      <trkpt lat="43.36878" lon="5.99755">
        <ele>778</ele>
        <time>2019-12-17T10:22:13.000Z</time>
      </trkpt>
      <trkpt lat="43.36878" lon="5.99756">
        <ele>778</ele>
        <time>2019-12-17T10:22:14.000Z</time>
      </trkpt>
      <trkpt lat="43.36878" lon="5.99756">
        <ele>777</ele>
        <time>2019-12-17T10:22:15.000Z</time>
      </trkpt>
      <trkpt lat="43.36878" lon="5.99757">
        <ele>777</ele>
        <time>2019-12-17T10:22:16.000Z</time>
      </trkpt>
      <trkpt lat="43.36878" lon="5.99757">
        <ele>777</ele>
        <time>2019-12-17T10:22:17.000Z</time>
      </trkpt>
      <trkpt lat="43.36879" lon="5.99758">
        <ele>777</ele>
        <time>2019-12-17T10:22:18.000Z</time>
      </trkpt>
      <trkpt lat="43.36879" lon="5.9976">
        <ele>777</ele>
        <time>2019-12-17T10:22:19.000Z</time>
      </trkpt>
      <trkpt lat="43.36879" lon="5.9976">
        <ele>777</ele>
        <time>2019-12-17T10:22:20.000Z</time>
      </trkpt>
      <trkpt lat="43.36879" lon="5.99761">
        <ele>777</ele>
        <time>2019-12-17T10:22:21.000Z</time>
      </trkpt>
      <trkpt lat="43.36879" lon="5.99762">
        <ele>777</ele>
        <time>2019-12-17T10:22:22.000Z</time>
      </trkpt>
      <trkpt lat="43.36879" lon="5.99763">
        <ele>777</ele>
        <time>2019-12-17T10:22:23.000Z</time>
      </trkpt>
      <trkpt lat="43.36879" lon="5.99764">
        <ele>776</ele>
        <time>2019-12-17T10:22:24.000Z</time>
      </trkpt>
      <trkpt lat="43.36879" lon="5.99765">
        <ele>776</ele>
        <time>2019-12-17T10:22:25.000Z</time>
      </trkpt>
      <trkpt lat="43.36879" lon="5.99765">
        <ele>776</ele>
        <time>2019-12-17T10:22:26.000Z</time>
      </trkpt>
      <trkpt lat="43.36879" lon="5.99766">
        <ele>776</ele>
        <time>2019-12-17T10:22:27.000Z</time>
      </trkpt>
      <trkpt lat="43.36879" lon="5.99766">
        <ele>776</ele>
        <time>2019-12-17T10:22:28.000Z</time>
      </trkpt>
      <trkpt lat="43.36879" lon="5.99766">
        <ele>776</ele>
        <time>2019-12-17T10:22:29.000Z</time>
      </trkpt>
      <trkpt lat="43.36879" lon="5.99767">
        <ele>776</ele>
        <time>2019-12-17T10:22:30.000Z</time>
      </trkpt>
      <trkpt lat="43.36879" lon="5.99767">
        <ele>776</ele>
        <time>2019-12-17T10:22:31.000Z</time>
      </trkpt>
      <trkpt lat="43.36879" lon="5.99768">
        <ele>776</ele>
        <time>2019-12-17T10:22:32.000Z</time>
      </trkpt>
      <trkpt lat="43.36879" lon="5.99769">
        <ele>776</ele>
        <time>2019-12-17T10:22:33.000Z</time>
      </trkpt>
      <trkpt lat="43.36879" lon="5.99769">
        <ele>776</ele>
        <time>2019-12-17T10:22:34.000Z</time>
      </trkpt>
      <trkpt lat="43.36879" lon="5.9977">
        <ele>776</ele>
        <time>2019-12-17T10:22:35.000Z</time>
      </trkpt>
      <trkpt lat="43.3688" lon="5.9977">
        <ele>776</ele>
        <time>2019-12-17T10:22:36.000Z</time>
      </trkpt>
      <trkpt lat="43.3688" lon="5.99771">
        <ele>776</ele>
        <time>2019-12-17T10:22:37.000Z</time>
      </trkpt>
      <trkpt lat="43.3688" lon="5.99771">
        <ele>776</ele>
        <time>2019-12-17T10:22:38.000Z</time>
      </trkpt>
      <trkpt lat="43.3688" lon="5.99771">
        <ele>776</ele>
        <time>2019-12-17T10:22:39.000Z</time>
      </trkpt>
      <trkpt lat="43.3688" lon="5.99771">
        <ele>776</ele>
        <time>2019-12-17T10:22:40.000Z</time>
      </trkpt>
      <trkpt lat="43.3688" lon="5.99771">
        <ele>776</ele>
        <time>2019-12-17T10:22:41.000Z</time>
      </trkpt>
      <trkpt lat="43.36881" lon="5.99771">
        <ele>776</ele>
        <time>2019-12-17T10:22:42.000Z</time>
      </trkpt>
      <trkpt lat="43.36881" lon="5.99772">
        <ele>776</ele>
        <time>2019-12-17T10:22:43.000Z</time>
      </trkpt>
      <trkpt lat="43.36882" lon="5.99772">
        <ele>776</ele>
        <time>2019-12-17T10:22:44.000Z</time>
      </trkpt>
      <trkpt lat="43.36882" lon="5.99772">
        <ele>776</ele>
        <time>2019-12-17T10:22:45.000Z</time>
      </trkpt>
      <trkpt lat="43.36883" lon="5.99773">
        <ele>776</ele>
        <time>2019-12-17T10:22:46.000Z</time>
      </trkpt>
      <trkpt lat="43.36884" lon="5.99773">
        <ele>776</ele>
        <time>2019-12-17T10:22:47.000Z</time>
      </trkpt>
      <trkpt lat="43.36885" lon="5.99774">
        <ele>776</ele>
        <time>2019-12-17T10:22:48.000Z</time>
      </trkpt>
      <trkpt lat="43.36885" lon="5.99773">
        <ele>776</ele>
        <time>2019-12-17T10:22:49.000Z</time>
      </trkpt>
      <trkpt lat="43.36886" lon="5.99774">
        <ele>777</ele>
        <time>2019-12-17T10:22:50.000Z</time>
      </trkpt>
      <trkpt lat="43.36887" lon="5.99774">
        <ele>777</ele>
        <time>2019-12-17T10:22:51.000Z</time>
      </trkpt>
      <trkpt lat="43.36887" lon="5.99774">
        <ele>777</ele>
        <time>2019-12-17T10:22:52.000Z</time>
      </trkpt>
      <trkpt lat="43.36888" lon="5.99774">
        <ele>777</ele>
        <time>2019-12-17T10:22:53.000Z</time>
      </trkpt>
      <trkpt lat="43.36889" lon="5.99775">
        <ele>777</ele>
        <time>2019-12-17T10:22:54.000Z</time>
      </trkpt>
      <trkpt lat="43.36889" lon="5.99776">
        <ele>777</ele>
        <time>2019-12-17T10:22:55.000Z</time>
      </trkpt>
      <trkpt lat="43.36889" lon="5.99776">
        <ele>777</ele>
        <time>2019-12-17T10:22:56.000Z</time>
      </trkpt>
      <trkpt lat="43.3689" lon="5.99777">
        <ele>777</ele>
        <time>2019-12-17T10:22:57.000Z</time>
      </trkpt>
      <trkpt lat="43.3689" lon="5.99778">
        <ele>777</ele>
        <time>2019-12-17T10:22:58.000Z</time>
      </trkpt>
      <trkpt lat="43.3689" lon="5.99778">
        <ele>777</ele>
        <time>2019-12-17T10:22:59.000Z</time>
      </trkpt>
      <trkpt lat="43.3689" lon="5.99778">
        <ele>777</ele>
        <time>2019-12-17T10:23:00.000Z</time>
      </trkpt>
      <trkpt lat="43.36891" lon="5.99778">
        <ele>777</ele>
        <time>2019-12-17T10:23:01.000Z</time>
      </trkpt>
      <trkpt lat="43.36891" lon="5.99778">
        <ele>777</ele>
        <time>2019-12-17T10:23:02.000Z</time>
      </trkpt>
      <trkpt lat="43.36891" lon="5.99778">
        <ele>776</ele>
        <time>2019-12-17T10:23:03.000Z</time>
      </trkpt>
      <trkpt lat="43.36891" lon="5.99778">
        <ele>776</ele>
        <time>2019-12-17T10:23:04.000Z</time>
      </trkpt>
      <trkpt lat="43.36891" lon="5.99779">
        <ele>776</ele>
        <time>2019-12-17T10:23:05.000Z</time>
      </trkpt>
      <trkpt lat="43.36891" lon="5.99779">
        <ele>776</ele>
        <time>2019-12-17T10:23:06.000Z</time>
      </trkpt>
      <trkpt lat="43.36892" lon="5.9978">
        <ele>776</ele>
        <time>2019-12-17T10:23:07.000Z</time>
      </trkpt>
      <trkpt lat="43.36892" lon="5.9978">
        <ele>776</ele>
        <time>2019-12-17T10:23:08.000Z</time>
      </trkpt>
      <trkpt lat="43.36892" lon="5.99779">
        <ele>776</ele>
        <time>2019-12-17T10:23:09.000Z</time>
      </trkpt>
      <trkpt lat="43.36892" lon="5.99779">
        <ele>776</ele>
        <time>2019-12-17T10:23:10.000Z</time>
      </trkpt>
      <trkpt lat="43.36892" lon="5.99779">
        <ele>776</ele>
        <time>2019-12-17T10:23:11.000Z</time>
      </trkpt>
      <trkpt lat="43.36892" lon="5.9978">
        <ele>776</ele>
        <time>2019-12-17T10:23:12.000Z</time>
      </trkpt>
      <trkpt lat="43.36892" lon="5.9978">
        <ele>775</ele>
        <time>2019-12-17T10:23:13.000Z</time>
      </trkpt>
      <trkpt lat="43.36892" lon="5.9978">
        <ele>775</ele>
        <time>2019-12-17T10:23:14.000Z</time>
      </trkpt>
      <trkpt lat="43.36892" lon="5.9978">
        <ele>775</ele>
        <time>2019-12-17T10:23:15.000Z</time>
      </trkpt>
      <trkpt lat="43.36892" lon="5.99781">
        <ele>775</ele>
        <time>2019-12-17T10:23:16.000Z</time>
      </trkpt>
      <trkpt lat="43.36893" lon="5.99781">
        <ele>775</ele>
        <time>2019-12-17T10:23:17.000Z</time>
      </trkpt>
      <trkpt lat="43.36893" lon="5.99781">
        <ele>775</ele>
        <time>2019-12-17T10:23:18.000Z</time>
      </trkpt>
      <trkpt lat="43.36893" lon="5.99781">
        <ele>775</ele>
        <time>2019-12-17T10:23:19.000Z</time>
      </trkpt>
      <trkpt lat="43.36893" lon="5.99781">
        <ele>775</ele>
        <time>2019-12-17T10:23:20.000Z</time>
      </trkpt>
      <trkpt lat="43.36893" lon="5.99782">
        <ele>775</ele>
        <time>2019-12-17T10:23:21.000Z</time>
      </trkpt>
      <trkpt lat="43.36894" lon="5.99782">
        <ele>775</ele>
        <time>2019-12-17T10:23:22.000Z</time>
      </trkpt>
      <trkpt lat="43.36894" lon="5.99783">
        <ele>774</ele>
        <time>2019-12-17T10:23:23.000Z</time>
      </trkpt>
      <trkpt lat="43.36894" lon="5.99784">
        <ele>774</ele>
        <time>2019-12-17T10:23:24.000Z</time>
      </trkpt>
      <trkpt lat="43.36894" lon="5.99785">
        <ele>774</ele>
        <time>2019-12-17T10:23:25.000Z</time>
      </trkpt>
      <trkpt lat="43.36894" lon="5.99786">
        <ele>774</ele>
        <time>2019-12-17T10:23:26.000Z</time>
      </trkpt>
      <trkpt lat="43.36894" lon="5.99786">
        <ele>774</ele>
        <time>2019-12-17T10:23:27.000Z</time>
      </trkpt>
      <trkpt lat="43.36894" lon="5.99787">
        <ele>774</ele>
        <time>2019-12-17T10:23:28.000Z</time>
      </trkpt>
      <trkpt lat="43.36894" lon="5.99788">
        <ele>774</ele>
        <time>2019-12-17T10:23:29.000Z</time>
      </trkpt>
      <trkpt lat="43.36894" lon="5.99789">
        <ele>774</ele>
        <time>2019-12-17T10:23:30.000Z</time>
      </trkpt>
      <trkpt lat="43.36894" lon="5.99789">
        <ele>774</ele>
        <time>2019-12-17T10:23:31.000Z</time>
      </trkpt>
      <trkpt lat="43.36894" lon="5.9979">
        <ele>774</ele>
        <time>2019-12-17T10:23:32.000Z</time>
      </trkpt>
      <trkpt lat="43.36893" lon="5.99791">
        <ele>773</ele>
        <time>2019-12-17T10:23:33.000Z</time>
      </trkpt>
      <trkpt lat="43.36893" lon="5.99792">
        <ele>773</ele>
        <time>2019-12-17T10:23:34.000Z</time>
      </trkpt>
      <trkpt lat="43.36893" lon="5.99792">
        <ele>773</ele>
        <time>2019-12-17T10:23:35.000Z</time>
      </trkpt>
      <trkpt lat="43.36893" lon="5.99793">
        <ele>773</ele>
        <time>2019-12-17T10:23:36.000Z</time>
      </trkpt>
      <trkpt lat="43.36893" lon="5.99794">
        <ele>773</ele>
        <time>2019-12-17T10:23:37.000Z</time>
      </trkpt>
      <trkpt lat="43.36892" lon="5.99795">
        <ele>773</ele>
        <time>2019-12-17T10:23:38.000Z</time>
      </trkpt>
      <trkpt lat="43.36892" lon="5.99796">
        <ele>773</ele>
        <time>2019-12-17T10:23:39.000Z</time>
      </trkpt>
      <trkpt lat="43.36892" lon="5.99797">
        <ele>772</ele>
        <time>2019-12-17T10:23:40.000Z</time>
      </trkpt>
      <trkpt lat="43.36892" lon="5.99798">
        <ele>772</ele>
        <time>2019-12-17T10:23:41.000Z</time>
      </trkpt>
      <trkpt lat="43.36892" lon="5.99798">
        <ele>772</ele>
        <time>2019-12-17T10:23:42.000Z</time>
      </trkpt>
      <trkpt lat="43.36892" lon="5.99798">
        <ele>772</ele>
        <time>2019-12-17T10:23:43.000Z</time>
      </trkpt>
      <trkpt lat="43.36892" lon="5.99798">
        <ele>772</ele>
        <time>2019-12-17T10:23:44.000Z</time>
      </trkpt>
      <trkpt lat="43.36892" lon="5.99799">
        <ele>772</ele>
        <time>2019-12-17T10:23:45.000Z</time>
      </trkpt>
      <trkpt lat="43.36892" lon="5.998">
        <ele>772</ele>
        <time>2019-12-17T10:23:46.000Z</time>
      </trkpt>
      <trkpt lat="43.36893" lon="5.99801">
        <ele>772</ele>
        <time>2019-12-17T10:23:47.000Z</time>
      </trkpt>
      <trkpt lat="43.36893" lon="5.99802">
        <ele>772</ele>
        <time>2019-12-17T10:23:48.000Z</time>
      </trkpt>
      <trkpt lat="43.36893" lon="5.99803">
        <ele>772</ele>
        <time>2019-12-17T10:23:49.000Z</time>
      </trkpt>
      <trkpt lat="43.36893" lon="5.99804">
        <ele>772</ele>
        <time>2019-12-17T10:23:50.000Z</time>
      </trkpt>
      <trkpt lat="43.36893" lon="5.99805">
        <ele>772</ele>
        <time>2019-12-17T10:23:51.000Z</time>
      </trkpt>
      <trkpt lat="43.36893" lon="5.99806">
        <ele>772</ele>
        <time>2019-12-17T10:23:52.000Z</time>
      </trkpt>
      <trkpt lat="43.36893" lon="5.99807">
        <ele>772</ele>
        <time>2019-12-17T10:23:53.000Z</time>
      </trkpt>
      <trkpt lat="43.36893" lon="5.99808">
        <ele>772</ele>
        <time>2019-12-17T10:23:54.000Z</time>
      </trkpt>
      <trkpt lat="43.36893" lon="5.99809">
        <ele>772</ele>
        <time>2019-12-17T10:23:55.000Z</time>
      </trkpt>
      <trkpt lat="43.36894" lon="5.9981">
        <ele>772</ele>
        <time>2019-12-17T10:23:56.000Z</time>
      </trkpt>
      <trkpt lat="43.36894" lon="5.99811">
        <ele>772</ele>
        <time>2019-12-17T10:23:57.000Z</time>
      </trkpt>
      <trkpt lat="43.36894" lon="5.99812">
        <ele>772</ele>
        <time>2019-12-17T10:23:58.000Z</time>
      </trkpt>
      <trkpt lat="43.36894" lon="5.99812">
        <ele>772</ele>
        <time>2019-12-17T10:23:59.000Z</time>
      </trkpt>
      <trkpt lat="43.36894" lon="5.99813">
        <ele>772</ele>
        <time>2019-12-17T10:24:00.000Z</time>
      </trkpt>
      <trkpt lat="43.36894" lon="5.99814">
        <ele>772</ele>
        <time>2019-12-17T10:24:01.000Z</time>
      </trkpt>
      <trkpt lat="43.36894" lon="5.99815">
        <ele>772</ele>
        <time>2019-12-17T10:24:02.000Z</time>
      </trkpt>
      <trkpt lat="43.36895" lon="5.99816">
        <ele>772</ele>
        <time>2019-12-17T10:24:03.000Z</time>
      </trkpt>
      <trkpt lat="43.36895" lon="5.99817">
        <ele>772</ele>
        <time>2019-12-17T10:24:04.000Z</time>
      </trkpt>
      <trkpt lat="43.36895" lon="5.99818">
        <ele>772</ele>
        <time>2019-12-17T10:24:05.000Z</time>
      </trkpt>
      <trkpt lat="43.36896" lon="5.99819">
        <ele>772</ele>
        <time>2019-12-17T10:24:06.000Z</time>
      </trkpt>
      <trkpt lat="43.36895" lon="5.9982">
        <ele>772</ele>
        <time>2019-12-17T10:24:07.000Z</time>
      </trkpt>
      <trkpt lat="43.36895" lon="5.99821">
        <ele>772</ele>
        <time>2019-12-17T10:24:08.000Z</time>
      </trkpt>
      <trkpt lat="43.36895" lon="5.99823">
        <ele>772</ele>
        <time>2019-12-17T10:24:09.000Z</time>
      </trkpt>
      <trkpt lat="43.36894" lon="5.99824">
        <ele>772</ele>
        <time>2019-12-17T10:24:10.000Z</time>
      </trkpt>
      <trkpt lat="43.36894" lon="5.99825">
        <ele>772</ele>
        <time>2019-12-17T10:24:11.000Z</time>
      </trkpt>
      <trkpt lat="43.36894" lon="5.99826">
        <ele>772</ele>
        <time>2019-12-17T10:24:12.000Z</time>
      </trkpt>
      <trkpt lat="43.36894" lon="5.99827">
        <ele>772</ele>
        <time>2019-12-17T10:24:13.000Z</time>
      </trkpt>
      <trkpt lat="43.36893" lon="5.99829">
        <ele>772</ele>
        <time>2019-12-17T10:24:14.000Z</time>
      </trkpt>
      <trkpt lat="43.36893" lon="5.9983">
        <ele>772</ele>
        <time>2019-12-17T10:24:15.000Z</time>
      </trkpt>
      <trkpt lat="43.36892" lon="5.99831">
        <ele>772</ele>
        <time>2019-12-17T10:24:16.000Z</time>
      </trkpt>
      <trkpt lat="43.36892" lon="5.99833">
        <ele>772</ele>
        <time>2019-12-17T10:24:17.000Z</time>
      </trkpt>
      <trkpt lat="43.36892" lon="5.99834">
        <ele>772</ele>
        <time>2019-12-17T10:24:18.000Z</time>
      </trkpt>
      <trkpt lat="43.36892" lon="5.99835">
        <ele>772</ele>
        <time>2019-12-17T10:24:19.000Z</time>
      </trkpt>
      <trkpt lat="43.36891" lon="5.99836">
        <ele>772</ele>
        <time>2019-12-17T10:24:20.000Z</time>
      </trkpt>
      <trkpt lat="43.3689" lon="5.99838">
        <ele>772</ele>
        <time>2019-12-17T10:24:21.000Z</time>
      </trkpt>
      <trkpt lat="43.36889" lon="5.99839">
        <ele>772</ele>
        <time>2019-12-17T10:24:22.000Z</time>
      </trkpt>
      <trkpt lat="43.36889" lon="5.9984">
        <ele>772</ele>
        <time>2019-12-17T10:24:23.000Z</time>
      </trkpt>
      <trkpt lat="43.36888" lon="5.99841">
        <ele>772</ele>
        <time>2019-12-17T10:24:24.000Z</time>
      </trkpt>
      <trkpt lat="43.36888" lon="5.99842">
        <ele>772</ele>
        <time>2019-12-17T10:24:25.000Z</time>
      </trkpt>
      <trkpt lat="43.36888" lon="5.99844">
        <ele>772</ele>
        <time>2019-12-17T10:24:26.000Z</time>
      </trkpt>
      <trkpt lat="43.36888" lon="5.99845">
        <ele>772</ele>
        <time>2019-12-17T10:24:27.000Z</time>
      </trkpt>
      <trkpt lat="43.36887" lon="5.99846">
        <ele>772</ele>
        <time>2019-12-17T10:24:28.000Z</time>
      </trkpt>
      <trkpt lat="43.36887" lon="5.99846">
        <ele>772</ele>
        <time>2019-12-17T10:24:29.000Z</time>
      </trkpt>
      <trkpt lat="43.36887" lon="5.99847">
        <ele>772</ele>
        <time>2019-12-17T10:24:30.000Z</time>
      </trkpt>
      <trkpt lat="43.36887" lon="5.99848">
        <ele>772</ele>
        <time>2019-12-17T10:24:31.000Z</time>
      </trkpt>
      <trkpt lat="43.36886" lon="5.99848">
        <ele>772</ele>
        <time>2019-12-17T10:24:32.000Z</time>
      </trkpt>
      <trkpt lat="43.36886" lon="5.99848">
        <ele>772</ele>
        <time>2019-12-17T10:24:33.000Z</time>
      </trkpt>
      <trkpt lat="43.36887" lon="5.99848">
        <ele>772</ele>
        <time>2019-12-17T10:24:34.000Z</time>
      </trkpt>
      <trkpt lat="43.36887" lon="5.99849">
        <ele>772</ele>
        <time>2019-12-17T10:24:35.000Z</time>
      </trkpt>
      <trkpt lat="43.36887" lon="5.9985">
        <ele>772</ele>
        <time>2019-12-17T10:24:36.000Z</time>
      </trkpt>
      <trkpt lat="43.36887" lon="5.9985">
        <ele>772</ele>
        <time>2019-12-17T10:24:37.000Z</time>
      </trkpt>
      <trkpt lat="43.36887" lon="5.9985">
        <ele>772</ele>
        <time>2019-12-17T10:24:38.000Z</time>
      </trkpt>
      <trkpt lat="43.36887" lon="5.99851">
        <ele>772</ele>
        <time>2019-12-17T10:24:39.000Z</time>
      </trkpt>
      <trkpt lat="43.36887" lon="5.99851">
        <ele>772</ele>
        <time>2019-12-17T10:24:40.000Z</time>
      </trkpt>
      <trkpt lat="43.36887" lon="5.99852">
        <ele>772</ele>
        <time>2019-12-17T10:24:41.000Z</time>
      </trkpt>
      <trkpt lat="43.36887" lon="5.99852">
        <ele>772</ele>
        <time>2019-12-17T10:24:42.000Z</time>
      </trkpt>
      <trkpt lat="43.36887" lon="5.99853">
        <ele>772</ele>
        <time>2019-12-17T10:24:43.000Z</time>
      </trkpt>
      <trkpt lat="43.36888" lon="5.99854">
        <ele>772</ele>
        <time>2019-12-17T10:24:44.000Z</time>
      </trkpt>
      <trkpt lat="43.36888" lon="5.99855">
        <ele>771</ele>
        <time>2019-12-17T10:24:45.000Z</time>
      </trkpt>
      <trkpt lat="43.36888" lon="5.99857">
        <ele>771</ele>
        <time>2019-12-17T10:24:46.000Z</time>
      </trkpt>
      <trkpt lat="43.36888" lon="5.99857">
        <ele>771</ele>
        <time>2019-12-17T10:24:47.000Z</time>
      </trkpt>
      <trkpt lat="43.36889" lon="5.99858">
        <ele>771</ele>
        <time>2019-12-17T10:24:48.000Z</time>
      </trkpt>
      <trkpt lat="43.36889" lon="5.99859">
        <ele>771</ele>
        <time>2019-12-17T10:24:49.000Z</time>
      </trkpt>
      <trkpt lat="43.36889" lon="5.99859">
        <ele>771</ele>
        <time>2019-12-17T10:24:50.000Z</time>
      </trkpt>
      <trkpt lat="43.36889" lon="5.9986">
        <ele>771</ele>
        <time>2019-12-17T10:24:51.000Z</time>
      </trkpt>
      <trkpt lat="43.36889" lon="5.9986">
        <ele>771</ele>
        <time>2019-12-17T10:24:52.000Z</time>
      </trkpt>
      <trkpt lat="43.36889" lon="5.99861">
        <ele>771</ele>
        <time>2019-12-17T10:24:53.000Z</time>
      </trkpt>
      <trkpt lat="43.36888" lon="5.99862">
        <ele>771</ele>
        <time>2019-12-17T10:24:54.000Z</time>
      </trkpt>
      <trkpt lat="43.36888" lon="5.99862">
        <ele>771</ele>
        <time>2019-12-17T10:24:55.000Z</time>
      </trkpt>
      <trkpt lat="43.36888" lon="5.99862">
        <ele>771</ele>
        <time>2019-12-17T10:24:56.000Z</time>
      </trkpt>
      <trkpt lat="43.36888" lon="5.99863">
        <ele>770</ele>
        <time>2019-12-17T10:24:57.000Z</time>
      </trkpt>
      <trkpt lat="43.36888" lon="5.99863">
        <ele>770</ele>
        <time>2019-12-17T10:24:58.000Z</time>
      </trkpt>
      <trkpt lat="43.36888" lon="5.99864">
        <ele>770</ele>
        <time>2019-12-17T10:24:59.000Z</time>
      </trkpt>
      <trkpt lat="43.36888" lon="5.99864">
        <ele>770</ele>
        <time>2019-12-17T10:25:00.000Z</time>
      </trkpt>
      <trkpt lat="43.36888" lon="5.99864">
        <ele>770</ele>
        <time>2019-12-17T10:25:01.000Z</time>
      </trkpt>
      <trkpt lat="43.36888" lon="5.99864">
        <ele>770</ele>
        <time>2019-12-17T10:25:02.000Z</time>
      </trkpt>
      <trkpt lat="43.36888" lon="5.99865">
        <ele>770</ele>
        <time>2019-12-17T10:25:03.000Z</time>
      </trkpt>
      <trkpt lat="43.36888" lon="5.99865">
        <ele>770</ele>
        <time>2019-12-17T10:25:04.000Z</time>
      </trkpt>
      <trkpt lat="43.36887" lon="5.99866">
        <ele>770</ele>
        <time>2019-12-17T10:25:05.000Z</time>
      </trkpt>
      <trkpt lat="43.36887" lon="5.99867">
        <ele>770</ele>
        <time>2019-12-17T10:25:06.000Z</time>
      </trkpt>
      <trkpt lat="43.36886" lon="5.99868">
        <ele>769</ele>
        <time>2019-12-17T10:25:07.000Z</time>
      </trkpt>
      <trkpt lat="43.36886" lon="5.9987">
        <ele>769</ele>
        <time>2019-12-17T10:25:08.000Z</time>
      </trkpt>
      <trkpt lat="43.36886" lon="5.99871">
        <ele>769</ele>
        <time>2019-12-17T10:25:09.000Z</time>
      </trkpt>
      <trkpt lat="43.36886" lon="5.99873">
        <ele>769</ele>
        <time>2019-12-17T10:25:10.000Z</time>
      </trkpt>
      <trkpt lat="43.36885" lon="5.99874">
        <ele>769</ele>
        <time>2019-12-17T10:25:11.000Z</time>
      </trkpt>
      <trkpt lat="43.36885" lon="5.99876">
        <ele>769</ele>
        <time>2019-12-17T10:25:12.000Z</time>
      </trkpt>
      <trkpt lat="43.36885" lon="5.99877">
        <ele>769</ele>
        <time>2019-12-17T10:25:13.000Z</time>
      </trkpt>
      <trkpt lat="43.36885" lon="5.99878">
        <ele>769</ele>
        <time>2019-12-17T10:25:14.000Z</time>
      </trkpt>
      <trkpt lat="43.36886" lon="5.99879">
        <ele>769</ele>
        <time>2019-12-17T10:25:15.000Z</time>
      </trkpt>
      <trkpt lat="43.36886" lon="5.99881">
        <ele>769</ele>
        <time>2019-12-17T10:25:16.000Z</time>
      </trkpt>
      <trkpt lat="43.36886" lon="5.99882">
        <ele>769</ele>
        <time>2019-12-17T10:25:17.000Z</time>
      </trkpt>
      <trkpt lat="43.36887" lon="5.99883">
        <ele>769</ele>
        <time>2019-12-17T10:25:18.000Z</time>
      </trkpt>
      <trkpt lat="43.36887" lon="5.99884">
        <ele>768</ele>
        <time>2019-12-17T10:25:19.000Z</time>
      </trkpt>
      <trkpt lat="43.36887" lon="5.99886">
        <ele>768</ele>
        <time>2019-12-17T10:25:20.000Z</time>
      </trkpt>
      <trkpt lat="43.36888" lon="5.99887">
        <ele>768</ele>
        <time>2019-12-17T10:25:21.000Z</time>
      </trkpt>
      <trkpt lat="43.36888" lon="5.99887">
        <ele>768</ele>
        <time>2019-12-17T10:25:22.000Z</time>
      </trkpt>
      <trkpt lat="43.36888" lon="5.99888">
        <ele>768</ele>
        <time>2019-12-17T10:25:23.000Z</time>
      </trkpt>
      <trkpt lat="43.36889" lon="5.99889">
        <ele>768</ele>
        <time>2019-12-17T10:25:24.000Z</time>
      </trkpt>
      <trkpt lat="43.36889" lon="5.99889">
        <ele>768</ele>
        <time>2019-12-17T10:25:25.000Z</time>
      </trkpt>
      <trkpt lat="43.3689" lon="5.9989">
        <ele>768</ele>
        <time>2019-12-17T10:25:26.000Z</time>
      </trkpt>
      <trkpt lat="43.3689" lon="5.9989">
        <ele>768</ele>
        <time>2019-12-17T10:25:27.000Z</time>
      </trkpt>
      <trkpt lat="43.36891" lon="5.9989">
        <ele>768</ele>
        <time>2019-12-17T10:25:28.000Z</time>
      </trkpt>
      <trkpt lat="43.36891" lon="5.99891">
        <ele>768</ele>
        <time>2019-12-17T10:25:29.000Z</time>
      </trkpt>
      <trkpt lat="43.36892" lon="5.99891">
        <ele>768</ele>
        <time>2019-12-17T10:25:30.000Z</time>
      </trkpt>
      <trkpt lat="43.36892" lon="5.99892">
        <ele>768</ele>
        <time>2019-12-17T10:25:31.000Z</time>
      </trkpt>
      <trkpt lat="43.36893" lon="5.99893">
        <ele>768</ele>
        <time>2019-12-17T10:25:32.000Z</time>
      </trkpt>
      <trkpt lat="43.36893" lon="5.99893">
        <ele>768</ele>
        <time>2019-12-17T10:25:33.000Z</time>
      </trkpt>
      <trkpt lat="43.36894" lon="5.99894">
        <ele>768</ele>
        <time>2019-12-17T10:25:34.000Z</time>
      </trkpt>
      <trkpt lat="43.36894" lon="5.99894">
        <ele>768</ele>
        <time>2019-12-17T10:25:35.000Z</time>
      </trkpt>
      <trkpt lat="43.36895" lon="5.99894">
        <ele>768</ele>
        <time>2019-12-17T10:25:36.000Z</time>
      </trkpt>
      <trkpt lat="43.36896" lon="5.99894">
        <ele>768</ele>
        <time>2019-12-17T10:25:37.000Z</time>
      </trkpt>
      <trkpt lat="43.36897" lon="5.99894">
        <ele>768</ele>
        <time>2019-12-17T10:25:38.000Z</time>
      </trkpt>
      <trkpt lat="43.36897" lon="5.99895">
        <ele>768</ele>
        <time>2019-12-17T10:25:39.000Z</time>
      </trkpt>
      <trkpt lat="43.36898" lon="5.99896">
        <ele>768</ele>
        <time>2019-12-17T10:25:40.000Z</time>
      </trkpt>
      <trkpt lat="43.36898" lon="5.99897">
        <ele>768</ele>
        <time>2019-12-17T10:25:41.000Z</time>
      </trkpt>
      <trkpt lat="43.36899" lon="5.99898">
        <ele>767</ele>
        <time>2019-12-17T10:25:42.000Z</time>
      </trkpt>
      <trkpt lat="43.36899" lon="5.99899">
        <ele>767</ele>
        <time>2019-12-17T10:25:43.000Z</time>
      </trkpt>
      <trkpt lat="43.36899" lon="5.99901">
        <ele>767</ele>
        <time>2019-12-17T10:25:44.000Z</time>
      </trkpt>
      <trkpt lat="43.36899" lon="5.99902">
        <ele>767</ele>
        <time>2019-12-17T10:25:45.000Z</time>
      </trkpt>
      <trkpt lat="43.369" lon="5.99903">
        <ele>767</ele>
        <time>2019-12-17T10:25:46.000Z</time>
      </trkpt>
      <trkpt lat="43.36901" lon="5.99904">
        <ele>767</ele>
        <time>2019-12-17T10:25:47.000Z</time>
      </trkpt>
      <trkpt lat="43.36901" lon="5.99904">
        <ele>767</ele>
        <time>2019-12-17T10:25:48.000Z</time>
      </trkpt>
      <trkpt lat="43.36902" lon="5.99905">
        <ele>767</ele>
        <time>2019-12-17T10:25:49.000Z</time>
      </trkpt>
      <trkpt lat="43.36902" lon="5.99905">
        <ele>767</ele>
        <time>2019-12-17T10:25:50.000Z</time>
      </trkpt>
      <trkpt lat="43.36902" lon="5.99905">
        <ele>767</ele>
        <time>2019-12-17T10:25:51.000Z</time>
      </trkpt>
      <trkpt lat="43.36902" lon="5.99906">
        <ele>767</ele>
        <time>2019-12-17T10:25:52.000Z</time>
      </trkpt>
      <trkpt lat="43.36902" lon="5.99906">
        <ele>767</ele>
        <time>2019-12-17T10:25:53.000Z</time>
      </trkpt>
      <trkpt lat="43.36902" lon="5.99906">
        <ele>767</ele>
        <time>2019-12-17T10:25:54.000Z</time>
      </trkpt>
      <trkpt lat="43.36902" lon="5.99906">
        <ele>767</ele>
        <time>2019-12-17T10:25:55.000Z</time>
      </trkpt>
      <trkpt lat="43.36902" lon="5.99906">
        <ele>767</ele>
        <time>2019-12-17T10:25:56.000Z</time>
      </trkpt>
      <trkpt lat="43.36902" lon="5.99906">
        <ele>767</ele>
        <time>2019-12-17T10:25:57.000Z</time>
      </trkpt>
      <trkpt lat="43.36902" lon="5.99906">
        <ele>766</ele>
        <time>2019-12-17T10:25:58.000Z</time>
      </trkpt>
      <trkpt lat="43.36903" lon="5.99906">
        <ele>766</ele>
        <time>2019-12-17T10:25:59.000Z</time>
      </trkpt>
      <trkpt lat="43.36903" lon="5.99906">
        <ele>766</ele>
        <time>2019-12-17T10:26:00.000Z</time>
      </trkpt>
      <trkpt lat="43.36903" lon="5.99906">
        <ele>766</ele>
        <time>2019-12-17T10:26:01.000Z</time>
      </trkpt>
      <trkpt lat="43.36903" lon="5.99906">
        <ele>766</ele>
        <time>2019-12-17T10:26:02.000Z</time>
      </trkpt>
      <trkpt lat="43.36903" lon="5.99906">
        <ele>766</ele>
        <time>2019-12-17T10:26:03.000Z</time>
      </trkpt>
      <trkpt lat="43.36903" lon="5.99906">
        <ele>766</ele>
        <time>2019-12-17T10:26:04.000Z</time>
      </trkpt>
      <trkpt lat="43.36903" lon="5.99906">
        <ele>766</ele>
        <time>2019-12-17T10:26:05.000Z</time>
      </trkpt>
      <trkpt lat="43.36903" lon="5.99906">
        <ele>766</ele>
        <time>2019-12-17T10:26:06.000Z</time>
      </trkpt>
      <trkpt lat="43.36903" lon="5.99906">
        <ele>766</ele>
        <time>2019-12-17T10:26:07.000Z</time>
      </trkpt>
      <trkpt lat="43.36903" lon="5.99906">
        <ele>766</ele>
        <time>2019-12-17T10:26:08.000Z</time>
      </trkpt>
      <trkpt lat="43.36903" lon="5.99906">
        <ele>766</ele>
        <time>2019-12-17T10:26:09.000Z</time>
      </trkpt>
      <trkpt lat="43.36904" lon="5.99906">
        <ele>766</ele>
        <time>2019-12-17T10:26:10.000Z</time>
      </trkpt>
      <trkpt lat="43.36904" lon="5.99906">
        <ele>766</ele>
        <time>2019-12-17T10:26:11.000Z</time>
      </trkpt>
      <trkpt lat="43.36904" lon="5.99906">
        <ele>766</ele>
        <time>2019-12-17T10:26:12.000Z</time>
      </trkpt>
      <trkpt lat="43.36904" lon="5.99906">
        <ele>766</ele>
        <time>2019-12-17T10:26:13.000Z</time>
      </trkpt>
      <trkpt lat="43.36904" lon="5.99906">
        <ele>766</ele>
        <time>2019-12-17T10:26:14.000Z</time>
      </trkpt>
      <trkpt lat="43.36904" lon="5.99906">
        <ele>766</ele>
        <time>2019-12-17T10:26:15.000Z</time>
      </trkpt>
      <trkpt lat="43.36904" lon="5.99906">
        <ele>766</ele>
        <time>2019-12-17T10:26:16.000Z</time>
      </trkpt>
      <trkpt lat="43.36904" lon="5.99906">
        <ele>766</ele>
        <time>2019-12-17T10:26:17.000Z</time>
      </trkpt>
      <trkpt lat="43.36904" lon="5.99906">
        <ele>766</ele>
        <time>2019-12-17T10:26:18.000Z</time>
      </trkpt>
      <trkpt lat="43.36904" lon="5.99906">
        <ele>766</ele>
        <time>2019-12-17T10:26:19.000Z</time>
      </trkpt>
      <trkpt lat="43.36904" lon="5.99906">
        <ele>766</ele>
        <time>2019-12-17T10:26:20.000Z</time>
      </trkpt>
      <trkpt lat="43.36904" lon="5.99906">
        <ele>765</ele>
        <time>2019-12-17T10:26:21.000Z</time>
      </trkpt>
      <trkpt lat="43.36904" lon="5.99906">
        <ele>765</ele>
        <time>2019-12-17T10:26:22.000Z</time>
      </trkpt>
      <trkpt lat="43.36904" lon="5.99906">
        <ele>765</ele>
        <time>2019-12-17T10:26:23.000Z</time>
      </trkpt>
      <trkpt lat="43.36904" lon="5.99906">
        <ele>765</ele>
        <time>2019-12-17T10:26:24.000Z</time>
      </trkpt>
      <trkpt lat="43.36904" lon="5.99906">
        <ele>765</ele>
        <time>2019-12-17T10:26:25.000Z</time>
      </trkpt>
      <trkpt lat="43.36904" lon="5.99906">
        <ele>765</ele>
        <time>2019-12-17T10:26:26.000Z</time>
      </trkpt>
      <trkpt lat="43.36904" lon="5.99906">
        <ele>765</ele>
        <time>2019-12-17T10:26:27.000Z</time>
      </trkpt>
      <trkpt lat="43.36904" lon="5.99906">
        <ele>765</ele>
        <time>2019-12-17T10:26:28.000Z</time>
      </trkpt>
      <trkpt lat="43.36904" lon="5.99906">
        <ele>765</ele>
        <time>2019-12-17T10:26:29.000Z</time>
      </trkpt>
      <trkpt lat="43.36904" lon="5.99906">
        <ele>765</ele>
        <time>2019-12-17T10:26:30.000Z</time>
      </trkpt>
      <trkpt lat="43.36904" lon="5.99906">
        <ele>765</ele>
        <time>2019-12-17T10:26:31.000Z</time>
      </trkpt>
      <trkpt lat="43.36905" lon="5.99906">
        <ele>765</ele>
        <time>2019-12-17T10:26:32.000Z</time>
      </trkpt>
      <trkpt lat="43.36905" lon="5.99906">
        <ele>765</ele>
        <time>2019-12-17T10:26:33.000Z</time>
      </trkpt>
      <trkpt lat="43.36905" lon="5.99906">
        <ele>765</ele>
        <time>2019-12-17T10:26:34.000Z</time>
      </trkpt>
      <trkpt lat="43.36905" lon="5.99906">
        <ele>765</ele>
        <time>2019-12-17T10:26:35.000Z</time>
      </trkpt>
      <trkpt lat="43.36905" lon="5.99906">
        <ele>765</ele>
        <time>2019-12-17T10:26:36.000Z</time>
      </trkpt>
      <trkpt lat="43.36905" lon="5.99906">
        <ele>765</ele>
        <time>2019-12-17T10:26:37.000Z</time>
      </trkpt>
      <trkpt lat="43.36905" lon="5.99906">
        <ele>765</ele>
        <time>2019-12-17T10:26:38.000Z</time>
      </trkpt>
      <trkpt lat="43.36905" lon="5.99906">
        <ele>765</ele>
        <time>2019-12-17T10:26:39.000Z</time>
      </trkpt>
      <trkpt lat="43.36905" lon="5.99906">
        <ele>765</ele>
        <time>2019-12-17T10:26:40.000Z</time>
      </trkpt>
      <trkpt lat="43.36905" lon="5.99906">
        <ele>765</ele>
        <time>2019-12-17T10:26:41.000Z</time>
      </trkpt>
      <trkpt lat="43.36905" lon="5.99906">
        <ele>765</ele>
        <time>2019-12-17T10:26:42.000Z</time>
      </trkpt>
      <trkpt lat="43.36905" lon="5.99906">
        <ele>765</ele>
        <time>2019-12-17T10:26:43.000Z</time>
      </trkpt>
      <trkpt lat="43.36905" lon="5.99906">
        <ele>765</ele>
        <time>2019-12-17T10:26:44.000Z</time>
      </trkpt>
      <trkpt lat="43.36905" lon="5.99906">
        <ele>764</ele>
        <time>2019-12-17T10:26:45.000Z</time>
      </trkpt>
      <trkpt lat="43.36905" lon="5.99907">
        <ele>764</ele>
        <time>2019-12-17T10:26:46.000Z</time>
      </trkpt>
      <trkpt lat="43.36905" lon="5.99908">
        <ele>764</ele>
        <time>2019-12-17T10:26:47.000Z</time>
      </trkpt>
      <trkpt lat="43.36905" lon="5.99908">
        <ele>764</ele>
        <time>2019-12-17T10:26:48.000Z</time>
      </trkpt>
      <trkpt lat="43.36905" lon="5.99909">
        <ele>764</ele>
        <time>2019-12-17T10:26:49.000Z</time>
      </trkpt>
      <trkpt lat="43.36906" lon="5.9991">
        <ele>764</ele>
        <time>2019-12-17T10:26:50.000Z</time>
      </trkpt>
      <trkpt lat="43.36907" lon="5.99911">
        <ele>764</ele>
        <time>2019-12-17T10:26:51.000Z</time>
      </trkpt>
      <trkpt lat="43.36908" lon="5.99912">
        <ele>764</ele>
        <time>2019-12-17T10:26:52.000Z</time>
      </trkpt>
      <trkpt lat="43.36909" lon="5.99913">
        <ele>764</ele>
        <time>2019-12-17T10:26:53.000Z</time>
      </trkpt>
      <trkpt lat="43.36909" lon="5.99914">
        <ele>764</ele>
        <time>2019-12-17T10:26:54.000Z</time>
      </trkpt>
      <trkpt lat="43.3691" lon="5.99915">
        <ele>764</ele>
        <time>2019-12-17T10:26:55.000Z</time>
      </trkpt>
      <trkpt lat="43.3691" lon="5.99915">
        <ele>764</ele>
        <time>2019-12-17T10:26:56.000Z</time>
      </trkpt>
      <trkpt lat="43.36911" lon="5.99916">
        <ele>764</ele>
        <time>2019-12-17T10:26:57.000Z</time>
      </trkpt>
      <trkpt lat="43.36912" lon="5.99917">
        <ele>764</ele>
        <time>2019-12-17T10:26:58.000Z</time>
      </trkpt>
      <trkpt lat="43.36913" lon="5.99918">
        <ele>764</ele>
        <time>2019-12-17T10:26:59.000Z</time>
      </trkpt>
      <trkpt lat="43.36914" lon="5.99918">
        <ele>764</ele>
        <time>2019-12-17T10:27:00.000Z</time>
      </trkpt>
      <trkpt lat="43.36915" lon="5.99919">
        <ele>764</ele>
        <time>2019-12-17T10:27:01.000Z</time>
      </trkpt>
      <trkpt lat="43.36916" lon="5.99919">
        <ele>764</ele>
        <time>2019-12-17T10:27:02.000Z</time>
      </trkpt>
      <trkpt lat="43.36917" lon="5.9992">
        <ele>764</ele>
        <time>2019-12-17T10:27:03.000Z</time>
      </trkpt>
      <trkpt lat="43.36917" lon="5.99921">
        <ele>763</ele>
        <time>2019-12-17T10:27:04.000Z</time>
      </trkpt>
      <trkpt lat="43.36918" lon="5.99921">
        <ele>763</ele>
        <time>2019-12-17T10:27:05.000Z</time>
      </trkpt>
      <trkpt lat="43.36918" lon="5.99922">
        <ele>763</ele>
        <time>2019-12-17T10:27:06.000Z</time>
      </trkpt>
      <trkpt lat="43.36918" lon="5.99922">
        <ele>763</ele>
        <time>2019-12-17T10:27:07.000Z</time>
      </trkpt>
      <trkpt lat="43.36918" lon="5.99923">
        <ele>763</ele>
        <time>2019-12-17T10:27:08.000Z</time>
      </trkpt>
      <trkpt lat="43.36919" lon="5.99924">
        <ele>763</ele>
        <time>2019-12-17T10:27:09.000Z</time>
      </trkpt>
      <trkpt lat="43.36919" lon="5.99924">
        <ele>763</ele>
        <time>2019-12-17T10:27:10.000Z</time>
      </trkpt>
      <trkpt lat="43.3692" lon="5.99924">
        <ele>763</ele>
        <time>2019-12-17T10:27:11.000Z</time>
      </trkpt>
      <trkpt lat="43.3692" lon="5.99925">
        <ele>763</ele>
        <time>2019-12-17T10:27:12.000Z</time>
      </trkpt>
      <trkpt lat="43.3692" lon="5.99926">
        <ele>763</ele>
        <time>2019-12-17T10:27:13.000Z</time>
      </trkpt>
      <trkpt lat="43.36921" lon="5.99927">
        <ele>763</ele>
        <time>2019-12-17T10:27:14.000Z</time>
      </trkpt>
      <trkpt lat="43.36921" lon="5.99928">
        <ele>763</ele>
        <time>2019-12-17T10:27:15.000Z</time>
      </trkpt>
      <trkpt lat="43.36922" lon="5.99929">
        <ele>763</ele>
        <time>2019-12-17T10:27:16.000Z</time>
      </trkpt>
      <trkpt lat="43.36922" lon="5.9993">
        <ele>763</ele>
        <time>2019-12-17T10:27:17.000Z</time>
      </trkpt>
      <trkpt lat="43.36923" lon="5.99931">
        <ele>763</ele>
        <time>2019-12-17T10:27:18.000Z</time>
      </trkpt>
      <trkpt lat="43.36924" lon="5.99933">
        <ele>763</ele>
        <time>2019-12-17T10:27:19.000Z</time>
      </trkpt>
      <trkpt lat="43.36924" lon="5.99935">
        <ele>763</ele>
        <time>2019-12-17T10:27:20.000Z</time>
      </trkpt>
      <trkpt lat="43.36925" lon="5.99936">
        <ele>763</ele>
        <time>2019-12-17T10:27:21.000Z</time>
      </trkpt>
      <trkpt lat="43.36925" lon="5.99938">
        <ele>763</ele>
        <time>2019-12-17T10:27:22.000Z</time>
      </trkpt>
      <trkpt lat="43.36925" lon="5.99939">
        <ele>762</ele>
        <time>2019-12-17T10:27:23.000Z</time>
      </trkpt>
      <trkpt lat="43.36925" lon="5.9994">
        <ele>762</ele>
        <time>2019-12-17T10:27:24.000Z</time>
      </trkpt>
      <trkpt lat="43.36926" lon="5.99942">
        <ele>762</ele>
        <time>2019-12-17T10:27:25.000Z</time>
      </trkpt>
      <trkpt lat="43.36926" lon="5.99943">
        <ele>762</ele>
        <time>2019-12-17T10:27:26.000Z</time>
      </trkpt>
      <trkpt lat="43.36926" lon="5.99944">
        <ele>762</ele>
        <time>2019-12-17T10:27:27.000Z</time>
      </trkpt>
      <trkpt lat="43.36926" lon="5.99945">
        <ele>762</ele>
        <time>2019-12-17T10:27:28.000Z</time>
      </trkpt>
      <trkpt lat="43.36926" lon="5.99946">
        <ele>762</ele>
        <time>2019-12-17T10:27:29.000Z</time>
      </trkpt>
      <trkpt lat="43.36926" lon="5.99948">
        <ele>762</ele>
        <time>2019-12-17T10:27:30.000Z</time>
      </trkpt>
      <trkpt lat="43.36927" lon="5.99949">
        <ele>762</ele>
        <time>2019-12-17T10:27:31.000Z</time>
      </trkpt>
      <trkpt lat="43.36927" lon="5.99951">
        <ele>762</ele>
        <time>2019-12-17T10:27:32.000Z</time>
      </trkpt>
      <trkpt lat="43.36928" lon="5.99952">
        <ele>762</ele>
        <time>2019-12-17T10:27:33.000Z</time>
      </trkpt>
      <trkpt lat="43.36929" lon="5.99953">
        <ele>762</ele>
        <time>2019-12-17T10:27:34.000Z</time>
      </trkpt>
      <trkpt lat="43.36929" lon="5.99955">
        <ele>762</ele>
        <time>2019-12-17T10:27:35.000Z</time>
      </trkpt>
      <trkpt lat="43.3693" lon="5.99955">
        <ele>762</ele>
        <time>2019-12-17T10:27:36.000Z</time>
      </trkpt>
      <trkpt lat="43.36931" lon="5.99956">
        <ele>762</ele>
        <time>2019-12-17T10:27:37.000Z</time>
      </trkpt>
      <trkpt lat="43.36932" lon="5.99957">
        <ele>762</ele>
        <time>2019-12-17T10:27:38.000Z</time>
      </trkpt>
      <trkpt lat="43.36932" lon="5.99958">
        <ele>761</ele>
        <time>2019-12-17T10:27:39.000Z</time>
      </trkpt>
      <trkpt lat="43.36933" lon="5.99959">
        <ele>761</ele>
        <time>2019-12-17T10:27:40.000Z</time>
      </trkpt>
      <trkpt lat="43.36934" lon="5.9996">
        <ele>761</ele>
        <time>2019-12-17T10:27:41.000Z</time>
      </trkpt>
      <trkpt lat="43.36935" lon="5.99961">
        <ele>761</ele>
        <time>2019-12-17T10:27:42.000Z</time>
      </trkpt>
      <trkpt lat="43.36935" lon="5.99962">
        <ele>761</ele>
        <time>2019-12-17T10:27:43.000Z</time>
      </trkpt>
      <trkpt lat="43.36936" lon="5.99963">
        <ele>761</ele>
        <time>2019-12-17T10:27:44.000Z</time>
      </trkpt>
      <trkpt lat="43.36936" lon="5.99964">
        <ele>761</ele>
        <time>2019-12-17T10:27:45.000Z</time>
      </trkpt>
      <trkpt lat="43.36936" lon="5.99965">
        <ele>761</ele>
        <time>2019-12-17T10:27:46.000Z</time>
      </trkpt>
      <trkpt lat="43.36936" lon="5.99966">
        <ele>760</ele>
        <time>2019-12-17T10:27:47.000Z</time>
      </trkpt>
      <trkpt lat="43.36936" lon="5.99968">
        <ele>760</ele>
        <time>2019-12-17T10:27:48.000Z</time>
      </trkpt>
      <trkpt lat="43.36936" lon="5.99968">
        <ele>760</ele>
        <time>2019-12-17T10:27:49.000Z</time>
      </trkpt>
      <trkpt lat="43.36936" lon="5.99969">
        <ele>760</ele>
        <time>2019-12-17T10:27:50.000Z</time>
      </trkpt>
      <trkpt lat="43.36937" lon="5.99971">
        <ele>760</ele>
        <time>2019-12-17T10:27:51.000Z</time>
      </trkpt>
      <trkpt lat="43.36937" lon="5.99972">
        <ele>760</ele>
        <time>2019-12-17T10:27:52.000Z</time>
      </trkpt>
      <trkpt lat="43.36938" lon="5.99972">
        <ele>760</ele>
        <time>2019-12-17T10:27:53.000Z</time>
      </trkpt>
      <trkpt lat="43.36938" lon="5.99973">
        <ele>760</ele>
        <time>2019-12-17T10:27:54.000Z</time>
      </trkpt>
      <trkpt lat="43.36939" lon="5.99974">
        <ele>760</ele>
        <time>2019-12-17T10:27:55.000Z</time>
      </trkpt>
      <trkpt lat="43.36939" lon="5.99974">
        <ele>760</ele>
        <time>2019-12-17T10:27:56.000Z</time>
      </trkpt>
      <trkpt lat="43.3694" lon="5.99975">
        <ele>760</ele>
        <time>2019-12-17T10:27:57.000Z</time>
      </trkpt>
      <trkpt lat="43.3694" lon="5.99976">
        <ele>760</ele>
        <time>2019-12-17T10:27:58.000Z</time>
      </trkpt>
      <trkpt lat="43.36941" lon="5.99976">
        <ele>760</ele>
        <time>2019-12-17T10:27:59.000Z</time>
      </trkpt>
      <trkpt lat="43.36941" lon="5.99977">
        <ele>760</ele>
        <time>2019-12-17T10:28:00.000Z</time>
      </trkpt>
      <trkpt lat="43.36942" lon="5.99977">
        <ele>760</ele>
        <time>2019-12-17T10:28:01.000Z</time>
      </trkpt>
      <trkpt lat="43.36942" lon="5.99978">
        <ele>760</ele>
        <time>2019-12-17T10:28:02.000Z</time>
      </trkpt>
      <trkpt lat="43.36943" lon="5.99978">
        <ele>760</ele>
        <time>2019-12-17T10:28:03.000Z</time>
      </trkpt>
      <trkpt lat="43.36943" lon="5.99979">
        <ele>760</ele>
        <time>2019-12-17T10:28:04.000Z</time>
      </trkpt>
      <trkpt lat="43.36943" lon="5.99979">
        <ele>760</ele>
        <time>2019-12-17T10:28:05.000Z</time>
      </trkpt>
      <trkpt lat="43.36943" lon="5.9998">
        <ele>760</ele>
        <time>2019-12-17T10:28:06.000Z</time>
      </trkpt>
      <trkpt lat="43.36943" lon="5.99981">
        <ele>760</ele>
        <time>2019-12-17T10:28:07.000Z</time>
      </trkpt>
      <trkpt lat="43.36943" lon="5.99981">
        <ele>760</ele>
        <time>2019-12-17T10:28:08.000Z</time>
      </trkpt>
      <trkpt lat="43.36942" lon="5.99982">
        <ele>760</ele>
        <time>2019-12-17T10:28:09.000Z</time>
      </trkpt>
      <trkpt lat="43.36942" lon="5.99982">
        <ele>760</ele>
        <time>2019-12-17T10:28:10.000Z</time>
      </trkpt>
      <trkpt lat="43.36941" lon="5.99983">
        <ele>760</ele>
        <time>2019-12-17T10:28:11.000Z</time>
      </trkpt>
      <trkpt lat="43.36941" lon="5.99983">
        <ele>760</ele>
        <time>2019-12-17T10:28:12.000Z</time>
      </trkpt>
      <trkpt lat="43.3694" lon="5.99984">
        <ele>760</ele>
        <time>2019-12-17T10:28:13.000Z</time>
      </trkpt>
      <trkpt lat="43.3694" lon="5.99984">
        <ele>760</ele>
        <time>2019-12-17T10:28:14.000Z</time>
      </trkpt>
      <trkpt lat="43.3694" lon="5.99985">
        <ele>760</ele>
        <time>2019-12-17T10:28:15.000Z</time>
      </trkpt>
      <trkpt lat="43.3694" lon="5.99985">
        <ele>760</ele>
        <time>2019-12-17T10:28:16.000Z</time>
      </trkpt>
      <trkpt lat="43.36939" lon="5.99985">
        <ele>760</ele>
        <time>2019-12-17T10:28:17.000Z</time>
      </trkpt>
      <trkpt lat="43.36939" lon="5.99986">
        <ele>760</ele>
        <time>2019-12-17T10:28:18.000Z</time>
      </trkpt>
      <trkpt lat="43.36939" lon="5.99986">
        <ele>760</ele>
        <time>2019-12-17T10:28:19.000Z</time>
      </trkpt>
      <trkpt lat="43.36938" lon="5.99987">
        <ele>760</ele>
        <time>2019-12-17T10:28:20.000Z</time>
      </trkpt>
      <trkpt lat="43.36938" lon="5.99988">
        <ele>760</ele>
        <time>2019-12-17T10:28:21.000Z</time>
      </trkpt>
      <trkpt lat="43.36938" lon="5.99989">
        <ele>760</ele>
        <time>2019-12-17T10:28:22.000Z</time>
      </trkpt>
      <trkpt lat="43.36937" lon="5.99989">
        <ele>760</ele>
        <time>2019-12-17T10:28:23.000Z</time>
      </trkpt>
      <trkpt lat="43.36937" lon="5.9999">
        <ele>760</ele>
        <time>2019-12-17T10:28:24.000Z</time>
      </trkpt>
      <trkpt lat="43.36937" lon="5.99991">
        <ele>760</ele>
        <time>2019-12-17T10:28:25.000Z</time>
      </trkpt>
      <trkpt lat="43.36936" lon="5.99991">
        <ele>760</ele>
        <time>2019-12-17T10:28:26.000Z</time>
      </trkpt>
      <trkpt lat="43.36936" lon="5.99992">
        <ele>760</ele>
        <time>2019-12-17T10:28:27.000Z</time>
      </trkpt>
      <trkpt lat="43.36937" lon="5.99994">
        <ele>760</ele>
        <time>2019-12-17T10:28:28.000Z</time>
      </trkpt>
      <trkpt lat="43.36937" lon="5.99995">
        <ele>760</ele>
        <time>2019-12-17T10:28:29.000Z</time>
      </trkpt>
      <trkpt lat="43.36938" lon="5.99996">
        <ele>760</ele>
        <time>2019-12-17T10:28:30.000Z</time>
      </trkpt>
      <trkpt lat="43.36938" lon="5.99997">
        <ele>760</ele>
        <time>2019-12-17T10:28:31.000Z</time>
      </trkpt>
      <trkpt lat="43.36938" lon="5.99997">
        <ele>760</ele>
        <time>2019-12-17T10:28:32.000Z</time>
      </trkpt>
      <trkpt lat="43.36939" lon="5.99998">
        <ele>760</ele>
        <time>2019-12-17T10:28:33.000Z</time>
      </trkpt>
      <trkpt lat="43.36939" lon="5.99998">
        <ele>760</ele>
        <time>2019-12-17T10:28:34.000Z</time>
      </trkpt>
      <trkpt lat="43.36939" lon="5.99999">
        <ele>760</ele>
        <time>2019-12-17T10:28:35.000Z</time>
      </trkpt>
      <trkpt lat="43.36939" lon="5.99999">
        <ele>760</ele>
        <time>2019-12-17T10:28:36.000Z</time>
      </trkpt>
      <trkpt lat="43.36939" lon="5.99999">
        <ele>760</ele>
        <time>2019-12-17T10:28:37.000Z</time>
      </trkpt>
      <trkpt lat="43.36939" lon="6">
        <ele>760</ele>
        <time>2019-12-17T10:28:38.000Z</time>
      </trkpt>
      <trkpt lat="43.36939" lon="6">
        <ele>759</ele>
        <time>2019-12-17T10:28:39.000Z</time>
      </trkpt>
      <trkpt lat="43.36939" lon="6">
        <ele>759</ele>
        <time>2019-12-17T10:28:40.000Z</time>
      </trkpt>
      <trkpt lat="43.36939" lon="6">
        <ele>759</ele>
        <time>2019-12-17T10:28:41.000Z</time>
      </trkpt>
      <trkpt lat="43.36939" lon="6">
        <ele>759</ele>
        <time>2019-12-17T10:28:42.000Z</time>
      </trkpt>
      <trkpt lat="43.36939" lon="6.00001">
        <ele>759</ele>
        <time>2019-12-17T10:28:43.000Z</time>
      </trkpt>
      <trkpt lat="43.36939" lon="6.00001">
        <ele>759</ele>
        <time>2019-12-17T10:28:44.000Z</time>
      </trkpt>
      <trkpt lat="43.36939" lon="6.00001">
        <ele>759</ele>
        <time>2019-12-17T10:28:45.000Z</time>
      </trkpt>
      <trkpt lat="43.36939" lon="6.00001">
        <ele>759</ele>
        <time>2019-12-17T10:28:46.000Z</time>
      </trkpt>
      <trkpt lat="43.36939" lon="6.00001">
        <ele>759</ele>
        <time>2019-12-17T10:28:47.000Z</time>
      </trkpt>
      <trkpt lat="43.36939" lon="6.00001">
        <ele>759</ele>
        <time>2019-12-17T10:28:48.000Z</time>
      </trkpt>
      <trkpt lat="43.36939" lon="6.00001">
        <ele>759</ele>
        <time>2019-12-17T10:28:49.000Z</time>
      </trkpt>
      <trkpt lat="43.36939" lon="6.00001">
        <ele>759</ele>
        <time>2019-12-17T10:28:50.000Z</time>
      </trkpt>
      <trkpt lat="43.36938" lon="6.00001">
        <ele>759</ele>
        <time>2019-12-17T10:28:51.000Z</time>
      </trkpt>
      <trkpt lat="43.36938" lon="6.00001">
        <ele>759</ele>
        <time>2019-12-17T10:28:52.000Z</time>
      </trkpt>
      <trkpt lat="43.36938" lon="6.00002">
        <ele>759</ele>
        <time>2019-12-17T10:28:53.000Z</time>
      </trkpt>
      <trkpt lat="43.36938" lon="6.00002">
        <ele>759</ele>
        <time>2019-12-17T10:28:54.000Z</time>
      </trkpt>
      <trkpt lat="43.36938" lon="6.00002">
        <ele>759</ele>
        <time>2019-12-17T10:28:55.000Z</time>
      </trkpt>
      <trkpt lat="43.36938" lon="6.00002">
        <ele>759</ele>
        <time>2019-12-17T10:28:56.000Z</time>
      </trkpt>
      <trkpt lat="43.36938" lon="6.00002">
        <ele>759</ele>
        <time>2019-12-17T10:28:57.000Z</time>
      </trkpt>
      <trkpt lat="43.36938" lon="6.00002">
        <ele>759</ele>
        <time>2019-12-17T10:28:58.000Z</time>
      </trkpt>
      <trkpt lat="43.36938" lon="6.00003">
        <ele>759</ele>
        <time>2019-12-17T10:28:59.000Z</time>
      </trkpt>
      <trkpt lat="43.36938" lon="6.00003">
        <ele>759</ele>
        <time>2019-12-17T10:29:00.000Z</time>
      </trkpt>
      <trkpt lat="43.36938" lon="6.00003">
        <ele>759</ele>
        <time>2019-12-17T10:29:01.000Z</time>
      </trkpt>
      <trkpt lat="43.36938" lon="6.00004">
        <ele>759</ele>
        <time>2019-12-17T10:29:02.000Z</time>
      </trkpt>
      <trkpt lat="43.36937" lon="6.00004">
        <ele>759</ele>
        <time>2019-12-17T10:29:03.000Z</time>
      </trkpt>
      <trkpt lat="43.36937" lon="6.00004">
        <ele>759</ele>
        <time>2019-12-17T10:29:04.000Z</time>
      </trkpt>
      <trkpt lat="43.36937" lon="6.00004">
        <ele>759</ele>
        <time>2019-12-17T10:29:05.000Z</time>
      </trkpt>
      <trkpt lat="43.36936" lon="6.00004">
        <ele>759</ele>
        <time>2019-12-17T10:29:06.000Z</time>
      </trkpt>
      <trkpt lat="43.36936" lon="6.00004">
        <ele>759</ele>
        <time>2019-12-17T10:29:07.000Z</time>
      </trkpt>
      <trkpt lat="43.36936" lon="6.00004">
        <ele>759</ele>
        <time>2019-12-17T10:29:08.000Z</time>
      </trkpt>
      <trkpt lat="43.36936" lon="6.00005">
        <ele>759</ele>
        <time>2019-12-17T10:29:09.000Z</time>
      </trkpt>
      <trkpt lat="43.36936" lon="6.00005">
        <ele>760</ele>
        <time>2019-12-17T10:29:10.000Z</time>
      </trkpt>
      <trkpt lat="43.36936" lon="6.00005">
        <ele>760</ele>
        <time>2019-12-17T10:29:11.000Z</time>
      </trkpt>
      <trkpt lat="43.36936" lon="6.00005">
        <ele>760</ele>
        <time>2019-12-17T10:29:12.000Z</time>
      </trkpt>
      <trkpt lat="43.36936" lon="6.00005">
        <ele>760</ele>
        <time>2019-12-17T10:29:13.000Z</time>
      </trkpt>
      <trkpt lat="43.36936" lon="6.00006">
        <ele>760</ele>
        <time>2019-12-17T10:29:14.000Z</time>
      </trkpt>
      <trkpt lat="43.36937" lon="6.00006">
        <ele>760</ele>
        <time>2019-12-17T10:29:15.000Z</time>
      </trkpt>
      <trkpt lat="43.36937" lon="6.00007">
        <ele>760</ele>
        <time>2019-12-17T10:29:16.000Z</time>
      </trkpt>
      <trkpt lat="43.36938" lon="6.00007">
        <ele>759</ele>
        <time>2019-12-17T10:29:17.000Z</time>
      </trkpt>
      <trkpt lat="43.36938" lon="6.00008">
        <ele>759</ele>
        <time>2019-12-17T10:29:18.000Z</time>
      </trkpt>
      <trkpt lat="43.36939" lon="6.00008">
        <ele>759</ele>
        <time>2019-12-17T10:29:19.000Z</time>
      </trkpt>
      <trkpt lat="43.36939" lon="6.00009">
        <ele>759</ele>
        <time>2019-12-17T10:29:20.000Z</time>
      </trkpt>
      <trkpt lat="43.3694" lon="6.00009">
        <ele>759</ele>
        <time>2019-12-17T10:29:21.000Z</time>
      </trkpt>
      <trkpt lat="43.3694" lon="6.0001">
        <ele>759</ele>
        <time>2019-12-17T10:29:22.000Z</time>
      </trkpt>
      <trkpt lat="43.3694" lon="6.0001">
        <ele>759</ele>
        <time>2019-12-17T10:29:23.000Z</time>
      </trkpt>
      <trkpt lat="43.36941" lon="6.00011">
        <ele>759</ele>
        <time>2019-12-17T10:29:24.000Z</time>
      </trkpt>
      <trkpt lat="43.36942" lon="6.00011">
        <ele>759</ele>
        <time>2019-12-17T10:29:25.000Z</time>
      </trkpt>
      <trkpt lat="43.36942" lon="6.00012">
        <ele>759</ele>
        <time>2019-12-17T10:29:26.000Z</time>
      </trkpt>
      <trkpt lat="43.36943" lon="6.00013">
        <ele>759</ele>
        <time>2019-12-17T10:29:27.000Z</time>
      </trkpt>
      <trkpt lat="43.36943" lon="6.00014">
        <ele>759</ele>
        <time>2019-12-17T10:29:28.000Z</time>
      </trkpt>
      <trkpt lat="43.36944" lon="6.00016">
        <ele>759</ele>
        <time>2019-12-17T10:29:29.000Z</time>
      </trkpt>
      <trkpt lat="43.36943" lon="6.00018">
        <ele>759</ele>
        <time>2019-12-17T10:29:30.000Z</time>
      </trkpt>
      <trkpt lat="43.36943" lon="6.00019">
        <ele>759</ele>
        <time>2019-12-17T10:29:31.000Z</time>
      </trkpt>
      <trkpt lat="43.36942" lon="6.0002">
        <ele>759</ele>
        <time>2019-12-17T10:29:32.000Z</time>
      </trkpt>
      <trkpt lat="43.36942" lon="6.00021">
        <ele>759</ele>
        <time>2019-12-17T10:29:33.000Z</time>
      </trkpt>
      <trkpt lat="43.36942" lon="6.00022">
        <ele>758</ele>
        <time>2019-12-17T10:29:34.000Z</time>
      </trkpt>
      <trkpt lat="43.36942" lon="6.00023">
        <ele>758</ele>
        <time>2019-12-17T10:29:35.000Z</time>
      </trkpt>
      <trkpt lat="43.36942" lon="6.00024">
        <ele>758</ele>
        <time>2019-12-17T10:29:36.000Z</time>
      </trkpt>
      <trkpt lat="43.36942" lon="6.00025">
        <ele>758</ele>
        <time>2019-12-17T10:29:37.000Z</time>
      </trkpt>
      <trkpt lat="43.36943" lon="6.00027">
        <ele>758</ele>
        <time>2019-12-17T10:29:38.000Z</time>
      </trkpt>
      <trkpt lat="43.36943" lon="6.00027">
        <ele>758</ele>
        <time>2019-12-17T10:29:39.000Z</time>
      </trkpt>
      <trkpt lat="43.36942" lon="6.00028">
        <ele>757</ele>
        <time>2019-12-17T10:29:40.000Z</time>
      </trkpt>
      <trkpt lat="43.36942" lon="6.00029">
        <ele>757</ele>
        <time>2019-12-17T10:29:41.000Z</time>
      </trkpt>
      <trkpt lat="43.36942" lon="6.0003">
        <ele>757</ele>
        <time>2019-12-17T10:29:42.000Z</time>
      </trkpt>
      <trkpt lat="43.36941" lon="6.00031">
        <ele>757</ele>
        <time>2019-12-17T10:29:43.000Z</time>
      </trkpt>
      <trkpt lat="43.36941" lon="6.00032">
        <ele>757</ele>
        <time>2019-12-17T10:29:44.000Z</time>
      </trkpt>
      <trkpt lat="43.36941" lon="6.00032">
        <ele>757</ele>
        <time>2019-12-17T10:29:45.000Z</time>
      </trkpt>
      <trkpt lat="43.36941" lon="6.00033">
        <ele>756</ele>
        <time>2019-12-17T10:29:46.000Z</time>
      </trkpt>
      <trkpt lat="43.36941" lon="6.00033">
        <ele>756</ele>
        <time>2019-12-17T10:29:47.000Z</time>
      </trkpt>
      <trkpt lat="43.36941" lon="6.00033">
        <ele>756</ele>
        <time>2019-12-17T10:29:48.000Z</time>
      </trkpt>
      <trkpt lat="43.36941" lon="6.00033">
        <ele>756</ele>
        <time>2019-12-17T10:29:49.000Z</time>
      </trkpt>
      <trkpt lat="43.36941" lon="6.00033">
        <ele>756</ele>
        <time>2019-12-17T10:29:50.000Z</time>
      </trkpt>
      <trkpt lat="43.36941" lon="6.00033">
        <ele>756</ele>
        <time>2019-12-17T10:29:51.000Z</time>
      </trkpt>
      <trkpt lat="43.3694" lon="6.00033">
        <ele>756</ele>
        <time>2019-12-17T10:29:52.000Z</time>
      </trkpt>
      <trkpt lat="43.36939" lon="6.00033">
        <ele>756</ele>
        <time>2019-12-17T10:29:53.000Z</time>
      </trkpt>
      <trkpt lat="43.36938" lon="6.00033">
        <ele>756</ele>
        <time>2019-12-17T10:29:54.000Z</time>
      </trkpt>
      <trkpt lat="43.36938" lon="6.00032">
        <ele>755</ele>
        <time>2019-12-17T10:29:55.000Z</time>
      </trkpt>
      <trkpt lat="43.36937" lon="6.00032">
        <ele>755</ele>
        <time>2019-12-17T10:29:56.000Z</time>
      </trkpt>
      <trkpt lat="43.36936" lon="6.00033">
        <ele>755</ele>
        <time>2019-12-17T10:29:57.000Z</time>
      </trkpt>
      <trkpt lat="43.36935" lon="6.00033">
        <ele>755</ele>
        <time>2019-12-17T10:29:58.000Z</time>
      </trkpt>
      <trkpt lat="43.36935" lon="6.00032">
        <ele>755</ele>
        <time>2019-12-17T10:29:59.000Z</time>
      </trkpt>
      <trkpt lat="43.36934" lon="6.00032">
        <ele>754</ele>
        <time>2019-12-17T10:30:00.000Z</time>
      </trkpt>
      <trkpt lat="43.36933" lon="6.00033">
        <ele>754</ele>
        <time>2019-12-17T10:30:01.000Z</time>
      </trkpt>
      <trkpt lat="43.36933" lon="6.00033">
        <ele>754</ele>
        <time>2019-12-17T10:30:02.000Z</time>
      </trkpt>
      <trkpt lat="43.36932" lon="6.00033">
        <ele>754</ele>
        <time>2019-12-17T10:30:03.000Z</time>
      </trkpt>
      <trkpt lat="43.36931" lon="6.00033">
        <ele>754</ele>
        <time>2019-12-17T10:30:04.000Z</time>
      </trkpt>
      <trkpt lat="43.3693" lon="6.00034">
        <ele>754</ele>
        <time>2019-12-17T10:30:05.000Z</time>
      </trkpt>
      <trkpt lat="43.3693" lon="6.00035">
        <ele>753</ele>
        <time>2019-12-17T10:30:06.000Z</time>
      </trkpt>
      <trkpt lat="43.36929" lon="6.00035">
        <ele>753</ele>
        <time>2019-12-17T10:30:07.000Z</time>
      </trkpt>
      <trkpt lat="43.36928" lon="6.00036">
        <ele>753</ele>
        <time>2019-12-17T10:30:08.000Z</time>
      </trkpt>
      <trkpt lat="43.36927" lon="6.00037">
        <ele>753</ele>
        <time>2019-12-17T10:30:09.000Z</time>
      </trkpt>
      <trkpt lat="43.36927" lon="6.00037">
        <ele>753</ele>
        <time>2019-12-17T10:30:10.000Z</time>
      </trkpt>
      <trkpt lat="43.36926" lon="6.00036">
        <ele>753</ele>
        <time>2019-12-17T10:30:11.000Z</time>
      </trkpt>
      <trkpt lat="43.36926" lon="6.00036">
        <ele>752</ele>
        <time>2019-12-17T10:30:12.000Z</time>
      </trkpt>
      <trkpt lat="43.36926" lon="6.00035">
        <ele>752</ele>
        <time>2019-12-17T10:30:13.000Z</time>
      </trkpt>
      <trkpt lat="43.36925" lon="6.00034">
        <ele>752</ele>
        <time>2019-12-17T10:30:14.000Z</time>
      </trkpt>
      <trkpt lat="43.36925" lon="6.00033">
        <ele>752</ele>
        <time>2019-12-17T10:30:15.000Z</time>
      </trkpt>
      <trkpt lat="43.36925" lon="6.00033">
        <ele>752</ele>
        <time>2019-12-17T10:30:16.000Z</time>
      </trkpt>
      <trkpt lat="43.36925" lon="6.00034">
        <ele>752</ele>
        <time>2019-12-17T10:30:17.000Z</time>
      </trkpt>
      <trkpt lat="43.36924" lon="6.00034">
        <ele>751</ele>
        <time>2019-12-17T10:30:18.000Z</time>
      </trkpt>
      <trkpt lat="43.36924" lon="6.00035">
        <ele>751</ele>
        <time>2019-12-17T10:30:19.000Z</time>
      </trkpt>
      <trkpt lat="43.36923" lon="6.00036">
        <ele>751</ele>
        <time>2019-12-17T10:30:20.000Z</time>
      </trkpt>
      <trkpt lat="43.36923" lon="6.00037">
        <ele>751</ele>
        <time>2019-12-17T10:30:21.000Z</time>
      </trkpt>
      <trkpt lat="43.36922" lon="6.00037">
        <ele>751</ele>
        <time>2019-12-17T10:30:22.000Z</time>
      </trkpt>
      <trkpt lat="43.36922" lon="6.00038">
        <ele>751</ele>
        <time>2019-12-17T10:30:23.000Z</time>
      </trkpt>
      <trkpt lat="43.36921" lon="6.00039">
        <ele>751</ele>
        <time>2019-12-17T10:30:24.000Z</time>
      </trkpt>
      <trkpt lat="43.36921" lon="6.00039">
        <ele>751</ele>
        <time>2019-12-17T10:30:25.000Z</time>
      </trkpt>
      <trkpt lat="43.36921" lon="6.0004">
        <ele>751</ele>
        <time>2019-12-17T10:30:26.000Z</time>
      </trkpt>
      <trkpt lat="43.36922" lon="6.00041">
        <ele>750</ele>
        <time>2019-12-17T10:30:27.000Z</time>
      </trkpt>
      <trkpt lat="43.36922" lon="6.00041">
        <ele>750</ele>
        <time>2019-12-17T10:30:28.000Z</time>
      </trkpt>
      <trkpt lat="43.36922" lon="6.00042">
        <ele>750</ele>
        <time>2019-12-17T10:30:29.000Z</time>
      </trkpt>
      <trkpt lat="43.36922" lon="6.00042">
        <ele>750</ele>
        <time>2019-12-17T10:30:30.000Z</time>
      </trkpt>
      <trkpt lat="43.36922" lon="6.00042">
        <ele>750</ele>
        <time>2019-12-17T10:30:31.000Z</time>
      </trkpt>
      <trkpt lat="43.36922" lon="6.00042">
        <ele>749</ele>
        <time>2019-12-17T10:30:32.000Z</time>
      </trkpt>
      <trkpt lat="43.36922" lon="6.00042">
        <ele>749</ele>
        <time>2019-12-17T10:30:33.000Z</time>
      </trkpt>
      <trkpt lat="43.36922" lon="6.00043">
        <ele>749</ele>
        <time>2019-12-17T10:30:34.000Z</time>
      </trkpt>
      <trkpt lat="43.36922" lon="6.00043">
        <ele>749</ele>
        <time>2019-12-17T10:30:35.000Z</time>
      </trkpt>
      <trkpt lat="43.36922" lon="6.00043">
        <ele>749</ele>
        <time>2019-12-17T10:30:36.000Z</time>
      </trkpt>
      <trkpt lat="43.36922" lon="6.00043">
        <ele>748</ele>
        <time>2019-12-17T10:30:37.000Z</time>
      </trkpt>
      <trkpt lat="43.36922" lon="6.00044">
        <ele>748</ele>
        <time>2019-12-17T10:30:38.000Z</time>
      </trkpt>
      <trkpt lat="43.36922" lon="6.00045">
        <ele>748</ele>
        <time>2019-12-17T10:30:39.000Z</time>
      </trkpt>
      <trkpt lat="43.36921" lon="6.00045">
        <ele>748</ele>
        <time>2019-12-17T10:30:40.000Z</time>
      </trkpt>
      <trkpt lat="43.36921" lon="6.00045">
        <ele>748</ele>
        <time>2019-12-17T10:30:41.000Z</time>
      </trkpt>
      <trkpt lat="43.3692" lon="6.00045">
        <ele>747</ele>
        <time>2019-12-17T10:30:42.000Z</time>
      </trkpt>
      <trkpt lat="43.3692" lon="6.00046">
        <ele>747</ele>
        <time>2019-12-17T10:30:43.000Z</time>
      </trkpt>
      <trkpt lat="43.36921" lon="6.00047">
        <ele>747</ele>
        <time>2019-12-17T10:30:44.000Z</time>
      </trkpt>
      <trkpt lat="43.36921" lon="6.00047">
        <ele>747</ele>
        <time>2019-12-17T10:30:45.000Z</time>
      </trkpt>
      <trkpt lat="43.36921" lon="6.00048">
        <ele>747</ele>
        <time>2019-12-17T10:30:46.000Z</time>
      </trkpt>
      <trkpt lat="43.36921" lon="6.00049">
        <ele>746</ele>
        <time>2019-12-17T10:30:47.000Z</time>
      </trkpt>
      <trkpt lat="43.36921" lon="6.0005">
        <ele>746</ele>
        <time>2019-12-17T10:30:48.000Z</time>
      </trkpt>
      <trkpt lat="43.36921" lon="6.00051">
        <ele>746</ele>
        <time>2019-12-17T10:30:49.000Z</time>
      </trkpt>
      <trkpt lat="43.36921" lon="6.00052">
        <ele>746</ele>
        <time>2019-12-17T10:30:50.000Z</time>
      </trkpt>
      <trkpt lat="43.3692" lon="6.00053">
        <ele>746</ele>
        <time>2019-12-17T10:30:51.000Z</time>
      </trkpt>
      <trkpt lat="43.3692" lon="6.00054">
        <ele>745</ele>
        <time>2019-12-17T10:30:52.000Z</time>
      </trkpt>
      <trkpt lat="43.36919" lon="6.00054">
        <ele>745</ele>
        <time>2019-12-17T10:30:53.000Z</time>
      </trkpt>
      <trkpt lat="43.36918" lon="6.00055">
        <ele>745</ele>
        <time>2019-12-17T10:30:54.000Z</time>
      </trkpt>
      <trkpt lat="43.36917" lon="6.00055">
        <ele>745</ele>
        <time>2019-12-17T10:30:55.000Z</time>
      </trkpt>
      <trkpt lat="43.36916" lon="6.00055">
        <ele>744</ele>
        <time>2019-12-17T10:30:56.000Z</time>
      </trkpt>
      <trkpt lat="43.36914" lon="6.00055">
        <ele>744</ele>
        <time>2019-12-17T10:30:57.000Z</time>
      </trkpt>
      <trkpt lat="43.36913" lon="6.00054">
        <ele>744</ele>
        <time>2019-12-17T10:30:58.000Z</time>
      </trkpt>
      <trkpt lat="43.36913" lon="6.00053">
        <ele>743</ele>
        <time>2019-12-17T10:30:59.000Z</time>
      </trkpt>
      <trkpt lat="43.36912" lon="6.00052">
        <ele>743</ele>
        <time>2019-12-17T10:31:00.000Z</time>
      </trkpt>
      <trkpt lat="43.36911" lon="6.00052">
        <ele>743</ele>
        <time>2019-12-17T10:31:01.000Z</time>
      </trkpt>
      <trkpt lat="43.3691" lon="6.00051">
        <ele>743</ele>
        <time>2019-12-17T10:31:02.000Z</time>
      </trkpt>
      <trkpt lat="43.36909" lon="6.00051">
        <ele>743</ele>
        <time>2019-12-17T10:31:03.000Z</time>
      </trkpt>
      <trkpt lat="43.36908" lon="6.0005">
        <ele>742</ele>
        <time>2019-12-17T10:31:04.000Z</time>
      </trkpt>
      <trkpt lat="43.36907" lon="6.0005">
        <ele>742</ele>
        <time>2019-12-17T10:31:05.000Z</time>
      </trkpt>
      <trkpt lat="43.36907" lon="6.0005">
        <ele>742</ele>
        <time>2019-12-17T10:31:06.000Z</time>
      </trkpt>
      <trkpt lat="43.36906" lon="6.00051">
        <ele>741</ele>
        <time>2019-12-17T10:31:07.000Z</time>
      </trkpt>
      <trkpt lat="43.36905" lon="6.00052">
        <ele>741</ele>
        <time>2019-12-17T10:31:08.000Z</time>
      </trkpt>
      <trkpt lat="43.36905" lon="6.00052">
        <ele>741</ele>
        <time>2019-12-17T10:31:09.000Z</time>
      </trkpt>
      <trkpt lat="43.36904" lon="6.00053">
        <ele>741</ele>
        <time>2019-12-17T10:31:10.000Z</time>
      </trkpt>
      <trkpt lat="43.36904" lon="6.00053">
        <ele>740</ele>
        <time>2019-12-17T10:31:11.000Z</time>
      </trkpt>
      <trkpt lat="43.36903" lon="6.00053">
        <ele>740</ele>
        <time>2019-12-17T10:31:12.000Z</time>
      </trkpt>
      <trkpt lat="43.36902" lon="6.00053">
        <ele>740</ele>
        <time>2019-12-17T10:31:13.000Z</time>
      </trkpt>
      <trkpt lat="43.36901" lon="6.00053">
        <ele>740</ele>
        <time>2019-12-17T10:31:14.000Z</time>
      </trkpt>
      <trkpt lat="43.369" lon="6.00053">
        <ele>739</ele>
        <time>2019-12-17T10:31:15.000Z</time>
      </trkpt>
      <trkpt lat="43.36899" lon="6.00054">
        <ele>739</ele>
        <time>2019-12-17T10:31:16.000Z</time>
      </trkpt>
      <trkpt lat="43.36898" lon="6.00054">
        <ele>739</ele>
        <time>2019-12-17T10:31:17.000Z</time>
      </trkpt>
      <trkpt lat="43.36897" lon="6.00055">
        <ele>739</ele>
        <time>2019-12-17T10:31:18.000Z</time>
      </trkpt>
      <trkpt lat="43.36897" lon="6.00056">
        <ele>739</ele>
        <time>2019-12-17T10:31:19.000Z</time>
      </trkpt>
      <trkpt lat="43.36896" lon="6.00058">
        <ele>738</ele>
        <time>2019-12-17T10:31:20.000Z</time>
      </trkpt>
      <trkpt lat="43.36896" lon="6.00059">
        <ele>738</ele>
        <time>2019-12-17T10:31:21.000Z</time>
      </trkpt>
      <trkpt lat="43.36896" lon="6.00061">
        <ele>738</ele>
        <time>2019-12-17T10:31:22.000Z</time>
      </trkpt>
      <trkpt lat="43.36895" lon="6.00062">
        <ele>738</ele>
        <time>2019-12-17T10:31:23.000Z</time>
      </trkpt>
      <trkpt lat="43.36895" lon="6.00064">
        <ele>738</ele>
        <time>2019-12-17T10:31:24.000Z</time>
      </trkpt>
      <trkpt lat="43.36895" lon="6.00065">
        <ele>738</ele>
        <time>2019-12-17T10:31:25.000Z</time>
      </trkpt>
      <trkpt lat="43.36894" lon="6.00067">
        <ele>738</ele>
        <time>2019-12-17T10:31:26.000Z</time>
      </trkpt>
      <trkpt lat="43.36894" lon="6.00068">
        <ele>738</ele>
        <time>2019-12-17T10:31:27.000Z</time>
      </trkpt>
      <trkpt lat="43.36893" lon="6.00069">
        <ele>738</ele>
        <time>2019-12-17T10:31:28.000Z</time>
      </trkpt>
      <trkpt lat="43.36893" lon="6.0007">
        <ele>737</ele>
        <time>2019-12-17T10:31:29.000Z</time>
      </trkpt>
      <trkpt lat="43.36892" lon="6.00071">
        <ele>737</ele>
        <time>2019-12-17T10:31:30.000Z</time>
      </trkpt>
      <trkpt lat="43.36891" lon="6.00072">
        <ele>737</ele>
        <time>2019-12-17T10:31:31.000Z</time>
      </trkpt>
      <trkpt lat="43.36891" lon="6.00073">
        <ele>736</ele>
        <time>2019-12-17T10:31:32.000Z</time>
      </trkpt>
      <trkpt lat="43.3689" lon="6.00073">
        <ele>736</ele>
        <time>2019-12-17T10:31:33.000Z</time>
      </trkpt>
      <trkpt lat="43.36889" lon="6.00073">
        <ele>736</ele>
        <time>2019-12-17T10:31:34.000Z</time>
      </trkpt>
      <trkpt lat="43.36888" lon="6.00073">
        <ele>736</ele>
        <time>2019-12-17T10:31:35.000Z</time>
      </trkpt>
      <trkpt lat="43.36887" lon="6.00072">
        <ele>735</ele>
        <time>2019-12-17T10:31:36.000Z</time>
      </trkpt>
      <trkpt lat="43.36887" lon="6.00072">
        <ele>735</ele>
        <time>2019-12-17T10:31:37.000Z</time>
      </trkpt>
      <trkpt lat="43.36886" lon="6.00072">
        <ele>735</ele>
        <time>2019-12-17T10:31:38.000Z</time>
      </trkpt>
      <trkpt lat="43.36886" lon="6.00073">
        <ele>735</ele>
        <time>2019-12-17T10:31:39.000Z</time>
      </trkpt>
      <trkpt lat="43.36886" lon="6.00073">
        <ele>735</ele>
        <time>2019-12-17T10:31:40.000Z</time>
      </trkpt>
      <trkpt lat="43.36886" lon="6.00073">
        <ele>735</ele>
        <time>2019-12-17T10:31:41.000Z</time>
      </trkpt>
      <trkpt lat="43.36886" lon="6.00073">
        <ele>734</ele>
        <time>2019-12-17T10:31:42.000Z</time>
      </trkpt>
      <trkpt lat="43.36886" lon="6.00073">
        <ele>734</ele>
        <time>2019-12-17T10:31:43.000Z</time>
      </trkpt>
      <trkpt lat="43.36886" lon="6.00073">
        <ele>734</ele>
        <time>2019-12-17T10:31:44.000Z</time>
      </trkpt>
      <trkpt lat="43.36886" lon="6.00073">
        <ele>734</ele>
        <time>2019-12-17T10:31:45.000Z</time>
      </trkpt>
      <trkpt lat="43.36886" lon="6.00073">
        <ele>734</ele>
        <time>2019-12-17T10:31:46.000Z</time>
      </trkpt>
      <trkpt lat="43.36886" lon="6.00073">
        <ele>734</ele>
        <time>2019-12-17T10:31:47.000Z</time>
      </trkpt>
      <trkpt lat="43.36886" lon="6.00073">
        <ele>734</ele>
        <time>2019-12-17T10:31:48.000Z</time>
      </trkpt>
      <trkpt lat="43.36886" lon="6.00073">
        <ele>734</ele>
        <time>2019-12-17T10:31:49.000Z</time>
      </trkpt>
      <trkpt lat="43.36886" lon="6.00073">
        <ele>734</ele>
        <time>2019-12-17T10:31:50.000Z</time>
      </trkpt>
      <trkpt lat="43.36886" lon="6.00074">
        <ele>734</ele>
        <time>2019-12-17T10:31:51.000Z</time>
      </trkpt>
      <trkpt lat="43.36886" lon="6.00074">
        <ele>734</ele>
        <time>2019-12-17T10:31:52.000Z</time>
      </trkpt>
      <trkpt lat="43.36886" lon="6.00074">
        <ele>734</ele>
        <time>2019-12-17T10:31:53.000Z</time>
      </trkpt>
      <trkpt lat="43.36886" lon="6.00074">
        <ele>734</ele>
        <time>2019-12-17T10:31:54.000Z</time>
      </trkpt>
      <trkpt lat="43.36886" lon="6.00074">
        <ele>734</ele>
        <time>2019-12-17T10:31:55.000Z</time>
      </trkpt>
      <trkpt lat="43.36886" lon="6.00074">
        <ele>734</ele>
        <time>2019-12-17T10:31:56.000Z</time>
      </trkpt>
      <trkpt lat="43.36886" lon="6.00074">
        <ele>734</ele>
        <time>2019-12-17T10:31:57.000Z</time>
      </trkpt>
      <trkpt lat="43.36886" lon="6.00074">
        <ele>734</ele>
        <time>2019-12-17T10:31:58.000Z</time>
      </trkpt>
      <trkpt lat="43.36886" lon="6.00074">
        <ele>734</ele>
        <time>2019-12-17T10:31:59.000Z</time>
      </trkpt>
      <trkpt lat="43.36886" lon="6.00074">
        <ele>734</ele>
        <time>2019-12-17T10:32:00.000Z</time>
      </trkpt>
      <trkpt lat="43.36886" lon="6.00074">
        <ele>734</ele>
        <time>2019-12-17T10:32:01.000Z</time>
      </trkpt>
      <trkpt lat="43.36886" lon="6.00074">
        <ele>734</ele>
        <time>2019-12-17T10:32:02.000Z</time>
      </trkpt>
      <trkpt lat="43.36886" lon="6.00074">
        <ele>734</ele>
        <time>2019-12-17T10:32:03.000Z</time>
      </trkpt>
      <trkpt lat="43.36886" lon="6.00074">
        <ele>734</ele>
        <time>2019-12-17T10:32:04.000Z</time>
      </trkpt>
      <trkpt lat="43.36886" lon="6.00074">
        <ele>734</ele>
        <time>2019-12-17T10:32:05.000Z</time>
      </trkpt>
      <trkpt lat="43.36886" lon="6.00074">
        <ele>734</ele>
        <time>2019-12-17T10:32:06.000Z</time>
      </trkpt>
      <trkpt lat="43.36885" lon="6.00075">
        <ele>734</ele>
        <time>2019-12-17T10:32:07.000Z</time>
      </trkpt>
      <trkpt lat="43.36885" lon="6.00074">
        <ele>734</ele>
        <time>2019-12-17T10:32:08.000Z</time>
      </trkpt>
      <trkpt lat="43.36884" lon="6.00074">
        <ele>734</ele>
        <time>2019-12-17T10:32:09.000Z</time>
      </trkpt>
      <trkpt lat="43.36883" lon="6.00075">
        <ele>734</ele>
        <time>2019-12-17T10:32:10.000Z</time>
      </trkpt>
      <trkpt lat="43.36883" lon="6.00074">
        <ele>734</ele>
        <time>2019-12-17T10:32:11.000Z</time>
      </trkpt>
      <trkpt lat="43.36882" lon="6.00074">
        <ele>734</ele>
        <time>2019-12-17T10:32:12.000Z</time>
      </trkpt>
      <trkpt lat="43.36882" lon="6.00074">
        <ele>734</ele>
        <time>2019-12-17T10:32:13.000Z</time>
      </trkpt>
      <trkpt lat="43.36881" lon="6.00075">
        <ele>734</ele>
        <time>2019-12-17T10:32:14.000Z</time>
      </trkpt>
      <trkpt lat="43.3688" lon="6.00075">
        <ele>734</ele>
        <time>2019-12-17T10:32:15.000Z</time>
      </trkpt>
      <trkpt lat="43.3688" lon="6.00074">
        <ele>734</ele>
        <time>2019-12-17T10:32:16.000Z</time>
      </trkpt>
      <trkpt lat="43.36879" lon="6.00074">
        <ele>734</ele>
        <time>2019-12-17T10:32:17.000Z</time>
      </trkpt>
      <trkpt lat="43.36879" lon="6.00074">
        <ele>734</ele>
        <time>2019-12-17T10:32:18.000Z</time>
      </trkpt>
      <trkpt lat="43.36878" lon="6.00074">
        <ele>734</ele>
        <time>2019-12-17T10:32:19.000Z</time>
      </trkpt>
      <trkpt lat="43.36877" lon="6.00073">
        <ele>733</ele>
        <time>2019-12-17T10:32:20.000Z</time>
      </trkpt>
      <trkpt lat="43.36876" lon="6.00073">
        <ele>733</ele>
        <time>2019-12-17T10:32:21.000Z</time>
      </trkpt>
      <trkpt lat="43.36875" lon="6.00073">
        <ele>733</ele>
        <time>2019-12-17T10:32:22.000Z</time>
      </trkpt>
      <trkpt lat="43.36874" lon="6.00072">
        <ele>733</ele>
        <time>2019-12-17T10:32:23.000Z</time>
      </trkpt>
      <trkpt lat="43.36873" lon="6.00073">
        <ele>733</ele>
        <time>2019-12-17T10:32:24.000Z</time>
      </trkpt>
      <trkpt lat="43.36872" lon="6.00073">
        <ele>733</ele>
        <time>2019-12-17T10:32:25.000Z</time>
      </trkpt>
      <trkpt lat="43.3687" lon="6.00072">
        <ele>733</ele>
        <time>2019-12-17T10:32:26.000Z</time>
      </trkpt>
      <trkpt lat="43.36869" lon="6.00072">
        <ele>733</ele>
        <time>2019-12-17T10:32:27.000Z</time>
      </trkpt>
      <trkpt lat="43.36868" lon="6.00071">
        <ele>733</ele>
        <time>2019-12-17T10:32:28.000Z</time>
      </trkpt>
      <trkpt lat="43.36867" lon="6.00071">
        <ele>733</ele>
        <time>2019-12-17T10:32:29.000Z</time>
      </trkpt>
      <trkpt lat="43.36867" lon="6.00071">
        <ele>733</ele>
        <time>2019-12-17T10:32:30.000Z</time>
      </trkpt>
      <trkpt lat="43.36867" lon="6.00071">
        <ele>733</ele>
        <time>2019-12-17T10:32:31.000Z</time>
      </trkpt>
      <trkpt lat="43.36866" lon="6.00071">
        <ele>733</ele>
        <time>2019-12-17T10:32:32.000Z</time>
      </trkpt>
      <trkpt lat="43.36866" lon="6.00071">
        <ele>733</ele>
        <time>2019-12-17T10:32:33.000Z</time>
      </trkpt>
      <trkpt lat="43.36866" lon="6.00072">
        <ele>733</ele>
        <time>2019-12-17T10:32:34.000Z</time>
      </trkpt>
      <trkpt lat="43.36865" lon="6.00071">
        <ele>733</ele>
        <time>2019-12-17T10:32:35.000Z</time>
      </trkpt>
      <trkpt lat="43.36864" lon="6.00071">
        <ele>732</ele>
        <time>2019-12-17T10:32:36.000Z</time>
      </trkpt>
      <trkpt lat="43.36863" lon="6.00071">
        <ele>732</ele>
        <time>2019-12-17T10:32:37.000Z</time>
      </trkpt>
      <trkpt lat="43.36863" lon="6.00071">
        <ele>732</ele>
        <time>2019-12-17T10:32:38.000Z</time>
      </trkpt>
      <trkpt lat="43.36862" lon="6.00071">
        <ele>732</ele>
        <time>2019-12-17T10:32:39.000Z</time>
      </trkpt>
      <trkpt lat="43.36861" lon="6.00072">
        <ele>732</ele>
        <time>2019-12-17T10:32:40.000Z</time>
      </trkpt>
      <trkpt lat="43.3686" lon="6.00074">
        <ele>732</ele>
        <time>2019-12-17T10:32:41.000Z</time>
      </trkpt>
      <trkpt lat="43.36859" lon="6.00074">
        <ele>732</ele>
        <time>2019-12-17T10:32:42.000Z</time>
      </trkpt>
      <trkpt lat="43.36858" lon="6.00075">
        <ele>732</ele>
        <time>2019-12-17T10:32:43.000Z</time>
      </trkpt>
      <trkpt lat="43.36858" lon="6.00076">
        <ele>732</ele>
        <time>2019-12-17T10:32:44.000Z</time>
      </trkpt>
      <trkpt lat="43.36857" lon="6.00077">
        <ele>732</ele>
        <time>2019-12-17T10:32:45.000Z</time>
      </trkpt>
      <trkpt lat="43.36856" lon="6.00078">
        <ele>732</ele>
        <time>2019-12-17T10:32:46.000Z</time>
      </trkpt>
      <trkpt lat="43.36855" lon="6.00079">
        <ele>732</ele>
        <time>2019-12-17T10:32:47.000Z</time>
      </trkpt>
      <trkpt lat="43.36854" lon="6.0008">
        <ele>732</ele>
        <time>2019-12-17T10:32:48.000Z</time>
      </trkpt>
      <trkpt lat="43.36853" lon="6.0008">
        <ele>732</ele>
        <time>2019-12-17T10:32:49.000Z</time>
      </trkpt>
      <trkpt lat="43.36852" lon="6.00081">
        <ele>732</ele>
        <time>2019-12-17T10:32:50.000Z</time>
      </trkpt>
      <trkpt lat="43.36852" lon="6.00082">
        <ele>732</ele>
        <time>2019-12-17T10:32:51.000Z</time>
      </trkpt>
      <trkpt lat="43.36851" lon="6.00083">
        <ele>731</ele>
        <time>2019-12-17T10:32:52.000Z</time>
      </trkpt>
      <trkpt lat="43.36851" lon="6.00084">
        <ele>731</ele>
        <time>2019-12-17T10:32:53.000Z</time>
      </trkpt>
      <trkpt lat="43.36851" lon="6.00085">
        <ele>731</ele>
        <time>2019-12-17T10:32:54.000Z</time>
      </trkpt>
      <trkpt lat="43.36851" lon="6.00087">
        <ele>731</ele>
        <time>2019-12-17T10:32:55.000Z</time>
      </trkpt>
      <trkpt lat="43.36851" lon="6.00088">
        <ele>731</ele>
        <time>2019-12-17T10:32:56.000Z</time>
      </trkpt>
      <trkpt lat="43.36852" lon="6.00089">
        <ele>731</ele>
        <time>2019-12-17T10:32:57.000Z</time>
      </trkpt>
      <trkpt lat="43.36852" lon="6.0009">
        <ele>731</ele>
        <time>2019-12-17T10:32:58.000Z</time>
      </trkpt>
      <trkpt lat="43.36852" lon="6.00091">
        <ele>730</ele>
        <time>2019-12-17T10:32:59.000Z</time>
      </trkpt>
      <trkpt lat="43.36851" lon="6.00092">
        <ele>730</ele>
        <time>2019-12-17T10:33:00.000Z</time>
      </trkpt>
      <trkpt lat="43.36851" lon="6.00093">
        <ele>730</ele>
        <time>2019-12-17T10:33:01.000Z</time>
      </trkpt>
      <trkpt lat="43.36851" lon="6.00095">
        <ele>730</ele>
        <time>2019-12-17T10:33:02.000Z</time>
      </trkpt>
      <trkpt lat="43.36851" lon="6.00096">
        <ele>730</ele>
        <time>2019-12-17T10:33:03.000Z</time>
      </trkpt>
      <trkpt lat="43.36851" lon="6.00097">
        <ele>730</ele>
        <time>2019-12-17T10:33:04.000Z</time>
      </trkpt>
      <trkpt lat="43.3685" lon="6.00098">
        <ele>730</ele>
        <time>2019-12-17T10:33:05.000Z</time>
      </trkpt>
      <trkpt lat="43.3685" lon="6.00099">
        <ele>729</ele>
        <time>2019-12-17T10:33:06.000Z</time>
      </trkpt>
      <trkpt lat="43.36849" lon="6.001">
        <ele>729</ele>
        <time>2019-12-17T10:33:07.000Z</time>
      </trkpt>
      <trkpt lat="43.36849" lon="6.001">
        <ele>729</ele>
        <time>2019-12-17T10:33:08.000Z</time>
      </trkpt>
      <trkpt lat="43.36848" lon="6.001">
        <ele>729</ele>
        <time>2019-12-17T10:33:09.000Z</time>
      </trkpt>
      <trkpt lat="43.36848" lon="6.001">
        <ele>729</ele>
        <time>2019-12-17T10:33:10.000Z</time>
      </trkpt>
      <trkpt lat="43.36847" lon="6.001">
        <ele>729</ele>
        <time>2019-12-17T10:33:11.000Z</time>
      </trkpt>
      <trkpt lat="43.36847" lon="6.00099">
        <ele>729</ele>
        <time>2019-12-17T10:33:12.000Z</time>
      </trkpt>
      <trkpt lat="43.36846" lon="6.00099">
        <ele>729</ele>
        <time>2019-12-17T10:33:13.000Z</time>
      </trkpt>
      <trkpt lat="43.36846" lon="6.00099">
        <ele>729</ele>
        <time>2019-12-17T10:33:14.000Z</time>
      </trkpt>
      <trkpt lat="43.36845" lon="6.00099">
        <ele>729</ele>
        <time>2019-12-17T10:33:15.000Z</time>
      </trkpt>
      <trkpt lat="43.36845" lon="6.001">
        <ele>729</ele>
        <time>2019-12-17T10:33:16.000Z</time>
      </trkpt>
      <trkpt lat="43.36844" lon="6.00101">
        <ele>729</ele>
        <time>2019-12-17T10:33:17.000Z</time>
      </trkpt>
      <trkpt lat="43.36844" lon="6.00102">
        <ele>729</ele>
        <time>2019-12-17T10:33:18.000Z</time>
      </trkpt>
      <trkpt lat="43.36843" lon="6.00103">
        <ele>729</ele>
        <time>2019-12-17T10:33:19.000Z</time>
      </trkpt>
      <trkpt lat="43.36842" lon="6.00103">
        <ele>729</ele>
        <time>2019-12-17T10:33:20.000Z</time>
      </trkpt>
      <trkpt lat="43.36841" lon="6.00104">
        <ele>729</ele>
        <time>2019-12-17T10:33:21.000Z</time>
      </trkpt>
      <trkpt lat="43.36841" lon="6.00104">
        <ele>729</ele>
        <time>2019-12-17T10:33:22.000Z</time>
      </trkpt>
      <trkpt lat="43.3684" lon="6.00104">
        <ele>729</ele>
        <time>2019-12-17T10:33:23.000Z</time>
      </trkpt>
      <trkpt lat="43.3684" lon="6.00103">
        <ele>729</ele>
        <time>2019-12-17T10:33:24.000Z</time>
      </trkpt>
      <trkpt lat="43.3684" lon="6.00104">
        <ele>728</ele>
        <time>2019-12-17T10:33:25.000Z</time>
      </trkpt>
      <trkpt lat="43.3684" lon="6.00104">
        <ele>728</ele>
        <time>2019-12-17T10:33:26.000Z</time>
      </trkpt>
      <trkpt lat="43.3684" lon="6.00104">
        <ele>728</ele>
        <time>2019-12-17T10:33:27.000Z</time>
      </trkpt>
      <trkpt lat="43.36839" lon="6.00104">
        <ele>728</ele>
        <time>2019-12-17T10:33:28.000Z</time>
      </trkpt>
      <trkpt lat="43.36839" lon="6.00104">
        <ele>728</ele>
        <time>2019-12-17T10:33:29.000Z</time>
      </trkpt>
      <trkpt lat="43.36839" lon="6.00105">
        <ele>728</ele>
        <time>2019-12-17T10:33:30.000Z</time>
      </trkpt>
      <trkpt lat="43.36838" lon="6.00106">
        <ele>728</ele>
        <time>2019-12-17T10:33:31.000Z</time>
      </trkpt>
      <trkpt lat="43.36838" lon="6.00107">
        <ele>728</ele>
        <time>2019-12-17T10:33:32.000Z</time>
      </trkpt>
      <trkpt lat="43.36837" lon="6.00108">
        <ele>728</ele>
        <time>2019-12-17T10:33:33.000Z</time>
      </trkpt>
      <trkpt lat="43.36837" lon="6.00109">
        <ele>728</ele>
        <time>2019-12-17T10:33:34.000Z</time>
      </trkpt>
      <trkpt lat="43.36837" lon="6.0011">
        <ele>727</ele>
        <time>2019-12-17T10:33:35.000Z</time>
      </trkpt>
      <trkpt lat="43.36837" lon="6.00111">
        <ele>727</ele>
        <time>2019-12-17T10:33:36.000Z</time>
      </trkpt>
      <trkpt lat="43.36837" lon="6.00111">
        <ele>727</ele>
        <time>2019-12-17T10:33:37.000Z</time>
      </trkpt>
      <trkpt lat="43.36837" lon="6.00112">
        <ele>727</ele>
        <time>2019-12-17T10:33:38.000Z</time>
      </trkpt>
      <trkpt lat="43.36837" lon="6.00113">
        <ele>727</ele>
        <time>2019-12-17T10:33:39.000Z</time>
      </trkpt>
      <trkpt lat="43.36837" lon="6.00114">
        <ele>727</ele>
        <time>2019-12-17T10:33:40.000Z</time>
      </trkpt>
      <trkpt lat="43.36837" lon="6.00114">
        <ele>727</ele>
        <time>2019-12-17T10:33:41.000Z</time>
      </trkpt>
      <trkpt lat="43.36837" lon="6.00115">
        <ele>727</ele>
        <time>2019-12-17T10:33:42.000Z</time>
      </trkpt>
      <trkpt lat="43.36837" lon="6.00116">
        <ele>727</ele>
        <time>2019-12-17T10:33:43.000Z</time>
      </trkpt>
      <trkpt lat="43.36836" lon="6.00116">
        <ele>727</ele>
        <time>2019-12-17T10:33:44.000Z</time>
      </trkpt>
      <trkpt lat="43.36836" lon="6.00117">
        <ele>727</ele>
        <time>2019-12-17T10:33:45.000Z</time>
      </trkpt>
      <trkpt lat="43.36836" lon="6.00117">
        <ele>727</ele>
        <time>2019-12-17T10:33:46.000Z</time>
      </trkpt>
      <trkpt lat="43.36835" lon="6.00118">
        <ele>727</ele>
        <time>2019-12-17T10:33:47.000Z</time>
      </trkpt>
      <trkpt lat="43.36835" lon="6.00118">
        <ele>727</ele>
        <time>2019-12-17T10:33:48.000Z</time>
      </trkpt>
      <trkpt lat="43.36834" lon="6.00118">
        <ele>726</ele>
        <time>2019-12-17T10:33:49.000Z</time>
      </trkpt>
      <trkpt lat="43.36834" lon="6.00117">
        <ele>726</ele>
        <time>2019-12-17T10:33:50.000Z</time>
      </trkpt>
      <trkpt lat="43.36833" lon="6.00117">
        <ele>726</ele>
        <time>2019-12-17T10:33:51.000Z</time>
      </trkpt>
      <trkpt lat="43.36833" lon="6.00117">
        <ele>726</ele>
        <time>2019-12-17T10:33:52.000Z</time>
      </trkpt>
      <trkpt lat="43.36832" lon="6.00117">
        <ele>726</ele>
        <time>2019-12-17T10:33:53.000Z</time>
      </trkpt>
      <trkpt lat="43.36832" lon="6.00117">
        <ele>726</ele>
        <time>2019-12-17T10:33:54.000Z</time>
      </trkpt>
      <trkpt lat="43.36832" lon="6.00117">
        <ele>726</ele>
        <time>2019-12-17T10:33:55.000Z</time>
      </trkpt>
      <trkpt lat="43.36832" lon="6.00117">
        <ele>726</ele>
        <time>2019-12-17T10:33:56.000Z</time>
      </trkpt>
      <trkpt lat="43.36832" lon="6.00117">
        <ele>726</ele>
        <time>2019-12-17T10:33:57.000Z</time>
      </trkpt>
      <trkpt lat="43.36832" lon="6.00117">
        <ele>726</ele>
        <time>2019-12-17T10:33:58.000Z</time>
      </trkpt>
      <trkpt lat="43.36832" lon="6.00117">
        <ele>726</ele>
        <time>2019-12-17T10:33:59.000Z</time>
      </trkpt>
      <trkpt lat="43.36831" lon="6.00118">
        <ele>726</ele>
        <time>2019-12-17T10:34:00.000Z</time>
      </trkpt>
      <trkpt lat="43.36831" lon="6.00118">
        <ele>726</ele>
        <time>2019-12-17T10:34:01.000Z</time>
      </trkpt>
      <trkpt lat="43.36831" lon="6.00118">
        <ele>726</ele>
        <time>2019-12-17T10:34:02.000Z</time>
      </trkpt>
      <trkpt lat="43.36831" lon="6.00118">
        <ele>726</ele>
        <time>2019-12-17T10:34:03.000Z</time>
      </trkpt>
      <trkpt lat="43.36831" lon="6.00118">
        <ele>726</ele>
        <time>2019-12-17T10:34:04.000Z</time>
      </trkpt>
      <trkpt lat="43.3683" lon="6.00118">
        <ele>726</ele>
        <time>2019-12-17T10:34:05.000Z</time>
      </trkpt>
      <trkpt lat="43.36829" lon="6.00118">
        <ele>726</ele>
        <time>2019-12-17T10:34:06.000Z</time>
      </trkpt>
      <trkpt lat="43.36828" lon="6.00118">
        <ele>726</ele>
        <time>2019-12-17T10:34:07.000Z</time>
      </trkpt>
      <trkpt lat="43.36828" lon="6.00117">
        <ele>726</ele>
        <time>2019-12-17T10:34:08.000Z</time>
      </trkpt>
      <trkpt lat="43.36827" lon="6.00117">
        <ele>726</ele>
        <time>2019-12-17T10:34:09.000Z</time>
      </trkpt>
      <trkpt lat="43.36827" lon="6.00117">
        <ele>726</ele>
        <time>2019-12-17T10:34:10.000Z</time>
      </trkpt>
      <trkpt lat="43.36826" lon="6.00116">
        <ele>725</ele>
        <time>2019-12-17T10:34:11.000Z</time>
      </trkpt>
      <trkpt lat="43.36825" lon="6.00116">
        <ele>725</ele>
        <time>2019-12-17T10:34:12.000Z</time>
      </trkpt>
      <trkpt lat="43.36824" lon="6.00115">
        <ele>725</ele>
        <time>2019-12-17T10:34:13.000Z</time>
      </trkpt>
      <trkpt lat="43.36823" lon="6.00114">
        <ele>725</ele>
        <time>2019-12-17T10:34:14.000Z</time>
      </trkpt>
      <trkpt lat="43.36823" lon="6.00113">
        <ele>725</ele>
        <time>2019-12-17T10:34:15.000Z</time>
      </trkpt>
      <trkpt lat="43.36823" lon="6.00112">
        <ele>725</ele>
        <time>2019-12-17T10:34:16.000Z</time>
      </trkpt>
      <trkpt lat="43.36823" lon="6.00111">
        <ele>725</ele>
        <time>2019-12-17T10:34:17.000Z</time>
      </trkpt>
      <trkpt lat="43.36823" lon="6.00111">
        <ele>725</ele>
        <time>2019-12-17T10:34:18.000Z</time>
      </trkpt>
      <trkpt lat="43.36822" lon="6.0011">
        <ele>725</ele>
        <time>2019-12-17T10:34:19.000Z</time>
      </trkpt>
      <trkpt lat="43.36822" lon="6.00109">
        <ele>725</ele>
        <time>2019-12-17T10:34:20.000Z</time>
      </trkpt>
      <trkpt lat="43.36821" lon="6.00109">
        <ele>725</ele>
        <time>2019-12-17T10:34:21.000Z</time>
      </trkpt>
      <trkpt lat="43.36821" lon="6.00109">
        <ele>725</ele>
        <time>2019-12-17T10:34:22.000Z</time>
      </trkpt>
      <trkpt lat="43.36821" lon="6.00108">
        <ele>724</ele>
        <time>2019-12-17T10:34:23.000Z</time>
      </trkpt>
      <trkpt lat="43.3682" lon="6.00107">
        <ele>724</ele>
        <time>2019-12-17T10:34:24.000Z</time>
      </trkpt>
      <trkpt lat="43.3682" lon="6.00107">
        <ele>724</ele>
        <time>2019-12-17T10:34:25.000Z</time>
      </trkpt>
      <trkpt lat="43.36819" lon="6.00106">
        <ele>724</ele>
        <time>2019-12-17T10:34:26.000Z</time>
      </trkpt>
      <trkpt lat="43.36818" lon="6.00106">
        <ele>724</ele>
        <time>2019-12-17T10:34:27.000Z</time>
      </trkpt>
      <trkpt lat="43.36817" lon="6.00105">
        <ele>724</ele>
        <time>2019-12-17T10:34:28.000Z</time>
      </trkpt>
      <trkpt lat="43.36817" lon="6.00105">
        <ele>724</ele>
        <time>2019-12-17T10:34:29.000Z</time>
      </trkpt>
      <trkpt lat="43.36816" lon="6.00105">
        <ele>723</ele>
        <time>2019-12-17T10:34:30.000Z</time>
      </trkpt>
      <trkpt lat="43.36815" lon="6.00105">
        <ele>723</ele>
        <time>2019-12-17T10:34:31.000Z</time>
      </trkpt>
      <trkpt lat="43.36815" lon="6.00105">
        <ele>723</ele>
        <time>2019-12-17T10:34:32.000Z</time>
      </trkpt>
      <trkpt lat="43.36814" lon="6.00105">
        <ele>723</ele>
        <time>2019-12-17T10:34:33.000Z</time>
      </trkpt>
      <trkpt lat="43.36813" lon="6.00105">
        <ele>723</ele>
        <time>2019-12-17T10:34:34.000Z</time>
      </trkpt>
      <trkpt lat="43.36813" lon="6.00106">
        <ele>723</ele>
        <time>2019-12-17T10:34:35.000Z</time>
      </trkpt>
      <trkpt lat="43.36812" lon="6.00107">
        <ele>723</ele>
        <time>2019-12-17T10:34:36.000Z</time>
      </trkpt>
      <trkpt lat="43.36812" lon="6.00109">
        <ele>722</ele>
        <time>2019-12-17T10:34:37.000Z</time>
      </trkpt>
      <trkpt lat="43.36811" lon="6.0011">
        <ele>722</ele>
        <time>2019-12-17T10:34:38.000Z</time>
      </trkpt>
      <trkpt lat="43.36811" lon="6.00112">
        <ele>722</ele>
        <time>2019-12-17T10:34:39.000Z</time>
      </trkpt>
      <trkpt lat="43.3681" lon="6.00113">
        <ele>722</ele>
        <time>2019-12-17T10:34:40.000Z</time>
      </trkpt>
      <trkpt lat="43.36809" lon="6.00115">
        <ele>722</ele>
        <time>2019-12-17T10:34:41.000Z</time>
      </trkpt>
      <trkpt lat="43.36808" lon="6.00117">
        <ele>722</ele>
        <time>2019-12-17T10:34:42.000Z</time>
      </trkpt>
      <trkpt lat="43.36807" lon="6.00118">
        <ele>722</ele>
        <time>2019-12-17T10:34:43.000Z</time>
      </trkpt>
      <trkpt lat="43.36806" lon="6.00119">
        <ele>722</ele>
        <time>2019-12-17T10:34:44.000Z</time>
      </trkpt>
      <trkpt lat="43.36805" lon="6.0012">
        <ele>721</ele>
        <time>2019-12-17T10:34:45.000Z</time>
      </trkpt>
      <trkpt lat="43.36804" lon="6.00121">
        <ele>721</ele>
        <time>2019-12-17T10:34:46.000Z</time>
      </trkpt>
      <trkpt lat="43.36803" lon="6.00121">
        <ele>721</ele>
        <time>2019-12-17T10:34:47.000Z</time>
      </trkpt>
      <trkpt lat="43.36801" lon="6.00121">
        <ele>721</ele>
        <time>2019-12-17T10:34:48.000Z</time>
      </trkpt>
      <trkpt lat="43.368" lon="6.00122">
        <ele>721</ele>
        <time>2019-12-17T10:34:49.000Z</time>
      </trkpt>
      <trkpt lat="43.36799" lon="6.00122">
        <ele>721</ele>
        <time>2019-12-17T10:34:50.000Z</time>
      </trkpt>
      <trkpt lat="43.36798" lon="6.00123">
        <ele>720</ele>
        <time>2019-12-17T10:34:51.000Z</time>
      </trkpt>
      <trkpt lat="43.36798" lon="6.00124">
        <ele>720</ele>
        <time>2019-12-17T10:34:52.000Z</time>
      </trkpt>
      <trkpt lat="43.36797" lon="6.00125">
        <ele>720</ele>
        <time>2019-12-17T10:34:53.000Z</time>
      </trkpt>
      <trkpt lat="43.36796" lon="6.00126">
        <ele>720</ele>
        <time>2019-12-17T10:34:54.000Z</time>
      </trkpt>
      <trkpt lat="43.36795" lon="6.00126">
        <ele>719</ele>
        <time>2019-12-17T10:34:55.000Z</time>
      </trkpt>
      <trkpt lat="43.36794" lon="6.00127">
        <ele>719</ele>
        <time>2019-12-17T10:34:56.000Z</time>
      </trkpt>
      <trkpt lat="43.36793" lon="6.00127">
        <ele>719</ele>
        <time>2019-12-17T10:34:57.000Z</time>
      </trkpt>
      <trkpt lat="43.36792" lon="6.00128">
        <ele>719</ele>
        <time>2019-12-17T10:34:58.000Z</time>
      </trkpt>
      <trkpt lat="43.36792" lon="6.0013">
        <ele>719</ele>
        <time>2019-12-17T10:34:59.000Z</time>
      </trkpt>
      <trkpt lat="43.36791" lon="6.00131">
        <ele>718</ele>
        <time>2019-12-17T10:35:00.000Z</time>
      </trkpt>
      <trkpt lat="43.36791" lon="6.00132">
        <ele>718</ele>
        <time>2019-12-17T10:35:01.000Z</time>
      </trkpt>
      <trkpt lat="43.3679" lon="6.00133">
        <ele>718</ele>
        <time>2019-12-17T10:35:02.000Z</time>
      </trkpt>
      <trkpt lat="43.3679" lon="6.00135">
        <ele>718</ele>
        <time>2019-12-17T10:35:03.000Z</time>
      </trkpt>
      <trkpt lat="43.36791" lon="6.00137">
        <ele>718</ele>
        <time>2019-12-17T10:35:04.000Z</time>
      </trkpt>
      <trkpt lat="43.36791" lon="6.00138">
        <ele>718</ele>
        <time>2019-12-17T10:35:05.000Z</time>
      </trkpt>
      <trkpt lat="43.36791" lon="6.0014">
        <ele>718</ele>
        <time>2019-12-17T10:35:06.000Z</time>
      </trkpt>
      <trkpt lat="43.36791" lon="6.00142">
        <ele>718</ele>
        <time>2019-12-17T10:35:07.000Z</time>
      </trkpt>
      <trkpt lat="43.36792" lon="6.00143">
        <ele>717</ele>
        <time>2019-12-17T10:35:08.000Z</time>
      </trkpt>
      <trkpt lat="43.36792" lon="6.00145">
        <ele>717</ele>
        <time>2019-12-17T10:35:09.000Z</time>
      </trkpt>
      <trkpt lat="43.36793" lon="6.00145">
        <ele>717</ele>
        <time>2019-12-17T10:35:10.000Z</time>
      </trkpt>
      <trkpt lat="43.36794" lon="6.00146">
        <ele>717</ele>
        <time>2019-12-17T10:35:11.000Z</time>
      </trkpt>
      <trkpt lat="43.36794" lon="6.00147">
        <ele>717</ele>
        <time>2019-12-17T10:35:12.000Z</time>
      </trkpt>
      <trkpt lat="43.36794" lon="6.00148">
        <ele>717</ele>
        <time>2019-12-17T10:35:13.000Z</time>
      </trkpt>
      <trkpt lat="43.36794" lon="6.00149">
        <ele>717</ele>
        <time>2019-12-17T10:35:14.000Z</time>
      </trkpt>
      <trkpt lat="43.36795" lon="6.0015">
        <ele>717</ele>
        <time>2019-12-17T10:35:15.000Z</time>
      </trkpt>
      <trkpt lat="43.36795" lon="6.00151">
        <ele>716</ele>
        <time>2019-12-17T10:35:16.000Z</time>
      </trkpt>
      <trkpt lat="43.36795" lon="6.00152">
        <ele>716</ele>
        <time>2019-12-17T10:35:17.000Z</time>
      </trkpt>
      <trkpt lat="43.36795" lon="6.00153">
        <ele>716</ele>
        <time>2019-12-17T10:35:18.000Z</time>
      </trkpt>
      <trkpt lat="43.36796" lon="6.00154">
        <ele>716</ele>
        <time>2019-12-17T10:35:19.000Z</time>
      </trkpt>
      <trkpt lat="43.36796" lon="6.00155">
        <ele>716</ele>
        <time>2019-12-17T10:35:20.000Z</time>
      </trkpt>
      <trkpt lat="43.36796" lon="6.00155">
        <ele>716</ele>
        <time>2019-12-17T10:35:21.000Z</time>
      </trkpt>
      <trkpt lat="43.36796" lon="6.00156">
        <ele>716</ele>
        <time>2019-12-17T10:35:22.000Z</time>
      </trkpt>
      <trkpt lat="43.36797" lon="6.00157">
        <ele>716</ele>
        <time>2019-12-17T10:35:23.000Z</time>
      </trkpt>
      <trkpt lat="43.36798" lon="6.00159">
        <ele>716</ele>
        <time>2019-12-17T10:35:24.000Z</time>
      </trkpt>
      <trkpt lat="43.36798" lon="6.0016">
        <ele>715</ele>
        <time>2019-12-17T10:35:25.000Z</time>
      </trkpt>
      <trkpt lat="43.36798" lon="6.00161">
        <ele>715</ele>
        <time>2019-12-17T10:35:26.000Z</time>
      </trkpt>
      <trkpt lat="43.36799" lon="6.00161">
        <ele>715</ele>
        <time>2019-12-17T10:35:27.000Z</time>
      </trkpt>
      <trkpt lat="43.36799" lon="6.00161">
        <ele>715</ele>
        <time>2019-12-17T10:35:28.000Z</time>
      </trkpt>
      <trkpt lat="43.36799" lon="6.00162">
        <ele>715</ele>
        <time>2019-12-17T10:35:29.000Z</time>
      </trkpt>
      <trkpt lat="43.36799" lon="6.00162">
        <ele>715</ele>
        <time>2019-12-17T10:35:30.000Z</time>
      </trkpt>
      <trkpt lat="43.36799" lon="6.00163">
        <ele>715</ele>
        <time>2019-12-17T10:35:31.000Z</time>
      </trkpt>
      <trkpt lat="43.36799" lon="6.00163">
        <ele>715</ele>
        <time>2019-12-17T10:35:32.000Z</time>
      </trkpt>
      <trkpt lat="43.36799" lon="6.00165">
        <ele>715</ele>
        <time>2019-12-17T10:35:33.000Z</time>
      </trkpt>
      <trkpt lat="43.36799" lon="6.00166">
        <ele>715</ele>
        <time>2019-12-17T10:35:34.000Z</time>
      </trkpt>
      <trkpt lat="43.36799" lon="6.00167">
        <ele>715</ele>
        <time>2019-12-17T10:35:35.000Z</time>
      </trkpt>
      <trkpt lat="43.36799" lon="6.00168">
        <ele>715</ele>
        <time>2019-12-17T10:35:36.000Z</time>
      </trkpt>
      <trkpt lat="43.36799" lon="6.0017">
        <ele>715</ele>
        <time>2019-12-17T10:35:37.000Z</time>
      </trkpt>
      <trkpt lat="43.36799" lon="6.00171">
        <ele>715</ele>
        <time>2019-12-17T10:35:38.000Z</time>
      </trkpt>
      <trkpt lat="43.36799" lon="6.00173">
        <ele>715</ele>
        <time>2019-12-17T10:35:39.000Z</time>
      </trkpt>
      <trkpt lat="43.36799" lon="6.00174">
        <ele>715</ele>
        <time>2019-12-17T10:35:40.000Z</time>
      </trkpt>
      <trkpt lat="43.36799" lon="6.00175">
        <ele>715</ele>
        <time>2019-12-17T10:35:41.000Z</time>
      </trkpt>
      <trkpt lat="43.368" lon="6.00176">
        <ele>715</ele>
        <time>2019-12-17T10:35:42.000Z</time>
      </trkpt>
      <trkpt lat="43.368" lon="6.00178">
        <ele>715</ele>
        <time>2019-12-17T10:35:43.000Z</time>
      </trkpt>
      <trkpt lat="43.368" lon="6.00178">
        <ele>715</ele>
        <time>2019-12-17T10:35:44.000Z</time>
      </trkpt>
      <trkpt lat="43.368" lon="6.00179">
        <ele>715</ele>
        <time>2019-12-17T10:35:45.000Z</time>
      </trkpt>
      <trkpt lat="43.368" lon="6.00179">
        <ele>715</ele>
        <time>2019-12-17T10:35:46.000Z</time>
      </trkpt>
      <trkpt lat="43.368" lon="6.0018">
        <ele>715</ele>
        <time>2019-12-17T10:35:47.000Z</time>
      </trkpt>
      <trkpt lat="43.368" lon="6.00181">
        <ele>715</ele>
        <time>2019-12-17T10:35:48.000Z</time>
      </trkpt>
      <trkpt lat="43.368" lon="6.00181">
        <ele>715</ele>
        <time>2019-12-17T10:35:49.000Z</time>
      </trkpt>
      <trkpt lat="43.36801" lon="6.00181">
        <ele>715</ele>
        <time>2019-12-17T10:35:50.000Z</time>
      </trkpt>
      <trkpt lat="43.36801" lon="6.00182">
        <ele>715</ele>
        <time>2019-12-17T10:35:51.000Z</time>
      </trkpt>
      <trkpt lat="43.36802" lon="6.00183">
        <ele>715</ele>
        <time>2019-12-17T10:35:52.000Z</time>
      </trkpt>
      <trkpt lat="43.36802" lon="6.00184">
        <ele>715</ele>
        <time>2019-12-17T10:35:53.000Z</time>
      </trkpt>
      <trkpt lat="43.36802" lon="6.00185">
        <ele>715</ele>
        <time>2019-12-17T10:35:54.000Z</time>
      </trkpt>
      <trkpt lat="43.36802" lon="6.00186">
        <ele>715</ele>
        <time>2019-12-17T10:35:55.000Z</time>
      </trkpt>
      <trkpt lat="43.36802" lon="6.00186">
        <ele>715</ele>
        <time>2019-12-17T10:35:56.000Z</time>
      </trkpt>
      <trkpt lat="43.36801" lon="6.00187">
        <ele>715</ele>
        <time>2019-12-17T10:35:57.000Z</time>
      </trkpt>
      <trkpt lat="43.36801" lon="6.00189">
        <ele>715</ele>
        <time>2019-12-17T10:35:58.000Z</time>
      </trkpt>
      <trkpt lat="43.36801" lon="6.00191">
        <ele>715</ele>
        <time>2019-12-17T10:35:59.000Z</time>
      </trkpt>
      <trkpt lat="43.368" lon="6.00192">
        <ele>715</ele>
        <time>2019-12-17T10:36:00.000Z</time>
      </trkpt>
      <trkpt lat="43.36799" lon="6.00194">
        <ele>715</ele>
        <time>2019-12-17T10:36:01.000Z</time>
      </trkpt>
      <trkpt lat="43.36798" lon="6.00195">
        <ele>715</ele>
        <time>2019-12-17T10:36:02.000Z</time>
      </trkpt>
      <trkpt lat="43.36798" lon="6.00196">
        <ele>715</ele>
        <time>2019-12-17T10:36:03.000Z</time>
      </trkpt>
      <trkpt lat="43.36797" lon="6.00198">
        <ele>715</ele>
        <time>2019-12-17T10:36:04.000Z</time>
      </trkpt>
      <trkpt lat="43.36797" lon="6.00198">
        <ele>715</ele>
        <time>2019-12-17T10:36:05.000Z</time>
      </trkpt>
      <trkpt lat="43.36797" lon="6.002">
        <ele>715</ele>
        <time>2019-12-17T10:36:06.000Z</time>
      </trkpt>
      <trkpt lat="43.36797" lon="6.00201">
        <ele>715</ele>
        <time>2019-12-17T10:36:07.000Z</time>
      </trkpt>
      <trkpt lat="43.36797" lon="6.00203">
        <ele>715</ele>
        <time>2019-12-17T10:36:08.000Z</time>
      </trkpt>
      <trkpt lat="43.36797" lon="6.00204">
        <ele>715</ele>
        <time>2019-12-17T10:36:09.000Z</time>
      </trkpt>
      <trkpt lat="43.36797" lon="6.00206">
        <ele>714</ele>
        <time>2019-12-17T10:36:10.000Z</time>
      </trkpt>
      <trkpt lat="43.36796" lon="6.00207">
        <ele>714</ele>
        <time>2019-12-17T10:36:11.000Z</time>
      </trkpt>
      <trkpt lat="43.36796" lon="6.00208">
        <ele>714</ele>
        <time>2019-12-17T10:36:12.000Z</time>
      </trkpt>
      <trkpt lat="43.36796" lon="6.00208">
        <ele>714</ele>
        <time>2019-12-17T10:36:13.000Z</time>
      </trkpt>
      <trkpt lat="43.36797" lon="6.00209">
        <ele>714</ele>
        <time>2019-12-17T10:36:14.000Z</time>
      </trkpt>
      <trkpt lat="43.36798" lon="6.0021">
        <ele>714</ele>
        <time>2019-12-17T10:36:15.000Z</time>
      </trkpt>
      <trkpt lat="43.36798" lon="6.00211">
        <ele>714</ele>
        <time>2019-12-17T10:36:16.000Z</time>
      </trkpt>
      <trkpt lat="43.36798" lon="6.00212">
        <ele>714</ele>
        <time>2019-12-17T10:36:17.000Z</time>
      </trkpt>
      <trkpt lat="43.36797" lon="6.00213">
        <ele>714</ele>
        <time>2019-12-17T10:36:18.000Z</time>
      </trkpt>
      <trkpt lat="43.36796" lon="6.00214">
        <ele>714</ele>
        <time>2019-12-17T10:36:19.000Z</time>
      </trkpt>
      <trkpt lat="43.36796" lon="6.00215">
        <ele>714</ele>
        <time>2019-12-17T10:36:20.000Z</time>
      </trkpt>
      <trkpt lat="43.36797" lon="6.00216">
        <ele>714</ele>
        <time>2019-12-17T10:36:21.000Z</time>
      </trkpt>
      <trkpt lat="43.36797" lon="6.00218">
        <ele>714</ele>
        <time>2019-12-17T10:36:22.000Z</time>
      </trkpt>
      <trkpt lat="43.36797" lon="6.00219">
        <ele>714</ele>
        <time>2019-12-17T10:36:23.000Z</time>
      </trkpt>
      <trkpt lat="43.36797" lon="6.0022">
        <ele>714</ele>
        <time>2019-12-17T10:36:24.000Z</time>
      </trkpt>
      <trkpt lat="43.36797" lon="6.00222">
        <ele>714</ele>
        <time>2019-12-17T10:36:25.000Z</time>
      </trkpt>
      <trkpt lat="43.36797" lon="6.00223">
        <ele>714</ele>
        <time>2019-12-17T10:36:26.000Z</time>
      </trkpt>
      <trkpt lat="43.36797" lon="6.00224">
        <ele>714</ele>
        <time>2019-12-17T10:36:27.000Z</time>
      </trkpt>
      <trkpt lat="43.36797" lon="6.00226">
        <ele>714</ele>
        <time>2019-12-17T10:36:28.000Z</time>
      </trkpt>
      <trkpt lat="43.36798" lon="6.00227">
        <ele>714</ele>
        <time>2019-12-17T10:36:29.000Z</time>
      </trkpt>
      <trkpt lat="43.36798" lon="6.00228">
        <ele>714</ele>
        <time>2019-12-17T10:36:30.000Z</time>
      </trkpt>
      <trkpt lat="43.36799" lon="6.00229">
        <ele>714</ele>
        <time>2019-12-17T10:36:31.000Z</time>
      </trkpt>
      <trkpt lat="43.36799" lon="6.0023">
        <ele>714</ele>
        <time>2019-12-17T10:36:32.000Z</time>
      </trkpt>
      <trkpt lat="43.36799" lon="6.00231">
        <ele>714</ele>
        <time>2019-12-17T10:36:33.000Z</time>
      </trkpt>
      <trkpt lat="43.36799" lon="6.00233">
        <ele>714</ele>
        <time>2019-12-17T10:36:34.000Z</time>
      </trkpt>
      <trkpt lat="43.36799" lon="6.00234">
        <ele>714</ele>
        <time>2019-12-17T10:36:35.000Z</time>
      </trkpt>
      <trkpt lat="43.368" lon="6.00235">
        <ele>713</ele>
        <time>2019-12-17T10:36:36.000Z</time>
      </trkpt>
      <trkpt lat="43.36799" lon="6.00237">
        <ele>713</ele>
        <time>2019-12-17T10:36:37.000Z</time>
      </trkpt>
      <trkpt lat="43.36799" lon="6.00238">
        <ele>713</ele>
        <time>2019-12-17T10:36:38.000Z</time>
      </trkpt>
      <trkpt lat="43.36799" lon="6.0024">
        <ele>713</ele>
        <time>2019-12-17T10:36:39.000Z</time>
      </trkpt>
      <trkpt lat="43.368" lon="6.00241">
        <ele>713</ele>
        <time>2019-12-17T10:36:40.000Z</time>
      </trkpt>
      <trkpt lat="43.36801" lon="6.00242">
        <ele>713</ele>
        <time>2019-12-17T10:36:41.000Z</time>
      </trkpt>
      <trkpt lat="43.36801" lon="6.00244">
        <ele>713</ele>
        <time>2019-12-17T10:36:42.000Z</time>
      </trkpt>
      <trkpt lat="43.36802" lon="6.00245">
        <ele>713</ele>
        <time>2019-12-17T10:36:43.000Z</time>
      </trkpt>
      <trkpt lat="43.36802" lon="6.00246">
        <ele>713</ele>
        <time>2019-12-17T10:36:44.000Z</time>
      </trkpt>
      <trkpt lat="43.36804" lon="6.00247">
        <ele>713</ele>
        <time>2019-12-17T10:36:45.000Z</time>
      </trkpt>
      <trkpt lat="43.36805" lon="6.00247">
        <ele>713</ele>
        <time>2019-12-17T10:36:46.000Z</time>
      </trkpt>
      <trkpt lat="43.36806" lon="6.00248">
        <ele>713</ele>
        <time>2019-12-17T10:36:47.000Z</time>
      </trkpt>
      <trkpt lat="43.36807" lon="6.00248">
        <ele>713</ele>
        <time>2019-12-17T10:36:48.000Z</time>
      </trkpt>
      <trkpt lat="43.36808" lon="6.00249">
        <ele>713</ele>
        <time>2019-12-17T10:36:49.000Z</time>
      </trkpt>
      <trkpt lat="43.36808" lon="6.0025">
        <ele>713</ele>
        <time>2019-12-17T10:36:50.000Z</time>
      </trkpt>
      <trkpt lat="43.36809" lon="6.00251">
        <ele>713</ele>
        <time>2019-12-17T10:36:51.000Z</time>
      </trkpt>
      <trkpt lat="43.36809" lon="6.00252">
        <ele>712</ele>
        <time>2019-12-17T10:36:52.000Z</time>
      </trkpt>
      <trkpt lat="43.3681" lon="6.00253">
        <ele>712</ele>
        <time>2019-12-17T10:36:53.000Z</time>
      </trkpt>
      <trkpt lat="43.3681" lon="6.00255">
        <ele>712</ele>
        <time>2019-12-17T10:36:54.000Z</time>
      </trkpt>
      <trkpt lat="43.3681" lon="6.00256">
        <ele>712</ele>
        <time>2019-12-17T10:36:55.000Z</time>
      </trkpt>
      <trkpt lat="43.36811" lon="6.00256">
        <ele>712</ele>
        <time>2019-12-17T10:36:56.000Z</time>
      </trkpt>
      <trkpt lat="43.36812" lon="6.00257">
        <ele>712</ele>
        <time>2019-12-17T10:36:57.000Z</time>
      </trkpt>
      <trkpt lat="43.36813" lon="6.00258">
        <ele>712</ele>
        <time>2019-12-17T10:36:58.000Z</time>
      </trkpt>
      <trkpt lat="43.36813" lon="6.00258">
        <ele>712</ele>
        <time>2019-12-17T10:36:59.000Z</time>
      </trkpt>
      <trkpt lat="43.36814" lon="6.00258">
        <ele>712</ele>
        <time>2019-12-17T10:37:00.000Z</time>
      </trkpt>
      <trkpt lat="43.36815" lon="6.00259">
        <ele>712</ele>
        <time>2019-12-17T10:37:01.000Z</time>
      </trkpt>
      <trkpt lat="43.36816" lon="6.00259">
        <ele>712</ele>
        <time>2019-12-17T10:37:02.000Z</time>
      </trkpt>
      <trkpt lat="43.36816" lon="6.00259">
        <ele>712</ele>
        <time>2019-12-17T10:37:03.000Z</time>
      </trkpt>
      <trkpt lat="43.36816" lon="6.00259">
        <ele>712</ele>
        <time>2019-12-17T10:37:04.000Z</time>
      </trkpt>
      <trkpt lat="43.36817" lon="6.00259">
        <ele>712</ele>
        <time>2019-12-17T10:37:05.000Z</time>
      </trkpt>
      <trkpt lat="43.36817" lon="6.0026">
        <ele>712</ele>
        <time>2019-12-17T10:37:06.000Z</time>
      </trkpt>
      <trkpt lat="43.36817" lon="6.0026">
        <ele>712</ele>
        <time>2019-12-17T10:37:07.000Z</time>
      </trkpt>
      <trkpt lat="43.36818" lon="6.0026">
        <ele>712</ele>
        <time>2019-12-17T10:37:08.000Z</time>
      </trkpt>
      <trkpt lat="43.36818" lon="6.00261">
        <ele>712</ele>
        <time>2019-12-17T10:37:09.000Z</time>
      </trkpt>
      <trkpt lat="43.36817" lon="6.00262">
        <ele>711</ele>
        <time>2019-12-17T10:37:10.000Z</time>
      </trkpt>
      <trkpt lat="43.36817" lon="6.00262">
        <ele>711</ele>
        <time>2019-12-17T10:37:11.000Z</time>
      </trkpt>
      <trkpt lat="43.36818" lon="6.00263">
        <ele>711</ele>
        <time>2019-12-17T10:37:12.000Z</time>
      </trkpt>
      <trkpt lat="43.36818" lon="6.00264">
        <ele>711</ele>
        <time>2019-12-17T10:37:13.000Z</time>
      </trkpt>
      <trkpt lat="43.36818" lon="6.00265">
        <ele>711</ele>
        <time>2019-12-17T10:37:14.000Z</time>
      </trkpt>
      <trkpt lat="43.36819" lon="6.00266">
        <ele>711</ele>
        <time>2019-12-17T10:37:15.000Z</time>
      </trkpt>
      <trkpt lat="43.36819" lon="6.00267">
        <ele>711</ele>
        <time>2019-12-17T10:37:16.000Z</time>
      </trkpt>
      <trkpt lat="43.36819" lon="6.00268">
        <ele>711</ele>
        <time>2019-12-17T10:37:17.000Z</time>
      </trkpt>
      <trkpt lat="43.36819" lon="6.00269">
        <ele>710</ele>
        <time>2019-12-17T10:37:18.000Z</time>
      </trkpt>
      <trkpt lat="43.3682" lon="6.0027">
        <ele>710</ele>
        <time>2019-12-17T10:37:19.000Z</time>
      </trkpt>
      <trkpt lat="43.3682" lon="6.00271">
        <ele>710</ele>
        <time>2019-12-17T10:37:20.000Z</time>
      </trkpt>
      <trkpt lat="43.3682" lon="6.00272">
        <ele>710</ele>
        <time>2019-12-17T10:37:21.000Z</time>
      </trkpt>
      <trkpt lat="43.3682" lon="6.00273">
        <ele>710</ele>
        <time>2019-12-17T10:37:22.000Z</time>
      </trkpt>
      <trkpt lat="43.3682" lon="6.00274">
        <ele>710</ele>
        <time>2019-12-17T10:37:23.000Z</time>
      </trkpt>
      <trkpt lat="43.3682" lon="6.00275">
        <ele>710</ele>
        <time>2019-12-17T10:37:24.000Z</time>
      </trkpt>
      <trkpt lat="43.3682" lon="6.00276">
        <ele>710</ele>
        <time>2019-12-17T10:37:25.000Z</time>
      </trkpt>
      <trkpt lat="43.36821" lon="6.00276">
        <ele>710</ele>
        <time>2019-12-17T10:37:26.000Z</time>
      </trkpt>
      <trkpt lat="43.36821" lon="6.00277">
        <ele>710</ele>
        <time>2019-12-17T10:37:27.000Z</time>
      </trkpt>
      <trkpt lat="43.36822" lon="6.00277">
        <ele>710</ele>
        <time>2019-12-17T10:37:28.000Z</time>
      </trkpt>
      <trkpt lat="43.36822" lon="6.00278">
        <ele>710</ele>
        <time>2019-12-17T10:37:29.000Z</time>
      </trkpt>
      <trkpt lat="43.36822" lon="6.00278">
        <ele>709</ele>
        <time>2019-12-17T10:37:30.000Z</time>
      </trkpt>
      <trkpt lat="43.36823" lon="6.00279">
        <ele>709</ele>
        <time>2019-12-17T10:37:31.000Z</time>
      </trkpt>
      <trkpt lat="43.36823" lon="6.00279">
        <ele>709</ele>
        <time>2019-12-17T10:37:32.000Z</time>
      </trkpt>
      <trkpt lat="43.36823" lon="6.0028">
        <ele>709</ele>
        <time>2019-12-17T10:37:33.000Z</time>
      </trkpt>
      <trkpt lat="43.36823" lon="6.0028">
        <ele>709</ele>
        <time>2019-12-17T10:37:34.000Z</time>
      </trkpt>
      <trkpt lat="43.36823" lon="6.0028">
        <ele>709</ele>
        <time>2019-12-17T10:37:35.000Z</time>
      </trkpt>
      <trkpt lat="43.36823" lon="6.0028">
        <ele>709</ele>
        <time>2019-12-17T10:37:36.000Z</time>
      </trkpt>
      <trkpt lat="43.36823" lon="6.0028">
        <ele>709</ele>
        <time>2019-12-17T10:37:37.000Z</time>
      </trkpt>
      <trkpt lat="43.36823" lon="6.0028">
        <ele>709</ele>
        <time>2019-12-17T10:37:38.000Z</time>
      </trkpt>
      <trkpt lat="43.36823" lon="6.0028">
        <ele>709</ele>
        <time>2019-12-17T10:37:39.000Z</time>
      </trkpt>
      <trkpt lat="43.36823" lon="6.00279">
        <ele>709</ele>
        <time>2019-12-17T10:37:40.000Z</time>
      </trkpt>
      <trkpt lat="43.36823" lon="6.00279">
        <ele>709</ele>
        <time>2019-12-17T10:37:41.000Z</time>
      </trkpt>
      <trkpt lat="43.36823" lon="6.00279">
        <ele>709</ele>
        <time>2019-12-17T10:37:42.000Z</time>
      </trkpt>
      <trkpt lat="43.36824" lon="6.00279">
        <ele>709</ele>
        <time>2019-12-17T10:37:43.000Z</time>
      </trkpt>
      <trkpt lat="43.36824" lon="6.0028">
        <ele>709</ele>
        <time>2019-12-17T10:37:44.000Z</time>
      </trkpt>
      <trkpt lat="43.36824" lon="6.0028">
        <ele>709</ele>
        <time>2019-12-17T10:37:45.000Z</time>
      </trkpt>
      <trkpt lat="43.36824" lon="6.0028">
        <ele>709</ele>
        <time>2019-12-17T10:37:46.000Z</time>
      </trkpt>
      <trkpt lat="43.36824" lon="6.0028">
        <ele>709</ele>
        <time>2019-12-17T10:37:47.000Z</time>
      </trkpt>
      <trkpt lat="43.36824" lon="6.0028">
        <ele>709</ele>
        <time>2019-12-17T10:37:48.000Z</time>
      </trkpt>
      <trkpt lat="43.36824" lon="6.0028">
        <ele>709</ele>
        <time>2019-12-17T10:37:49.000Z</time>
      </trkpt>
      <trkpt lat="43.36824" lon="6.0028">
        <ele>709</ele>
        <time>2019-12-17T10:37:50.000Z</time>
      </trkpt>
      <trkpt lat="43.36824" lon="6.0028">
        <ele>709</ele>
        <time>2019-12-17T10:37:51.000Z</time>
      </trkpt>
      <trkpt lat="43.36824" lon="6.0028">
        <ele>709</ele>
        <time>2019-12-17T10:37:52.000Z</time>
      </trkpt>
      <trkpt lat="43.36825" lon="6.0028">
        <ele>709</ele>
        <time>2019-12-17T10:37:53.000Z</time>
      </trkpt>
      <trkpt lat="43.36825" lon="6.0028">
        <ele>709</ele>
        <time>2019-12-17T10:37:54.000Z</time>
      </trkpt>
      <trkpt lat="43.36825" lon="6.0028">
        <ele>709</ele>
        <time>2019-12-17T10:37:55.000Z</time>
      </trkpt>
      <trkpt lat="43.36825" lon="6.0028">
        <ele>709</ele>
        <time>2019-12-17T10:37:56.000Z</time>
      </trkpt>
      <trkpt lat="43.36825" lon="6.00279">
        <ele>709</ele>
        <time>2019-12-17T10:37:57.000Z</time>
      </trkpt>
      <trkpt lat="43.36825" lon="6.00279">
        <ele>709</ele>
        <time>2019-12-17T10:37:58.000Z</time>
      </trkpt>
      <trkpt lat="43.36826" lon="6.0028">
        <ele>709</ele>
        <time>2019-12-17T10:37:59.000Z</time>
      </trkpt>
      <trkpt lat="43.36827" lon="6.0028">
        <ele>709</ele>
        <time>2019-12-17T10:38:00.000Z</time>
      </trkpt>
      <trkpt lat="43.36827" lon="6.00281">
        <ele>709</ele>
        <time>2019-12-17T10:38:01.000Z</time>
      </trkpt>
      <trkpt lat="43.36827" lon="6.00281">
        <ele>709</ele>
        <time>2019-12-17T10:38:02.000Z</time>
      </trkpt>
      <trkpt lat="43.36827" lon="6.00281">
        <ele>709</ele>
        <time>2019-12-17T10:38:03.000Z</time>
      </trkpt>
      <trkpt lat="43.36827" lon="6.00282">
        <ele>709</ele>
        <time>2019-12-17T10:38:04.000Z</time>
      </trkpt>
      <trkpt lat="43.36827" lon="6.00282">
        <ele>709</ele>
        <time>2019-12-17T10:38:05.000Z</time>
      </trkpt>
      <trkpt lat="43.36827" lon="6.00282">
        <ele>709</ele>
        <time>2019-12-17T10:38:06.000Z</time>
      </trkpt>
      <trkpt lat="43.36827" lon="6.00282">
        <ele>709</ele>
        <time>2019-12-17T10:38:07.000Z</time>
      </trkpt>
      <trkpt lat="43.36827" lon="6.00282">
        <ele>709</ele>
        <time>2019-12-17T10:38:08.000Z</time>
      </trkpt>
      <trkpt lat="43.36827" lon="6.00282">
        <ele>709</ele>
        <time>2019-12-17T10:38:09.000Z</time>
      </trkpt>
      <trkpt lat="43.36827" lon="6.00282">
        <ele>709</ele>
        <time>2019-12-17T10:38:10.000Z</time>
      </trkpt>
      <trkpt lat="43.36827" lon="6.00282">
        <ele>709</ele>
        <time>2019-12-17T10:38:11.000Z</time>
      </trkpt>
      <trkpt lat="43.36827" lon="6.00282">
        <ele>709</ele>
        <time>2019-12-17T10:38:12.000Z</time>
      </trkpt>
      <trkpt lat="43.36827" lon="6.00282">
        <ele>709</ele>
        <time>2019-12-17T10:38:13.000Z</time>
      </trkpt>
      <trkpt lat="43.36827" lon="6.00282">
        <ele>709</ele>
        <time>2019-12-17T10:38:14.000Z</time>
      </trkpt>
      <trkpt lat="43.36827" lon="6.00282">
        <ele>710</ele>
        <time>2019-12-17T10:38:15.000Z</time>
      </trkpt>
      <trkpt lat="43.36826" lon="6.00282">
        <ele>710</ele>
        <time>2019-12-17T10:38:16.000Z</time>
      </trkpt>
      <trkpt lat="43.36826" lon="6.00282">
        <ele>710</ele>
        <time>2019-12-17T10:38:17.000Z</time>
      </trkpt>
      <trkpt lat="43.36826" lon="6.00281">
        <ele>710</ele>
        <time>2019-12-17T10:38:18.000Z</time>
      </trkpt>
      <trkpt lat="43.36826" lon="6.00281">
        <ele>710</ele>
        <time>2019-12-17T10:38:19.000Z</time>
      </trkpt>
      <trkpt lat="43.36827" lon="6.00281">
        <ele>710</ele>
        <time>2019-12-17T10:38:20.000Z</time>
      </trkpt>
      <trkpt lat="43.36827" lon="6.00282">
        <ele>710</ele>
        <time>2019-12-17T10:38:21.000Z</time>
      </trkpt>
      <trkpt lat="43.36827" lon="6.00282">
        <ele>710</ele>
        <time>2019-12-17T10:38:22.000Z</time>
      </trkpt>
      <trkpt lat="43.36827" lon="6.00282">
        <ele>710</ele>
        <time>2019-12-17T10:38:23.000Z</time>
      </trkpt>
      <trkpt lat="43.36827" lon="6.00282">
        <ele>710</ele>
        <time>2019-12-17T10:38:24.000Z</time>
      </trkpt>
      <trkpt lat="43.36827" lon="6.00282">
        <ele>710</ele>
        <time>2019-12-17T10:38:25.000Z</time>
      </trkpt>
      <trkpt lat="43.36827" lon="6.00282">
        <ele>710</ele>
        <time>2019-12-17T10:38:26.000Z</time>
      </trkpt>
      <trkpt lat="43.36827" lon="6.00282">
        <ele>710</ele>
        <time>2019-12-17T10:38:27.000Z</time>
      </trkpt>
      <trkpt lat="43.36827" lon="6.00282">
        <ele>710</ele>
        <time>2019-12-17T10:38:28.000Z</time>
      </trkpt>
      <trkpt lat="43.36827" lon="6.00282">
        <ele>710</ele>
        <time>2019-12-17T10:38:29.000Z</time>
      </trkpt>
      <trkpt lat="43.36827" lon="6.00282">
        <ele>710</ele>
        <time>2019-12-17T10:38:30.000Z</time>
      </trkpt>
      <trkpt lat="43.36827" lon="6.00282">
        <ele>710</ele>
        <time>2019-12-17T10:38:31.000Z</time>
      </trkpt>
      <trkpt lat="43.36827" lon="6.00282">
        <ele>710</ele>
        <time>2019-12-17T10:38:32.000Z</time>
      </trkpt>
      <trkpt lat="43.36827" lon="6.00282">
        <ele>710</ele>
        <time>2019-12-17T10:38:33.000Z</time>
      </trkpt>
      <trkpt lat="43.36827" lon="6.00282">
        <ele>710</ele>
        <time>2019-12-17T10:38:34.000Z</time>
      </trkpt>
      <trkpt lat="43.36827" lon="6.00282">
        <ele>710</ele>
        <time>2019-12-17T10:38:35.000Z</time>
      </trkpt>
      <trkpt lat="43.36827" lon="6.00282">
        <ele>710</ele>
        <time>2019-12-17T10:38:36.000Z</time>
      </trkpt>
      <trkpt lat="43.36827" lon="6.00282">
        <ele>710</ele>
        <time>2019-12-17T10:38:37.000Z</time>
      </trkpt>
      <trkpt lat="43.36827" lon="6.00282">
        <ele>710</ele>
        <time>2019-12-17T10:38:38.000Z</time>
      </trkpt>
      <trkpt lat="43.36827" lon="6.00282">
        <ele>710</ele>
        <time>2019-12-17T10:38:39.000Z</time>
      </trkpt>
      <trkpt lat="43.36827" lon="6.00282">
        <ele>710</ele>
        <time>2019-12-17T10:38:40.000Z</time>
      </trkpt>
      <trkpt lat="43.36827" lon="6.00282">
        <ele>710</ele>
        <time>2019-12-17T10:38:41.000Z</time>
      </trkpt>
      <trkpt lat="43.36827" lon="6.00282">
        <ele>710</ele>
        <time>2019-12-17T10:38:42.000Z</time>
      </trkpt>
      <trkpt lat="43.36827" lon="6.00282">
        <ele>710</ele>
        <time>2019-12-17T10:38:43.000Z</time>
      </trkpt>
      <trkpt lat="43.36827" lon="6.00282">
        <ele>710</ele>
        <time>2019-12-17T10:38:44.000Z</time>
      </trkpt>
      <trkpt lat="43.36827" lon="6.00282">
        <ele>710</ele>
        <time>2019-12-17T10:38:45.000Z</time>
      </trkpt>
      <trkpt lat="43.36827" lon="6.00282">
        <ele>710</ele>
        <time>2019-12-17T10:38:46.000Z</time>
      </trkpt>
      <trkpt lat="43.36827" lon="6.00282">
        <ele>710</ele>
        <time>2019-12-17T10:38:47.000Z</time>
      </trkpt>
      <trkpt lat="43.36827" lon="6.00282">
        <ele>710</ele>
        <time>2019-12-17T10:38:48.000Z</time>
      </trkpt>
      <trkpt lat="43.36827" lon="6.00282">
        <ele>710</ele>
        <time>2019-12-17T10:38:49.000Z</time>
      </trkpt>
      <trkpt lat="43.36827" lon="6.00282">
        <ele>710</ele>
        <time>2019-12-17T10:38:50.000Z</time>
      </trkpt>
      <trkpt lat="43.36827" lon="6.00282">
        <ele>710</ele>
        <time>2019-12-17T10:38:51.000Z</time>
      </trkpt>
      <trkpt lat="43.36827" lon="6.00282">
        <ele>710</ele>
        <time>2019-12-17T10:38:52.000Z</time>
      </trkpt>
      <trkpt lat="43.36827" lon="6.00282">
        <ele>710</ele>
        <time>2019-12-17T10:38:53.000Z</time>
      </trkpt>
      <trkpt lat="43.36827" lon="6.00282">
        <ele>710</ele>
        <time>2019-12-17T10:38:54.000Z</time>
      </trkpt>
      <trkpt lat="43.36827" lon="6.00282">
        <ele>710</ele>
        <time>2019-12-17T10:38:55.000Z</time>
      </trkpt>
      <trkpt lat="43.36827" lon="6.00282">
        <ele>710</ele>
        <time>2019-12-17T10:38:56.000Z</time>
      </trkpt>
      <trkpt lat="43.36827" lon="6.00282">
        <ele>710</ele>
        <time>2019-12-17T10:38:57.000Z</time>
      </trkpt>
      <trkpt lat="43.36827" lon="6.00282">
        <ele>710</ele>
        <time>2019-12-17T10:38:58.000Z</time>
      </trkpt>
      <trkpt lat="43.36827" lon="6.00282">
        <ele>710</ele>
        <time>2019-12-17T10:38:59.000Z</time>
      </trkpt>
      <trkpt lat="43.36827" lon="6.00282">
        <ele>710</ele>
        <time>2019-12-17T10:39:00.000Z</time>
      </trkpt>
      <trkpt lat="43.36827" lon="6.00282">
        <ele>710</ele>
        <time>2019-12-17T10:39:01.000Z</time>
      </trkpt>
      <trkpt lat="43.36827" lon="6.00282">
        <ele>710</ele>
        <time>2019-12-17T10:39:02.000Z</time>
      </trkpt>
      <trkpt lat="43.36827" lon="6.00282">
        <ele>710</ele>
        <time>2019-12-17T10:39:03.000Z</time>
      </trkpt>
      <trkpt lat="43.36827" lon="6.00282">
        <ele>710</ele>
        <time>2019-12-17T10:39:04.000Z</time>
      </trkpt>
      <trkpt lat="43.36827" lon="6.00282">
        <ele>710</ele>
        <time>2019-12-17T10:39:05.000Z</time>
      </trkpt>
      <trkpt lat="43.36827" lon="6.00282">
        <ele>710</ele>
        <time>2019-12-17T10:39:06.000Z</time>
      </trkpt>
      <trkpt lat="43.36827" lon="6.00282">
        <ele>710</ele>
        <time>2019-12-17T10:39:07.000Z</time>
      </trkpt>
      <trkpt lat="43.36827" lon="6.00282">
        <ele>710</ele>
        <time>2019-12-17T10:39:08.000Z</time>
      </trkpt>
      <trkpt lat="43.36827" lon="6.00282">
        <ele>710</ele>
        <time>2019-12-17T10:39:09.000Z</time>
      </trkpt>
      <trkpt lat="43.36827" lon="6.00282">
        <ele>710</ele>
        <time>2019-12-17T10:39:10.000Z</time>
      </trkpt>
      <trkpt lat="43.36827" lon="6.00282">
        <ele>710</ele>
        <time>2019-12-17T10:39:11.000Z</time>
      </trkpt>
      <trkpt lat="43.36827" lon="6.00282">
        <ele>710</ele>
        <time>2019-12-17T10:39:12.000Z</time>
      </trkpt>
      <trkpt lat="43.36827" lon="6.00282">
        <ele>710</ele>
        <time>2019-12-17T10:39:13.000Z</time>
      </trkpt>
      <trkpt lat="43.36827" lon="6.00282">
        <ele>710</ele>
        <time>2019-12-17T10:39:14.000Z</time>
      </trkpt>
      <trkpt lat="43.36827" lon="6.00282">
        <ele>710</ele>
        <time>2019-12-17T10:39:15.000Z</time>
      </trkpt>
      <trkpt lat="43.36827" lon="6.00282">
        <ele>710</ele>
        <time>2019-12-17T10:39:16.000Z</time>
      </trkpt>
      <trkpt lat="43.36827" lon="6.00282">
        <ele>710</ele>
        <time>2019-12-17T10:39:17.000Z</time>
      </trkpt>
      <trkpt lat="43.36827" lon="6.00282">
        <ele>710</ele>
        <time>2019-12-17T10:39:18.000Z</time>
      </trkpt>
      <trkpt lat="43.36827" lon="6.00282">
        <ele>710</ele>
        <time>2019-12-17T10:39:19.000Z</time>
      </trkpt>
      <trkpt lat="43.36827" lon="6.00282">
        <ele>710</ele>
        <time>2019-12-17T10:39:20.000Z</time>
      </trkpt>
      <trkpt lat="43.36827" lon="6.00282">
        <ele>710</ele>
        <time>2019-12-17T10:39:21.000Z</time>
      </trkpt>
      <trkpt lat="43.36827" lon="6.00282">
        <ele>710</ele>
        <time>2019-12-17T10:39:22.000Z</time>
      </trkpt>
      <trkpt lat="43.36827" lon="6.00282">
        <ele>710</ele>
        <time>2019-12-17T10:39:23.000Z</time>
      </trkpt>
      <trkpt lat="43.36827" lon="6.00281">
        <ele>710</ele>
        <time>2019-12-17T10:39:24.000Z</time>
      </trkpt>
      <trkpt lat="43.36827" lon="6.00281">
        <ele>710</ele>
        <time>2019-12-17T10:39:25.000Z</time>
      </trkpt>
      <trkpt lat="43.36828" lon="6.00282">
        <ele>710</ele>
        <time>2019-12-17T10:39:26.000Z</time>
      </trkpt>
      <trkpt lat="43.36828" lon="6.00282">
        <ele>710</ele>
        <time>2019-12-17T10:39:27.000Z</time>
      </trkpt>
      <trkpt lat="43.36827" lon="6.00282">
        <ele>710</ele>
        <time>2019-12-17T10:39:28.000Z</time>
      </trkpt>
      <trkpt lat="43.36826" lon="6.00282">
        <ele>710</ele>
        <time>2019-12-17T10:39:29.000Z</time>
      </trkpt>
      <trkpt lat="43.36826" lon="6.00281">
        <ele>710</ele>
        <time>2019-12-17T10:39:30.000Z</time>
      </trkpt>
      <trkpt lat="43.36827" lon="6.00281">
        <ele>710</ele>
        <time>2019-12-17T10:39:31.000Z</time>
      </trkpt>
      <trkpt lat="43.36826" lon="6.00281">
        <ele>710</ele>
        <time>2019-12-17T10:39:32.000Z</time>
      </trkpt>
      <trkpt lat="43.36826" lon="6.00281">
        <ele>710</ele>
        <time>2019-12-17T10:39:33.000Z</time>
      </trkpt>
      <trkpt lat="43.36827" lon="6.00282">
        <ele>710</ele>
        <time>2019-12-17T10:39:34.000Z</time>
      </trkpt>
      <trkpt lat="43.36826" lon="6.00282">
        <ele>710</ele>
        <time>2019-12-17T10:39:35.000Z</time>
      </trkpt>
      <trkpt lat="43.36826" lon="6.00282">
        <ele>710</ele>
        <time>2019-12-17T10:39:36.000Z</time>
      </trkpt>
      <trkpt lat="43.36826" lon="6.00283">
        <ele>709</ele>
        <time>2019-12-17T10:39:37.000Z</time>
      </trkpt>
      <trkpt lat="43.36826" lon="6.00284">
        <ele>709</ele>
        <time>2019-12-17T10:39:38.000Z</time>
      </trkpt>
      <trkpt lat="43.36825" lon="6.00285">
        <ele>709</ele>
        <time>2019-12-17T10:39:39.000Z</time>
      </trkpt>
      <trkpt lat="43.36825" lon="6.00285">
        <ele>709</ele>
        <time>2019-12-17T10:39:40.000Z</time>
      </trkpt>
      <trkpt lat="43.36824" lon="6.00285">
        <ele>709</ele>
        <time>2019-12-17T10:39:41.000Z</time>
      </trkpt>
      <trkpt lat="43.36824" lon="6.00286">
        <ele>709</ele>
        <time>2019-12-17T10:39:42.000Z</time>
      </trkpt>
      <trkpt lat="43.36824" lon="6.00287">
        <ele>709</ele>
        <time>2019-12-17T10:39:43.000Z</time>
      </trkpt>
      <trkpt lat="43.36824" lon="6.00288">
        <ele>709</ele>
        <time>2019-12-17T10:39:44.000Z</time>
      </trkpt>
      <trkpt lat="43.36824" lon="6.00288">
        <ele>709</ele>
        <time>2019-12-17T10:39:45.000Z</time>
      </trkpt>
      <trkpt lat="43.36825" lon="6.00288">
        <ele>708</ele>
        <time>2019-12-17T10:39:46.000Z</time>
      </trkpt>
      <trkpt lat="43.36825" lon="6.00288">
        <ele>708</ele>
        <time>2019-12-17T10:39:47.000Z</time>
      </trkpt>
      <trkpt lat="43.36826" lon="6.00288">
        <ele>708</ele>
        <time>2019-12-17T10:39:48.000Z</time>
      </trkpt>
      <trkpt lat="43.36826" lon="6.00288">
        <ele>708</ele>
        <time>2019-12-17T10:39:49.000Z</time>
      </trkpt>
      <trkpt lat="43.36827" lon="6.00289">
        <ele>708</ele>
        <time>2019-12-17T10:39:50.000Z</time>
      </trkpt>
      <trkpt lat="43.36827" lon="6.00289">
        <ele>708</ele>
        <time>2019-12-17T10:39:51.000Z</time>
      </trkpt>
      <trkpt lat="43.36827" lon="6.0029">
        <ele>708</ele>
        <time>2019-12-17T10:39:52.000Z</time>
      </trkpt>
      <trkpt lat="43.36827" lon="6.00291">
        <ele>708</ele>
        <time>2019-12-17T10:39:53.000Z</time>
      </trkpt>
      <trkpt lat="43.36827" lon="6.00291">
        <ele>707</ele>
        <time>2019-12-17T10:39:54.000Z</time>
      </trkpt>
      <trkpt lat="43.36826" lon="6.00292">
        <ele>707</ele>
        <time>2019-12-17T10:39:55.000Z</time>
      </trkpt>
      <trkpt lat="43.36826" lon="6.00293">
        <ele>707</ele>
        <time>2019-12-17T10:39:56.000Z</time>
      </trkpt>
      <trkpt lat="43.36827" lon="6.00293">
        <ele>707</ele>
        <time>2019-12-17T10:39:57.000Z</time>
      </trkpt>
      <trkpt lat="43.36827" lon="6.00294">
        <ele>707</ele>
        <time>2019-12-17T10:39:58.000Z</time>
      </trkpt>
      <trkpt lat="43.36827" lon="6.00295">
        <ele>707</ele>
        <time>2019-12-17T10:39:59.000Z</time>
      </trkpt>
      <trkpt lat="43.36827" lon="6.00295">
        <ele>706</ele>
        <time>2019-12-17T10:40:00.000Z</time>
      </trkpt>
      <trkpt lat="43.36828" lon="6.00296">
        <ele>706</ele>
        <time>2019-12-17T10:40:01.000Z</time>
      </trkpt>
      <trkpt lat="43.36828" lon="6.00297">
        <ele>706</ele>
        <time>2019-12-17T10:40:02.000Z</time>
      </trkpt>
      <trkpt lat="43.36827" lon="6.00298">
        <ele>706</ele>
        <time>2019-12-17T10:40:03.000Z</time>
      </trkpt>
      <trkpt lat="43.36827" lon="6.00298">
        <ele>706</ele>
        <time>2019-12-17T10:40:04.000Z</time>
      </trkpt>
      <trkpt lat="43.36826" lon="6.00299">
        <ele>706</ele>
        <time>2019-12-17T10:40:05.000Z</time>
      </trkpt>
      <trkpt lat="43.36825" lon="6.00299">
        <ele>705</ele>
        <time>2019-12-17T10:40:06.000Z</time>
      </trkpt>
      <trkpt lat="43.36825" lon="6.00299">
        <ele>705</ele>
        <time>2019-12-17T10:40:07.000Z</time>
      </trkpt>
      <trkpt lat="43.36824" lon="6.003">
        <ele>705</ele>
        <time>2019-12-17T10:40:08.000Z</time>
      </trkpt>
      <trkpt lat="43.36824" lon="6.003">
        <ele>705</ele>
        <time>2019-12-17T10:40:09.000Z</time>
      </trkpt>
      <trkpt lat="43.36824" lon="6.003">
        <ele>705</ele>
        <time>2019-12-17T10:40:10.000Z</time>
      </trkpt>
      <trkpt lat="43.36824" lon="6.00301">
        <ele>705</ele>
        <time>2019-12-17T10:40:11.000Z</time>
      </trkpt>
      <trkpt lat="43.36824" lon="6.00301">
        <ele>705</ele>
        <time>2019-12-17T10:40:12.000Z</time>
      </trkpt>
      <trkpt lat="43.36825" lon="6.00302">
        <ele>704</ele>
        <time>2019-12-17T10:40:13.000Z</time>
      </trkpt>
      <trkpt lat="43.36825" lon="6.00303">
        <ele>704</ele>
        <time>2019-12-17T10:40:14.000Z</time>
      </trkpt>
      <trkpt lat="43.36825" lon="6.00303">
        <ele>704</ele>
        <time>2019-12-17T10:40:15.000Z</time>
      </trkpt>
      <trkpt lat="43.36825" lon="6.00304">
        <ele>704</ele>
        <time>2019-12-17T10:40:16.000Z</time>
      </trkpt>
      <trkpt lat="43.36826" lon="6.00305">
        <ele>703</ele>
        <time>2019-12-17T10:40:17.000Z</time>
      </trkpt>
      <trkpt lat="43.36827" lon="6.00305">
        <ele>703</ele>
        <time>2019-12-17T10:40:18.000Z</time>
      </trkpt>
      <trkpt lat="43.36827" lon="6.00306">
        <ele>703</ele>
        <time>2019-12-17T10:40:19.000Z</time>
      </trkpt>
      <trkpt lat="43.36827" lon="6.00306">
        <ele>703</ele>
        <time>2019-12-17T10:40:20.000Z</time>
      </trkpt>
      <trkpt lat="43.36828" lon="6.00307">
        <ele>703</ele>
        <time>2019-12-17T10:40:21.000Z</time>
      </trkpt>
      <trkpt lat="43.36829" lon="6.00308">
        <ele>703</ele>
        <time>2019-12-17T10:40:22.000Z</time>
      </trkpt>
      <trkpt lat="43.36829" lon="6.00308">
        <ele>703</ele>
        <time>2019-12-17T10:40:23.000Z</time>
      </trkpt>
      <trkpt lat="43.36829" lon="6.00309">
        <ele>702</ele>
        <time>2019-12-17T10:40:24.000Z</time>
      </trkpt>
      <trkpt lat="43.36829" lon="6.00309">
        <ele>702</ele>
        <time>2019-12-17T10:40:25.000Z</time>
      </trkpt>
      <trkpt lat="43.3683" lon="6.00309">
        <ele>702</ele>
        <time>2019-12-17T10:40:26.000Z</time>
      </trkpt>
      <trkpt lat="43.3683" lon="6.0031">
        <ele>702</ele>
        <time>2019-12-17T10:40:27.000Z</time>
      </trkpt>
      <trkpt lat="43.3683" lon="6.0031">
        <ele>702</ele>
        <time>2019-12-17T10:40:28.000Z</time>
      </trkpt>
      <trkpt lat="43.3683" lon="6.0031">
        <ele>702</ele>
        <time>2019-12-17T10:40:29.000Z</time>
      </trkpt>
      <trkpt lat="43.3683" lon="6.0031">
        <ele>702</ele>
        <time>2019-12-17T10:40:30.000Z</time>
      </trkpt>
      <trkpt lat="43.3683" lon="6.0031">
        <ele>701</ele>
        <time>2019-12-17T10:40:31.000Z</time>
      </trkpt>
      <trkpt lat="43.3683" lon="6.0031">
        <ele>701</ele>
        <time>2019-12-17T10:40:32.000Z</time>
      </trkpt>
      <trkpt lat="43.3683" lon="6.00311">
        <ele>701</ele>
        <time>2019-12-17T10:40:33.000Z</time>
      </trkpt>
      <trkpt lat="43.36831" lon="6.00311">
        <ele>701</ele>
        <time>2019-12-17T10:40:34.000Z</time>
      </trkpt>
      <trkpt lat="43.3683" lon="6.00312">
        <ele>701</ele>
        <time>2019-12-17T10:40:35.000Z</time>
      </trkpt>
      <trkpt lat="43.3683" lon="6.00312">
        <ele>701</ele>
        <time>2019-12-17T10:40:36.000Z</time>
      </trkpt>
      <trkpt lat="43.3683" lon="6.00312">
        <ele>701</ele>
        <time>2019-12-17T10:40:37.000Z</time>
      </trkpt>
      <trkpt lat="43.3683" lon="6.00313">
        <ele>700</ele>
        <time>2019-12-17T10:40:38.000Z</time>
      </trkpt>
      <trkpt lat="43.3683" lon="6.00314">
        <ele>700</ele>
        <time>2019-12-17T10:40:39.000Z</time>
      </trkpt>
      <trkpt lat="43.36831" lon="6.00314">
        <ele>700</ele>
        <time>2019-12-17T10:40:40.000Z</time>
      </trkpt>
      <trkpt lat="43.36831" lon="6.00314">
        <ele>700</ele>
        <time>2019-12-17T10:40:41.000Z</time>
      </trkpt>
      <trkpt lat="43.36831" lon="6.00314">
        <ele>700</ele>
        <time>2019-12-17T10:40:42.000Z</time>
      </trkpt>
      <trkpt lat="43.36831" lon="6.00314">
        <ele>700</ele>
        <time>2019-12-17T10:40:43.000Z</time>
      </trkpt>
      <trkpt lat="43.36831" lon="6.00314">
        <ele>700</ele>
        <time>2019-12-17T10:40:44.000Z</time>
      </trkpt>
      <trkpt lat="43.36831" lon="6.00314">
        <ele>700</ele>
        <time>2019-12-17T10:40:45.000Z</time>
      </trkpt>
      <trkpt lat="43.36831" lon="6.00314">
        <ele>699</ele>
        <time>2019-12-17T10:40:46.000Z</time>
      </trkpt>
      <trkpt lat="43.36831" lon="6.00314">
        <ele>699</ele>
        <time>2019-12-17T10:40:47.000Z</time>
      </trkpt>
      <trkpt lat="43.36831" lon="6.00314">
        <ele>699</ele>
        <time>2019-12-17T10:40:48.000Z</time>
      </trkpt>
      <trkpt lat="43.36831" lon="6.00315">
        <ele>699</ele>
        <time>2019-12-17T10:40:49.000Z</time>
      </trkpt>
      <trkpt lat="43.36831" lon="6.00316">
        <ele>699</ele>
        <time>2019-12-17T10:40:50.000Z</time>
      </trkpt>
      <trkpt lat="43.36831" lon="6.00316">
        <ele>699</ele>
        <time>2019-12-17T10:40:51.000Z</time>
      </trkpt>
      <trkpt lat="43.36831" lon="6.00316">
        <ele>699</ele>
        <time>2019-12-17T10:40:52.000Z</time>
      </trkpt>
      <trkpt lat="43.36831" lon="6.00316">
        <ele>699</ele>
        <time>2019-12-17T10:40:53.000Z</time>
      </trkpt>
      <trkpt lat="43.36831" lon="6.00316">
        <ele>699</ele>
        <time>2019-12-17T10:40:54.000Z</time>
      </trkpt>
      <trkpt lat="43.36831" lon="6.00316">
        <ele>699</ele>
        <time>2019-12-17T10:40:55.000Z</time>
      </trkpt>
      <trkpt lat="43.36831" lon="6.00316">
        <ele>699</ele>
        <time>2019-12-17T10:40:56.000Z</time>
      </trkpt>
      <trkpt lat="43.36831" lon="6.00316">
        <ele>698</ele>
        <time>2019-12-17T10:40:57.000Z</time>
      </trkpt>
      <trkpt lat="43.36831" lon="6.00316">
        <ele>698</ele>
        <time>2019-12-17T10:40:58.000Z</time>
      </trkpt>
      <trkpt lat="43.36831" lon="6.00316">
        <ele>698</ele>
        <time>2019-12-17T10:40:59.000Z</time>
      </trkpt>
      <trkpt lat="43.36831" lon="6.00316">
        <ele>698</ele>
        <time>2019-12-17T10:41:00.000Z</time>
      </trkpt>
      <trkpt lat="43.36831" lon="6.00316">
        <ele>698</ele>
        <time>2019-12-17T10:41:01.000Z</time>
      </trkpt>
      <trkpt lat="43.36831" lon="6.00317">
        <ele>698</ele>
        <time>2019-12-17T10:41:02.000Z</time>
      </trkpt>
      <trkpt lat="43.36831" lon="6.00317">
        <ele>698</ele>
        <time>2019-12-17T10:41:03.000Z</time>
      </trkpt>
      <trkpt lat="43.36831" lon="6.00317">
        <ele>698</ele>
        <time>2019-12-17T10:41:04.000Z</time>
      </trkpt>
      <trkpt lat="43.36831" lon="6.00317">
        <ele>698</ele>
        <time>2019-12-17T10:41:05.000Z</time>
      </trkpt>
      <trkpt lat="43.36831" lon="6.00317">
        <ele>698</ele>
        <time>2019-12-17T10:41:06.000Z</time>
      </trkpt>
      <trkpt lat="43.36831" lon="6.00317">
        <ele>698</ele>
        <time>2019-12-17T10:41:07.000Z</time>
      </trkpt>
      <trkpt lat="43.36831" lon="6.00317">
        <ele>698</ele>
        <time>2019-12-17T10:41:08.000Z</time>
      </trkpt>
      <trkpt lat="43.36831" lon="6.00318">
        <ele>698</ele>
        <time>2019-12-17T10:41:09.000Z</time>
      </trkpt>
      <trkpt lat="43.36831" lon="6.00319">
        <ele>698</ele>
        <time>2019-12-17T10:41:10.000Z</time>
      </trkpt>
      <trkpt lat="43.36831" lon="6.00319">
        <ele>698</ele>
        <time>2019-12-17T10:41:11.000Z</time>
      </trkpt>
      <trkpt lat="43.36832" lon="6.0032">
        <ele>697</ele>
        <time>2019-12-17T10:41:12.000Z</time>
      </trkpt>
      <trkpt lat="43.36832" lon="6.0032">
        <ele>697</ele>
        <time>2019-12-17T10:41:13.000Z</time>
      </trkpt>
      <trkpt lat="43.36832" lon="6.0032">
        <ele>697</ele>
        <time>2019-12-17T10:41:14.000Z</time>
      </trkpt>
      <trkpt lat="43.36832" lon="6.00319">
        <ele>697</ele>
        <time>2019-12-17T10:41:15.000Z</time>
      </trkpt>
      <trkpt lat="43.36832" lon="6.00319">
        <ele>697</ele>
        <time>2019-12-17T10:41:16.000Z</time>
      </trkpt>
      <trkpt lat="43.36833" lon="6.00319">
        <ele>697</ele>
        <time>2019-12-17T10:41:17.000Z</time>
      </trkpt>
      <trkpt lat="43.36833" lon="6.00319">
        <ele>697</ele>
        <time>2019-12-17T10:41:18.000Z</time>
      </trkpt>
      <trkpt lat="43.36834" lon="6.00319">
        <ele>697</ele>
        <time>2019-12-17T10:41:19.000Z</time>
      </trkpt>
      <trkpt lat="43.36834" lon="6.00319">
        <ele>697</ele>
        <time>2019-12-17T10:41:20.000Z</time>
      </trkpt>
      <trkpt lat="43.36834" lon="6.00319">
        <ele>697</ele>
        <time>2019-12-17T10:41:21.000Z</time>
      </trkpt>
      <trkpt lat="43.36835" lon="6.00318">
        <ele>696</ele>
        <time>2019-12-17T10:41:22.000Z</time>
      </trkpt>
      <trkpt lat="43.36835" lon="6.00318">
        <ele>696</ele>
        <time>2019-12-17T10:41:23.000Z</time>
      </trkpt>
      <trkpt lat="43.36835" lon="6.00319">
        <ele>696</ele>
        <time>2019-12-17T10:41:24.000Z</time>
      </trkpt>
      <trkpt lat="43.36835" lon="6.00319">
        <ele>696</ele>
        <time>2019-12-17T10:41:25.000Z</time>
      </trkpt>
      <trkpt lat="43.36835" lon="6.00319">
        <ele>696</ele>
        <time>2019-12-17T10:41:26.000Z</time>
      </trkpt>
      <trkpt lat="43.36835" lon="6.00319">
        <ele>696</ele>
        <time>2019-12-17T10:41:27.000Z</time>
      </trkpt>
      <trkpt lat="43.36835" lon="6.00319">
        <ele>696</ele>
        <time>2019-12-17T10:41:28.000Z</time>
      </trkpt>
      <trkpt lat="43.36836" lon="6.0032">
        <ele>696</ele>
        <time>2019-12-17T10:41:29.000Z</time>
      </trkpt>
      <trkpt lat="43.36836" lon="6.0032">
        <ele>695</ele>
        <time>2019-12-17T10:41:30.000Z</time>
      </trkpt>
      <trkpt lat="43.36836" lon="6.0032">
        <ele>695</ele>
        <time>2019-12-17T10:41:31.000Z</time>
      </trkpt>
      <trkpt lat="43.36836" lon="6.0032">
        <ele>695</ele>
        <time>2019-12-17T10:41:32.000Z</time>
      </trkpt>
      <trkpt lat="43.36836" lon="6.00321">
        <ele>695</ele>
        <time>2019-12-17T10:41:33.000Z</time>
      </trkpt>
      <trkpt lat="43.36837" lon="6.00321">
        <ele>695</ele>
        <time>2019-12-17T10:41:34.000Z</time>
      </trkpt>
      <trkpt lat="43.36837" lon="6.00321">
        <ele>695</ele>
        <time>2019-12-17T10:41:35.000Z</time>
      </trkpt>
      <trkpt lat="43.36837" lon="6.00322">
        <ele>695</ele>
        <time>2019-12-17T10:41:36.000Z</time>
      </trkpt>
      <trkpt lat="43.36837" lon="6.00323">
        <ele>694</ele>
        <time>2019-12-17T10:41:37.000Z</time>
      </trkpt>
      <trkpt lat="43.36837" lon="6.00323">
        <ele>694</ele>
        <time>2019-12-17T10:41:38.000Z</time>
      </trkpt>
      <trkpt lat="43.36836" lon="6.00323">
        <ele>694</ele>
        <time>2019-12-17T10:41:39.000Z</time>
      </trkpt>
      <trkpt lat="43.36836" lon="6.00324">
        <ele>694</ele>
        <time>2019-12-17T10:41:40.000Z</time>
      </trkpt>
      <trkpt lat="43.36837" lon="6.00324">
        <ele>694</ele>
        <time>2019-12-17T10:41:41.000Z</time>
      </trkpt>
      <trkpt lat="43.36837" lon="6.00325">
        <ele>694</ele>
        <time>2019-12-17T10:41:42.000Z</time>
      </trkpt>
      <trkpt lat="43.36837" lon="6.00325">
        <ele>694</ele>
        <time>2019-12-17T10:41:43.000Z</time>
      </trkpt>
      <trkpt lat="43.36837" lon="6.00325">
        <ele>694</ele>
        <time>2019-12-17T10:41:44.000Z</time>
      </trkpt>
      <trkpt lat="43.36837" lon="6.00325">
        <ele>694</ele>
        <time>2019-12-17T10:41:45.000Z</time>
      </trkpt>
      <trkpt lat="43.36837" lon="6.00326">
        <ele>694</ele>
        <time>2019-12-17T10:41:46.000Z</time>
      </trkpt>
      <trkpt lat="43.36837" lon="6.00326">
        <ele>694</ele>
        <time>2019-12-17T10:41:47.000Z</time>
      </trkpt>
      <trkpt lat="43.36837" lon="6.00326">
        <ele>694</ele>
        <time>2019-12-17T10:41:48.000Z</time>
      </trkpt>
      <trkpt lat="43.36837" lon="6.00326">
        <ele>694</ele>
        <time>2019-12-17T10:41:49.000Z</time>
      </trkpt>
      <trkpt lat="43.36837" lon="6.00326">
        <ele>694</ele>
        <time>2019-12-17T10:41:50.000Z</time>
      </trkpt>
      <trkpt lat="43.36838" lon="6.00327">
        <ele>694</ele>
        <time>2019-12-17T10:41:51.000Z</time>
      </trkpt>
      <trkpt lat="43.36838" lon="6.00327">
        <ele>693</ele>
        <time>2019-12-17T10:41:52.000Z</time>
      </trkpt>
      <trkpt lat="43.36838" lon="6.00327">
        <ele>693</ele>
        <time>2019-12-17T10:41:53.000Z</time>
      </trkpt>
      <trkpt lat="43.36838" lon="6.00328">
        <ele>693</ele>
        <time>2019-12-17T10:41:54.000Z</time>
      </trkpt>
      <trkpt lat="43.36838" lon="6.00328">
        <ele>693</ele>
        <time>2019-12-17T10:41:55.000Z</time>
      </trkpt>
      <trkpt lat="43.36838" lon="6.00328">
        <ele>693</ele>
        <time>2019-12-17T10:41:56.000Z</time>
      </trkpt>
      <trkpt lat="43.36838" lon="6.00328">
        <ele>693</ele>
        <time>2019-12-17T10:41:57.000Z</time>
      </trkpt>
      <trkpt lat="43.36838" lon="6.00328">
        <ele>693</ele>
        <time>2019-12-17T10:41:58.000Z</time>
      </trkpt>
      <trkpt lat="43.36838" lon="6.00328">
        <ele>693</ele>
        <time>2019-12-17T10:41:59.000Z</time>
      </trkpt>
      <trkpt lat="43.36838" lon="6.00328">
        <ele>692</ele>
        <time>2019-12-17T10:42:00.000Z</time>
      </trkpt>
      <trkpt lat="43.36838" lon="6.00328">
        <ele>692</ele>
        <time>2019-12-17T10:42:01.000Z</time>
      </trkpt>
      <trkpt lat="43.36838" lon="6.00329">
        <ele>692</ele>
        <time>2019-12-17T10:42:02.000Z</time>
      </trkpt>
      <trkpt lat="43.36838" lon="6.00329">
        <ele>692</ele>
        <time>2019-12-17T10:42:03.000Z</time>
      </trkpt>
      <trkpt lat="43.36838" lon="6.00329">
        <ele>692</ele>
        <time>2019-12-17T10:42:04.000Z</time>
      </trkpt>
      <trkpt lat="43.36838" lon="6.00329">
        <ele>692</ele>
        <time>2019-12-17T10:42:05.000Z</time>
      </trkpt>
      <trkpt lat="43.36838" lon="6.00329">
        <ele>692</ele>
        <time>2019-12-17T10:42:06.000Z</time>
      </trkpt>
      <trkpt lat="43.36838" lon="6.00329">
        <ele>692</ele>
        <time>2019-12-17T10:42:07.000Z</time>
      </trkpt>
      <trkpt lat="43.36838" lon="6.00329">
        <ele>692</ele>
        <time>2019-12-17T10:42:08.000Z</time>
      </trkpt>
      <trkpt lat="43.36838" lon="6.00329">
        <ele>692</ele>
        <time>2019-12-17T10:42:09.000Z</time>
      </trkpt>
      <trkpt lat="43.36838" lon="6.00329">
        <ele>692</ele>
        <time>2019-12-17T10:42:10.000Z</time>
      </trkpt>
      <trkpt lat="43.36838" lon="6.00329">
        <ele>692</ele>
        <time>2019-12-17T10:42:11.000Z</time>
      </trkpt>
      <trkpt lat="43.36838" lon="6.00329">
        <ele>692</ele>
        <time>2019-12-17T10:42:12.000Z</time>
      </trkpt>
      <trkpt lat="43.36838" lon="6.00329">
        <ele>691</ele>
        <time>2019-12-17T10:42:13.000Z</time>
      </trkpt>
      <trkpt lat="43.36838" lon="6.00329">
        <ele>691</ele>
        <time>2019-12-17T10:42:14.000Z</time>
      </trkpt>
      <trkpt lat="43.36837" lon="6.00329">
        <ele>691</ele>
        <time>2019-12-17T10:42:15.000Z</time>
      </trkpt>
      <trkpt lat="43.36837" lon="6.00329">
        <ele>691</ele>
        <time>2019-12-17T10:42:16.000Z</time>
      </trkpt>
      <trkpt lat="43.36837" lon="6.00329">
        <ele>691</ele>
        <time>2019-12-17T10:42:17.000Z</time>
      </trkpt>
      <trkpt lat="43.36837" lon="6.00329">
        <ele>691</ele>
        <time>2019-12-17T10:42:18.000Z</time>
      </trkpt>
      <trkpt lat="43.36836" lon="6.0033">
        <ele>690</ele>
        <time>2019-12-17T10:42:19.000Z</time>
      </trkpt>
      <trkpt lat="43.36836" lon="6.0033">
        <ele>690</ele>
        <time>2019-12-17T10:42:20.000Z</time>
      </trkpt>
      <trkpt lat="43.36836" lon="6.00331">
        <ele>690</ele>
        <time>2019-12-17T10:42:21.000Z</time>
      </trkpt>
      <trkpt lat="43.36836" lon="6.00331">
        <ele>690</ele>
        <time>2019-12-17T10:42:22.000Z</time>
      </trkpt>
      <trkpt lat="43.36836" lon="6.00332">
        <ele>690</ele>
        <time>2019-12-17T10:42:23.000Z</time>
      </trkpt>
      <trkpt lat="43.36836" lon="6.00332">
        <ele>690</ele>
        <time>2019-12-17T10:42:24.000Z</time>
      </trkpt>
      <trkpt lat="43.36836" lon="6.00333">
        <ele>689</ele>
        <time>2019-12-17T10:42:25.000Z</time>
      </trkpt>
      <trkpt lat="43.36836" lon="6.00333">
        <ele>689</ele>
        <time>2019-12-17T10:42:26.000Z</time>
      </trkpt>
      <trkpt lat="43.36835" lon="6.00333">
        <ele>689</ele>
        <time>2019-12-17T10:42:27.000Z</time>
      </trkpt>
      <trkpt lat="43.36835" lon="6.00333">
        <ele>689</ele>
        <time>2019-12-17T10:42:28.000Z</time>
      </trkpt>
      <trkpt lat="43.36835" lon="6.00334">
        <ele>688</ele>
        <time>2019-12-17T10:42:29.000Z</time>
      </trkpt>
      <trkpt lat="43.36834" lon="6.00334">
        <ele>688</ele>
        <time>2019-12-17T10:42:30.000Z</time>
      </trkpt>
      <trkpt lat="43.36834" lon="6.00334">
        <ele>688</ele>
        <time>2019-12-17T10:42:31.000Z</time>
      </trkpt>
      <trkpt lat="43.36834" lon="6.00334">
        <ele>688</ele>
        <time>2019-12-17T10:42:32.000Z</time>
      </trkpt>
      <trkpt lat="43.36833" lon="6.00334">
        <ele>687</ele>
        <time>2019-12-17T10:42:33.000Z</time>
      </trkpt>
      <trkpt lat="43.36833" lon="6.00334">
        <ele>687</ele>
        <time>2019-12-17T10:42:34.000Z</time>
      </trkpt>
      <trkpt lat="43.36833" lon="6.00334">
        <ele>687</ele>
        <time>2019-12-17T10:42:35.000Z</time>
      </trkpt>
      <trkpt lat="43.36832" lon="6.00334">
        <ele>686</ele>
        <time>2019-12-17T10:42:36.000Z</time>
      </trkpt>
      <trkpt lat="43.36832" lon="6.00335">
        <ele>686</ele>
        <time>2019-12-17T10:42:37.000Z</time>
      </trkpt>
      <trkpt lat="43.36832" lon="6.00336">
        <ele>686</ele>
        <time>2019-12-17T10:42:38.000Z</time>
      </trkpt>
      <trkpt lat="43.36832" lon="6.00336">
        <ele>685</ele>
        <time>2019-12-17T10:42:39.000Z</time>
      </trkpt>
      <trkpt lat="43.36832" lon="6.00337">
        <ele>685</ele>
        <time>2019-12-17T10:42:40.000Z</time>
      </trkpt>
      <trkpt lat="43.36832" lon="6.00338">
        <ele>685</ele>
        <time>2019-12-17T10:42:41.000Z</time>
      </trkpt>
      <trkpt lat="43.36832" lon="6.00339">
        <ele>684</ele>
        <time>2019-12-17T10:42:42.000Z</time>
      </trkpt>
      <trkpt lat="43.36832" lon="6.0034">
        <ele>684</ele>
        <time>2019-12-17T10:42:43.000Z</time>
      </trkpt>
      <trkpt lat="43.36831" lon="6.0034">
        <ele>684</ele>
        <time>2019-12-17T10:42:44.000Z</time>
      </trkpt>
      <trkpt lat="43.36831" lon="6.0034">
        <ele>683</ele>
        <time>2019-12-17T10:42:45.000Z</time>
      </trkpt>
      <trkpt lat="43.36831" lon="6.0034">
        <ele>683</ele>
        <time>2019-12-17T10:42:46.000Z</time>
      </trkpt>
      <trkpt lat="43.36831" lon="6.00341">
        <ele>683</ele>
        <time>2019-12-17T10:42:47.000Z</time>
      </trkpt>
      <trkpt lat="43.36831" lon="6.00341">
        <ele>683</ele>
        <time>2019-12-17T10:42:48.000Z</time>
      </trkpt>
      <trkpt lat="43.36831" lon="6.00341">
        <ele>682</ele>
        <time>2019-12-17T10:42:49.000Z</time>
      </trkpt>
      <trkpt lat="43.36832" lon="6.00342">
        <ele>682</ele>
        <time>2019-12-17T10:42:50.000Z</time>
      </trkpt>
      <trkpt lat="43.36832" lon="6.00342">
        <ele>682</ele>
        <time>2019-12-17T10:42:51.000Z</time>
      </trkpt>
      <trkpt lat="43.36832" lon="6.00342">
        <ele>682</ele>
        <time>2019-12-17T10:42:52.000Z</time>
      </trkpt>
      <trkpt lat="43.36832" lon="6.00342">
        <ele>682</ele>
        <time>2019-12-17T10:42:53.000Z</time>
      </trkpt>
      <trkpt lat="43.36832" lon="6.00342">
        <ele>682</ele>
        <time>2019-12-17T10:42:54.000Z</time>
      </trkpt>
      <trkpt lat="43.36832" lon="6.00342">
        <ele>681</ele>
        <time>2019-12-17T10:42:55.000Z</time>
      </trkpt>
      <trkpt lat="43.36832" lon="6.00342">
        <ele>681</ele>
        <time>2019-12-17T10:42:56.000Z</time>
      </trkpt>
      <trkpt lat="43.36832" lon="6.00342">
        <ele>681</ele>
        <time>2019-12-17T10:42:57.000Z</time>
      </trkpt>
      <trkpt lat="43.36832" lon="6.00342">
        <ele>681</ele>
        <time>2019-12-17T10:42:58.000Z</time>
      </trkpt>
      <trkpt lat="43.36832" lon="6.00342">
        <ele>681</ele>
        <time>2019-12-17T10:42:59.000Z</time>
      </trkpt>
      <trkpt lat="43.36832" lon="6.00342">
        <ele>681</ele>
        <time>2019-12-17T10:43:00.000Z</time>
      </trkpt>
      <trkpt lat="43.36832" lon="6.00342">
        <ele>681</ele>
        <time>2019-12-17T10:43:01.000Z</time>
      </trkpt>
      <trkpt lat="43.36832" lon="6.00343">
        <ele>681</ele>
        <time>2019-12-17T10:43:02.000Z</time>
      </trkpt>
      <trkpt lat="43.36832" lon="6.00343">
        <ele>681</ele>
        <time>2019-12-17T10:43:03.000Z</time>
      </trkpt>
      <trkpt lat="43.36832" lon="6.00343">
        <ele>681</ele>
        <time>2019-12-17T10:43:04.000Z</time>
      </trkpt>
      <trkpt lat="43.36832" lon="6.00343">
        <ele>681</ele>
        <time>2019-12-17T10:43:05.000Z</time>
      </trkpt>
      <trkpt lat="43.36832" lon="6.00343">
        <ele>680</ele>
        <time>2019-12-17T10:43:06.000Z</time>
      </trkpt>
      <trkpt lat="43.36832" lon="6.00343">
        <ele>680</ele>
        <time>2019-12-17T10:43:07.000Z</time>
      </trkpt>
      <trkpt lat="43.36832" lon="6.00343">
        <ele>680</ele>
        <time>2019-12-17T10:43:08.000Z</time>
      </trkpt>
      <trkpt lat="43.36832" lon="6.00343">
        <ele>680</ele>
        <time>2019-12-17T10:43:09.000Z</time>
      </trkpt>
      <trkpt lat="43.36832" lon="6.00343">
        <ele>680</ele>
        <time>2019-12-17T10:43:10.000Z</time>
      </trkpt>
      <trkpt lat="43.36832" lon="6.00343">
        <ele>680</ele>
        <time>2019-12-17T10:43:11.000Z</time>
      </trkpt>
      <trkpt lat="43.36832" lon="6.00343">
        <ele>680</ele>
        <time>2019-12-17T10:43:12.000Z</time>
      </trkpt>
      <trkpt lat="43.36832" lon="6.00343">
        <ele>680</ele>
        <time>2019-12-17T10:43:13.000Z</time>
      </trkpt>
      <trkpt lat="43.36833" lon="6.00343">
        <ele>680</ele>
        <time>2019-12-17T10:43:14.000Z</time>
      </trkpt>
      <trkpt lat="43.36832" lon="6.00344">
        <ele>680</ele>
        <time>2019-12-17T10:43:15.000Z</time>
      </trkpt>
      <trkpt lat="43.36832" lon="6.00344">
        <ele>680</ele>
        <time>2019-12-17T10:43:16.000Z</time>
      </trkpt>
      <trkpt lat="43.36832" lon="6.00345">
        <ele>680</ele>
        <time>2019-12-17T10:43:17.000Z</time>
      </trkpt>
      <trkpt lat="43.36832" lon="6.00346">
        <ele>680</ele>
        <time>2019-12-17T10:43:18.000Z</time>
      </trkpt>
      <trkpt lat="43.36832" lon="6.00346">
        <ele>680</ele>
        <time>2019-12-17T10:43:19.000Z</time>
      </trkpt>
      <trkpt lat="43.36832" lon="6.00346">
        <ele>680</ele>
        <time>2019-12-17T10:43:20.000Z</time>
      </trkpt>
      <trkpt lat="43.36831" lon="6.00347">
        <ele>679</ele>
        <time>2019-12-17T10:43:21.000Z</time>
      </trkpt>
      <trkpt lat="43.36831" lon="6.00348">
        <ele>679</ele>
        <time>2019-12-17T10:43:22.000Z</time>
      </trkpt>
      <trkpt lat="43.36831" lon="6.00348">
        <ele>679</ele>
        <time>2019-12-17T10:43:23.000Z</time>
      </trkpt>
      <trkpt lat="43.36831" lon="6.00349">
        <ele>679</ele>
        <time>2019-12-17T10:43:24.000Z</time>
      </trkpt>
      <trkpt lat="43.36831" lon="6.00349">
        <ele>679</ele>
        <time>2019-12-17T10:43:25.000Z</time>
      </trkpt>
      <trkpt lat="43.36831" lon="6.0035">
        <ele>679</ele>
        <time>2019-12-17T10:43:26.000Z</time>
      </trkpt>
      <trkpt lat="43.36831" lon="6.0035">
        <ele>678</ele>
        <time>2019-12-17T10:43:27.000Z</time>
      </trkpt>
      <trkpt lat="43.36831" lon="6.00351">
        <ele>678</ele>
        <time>2019-12-17T10:43:28.000Z</time>
      </trkpt>
      <trkpt lat="43.36831" lon="6.00352">
        <ele>678</ele>
        <time>2019-12-17T10:43:29.000Z</time>
      </trkpt>
      <trkpt lat="43.36831" lon="6.00352">
        <ele>678</ele>
        <time>2019-12-17T10:43:30.000Z</time>
      </trkpt>
      <trkpt lat="43.36831" lon="6.00353">
        <ele>678</ele>
        <time>2019-12-17T10:43:31.000Z</time>
      </trkpt>
      <trkpt lat="43.3683" lon="6.00354">
        <ele>677</ele>
        <time>2019-12-17T10:43:32.000Z</time>
      </trkpt>
      <trkpt lat="43.3683" lon="6.00354">
        <ele>677</ele>
        <time>2019-12-17T10:43:33.000Z</time>
      </trkpt>
      <trkpt lat="43.3683" lon="6.00354">
        <ele>677</ele>
        <time>2019-12-17T10:43:34.000Z</time>
      </trkpt>
      <trkpt lat="43.3683" lon="6.00354">
        <ele>677</ele>
        <time>2019-12-17T10:43:35.000Z</time>
      </trkpt>
      <trkpt lat="43.3683" lon="6.00354">
        <ele>677</ele>
        <time>2019-12-17T10:43:36.000Z</time>
      </trkpt>
      <trkpt lat="43.3683" lon="6.00354">
        <ele>677</ele>
        <time>2019-12-17T10:43:37.000Z</time>
      </trkpt>
      <trkpt lat="43.3683" lon="6.00355">
        <ele>676</ele>
        <time>2019-12-17T10:43:38.000Z</time>
      </trkpt>
      <trkpt lat="43.36829" lon="6.00355">
        <ele>676</ele>
        <time>2019-12-17T10:43:39.000Z</time>
      </trkpt>
      <trkpt lat="43.36829" lon="6.00356">
        <ele>676</ele>
        <time>2019-12-17T10:43:40.000Z</time>
      </trkpt>
      <trkpt lat="43.3683" lon="6.00357">
        <ele>676</ele>
        <time>2019-12-17T10:43:41.000Z</time>
      </trkpt>
      <trkpt lat="43.3683" lon="6.00358">
        <ele>676</ele>
        <time>2019-12-17T10:43:42.000Z</time>
      </trkpt>
      <trkpt lat="43.3683" lon="6.00358">
        <ele>676</ele>
        <time>2019-12-17T10:43:43.000Z</time>
      </trkpt>
      <trkpt lat="43.36829" lon="6.00359">
        <ele>676</ele>
        <time>2019-12-17T10:43:44.000Z</time>
      </trkpt>
      <trkpt lat="43.36829" lon="6.00359">
        <ele>675</ele>
        <time>2019-12-17T10:43:45.000Z</time>
      </trkpt>
      <trkpt lat="43.36829" lon="6.0036">
        <ele>675</ele>
        <time>2019-12-17T10:43:46.000Z</time>
      </trkpt>
      <trkpt lat="43.36829" lon="6.00361">
        <ele>675</ele>
        <time>2019-12-17T10:43:47.000Z</time>
      </trkpt>
      <trkpt lat="43.36829" lon="6.00362">
        <ele>675</ele>
        <time>2019-12-17T10:43:48.000Z</time>
      </trkpt>
      <trkpt lat="43.36829" lon="6.00362">
        <ele>675</ele>
        <time>2019-12-17T10:43:49.000Z</time>
      </trkpt>
      <trkpt lat="43.36829" lon="6.00363">
        <ele>675</ele>
        <time>2019-12-17T10:43:50.000Z</time>
      </trkpt>
      <trkpt lat="43.3683" lon="6.00363">
        <ele>675</ele>
        <time>2019-12-17T10:43:51.000Z</time>
      </trkpt>
      <trkpt lat="43.3683" lon="6.00363">
        <ele>675</ele>
        <time>2019-12-17T10:43:52.000Z</time>
      </trkpt>
      <trkpt lat="43.3683" lon="6.00363">
        <ele>675</ele>
        <time>2019-12-17T10:43:53.000Z</time>
      </trkpt>
      <trkpt lat="43.3683" lon="6.00364">
        <ele>675</ele>
        <time>2019-12-17T10:43:54.000Z</time>
      </trkpt>
      <trkpt lat="43.3683" lon="6.00364">
        <ele>675</ele>
        <time>2019-12-17T10:43:55.000Z</time>
      </trkpt>
      <trkpt lat="43.36831" lon="6.00365">
        <ele>675</ele>
        <time>2019-12-17T10:43:56.000Z</time>
      </trkpt>
      <trkpt lat="43.36831" lon="6.00365">
        <ele>674</ele>
        <time>2019-12-17T10:43:57.000Z</time>
      </trkpt>
      <trkpt lat="43.3683" lon="6.00366">
        <ele>674</ele>
        <time>2019-12-17T10:43:58.000Z</time>
      </trkpt>
      <trkpt lat="43.3683" lon="6.00366">
        <ele>674</ele>
        <time>2019-12-17T10:43:59.000Z</time>
      </trkpt>
      <trkpt lat="43.3683" lon="6.00366">
        <ele>674</ele>
        <time>2019-12-17T10:44:00.000Z</time>
      </trkpt>
      <trkpt lat="43.3683" lon="6.00366">
        <ele>674</ele>
        <time>2019-12-17T10:44:01.000Z</time>
      </trkpt>
      <trkpt lat="43.3683" lon="6.00366">
        <ele>674</ele>
        <time>2019-12-17T10:44:02.000Z</time>
      </trkpt>
      <trkpt lat="43.3683" lon="6.00366">
        <ele>674</ele>
        <time>2019-12-17T10:44:03.000Z</time>
      </trkpt>
      <trkpt lat="43.3683" lon="6.00366">
        <ele>673</ele>
        <time>2019-12-17T10:44:04.000Z</time>
      </trkpt>
      <trkpt lat="43.3683" lon="6.00366">
        <ele>673</ele>
        <time>2019-12-17T10:44:05.000Z</time>
      </trkpt>
      <trkpt lat="43.3683" lon="6.00365">
        <ele>673</ele>
        <time>2019-12-17T10:44:06.000Z</time>
      </trkpt>
      <trkpt lat="43.3683" lon="6.00365">
        <ele>673</ele>
        <time>2019-12-17T10:44:07.000Z</time>
      </trkpt>
      <trkpt lat="43.3683" lon="6.00365">
        <ele>673</ele>
        <time>2019-12-17T10:44:08.000Z</time>
      </trkpt>
      <trkpt lat="43.3683" lon="6.00365">
        <ele>673</ele>
        <time>2019-12-17T10:44:09.000Z</time>
      </trkpt>
      <trkpt lat="43.36829" lon="6.00365">
        <ele>673</ele>
        <time>2019-12-17T10:44:10.000Z</time>
      </trkpt>
      <trkpt lat="43.36829" lon="6.00365">
        <ele>672</ele>
        <time>2019-12-17T10:44:11.000Z</time>
      </trkpt>
      <trkpt lat="43.36829" lon="6.00365">
        <ele>672</ele>
        <time>2019-12-17T10:44:12.000Z</time>
      </trkpt>
      <trkpt lat="43.36829" lon="6.00366">
        <ele>672</ele>
        <time>2019-12-17T10:44:13.000Z</time>
      </trkpt>
      <trkpt lat="43.36828" lon="6.00366">
        <ele>672</ele>
        <time>2019-12-17T10:44:14.000Z</time>
      </trkpt>
      <trkpt lat="43.36828" lon="6.00366">
        <ele>672</ele>
        <time>2019-12-17T10:44:15.000Z</time>
      </trkpt>
      <trkpt lat="43.36828" lon="6.00366">
        <ele>672</ele>
        <time>2019-12-17T10:44:16.000Z</time>
      </trkpt>
      <trkpt lat="43.36828" lon="6.00366">
        <ele>672</ele>
        <time>2019-12-17T10:44:17.000Z</time>
      </trkpt>
      <trkpt lat="43.36828" lon="6.00366">
        <ele>672</ele>
        <time>2019-12-17T10:44:18.000Z</time>
      </trkpt>
      <trkpt lat="43.36829" lon="6.00366">
        <ele>672</ele>
        <time>2019-12-17T10:44:19.000Z</time>
      </trkpt>
      <trkpt lat="43.36829" lon="6.00366">
        <ele>672</ele>
        <time>2019-12-17T10:44:20.000Z</time>
      </trkpt>
      <trkpt lat="43.36829" lon="6.00366">
        <ele>671</ele>
        <time>2019-12-17T10:44:21.000Z</time>
      </trkpt>
      <trkpt lat="43.36829" lon="6.00367">
        <ele>671</ele>
        <time>2019-12-17T10:44:22.000Z</time>
      </trkpt>
      <trkpt lat="43.36829" lon="6.00367">
        <ele>671</ele>
        <time>2019-12-17T10:44:23.000Z</time>
      </trkpt>
      <trkpt lat="43.36829" lon="6.00369">
        <ele>671</ele>
        <time>2019-12-17T10:44:24.000Z</time>
      </trkpt>
      <trkpt lat="43.36829" lon="6.0037">
        <ele>671</ele>
        <time>2019-12-17T10:44:25.000Z</time>
      </trkpt>
      <trkpt lat="43.36829" lon="6.00371">
        <ele>671</ele>
        <time>2019-12-17T10:44:26.000Z</time>
      </trkpt>
      <trkpt lat="43.36829" lon="6.00372">
        <ele>671</ele>
        <time>2019-12-17T10:44:27.000Z</time>
      </trkpt>
      <trkpt lat="43.36829" lon="6.00373">
        <ele>671</ele>
        <time>2019-12-17T10:44:28.000Z</time>
      </trkpt>
      <trkpt lat="43.36829" lon="6.00375">
        <ele>671</ele>
        <time>2019-12-17T10:44:29.000Z</time>
      </trkpt>
      <trkpt lat="43.36829" lon="6.00376">
        <ele>671</ele>
        <time>2019-12-17T10:44:30.000Z</time>
      </trkpt>
      <trkpt lat="43.36829" lon="6.00378">
        <ele>671</ele>
        <time>2019-12-17T10:44:31.000Z</time>
      </trkpt>
      <trkpt lat="43.36829" lon="6.0038">
        <ele>670</ele>
        <time>2019-12-17T10:44:32.000Z</time>
      </trkpt>
      <trkpt lat="43.3683" lon="6.00382">
        <ele>670</ele>
        <time>2019-12-17T10:44:33.000Z</time>
      </trkpt>
      <trkpt lat="43.3683" lon="6.00383">
        <ele>670</ele>
        <time>2019-12-17T10:44:34.000Z</time>
      </trkpt>
      <trkpt lat="43.36831" lon="6.00385">
        <ele>670</ele>
        <time>2019-12-17T10:44:35.000Z</time>
      </trkpt>
      <trkpt lat="43.36831" lon="6.00387">
        <ele>670</ele>
        <time>2019-12-17T10:44:36.000Z</time>
      </trkpt>
      <trkpt lat="43.36832" lon="6.00389">
        <ele>670</ele>
        <time>2019-12-17T10:44:37.000Z</time>
      </trkpt>
      <trkpt lat="43.36832" lon="6.0039">
        <ele>670</ele>
        <time>2019-12-17T10:44:38.000Z</time>
      </trkpt>
      <trkpt lat="43.36833" lon="6.00391">
        <ele>670</ele>
        <time>2019-12-17T10:44:39.000Z</time>
      </trkpt>
      <trkpt lat="43.36835" lon="6.00393">
        <ele>670</ele>
        <time>2019-12-17T10:44:40.000Z</time>
      </trkpt>
      <trkpt lat="43.36835" lon="6.00394">
        <ele>670</ele>
        <time>2019-12-17T10:44:41.000Z</time>
      </trkpt>
      <trkpt lat="43.36836" lon="6.00395">
        <ele>670</ele>
        <time>2019-12-17T10:44:42.000Z</time>
      </trkpt>
      <trkpt lat="43.36837" lon="6.00397">
        <ele>669</ele>
        <time>2019-12-17T10:44:43.000Z</time>
      </trkpt>
      <trkpt lat="43.36837" lon="6.00399">
        <ele>669</ele>
        <time>2019-12-17T10:44:44.000Z</time>
      </trkpt>
      <trkpt lat="43.36838" lon="6.004">
        <ele>669</ele>
        <time>2019-12-17T10:44:45.000Z</time>
      </trkpt>
      <trkpt lat="43.36838" lon="6.00402">
        <ele>669</ele>
        <time>2019-12-17T10:44:46.000Z</time>
      </trkpt>
      <trkpt lat="43.36839" lon="6.00403">
        <ele>669</ele>
        <time>2019-12-17T10:44:47.000Z</time>
      </trkpt>
      <trkpt lat="43.36839" lon="6.00403">
        <ele>669</ele>
        <time>2019-12-17T10:44:48.000Z</time>
      </trkpt>
      <trkpt lat="43.3684" lon="6.00404">
        <ele>668</ele>
        <time>2019-12-17T10:44:49.000Z</time>
      </trkpt>
      <trkpt lat="43.36841" lon="6.00405">
        <ele>668</ele>
        <time>2019-12-17T10:44:50.000Z</time>
      </trkpt>
      <trkpt lat="43.36842" lon="6.00406">
        <ele>668</ele>
        <time>2019-12-17T10:44:51.000Z</time>
      </trkpt>
      <trkpt lat="43.36843" lon="6.00407">
        <ele>668</ele>
        <time>2019-12-17T10:44:52.000Z</time>
      </trkpt>
      <trkpt lat="43.36845" lon="6.00408">
        <ele>667</ele>
        <time>2019-12-17T10:44:53.000Z</time>
      </trkpt>
      <trkpt lat="43.36846" lon="6.00409">
        <ele>667</ele>
        <time>2019-12-17T10:44:54.000Z</time>
      </trkpt>
      <trkpt lat="43.36847" lon="6.00411">
        <ele>667</ele>
        <time>2019-12-17T10:44:55.000Z</time>
      </trkpt>
      <trkpt lat="43.36848" lon="6.00412">
        <ele>667</ele>
        <time>2019-12-17T10:44:56.000Z</time>
      </trkpt>
      <trkpt lat="43.36848" lon="6.00413">
        <ele>666</ele>
        <time>2019-12-17T10:44:57.000Z</time>
      </trkpt>
      <trkpt lat="43.36849" lon="6.00414">
        <ele>666</ele>
        <time>2019-12-17T10:44:58.000Z</time>
      </trkpt>
      <trkpt lat="43.36849" lon="6.00415">
        <ele>666</ele>
        <time>2019-12-17T10:44:59.000Z</time>
      </trkpt>
      <trkpt lat="43.36849" lon="6.00417">
        <ele>666</ele>
        <time>2019-12-17T10:45:00.000Z</time>
      </trkpt>
      <trkpt lat="43.36849" lon="6.00418">
        <ele>666</ele>
        <time>2019-12-17T10:45:01.000Z</time>
      </trkpt>
      <trkpt lat="43.36849" lon="6.00419">
        <ele>665</ele>
        <time>2019-12-17T10:45:02.000Z</time>
      </trkpt>
      <trkpt lat="43.36849" lon="6.0042">
        <ele>665</ele>
        <time>2019-12-17T10:45:03.000Z</time>
      </trkpt>
      <trkpt lat="43.36849" lon="6.00421">
        <ele>665</ele>
        <time>2019-12-17T10:45:04.000Z</time>
      </trkpt>
      <trkpt lat="43.36849" lon="6.00421">
        <ele>665</ele>
        <time>2019-12-17T10:45:05.000Z</time>
      </trkpt>
      <trkpt lat="43.36849" lon="6.00421">
        <ele>664</ele>
        <time>2019-12-17T10:45:06.000Z</time>
      </trkpt>
      <trkpt lat="43.36849" lon="6.00422">
        <ele>664</ele>
        <time>2019-12-17T10:45:07.000Z</time>
      </trkpt>
      <trkpt lat="43.36849" lon="6.00422">
        <ele>664</ele>
        <time>2019-12-17T10:45:08.000Z</time>
      </trkpt>
      <trkpt lat="43.36849" lon="6.00423">
        <ele>664</ele>
        <time>2019-12-17T10:45:09.000Z</time>
      </trkpt>
      <trkpt lat="43.36849" lon="6.00424">
        <ele>663</ele>
        <time>2019-12-17T10:45:10.000Z</time>
      </trkpt>
      <trkpt lat="43.36849" lon="6.00424">
        <ele>663</ele>
        <time>2019-12-17T10:45:11.000Z</time>
      </trkpt>
      <trkpt lat="43.36849" lon="6.00425">
        <ele>663</ele>
        <time>2019-12-17T10:45:12.000Z</time>
      </trkpt>
      <trkpt lat="43.36849" lon="6.00426">
        <ele>663</ele>
        <time>2019-12-17T10:45:13.000Z</time>
      </trkpt>
      <trkpt lat="43.36848" lon="6.00426">
        <ele>662</ele>
        <time>2019-12-17T10:45:14.000Z</time>
      </trkpt>
      <trkpt lat="43.36848" lon="6.00427">
        <ele>662</ele>
        <time>2019-12-17T10:45:15.000Z</time>
      </trkpt>
      <trkpt lat="43.36848" lon="6.00428">
        <ele>662</ele>
        <time>2019-12-17T10:45:16.000Z</time>
      </trkpt>
      <trkpt lat="43.36848" lon="6.0043">
        <ele>662</ele>
        <time>2019-12-17T10:45:17.000Z</time>
      </trkpt>
      <trkpt lat="43.36848" lon="6.00431">
        <ele>661</ele>
        <time>2019-12-17T10:45:18.000Z</time>
      </trkpt>
      <trkpt lat="43.36847" lon="6.00431">
        <ele>661</ele>
        <time>2019-12-17T10:45:19.000Z</time>
      </trkpt>
      <trkpt lat="43.36847" lon="6.0043">
        <ele>661</ele>
        <time>2019-12-17T10:45:20.000Z</time>
      </trkpt>
      <trkpt lat="43.36847" lon="6.0043">
        <ele>661</ele>
        <time>2019-12-17T10:45:21.000Z</time>
      </trkpt>
      <trkpt lat="43.36846" lon="6.00431">
        <ele>661</ele>
        <time>2019-12-17T10:45:22.000Z</time>
      </trkpt>
      <trkpt lat="43.36846" lon="6.00431">
        <ele>660</ele>
        <time>2019-12-17T10:45:23.000Z</time>
      </trkpt>
      <trkpt lat="43.36846" lon="6.00432">
        <ele>660</ele>
        <time>2019-12-17T10:45:24.000Z</time>
      </trkpt>
      <trkpt lat="43.36845" lon="6.00432">
        <ele>660</ele>
        <time>2019-12-17T10:45:25.000Z</time>
      </trkpt>
      <trkpt lat="43.36844" lon="6.00432">
        <ele>660</ele>
        <time>2019-12-17T10:45:26.000Z</time>
      </trkpt>
      <trkpt lat="43.36844" lon="6.00431">
        <ele>659</ele>
        <time>2019-12-17T10:45:27.000Z</time>
      </trkpt>
      <trkpt lat="43.36844" lon="6.00431">
        <ele>659</ele>
        <time>2019-12-17T10:45:28.000Z</time>
      </trkpt>
      <trkpt lat="43.36844" lon="6.00431">
        <ele>659</ele>
        <time>2019-12-17T10:45:29.000Z</time>
      </trkpt>
      <trkpt lat="43.36844" lon="6.00431">
        <ele>659</ele>
        <time>2019-12-17T10:45:30.000Z</time>
      </trkpt>
      <trkpt lat="43.36844" lon="6.00431">
        <ele>659</ele>
        <time>2019-12-17T10:45:31.000Z</time>
      </trkpt>
      <trkpt lat="43.36844" lon="6.00431">
        <ele>659</ele>
        <time>2019-12-17T10:45:32.000Z</time>
      </trkpt>
      <trkpt lat="43.36844" lon="6.00431">
        <ele>659</ele>
        <time>2019-12-17T10:45:33.000Z</time>
      </trkpt>
      <trkpt lat="43.36844" lon="6.00431">
        <ele>659</ele>
        <time>2019-12-17T10:45:34.000Z</time>
      </trkpt>
      <trkpt lat="43.36844" lon="6.00431">
        <ele>658</ele>
        <time>2019-12-17T10:45:35.000Z</time>
      </trkpt>
      <trkpt lat="43.36844" lon="6.00431">
        <ele>658</ele>
        <time>2019-12-17T10:45:36.000Z</time>
      </trkpt>
      <trkpt lat="43.36844" lon="6.0043">
        <ele>658</ele>
        <time>2019-12-17T10:45:37.000Z</time>
      </trkpt>
      <trkpt lat="43.36844" lon="6.0043">
        <ele>658</ele>
        <time>2019-12-17T10:45:38.000Z</time>
      </trkpt>
      <trkpt lat="43.36844" lon="6.0043">
        <ele>658</ele>
        <time>2019-12-17T10:45:39.000Z</time>
      </trkpt>
      <trkpt lat="43.36844" lon="6.0043">
        <ele>658</ele>
        <time>2019-12-17T10:45:40.000Z</time>
      </trkpt>
      <trkpt lat="43.36844" lon="6.00431">
        <ele>658</ele>
        <time>2019-12-17T10:45:41.000Z</time>
      </trkpt>
      <trkpt lat="43.36844" lon="6.00431">
        <ele>657</ele>
        <time>2019-12-17T10:45:42.000Z</time>
      </trkpt>
      <trkpt lat="43.36844" lon="6.00431">
        <ele>657</ele>
        <time>2019-12-17T10:45:43.000Z</time>
      </trkpt>
      <trkpt lat="43.36845" lon="6.00431">
        <ele>657</ele>
        <time>2019-12-17T10:45:44.000Z</time>
      </trkpt>
      <trkpt lat="43.36844" lon="6.00431">
        <ele>657</ele>
        <time>2019-12-17T10:45:45.000Z</time>
      </trkpt>
      <trkpt lat="43.36844" lon="6.00431">
        <ele>657</ele>
        <time>2019-12-17T10:45:46.000Z</time>
      </trkpt>
      <trkpt lat="43.36844" lon="6.0043">
        <ele>657</ele>
        <time>2019-12-17T10:45:47.000Z</time>
      </trkpt>
      <trkpt lat="43.36844" lon="6.0043">
        <ele>657</ele>
        <time>2019-12-17T10:45:48.000Z</time>
      </trkpt>
      <trkpt lat="43.36844" lon="6.0043">
        <ele>657</ele>
        <time>2019-12-17T10:45:49.000Z</time>
      </trkpt>
      <trkpt lat="43.36844" lon="6.0043">
        <ele>657</ele>
        <time>2019-12-17T10:45:50.000Z</time>
      </trkpt>
      <trkpt lat="43.36845" lon="6.0043">
        <ele>657</ele>
        <time>2019-12-17T10:45:51.000Z</time>
      </trkpt>
      <trkpt lat="43.36845" lon="6.00431">
        <ele>656</ele>
        <time>2019-12-17T10:45:52.000Z</time>
      </trkpt>
      <trkpt lat="43.36844" lon="6.00431">
        <ele>656</ele>
        <time>2019-12-17T10:45:53.000Z</time>
      </trkpt>
      <trkpt lat="43.36844" lon="6.00432">
        <ele>656</ele>
        <time>2019-12-17T10:45:54.000Z</time>
      </trkpt>
      <trkpt lat="43.36844" lon="6.00432">
        <ele>656</ele>
        <time>2019-12-17T10:45:55.000Z</time>
      </trkpt>
      <trkpt lat="43.36844" lon="6.00432">
        <ele>656</ele>
        <time>2019-12-17T10:45:56.000Z</time>
      </trkpt>
      <trkpt lat="43.36844" lon="6.00433">
        <ele>656</ele>
        <time>2019-12-17T10:45:57.000Z</time>
      </trkpt>
      <trkpt lat="43.36844" lon="6.00433">
        <ele>656</ele>
        <time>2019-12-17T10:45:58.000Z</time>
      </trkpt>
      <trkpt lat="43.36845" lon="6.00434">
        <ele>656</ele>
        <time>2019-12-17T10:45:59.000Z</time>
      </trkpt>
      <trkpt lat="43.36845" lon="6.00435">
        <ele>655</ele>
        <time>2019-12-17T10:46:00.000Z</time>
      </trkpt>
      <trkpt lat="43.36845" lon="6.00436">
        <ele>655</ele>
        <time>2019-12-17T10:46:01.000Z</time>
      </trkpt>
      <trkpt lat="43.36845" lon="6.00437">
        <ele>655</ele>
        <time>2019-12-17T10:46:02.000Z</time>
      </trkpt>
      <trkpt lat="43.36845" lon="6.00438">
        <ele>655</ele>
        <time>2019-12-17T10:46:03.000Z</time>
      </trkpt>
      <trkpt lat="43.36844" lon="6.00439">
        <ele>655</ele>
        <time>2019-12-17T10:46:04.000Z</time>
      </trkpt>
      <trkpt lat="43.36844" lon="6.00441">
        <ele>655</ele>
        <time>2019-12-17T10:46:05.000Z</time>
      </trkpt>
      <trkpt lat="43.36844" lon="6.00441">
        <ele>655</ele>
        <time>2019-12-17T10:46:06.000Z</time>
      </trkpt>
      <trkpt lat="43.36844" lon="6.00442">
        <ele>655</ele>
        <time>2019-12-17T10:46:07.000Z</time>
      </trkpt>
      <trkpt lat="43.36844" lon="6.00443">
        <ele>655</ele>
        <time>2019-12-17T10:46:08.000Z</time>
      </trkpt>
      <trkpt lat="43.36845" lon="6.00443">
        <ele>655</ele>
        <time>2019-12-17T10:46:09.000Z</time>
      </trkpt>
      <trkpt lat="43.36845" lon="6.00443">
        <ele>655</ele>
        <time>2019-12-17T10:46:10.000Z</time>
      </trkpt>
      <trkpt lat="43.36846" lon="6.00443">
        <ele>654</ele>
        <time>2019-12-17T10:46:11.000Z</time>
      </trkpt>
      <trkpt lat="43.36846" lon="6.00443">
        <ele>654</ele>
        <time>2019-12-17T10:46:12.000Z</time>
      </trkpt>
      <trkpt lat="43.36847" lon="6.00443">
        <ele>654</ele>
        <time>2019-12-17T10:46:13.000Z</time>
      </trkpt>
      <trkpt lat="43.36847" lon="6.00443">
        <ele>654</ele>
        <time>2019-12-17T10:46:14.000Z</time>
      </trkpt>
      <trkpt lat="43.36848" lon="6.00444">
        <ele>654</ele>
        <time>2019-12-17T10:46:15.000Z</time>
      </trkpt>
      <trkpt lat="43.36849" lon="6.00444">
        <ele>654</ele>
        <time>2019-12-17T10:46:16.000Z</time>
      </trkpt>
      <trkpt lat="43.36849" lon="6.00444">
        <ele>654</ele>
        <time>2019-12-17T10:46:17.000Z</time>
      </trkpt>
      <trkpt lat="43.3685" lon="6.00444">
        <ele>653</ele>
        <time>2019-12-17T10:46:18.000Z</time>
      </trkpt>
      <trkpt lat="43.36851" lon="6.00445">
        <ele>653</ele>
        <time>2019-12-17T10:46:19.000Z</time>
      </trkpt>
      <trkpt lat="43.36851" lon="6.00445">
        <ele>653</ele>
        <time>2019-12-17T10:46:20.000Z</time>
      </trkpt>
      <trkpt lat="43.36852" lon="6.00446">
        <ele>653</ele>
        <time>2019-12-17T10:46:21.000Z</time>
      </trkpt>
      <trkpt lat="43.36852" lon="6.00447">
        <ele>653</ele>
        <time>2019-12-17T10:46:22.000Z</time>
      </trkpt>
      <trkpt lat="43.36852" lon="6.00448">
        <ele>653</ele>
        <time>2019-12-17T10:46:23.000Z</time>
      </trkpt>
      <trkpt lat="43.36851" lon="6.00449">
        <ele>652</ele>
        <time>2019-12-17T10:46:24.000Z</time>
      </trkpt>
      <trkpt lat="43.36851" lon="6.00449">
        <ele>652</ele>
        <time>2019-12-17T10:46:25.000Z</time>
      </trkpt>
      <trkpt lat="43.36851" lon="6.0045">
        <ele>652</ele>
        <time>2019-12-17T10:46:26.000Z</time>
      </trkpt>
      <trkpt lat="43.36851" lon="6.00451">
        <ele>652</ele>
        <time>2019-12-17T10:46:27.000Z</time>
      </trkpt>
      <trkpt lat="43.36851" lon="6.00452">
        <ele>652</ele>
        <time>2019-12-17T10:46:28.000Z</time>
      </trkpt>
      <trkpt lat="43.36851" lon="6.00453">
        <ele>652</ele>
        <time>2019-12-17T10:46:29.000Z</time>
      </trkpt>
      <trkpt lat="43.36851" lon="6.00454">
        <ele>651</ele>
        <time>2019-12-17T10:46:30.000Z</time>
      </trkpt>
      <trkpt lat="43.36851" lon="6.00455">
        <ele>651</ele>
        <time>2019-12-17T10:46:31.000Z</time>
      </trkpt>
      <trkpt lat="43.36852" lon="6.00455">
        <ele>651</ele>
        <time>2019-12-17T10:46:32.000Z</time>
      </trkpt>
      <trkpt lat="43.36852" lon="6.00456">
        <ele>650</ele>
        <time>2019-12-17T10:46:33.000Z</time>
      </trkpt>
      <trkpt lat="43.36852" lon="6.00456">
        <ele>650</ele>
        <time>2019-12-17T10:46:34.000Z</time>
      </trkpt>
      <trkpt lat="43.36852" lon="6.00457">
        <ele>650</ele>
        <time>2019-12-17T10:46:35.000Z</time>
      </trkpt>
      <trkpt lat="43.36851" lon="6.00458">
        <ele>650</ele>
        <time>2019-12-17T10:46:36.000Z</time>
      </trkpt>
      <trkpt lat="43.3685" lon="6.00459">
        <ele>650</ele>
        <time>2019-12-17T10:46:37.000Z</time>
      </trkpt>
      <trkpt lat="43.3685" lon="6.00459">
        <ele>649</ele>
        <time>2019-12-17T10:46:38.000Z</time>
      </trkpt>
      <trkpt lat="43.3685" lon="6.00461">
        <ele>649</ele>
        <time>2019-12-17T10:46:39.000Z</time>
      </trkpt>
      <trkpt lat="43.3685" lon="6.00462">
        <ele>649</ele>
        <time>2019-12-17T10:46:40.000Z</time>
      </trkpt>
      <trkpt lat="43.36849" lon="6.00464">
        <ele>649</ele>
        <time>2019-12-17T10:46:41.000Z</time>
      </trkpt>
      <trkpt lat="43.36849" lon="6.00466">
        <ele>649</ele>
        <time>2019-12-17T10:46:42.000Z</time>
      </trkpt>
      <trkpt lat="43.36848" lon="6.00467">
        <ele>648</ele>
        <time>2019-12-17T10:46:43.000Z</time>
      </trkpt>
      <trkpt lat="43.36848" lon="6.00469">
        <ele>648</ele>
        <time>2019-12-17T10:46:44.000Z</time>
      </trkpt>
      <trkpt lat="43.36848" lon="6.00471">
        <ele>648</ele>
        <time>2019-12-17T10:46:45.000Z</time>
      </trkpt>
      <trkpt lat="43.36848" lon="6.00472">
        <ele>648</ele>
        <time>2019-12-17T10:46:46.000Z</time>
      </trkpt>
      <trkpt lat="43.36847" lon="6.00474">
        <ele>647</ele>
        <time>2019-12-17T10:46:47.000Z</time>
      </trkpt>
      <trkpt lat="43.36847" lon="6.00476">
        <ele>647</ele>
        <time>2019-12-17T10:46:48.000Z</time>
      </trkpt>
      <trkpt lat="43.36847" lon="6.00477">
        <ele>647</ele>
        <time>2019-12-17T10:46:49.000Z</time>
      </trkpt>
      <trkpt lat="43.36848" lon="6.00478">
        <ele>647</ele>
        <time>2019-12-17T10:46:50.000Z</time>
      </trkpt>
      <trkpt lat="43.36848" lon="6.0048">
        <ele>647</ele>
        <time>2019-12-17T10:46:51.000Z</time>
      </trkpt>
      <trkpt lat="43.36848" lon="6.00482">
        <ele>646</ele>
        <time>2019-12-17T10:46:52.000Z</time>
      </trkpt>
      <trkpt lat="43.36848" lon="6.00483">
        <ele>646</ele>
        <time>2019-12-17T10:46:53.000Z</time>
      </trkpt>
      <trkpt lat="43.36848" lon="6.00484">
        <ele>646</ele>
        <time>2019-12-17T10:46:54.000Z</time>
      </trkpt>
      <trkpt lat="43.36849" lon="6.00486">
        <ele>646</ele>
        <time>2019-12-17T10:46:55.000Z</time>
      </trkpt>
      <trkpt lat="43.36849" lon="6.00487">
        <ele>646</ele>
        <time>2019-12-17T10:46:56.000Z</time>
      </trkpt>
      <trkpt lat="43.36848" lon="6.00488">
        <ele>646</ele>
        <time>2019-12-17T10:46:57.000Z</time>
      </trkpt>
      <trkpt lat="43.36848" lon="6.00488">
        <ele>646</ele>
        <time>2019-12-17T10:46:58.000Z</time>
      </trkpt>
      <trkpt lat="43.36848" lon="6.00488">
        <ele>646</ele>
        <time>2019-12-17T10:46:59.000Z</time>
      </trkpt>
      <trkpt lat="43.36848" lon="6.00488">
        <ele>646</ele>
        <time>2019-12-17T10:47:00.000Z</time>
      </trkpt>
      <trkpt lat="43.36848" lon="6.00488">
        <ele>645</ele>
        <time>2019-12-17T10:47:01.000Z</time>
      </trkpt>
      <trkpt lat="43.36848" lon="6.00488">
        <ele>645</ele>
        <time>2019-12-17T10:47:02.000Z</time>
      </trkpt>
      <trkpt lat="43.36848" lon="6.00488">
        <ele>645</ele>
        <time>2019-12-17T10:47:03.000Z</time>
      </trkpt>
      <trkpt lat="43.36848" lon="6.00488">
        <ele>645</ele>
        <time>2019-12-17T10:47:04.000Z</time>
      </trkpt>
      <trkpt lat="43.36848" lon="6.00488">
        <ele>645</ele>
        <time>2019-12-17T10:47:05.000Z</time>
      </trkpt>
      <trkpt lat="43.36849" lon="6.00489">
        <ele>645</ele>
        <time>2019-12-17T10:47:06.000Z</time>
      </trkpt>
      <trkpt lat="43.36849" lon="6.00489">
        <ele>645</ele>
        <time>2019-12-17T10:47:07.000Z</time>
      </trkpt>
      <trkpt lat="43.36849" lon="6.0049">
        <ele>645</ele>
        <time>2019-12-17T10:47:08.000Z</time>
      </trkpt>
      <trkpt lat="43.3685" lon="6.00491">
        <ele>645</ele>
        <time>2019-12-17T10:47:09.000Z</time>
      </trkpt>
      <trkpt lat="43.3685" lon="6.00491">
        <ele>645</ele>
        <time>2019-12-17T10:47:10.000Z</time>
      </trkpt>
      <trkpt lat="43.36851" lon="6.00493">
        <ele>645</ele>
        <time>2019-12-17T10:47:11.000Z</time>
      </trkpt>
      <trkpt lat="43.36851" lon="6.00494">
        <ele>645</ele>
        <time>2019-12-17T10:47:12.000Z</time>
      </trkpt>
      <trkpt lat="43.36851" lon="6.00495">
        <ele>644</ele>
        <time>2019-12-17T10:47:13.000Z</time>
      </trkpt>
      <trkpt lat="43.36851" lon="6.00496">
        <ele>644</ele>
        <time>2019-12-17T10:47:14.000Z</time>
      </trkpt>
      <trkpt lat="43.3685" lon="6.00497">
        <ele>644</ele>
        <time>2019-12-17T10:47:15.000Z</time>
      </trkpt>
      <trkpt lat="43.3685" lon="6.00498">
        <ele>644</ele>
        <time>2019-12-17T10:47:16.000Z</time>
      </trkpt>
      <trkpt lat="43.3685" lon="6.00499">
        <ele>644</ele>
        <time>2019-12-17T10:47:17.000Z</time>
      </trkpt>
      <trkpt lat="43.3685" lon="6.00499">
        <ele>644</ele>
        <time>2019-12-17T10:47:18.000Z</time>
      </trkpt>
      <trkpt lat="43.3685" lon="6.00501">
        <ele>644</ele>
        <time>2019-12-17T10:47:19.000Z</time>
      </trkpt>
      <trkpt lat="43.3685" lon="6.00502">
        <ele>644</ele>
        <time>2019-12-17T10:47:20.000Z</time>
      </trkpt>
      <trkpt lat="43.3685" lon="6.00503">
        <ele>643</ele>
        <time>2019-12-17T10:47:21.000Z</time>
      </trkpt>
      <trkpt lat="43.3685" lon="6.00504">
        <ele>643</ele>
        <time>2019-12-17T10:47:22.000Z</time>
      </trkpt>
      <trkpt lat="43.3685" lon="6.00505">
        <ele>643</ele>
        <time>2019-12-17T10:47:23.000Z</time>
      </trkpt>
      <trkpt lat="43.3685" lon="6.00506">
        <ele>643</ele>
        <time>2019-12-17T10:47:24.000Z</time>
      </trkpt>
      <trkpt lat="43.3685" lon="6.00507">
        <ele>643</ele>
        <time>2019-12-17T10:47:25.000Z</time>
      </trkpt>
      <trkpt lat="43.3685" lon="6.00509">
        <ele>643</ele>
        <time>2019-12-17T10:47:26.000Z</time>
      </trkpt>
      <trkpt lat="43.3685" lon="6.0051">
        <ele>643</ele>
        <time>2019-12-17T10:47:27.000Z</time>
      </trkpt>
      <trkpt lat="43.3685" lon="6.00511">
        <ele>642</ele>
        <time>2019-12-17T10:47:28.000Z</time>
      </trkpt>
      <trkpt lat="43.3685" lon="6.00512">
        <ele>642</ele>
        <time>2019-12-17T10:47:29.000Z</time>
      </trkpt>
      <trkpt lat="43.36849" lon="6.00514">
        <ele>642</ele>
        <time>2019-12-17T10:47:30.000Z</time>
      </trkpt>
      <trkpt lat="43.36849" lon="6.00515">
        <ele>642</ele>
        <time>2019-12-17T10:47:31.000Z</time>
      </trkpt>
      <trkpt lat="43.36849" lon="6.00517">
        <ele>642</ele>
        <time>2019-12-17T10:47:32.000Z</time>
      </trkpt>
      <trkpt lat="43.36848" lon="6.00518">
        <ele>641</ele>
        <time>2019-12-17T10:47:33.000Z</time>
      </trkpt>
      <trkpt lat="43.36848" lon="6.0052">
        <ele>641</ele>
        <time>2019-12-17T10:47:34.000Z</time>
      </trkpt>
      <trkpt lat="43.36848" lon="6.00521">
        <ele>641</ele>
        <time>2019-12-17T10:47:35.000Z</time>
      </trkpt>
      <trkpt lat="43.36848" lon="6.00523">
        <ele>641</ele>
        <time>2019-12-17T10:47:36.000Z</time>
      </trkpt>
      <trkpt lat="43.36847" lon="6.00524">
        <ele>641</ele>
        <time>2019-12-17T10:47:37.000Z</time>
      </trkpt>
      <trkpt lat="43.36848" lon="6.00526">
        <ele>640</ele>
        <time>2019-12-17T10:47:38.000Z</time>
      </trkpt>
      <trkpt lat="43.36848" lon="6.00527">
        <ele>640</ele>
        <time>2019-12-17T10:47:39.000Z</time>
      </trkpt>
      <trkpt lat="43.36848" lon="6.00528">
        <ele>640</ele>
        <time>2019-12-17T10:47:40.000Z</time>
      </trkpt>
      <trkpt lat="43.36848" lon="6.00529">
        <ele>640</ele>
        <time>2019-12-17T10:47:41.000Z</time>
      </trkpt>
      <trkpt lat="43.36848" lon="6.0053">
        <ele>640</ele>
        <time>2019-12-17T10:47:42.000Z</time>
      </trkpt>
      <trkpt lat="43.36848" lon="6.00532">
        <ele>640</ele>
        <time>2019-12-17T10:47:43.000Z</time>
      </trkpt>
      <trkpt lat="43.36848" lon="6.00533">
        <ele>639</ele>
        <time>2019-12-17T10:47:44.000Z</time>
      </trkpt>
      <trkpt lat="43.36848" lon="6.00534">
        <ele>639</ele>
        <time>2019-12-17T10:47:45.000Z</time>
      </trkpt>
      <trkpt lat="43.36848" lon="6.00536">
        <ele>639</ele>
        <time>2019-12-17T10:47:46.000Z</time>
      </trkpt>
      <trkpt lat="43.36848" lon="6.00537">
        <ele>639</ele>
        <time>2019-12-17T10:47:47.000Z</time>
      </trkpt>
      <trkpt lat="43.36848" lon="6.00539">
        <ele>639</ele>
        <time>2019-12-17T10:47:48.000Z</time>
      </trkpt>
      <trkpt lat="43.36847" lon="6.00541">
        <ele>639</ele>
        <time>2019-12-17T10:47:49.000Z</time>
      </trkpt>
      <trkpt lat="43.36847" lon="6.00542">
        <ele>639</ele>
        <time>2019-12-17T10:47:50.000Z</time>
      </trkpt>
      <trkpt lat="43.36847" lon="6.00543">
        <ele>639</ele>
        <time>2019-12-17T10:47:51.000Z</time>
      </trkpt>
      <trkpt lat="43.36847" lon="6.00544">
        <ele>639</ele>
        <time>2019-12-17T10:47:52.000Z</time>
      </trkpt>
      <trkpt lat="43.36847" lon="6.00546">
        <ele>639</ele>
        <time>2019-12-17T10:47:53.000Z</time>
      </trkpt>
      <trkpt lat="43.36847" lon="6.00547">
        <ele>639</ele>
        <time>2019-12-17T10:47:54.000Z</time>
      </trkpt>
      <trkpt lat="43.36846" lon="6.00548">
        <ele>639</ele>
        <time>2019-12-17T10:47:55.000Z</time>
      </trkpt>
      <trkpt lat="43.36847" lon="6.0055">
        <ele>639</ele>
        <time>2019-12-17T10:47:56.000Z</time>
      </trkpt>
      <trkpt lat="43.36846" lon="6.00551">
        <ele>639</ele>
        <time>2019-12-17T10:47:57.000Z</time>
      </trkpt>
      <trkpt lat="43.36846" lon="6.00552">
        <ele>639</ele>
        <time>2019-12-17T10:47:58.000Z</time>
      </trkpt>
      <trkpt lat="43.36846" lon="6.00553">
        <ele>639</ele>
        <time>2019-12-17T10:47:59.000Z</time>
      </trkpt>
      <trkpt lat="43.36846" lon="6.00555">
        <ele>639</ele>
        <time>2019-12-17T10:48:00.000Z</time>
      </trkpt>
      <trkpt lat="43.36845" lon="6.00556">
        <ele>639</ele>
        <time>2019-12-17T10:48:01.000Z</time>
      </trkpt>
      <trkpt lat="43.36845" lon="6.00558">
        <ele>639</ele>
        <time>2019-12-17T10:48:02.000Z</time>
      </trkpt>
      <trkpt lat="43.36846" lon="6.00559">
        <ele>639</ele>
        <time>2019-12-17T10:48:03.000Z</time>
      </trkpt>
      <trkpt lat="43.36846" lon="6.00561">
        <ele>639</ele>
        <time>2019-12-17T10:48:04.000Z</time>
      </trkpt>
      <trkpt lat="43.36846" lon="6.00563">
        <ele>638</ele>
        <time>2019-12-17T10:48:05.000Z</time>
      </trkpt>
      <trkpt lat="43.36846" lon="6.00564">
        <ele>638</ele>
        <time>2019-12-17T10:48:06.000Z</time>
      </trkpt>
      <trkpt lat="43.36846" lon="6.00566">
        <ele>638</ele>
        <time>2019-12-17T10:48:07.000Z</time>
      </trkpt>
      <trkpt lat="43.36846" lon="6.00567">
        <ele>638</ele>
        <time>2019-12-17T10:48:08.000Z</time>
      </trkpt>
      <trkpt lat="43.36846" lon="6.00568">
        <ele>638</ele>
        <time>2019-12-17T10:48:09.000Z</time>
      </trkpt>
      <trkpt lat="43.36846" lon="6.00569">
        <ele>638</ele>
        <time>2019-12-17T10:48:10.000Z</time>
      </trkpt>
      <trkpt lat="43.36847" lon="6.0057">
        <ele>638</ele>
        <time>2019-12-17T10:48:11.000Z</time>
      </trkpt>
      <trkpt lat="43.36847" lon="6.00571">
        <ele>638</ele>
        <time>2019-12-17T10:48:12.000Z</time>
      </trkpt>
      <trkpt lat="43.36847" lon="6.00572">
        <ele>638</ele>
        <time>2019-12-17T10:48:13.000Z</time>
      </trkpt>
      <trkpt lat="43.36847" lon="6.00574">
        <ele>638</ele>
        <time>2019-12-17T10:48:14.000Z</time>
      </trkpt>
      <trkpt lat="43.36848" lon="6.00575">
        <ele>638</ele>
        <time>2019-12-17T10:48:15.000Z</time>
      </trkpt>
      <trkpt lat="43.36848" lon="6.00576">
        <ele>638</ele>
        <time>2019-12-17T10:48:16.000Z</time>
      </trkpt>
      <trkpt lat="43.36848" lon="6.00577">
        <ele>638</ele>
        <time>2019-12-17T10:48:17.000Z</time>
      </trkpt>
      <trkpt lat="43.36848" lon="6.00578">
        <ele>638</ele>
        <time>2019-12-17T10:48:18.000Z</time>
      </trkpt>
      <trkpt lat="43.36848" lon="6.0058">
        <ele>638</ele>
        <time>2019-12-17T10:48:19.000Z</time>
      </trkpt>
      <trkpt lat="43.36848" lon="6.00581">
        <ele>638</ele>
        <time>2019-12-17T10:48:20.000Z</time>
      </trkpt>
      <trkpt lat="43.36848" lon="6.00582">
        <ele>638</ele>
        <time>2019-12-17T10:48:21.000Z</time>
      </trkpt>
      <trkpt lat="43.36848" lon="6.00582">
        <ele>638</ele>
        <time>2019-12-17T10:48:22.000Z</time>
      </trkpt>
      <trkpt lat="43.36849" lon="6.00583">
        <ele>638</ele>
        <time>2019-12-17T10:48:23.000Z</time>
      </trkpt>
      <trkpt lat="43.36849" lon="6.00584">
        <ele>638</ele>
        <time>2019-12-17T10:48:24.000Z</time>
      </trkpt>
      <trkpt lat="43.36849" lon="6.00585">
        <ele>638</ele>
        <time>2019-12-17T10:48:25.000Z</time>
      </trkpt>
      <trkpt lat="43.3685" lon="6.00587">
        <ele>638</ele>
        <time>2019-12-17T10:48:26.000Z</time>
      </trkpt>
      <trkpt lat="43.3685" lon="6.00588">
        <ele>638</ele>
        <time>2019-12-17T10:48:27.000Z</time>
      </trkpt>
      <trkpt lat="43.36849" lon="6.00589">
        <ele>638</ele>
        <time>2019-12-17T10:48:28.000Z</time>
      </trkpt>
      <trkpt lat="43.36849" lon="6.0059">
        <ele>638</ele>
        <time>2019-12-17T10:48:29.000Z</time>
      </trkpt>
      <trkpt lat="43.36849" lon="6.0059">
        <ele>638</ele>
        <time>2019-12-17T10:48:30.000Z</time>
      </trkpt>
      <trkpt lat="43.36848" lon="6.00591">
        <ele>638</ele>
        <time>2019-12-17T10:48:31.000Z</time>
      </trkpt>
      <trkpt lat="43.36848" lon="6.00592">
        <ele>638</ele>
        <time>2019-12-17T10:48:32.000Z</time>
      </trkpt>
      <trkpt lat="43.36848" lon="6.00593">
        <ele>638</ele>
        <time>2019-12-17T10:48:33.000Z</time>
      </trkpt>
      <trkpt lat="43.36847" lon="6.00594">
        <ele>638</ele>
        <time>2019-12-17T10:48:34.000Z</time>
      </trkpt>
      <trkpt lat="43.36847" lon="6.00596">
        <ele>638</ele>
        <time>2019-12-17T10:48:35.000Z</time>
      </trkpt>
      <trkpt lat="43.36847" lon="6.00597">
        <ele>638</ele>
        <time>2019-12-17T10:48:36.000Z</time>
      </trkpt>
      <trkpt lat="43.36846" lon="6.00599">
        <ele>638</ele>
        <time>2019-12-17T10:48:37.000Z</time>
      </trkpt>
      <trkpt lat="43.36846" lon="6.00601">
        <ele>638</ele>
        <time>2019-12-17T10:48:38.000Z</time>
      </trkpt>
      <trkpt lat="43.36846" lon="6.00602">
        <ele>638</ele>
        <time>2019-12-17T10:48:39.000Z</time>
      </trkpt>
      <trkpt lat="43.36845" lon="6.00603">
        <ele>638</ele>
        <time>2019-12-17T10:48:40.000Z</time>
      </trkpt>
      <trkpt lat="43.36844" lon="6.00604">
        <ele>638</ele>
        <time>2019-12-17T10:48:41.000Z</time>
      </trkpt>
      <trkpt lat="43.36844" lon="6.00605">
        <ele>638</ele>
        <time>2019-12-17T10:48:42.000Z</time>
      </trkpt>
      <trkpt lat="43.36844" lon="6.00606">
        <ele>639</ele>
        <time>2019-12-17T10:48:43.000Z</time>
      </trkpt>
      <trkpt lat="43.36844" lon="6.00606">
        <ele>639</ele>
        <time>2019-12-17T10:48:44.000Z</time>
      </trkpt>
      <trkpt lat="43.36844" lon="6.00606">
        <ele>639</ele>
        <time>2019-12-17T10:48:45.000Z</time>
      </trkpt>
      <trkpt lat="43.36844" lon="6.00607">
        <ele>639</ele>
        <time>2019-12-17T10:48:46.000Z</time>
      </trkpt>
      <trkpt lat="43.36844" lon="6.00607">
        <ele>639</ele>
        <time>2019-12-17T10:48:47.000Z</time>
      </trkpt>
      <trkpt lat="43.36843" lon="6.00607">
        <ele>639</ele>
        <time>2019-12-17T10:48:48.000Z</time>
      </trkpt>
      <trkpt lat="43.36843" lon="6.00608">
        <ele>639</ele>
        <time>2019-12-17T10:48:49.000Z</time>
      </trkpt>
      <trkpt lat="43.36843" lon="6.00609">
        <ele>639</ele>
        <time>2019-12-17T10:48:50.000Z</time>
      </trkpt>
      <trkpt lat="43.36842" lon="6.00609">
        <ele>639</ele>
        <time>2019-12-17T10:48:51.000Z</time>
      </trkpt>
      <trkpt lat="43.36842" lon="6.0061">
        <ele>639</ele>
        <time>2019-12-17T10:48:52.000Z</time>
      </trkpt>
      <trkpt lat="43.36842" lon="6.0061">
        <ele>639</ele>
        <time>2019-12-17T10:48:53.000Z</time>
      </trkpt>
      <trkpt lat="43.36841" lon="6.00611">
        <ele>639</ele>
        <time>2019-12-17T10:48:54.000Z</time>
      </trkpt>
      <trkpt lat="43.36841" lon="6.00611">
        <ele>639</ele>
        <time>2019-12-17T10:48:55.000Z</time>
      </trkpt>
      <trkpt lat="43.3684" lon="6.00612">
        <ele>639</ele>
        <time>2019-12-17T10:48:56.000Z</time>
      </trkpt>
      <trkpt lat="43.3684" lon="6.00613">
        <ele>639</ele>
        <time>2019-12-17T10:48:57.000Z</time>
      </trkpt>
      <trkpt lat="43.36839" lon="6.00614">
        <ele>640</ele>
        <time>2019-12-17T10:48:58.000Z</time>
      </trkpt>
      <trkpt lat="43.36839" lon="6.00614">
        <ele>640</ele>
        <time>2019-12-17T10:48:59.000Z</time>
      </trkpt>
      <trkpt lat="43.36839" lon="6.00615">
        <ele>640</ele>
        <time>2019-12-17T10:49:00.000Z</time>
      </trkpt>
      <trkpt lat="43.36839" lon="6.00615">
        <ele>640</ele>
        <time>2019-12-17T10:49:01.000Z</time>
      </trkpt>
      <trkpt lat="43.36839" lon="6.00616">
        <ele>640</ele>
        <time>2019-12-17T10:49:02.000Z</time>
      </trkpt>
      <trkpt lat="43.36839" lon="6.00616">
        <ele>640</ele>
        <time>2019-12-17T10:49:03.000Z</time>
      </trkpt>
      <trkpt lat="43.3684" lon="6.00617">
        <ele>640</ele>
        <time>2019-12-17T10:49:04.000Z</time>
      </trkpt>
      <trkpt lat="43.36839" lon="6.00618">
        <ele>640</ele>
        <time>2019-12-17T10:49:05.000Z</time>
      </trkpt>
      <trkpt lat="43.36839" lon="6.00619">
        <ele>639</ele>
        <time>2019-12-17T10:49:06.000Z</time>
      </trkpt>
      <trkpt lat="43.36839" lon="6.0062">
        <ele>639</ele>
        <time>2019-12-17T10:49:07.000Z</time>
      </trkpt>
      <trkpt lat="43.36838" lon="6.00622">
        <ele>639</ele>
        <time>2019-12-17T10:49:08.000Z</time>
      </trkpt>
      <trkpt lat="43.36838" lon="6.00623">
        <ele>639</ele>
        <time>2019-12-17T10:49:09.000Z</time>
      </trkpt>
      <trkpt lat="43.36838" lon="6.00624">
        <ele>639</ele>
        <time>2019-12-17T10:49:10.000Z</time>
      </trkpt>
      <trkpt lat="43.36837" lon="6.00626">
        <ele>639</ele>
        <time>2019-12-17T10:49:11.000Z</time>
      </trkpt>
      <trkpt lat="43.36837" lon="6.00627">
        <ele>639</ele>
        <time>2019-12-17T10:49:12.000Z</time>
      </trkpt>
      <trkpt lat="43.36837" lon="6.00628">
        <ele>639</ele>
        <time>2019-12-17T10:49:13.000Z</time>
      </trkpt>
      <trkpt lat="43.36836" lon="6.0063">
        <ele>639</ele>
        <time>2019-12-17T10:49:14.000Z</time>
      </trkpt>
      <trkpt lat="43.36836" lon="6.00632">
        <ele>639</ele>
        <time>2019-12-17T10:49:15.000Z</time>
      </trkpt>
      <trkpt lat="43.36836" lon="6.00633">
        <ele>639</ele>
        <time>2019-12-17T10:49:16.000Z</time>
      </trkpt>
      <trkpt lat="43.36836" lon="6.00635">
        <ele>639</ele>
        <time>2019-12-17T10:49:17.000Z</time>
      </trkpt>
      <trkpt lat="43.36836" lon="6.00636">
        <ele>639</ele>
        <time>2019-12-17T10:49:18.000Z</time>
      </trkpt>
      <trkpt lat="43.36835" lon="6.00638">
        <ele>639</ele>
        <time>2019-12-17T10:49:19.000Z</time>
      </trkpt>
      <trkpt lat="43.36835" lon="6.00639">
        <ele>639</ele>
        <time>2019-12-17T10:49:20.000Z</time>
      </trkpt>
      <trkpt lat="43.36835" lon="6.00641">
        <ele>639</ele>
        <time>2019-12-17T10:49:21.000Z</time>
      </trkpt>
      <trkpt lat="43.36835" lon="6.00642">
        <ele>639</ele>
        <time>2019-12-17T10:49:22.000Z</time>
      </trkpt>
      <trkpt lat="43.36835" lon="6.00643">
        <ele>639</ele>
        <time>2019-12-17T10:49:23.000Z</time>
      </trkpt>
      <trkpt lat="43.36835" lon="6.00644">
        <ele>639</ele>
        <time>2019-12-17T10:49:24.000Z</time>
      </trkpt>
      <trkpt lat="43.36835" lon="6.00645">
        <ele>638</ele>
        <time>2019-12-17T10:49:25.000Z</time>
      </trkpt>
      <trkpt lat="43.36835" lon="6.00645">
        <ele>638</ele>
        <time>2019-12-17T10:49:26.000Z</time>
      </trkpt>
      <trkpt lat="43.36836" lon="6.00646">
        <ele>638</ele>
        <time>2019-12-17T10:49:27.000Z</time>
      </trkpt>
      <trkpt lat="43.36837" lon="6.00647">
        <ele>638</ele>
        <time>2019-12-17T10:49:28.000Z</time>
      </trkpt>
      <trkpt lat="43.36838" lon="6.00648">
        <ele>638</ele>
        <time>2019-12-17T10:49:29.000Z</time>
      </trkpt>
      <trkpt lat="43.36838" lon="6.00649">
        <ele>638</ele>
        <time>2019-12-17T10:49:30.000Z</time>
      </trkpt>
      <trkpt lat="43.36839" lon="6.0065">
        <ele>638</ele>
        <time>2019-12-17T10:49:31.000Z</time>
      </trkpt>
      <trkpt lat="43.36839" lon="6.00651">
        <ele>638</ele>
        <time>2019-12-17T10:49:32.000Z</time>
      </trkpt>
      <trkpt lat="43.36839" lon="6.00652">
        <ele>638</ele>
        <time>2019-12-17T10:49:33.000Z</time>
      </trkpt>
      <trkpt lat="43.36839" lon="6.00653">
        <ele>638</ele>
        <time>2019-12-17T10:49:34.000Z</time>
      </trkpt>
      <trkpt lat="43.36839" lon="6.00654">
        <ele>638</ele>
        <time>2019-12-17T10:49:35.000Z</time>
      </trkpt>
      <trkpt lat="43.36839" lon="6.00655">
        <ele>638</ele>
        <time>2019-12-17T10:49:36.000Z</time>
      </trkpt>
      <trkpt lat="43.36839" lon="6.00656">
        <ele>638</ele>
        <time>2019-12-17T10:49:37.000Z</time>
      </trkpt>
      <trkpt lat="43.36839" lon="6.00657">
        <ele>638</ele>
        <time>2019-12-17T10:49:38.000Z</time>
      </trkpt>
      <trkpt lat="43.36839" lon="6.00657">
        <ele>638</ele>
        <time>2019-12-17T10:49:39.000Z</time>
      </trkpt>
      <trkpt lat="43.36839" lon="6.00658">
        <ele>637</ele>
        <time>2019-12-17T10:49:40.000Z</time>
      </trkpt>
      <trkpt lat="43.36839" lon="6.00659">
        <ele>637</ele>
        <time>2019-12-17T10:49:41.000Z</time>
      </trkpt>
      <trkpt lat="43.36839" lon="6.0066">
        <ele>637</ele>
        <time>2019-12-17T10:49:42.000Z</time>
      </trkpt>
      <trkpt lat="43.36839" lon="6.00661">
        <ele>637</ele>
        <time>2019-12-17T10:49:43.000Z</time>
      </trkpt>
      <trkpt lat="43.36839" lon="6.00662">
        <ele>637</ele>
        <time>2019-12-17T10:49:44.000Z</time>
      </trkpt>
      <trkpt lat="43.36839" lon="6.00663">
        <ele>637</ele>
        <time>2019-12-17T10:49:45.000Z</time>
      </trkpt>
      <trkpt lat="43.36839" lon="6.00664">
        <ele>637</ele>
        <time>2019-12-17T10:49:46.000Z</time>
      </trkpt>
      <trkpt lat="43.36839" lon="6.00665">
        <ele>636</ele>
        <time>2019-12-17T10:49:47.000Z</time>
      </trkpt>
      <trkpt lat="43.36839" lon="6.00666">
        <ele>636</ele>
        <time>2019-12-17T10:49:48.000Z</time>
      </trkpt>
      <trkpt lat="43.36839" lon="6.00667">
        <ele>636</ele>
        <time>2019-12-17T10:49:49.000Z</time>
      </trkpt>
      <trkpt lat="43.36839" lon="6.00668">
        <ele>636</ele>
        <time>2019-12-17T10:49:50.000Z</time>
      </trkpt>
      <trkpt lat="43.36839" lon="6.00668">
        <ele>636</ele>
        <time>2019-12-17T10:49:51.000Z</time>
      </trkpt>
      <trkpt lat="43.36839" lon="6.00669">
        <ele>636</ele>
        <time>2019-12-17T10:49:52.000Z</time>
      </trkpt>
      <trkpt lat="43.36839" lon="6.0067">
        <ele>636</ele>
        <time>2019-12-17T10:49:53.000Z</time>
      </trkpt>
      <trkpt lat="43.3684" lon="6.00671">
        <ele>636</ele>
        <time>2019-12-17T10:49:54.000Z</time>
      </trkpt>
      <trkpt lat="43.3684" lon="6.00671">
        <ele>636</ele>
        <time>2019-12-17T10:49:55.000Z</time>
      </trkpt>
      <trkpt lat="43.3684" lon="6.00672">
        <ele>636</ele>
        <time>2019-12-17T10:49:56.000Z</time>
      </trkpt>
      <trkpt lat="43.3684" lon="6.00673">
        <ele>636</ele>
        <time>2019-12-17T10:49:57.000Z</time>
      </trkpt>
      <trkpt lat="43.3684" lon="6.00674">
        <ele>636</ele>
        <time>2019-12-17T10:49:58.000Z</time>
      </trkpt>
      <trkpt lat="43.3684" lon="6.00675">
        <ele>636</ele>
        <time>2019-12-17T10:49:59.000Z</time>
      </trkpt>
      <trkpt lat="43.36841" lon="6.00676">
        <ele>636</ele>
        <time>2019-12-17T10:50:00.000Z</time>
      </trkpt>
      <trkpt lat="43.36841" lon="6.00678">
        <ele>636</ele>
        <time>2019-12-17T10:50:01.000Z</time>
      </trkpt>
      <trkpt lat="43.36841" lon="6.00679">
        <ele>635</ele>
        <time>2019-12-17T10:50:02.000Z</time>
      </trkpt>
      <trkpt lat="43.36841" lon="6.0068">
        <ele>635</ele>
        <time>2019-12-17T10:50:03.000Z</time>
      </trkpt>
      <trkpt lat="43.36842" lon="6.00681">
        <ele>635</ele>
        <time>2019-12-17T10:50:04.000Z</time>
      </trkpt>
      <trkpt lat="43.36843" lon="6.00682">
        <ele>635</ele>
        <time>2019-12-17T10:50:05.000Z</time>
      </trkpt>
      <trkpt lat="43.36843" lon="6.00683">
        <ele>635</ele>
        <time>2019-12-17T10:50:06.000Z</time>
      </trkpt>
      <trkpt lat="43.36844" lon="6.00684">
        <ele>634</ele>
        <time>2019-12-17T10:50:07.000Z</time>
      </trkpt>
      <trkpt lat="43.36844" lon="6.00686">
        <ele>634</ele>
        <time>2019-12-17T10:50:08.000Z</time>
      </trkpt>
      <trkpt lat="43.36844" lon="6.00687">
        <ele>634</ele>
        <time>2019-12-17T10:50:09.000Z</time>
      </trkpt>
      <trkpt lat="43.36844" lon="6.00688">
        <ele>634</ele>
        <time>2019-12-17T10:50:10.000Z</time>
      </trkpt>
      <trkpt lat="43.36844" lon="6.0069">
        <ele>634</ele>
        <time>2019-12-17T10:50:11.000Z</time>
      </trkpt>
      <trkpt lat="43.36844" lon="6.00691">
        <ele>633</ele>
        <time>2019-12-17T10:50:12.000Z</time>
      </trkpt>
      <trkpt lat="43.36844" lon="6.00692">
        <ele>633</ele>
        <time>2019-12-17T10:50:13.000Z</time>
      </trkpt>
      <trkpt lat="43.36844" lon="6.00693">
        <ele>633</ele>
        <time>2019-12-17T10:50:14.000Z</time>
      </trkpt>
      <trkpt lat="43.36844" lon="6.00695">
        <ele>633</ele>
        <time>2019-12-17T10:50:15.000Z</time>
      </trkpt>
      <trkpt lat="43.36844" lon="6.00696">
        <ele>633</ele>
        <time>2019-12-17T10:50:16.000Z</time>
      </trkpt>
      <trkpt lat="43.36845" lon="6.00697">
        <ele>632</ele>
        <time>2019-12-17T10:50:17.000Z</time>
      </trkpt>
      <trkpt lat="43.36845" lon="6.00699">
        <ele>632</ele>
        <time>2019-12-17T10:50:18.000Z</time>
      </trkpt>
      <trkpt lat="43.36846" lon="6.007">
        <ele>632</ele>
        <time>2019-12-17T10:50:19.000Z</time>
      </trkpt>
      <trkpt lat="43.36846" lon="6.00702">
        <ele>632</ele>
        <time>2019-12-17T10:50:20.000Z</time>
      </trkpt>
      <trkpt lat="43.36846" lon="6.00703">
        <ele>632</ele>
        <time>2019-12-17T10:50:21.000Z</time>
      </trkpt>
      <trkpt lat="43.36846" lon="6.00704">
        <ele>631</ele>
        <time>2019-12-17T10:50:22.000Z</time>
      </trkpt>
      <trkpt lat="43.36846" lon="6.00705">
        <ele>631</ele>
        <time>2019-12-17T10:50:23.000Z</time>
      </trkpt>
      <trkpt lat="43.36847" lon="6.00706">
        <ele>631</ele>
        <time>2019-12-17T10:50:24.000Z</time>
      </trkpt>
      <trkpt lat="43.36847" lon="6.00707">
        <ele>631</ele>
        <time>2019-12-17T10:50:25.000Z</time>
      </trkpt>
      <trkpt lat="43.36847" lon="6.00708">
        <ele>631</ele>
        <time>2019-12-17T10:50:26.000Z</time>
      </trkpt>
      <trkpt lat="43.36848" lon="6.00709">
        <ele>631</ele>
        <time>2019-12-17T10:50:27.000Z</time>
      </trkpt>
      <trkpt lat="43.36848" lon="6.0071">
        <ele>631</ele>
        <time>2019-12-17T10:50:28.000Z</time>
      </trkpt>
      <trkpt lat="43.36849" lon="6.00711">
        <ele>631</ele>
        <time>2019-12-17T10:50:29.000Z</time>
      </trkpt>
      <trkpt lat="43.36849" lon="6.00712">
        <ele>631</ele>
        <time>2019-12-17T10:50:30.000Z</time>
      </trkpt>
      <trkpt lat="43.36849" lon="6.00714">
        <ele>631</ele>
        <time>2019-12-17T10:50:31.000Z</time>
      </trkpt>
      <trkpt lat="43.36849" lon="6.00716">
        <ele>631</ele>
        <time>2019-12-17T10:50:32.000Z</time>
      </trkpt>
      <trkpt lat="43.36849" lon="6.00718">
        <ele>630</ele>
        <time>2019-12-17T10:50:33.000Z</time>
      </trkpt>
      <trkpt lat="43.36849" lon="6.00719">
        <ele>630</ele>
        <time>2019-12-17T10:50:34.000Z</time>
      </trkpt>
      <trkpt lat="43.36849" lon="6.00721">
        <ele>630</ele>
        <time>2019-12-17T10:50:35.000Z</time>
      </trkpt>
      <trkpt lat="43.36849" lon="6.00722">
        <ele>630</ele>
        <time>2019-12-17T10:50:36.000Z</time>
      </trkpt>
      <trkpt lat="43.3685" lon="6.00723">
        <ele>630</ele>
        <time>2019-12-17T10:50:37.000Z</time>
      </trkpt>
      <trkpt lat="43.3685" lon="6.00725">
        <ele>630</ele>
        <time>2019-12-17T10:50:38.000Z</time>
      </trkpt>
      <trkpt lat="43.3685" lon="6.00727">
        <ele>630</ele>
        <time>2019-12-17T10:50:39.000Z</time>
      </trkpt>
      <trkpt lat="43.3685" lon="6.00728">
        <ele>629</ele>
        <time>2019-12-17T10:50:40.000Z</time>
      </trkpt>
      <trkpt lat="43.3685" lon="6.00729">
        <ele>629</ele>
        <time>2019-12-17T10:50:41.000Z</time>
      </trkpt>
      <trkpt lat="43.36851" lon="6.00731">
        <ele>629</ele>
        <time>2019-12-17T10:50:42.000Z</time>
      </trkpt>
      <trkpt lat="43.36851" lon="6.00732">
        <ele>629</ele>
        <time>2019-12-17T10:50:43.000Z</time>
      </trkpt>
      <trkpt lat="43.36852" lon="6.00733">
        <ele>628</ele>
        <time>2019-12-17T10:50:44.000Z</time>
      </trkpt>
      <trkpt lat="43.36852" lon="6.00734">
        <ele>628</ele>
        <time>2019-12-17T10:50:45.000Z</time>
      </trkpt>
      <trkpt lat="43.36852" lon="6.00736">
        <ele>628</ele>
        <time>2019-12-17T10:50:46.000Z</time>
      </trkpt>
      <trkpt lat="43.36852" lon="6.00737">
        <ele>628</ele>
        <time>2019-12-17T10:50:47.000Z</time>
      </trkpt>
      <trkpt lat="43.36852" lon="6.00739">
        <ele>627</ele>
        <time>2019-12-17T10:50:48.000Z</time>
      </trkpt>
      <trkpt lat="43.36851" lon="6.0074">
        <ele>627</ele>
        <time>2019-12-17T10:50:49.000Z</time>
      </trkpt>
      <trkpt lat="43.36851" lon="6.00741">
        <ele>627</ele>
        <time>2019-12-17T10:50:50.000Z</time>
      </trkpt>
      <trkpt lat="43.36851" lon="6.00743">
        <ele>627</ele>
        <time>2019-12-17T10:50:51.000Z</time>
      </trkpt>
      <trkpt lat="43.36851" lon="6.00744">
        <ele>627</ele>
        <time>2019-12-17T10:50:52.000Z</time>
      </trkpt>
      <trkpt lat="43.36851" lon="6.00745">
        <ele>626</ele>
        <time>2019-12-17T10:50:53.000Z</time>
      </trkpt>
      <trkpt lat="43.36851" lon="6.00746">
        <ele>626</ele>
        <time>2019-12-17T10:50:54.000Z</time>
      </trkpt>
      <trkpt lat="43.36851" lon="6.00747">
        <ele>626</ele>
        <time>2019-12-17T10:50:55.000Z</time>
      </trkpt>
      <trkpt lat="43.36851" lon="6.00748">
        <ele>626</ele>
        <time>2019-12-17T10:50:56.000Z</time>
      </trkpt>
      <trkpt lat="43.36851" lon="6.00749">
        <ele>625</ele>
        <time>2019-12-17T10:50:57.000Z</time>
      </trkpt>
      <trkpt lat="43.36851" lon="6.0075">
        <ele>625</ele>
        <time>2019-12-17T10:50:58.000Z</time>
      </trkpt>
      <trkpt lat="43.3685" lon="6.00751">
        <ele>625</ele>
        <time>2019-12-17T10:50:59.000Z</time>
      </trkpt>
      <trkpt lat="43.3685" lon="6.00753">
        <ele>625</ele>
        <time>2019-12-17T10:51:00.000Z</time>
      </trkpt>
      <trkpt lat="43.3685" lon="6.00754">
        <ele>625</ele>
        <time>2019-12-17T10:51:01.000Z</time>
      </trkpt>
      <trkpt lat="43.3685" lon="6.00755">
        <ele>625</ele>
        <time>2019-12-17T10:51:02.000Z</time>
      </trkpt>
      <trkpt lat="43.3685" lon="6.00755">
        <ele>625</ele>
        <time>2019-12-17T10:51:03.000Z</time>
      </trkpt>
      <trkpt lat="43.3685" lon="6.00757">
        <ele>624</ele>
        <time>2019-12-17T10:51:04.000Z</time>
      </trkpt>
      <trkpt lat="43.3685" lon="6.00758">
        <ele>624</ele>
        <time>2019-12-17T10:51:05.000Z</time>
      </trkpt>
      <trkpt lat="43.3685" lon="6.00759">
        <ele>624</ele>
        <time>2019-12-17T10:51:06.000Z</time>
      </trkpt>
      <trkpt lat="43.36851" lon="6.0076">
        <ele>624</ele>
        <time>2019-12-17T10:51:07.000Z</time>
      </trkpt>
      <trkpt lat="43.36851" lon="6.00761">
        <ele>624</ele>
        <time>2019-12-17T10:51:08.000Z</time>
      </trkpt>
      <trkpt lat="43.36852" lon="6.00762">
        <ele>624</ele>
        <time>2019-12-17T10:51:09.000Z</time>
      </trkpt>
      <trkpt lat="43.36852" lon="6.00762">
        <ele>623</ele>
        <time>2019-12-17T10:51:10.000Z</time>
      </trkpt>
      <trkpt lat="43.36852" lon="6.00763">
        <ele>623</ele>
        <time>2019-12-17T10:51:11.000Z</time>
      </trkpt>
      <trkpt lat="43.36852" lon="6.00764">
        <ele>623</ele>
        <time>2019-12-17T10:51:12.000Z</time>
      </trkpt>
      <trkpt lat="43.36851" lon="6.00765">
        <ele>623</ele>
        <time>2019-12-17T10:51:13.000Z</time>
      </trkpt>
      <trkpt lat="43.36851" lon="6.00767">
        <ele>623</ele>
        <time>2019-12-17T10:51:14.000Z</time>
      </trkpt>
      <trkpt lat="43.36852" lon="6.00768">
        <ele>622</ele>
        <time>2019-12-17T10:51:15.000Z</time>
      </trkpt>
      <trkpt lat="43.36852" lon="6.0077">
        <ele>622</ele>
        <time>2019-12-17T10:51:16.000Z</time>
      </trkpt>
      <trkpt lat="43.36852" lon="6.00771">
        <ele>622</ele>
        <time>2019-12-17T10:51:17.000Z</time>
      </trkpt>
      <trkpt lat="43.36852" lon="6.00773">
        <ele>622</ele>
        <time>2019-12-17T10:51:18.000Z</time>
      </trkpt>
      <trkpt lat="43.36853" lon="6.00774">
        <ele>622</ele>
        <time>2019-12-17T10:51:19.000Z</time>
      </trkpt>
      <trkpt lat="43.36853" lon="6.00775">
        <ele>622</ele>
        <time>2019-12-17T10:51:20.000Z</time>
      </trkpt>
      <trkpt lat="43.36853" lon="6.00776">
        <ele>621</ele>
        <time>2019-12-17T10:51:21.000Z</time>
      </trkpt>
      <trkpt lat="43.36853" lon="6.00777">
        <ele>621</ele>
        <time>2019-12-17T10:51:22.000Z</time>
      </trkpt>
      <trkpt lat="43.36853" lon="6.00777">
        <ele>621</ele>
        <time>2019-12-17T10:51:23.000Z</time>
      </trkpt>
      <trkpt lat="43.36853" lon="6.00778">
        <ele>621</ele>
        <time>2019-12-17T10:51:24.000Z</time>
      </trkpt>
      <trkpt lat="43.36853" lon="6.0078">
        <ele>621</ele>
        <time>2019-12-17T10:51:25.000Z</time>
      </trkpt>
      <trkpt lat="43.36854" lon="6.00781">
        <ele>621</ele>
        <time>2019-12-17T10:51:26.000Z</time>
      </trkpt>
      <trkpt lat="43.36854" lon="6.00782">
        <ele>620</ele>
        <time>2019-12-17T10:51:27.000Z</time>
      </trkpt>
      <trkpt lat="43.36855" lon="6.00784">
        <ele>620</ele>
        <time>2019-12-17T10:51:28.000Z</time>
      </trkpt>
      <trkpt lat="43.36855" lon="6.00785">
        <ele>620</ele>
        <time>2019-12-17T10:51:29.000Z</time>
      </trkpt>
      <trkpt lat="43.36856" lon="6.00786">
        <ele>620</ele>
        <time>2019-12-17T10:51:30.000Z</time>
      </trkpt>
      <trkpt lat="43.36856" lon="6.00787">
        <ele>620</ele>
        <time>2019-12-17T10:51:31.000Z</time>
      </trkpt>
      <trkpt lat="43.36857" lon="6.00788">
        <ele>620</ele>
        <time>2019-12-17T10:51:32.000Z</time>
      </trkpt>
      <trkpt lat="43.36857" lon="6.00789">
        <ele>620</ele>
        <time>2019-12-17T10:51:33.000Z</time>
      </trkpt>
      <trkpt lat="43.36858" lon="6.00789">
        <ele>620</ele>
        <time>2019-12-17T10:51:34.000Z</time>
      </trkpt>
      <trkpt lat="43.36858" lon="6.0079">
        <ele>620</ele>
        <time>2019-12-17T10:51:35.000Z</time>
      </trkpt>
      <trkpt lat="43.36859" lon="6.0079">
        <ele>619</ele>
        <time>2019-12-17T10:51:36.000Z</time>
      </trkpt>
      <trkpt lat="43.36859" lon="6.00791">
        <ele>619</ele>
        <time>2019-12-17T10:51:37.000Z</time>
      </trkpt>
      <trkpt lat="43.36859" lon="6.00791">
        <ele>619</ele>
        <time>2019-12-17T10:51:38.000Z</time>
      </trkpt>
      <trkpt lat="43.3686" lon="6.0079">
        <ele>619</ele>
        <time>2019-12-17T10:51:39.000Z</time>
      </trkpt>
      <trkpt lat="43.36861" lon="6.0079">
        <ele>619</ele>
        <time>2019-12-17T10:51:40.000Z</time>
      </trkpt>
      <trkpt lat="43.36861" lon="6.0079">
        <ele>619</ele>
        <time>2019-12-17T10:51:41.000Z</time>
      </trkpt>
      <trkpt lat="43.36862" lon="6.00789">
        <ele>618</ele>
        <time>2019-12-17T10:51:42.000Z</time>
      </trkpt>
      <trkpt lat="43.36863" lon="6.00789">
        <ele>618</ele>
        <time>2019-12-17T10:51:43.000Z</time>
      </trkpt>
      <trkpt lat="43.36864" lon="6.0079">
        <ele>618</ele>
        <time>2019-12-17T10:51:44.000Z</time>
      </trkpt>
      <trkpt lat="43.36864" lon="6.00791">
        <ele>618</ele>
        <time>2019-12-17T10:51:45.000Z</time>
      </trkpt>
      <trkpt lat="43.36865" lon="6.00791">
        <ele>617</ele>
        <time>2019-12-17T10:51:46.000Z</time>
      </trkpt>
      <trkpt lat="43.36865" lon="6.00792">
        <ele>617</ele>
        <time>2019-12-17T10:51:47.000Z</time>
      </trkpt>
      <trkpt lat="43.36865" lon="6.00792">
        <ele>617</ele>
        <time>2019-12-17T10:51:48.000Z</time>
      </trkpt>
      <trkpt lat="43.36866" lon="6.00792">
        <ele>616</ele>
        <time>2019-12-17T10:51:49.000Z</time>
      </trkpt>
      <trkpt lat="43.36867" lon="6.00792">
        <ele>616</ele>
        <time>2019-12-17T10:51:50.000Z</time>
      </trkpt>
      <trkpt lat="43.36867" lon="6.00792">
        <ele>616</ele>
        <time>2019-12-17T10:51:51.000Z</time>
      </trkpt>
      <trkpt lat="43.36868" lon="6.00791">
        <ele>615</ele>
        <time>2019-12-17T10:51:52.000Z</time>
      </trkpt>
      <trkpt lat="43.36869" lon="6.00791">
        <ele>615</ele>
        <time>2019-12-17T10:51:53.000Z</time>
      </trkpt>
      <trkpt lat="43.3687" lon="6.0079">
        <ele>615</ele>
        <time>2019-12-17T10:51:54.000Z</time>
      </trkpt>
      <trkpt lat="43.36871" lon="6.0079">
        <ele>615</ele>
        <time>2019-12-17T10:51:55.000Z</time>
      </trkpt>
      <trkpt lat="43.36872" lon="6.0079">
        <ele>614</ele>
        <time>2019-12-17T10:51:56.000Z</time>
      </trkpt>
      <trkpt lat="43.36873" lon="6.0079">
        <ele>614</ele>
        <time>2019-12-17T10:51:57.000Z</time>
      </trkpt>
      <trkpt lat="43.36873" lon="6.0079">
        <ele>614</ele>
        <time>2019-12-17T10:51:58.000Z</time>
      </trkpt>
      <trkpt lat="43.36874" lon="6.0079">
        <ele>614</ele>
        <time>2019-12-17T10:51:59.000Z</time>
      </trkpt>
      <trkpt lat="43.36875" lon="6.0079">
        <ele>614</ele>
        <time>2019-12-17T10:52:00.000Z</time>
      </trkpt>
      <trkpt lat="43.36875" lon="6.0079">
        <ele>614</ele>
        <time>2019-12-17T10:52:01.000Z</time>
      </trkpt>
      <trkpt lat="43.36876" lon="6.00791">
        <ele>614</ele>
        <time>2019-12-17T10:52:02.000Z</time>
      </trkpt>
      <trkpt lat="43.36877" lon="6.00791">
        <ele>613</ele>
        <time>2019-12-17T10:52:03.000Z</time>
      </trkpt>
      <trkpt lat="43.36877" lon="6.00792">
        <ele>613</ele>
        <time>2019-12-17T10:52:04.000Z</time>
      </trkpt>
      <trkpt lat="43.36877" lon="6.00792">
        <ele>613</ele>
        <time>2019-12-17T10:52:05.000Z</time>
      </trkpt>
      <trkpt lat="43.36878" lon="6.00793">
        <ele>613</ele>
        <time>2019-12-17T10:52:06.000Z</time>
      </trkpt>
      <trkpt lat="43.36878" lon="6.00793">
        <ele>613</ele>
        <time>2019-12-17T10:52:07.000Z</time>
      </trkpt>
      <trkpt lat="43.36879" lon="6.00794">
        <ele>613</ele>
        <time>2019-12-17T10:52:08.000Z</time>
      </trkpt>
      <trkpt lat="43.36879" lon="6.00794">
        <ele>613</ele>
        <time>2019-12-17T10:52:09.000Z</time>
      </trkpt>
      <trkpt lat="43.3688" lon="6.00794">
        <ele>613</ele>
        <time>2019-12-17T10:52:10.000Z</time>
      </trkpt>
      <trkpt lat="43.36881" lon="6.00794">
        <ele>613</ele>
        <time>2019-12-17T10:52:11.000Z</time>
      </trkpt>
      <trkpt lat="43.36882" lon="6.00794">
        <ele>613</ele>
        <time>2019-12-17T10:52:12.000Z</time>
      </trkpt>
      <trkpt lat="43.36882" lon="6.00795">
        <ele>613</ele>
        <time>2019-12-17T10:52:13.000Z</time>
      </trkpt>
      <trkpt lat="43.36883" lon="6.00795">
        <ele>613</ele>
        <time>2019-12-17T10:52:14.000Z</time>
      </trkpt>
      <trkpt lat="43.36884" lon="6.00796">
        <ele>613</ele>
        <time>2019-12-17T10:52:15.000Z</time>
      </trkpt>
      <trkpt lat="43.36885" lon="6.00797">
        <ele>612</ele>
        <time>2019-12-17T10:52:16.000Z</time>
      </trkpt>
      <trkpt lat="43.36886" lon="6.00798">
        <ele>612</ele>
        <time>2019-12-17T10:52:17.000Z</time>
      </trkpt>
      <trkpt lat="43.36886" lon="6.00799">
        <ele>612</ele>
        <time>2019-12-17T10:52:18.000Z</time>
      </trkpt>
      <trkpt lat="43.36886" lon="6.00799">
        <ele>612</ele>
        <time>2019-12-17T10:52:19.000Z</time>
      </trkpt>
      <trkpt lat="43.36887" lon="6.00801">
        <ele>612</ele>
        <time>2019-12-17T10:52:20.000Z</time>
      </trkpt>
      <trkpt lat="43.36887" lon="6.00802">
        <ele>612</ele>
        <time>2019-12-17T10:52:21.000Z</time>
      </trkpt>
      <trkpt lat="43.36886" lon="6.00803">
        <ele>611</ele>
        <time>2019-12-17T10:52:22.000Z</time>
      </trkpt>
      <trkpt lat="43.36886" lon="6.00804">
        <ele>611</ele>
        <time>2019-12-17T10:52:23.000Z</time>
      </trkpt>
      <trkpt lat="43.36885" lon="6.00806">
        <ele>611</ele>
        <time>2019-12-17T10:52:24.000Z</time>
      </trkpt>
      <trkpt lat="43.36884" lon="6.00807">
        <ele>611</ele>
        <time>2019-12-17T10:52:25.000Z</time>
      </trkpt>
      <trkpt lat="43.36884" lon="6.00809">
        <ele>611</ele>
        <time>2019-12-17T10:52:26.000Z</time>
      </trkpt>
      <trkpt lat="43.36883" lon="6.00811">
        <ele>611</ele>
        <time>2019-12-17T10:52:27.000Z</time>
      </trkpt>
      <trkpt lat="43.36883" lon="6.00813">
        <ele>611</ele>
        <time>2019-12-17T10:52:28.000Z</time>
      </trkpt>
      <trkpt lat="43.36883" lon="6.00815">
        <ele>610</ele>
        <time>2019-12-17T10:52:29.000Z</time>
      </trkpt>
      <trkpt lat="43.36883" lon="6.00816">
        <ele>610</ele>
        <time>2019-12-17T10:52:30.000Z</time>
      </trkpt>
      <trkpt lat="43.36883" lon="6.00818">
        <ele>610</ele>
        <time>2019-12-17T10:52:31.000Z</time>
      </trkpt>
      <trkpt lat="43.36883" lon="6.0082">
        <ele>610</ele>
        <time>2019-12-17T10:52:32.000Z</time>
      </trkpt>
      <trkpt lat="43.36883" lon="6.00822">
        <ele>610</ele>
        <time>2019-12-17T10:52:33.000Z</time>
      </trkpt>
      <trkpt lat="43.36883" lon="6.00823">
        <ele>610</ele>
        <time>2019-12-17T10:52:34.000Z</time>
      </trkpt>
      <trkpt lat="43.36883" lon="6.00825">
        <ele>610</ele>
        <time>2019-12-17T10:52:35.000Z</time>
      </trkpt>
      <trkpt lat="43.36883" lon="6.00826">
        <ele>610</ele>
        <time>2019-12-17T10:52:36.000Z</time>
      </trkpt>
      <trkpt lat="43.36883" lon="6.00828">
        <ele>610</ele>
        <time>2019-12-17T10:52:37.000Z</time>
      </trkpt>
      <trkpt lat="43.36883" lon="6.00829">
        <ele>609</ele>
        <time>2019-12-17T10:52:38.000Z</time>
      </trkpt>
      <trkpt lat="43.36884" lon="6.00831">
        <ele>609</ele>
        <time>2019-12-17T10:52:39.000Z</time>
      </trkpt>
      <trkpt lat="43.36884" lon="6.00832">
        <ele>609</ele>
        <time>2019-12-17T10:52:40.000Z</time>
      </trkpt>
      <trkpt lat="43.36884" lon="6.00833">
        <ele>609</ele>
        <time>2019-12-17T10:52:41.000Z</time>
      </trkpt>
      <trkpt lat="43.36884" lon="6.00835">
        <ele>609</ele>
        <time>2019-12-17T10:52:42.000Z</time>
      </trkpt>
      <trkpt lat="43.36884" lon="6.00836">
        <ele>609</ele>
        <time>2019-12-17T10:52:43.000Z</time>
      </trkpt>
      <trkpt lat="43.36884" lon="6.00837">
        <ele>609</ele>
        <time>2019-12-17T10:52:44.000Z</time>
      </trkpt>
      <trkpt lat="43.36885" lon="6.00837">
        <ele>609</ele>
        <time>2019-12-17T10:52:45.000Z</time>
      </trkpt>
      <trkpt lat="43.36885" lon="6.00838">
        <ele>608</ele>
        <time>2019-12-17T10:52:46.000Z</time>
      </trkpt>
      <trkpt lat="43.36886" lon="6.00839">
        <ele>608</ele>
        <time>2019-12-17T10:52:47.000Z</time>
      </trkpt>
      <trkpt lat="43.36886" lon="6.0084">
        <ele>608</ele>
        <time>2019-12-17T10:52:48.000Z</time>
      </trkpt>
      <trkpt lat="43.36887" lon="6.00841">
        <ele>608</ele>
        <time>2019-12-17T10:52:49.000Z</time>
      </trkpt>
      <trkpt lat="43.36887" lon="6.00842">
        <ele>608</ele>
        <time>2019-12-17T10:52:50.000Z</time>
      </trkpt>
      <trkpt lat="43.36888" lon="6.00843">
        <ele>607</ele>
        <time>2019-12-17T10:52:51.000Z</time>
      </trkpt>
      <trkpt lat="43.36889" lon="6.00845">
        <ele>607</ele>
        <time>2019-12-17T10:52:52.000Z</time>
      </trkpt>
      <trkpt lat="43.36889" lon="6.00846">
        <ele>607</ele>
        <time>2019-12-17T10:52:53.000Z</time>
      </trkpt>
      <trkpt lat="43.36888" lon="6.00847">
        <ele>607</ele>
        <time>2019-12-17T10:52:54.000Z</time>
      </trkpt>
      <trkpt lat="43.36888" lon="6.00849">
        <ele>606</ele>
        <time>2019-12-17T10:52:55.000Z</time>
      </trkpt>
      <trkpt lat="43.36888" lon="6.0085">
        <ele>606</ele>
        <time>2019-12-17T10:52:56.000Z</time>
      </trkpt>
      <trkpt lat="43.36888" lon="6.00851">
        <ele>606</ele>
        <time>2019-12-17T10:52:57.000Z</time>
      </trkpt>
      <trkpt lat="43.36888" lon="6.00852">
        <ele>606</ele>
        <time>2019-12-17T10:52:58.000Z</time>
      </trkpt>
      <trkpt lat="43.36887" lon="6.00853">
        <ele>605</ele>
        <time>2019-12-17T10:52:59.000Z</time>
      </trkpt>
      <trkpt lat="43.36887" lon="6.00853">
        <ele>605</ele>
        <time>2019-12-17T10:53:00.000Z</time>
      </trkpt>
      <trkpt lat="43.36887" lon="6.00854">
        <ele>605</ele>
        <time>2019-12-17T10:53:01.000Z</time>
      </trkpt>
      <trkpt lat="43.36887" lon="6.00855">
        <ele>605</ele>
        <time>2019-12-17T10:53:02.000Z</time>
      </trkpt>
      <trkpt lat="43.36887" lon="6.00855">
        <ele>605</ele>
        <time>2019-12-17T10:53:03.000Z</time>
      </trkpt>
      <trkpt lat="43.36888" lon="6.00856">
        <ele>604</ele>
        <time>2019-12-17T10:53:04.000Z</time>
      </trkpt>
      <trkpt lat="43.36888" lon="6.00858">
        <ele>604</ele>
        <time>2019-12-17T10:53:05.000Z</time>
      </trkpt>
      <trkpt lat="43.36888" lon="6.00859">
        <ele>604</ele>
        <time>2019-12-17T10:53:06.000Z</time>
      </trkpt>
      <trkpt lat="43.36888" lon="6.0086">
        <ele>604</ele>
        <time>2019-12-17T10:53:07.000Z</time>
      </trkpt>
      <trkpt lat="43.36888" lon="6.00862">
        <ele>604</ele>
        <time>2019-12-17T10:53:08.000Z</time>
      </trkpt>
      <trkpt lat="43.36887" lon="6.00863">
        <ele>604</ele>
        <time>2019-12-17T10:53:09.000Z</time>
      </trkpt>
      <trkpt lat="43.36887" lon="6.00864">
        <ele>604</ele>
        <time>2019-12-17T10:53:10.000Z</time>
      </trkpt>
      <trkpt lat="43.36887" lon="6.00864">
        <ele>604</ele>
        <time>2019-12-17T10:53:11.000Z</time>
      </trkpt>
      <trkpt lat="43.36887" lon="6.00864">
        <ele>604</ele>
        <time>2019-12-17T10:53:12.000Z</time>
      </trkpt>
      <trkpt lat="43.36888" lon="6.00865">
        <ele>604</ele>
        <time>2019-12-17T10:53:13.000Z</time>
      </trkpt>
      <trkpt lat="43.36888" lon="6.00865">
        <ele>603</ele>
        <time>2019-12-17T10:53:14.000Z</time>
      </trkpt>
      <trkpt lat="43.36888" lon="6.00867">
        <ele>603</ele>
        <time>2019-12-17T10:53:15.000Z</time>
      </trkpt>
      <trkpt lat="43.36888" lon="6.00868">
        <ele>603</ele>
        <time>2019-12-17T10:53:16.000Z</time>
      </trkpt>
      <trkpt lat="43.36887" lon="6.0087">
        <ele>603</ele>
        <time>2019-12-17T10:53:17.000Z</time>
      </trkpt>
      <trkpt lat="43.36888" lon="6.00871">
        <ele>603</ele>
        <time>2019-12-17T10:53:18.000Z</time>
      </trkpt>
      <trkpt lat="43.36888" lon="6.00872">
        <ele>603</ele>
        <time>2019-12-17T10:53:19.000Z</time>
      </trkpt>
      <trkpt lat="43.36887" lon="6.00873">
        <ele>603</ele>
        <time>2019-12-17T10:53:20.000Z</time>
      </trkpt>
      <trkpt lat="43.36887" lon="6.00875">
        <ele>602</ele>
        <time>2019-12-17T10:53:21.000Z</time>
      </trkpt>
      <trkpt lat="43.36887" lon="6.00876">
        <ele>602</ele>
        <time>2019-12-17T10:53:22.000Z</time>
      </trkpt>
      <trkpt lat="43.36887" lon="6.00877">
        <ele>602</ele>
        <time>2019-12-17T10:53:23.000Z</time>
      </trkpt>
      <trkpt lat="43.36887" lon="6.00878">
        <ele>602</ele>
        <time>2019-12-17T10:53:24.000Z</time>
      </trkpt>
      <trkpt lat="43.36887" lon="6.00879">
        <ele>602</ele>
        <time>2019-12-17T10:53:25.000Z</time>
      </trkpt>
      <trkpt lat="43.36887" lon="6.00881">
        <ele>602</ele>
        <time>2019-12-17T10:53:26.000Z</time>
      </trkpt>
      <trkpt lat="43.36887" lon="6.00882">
        <ele>601</ele>
        <time>2019-12-17T10:53:27.000Z</time>
      </trkpt>
      <trkpt lat="43.36887" lon="6.00883">
        <ele>601</ele>
        <time>2019-12-17T10:53:28.000Z</time>
      </trkpt>
      <trkpt lat="43.36887" lon="6.00884">
        <ele>601</ele>
        <time>2019-12-17T10:53:29.000Z</time>
      </trkpt>
      <trkpt lat="43.36888" lon="6.00884">
        <ele>601</ele>
        <time>2019-12-17T10:53:30.000Z</time>
      </trkpt>
      <trkpt lat="43.36888" lon="6.00885">
        <ele>601</ele>
        <time>2019-12-17T10:53:31.000Z</time>
      </trkpt>
      <trkpt lat="43.36889" lon="6.00886">
        <ele>601</ele>
        <time>2019-12-17T10:53:32.000Z</time>
      </trkpt>
      <trkpt lat="43.36889" lon="6.00886">
        <ele>600</ele>
        <time>2019-12-17T10:53:33.000Z</time>
      </trkpt>
      <trkpt lat="43.3689" lon="6.00887">
        <ele>600</ele>
        <time>2019-12-17T10:53:34.000Z</time>
      </trkpt>
      <trkpt lat="43.36891" lon="6.00888">
        <ele>600</ele>
        <time>2019-12-17T10:53:35.000Z</time>
      </trkpt>
      <trkpt lat="43.36891" lon="6.00889">
        <ele>600</ele>
        <time>2019-12-17T10:53:36.000Z</time>
      </trkpt>
      <trkpt lat="43.36891" lon="6.0089">
        <ele>600</ele>
        <time>2019-12-17T10:53:37.000Z</time>
      </trkpt>
      <trkpt lat="43.36892" lon="6.00891">
        <ele>600</ele>
        <time>2019-12-17T10:53:38.000Z</time>
      </trkpt>
      <trkpt lat="43.36892" lon="6.00891">
        <ele>599</ele>
        <time>2019-12-17T10:53:39.000Z</time>
      </trkpt>
      <trkpt lat="43.36892" lon="6.00892">
        <ele>599</ele>
        <time>2019-12-17T10:53:40.000Z</time>
      </trkpt>
      <trkpt lat="43.36893" lon="6.00893">
        <ele>599</ele>
        <time>2019-12-17T10:53:41.000Z</time>
      </trkpt>
      <trkpt lat="43.36893" lon="6.00894">
        <ele>599</ele>
        <time>2019-12-17T10:53:42.000Z</time>
      </trkpt>
      <trkpt lat="43.36894" lon="6.00895">
        <ele>599</ele>
        <time>2019-12-17T10:53:43.000Z</time>
      </trkpt>
      <trkpt lat="43.36894" lon="6.00896">
        <ele>599</ele>
        <time>2019-12-17T10:53:44.000Z</time>
      </trkpt>
      <trkpt lat="43.36895" lon="6.00897">
        <ele>598</ele>
        <time>2019-12-17T10:53:45.000Z</time>
      </trkpt>
      <trkpt lat="43.36895" lon="6.00898">
        <ele>598</ele>
        <time>2019-12-17T10:53:46.000Z</time>
      </trkpt>
      <trkpt lat="43.36896" lon="6.00899">
        <ele>598</ele>
        <time>2019-12-17T10:53:47.000Z</time>
      </trkpt>
      <trkpt lat="43.36897" lon="6.009">
        <ele>598</ele>
        <time>2019-12-17T10:53:48.000Z</time>
      </trkpt>
      <trkpt lat="43.36897" lon="6.00901">
        <ele>598</ele>
        <time>2019-12-17T10:53:49.000Z</time>
      </trkpt>
      <trkpt lat="43.36898" lon="6.00902">
        <ele>597</ele>
        <time>2019-12-17T10:53:50.000Z</time>
      </trkpt>
      <trkpt lat="43.36899" lon="6.00903">
        <ele>597</ele>
        <time>2019-12-17T10:53:51.000Z</time>
      </trkpt>
      <trkpt lat="43.36899" lon="6.00904">
        <ele>597</ele>
        <time>2019-12-17T10:53:52.000Z</time>
      </trkpt>
      <trkpt lat="43.369" lon="6.00905">
        <ele>597</ele>
        <time>2019-12-17T10:53:53.000Z</time>
      </trkpt>
      <trkpt lat="43.36901" lon="6.00906">
        <ele>596</ele>
        <time>2019-12-17T10:53:54.000Z</time>
      </trkpt>
      <trkpt lat="43.36901" lon="6.00907">
        <ele>596</ele>
        <time>2019-12-17T10:53:55.000Z</time>
      </trkpt>
      <trkpt lat="43.36902" lon="6.00908">
        <ele>596</ele>
        <time>2019-12-17T10:53:56.000Z</time>
      </trkpt>
      <trkpt lat="43.36903" lon="6.00909">
        <ele>596</ele>
        <time>2019-12-17T10:53:57.000Z</time>
      </trkpt>
      <trkpt lat="43.36903" lon="6.0091">
        <ele>595</ele>
        <time>2019-12-17T10:53:58.000Z</time>
      </trkpt>
      <trkpt lat="43.36904" lon="6.00911">
        <ele>595</ele>
        <time>2019-12-17T10:53:59.000Z</time>
      </trkpt>
      <trkpt lat="43.36904" lon="6.00912">
        <ele>595</ele>
        <time>2019-12-17T10:54:00.000Z</time>
      </trkpt>
      <trkpt lat="43.36905" lon="6.00913">
        <ele>594</ele>
        <time>2019-12-17T10:54:01.000Z</time>
      </trkpt>
      <trkpt lat="43.36906" lon="6.00913">
        <ele>594</ele>
        <time>2019-12-17T10:54:02.000Z</time>
      </trkpt>
      <trkpt lat="43.36906" lon="6.00914">
        <ele>594</ele>
        <time>2019-12-17T10:54:03.000Z</time>
      </trkpt>
      <trkpt lat="43.36906" lon="6.00915">
        <ele>593</ele>
        <time>2019-12-17T10:54:04.000Z</time>
      </trkpt>
      <trkpt lat="43.36906" lon="6.00917">
        <ele>593</ele>
        <time>2019-12-17T10:54:05.000Z</time>
      </trkpt>
      <trkpt lat="43.36907" lon="6.00918">
        <ele>593</ele>
        <time>2019-12-17T10:54:06.000Z</time>
      </trkpt>
      <trkpt lat="43.36907" lon="6.00919">
        <ele>592</ele>
        <time>2019-12-17T10:54:07.000Z</time>
      </trkpt>
      <trkpt lat="43.36908" lon="6.00919">
        <ele>592</ele>
        <time>2019-12-17T10:54:08.000Z</time>
      </trkpt>
      <trkpt lat="43.36909" lon="6.0092">
        <ele>592</ele>
        <time>2019-12-17T10:54:09.000Z</time>
      </trkpt>
      <trkpt lat="43.3691" lon="6.0092">
        <ele>592</ele>
        <time>2019-12-17T10:54:10.000Z</time>
      </trkpt>
      <trkpt lat="43.36911" lon="6.00921">
        <ele>591</ele>
        <time>2019-12-17T10:54:11.000Z</time>
      </trkpt>
      <trkpt lat="43.36912" lon="6.00922">
        <ele>591</ele>
        <time>2019-12-17T10:54:12.000Z</time>
      </trkpt>
      <trkpt lat="43.36912" lon="6.00923">
        <ele>591</ele>
        <time>2019-12-17T10:54:13.000Z</time>
      </trkpt>
      <trkpt lat="43.36913" lon="6.00924">
        <ele>591</ele>
        <time>2019-12-17T10:54:14.000Z</time>
      </trkpt>
      <trkpt lat="43.36913" lon="6.00925">
        <ele>590</ele>
        <time>2019-12-17T10:54:15.000Z</time>
      </trkpt>
      <trkpt lat="43.36914" lon="6.00926">
        <ele>590</ele>
        <time>2019-12-17T10:54:16.000Z</time>
      </trkpt>
      <trkpt lat="43.36914" lon="6.00927">
        <ele>590</ele>
        <time>2019-12-17T10:54:17.000Z</time>
      </trkpt>
      <trkpt lat="43.36914" lon="6.00929">
        <ele>590</ele>
        <time>2019-12-17T10:54:18.000Z</time>
      </trkpt>
      <trkpt lat="43.36914" lon="6.0093">
        <ele>590</ele>
        <time>2019-12-17T10:54:19.000Z</time>
      </trkpt>
      <trkpt lat="43.36914" lon="6.00932">
        <ele>589</ele>
        <time>2019-12-17T10:54:20.000Z</time>
      </trkpt>
      <trkpt lat="43.36914" lon="6.00934">
        <ele>589</ele>
        <time>2019-12-17T10:54:21.000Z</time>
      </trkpt>
      <trkpt lat="43.36914" lon="6.00935">
        <ele>589</ele>
        <time>2019-12-17T10:54:22.000Z</time>
      </trkpt>
      <trkpt lat="43.36915" lon="6.00937">
        <ele>589</ele>
        <time>2019-12-17T10:54:23.000Z</time>
      </trkpt>
      <trkpt lat="43.36915" lon="6.00938">
        <ele>589</ele>
        <time>2019-12-17T10:54:24.000Z</time>
      </trkpt>
      <trkpt lat="43.36915" lon="6.00939">
        <ele>588</ele>
        <time>2019-12-17T10:54:25.000Z</time>
      </trkpt>
      <trkpt lat="43.36915" lon="6.0094">
        <ele>588</ele>
        <time>2019-12-17T10:54:26.000Z</time>
      </trkpt>
      <trkpt lat="43.36915" lon="6.00941">
        <ele>588</ele>
        <time>2019-12-17T10:54:27.000Z</time>
      </trkpt>
      <trkpt lat="43.36916" lon="6.00942">
        <ele>588</ele>
        <time>2019-12-17T10:54:28.000Z</time>
      </trkpt>
      <trkpt lat="43.36916" lon="6.00943">
        <ele>587</ele>
        <time>2019-12-17T10:54:29.000Z</time>
      </trkpt>
      <trkpt lat="43.36916" lon="6.00945">
        <ele>587</ele>
        <time>2019-12-17T10:54:30.000Z</time>
      </trkpt>
      <trkpt lat="43.36916" lon="6.00946">
        <ele>587</ele>
        <time>2019-12-17T10:54:31.000Z</time>
      </trkpt>
      <trkpt lat="43.36917" lon="6.00947">
        <ele>587</ele>
        <time>2019-12-17T10:54:32.000Z</time>
      </trkpt>
      <trkpt lat="43.36917" lon="6.00948">
        <ele>587</ele>
        <time>2019-12-17T10:54:33.000Z</time>
      </trkpt>
      <trkpt lat="43.36918" lon="6.00949">
        <ele>586</ele>
        <time>2019-12-17T10:54:34.000Z</time>
      </trkpt>
      <trkpt lat="43.36918" lon="6.0095">
        <ele>586</ele>
        <time>2019-12-17T10:54:35.000Z</time>
      </trkpt>
      <trkpt lat="43.36918" lon="6.00952">
        <ele>586</ele>
        <time>2019-12-17T10:54:36.000Z</time>
      </trkpt>
      <trkpt lat="43.36919" lon="6.00953">
        <ele>586</ele>
        <time>2019-12-17T10:54:37.000Z</time>
      </trkpt>
      <trkpt lat="43.36919" lon="6.00954">
        <ele>586</ele>
        <time>2019-12-17T10:54:38.000Z</time>
      </trkpt>
      <trkpt lat="43.36919" lon="6.00956">
        <ele>586</ele>
        <time>2019-12-17T10:54:39.000Z</time>
      </trkpt>
      <trkpt lat="43.3692" lon="6.00957">
        <ele>585</ele>
        <time>2019-12-17T10:54:40.000Z</time>
      </trkpt>
      <trkpt lat="43.36921" lon="6.00958">
        <ele>585</ele>
        <time>2019-12-17T10:54:41.000Z</time>
      </trkpt>
      <trkpt lat="43.36921" lon="6.00959">
        <ele>585</ele>
        <time>2019-12-17T10:54:42.000Z</time>
      </trkpt>
      <trkpt lat="43.36922" lon="6.0096">
        <ele>585</ele>
        <time>2019-12-17T10:54:43.000Z</time>
      </trkpt>
      <trkpt lat="43.36922" lon="6.00961">
        <ele>585</ele>
        <time>2019-12-17T10:54:44.000Z</time>
      </trkpt>
      <trkpt lat="43.36922" lon="6.00962">
        <ele>584</ele>
        <time>2019-12-17T10:54:45.000Z</time>
      </trkpt>
      <trkpt lat="43.36922" lon="6.00963">
        <ele>584</ele>
        <time>2019-12-17T10:54:46.000Z</time>
      </trkpt>
      <trkpt lat="43.36922" lon="6.00965">
        <ele>584</ele>
        <time>2019-12-17T10:54:47.000Z</time>
      </trkpt>
      <trkpt lat="43.36922" lon="6.00966">
        <ele>584</ele>
        <time>2019-12-17T10:54:48.000Z</time>
      </trkpt>
      <trkpt lat="43.36923" lon="6.00967">
        <ele>584</ele>
        <time>2019-12-17T10:54:49.000Z</time>
      </trkpt>
      <trkpt lat="43.36923" lon="6.00969">
        <ele>584</ele>
        <time>2019-12-17T10:54:50.000Z</time>
      </trkpt>
      <trkpt lat="43.36923" lon="6.0097">
        <ele>583</ele>
        <time>2019-12-17T10:54:51.000Z</time>
      </trkpt>
      <trkpt lat="43.36923" lon="6.00972">
        <ele>583</ele>
        <time>2019-12-17T10:54:52.000Z</time>
      </trkpt>
      <trkpt lat="43.36924" lon="6.00973">
        <ele>583</ele>
        <time>2019-12-17T10:54:53.000Z</time>
      </trkpt>
      <trkpt lat="43.36924" lon="6.00975">
        <ele>583</ele>
        <time>2019-12-17T10:54:54.000Z</time>
      </trkpt>
      <trkpt lat="43.36924" lon="6.00976">
        <ele>583</ele>
        <time>2019-12-17T10:54:55.000Z</time>
      </trkpt>
      <trkpt lat="43.36925" lon="6.00978">
        <ele>583</ele>
        <time>2019-12-17T10:54:56.000Z</time>
      </trkpt>
      <trkpt lat="43.36925" lon="6.00979">
        <ele>583</ele>
        <time>2019-12-17T10:54:57.000Z</time>
      </trkpt>
      <trkpt lat="43.36926" lon="6.0098">
        <ele>583</ele>
        <time>2019-12-17T10:54:58.000Z</time>
      </trkpt>
      <trkpt lat="43.36926" lon="6.00982">
        <ele>583</ele>
        <time>2019-12-17T10:54:59.000Z</time>
      </trkpt>
      <trkpt lat="43.36926" lon="6.00983">
        <ele>582</ele>
        <time>2019-12-17T10:55:00.000Z</time>
      </trkpt>
      <trkpt lat="43.36927" lon="6.00984">
        <ele>582</ele>
        <time>2019-12-17T10:55:01.000Z</time>
      </trkpt>
      <trkpt lat="43.36927" lon="6.00985">
        <ele>582</ele>
        <time>2019-12-17T10:55:02.000Z</time>
      </trkpt>
      <trkpt lat="43.36927" lon="6.00987">
        <ele>582</ele>
        <time>2019-12-17T10:55:03.000Z</time>
      </trkpt>
      <trkpt lat="43.36927" lon="6.00988">
        <ele>582</ele>
        <time>2019-12-17T10:55:04.000Z</time>
      </trkpt>
      <trkpt lat="43.36927" lon="6.00989">
        <ele>582</ele>
        <time>2019-12-17T10:55:05.000Z</time>
      </trkpt>
      <trkpt lat="43.36928" lon="6.0099">
        <ele>582</ele>
        <time>2019-12-17T10:55:06.000Z</time>
      </trkpt>
      <trkpt lat="43.36928" lon="6.00991">
        <ele>582</ele>
        <time>2019-12-17T10:55:07.000Z</time>
      </trkpt>
      <trkpt lat="43.36929" lon="6.00992">
        <ele>582</ele>
        <time>2019-12-17T10:55:08.000Z</time>
      </trkpt>
      <trkpt lat="43.36929" lon="6.00993">
        <ele>582</ele>
        <time>2019-12-17T10:55:09.000Z</time>
      </trkpt>
      <trkpt lat="43.36929" lon="6.00994">
        <ele>581</ele>
        <time>2019-12-17T10:55:10.000Z</time>
      </trkpt>
      <trkpt lat="43.3693" lon="6.00995">
        <ele>581</ele>
        <time>2019-12-17T10:55:11.000Z</time>
      </trkpt>
      <trkpt lat="43.3693" lon="6.00996">
        <ele>581</ele>
        <time>2019-12-17T10:55:12.000Z</time>
      </trkpt>
      <trkpt lat="43.36931" lon="6.00997">
        <ele>581</ele>
        <time>2019-12-17T10:55:13.000Z</time>
      </trkpt>
      <trkpt lat="43.36931" lon="6.00998">
        <ele>581</ele>
        <time>2019-12-17T10:55:14.000Z</time>
      </trkpt>
      <trkpt lat="43.36931" lon="6.00999">
        <ele>581</ele>
        <time>2019-12-17T10:55:15.000Z</time>
      </trkpt>
      <trkpt lat="43.36931" lon="6.01">
        <ele>581</ele>
        <time>2019-12-17T10:55:16.000Z</time>
      </trkpt>
      <trkpt lat="43.36932" lon="6.01001">
        <ele>581</ele>
        <time>2019-12-17T10:55:17.000Z</time>
      </trkpt>
      <trkpt lat="43.36932" lon="6.01002">
        <ele>581</ele>
        <time>2019-12-17T10:55:18.000Z</time>
      </trkpt>
      <trkpt lat="43.36932" lon="6.01003">
        <ele>581</ele>
        <time>2019-12-17T10:55:19.000Z</time>
      </trkpt>
      <trkpt lat="43.36932" lon="6.01004">
        <ele>581</ele>
        <time>2019-12-17T10:55:20.000Z</time>
      </trkpt>
      <trkpt lat="43.36933" lon="6.01006">
        <ele>580</ele>
        <time>2019-12-17T10:55:21.000Z</time>
      </trkpt>
      <trkpt lat="43.36933" lon="6.01007">
        <ele>580</ele>
        <time>2019-12-17T10:55:22.000Z</time>
      </trkpt>
      <trkpt lat="43.36933" lon="6.01007">
        <ele>580</ele>
        <time>2019-12-17T10:55:23.000Z</time>
      </trkpt>
      <trkpt lat="43.36933" lon="6.01008">
        <ele>580</ele>
        <time>2019-12-17T10:55:24.000Z</time>
      </trkpt>
      <trkpt lat="43.36934" lon="6.01009">
        <ele>580</ele>
        <time>2019-12-17T10:55:25.000Z</time>
      </trkpt>
      <trkpt lat="43.36934" lon="6.01009">
        <ele>580</ele>
        <time>2019-12-17T10:55:26.000Z</time>
      </trkpt>
      <trkpt lat="43.36934" lon="6.0101">
        <ele>580</ele>
        <time>2019-12-17T10:55:27.000Z</time>
      </trkpt>
      <trkpt lat="43.36934" lon="6.01011">
        <ele>579</ele>
        <time>2019-12-17T10:55:28.000Z</time>
      </trkpt>
      <trkpt lat="43.36934" lon="6.01012">
        <ele>579</ele>
        <time>2019-12-17T10:55:29.000Z</time>
      </trkpt>
      <trkpt lat="43.36933" lon="6.01013">
        <ele>579</ele>
        <time>2019-12-17T10:55:30.000Z</time>
      </trkpt>
      <trkpt lat="43.36934" lon="6.01015">
        <ele>579</ele>
        <time>2019-12-17T10:55:31.000Z</time>
      </trkpt>
      <trkpt lat="43.36934" lon="6.01016">
        <ele>579</ele>
        <time>2019-12-17T10:55:32.000Z</time>
      </trkpt>
      <trkpt lat="43.36934" lon="6.01017">
        <ele>578</ele>
        <time>2019-12-17T10:55:33.000Z</time>
      </trkpt>
      <trkpt lat="43.36934" lon="6.01019">
        <ele>578</ele>
        <time>2019-12-17T10:55:34.000Z</time>
      </trkpt>
      <trkpt lat="43.36934" lon="6.0102">
        <ele>578</ele>
        <time>2019-12-17T10:55:35.000Z</time>
      </trkpt>
      <trkpt lat="43.36934" lon="6.01021">
        <ele>578</ele>
        <time>2019-12-17T10:55:36.000Z</time>
      </trkpt>
      <trkpt lat="43.36935" lon="6.01022">
        <ele>578</ele>
        <time>2019-12-17T10:55:37.000Z</time>
      </trkpt>
      <trkpt lat="43.36935" lon="6.01024">
        <ele>578</ele>
        <time>2019-12-17T10:55:38.000Z</time>
      </trkpt>
      <trkpt lat="43.36935" lon="6.01025">
        <ele>578</ele>
        <time>2019-12-17T10:55:39.000Z</time>
      </trkpt>
      <trkpt lat="43.36935" lon="6.01026">
        <ele>577</ele>
        <time>2019-12-17T10:55:40.000Z</time>
      </trkpt>
      <trkpt lat="43.36935" lon="6.01027">
        <ele>577</ele>
        <time>2019-12-17T10:55:41.000Z</time>
      </trkpt>
      <trkpt lat="43.36936" lon="6.01027">
        <ele>577</ele>
        <time>2019-12-17T10:55:42.000Z</time>
      </trkpt>
      <trkpt lat="43.36936" lon="6.01028">
        <ele>577</ele>
        <time>2019-12-17T10:55:43.000Z</time>
      </trkpt>
      <trkpt lat="43.36936" lon="6.01028">
        <ele>577</ele>
        <time>2019-12-17T10:55:44.000Z</time>
      </trkpt>
      <trkpt lat="43.36936" lon="6.01028">
        <ele>577</ele>
        <time>2019-12-17T10:55:45.000Z</time>
      </trkpt>
      <trkpt lat="43.36936" lon="6.01028">
        <ele>577</ele>
        <time>2019-12-17T10:55:46.000Z</time>
      </trkpt>
      <trkpt lat="43.36936" lon="6.01028">
        <ele>577</ele>
        <time>2019-12-17T10:55:47.000Z</time>
      </trkpt>
      <trkpt lat="43.36936" lon="6.01028">
        <ele>577</ele>
        <time>2019-12-17T10:55:48.000Z</time>
      </trkpt>
      <trkpt lat="43.36936" lon="6.01028">
        <ele>577</ele>
        <time>2019-12-17T10:55:49.000Z</time>
      </trkpt>
      <trkpt lat="43.36936" lon="6.01029">
        <ele>577</ele>
        <time>2019-12-17T10:55:50.000Z</time>
      </trkpt>
      <trkpt lat="43.36936" lon="6.01029">
        <ele>577</ele>
        <time>2019-12-17T10:55:51.000Z</time>
      </trkpt>
      <trkpt lat="43.36936" lon="6.01029">
        <ele>577</ele>
        <time>2019-12-17T10:55:52.000Z</time>
      </trkpt>
      <trkpt lat="43.36936" lon="6.01029">
        <ele>577</ele>
        <time>2019-12-17T10:55:53.000Z</time>
      </trkpt>
      <trkpt lat="43.36936" lon="6.01029">
        <ele>577</ele>
        <time>2019-12-17T10:55:54.000Z</time>
      </trkpt>
      <trkpt lat="43.36936" lon="6.01029">
        <ele>577</ele>
        <time>2019-12-17T10:55:55.000Z</time>
      </trkpt>
      <trkpt lat="43.36936" lon="6.01029">
        <ele>577</ele>
        <time>2019-12-17T10:55:56.000Z</time>
      </trkpt>
      <trkpt lat="43.36936" lon="6.01029">
        <ele>576</ele>
        <time>2019-12-17T10:55:57.000Z</time>
      </trkpt>
      <trkpt lat="43.36936" lon="6.01029">
        <ele>576</ele>
        <time>2019-12-17T10:55:58.000Z</time>
      </trkpt>
      <trkpt lat="43.36936" lon="6.01029">
        <ele>576</ele>
        <time>2019-12-17T10:55:59.000Z</time>
      </trkpt>
      <trkpt lat="43.36936" lon="6.01029">
        <ele>576</ele>
        <time>2019-12-17T10:56:00.000Z</time>
      </trkpt>
      <trkpt lat="43.36936" lon="6.01029">
        <ele>576</ele>
        <time>2019-12-17T10:56:01.000Z</time>
      </trkpt>
      <trkpt lat="43.36936" lon="6.01029">
        <ele>577</ele>
        <time>2019-12-17T10:56:02.000Z</time>
      </trkpt>
      <trkpt lat="43.36936" lon="6.01029">
        <ele>577</ele>
        <time>2019-12-17T10:56:03.000Z</time>
      </trkpt>
      <trkpt lat="43.36937" lon="6.01029">
        <ele>576</ele>
        <time>2019-12-17T10:56:04.000Z</time>
      </trkpt>
      <trkpt lat="43.36937" lon="6.0103">
        <ele>576</ele>
        <time>2019-12-17T10:56:05.000Z</time>
      </trkpt>
      <trkpt lat="43.36938" lon="6.01031">
        <ele>576</ele>
        <time>2019-12-17T10:56:06.000Z</time>
      </trkpt>
      <trkpt lat="43.36938" lon="6.01032">
        <ele>576</ele>
        <time>2019-12-17T10:56:07.000Z</time>
      </trkpt>
      <trkpt lat="43.36939" lon="6.01034">
        <ele>576</ele>
        <time>2019-12-17T10:56:08.000Z</time>
      </trkpt>
      <trkpt lat="43.36939" lon="6.01035">
        <ele>576</ele>
        <time>2019-12-17T10:56:09.000Z</time>
      </trkpt>
      <trkpt lat="43.36939" lon="6.01036">
        <ele>576</ele>
        <time>2019-12-17T10:56:10.000Z</time>
      </trkpt>
      <trkpt lat="43.36939" lon="6.01037">
        <ele>576</ele>
        <time>2019-12-17T10:56:11.000Z</time>
      </trkpt>
      <trkpt lat="43.36939" lon="6.01039">
        <ele>576</ele>
        <time>2019-12-17T10:56:12.000Z</time>
      </trkpt>
      <trkpt lat="43.3694" lon="6.0104">
        <ele>576</ele>
        <time>2019-12-17T10:56:13.000Z</time>
      </trkpt>
      <trkpt lat="43.3694" lon="6.01041">
        <ele>577</ele>
        <time>2019-12-17T10:56:14.000Z</time>
      </trkpt>
      <trkpt lat="43.36941" lon="6.01043">
        <ele>577</ele>
        <time>2019-12-17T10:56:15.000Z</time>
      </trkpt>
      <trkpt lat="43.36942" lon="6.01043">
        <ele>577</ele>
        <time>2019-12-17T10:56:16.000Z</time>
      </trkpt>
      <trkpt lat="43.36942" lon="6.01044">
        <ele>577</ele>
        <time>2019-12-17T10:56:17.000Z</time>
      </trkpt>
      <trkpt lat="43.36943" lon="6.01045">
        <ele>577</ele>
        <time>2019-12-17T10:56:18.000Z</time>
      </trkpt>
      <trkpt lat="43.36944" lon="6.01047">
        <ele>577</ele>
        <time>2019-12-17T10:56:19.000Z</time>
      </trkpt>
      <trkpt lat="43.36944" lon="6.01048">
        <ele>577</ele>
        <time>2019-12-17T10:56:20.000Z</time>
      </trkpt>
      <trkpt lat="43.36945" lon="6.01049">
        <ele>577</ele>
        <time>2019-12-17T10:56:21.000Z</time>
      </trkpt>
      <trkpt lat="43.36945" lon="6.0105">
        <ele>577</ele>
        <time>2019-12-17T10:56:22.000Z</time>
      </trkpt>
      <trkpt lat="43.36946" lon="6.01051">
        <ele>577</ele>
        <time>2019-12-17T10:56:23.000Z</time>
      </trkpt>
      <trkpt lat="43.36946" lon="6.01052">
        <ele>577</ele>
        <time>2019-12-17T10:56:24.000Z</time>
      </trkpt>
      <trkpt lat="43.36947" lon="6.01053">
        <ele>577</ele>
        <time>2019-12-17T10:56:25.000Z</time>
      </trkpt>
      <trkpt lat="43.36947" lon="6.01054">
        <ele>577</ele>
        <time>2019-12-17T10:56:26.000Z</time>
      </trkpt>
      <trkpt lat="43.36948" lon="6.01055">
        <ele>577</ele>
        <time>2019-12-17T10:56:27.000Z</time>
      </trkpt>
      <trkpt lat="43.36949" lon="6.01055">
        <ele>577</ele>
        <time>2019-12-17T10:56:28.000Z</time>
      </trkpt>
      <trkpt lat="43.36949" lon="6.01055">
        <ele>577</ele>
        <time>2019-12-17T10:56:29.000Z</time>
      </trkpt>
      <trkpt lat="43.36949" lon="6.01056">
        <ele>577</ele>
        <time>2019-12-17T10:56:30.000Z</time>
      </trkpt>
      <trkpt lat="43.36949" lon="6.01055">
        <ele>577</ele>
        <time>2019-12-17T10:56:31.000Z</time>
      </trkpt>
      <trkpt lat="43.36948" lon="6.01055">
        <ele>577</ele>
        <time>2019-12-17T10:56:32.000Z</time>
      </trkpt>
      <trkpt lat="43.36948" lon="6.01055">
        <ele>577</ele>
        <time>2019-12-17T10:56:33.000Z</time>
      </trkpt>
      <trkpt lat="43.36948" lon="6.01055">
        <ele>577</ele>
        <time>2019-12-17T10:56:34.000Z</time>
      </trkpt>
      <trkpt lat="43.36948" lon="6.01055">
        <ele>577</ele>
        <time>2019-12-17T10:56:35.000Z</time>
      </trkpt>
      <trkpt lat="43.36949" lon="6.01055">
        <ele>577</ele>
        <time>2019-12-17T10:56:36.000Z</time>
      </trkpt>
      <trkpt lat="43.36949" lon="6.01054">
        <ele>577</ele>
        <time>2019-12-17T10:56:37.000Z</time>
      </trkpt>
      <trkpt lat="43.3695" lon="6.01054">
        <ele>577</ele>
        <time>2019-12-17T10:56:38.000Z</time>
      </trkpt>
      <trkpt lat="43.36951" lon="6.01054">
        <ele>577</ele>
        <time>2019-12-17T10:56:39.000Z</time>
      </trkpt>
      <trkpt lat="43.36952" lon="6.01054">
        <ele>577</ele>
        <time>2019-12-17T10:56:40.000Z</time>
      </trkpt>
      <trkpt lat="43.36953" lon="6.01054">
        <ele>577</ele>
        <time>2019-12-17T10:56:41.000Z</time>
      </trkpt>
      <trkpt lat="43.36954" lon="6.01054">
        <ele>577</ele>
        <time>2019-12-17T10:56:42.000Z</time>
      </trkpt>
      <trkpt lat="43.36955" lon="6.01054">
        <ele>577</ele>
        <time>2019-12-17T10:56:43.000Z</time>
      </trkpt>
      <trkpt lat="43.36955" lon="6.01054">
        <ele>577</ele>
        <time>2019-12-17T10:56:44.000Z</time>
      </trkpt>
      <trkpt lat="43.36956" lon="6.01055">
        <ele>577</ele>
        <time>2019-12-17T10:56:45.000Z</time>
      </trkpt>
      <trkpt lat="43.36957" lon="6.01055">
        <ele>577</ele>
        <time>2019-12-17T10:56:46.000Z</time>
      </trkpt>
      <trkpt lat="43.36958" lon="6.01055">
        <ele>577</ele>
        <time>2019-12-17T10:56:47.000Z</time>
      </trkpt>
      <trkpt lat="43.36959" lon="6.01055">
        <ele>577</ele>
        <time>2019-12-17T10:56:48.000Z</time>
      </trkpt>
      <trkpt lat="43.36959" lon="6.01055">
        <ele>578</ele>
        <time>2019-12-17T10:56:49.000Z</time>
      </trkpt>
      <trkpt lat="43.3696" lon="6.01055">
        <ele>578</ele>
        <time>2019-12-17T10:56:50.000Z</time>
      </trkpt>
      <trkpt lat="43.3696" lon="6.01055">
        <ele>578</ele>
        <time>2019-12-17T10:56:51.000Z</time>
      </trkpt>
      <trkpt lat="43.3696" lon="6.01055">
        <ele>578</ele>
        <time>2019-12-17T10:56:52.000Z</time>
      </trkpt>
      <trkpt lat="43.3696" lon="6.01055">
        <ele>578</ele>
        <time>2019-12-17T10:56:53.000Z</time>
      </trkpt>
      <trkpt lat="43.3696" lon="6.01055">
        <ele>578</ele>
        <time>2019-12-17T10:56:54.000Z</time>
      </trkpt>
      <trkpt lat="43.36959" lon="6.01055">
        <ele>578</ele>
        <time>2019-12-17T10:56:55.000Z</time>
      </trkpt>
      <trkpt lat="43.36958" lon="6.01055">
        <ele>578</ele>
        <time>2019-12-17T10:56:56.000Z</time>
      </trkpt>
      <trkpt lat="43.36958" lon="6.01054">
        <ele>578</ele>
        <time>2019-12-17T10:56:57.000Z</time>
      </trkpt>
      <trkpt lat="43.36956" lon="6.01054">
        <ele>578</ele>
        <time>2019-12-17T10:56:58.000Z</time>
      </trkpt>
      <trkpt lat="43.36956" lon="6.01054">
        <ele>578</ele>
        <time>2019-12-17T10:56:59.000Z</time>
      </trkpt>
      <trkpt lat="43.36955" lon="6.01054">
        <ele>578</ele>
        <time>2019-12-17T10:57:00.000Z</time>
      </trkpt>
      <trkpt lat="43.36954" lon="6.01054">
        <ele>578</ele>
        <time>2019-12-17T10:57:01.000Z</time>
      </trkpt>
      <trkpt lat="43.36952" lon="6.01055">
        <ele>578</ele>
        <time>2019-12-17T10:57:02.000Z</time>
      </trkpt>
      <trkpt lat="43.36951" lon="6.01055">
        <ele>577</ele>
        <time>2019-12-17T10:57:03.000Z</time>
      </trkpt>
      <trkpt lat="43.3695" lon="6.01056">
        <ele>577</ele>
        <time>2019-12-17T10:57:04.000Z</time>
      </trkpt>
      <trkpt lat="43.3695" lon="6.01057">
        <ele>577</ele>
        <time>2019-12-17T10:57:05.000Z</time>
      </trkpt>
      <trkpt lat="43.3695" lon="6.01058">
        <ele>577</ele>
        <time>2019-12-17T10:57:06.000Z</time>
      </trkpt>
      <trkpt lat="43.36949" lon="6.01059">
        <ele>577</ele>
        <time>2019-12-17T10:57:07.000Z</time>
      </trkpt>
      <trkpt lat="43.36949" lon="6.0106">
        <ele>577</ele>
        <time>2019-12-17T10:57:08.000Z</time>
      </trkpt>
      <trkpt lat="43.36948" lon="6.01061">
        <ele>577</ele>
        <time>2019-12-17T10:57:09.000Z</time>
      </trkpt>
      <trkpt lat="43.36948" lon="6.01062">
        <ele>577</ele>
        <time>2019-12-17T10:57:10.000Z</time>
      </trkpt>
      <trkpt lat="43.36947" lon="6.01063">
        <ele>577</ele>
        <time>2019-12-17T10:57:11.000Z</time>
      </trkpt>
      <trkpt lat="43.36947" lon="6.01063">
        <ele>577</ele>
        <time>2019-12-17T10:57:12.000Z</time>
      </trkpt>
      <trkpt lat="43.36947" lon="6.01064">
        <ele>576</ele>
        <time>2019-12-17T10:57:13.000Z</time>
      </trkpt>
      <trkpt lat="43.36947" lon="6.01064">
        <ele>576</ele>
        <time>2019-12-17T10:57:14.000Z</time>
      </trkpt>
      <trkpt lat="43.36947" lon="6.01064">
        <ele>576</ele>
        <time>2019-12-17T10:57:15.000Z</time>
      </trkpt>
      <trkpt lat="43.36947" lon="6.01064">
        <ele>576</ele>
        <time>2019-12-17T10:57:16.000Z</time>
      </trkpt>
      <trkpt lat="43.36946" lon="6.01063">
        <ele>576</ele>
        <time>2019-12-17T10:57:17.000Z</time>
      </trkpt>
      <trkpt lat="43.36946" lon="6.01062">
        <ele>576</ele>
        <time>2019-12-17T10:57:18.000Z</time>
      </trkpt>
      <trkpt lat="43.36946" lon="6.01062">
        <ele>576</ele>
        <time>2019-12-17T10:57:19.000Z</time>
      </trkpt>
      <trkpt lat="43.36946" lon="6.01061">
        <ele>576</ele>
        <time>2019-12-17T10:57:20.000Z</time>
      </trkpt>
      <trkpt lat="43.36947" lon="6.01061">
        <ele>576</ele>
        <time>2019-12-17T10:57:21.000Z</time>
      </trkpt>
      <trkpt lat="43.36947" lon="6.0106">
        <ele>576</ele>
        <time>2019-12-17T10:57:22.000Z</time>
      </trkpt>
      <trkpt lat="43.36947" lon="6.0106">
        <ele>576</ele>
        <time>2019-12-17T10:57:23.000Z</time>
      </trkpt>
      <trkpt lat="43.36947" lon="6.0106">
        <ele>576</ele>
        <time>2019-12-17T10:57:24.000Z</time>
      </trkpt>
      <trkpt lat="43.36947" lon="6.0106">
        <ele>576</ele>
        <time>2019-12-17T10:57:25.000Z</time>
      </trkpt>
      <trkpt lat="43.36947" lon="6.0106">
        <ele>576</ele>
        <time>2019-12-17T10:57:26.000Z</time>
      </trkpt>
      <trkpt lat="43.36947" lon="6.0106">
        <ele>576</ele>
        <time>2019-12-17T10:57:27.000Z</time>
      </trkpt>
      <trkpt lat="43.36947" lon="6.0106">
        <ele>576</ele>
        <time>2019-12-17T10:57:28.000Z</time>
      </trkpt>
      <trkpt lat="43.36947" lon="6.0106">
        <ele>576</ele>
        <time>2019-12-17T10:57:29.000Z</time>
      </trkpt>
      <trkpt lat="43.36947" lon="6.01059">
        <ele>576</ele>
        <time>2019-12-17T10:57:30.000Z</time>
      </trkpt>
      <trkpt lat="43.36947" lon="6.01059">
        <ele>576</ele>
        <time>2019-12-17T10:57:31.000Z</time>
      </trkpt>
      <trkpt lat="43.36947" lon="6.01059">
        <ele>576</ele>
        <time>2019-12-17T10:57:32.000Z</time>
      </trkpt>
      <trkpt lat="43.36947" lon="6.01059">
        <ele>576</ele>
        <time>2019-12-17T10:57:33.000Z</time>
      </trkpt>
      <trkpt lat="43.36947" lon="6.01059">
        <ele>576</ele>
        <time>2019-12-17T10:57:34.000Z</time>
      </trkpt>
      <trkpt lat="43.36947" lon="6.01059">
        <ele>576</ele>
        <time>2019-12-17T10:57:35.000Z</time>
      </trkpt>
      <trkpt lat="43.36947" lon="6.01059">
        <ele>576</ele>
        <time>2019-12-17T10:57:36.000Z</time>
      </trkpt>
      <trkpt lat="43.36947" lon="6.01059">
        <ele>576</ele>
        <time>2019-12-17T10:57:37.000Z</time>
      </trkpt>
      <trkpt lat="43.36947" lon="6.01059">
        <ele>576</ele>
        <time>2019-12-17T10:57:38.000Z</time>
      </trkpt>
      <trkpt lat="43.36947" lon="6.01059">
        <ele>576</ele>
        <time>2019-12-17T10:57:39.000Z</time>
      </trkpt>
      <trkpt lat="43.36947" lon="6.01059">
        <ele>577</ele>
        <time>2019-12-17T10:57:40.000Z</time>
      </trkpt>
      <trkpt lat="43.36947" lon="6.01059">
        <ele>577</ele>
        <time>2019-12-17T10:57:41.000Z</time>
      </trkpt>
      <trkpt lat="43.36948" lon="6.01059">
        <ele>577</ele>
        <time>2019-12-17T10:57:42.000Z</time>
      </trkpt>
      <trkpt lat="43.36948" lon="6.01059">
        <ele>577</ele>
        <time>2019-12-17T10:57:43.000Z</time>
      </trkpt>
      <trkpt lat="43.36948" lon="6.01059">
        <ele>577</ele>
        <time>2019-12-17T10:57:44.000Z</time>
      </trkpt>
      <trkpt lat="43.36948" lon="6.01059">
        <ele>577</ele>
        <time>2019-12-17T10:57:45.000Z</time>
      </trkpt>
      <trkpt lat="43.36948" lon="6.01059">
        <ele>577</ele>
        <time>2019-12-17T10:57:46.000Z</time>
      </trkpt>
      <trkpt lat="43.36948" lon="6.01058">
        <ele>577</ele>
        <time>2019-12-17T10:57:47.000Z</time>
      </trkpt>
      <trkpt lat="43.36949" lon="6.01058">
        <ele>577</ele>
        <time>2019-12-17T10:57:48.000Z</time>
      </trkpt>
      <trkpt lat="43.36948" lon="6.01058">
        <ele>577</ele>
        <time>2019-12-17T10:57:49.000Z</time>
      </trkpt>
      <trkpt lat="43.36948" lon="6.01058">
        <ele>577</ele>
        <time>2019-12-17T10:57:50.000Z</time>
      </trkpt>
      <trkpt lat="43.36948" lon="6.01058">
        <ele>577</ele>
        <time>2019-12-17T10:57:51.000Z</time>
      </trkpt>
      <trkpt lat="43.36949" lon="6.01057">
        <ele>577</ele>
        <time>2019-12-17T10:57:52.000Z</time>
      </trkpt>
      <trkpt lat="43.36949" lon="6.01057">
        <ele>577</ele>
        <time>2019-12-17T10:57:53.000Z</time>
      </trkpt>
      <trkpt lat="43.36949" lon="6.01057">
        <ele>577</ele>
        <time>2019-12-17T10:57:54.000Z</time>
      </trkpt>
      <trkpt lat="43.36949" lon="6.01057">
        <ele>577</ele>
        <time>2019-12-17T10:57:55.000Z</time>
      </trkpt>
      <trkpt lat="43.36948" lon="6.01057">
        <ele>577</ele>
        <time>2019-12-17T10:57:56.000Z</time>
      </trkpt>
      <trkpt lat="43.36948" lon="6.01057">
        <ele>577</ele>
        <time>2019-12-17T10:57:57.000Z</time>
      </trkpt>
      <trkpt lat="43.36948" lon="6.01056">
        <ele>577</ele>
        <time>2019-12-17T10:57:58.000Z</time>
      </trkpt>
      <trkpt lat="43.36947" lon="6.01056">
        <ele>577</ele>
        <time>2019-12-17T10:57:59.000Z</time>
      </trkpt>
      <trkpt lat="43.36947" lon="6.01056">
        <ele>577</ele>
        <time>2019-12-17T10:58:00.000Z</time>
      </trkpt>
      <trkpt lat="43.36947" lon="6.01056">
        <ele>577</ele>
        <time>2019-12-17T10:58:01.000Z</time>
      </trkpt>
      <trkpt lat="43.36947" lon="6.01056">
        <ele>577</ele>
        <time>2019-12-17T10:58:02.000Z</time>
      </trkpt>
      <trkpt lat="43.36947" lon="6.01056">
        <ele>577</ele>
        <time>2019-12-17T10:58:03.000Z</time>
      </trkpt>
      <trkpt lat="43.36947" lon="6.01056">
        <ele>577</ele>
        <time>2019-12-17T10:58:04.000Z</time>
      </trkpt>
      <trkpt lat="43.36947" lon="6.01056">
        <ele>577</ele>
        <time>2019-12-17T10:58:05.000Z</time>
      </trkpt>
      <trkpt lat="43.36946" lon="6.01056">
        <ele>577</ele>
        <time>2019-12-17T10:58:06.000Z</time>
      </trkpt>
      <trkpt lat="43.36946" lon="6.01056">
        <ele>577</ele>
        <time>2019-12-17T10:58:07.000Z</time>
      </trkpt>
      <trkpt lat="43.36947" lon="6.01056">
        <ele>577</ele>
        <time>2019-12-17T10:58:08.000Z</time>
      </trkpt>
      <trkpt lat="43.36947" lon="6.01056">
        <ele>577</ele>
        <time>2019-12-17T10:58:09.000Z</time>
      </trkpt>
      <trkpt lat="43.36947" lon="6.01057">
        <ele>577</ele>
        <time>2019-12-17T10:58:10.000Z</time>
      </trkpt>
      <trkpt lat="43.36947" lon="6.01057">
        <ele>577</ele>
        <time>2019-12-17T10:58:11.000Z</time>
      </trkpt>
      <trkpt lat="43.36947" lon="6.01057">
        <ele>577</ele>
        <time>2019-12-17T10:58:12.000Z</time>
      </trkpt>
      <trkpt lat="43.36947" lon="6.01057">
        <ele>577</ele>
        <time>2019-12-17T10:58:13.000Z</time>
      </trkpt>
      <trkpt lat="43.36946" lon="6.01057">
        <ele>577</ele>
        <time>2019-12-17T10:58:14.000Z</time>
      </trkpt>
      <trkpt lat="43.36946" lon="6.01057">
        <ele>577</ele>
        <time>2019-12-17T10:58:15.000Z</time>
      </trkpt>
      <trkpt lat="43.36946" lon="6.01057">
        <ele>578</ele>
        <time>2019-12-17T10:58:16.000Z</time>
      </trkpt>
      <trkpt lat="43.36946" lon="6.01057">
        <ele>578</ele>
        <time>2019-12-17T10:58:17.000Z</time>
      </trkpt>
      <trkpt lat="43.36946" lon="6.01057">
        <ele>578</ele>
        <time>2019-12-17T10:58:18.000Z</time>
      </trkpt>
      <trkpt lat="43.36946" lon="6.01057">
        <ele>578</ele>
        <time>2019-12-17T10:58:19.000Z</time>
      </trkpt>
      <trkpt lat="43.36947" lon="6.01057">
        <ele>578</ele>
        <time>2019-12-17T10:58:20.000Z</time>
      </trkpt>
      <trkpt lat="43.36947" lon="6.01057">
        <ele>578</ele>
        <time>2019-12-17T10:58:22.000Z</time>
      </trkpt>
      <trkpt lat="43.36947" lon="6.01057">
        <ele>578</ele>
        <time>2019-12-17T10:58:23.000Z</time>
      </trkpt>
      <trkpt lat="43.36946" lon="6.01057">
        <ele>578</ele>
        <time>2019-12-17T10:58:24.000Z</time>
      </trkpt>
      <trkpt lat="43.36946" lon="6.01057">
        <ele>578</ele>
        <time>2019-12-17T10:58:25.000Z</time>
      </trkpt>
      <trkpt lat="43.36946" lon="6.01057">
        <ele>579</ele>
        <time>2019-12-17T10:58:26.000Z</time>
      </trkpt>
      <trkpt lat="43.36946" lon="6.01057">
        <ele>579</ele>
        <time>2019-12-17T10:58:27.000Z</time>
      </trkpt>
      <trkpt lat="43.36946" lon="6.01057">
        <ele>579</ele>
        <time>2019-12-17T10:58:28.000Z</time>
      </trkpt>
      <trkpt lat="43.36946" lon="6.01056">
        <ele>579</ele>
        <time>2019-12-17T10:58:29.000Z</time>
      </trkpt>
      <trkpt lat="43.36946" lon="6.01057">
        <ele>579</ele>
        <time>2019-12-17T10:58:30.000Z</time>
      </trkpt>
      <trkpt lat="43.36946" lon="6.01056">
        <ele>579</ele>
        <time>2019-12-17T10:58:31.000Z</time>
      </trkpt>
      <trkpt lat="43.36946" lon="6.01056">
        <ele>580</ele>
        <time>2019-12-17T10:58:32.000Z</time>
      </trkpt>
      <trkpt lat="43.36947" lon="6.01056">
        <ele>580</ele>
        <time>2019-12-17T10:58:33.000Z</time>
      </trkpt>
      <trkpt lat="43.36947" lon="6.01056">
        <ele>580</ele>
        <time>2019-12-17T10:58:34.000Z</time>
      </trkpt>
      <trkpt lat="43.36947" lon="6.01056">
        <ele>580</ele>
        <time>2019-12-17T10:58:35.000Z</time>
      </trkpt>
      <trkpt lat="43.36947" lon="6.01056">
        <ele>580</ele>
        <time>2019-12-17T10:58:36.000Z</time>
      </trkpt>
      <trkpt lat="43.36947" lon="6.01056">
        <ele>581</ele>
        <time>2019-12-17T10:58:37.000Z</time>
      </trkpt>
      <trkpt lat="43.36947" lon="6.01056">
        <ele>581</ele>
        <time>2019-12-17T10:58:38.000Z</time>
      </trkpt>
      <trkpt lat="43.36947" lon="6.01056">
        <ele>581</ele>
        <time>2019-12-17T10:58:39.000Z</time>
      </trkpt>
      <trkpt lat="43.36947" lon="6.01056">
        <ele>581</ele>
        <time>2019-12-17T10:58:40.000Z</time>
      </trkpt>
      <trkpt lat="43.36947" lon="6.01056">
        <ele>582</ele>
        <time>2019-12-17T10:58:41.000Z</time>
      </trkpt>
      <trkpt lat="43.36947" lon="6.01056">
        <ele>582</ele>
        <time>2019-12-17T10:58:42.000Z</time>
      </trkpt>
      <trkpt lat="43.36947" lon="6.01055">
        <ele>582</ele>
        <time>2019-12-17T10:58:43.000Z</time>
      </trkpt>
      <trkpt lat="43.36947" lon="6.01055">
        <ele>582</ele>
        <time>2019-12-17T10:58:44.000Z</time>
      </trkpt>
      <trkpt lat="43.36947" lon="6.01055">
        <ele>582</ele>
        <time>2019-12-17T10:58:45.000Z</time>
      </trkpt>
      <trkpt lat="43.36947" lon="6.01055">
        <ele>582</ele>
        <time>2019-12-17T10:58:46.000Z</time>
      </trkpt>
      <trkpt lat="43.36948" lon="6.01055">
        <ele>583</ele>
        <time>2019-12-17T10:58:47.000Z</time>
      </trkpt>
      <trkpt lat="43.36948" lon="6.01055">
        <ele>583</ele>
        <time>2019-12-17T10:58:48.000Z</time>
      </trkpt>
      <trkpt lat="43.36948" lon="6.01055">
        <ele>583</ele>
        <time>2019-12-17T10:58:49.000Z</time>
      </trkpt>
      <trkpt lat="43.36948" lon="6.01055">
        <ele>583</ele>
        <time>2019-12-17T10:58:50.000Z</time>
      </trkpt>
      <trkpt lat="43.36948" lon="6.01055">
        <ele>583</ele>
        <time>2019-12-17T10:58:51.000Z</time>
      </trkpt>
      <trkpt lat="43.36948" lon="6.01054">
        <ele>583</ele>
        <time>2019-12-17T10:58:52.000Z</time>
      </trkpt>
      <trkpt lat="43.36948" lon="6.01054">
        <ele>583</ele>
        <time>2019-12-17T10:58:53.000Z</time>
      </trkpt>
      <trkpt lat="43.36948" lon="6.01054">
        <ele>583</ele>
        <time>2019-12-17T10:58:54.000Z</time>
      </trkpt>
      <trkpt lat="43.36948" lon="6.01054">
        <ele>584</ele>
        <time>2019-12-17T10:58:55.000Z</time>
      </trkpt>
      <trkpt lat="43.36948" lon="6.01053">
        <ele>584</ele>
        <time>2019-12-17T10:58:56.000Z</time>
      </trkpt>
      <trkpt lat="43.36948" lon="6.01053">
        <ele>584</ele>
        <time>2019-12-17T10:58:57.000Z</time>
      </trkpt>
      <trkpt lat="43.36949" lon="6.01053">
        <ele>584</ele>
        <time>2019-12-17T10:58:58.000Z</time>
      </trkpt>
      <trkpt lat="43.36949" lon="6.01052">
        <ele>584</ele>
        <time>2019-12-17T10:58:59.000Z</time>
      </trkpt>
      <trkpt lat="43.36949" lon="6.01052">
        <ele>584</ele>
        <time>2019-12-17T10:59:00.000Z</time>
      </trkpt>
      <trkpt lat="43.36949" lon="6.01052">
        <ele>584</ele>
        <time>2019-12-17T10:59:01.000Z</time>
      </trkpt>
      <trkpt lat="43.36949" lon="6.01052">
        <ele>584</ele>
        <time>2019-12-17T10:59:02.000Z</time>
      </trkpt>
      <trkpt lat="43.36949" lon="6.01052">
        <ele>584</ele>
        <time>2019-12-17T10:59:03.000Z</time>
      </trkpt>
      <trkpt lat="43.36949" lon="6.01052">
        <ele>584</ele>
        <time>2019-12-17T10:59:04.000Z</time>
      </trkpt>
      <trkpt lat="43.36949" lon="6.01052">
        <ele>584</ele>
        <time>2019-12-17T10:59:05.000Z</time>
      </trkpt>
      <trkpt lat="43.36949" lon="6.01052">
        <ele>584</ele>
        <time>2019-12-17T10:59:06.000Z</time>
      </trkpt>
      <trkpt lat="43.36949" lon="6.01052">
        <ele>584</ele>
        <time>2019-12-17T10:59:07.000Z</time>
      </trkpt>
      <trkpt lat="43.36949" lon="6.01051">
        <ele>584</ele>
        <time>2019-12-17T10:59:08.000Z</time>
      </trkpt>
      <trkpt lat="43.36949" lon="6.01051">
        <ele>585</ele>
        <time>2019-12-17T10:59:09.000Z</time>
      </trkpt>
      <trkpt lat="43.3695" lon="6.01051">
        <ele>585</ele>
        <time>2019-12-17T10:59:10.000Z</time>
      </trkpt>
      <trkpt lat="43.3695" lon="6.01051">
        <ele>585</ele>
        <time>2019-12-17T10:59:11.000Z</time>
      </trkpt>
      <trkpt lat="43.3695" lon="6.01051">
        <ele>585</ele>
        <time>2019-12-17T10:59:12.000Z</time>
      </trkpt>
      <trkpt lat="43.3695" lon="6.01051">
        <ele>585</ele>
        <time>2019-12-17T10:59:13.000Z</time>
      </trkpt>
      <trkpt lat="43.3695" lon="6.0105">
        <ele>585</ele>
        <time>2019-12-17T10:59:14.000Z</time>
      </trkpt>
      <trkpt lat="43.36951" lon="6.0105">
        <ele>585</ele>
        <time>2019-12-17T10:59:15.000Z</time>
      </trkpt>
      <trkpt lat="43.36951" lon="6.0105">
        <ele>585</ele>
        <time>2019-12-17T10:59:16.000Z</time>
      </trkpt>
      <trkpt lat="43.36951" lon="6.0105">
        <ele>585</ele>
        <time>2019-12-17T10:59:17.000Z</time>
      </trkpt>
      <trkpt lat="43.36951" lon="6.0105">
        <ele>585</ele>
        <time>2019-12-17T10:59:18.000Z</time>
      </trkpt>
      <trkpt lat="43.36951" lon="6.0105">
        <ele>585</ele>
        <time>2019-12-17T10:59:19.000Z</time>
      </trkpt>
      <trkpt lat="43.36951" lon="6.0105">
        <ele>585</ele>
        <time>2019-12-17T10:59:20.000Z</time>
      </trkpt>
      <trkpt lat="43.36951" lon="6.0105">
        <ele>586</ele>
        <time>2019-12-17T10:59:21.000Z</time>
      </trkpt>
      <trkpt lat="43.36951" lon="6.0105">
        <ele>586</ele>
        <time>2019-12-17T10:59:22.000Z</time>
      </trkpt>
      <trkpt lat="43.36951" lon="6.01049">
        <ele>586</ele>
        <time>2019-12-17T10:59:23.000Z</time>
      </trkpt>
      <trkpt lat="43.36951" lon="6.0105">
        <ele>586</ele>
        <time>2019-12-17T10:59:24.000Z</time>
      </trkpt>
      <trkpt lat="43.36951" lon="6.0105">
        <ele>586</ele>
        <time>2019-12-17T10:59:25.000Z</time>
      </trkpt>
      <trkpt lat="43.36951" lon="6.0105">
        <ele>586</ele>
        <time>2019-12-17T10:59:26.000Z</time>
      </trkpt>
      <trkpt lat="43.36951" lon="6.0105">
        <ele>586</ele>
        <time>2019-12-17T10:59:27.000Z</time>
      </trkpt>
      <trkpt lat="43.36951" lon="6.0105">
        <ele>586</ele>
        <time>2019-12-17T10:59:28.000Z</time>
      </trkpt>
      <trkpt lat="43.36951" lon="6.0105">
        <ele>586</ele>
        <time>2019-12-17T10:59:29.000Z</time>
      </trkpt>
      <trkpt lat="43.36951" lon="6.0105">
        <ele>585</ele>
        <time>2019-12-17T10:59:30.000Z</time>
      </trkpt>
      <trkpt lat="43.36951" lon="6.0105">
        <ele>585</ele>
        <time>2019-12-17T10:59:31.000Z</time>
      </trkpt>
      <trkpt lat="43.36951" lon="6.0105">
        <ele>585</ele>
        <time>2019-12-17T10:59:32.000Z</time>
      </trkpt>
      <trkpt lat="43.36951" lon="6.0105">
        <ele>585</ele>
        <time>2019-12-17T10:59:33.000Z</time>
      </trkpt>
      <trkpt lat="43.36951" lon="6.0105">
        <ele>585</ele>
        <time>2019-12-17T10:59:34.000Z</time>
      </trkpt>
      <trkpt lat="43.36951" lon="6.0105">
        <ele>585</ele>
        <time>2019-12-17T10:59:35.000Z</time>
      </trkpt>
      <trkpt lat="43.36951" lon="6.0105">
        <ele>585</ele>
        <time>2019-12-17T10:59:36.000Z</time>
      </trkpt>
      <trkpt lat="43.36951" lon="6.0105">
        <ele>585</ele>
        <time>2019-12-17T10:59:37.000Z</time>
      </trkpt>
      <trkpt lat="43.36951" lon="6.0105">
        <ele>585</ele>
        <time>2019-12-17T10:59:38.000Z</time>
      </trkpt>
      <trkpt lat="43.36951" lon="6.0105">
        <ele>585</ele>
        <time>2019-12-17T10:59:39.000Z</time>
      </trkpt>
      <trkpt lat="43.36951" lon="6.0105">
        <ele>585</ele>
        <time>2019-12-17T10:59:40.000Z</time>
      </trkpt>
      <trkpt lat="43.36951" lon="6.0105">
        <ele>585</ele>
        <time>2019-12-17T10:59:41.000Z</time>
      </trkpt>
      <trkpt lat="43.36951" lon="6.0105">
        <ele>585</ele>
        <time>2019-12-17T10:59:42.000Z</time>
      </trkpt>
      <trkpt lat="43.36951" lon="6.0105">
        <ele>585</ele>
        <time>2019-12-17T10:59:43.000Z</time>
      </trkpt>
      <trkpt lat="43.36951" lon="6.0105">
        <ele>585</ele>
        <time>2019-12-17T10:59:44.000Z</time>
      </trkpt>
      <trkpt lat="43.36951" lon="6.0105">
        <ele>585</ele>
        <time>2019-12-17T10:59:45.000Z</time>
      </trkpt>
      <trkpt lat="43.36951" lon="6.0105">
        <ele>585</ele>
        <time>2019-12-17T10:59:46.000Z</time>
      </trkpt>
      <trkpt lat="43.36951" lon="6.0105">
        <ele>585</ele>
        <time>2019-12-17T10:59:47.000Z</time>
      </trkpt>
      <trkpt lat="43.36951" lon="6.0105">
        <ele>585</ele>
        <time>2019-12-17T10:59:48.000Z</time>
      </trkpt>
      <trkpt lat="43.36951" lon="6.0105">
        <ele>585</ele>
        <time>2019-12-17T10:59:49.000Z</time>
      </trkpt>
      <trkpt lat="43.36951" lon="6.01051">
        <ele>584</ele>
        <time>2019-12-17T10:59:50.000Z</time>
      </trkpt>
      <trkpt lat="43.3695" lon="6.01051">
        <ele>584</ele>
        <time>2019-12-17T10:59:51.000Z</time>
      </trkpt>
      <trkpt lat="43.3695" lon="6.01051">
        <ele>584</ele>
        <time>2019-12-17T10:59:52.000Z</time>
      </trkpt>
      <trkpt lat="43.3695" lon="6.01051">
        <ele>584</ele>
        <time>2019-12-17T10:59:53.000Z</time>
      </trkpt>
      <trkpt lat="43.3695" lon="6.01051">
        <ele>584</ele>
        <time>2019-12-17T10:59:54.000Z</time>
      </trkpt>
      <trkpt lat="43.3695" lon="6.01051">
        <ele>584</ele>
        <time>2019-12-17T10:59:55.000Z</time>
      </trkpt>
      <trkpt lat="43.3695" lon="6.01051">
        <ele>584</ele>
        <time>2019-12-17T10:59:56.000Z</time>
      </trkpt>
      <trkpt lat="43.3695" lon="6.01051">
        <ele>584</ele>
        <time>2019-12-17T10:59:57.000Z</time>
      </trkpt>
      <trkpt lat="43.3695" lon="6.01052">
        <ele>584</ele>
        <time>2019-12-17T10:59:58.000Z</time>
      </trkpt>
      <trkpt lat="43.3695" lon="6.01052">
        <ele>584</ele>
        <time>2019-12-17T10:59:59.000Z</time>
      </trkpt>
      <trkpt lat="43.3695" lon="6.01052">
        <ele>584</ele>
        <time>2019-12-17T11:00:00.000Z</time>
      </trkpt>
      <trkpt lat="43.3695" lon="6.01052">
        <ele>583</ele>
        <time>2019-12-17T11:00:01.000Z</time>
      </trkpt>
      <trkpt lat="43.3695" lon="6.01053">
        <ele>583</ele>
        <time>2019-12-17T11:00:02.000Z</time>
      </trkpt>
      <trkpt lat="43.36949" lon="6.01054">
        <ele>583</ele>
        <time>2019-12-17T11:00:03.000Z</time>
      </trkpt>
      <trkpt lat="43.36948" lon="6.01055">
        <ele>583</ele>
        <time>2019-12-17T11:00:04.000Z</time>
      </trkpt>
      <trkpt lat="43.36948" lon="6.01056">
        <ele>583</ele>
        <time>2019-12-17T11:00:05.000Z</time>
      </trkpt>
      <trkpt lat="43.36947" lon="6.01056">
        <ele>583</ele>
        <time>2019-12-17T11:00:06.000Z</time>
      </trkpt>
      <trkpt lat="43.36947" lon="6.01057">
        <ele>583</ele>
        <time>2019-12-17T11:00:07.000Z</time>
      </trkpt>
      <trkpt lat="43.36947" lon="6.01057">
        <ele>582</ele>
        <time>2019-12-17T11:00:08.000Z</time>
      </trkpt>
      <trkpt lat="43.36947" lon="6.01058">
        <ele>582</ele>
        <time>2019-12-17T11:00:09.000Z</time>
      </trkpt>
      <trkpt lat="43.36947" lon="6.01058">
        <ele>582</ele>
        <time>2019-12-17T11:00:10.000Z</time>
      </trkpt>
      <trkpt lat="43.36946" lon="6.01058">
        <ele>582</ele>
        <time>2019-12-17T11:00:11.000Z</time>
      </trkpt>
      <trkpt lat="43.36946" lon="6.01059">
        <ele>582</ele>
        <time>2019-12-17T11:00:12.000Z</time>
      </trkpt>
      <trkpt lat="43.36946" lon="6.01059">
        <ele>582</ele>
        <time>2019-12-17T11:00:13.000Z</time>
      </trkpt>
      <trkpt lat="43.36946" lon="6.01059">
        <ele>582</ele>
        <time>2019-12-17T11:00:14.000Z</time>
      </trkpt>
      <trkpt lat="43.36946" lon="6.0106">
        <ele>582</ele>
        <time>2019-12-17T11:00:15.000Z</time>
      </trkpt>
      <trkpt lat="43.36945" lon="6.0106">
        <ele>581</ele>
        <time>2019-12-17T11:00:16.000Z</time>
      </trkpt>
      <trkpt lat="43.36945" lon="6.0106">
        <ele>581</ele>
        <time>2019-12-17T11:00:17.000Z</time>
      </trkpt>
      <trkpt lat="43.36945" lon="6.0106">
        <ele>581</ele>
        <time>2019-12-17T11:00:18.000Z</time>
      </trkpt>
      <trkpt lat="43.36945" lon="6.0106">
        <ele>581</ele>
        <time>2019-12-17T11:00:19.000Z</time>
      </trkpt>
      <trkpt lat="43.36945" lon="6.01061">
        <ele>581</ele>
        <time>2019-12-17T11:00:20.000Z</time>
      </trkpt>
      <trkpt lat="43.36945" lon="6.01061">
        <ele>581</ele>
        <time>2019-12-17T11:00:21.000Z</time>
      </trkpt>
      <trkpt lat="43.36945" lon="6.01061">
        <ele>581</ele>
        <time>2019-12-17T11:00:22.000Z</time>
      </trkpt>
      <trkpt lat="43.36945" lon="6.01061">
        <ele>581</ele>
        <time>2019-12-17T11:00:23.000Z</time>
      </trkpt>
      <trkpt lat="43.36945" lon="6.01061">
        <ele>581</ele>
        <time>2019-12-17T11:00:24.000Z</time>
      </trkpt>
      <trkpt lat="43.36945" lon="6.01061">
        <ele>581</ele>
        <time>2019-12-17T11:00:25.000Z</time>
      </trkpt>
      <trkpt lat="43.36944" lon="6.01061">
        <ele>581</ele>
        <time>2019-12-17T11:00:26.000Z</time>
      </trkpt>
      <trkpt lat="43.36944" lon="6.01062">
        <ele>581</ele>
        <time>2019-12-17T11:00:27.000Z</time>
      </trkpt>
      <trkpt lat="43.36944" lon="6.01062">
        <ele>581</ele>
        <time>2019-12-17T11:00:28.000Z</time>
      </trkpt>
      <trkpt lat="43.36944" lon="6.01062">
        <ele>581</ele>
        <time>2019-12-17T11:00:29.000Z</time>
      </trkpt>
      <trkpt lat="43.36944" lon="6.01062">
        <ele>581</ele>
        <time>2019-12-17T11:00:30.000Z</time>
      </trkpt>
      <trkpt lat="43.36944" lon="6.01062">
        <ele>581</ele>
        <time>2019-12-17T11:00:31.000Z</time>
      </trkpt>
      <trkpt lat="43.36944" lon="6.01062">
        <ele>581</ele>
        <time>2019-12-17T11:00:32.000Z</time>
      </trkpt>
      <trkpt lat="43.36944" lon="6.01062">
        <ele>581</ele>
        <time>2019-12-17T11:00:33.000Z</time>
      </trkpt>
      <trkpt lat="43.36944" lon="6.01062">
        <ele>581</ele>
        <time>2019-12-17T11:00:34.000Z</time>
      </trkpt>
      <trkpt lat="43.36944" lon="6.01062">
        <ele>581</ele>
        <time>2019-12-17T11:00:35.000Z</time>
      </trkpt>
      <trkpt lat="43.36944" lon="6.01063">
        <ele>581</ele>
        <time>2019-12-17T11:00:36.000Z</time>
      </trkpt>
      <trkpt lat="43.36944" lon="6.01063">
        <ele>580</ele>
        <time>2019-12-17T11:00:37.000Z</time>
      </trkpt>
      <trkpt lat="43.36944" lon="6.01063">
        <ele>580</ele>
        <time>2019-12-17T11:00:38.000Z</time>
      </trkpt>
      <trkpt lat="43.36944" lon="6.01063">
        <ele>580</ele>
        <time>2019-12-17T11:00:39.000Z</time>
      </trkpt>
      <trkpt lat="43.36944" lon="6.01064">
        <ele>580</ele>
        <time>2019-12-17T11:00:40.000Z</time>
      </trkpt>
      <trkpt lat="43.36944" lon="6.01064">
        <ele>580</ele>
        <time>2019-12-17T11:00:41.000Z</time>
      </trkpt>
      <trkpt lat="43.36944" lon="6.01064">
        <ele>580</ele>
        <time>2019-12-17T11:00:42.000Z</time>
      </trkpt>
      <trkpt lat="43.36944" lon="6.01064">
        <ele>580</ele>
        <time>2019-12-17T11:00:43.000Z</time>
      </trkpt>
      <trkpt lat="43.36944" lon="6.01064">
        <ele>580</ele>
        <time>2019-12-17T11:00:44.000Z</time>
      </trkpt>
      <trkpt lat="43.36943" lon="6.01064">
        <ele>580</ele>
        <time>2019-12-17T11:00:45.000Z</time>
      </trkpt>
      <trkpt lat="43.36943" lon="6.01064">
        <ele>580</ele>
        <time>2019-12-17T11:00:46.000Z</time>
      </trkpt>
      <trkpt lat="43.36944" lon="6.01064">
        <ele>580</ele>
        <time>2019-12-17T11:00:47.000Z</time>
      </trkpt>
      <trkpt lat="43.36943" lon="6.01064">
        <ele>580</ele>
        <time>2019-12-17T11:00:48.000Z</time>
      </trkpt>
      <trkpt lat="43.36943" lon="6.01064">
        <ele>580</ele>
        <time>2019-12-17T11:00:49.000Z</time>
      </trkpt>
      <trkpt lat="43.36943" lon="6.01064">
        <ele>580</ele>
        <time>2019-12-17T11:00:50.000Z</time>
      </trkpt>
      <trkpt lat="43.36943" lon="6.01064">
        <ele>580</ele>
        <time>2019-12-17T11:00:51.000Z</time>
      </trkpt>
      <trkpt lat="43.36943" lon="6.01064">
        <ele>580</ele>
        <time>2019-12-17T11:00:52.000Z</time>
      </trkpt>
      <trkpt lat="43.3696" lon="6.0104">
        <ele>586</ele>
        <time>2019-12-17T11:00:53.000Z</time>
      </trkpt>
      <trkpt lat="43.3696" lon="6.0104">
        <ele>586</ele>
        <time>2019-12-17T11:00:54.000Z</time>
      </trkpt>
      <trkpt lat="43.3696" lon="6.0104">
        <ele>586</ele>
        <time>2019-12-17T11:00:55.000Z</time>
      </trkpt>
      <trkpt lat="43.3696" lon="6.01041">
        <ele>586</ele>
        <time>2019-12-17T11:00:56.000Z</time>
      </trkpt>
      <trkpt lat="43.3696" lon="6.01041">
        <ele>586</ele>
        <time>2019-12-17T11:00:57.000Z</time>
      </trkpt>
      <trkpt lat="43.36959" lon="6.01041">
        <ele>586</ele>
        <time>2019-12-17T11:00:58.000Z</time>
      </trkpt>
      <trkpt lat="43.36959" lon="6.01042">
        <ele>586</ele>
        <time>2019-12-17T11:00:59.000Z</time>
      </trkpt>
      <trkpt lat="43.36959" lon="6.01042">
        <ele>586</ele>
        <time>2019-12-17T11:01:00.000Z</time>
      </trkpt>
      <trkpt lat="43.36959" lon="6.01042">
        <ele>586</ele>
        <time>2019-12-17T11:01:01.000Z</time>
      </trkpt>
      <trkpt lat="43.36958" lon="6.01041">
        <ele>586</ele>
        <time>2019-12-17T11:01:02.000Z</time>
      </trkpt>
      <trkpt lat="43.36958" lon="6.0104">
        <ele>585</ele>
        <time>2019-12-17T11:01:03.000Z</time>
      </trkpt>
      <trkpt lat="43.36957" lon="6.01039">
        <ele>585</ele>
        <time>2019-12-17T11:01:04.000Z</time>
      </trkpt>
      <trkpt lat="43.36957" lon="6.01038">
        <ele>585</ele>
        <time>2019-12-17T11:01:05.000Z</time>
      </trkpt>
      <trkpt lat="43.36957" lon="6.01037">
        <ele>585</ele>
        <time>2019-12-17T11:01:06.000Z</time>
      </trkpt>
      <trkpt lat="43.36956" lon="6.01036">
        <ele>585</ele>
        <time>2019-12-17T11:01:07.000Z</time>
      </trkpt>
      <trkpt lat="43.36956" lon="6.01034">
        <ele>585</ele>
        <time>2019-12-17T11:01:08.000Z</time>
      </trkpt>
      <trkpt lat="43.36955" lon="6.01033">
        <ele>584</ele>
        <time>2019-12-17T11:01:09.000Z</time>
      </trkpt>
      <trkpt lat="43.36955" lon="6.01032">
        <ele>584</ele>
        <time>2019-12-17T11:01:10.000Z</time>
      </trkpt>
      <trkpt lat="43.36955" lon="6.01031">
        <ele>584</ele>
        <time>2019-12-17T11:01:11.000Z</time>
      </trkpt>
      <trkpt lat="43.36954" lon="6.01029">
        <ele>584</ele>
        <time>2019-12-17T11:01:12.000Z</time>
      </trkpt>
      <trkpt lat="43.36954" lon="6.01028">
        <ele>583</ele>
        <time>2019-12-17T11:01:13.000Z</time>
      </trkpt>
      <trkpt lat="43.36954" lon="6.01027">
        <ele>583</ele>
        <time>2019-12-17T11:01:14.000Z</time>
      </trkpt>
      <trkpt lat="43.36954" lon="6.01026">
        <ele>583</ele>
        <time>2019-12-17T11:01:15.000Z</time>
      </trkpt>
      <trkpt lat="43.36953" lon="6.01025">
        <ele>583</ele>
        <time>2019-12-17T11:01:16.000Z</time>
      </trkpt>
      <trkpt lat="43.36953" lon="6.01023">
        <ele>583</ele>
        <time>2019-12-17T11:01:17.000Z</time>
      </trkpt>
      <trkpt lat="43.36952" lon="6.01022">
        <ele>582</ele>
        <time>2019-12-17T11:01:18.000Z</time>
      </trkpt>
      <trkpt lat="43.36951" lon="6.01022">
        <ele>582</ele>
        <time>2019-12-17T11:01:19.000Z</time>
      </trkpt>
      <trkpt lat="43.3695" lon="6.01022">
        <ele>582</ele>
        <time>2019-12-17T11:01:20.000Z</time>
      </trkpt>
      <trkpt lat="43.36948" lon="6.01022">
        <ele>581</ele>
        <time>2019-12-17T11:01:21.000Z</time>
      </trkpt>
      <trkpt lat="43.36947" lon="6.01021">
        <ele>581</ele>
        <time>2019-12-17T11:01:22.000Z</time>
      </trkpt>
      <trkpt lat="43.36946" lon="6.01021">
        <ele>581</ele>
        <time>2019-12-17T11:01:23.000Z</time>
      </trkpt>
      <trkpt lat="43.36945" lon="6.01021">
        <ele>580</ele>
        <time>2019-12-17T11:01:24.000Z</time>
      </trkpt>
      <trkpt lat="43.36943" lon="6.01021">
        <ele>580</ele>
        <time>2019-12-17T11:01:25.000Z</time>
      </trkpt>
      <trkpt lat="43.36942" lon="6.01021">
        <ele>580</ele>
        <time>2019-12-17T11:01:26.000Z</time>
      </trkpt>
      <trkpt lat="43.36941" lon="6.01021">
        <ele>580</ele>
        <time>2019-12-17T11:01:27.000Z</time>
      </trkpt>
      <trkpt lat="43.36939" lon="6.01021">
        <ele>579</ele>
        <time>2019-12-17T11:01:28.000Z</time>
      </trkpt>
      <trkpt lat="43.36938" lon="6.01021">
        <ele>579</ele>
        <time>2019-12-17T11:01:29.000Z</time>
      </trkpt>
      <trkpt lat="43.36937" lon="6.01022">
        <ele>579</ele>
        <time>2019-12-17T11:01:30.000Z</time>
      </trkpt>
      <trkpt lat="43.36937" lon="6.01022">
        <ele>579</ele>
        <time>2019-12-17T11:01:31.000Z</time>
      </trkpt>
      <trkpt lat="43.36936" lon="6.01022">
        <ele>579</ele>
        <time>2019-12-17T11:01:32.000Z</time>
      </trkpt>
      <trkpt lat="43.36936" lon="6.01023">
        <ele>579</ele>
        <time>2019-12-17T11:01:33.000Z</time>
      </trkpt>
      <trkpt lat="43.36936" lon="6.01023">
        <ele>579</ele>
        <time>2019-12-17T11:01:34.000Z</time>
      </trkpt>
      <trkpt lat="43.36936" lon="6.01023">
        <ele>579</ele>
        <time>2019-12-17T11:01:35.000Z</time>
      </trkpt>
      <trkpt lat="43.36935" lon="6.01023">
        <ele>578</ele>
        <time>2019-12-17T11:01:36.000Z</time>
      </trkpt>
      <trkpt lat="43.36935" lon="6.01023">
        <ele>578</ele>
        <time>2019-12-17T11:01:37.000Z</time>
      </trkpt>
      <trkpt lat="43.36935" lon="6.01023">
        <ele>578</ele>
        <time>2019-12-17T11:01:38.000Z</time>
      </trkpt>
      <trkpt lat="43.36934" lon="6.01024">
        <ele>578</ele>
        <time>2019-12-17T11:01:39.000Z</time>
      </trkpt>
      <trkpt lat="43.36934" lon="6.01024">
        <ele>578</ele>
        <time>2019-12-17T11:01:40.000Z</time>
      </trkpt>
      <trkpt lat="43.36934" lon="6.01024">
        <ele>578</ele>
        <time>2019-12-17T11:01:41.000Z</time>
      </trkpt>
      <trkpt lat="43.36934" lon="6.01025">
        <ele>578</ele>
        <time>2019-12-17T11:01:42.000Z</time>
      </trkpt>
      <trkpt lat="43.36933" lon="6.01025">
        <ele>578</ele>
        <time>2019-12-17T11:01:43.000Z</time>
      </trkpt>
      <trkpt lat="43.36933" lon="6.01025">
        <ele>578</ele>
        <time>2019-12-17T11:01:44.000Z</time>
      </trkpt>
      <trkpt lat="43.36933" lon="6.01025">
        <ele>578</ele>
        <time>2019-12-17T11:01:45.000Z</time>
      </trkpt>
      <trkpt lat="43.36933" lon="6.01026">
        <ele>578</ele>
        <time>2019-12-17T11:01:46.000Z</time>
      </trkpt>
      <trkpt lat="43.36933" lon="6.01026">
        <ele>578</ele>
        <time>2019-12-17T11:01:47.000Z</time>
      </trkpt>
      <trkpt lat="43.36933" lon="6.01026">
        <ele>578</ele>
        <time>2019-12-17T11:01:48.000Z</time>
      </trkpt>
      <trkpt lat="43.36933" lon="6.01027">
        <ele>577</ele>
        <time>2019-12-17T11:01:49.000Z</time>
      </trkpt>
      <trkpt lat="43.36933" lon="6.01028">
        <ele>577</ele>
        <time>2019-12-17T11:01:50.000Z</time>
      </trkpt>
      <trkpt lat="43.36933" lon="6.01028">
        <ele>577</ele>
        <time>2019-12-17T11:01:51.000Z</time>
      </trkpt>
      <trkpt lat="43.36932" lon="6.01028">
        <ele>578</ele>
        <time>2019-12-17T11:01:52.000Z</time>
      </trkpt>
      <trkpt lat="43.36931" lon="6.01029">
        <ele>577</ele>
        <time>2019-12-17T11:01:53.000Z</time>
      </trkpt>
      <trkpt lat="43.3693" lon="6.01029">
        <ele>577</ele>
        <time>2019-12-17T11:01:54.000Z</time>
      </trkpt>
      <trkpt lat="43.3693" lon="6.01029">
        <ele>577</ele>
        <time>2019-12-17T11:01:55.000Z</time>
      </trkpt>
      <trkpt lat="43.36929" lon="6.01029">
        <ele>577</ele>
        <time>2019-12-17T11:01:56.000Z</time>
      </trkpt>
      <trkpt lat="43.36929" lon="6.0103">
        <ele>577</ele>
        <time>2019-12-17T11:01:57.000Z</time>
      </trkpt>
      <trkpt lat="43.36929" lon="6.0103">
        <ele>577</ele>
        <time>2019-12-17T11:01:58.000Z</time>
      </trkpt>
      <trkpt lat="43.36929" lon="6.01031">
        <ele>577</ele>
        <time>2019-12-17T11:01:59.000Z</time>
      </trkpt>
      <trkpt lat="43.36928" lon="6.01031">
        <ele>577</ele>
        <time>2019-12-17T11:02:00.000Z</time>
      </trkpt>
      <trkpt lat="43.36928" lon="6.01031">
        <ele>577</ele>
        <time>2019-12-17T11:02:01.000Z</time>
      </trkpt>
      <trkpt lat="43.36928" lon="6.01031">
        <ele>577</ele>
        <time>2019-12-17T11:02:02.000Z</time>
      </trkpt>
      <trkpt lat="43.36928" lon="6.01031">
        <ele>577</ele>
        <time>2019-12-17T11:02:03.000Z</time>
      </trkpt>
      <trkpt lat="43.36928" lon="6.01031">
        <ele>577</ele>
        <time>2019-12-17T11:02:04.000Z</time>
      </trkpt>
      <trkpt lat="43.36928" lon="6.01032">
        <ele>577</ele>
        <time>2019-12-17T11:02:05.000Z</time>
      </trkpt>
      <trkpt lat="43.36928" lon="6.01032">
        <ele>577</ele>
        <time>2019-12-17T11:02:06.000Z</time>
      </trkpt>
      <trkpt lat="43.36928" lon="6.01032">
        <ele>577</ele>
        <time>2019-12-17T11:02:07.000Z</time>
      </trkpt>
      <trkpt lat="43.36929" lon="6.01031">
        <ele>577</ele>
        <time>2019-12-17T11:02:08.000Z</time>
      </trkpt>
      <trkpt lat="43.36929" lon="6.01031">
        <ele>576</ele>
        <time>2019-12-17T11:02:09.000Z</time>
      </trkpt>
      <trkpt lat="43.36929" lon="6.01031">
        <ele>576</ele>
        <time>2019-12-17T11:02:10.000Z</time>
      </trkpt>
      <trkpt lat="43.36929" lon="6.0103">
        <ele>576</ele>
        <time>2019-12-17T11:02:11.000Z</time>
      </trkpt>
      <trkpt lat="43.3693" lon="6.0103">
        <ele>576</ele>
        <time>2019-12-17T11:02:12.000Z</time>
      </trkpt>
      <trkpt lat="43.3693" lon="6.0103">
        <ele>576</ele>
        <time>2019-12-17T11:02:13.000Z</time>
      </trkpt>
      <trkpt lat="43.3693" lon="6.0103">
        <ele>576</ele>
        <time>2019-12-17T11:02:14.000Z</time>
      </trkpt>
      <trkpt lat="43.36931" lon="6.01029">
        <ele>576</ele>
        <time>2019-12-17T11:02:15.000Z</time>
      </trkpt>
      <trkpt lat="43.36931" lon="6.01029">
        <ele>576</ele>
        <time>2019-12-17T11:02:16.000Z</time>
      </trkpt>
      <trkpt lat="43.3693" lon="6.01029">
        <ele>576</ele>
        <time>2019-12-17T11:02:17.000Z</time>
      </trkpt>
      <trkpt lat="43.3693" lon="6.01029">
        <ele>576</ele>
        <time>2019-12-17T11:02:18.000Z</time>
      </trkpt>
      <trkpt lat="43.3693" lon="6.01029">
        <ele>576</ele>
        <time>2019-12-17T11:02:19.000Z</time>
      </trkpt>
      <trkpt lat="43.36929" lon="6.01029">
        <ele>576</ele>
        <time>2019-12-17T11:02:20.000Z</time>
      </trkpt>
      <trkpt lat="43.36929" lon="6.01029">
        <ele>576</ele>
        <time>2019-12-17T11:02:21.000Z</time>
      </trkpt>
      <trkpt lat="43.36929" lon="6.01029">
        <ele>575</ele>
        <time>2019-12-17T11:02:22.000Z</time>
      </trkpt>
      <trkpt lat="43.36928" lon="6.01029">
        <ele>575</ele>
        <time>2019-12-17T11:02:23.000Z</time>
      </trkpt>
      <trkpt lat="43.36929" lon="6.01029">
        <ele>575</ele>
        <time>2019-12-17T11:02:24.000Z</time>
      </trkpt>
      <trkpt lat="43.36929" lon="6.01029">
        <ele>575</ele>
        <time>2019-12-17T11:02:25.000Z</time>
      </trkpt>
      <trkpt lat="43.36929" lon="6.01029">
        <ele>575</ele>
        <time>2019-12-17T11:02:26.000Z</time>
      </trkpt>
      <trkpt lat="43.36928" lon="6.01028">
        <ele>575</ele>
        <time>2019-12-17T11:02:27.000Z</time>
      </trkpt>
      <trkpt lat="43.36928" lon="6.01028">
        <ele>575</ele>
        <time>2019-12-17T11:02:28.000Z</time>
      </trkpt>
      <trkpt lat="43.36928" lon="6.01028">
        <ele>575</ele>
        <time>2019-12-17T11:02:29.000Z</time>
      </trkpt>
      <trkpt lat="43.36928" lon="6.01027">
        <ele>575</ele>
        <time>2019-12-17T11:02:30.000Z</time>
      </trkpt>
      <trkpt lat="43.36927" lon="6.01028">
        <ele>575</ele>
        <time>2019-12-17T11:02:31.000Z</time>
      </trkpt>
      <trkpt lat="43.36926" lon="6.01028">
        <ele>574</ele>
        <time>2019-12-17T11:02:32.000Z</time>
      </trkpt>
      <trkpt lat="43.36926" lon="6.01028">
        <ele>574</ele>
        <time>2019-12-17T11:02:33.000Z</time>
      </trkpt>
      <trkpt lat="43.36926" lon="6.01029">
        <ele>574</ele>
        <time>2019-12-17T11:02:34.000Z</time>
      </trkpt>
      <trkpt lat="43.36926" lon="6.01029">
        <ele>574</ele>
        <time>2019-12-17T11:02:35.000Z</time>
      </trkpt>
      <trkpt lat="43.36925" lon="6.01029">
        <ele>574</ele>
        <time>2019-12-17T11:02:36.000Z</time>
      </trkpt>
      <trkpt lat="43.36925" lon="6.01029">
        <ele>574</ele>
        <time>2019-12-17T11:02:37.000Z</time>
      </trkpt>
      <trkpt lat="43.36925" lon="6.01029">
        <ele>574</ele>
        <time>2019-12-17T11:02:38.000Z</time>
      </trkpt>
      <trkpt lat="43.36925" lon="6.01029">
        <ele>573</ele>
        <time>2019-12-17T11:02:39.000Z</time>
      </trkpt>
      <trkpt lat="43.36925" lon="6.0103">
        <ele>573</ele>
        <time>2019-12-17T11:02:40.000Z</time>
      </trkpt>
      <trkpt lat="43.36924" lon="6.01031">
        <ele>573</ele>
        <time>2019-12-17T11:02:41.000Z</time>
      </trkpt>
      <trkpt lat="43.36923" lon="6.01031">
        <ele>573</ele>
        <time>2019-12-17T11:02:42.000Z</time>
      </trkpt>
      <trkpt lat="43.36923" lon="6.01032">
        <ele>573</ele>
        <time>2019-12-17T11:02:43.000Z</time>
      </trkpt>
      <trkpt lat="43.36922" lon="6.01033">
        <ele>573</ele>
        <time>2019-12-17T11:02:44.000Z</time>
      </trkpt>
      <trkpt lat="43.3692" lon="6.01034">
        <ele>573</ele>
        <time>2019-12-17T11:02:45.000Z</time>
      </trkpt>
      <trkpt lat="43.36919" lon="6.01035">
        <ele>572</ele>
        <time>2019-12-17T11:02:46.000Z</time>
      </trkpt>
      <trkpt lat="43.36918" lon="6.01035">
        <ele>572</ele>
        <time>2019-12-17T11:02:47.000Z</time>
      </trkpt>
      <trkpt lat="43.36917" lon="6.01036">
        <ele>572</ele>
        <time>2019-12-17T11:02:48.000Z</time>
      </trkpt>
      <trkpt lat="43.36916" lon="6.01037">
        <ele>572</ele>
        <time>2019-12-17T11:02:49.000Z</time>
      </trkpt>
      <trkpt lat="43.36915" lon="6.01038">
        <ele>572</ele>
        <time>2019-12-17T11:02:50.000Z</time>
      </trkpt>
      <trkpt lat="43.36914" lon="6.01038">
        <ele>572</ele>
        <time>2019-12-17T11:02:51.000Z</time>
      </trkpt>
      <trkpt lat="43.36913" lon="6.01039">
        <ele>571</ele>
        <time>2019-12-17T11:02:52.000Z</time>
      </trkpt>
      <trkpt lat="43.36912" lon="6.01039">
        <ele>571</ele>
        <time>2019-12-17T11:02:53.000Z</time>
      </trkpt>
      <trkpt lat="43.36911" lon="6.0104">
        <ele>571</ele>
        <time>2019-12-17T11:02:54.000Z</time>
      </trkpt>
      <trkpt lat="43.3691" lon="6.0104">
        <ele>571</ele>
        <time>2019-12-17T11:02:55.000Z</time>
      </trkpt>
      <trkpt lat="43.3691" lon="6.0104">
        <ele>571</ele>
        <time>2019-12-17T11:02:56.000Z</time>
      </trkpt>
      <trkpt lat="43.36909" lon="6.0104">
        <ele>571</ele>
        <time>2019-12-17T11:02:57.000Z</time>
      </trkpt>
      <trkpt lat="43.36908" lon="6.01039">
        <ele>571</ele>
        <time>2019-12-17T11:02:58.000Z</time>
      </trkpt>
      <trkpt lat="43.36907" lon="6.01039">
        <ele>570</ele>
        <time>2019-12-17T11:02:59.000Z</time>
      </trkpt>
      <trkpt lat="43.36906" lon="6.01038">
        <ele>570</ele>
        <time>2019-12-17T11:03:00.000Z</time>
      </trkpt>
      <trkpt lat="43.36905" lon="6.01038">
        <ele>570</ele>
        <time>2019-12-17T11:03:01.000Z</time>
      </trkpt>
      <trkpt lat="43.36904" lon="6.01037">
        <ele>570</ele>
        <time>2019-12-17T11:03:02.000Z</time>
      </trkpt>
      <trkpt lat="43.36904" lon="6.01037">
        <ele>569</ele>
        <time>2019-12-17T11:03:03.000Z</time>
      </trkpt>
      <trkpt lat="43.36903" lon="6.01037">
        <ele>569</ele>
        <time>2019-12-17T11:03:04.000Z</time>
      </trkpt>
      <trkpt lat="43.36902" lon="6.01038">
        <ele>569</ele>
        <time>2019-12-17T11:03:05.000Z</time>
      </trkpt>
      <trkpt lat="43.36901" lon="6.01038">
        <ele>569</ele>
        <time>2019-12-17T11:03:06.000Z</time>
      </trkpt>
      <trkpt lat="43.369" lon="6.01038">
        <ele>569</ele>
        <time>2019-12-17T11:03:07.000Z</time>
      </trkpt>
      <trkpt lat="43.36899" lon="6.01038">
        <ele>568</ele>
        <time>2019-12-17T11:03:08.000Z</time>
      </trkpt>
      <trkpt lat="43.36898" lon="6.01038">
        <ele>568</ele>
        <time>2019-12-17T11:03:09.000Z</time>
      </trkpt>
      <trkpt lat="43.36897" lon="6.01038">
        <ele>568</ele>
        <time>2019-12-17T11:03:10.000Z</time>
      </trkpt>
      <trkpt lat="43.36896" lon="6.01039">
        <ele>568</ele>
        <time>2019-12-17T11:03:11.000Z</time>
      </trkpt>
      <trkpt lat="43.36895" lon="6.01039">
        <ele>568</ele>
        <time>2019-12-17T11:03:12.000Z</time>
      </trkpt>
      <trkpt lat="43.36894" lon="6.01039">
        <ele>568</ele>
        <time>2019-12-17T11:03:13.000Z</time>
      </trkpt>
      <trkpt lat="43.36893" lon="6.0104">
        <ele>568</ele>
        <time>2019-12-17T11:03:14.000Z</time>
      </trkpt>
      <trkpt lat="43.36892" lon="6.0104">
        <ele>568</ele>
        <time>2019-12-17T11:03:15.000Z</time>
      </trkpt>
      <trkpt lat="43.36891" lon="6.0104">
        <ele>568</ele>
        <time>2019-12-17T11:03:16.000Z</time>
      </trkpt>
      <trkpt lat="43.3689" lon="6.0104">
        <ele>567</ele>
        <time>2019-12-17T11:03:17.000Z</time>
      </trkpt>
      <trkpt lat="43.3689" lon="6.0104">
        <ele>567</ele>
        <time>2019-12-17T11:03:18.000Z</time>
      </trkpt>
      <trkpt lat="43.36889" lon="6.01039">
        <ele>567</ele>
        <time>2019-12-17T11:03:19.000Z</time>
      </trkpt>
      <trkpt lat="43.36888" lon="6.01039">
        <ele>567</ele>
        <time>2019-12-17T11:03:20.000Z</time>
      </trkpt>
      <trkpt lat="43.36887" lon="6.01039">
        <ele>567</ele>
        <time>2019-12-17T11:03:21.000Z</time>
      </trkpt>
      <trkpt lat="43.36886" lon="6.0104">
        <ele>567</ele>
        <time>2019-12-17T11:03:22.000Z</time>
      </trkpt>
      <trkpt lat="43.36885" lon="6.0104">
        <ele>566</ele>
        <time>2019-12-17T11:03:23.000Z</time>
      </trkpt>
      <trkpt lat="43.36884" lon="6.0104">
        <ele>566</ele>
        <time>2019-12-17T11:03:24.000Z</time>
      </trkpt>
      <trkpt lat="43.36884" lon="6.01039">
        <ele>566</ele>
        <time>2019-12-17T11:03:25.000Z</time>
      </trkpt>
      <trkpt lat="43.36883" lon="6.01038">
        <ele>566</ele>
        <time>2019-12-17T11:03:26.000Z</time>
      </trkpt>
      <trkpt lat="43.36882" lon="6.01038">
        <ele>566</ele>
        <time>2019-12-17T11:03:27.000Z</time>
      </trkpt>
      <trkpt lat="43.36881" lon="6.01038">
        <ele>566</ele>
        <time>2019-12-17T11:03:28.000Z</time>
      </trkpt>
      <trkpt lat="43.36879" lon="6.01038">
        <ele>565</ele>
        <time>2019-12-17T11:03:29.000Z</time>
      </trkpt>
      <trkpt lat="43.36878" lon="6.01038">
        <ele>565</ele>
        <time>2019-12-17T11:03:30.000Z</time>
      </trkpt>
      <trkpt lat="43.36877" lon="6.01039">
        <ele>565</ele>
        <time>2019-12-17T11:03:31.000Z</time>
      </trkpt>
      <trkpt lat="43.36876" lon="6.01039">
        <ele>565</ele>
        <time>2019-12-17T11:03:32.000Z</time>
      </trkpt>
      <trkpt lat="43.36875" lon="6.01039">
        <ele>565</ele>
        <time>2019-12-17T11:03:33.000Z</time>
      </trkpt>
      <trkpt lat="43.36873" lon="6.01038">
        <ele>565</ele>
        <time>2019-12-17T11:03:34.000Z</time>
      </trkpt>
      <trkpt lat="43.36872" lon="6.01038">
        <ele>565</ele>
        <time>2019-12-17T11:03:35.000Z</time>
      </trkpt>
      <trkpt lat="43.36872" lon="6.01037">
        <ele>565</ele>
        <time>2019-12-17T11:03:36.000Z</time>
      </trkpt>
      <trkpt lat="43.36872" lon="6.01036">
        <ele>564</ele>
        <time>2019-12-17T11:03:37.000Z</time>
      </trkpt>
      <trkpt lat="43.36871" lon="6.01035">
        <ele>564</ele>
        <time>2019-12-17T11:03:38.000Z</time>
      </trkpt>
      <trkpt lat="43.36871" lon="6.01034">
        <ele>564</ele>
        <time>2019-12-17T11:03:39.000Z</time>
      </trkpt>
      <trkpt lat="43.36871" lon="6.01032">
        <ele>564</ele>
        <time>2019-12-17T11:03:40.000Z</time>
      </trkpt>
      <trkpt lat="43.3687" lon="6.01031">
        <ele>564</ele>
        <time>2019-12-17T11:03:41.000Z</time>
      </trkpt>
      <trkpt lat="43.3687" lon="6.0103">
        <ele>563</ele>
        <time>2019-12-17T11:03:42.000Z</time>
      </trkpt>
      <trkpt lat="43.3687" lon="6.01029">
        <ele>563</ele>
        <time>2019-12-17T11:03:43.000Z</time>
      </trkpt>
      <trkpt lat="43.3687" lon="6.01027">
        <ele>563</ele>
        <time>2019-12-17T11:03:44.000Z</time>
      </trkpt>
      <trkpt lat="43.3687" lon="6.01026">
        <ele>563</ele>
        <time>2019-12-17T11:03:45.000Z</time>
      </trkpt>
      <trkpt lat="43.3687" lon="6.01025">
        <ele>563</ele>
        <time>2019-12-17T11:03:46.000Z</time>
      </trkpt>
      <trkpt lat="43.3687" lon="6.01024">
        <ele>563</ele>
        <time>2019-12-17T11:03:47.000Z</time>
      </trkpt>
      <trkpt lat="43.36869" lon="6.01023">
        <ele>562</ele>
        <time>2019-12-17T11:03:48.000Z</time>
      </trkpt>
      <trkpt lat="43.36869" lon="6.01023">
        <ele>562</ele>
        <time>2019-12-17T11:03:49.000Z</time>
      </trkpt>
      <trkpt lat="43.36868" lon="6.01022">
        <ele>562</ele>
        <time>2019-12-17T11:03:50.000Z</time>
      </trkpt>
      <trkpt lat="43.36868" lon="6.0102">
        <ele>562</ele>
        <time>2019-12-17T11:03:51.000Z</time>
      </trkpt>
      <trkpt lat="43.36867" lon="6.01019">
        <ele>562</ele>
        <time>2019-12-17T11:03:52.000Z</time>
      </trkpt>
      <trkpt lat="43.36867" lon="6.01018">
        <ele>561</ele>
        <time>2019-12-17T11:03:53.000Z</time>
      </trkpt>
      <trkpt lat="43.36866" lon="6.01017">
        <ele>561</ele>
        <time>2019-12-17T11:03:54.000Z</time>
      </trkpt>
      <trkpt lat="43.36865" lon="6.01016">
        <ele>561</ele>
        <time>2019-12-17T11:03:55.000Z</time>
      </trkpt>
      <trkpt lat="43.36865" lon="6.01015">
        <ele>561</ele>
        <time>2019-12-17T11:03:56.000Z</time>
      </trkpt>
      <trkpt lat="43.36864" lon="6.01014">
        <ele>561</ele>
        <time>2019-12-17T11:03:57.000Z</time>
      </trkpt>
      <trkpt lat="43.36863" lon="6.01014">
        <ele>561</ele>
        <time>2019-12-17T11:03:58.000Z</time>
      </trkpt>
      <trkpt lat="43.36862" lon="6.01013">
        <ele>561</ele>
        <time>2019-12-17T11:03:59.000Z</time>
      </trkpt>
      <trkpt lat="43.36861" lon="6.01012">
        <ele>561</ele>
        <time>2019-12-17T11:04:00.000Z</time>
      </trkpt>
      <trkpt lat="43.3686" lon="6.01011">
        <ele>561</ele>
        <time>2019-12-17T11:04:01.000Z</time>
      </trkpt>
      <trkpt lat="43.36859" lon="6.01009">
        <ele>561</ele>
        <time>2019-12-17T11:04:02.000Z</time>
      </trkpt>
      <trkpt lat="43.36859" lon="6.01008">
        <ele>560</ele>
        <time>2019-12-17T11:04:03.000Z</time>
      </trkpt>
      <trkpt lat="43.36858" lon="6.01007">
        <ele>560</ele>
        <time>2019-12-17T11:04:04.000Z</time>
      </trkpt>
      <trkpt lat="43.36857" lon="6.01005">
        <ele>560</ele>
        <time>2019-12-17T11:04:05.000Z</time>
      </trkpt>
      <trkpt lat="43.36856" lon="6.01004">
        <ele>560</ele>
        <time>2019-12-17T11:04:06.000Z</time>
      </trkpt>
      <trkpt lat="43.36855" lon="6.01003">
        <ele>560</ele>
        <time>2019-12-17T11:04:07.000Z</time>
      </trkpt>
      <trkpt lat="43.36854" lon="6.01002">
        <ele>560</ele>
        <time>2019-12-17T11:04:08.000Z</time>
      </trkpt>
      <trkpt lat="43.36853" lon="6.01001">
        <ele>560</ele>
        <time>2019-12-17T11:04:09.000Z</time>
      </trkpt>
      <trkpt lat="43.36852" lon="6.01">
        <ele>560</ele>
        <time>2019-12-17T11:04:10.000Z</time>
      </trkpt>
      <trkpt lat="43.36851" lon="6.01">
        <ele>560</ele>
        <time>2019-12-17T11:04:11.000Z</time>
      </trkpt>
      <trkpt lat="43.36849" lon="6.01">
        <ele>559</ele>
        <time>2019-12-17T11:04:12.000Z</time>
      </trkpt>
      <trkpt lat="43.36848" lon="6.01">
        <ele>559</ele>
        <time>2019-12-17T11:04:13.000Z</time>
      </trkpt>
      <trkpt lat="43.36845" lon="6.01">
        <ele>559</ele>
        <time>2019-12-17T11:04:14.000Z</time>
      </trkpt>
      <trkpt lat="43.36843" lon="6.01">
        <ele>559</ele>
        <time>2019-12-17T11:04:15.000Z</time>
      </trkpt>
      <trkpt lat="43.36841" lon="6.00999">
        <ele>559</ele>
        <time>2019-12-17T11:04:16.000Z</time>
      </trkpt>
      <trkpt lat="43.3684" lon="6.00999">
        <ele>559</ele>
        <time>2019-12-17T11:04:17.000Z</time>
      </trkpt>
      <trkpt lat="43.36838" lon="6.00999">
        <ele>559</ele>
        <time>2019-12-17T11:04:18.000Z</time>
      </trkpt>
      <trkpt lat="43.36837" lon="6.00999">
        <ele>559</ele>
        <time>2019-12-17T11:04:19.000Z</time>
      </trkpt>
      <trkpt lat="43.36836" lon="6.00999">
        <ele>559</ele>
        <time>2019-12-17T11:04:20.000Z</time>
      </trkpt>
      <trkpt lat="43.36834" lon="6.01">
        <ele>559</ele>
        <time>2019-12-17T11:04:21.000Z</time>
      </trkpt>
      <trkpt lat="43.36833" lon="6.01">
        <ele>559</ele>
        <time>2019-12-17T11:04:22.000Z</time>
      </trkpt>
      <trkpt lat="43.36831" lon="6.01">
        <ele>559</ele>
        <time>2019-12-17T11:04:23.000Z</time>
      </trkpt>
      <trkpt lat="43.36829" lon="6.01">
        <ele>559</ele>
        <time>2019-12-17T11:04:24.000Z</time>
      </trkpt>
      <trkpt lat="43.36828" lon="6.01">
        <ele>559</ele>
        <time>2019-12-17T11:04:25.000Z</time>
      </trkpt>
      <trkpt lat="43.36826" lon="6.01">
        <ele>559</ele>
        <time>2019-12-17T11:04:26.000Z</time>
      </trkpt>
      <trkpt lat="43.36824" lon="6.00999">
        <ele>559</ele>
        <time>2019-12-17T11:04:27.000Z</time>
      </trkpt>
      <trkpt lat="43.36823" lon="6.00999">
        <ele>559</ele>
        <time>2019-12-17T11:04:28.000Z</time>
      </trkpt>
      <trkpt lat="43.36822" lon="6.00998">
        <ele>558</ele>
        <time>2019-12-17T11:04:29.000Z</time>
      </trkpt>
      <trkpt lat="43.3682" lon="6.00997">
        <ele>558</ele>
        <time>2019-12-17T11:04:30.000Z</time>
      </trkpt>
      <trkpt lat="43.36819" lon="6.00996">
        <ele>558</ele>
        <time>2019-12-17T11:04:31.000Z</time>
      </trkpt>
      <trkpt lat="43.36818" lon="6.00995">
        <ele>558</ele>
        <time>2019-12-17T11:04:32.000Z</time>
      </trkpt>
      <trkpt lat="43.36817" lon="6.00993">
        <ele>558</ele>
        <time>2019-12-17T11:04:33.000Z</time>
      </trkpt>
      <trkpt lat="43.36816" lon="6.00992">
        <ele>557</ele>
        <time>2019-12-17T11:04:34.000Z</time>
      </trkpt>
      <trkpt lat="43.36815" lon="6.0099">
        <ele>557</ele>
        <time>2019-12-17T11:04:35.000Z</time>
      </trkpt>
      <trkpt lat="43.36814" lon="6.00988">
        <ele>557</ele>
        <time>2019-12-17T11:04:36.000Z</time>
      </trkpt>
      <trkpt lat="43.36813" lon="6.00986">
        <ele>557</ele>
        <time>2019-12-17T11:04:37.000Z</time>
      </trkpt>
      <trkpt lat="43.36812" lon="6.00985">
        <ele>557</ele>
        <time>2019-12-17T11:04:38.000Z</time>
      </trkpt>
      <trkpt lat="43.36811" lon="6.00983">
        <ele>556</ele>
        <time>2019-12-17T11:04:39.000Z</time>
      </trkpt>
      <trkpt lat="43.3681" lon="6.00981">
        <ele>556</ele>
        <time>2019-12-17T11:04:40.000Z</time>
      </trkpt>
      <trkpt lat="43.36809" lon="6.00979">
        <ele>556</ele>
        <time>2019-12-17T11:04:41.000Z</time>
      </trkpt>
      <trkpt lat="43.36809" lon="6.00978">
        <ele>556</ele>
        <time>2019-12-17T11:04:42.000Z</time>
      </trkpt>
      <trkpt lat="43.36808" lon="6.00976">
        <ele>556</ele>
        <time>2019-12-17T11:04:43.000Z</time>
      </trkpt>
      <trkpt lat="43.36807" lon="6.00974">
        <ele>556</ele>
        <time>2019-12-17T11:04:44.000Z</time>
      </trkpt>
      <trkpt lat="43.36806" lon="6.00972">
        <ele>556</ele>
        <time>2019-12-17T11:04:45.000Z</time>
      </trkpt>
      <trkpt lat="43.36805" lon="6.00971">
        <ele>556</ele>
        <time>2019-12-17T11:04:46.000Z</time>
      </trkpt>
      <trkpt lat="43.36804" lon="6.0097">
        <ele>556</ele>
        <time>2019-12-17T11:04:47.000Z</time>
      </trkpt>
      <trkpt lat="43.36803" lon="6.00968">
        <ele>556</ele>
        <time>2019-12-17T11:04:48.000Z</time>
      </trkpt>
      <trkpt lat="43.36802" lon="6.00968">
        <ele>556</ele>
        <time>2019-12-17T11:04:49.000Z</time>
      </trkpt>
      <trkpt lat="43.36801" lon="6.00967">
        <ele>556</ele>
        <time>2019-12-17T11:04:50.000Z</time>
      </trkpt>
      <trkpt lat="43.36799" lon="6.00966">
        <ele>556</ele>
        <time>2019-12-17T11:04:51.000Z</time>
      </trkpt>
      <trkpt lat="43.36798" lon="6.00966">
        <ele>556</ele>
        <time>2019-12-17T11:04:52.000Z</time>
      </trkpt>
      <trkpt lat="43.36797" lon="6.00966">
        <ele>556</ele>
        <time>2019-12-17T11:04:53.000Z</time>
      </trkpt>
      <trkpt lat="43.36796" lon="6.00965">
        <ele>556</ele>
        <time>2019-12-17T11:04:54.000Z</time>
      </trkpt>
      <trkpt lat="43.36795" lon="6.00964">
        <ele>556</ele>
        <time>2019-12-17T11:04:55.000Z</time>
      </trkpt>
      <trkpt lat="43.36793" lon="6.00963">
        <ele>556</ele>
        <time>2019-12-17T11:04:56.000Z</time>
      </trkpt>
      <trkpt lat="43.36793" lon="6.00962">
        <ele>556</ele>
        <time>2019-12-17T11:04:57.000Z</time>
      </trkpt>
      <trkpt lat="43.36792" lon="6.0096">
        <ele>556</ele>
        <time>2019-12-17T11:04:58.000Z</time>
      </trkpt>
      <trkpt lat="43.36791" lon="6.00959">
        <ele>556</ele>
        <time>2019-12-17T11:04:59.000Z</time>
      </trkpt>
      <trkpt lat="43.3679" lon="6.00958">
        <ele>556</ele>
        <time>2019-12-17T11:05:00.000Z</time>
      </trkpt>
      <trkpt lat="43.3679" lon="6.00957">
        <ele>556</ele>
        <time>2019-12-17T11:05:01.000Z</time>
      </trkpt>
      <trkpt lat="43.36789" lon="6.00956">
        <ele>556</ele>
        <time>2019-12-17T11:05:02.000Z</time>
      </trkpt>
      <trkpt lat="43.36789" lon="6.00955">
        <ele>556</ele>
        <time>2019-12-17T11:05:03.000Z</time>
      </trkpt>
      <trkpt lat="43.36789" lon="6.00953">
        <ele>556</ele>
        <time>2019-12-17T11:05:04.000Z</time>
      </trkpt>
      <trkpt lat="43.36789" lon="6.00951">
        <ele>556</ele>
        <time>2019-12-17T11:05:05.000Z</time>
      </trkpt>
      <trkpt lat="43.36788" lon="6.0095">
        <ele>556</ele>
        <time>2019-12-17T11:05:06.000Z</time>
      </trkpt>
      <trkpt lat="43.36788" lon="6.00948">
        <ele>556</ele>
        <time>2019-12-17T11:05:07.000Z</time>
      </trkpt>
      <trkpt lat="43.36788" lon="6.00947">
        <ele>556</ele>
        <time>2019-12-17T11:05:08.000Z</time>
      </trkpt>
      <trkpt lat="43.36787" lon="6.00945">
        <ele>556</ele>
        <time>2019-12-17T11:05:09.000Z</time>
      </trkpt>
      <trkpt lat="43.36787" lon="6.00944">
        <ele>556</ele>
        <time>2019-12-17T11:05:10.000Z</time>
      </trkpt>
      <trkpt lat="43.36787" lon="6.00943">
        <ele>555</ele>
        <time>2019-12-17T11:05:11.000Z</time>
      </trkpt>
      <trkpt lat="43.36787" lon="6.00941">
        <ele>555</ele>
        <time>2019-12-17T11:05:12.000Z</time>
      </trkpt>
      <trkpt lat="43.36786" lon="6.00939">
        <ele>555</ele>
        <time>2019-12-17T11:05:13.000Z</time>
      </trkpt>
      <trkpt lat="43.36786" lon="6.00938">
        <ele>555</ele>
        <time>2019-12-17T11:05:14.000Z</time>
      </trkpt>
      <trkpt lat="43.36785" lon="6.00937">
        <ele>555</ele>
        <time>2019-12-17T11:05:15.000Z</time>
      </trkpt>
      <trkpt lat="43.36784" lon="6.00936">
        <ele>555</ele>
        <time>2019-12-17T11:05:16.000Z</time>
      </trkpt>
      <trkpt lat="43.36783" lon="6.00935">
        <ele>555</ele>
        <time>2019-12-17T11:05:17.000Z</time>
      </trkpt>
      <trkpt lat="43.36782" lon="6.00934">
        <ele>555</ele>
        <time>2019-12-17T11:05:18.000Z</time>
      </trkpt>
      <trkpt lat="43.36781" lon="6.00933">
        <ele>555</ele>
        <time>2019-12-17T11:05:19.000Z</time>
      </trkpt>
      <trkpt lat="43.3678" lon="6.00932">
        <ele>555</ele>
        <time>2019-12-17T11:05:20.000Z</time>
      </trkpt>
      <trkpt lat="43.36779" lon="6.00931">
        <ele>555</ele>
        <time>2019-12-17T11:05:21.000Z</time>
      </trkpt>
      <trkpt lat="43.36778" lon="6.0093">
        <ele>555</ele>
        <time>2019-12-17T11:05:22.000Z</time>
      </trkpt>
      <trkpt lat="43.36778" lon="6.0093">
        <ele>555</ele>
        <time>2019-12-17T11:05:23.000Z</time>
      </trkpt>
      <trkpt lat="43.36777" lon="6.00929">
        <ele>555</ele>
        <time>2019-12-17T11:05:24.000Z</time>
      </trkpt>
      <trkpt lat="43.36776" lon="6.00928">
        <ele>555</ele>
        <time>2019-12-17T11:05:25.000Z</time>
      </trkpt>
      <trkpt lat="43.36775" lon="6.00928">
        <ele>555</ele>
        <time>2019-12-17T11:05:26.000Z</time>
      </trkpt>
      <trkpt lat="43.36774" lon="6.00927">
        <ele>555</ele>
        <time>2019-12-17T11:05:27.000Z</time>
      </trkpt>
      <trkpt lat="43.36773" lon="6.00926">
        <ele>555</ele>
        <time>2019-12-17T11:05:28.000Z</time>
      </trkpt>
      <trkpt lat="43.36772" lon="6.00925">
        <ele>555</ele>
        <time>2019-12-17T11:05:29.000Z</time>
      </trkpt>
      <trkpt lat="43.36771" lon="6.00924">
        <ele>555</ele>
        <time>2019-12-17T11:05:30.000Z</time>
      </trkpt>
      <trkpt lat="43.3677" lon="6.00924">
        <ele>555</ele>
        <time>2019-12-17T11:05:31.000Z</time>
      </trkpt>
      <trkpt lat="43.36769" lon="6.00923">
        <ele>555</ele>
        <time>2019-12-17T11:05:32.000Z</time>
      </trkpt>
      <trkpt lat="43.36768" lon="6.00922">
        <ele>555</ele>
        <time>2019-12-17T11:05:33.000Z</time>
      </trkpt>
      <trkpt lat="43.36767" lon="6.00922">
        <ele>555</ele>
        <time>2019-12-17T11:05:34.000Z</time>
      </trkpt>
      <trkpt lat="43.36766" lon="6.00921">
        <ele>555</ele>
        <time>2019-12-17T11:05:35.000Z</time>
      </trkpt>
      <trkpt lat="43.36765" lon="6.0092">
        <ele>555</ele>
        <time>2019-12-17T11:05:36.000Z</time>
      </trkpt>
      <trkpt lat="43.36763" lon="6.00919">
        <ele>555</ele>
        <time>2019-12-17T11:05:37.000Z</time>
      </trkpt>
      <trkpt lat="43.36762" lon="6.00919">
        <ele>555</ele>
        <time>2019-12-17T11:05:38.000Z</time>
      </trkpt>
      <trkpt lat="43.36761" lon="6.00918">
        <ele>555</ele>
        <time>2019-12-17T11:05:39.000Z</time>
      </trkpt>
      <trkpt lat="43.3676" lon="6.00918">
        <ele>555</ele>
        <time>2019-12-17T11:05:40.000Z</time>
      </trkpt>
      <trkpt lat="43.36758" lon="6.00917">
        <ele>555</ele>
        <time>2019-12-17T11:05:41.000Z</time>
      </trkpt>
      <trkpt lat="43.36757" lon="6.00917">
        <ele>555</ele>
        <time>2019-12-17T11:05:42.000Z</time>
      </trkpt>
      <trkpt lat="43.36755" lon="6.00917">
        <ele>555</ele>
        <time>2019-12-17T11:05:43.000Z</time>
      </trkpt>
      <trkpt lat="43.36754" lon="6.00916">
        <ele>555</ele>
        <time>2019-12-17T11:05:44.000Z</time>
      </trkpt>
      <trkpt lat="43.36753" lon="6.00916">
        <ele>555</ele>
        <time>2019-12-17T11:05:45.000Z</time>
      </trkpt>
      <trkpt lat="43.36751" lon="6.00915">
        <ele>555</ele>
        <time>2019-12-17T11:05:46.000Z</time>
      </trkpt>
      <trkpt lat="43.3675" lon="6.00914">
        <ele>555</ele>
        <time>2019-12-17T11:05:47.000Z</time>
      </trkpt>
      <trkpt lat="43.36749" lon="6.00913">
        <ele>555</ele>
        <time>2019-12-17T11:05:48.000Z</time>
      </trkpt>
      <trkpt lat="43.36748" lon="6.00912">
        <ele>555</ele>
        <time>2019-12-17T11:05:49.000Z</time>
      </trkpt>
      <trkpt lat="43.36747" lon="6.00911">
        <ele>555</ele>
        <time>2019-12-17T11:05:50.000Z</time>
      </trkpt>
      <trkpt lat="43.36746" lon="6.0091">
        <ele>555</ele>
        <time>2019-12-17T11:05:51.000Z</time>
      </trkpt>
      <trkpt lat="43.36744" lon="6.00909">
        <ele>555</ele>
        <time>2019-12-17T11:05:52.000Z</time>
      </trkpt>
      <trkpt lat="43.36743" lon="6.00908">
        <ele>555</ele>
        <time>2019-12-17T11:05:53.000Z</time>
      </trkpt>
      <trkpt lat="43.36742" lon="6.00907">
        <ele>555</ele>
        <time>2019-12-17T11:05:54.000Z</time>
      </trkpt>
      <trkpt lat="43.36741" lon="6.00906">
        <ele>555</ele>
        <time>2019-12-17T11:05:55.000Z</time>
      </trkpt>
      <trkpt lat="43.3674" lon="6.00905">
        <ele>555</ele>
        <time>2019-12-17T11:05:56.000Z</time>
      </trkpt>
      <trkpt lat="43.36739" lon="6.00904">
        <ele>555</ele>
        <time>2019-12-17T11:05:57.000Z</time>
      </trkpt>
      <trkpt lat="43.36738" lon="6.00902">
        <ele>555</ele>
        <time>2019-12-17T11:05:58.000Z</time>
      </trkpt>
      <trkpt lat="43.36737" lon="6.00901">
        <ele>555</ele>
        <time>2019-12-17T11:05:59.000Z</time>
      </trkpt>
      <trkpt lat="43.36736" lon="6.009">
        <ele>555</ele>
        <time>2019-12-17T11:06:00.000Z</time>
      </trkpt>
      <trkpt lat="43.36735" lon="6.00899">
        <ele>555</ele>
        <time>2019-12-17T11:06:01.000Z</time>
      </trkpt>
      <trkpt lat="43.36734" lon="6.00898">
        <ele>555</ele>
        <time>2019-12-17T11:06:02.000Z</time>
      </trkpt>
      <trkpt lat="43.36733" lon="6.00896">
        <ele>555</ele>
        <time>2019-12-17T11:06:03.000Z</time>
      </trkpt>
      <trkpt lat="43.36732" lon="6.00895">
        <ele>555</ele>
        <time>2019-12-17T11:06:04.000Z</time>
      </trkpt>
      <trkpt lat="43.36731" lon="6.00894">
        <ele>555</ele>
        <time>2019-12-17T11:06:05.000Z</time>
      </trkpt>
      <trkpt lat="43.3673" lon="6.00893">
        <ele>555</ele>
        <time>2019-12-17T11:06:06.000Z</time>
      </trkpt>
      <trkpt lat="43.36728" lon="6.00892">
        <ele>555</ele>
        <time>2019-12-17T11:06:07.000Z</time>
      </trkpt>
      <trkpt lat="43.36727" lon="6.00891">
        <ele>555</ele>
        <time>2019-12-17T11:06:08.000Z</time>
      </trkpt>
      <trkpt lat="43.36726" lon="6.0089">
        <ele>556</ele>
        <time>2019-12-17T11:06:09.000Z</time>
      </trkpt>
      <trkpt lat="43.36725" lon="6.0089">
        <ele>556</ele>
        <time>2019-12-17T11:06:10.000Z</time>
      </trkpt>
      <trkpt lat="43.36724" lon="6.00889">
        <ele>556</ele>
        <time>2019-12-17T11:06:11.000Z</time>
      </trkpt>
      <trkpt lat="43.36723" lon="6.00888">
        <ele>556</ele>
        <time>2019-12-17T11:06:12.000Z</time>
      </trkpt>
      <trkpt lat="43.36722" lon="6.00887">
        <ele>556</ele>
        <time>2019-12-17T11:06:13.000Z</time>
      </trkpt>
      <trkpt lat="43.3672" lon="6.00886">
        <ele>556</ele>
        <time>2019-12-17T11:06:14.000Z</time>
      </trkpt>
      <trkpt lat="43.36719" lon="6.00886">
        <ele>556</ele>
        <time>2019-12-17T11:06:15.000Z</time>
      </trkpt>
      <trkpt lat="43.36717" lon="6.00885">
        <ele>556</ele>
        <time>2019-12-17T11:06:16.000Z</time>
      </trkpt>
      <trkpt lat="43.36716" lon="6.00884">
        <ele>556</ele>
        <time>2019-12-17T11:06:17.000Z</time>
      </trkpt>
      <trkpt lat="43.36715" lon="6.00883">
        <ele>556</ele>
        <time>2019-12-17T11:06:18.000Z</time>
      </trkpt>
      <trkpt lat="43.36713" lon="6.00883">
        <ele>556</ele>
        <time>2019-12-17T11:06:19.000Z</time>
      </trkpt>
      <trkpt lat="43.36712" lon="6.00882">
        <ele>556</ele>
        <time>2019-12-17T11:06:20.000Z</time>
      </trkpt>
      <trkpt lat="43.36711" lon="6.00881">
        <ele>556</ele>
        <time>2019-12-17T11:06:21.000Z</time>
      </trkpt>
      <trkpt lat="43.3671" lon="6.0088">
        <ele>556</ele>
        <time>2019-12-17T11:06:22.000Z</time>
      </trkpt>
      <trkpt lat="43.36709" lon="6.0088">
        <ele>556</ele>
        <time>2019-12-17T11:06:23.000Z</time>
      </trkpt>
      <trkpt lat="43.36708" lon="6.00879">
        <ele>556</ele>
        <time>2019-12-17T11:06:24.000Z</time>
      </trkpt>
      <trkpt lat="43.36707" lon="6.00878">
        <ele>556</ele>
        <time>2019-12-17T11:06:25.000Z</time>
      </trkpt>
      <trkpt lat="43.36706" lon="6.00877">
        <ele>556</ele>
        <time>2019-12-17T11:06:26.000Z</time>
      </trkpt>
      <trkpt lat="43.36706" lon="6.00875">
        <ele>556</ele>
        <time>2019-12-17T11:06:27.000Z</time>
      </trkpt>
      <trkpt lat="43.36705" lon="6.00874">
        <ele>555</ele>
        <time>2019-12-17T11:06:28.000Z</time>
      </trkpt>
      <trkpt lat="43.36704" lon="6.00873">
        <ele>555</ele>
        <time>2019-12-17T11:06:29.000Z</time>
      </trkpt>
      <trkpt lat="43.36704" lon="6.00872">
        <ele>555</ele>
        <time>2019-12-17T11:06:30.000Z</time>
      </trkpt>
      <trkpt lat="43.36703" lon="6.0087">
        <ele>555</ele>
        <time>2019-12-17T11:06:31.000Z</time>
      </trkpt>
      <trkpt lat="43.36703" lon="6.00869">
        <ele>555</ele>
        <time>2019-12-17T11:06:32.000Z</time>
      </trkpt>
      <trkpt lat="43.36702" lon="6.00868">
        <ele>555</ele>
        <time>2019-12-17T11:06:33.000Z</time>
      </trkpt>
      <trkpt lat="43.36702" lon="6.00867">
        <ele>555</ele>
        <time>2019-12-17T11:06:34.000Z</time>
      </trkpt>
      <trkpt lat="43.36702" lon="6.00865">
        <ele>555</ele>
        <time>2019-12-17T11:06:35.000Z</time>
      </trkpt>
      <trkpt lat="43.36702" lon="6.00864">
        <ele>555</ele>
        <time>2019-12-17T11:06:36.000Z</time>
      </trkpt>
      <trkpt lat="43.36701" lon="6.00862">
        <ele>555</ele>
        <time>2019-12-17T11:06:37.000Z</time>
      </trkpt>
      <trkpt lat="43.36701" lon="6.00861">
        <ele>555</ele>
        <time>2019-12-17T11:06:38.000Z</time>
      </trkpt>
      <trkpt lat="43.36701" lon="6.00859">
        <ele>555</ele>
        <time>2019-12-17T11:06:39.000Z</time>
      </trkpt>
      <trkpt lat="43.36701" lon="6.00857">
        <ele>555</ele>
        <time>2019-12-17T11:06:40.000Z</time>
      </trkpt>
      <trkpt lat="43.36701" lon="6.00856">
        <ele>555</ele>
        <time>2019-12-17T11:06:41.000Z</time>
      </trkpt>
      <trkpt lat="43.36701" lon="6.00854">
        <ele>555</ele>
        <time>2019-12-17T11:06:42.000Z</time>
      </trkpt>
      <trkpt lat="43.36701" lon="6.00853">
        <ele>555</ele>
        <time>2019-12-17T11:06:43.000Z</time>
      </trkpt>
      <trkpt lat="43.36701" lon="6.00851">
        <ele>555</ele>
        <time>2019-12-17T11:06:44.000Z</time>
      </trkpt>
      <trkpt lat="43.36702" lon="6.00849">
        <ele>555</ele>
        <time>2019-12-17T11:06:45.000Z</time>
      </trkpt>
      <trkpt lat="43.36702" lon="6.00847">
        <ele>555</ele>
        <time>2019-12-17T11:06:46.000Z</time>
      </trkpt>
      <trkpt lat="43.36702" lon="6.00845">
        <ele>555</ele>
        <time>2019-12-17T11:06:47.000Z</time>
      </trkpt>
      <trkpt lat="43.36702" lon="6.00844">
        <ele>554</ele>
        <time>2019-12-17T11:06:48.000Z</time>
      </trkpt>
      <trkpt lat="43.36701" lon="6.00842">
        <ele>554</ele>
        <time>2019-12-17T11:06:49.000Z</time>
      </trkpt>
      <trkpt lat="43.36702" lon="6.0084">
        <ele>554</ele>
        <time>2019-12-17T11:06:50.000Z</time>
      </trkpt>
      <trkpt lat="43.36701" lon="6.00839">
        <ele>554</ele>
        <time>2019-12-17T11:06:51.000Z</time>
      </trkpt>
      <trkpt lat="43.36701" lon="6.00837">
        <ele>554</ele>
        <time>2019-12-17T11:06:52.000Z</time>
      </trkpt>
      <trkpt lat="43.36701" lon="6.00836">
        <ele>554</ele>
        <time>2019-12-17T11:06:53.000Z</time>
      </trkpt>
      <trkpt lat="43.36701" lon="6.00834">
        <ele>554</ele>
        <time>2019-12-17T11:06:54.000Z</time>
      </trkpt>
      <trkpt lat="43.367" lon="6.00833">
        <ele>554</ele>
        <time>2019-12-17T11:06:55.000Z</time>
      </trkpt>
      <trkpt lat="43.367" lon="6.00833">
        <ele>554</ele>
        <time>2019-12-17T11:06:56.000Z</time>
      </trkpt>
      <trkpt lat="43.36699" lon="6.00832">
        <ele>554</ele>
        <time>2019-12-17T11:06:57.000Z</time>
      </trkpt>
      <trkpt lat="43.36698" lon="6.00832">
        <ele>554</ele>
        <time>2019-12-17T11:06:58.000Z</time>
      </trkpt>
      <trkpt lat="43.36697" lon="6.00832">
        <ele>554</ele>
        <time>2019-12-17T11:06:59.000Z</time>
      </trkpt>
      <trkpt lat="43.36695" lon="6.00832">
        <ele>554</ele>
        <time>2019-12-17T11:07:00.000Z</time>
      </trkpt>
      <trkpt lat="43.36694" lon="6.00832">
        <ele>554</ele>
        <time>2019-12-17T11:07:01.000Z</time>
      </trkpt>
      <trkpt lat="43.36693" lon="6.00832">
        <ele>554</ele>
        <time>2019-12-17T11:07:02.000Z</time>
      </trkpt>
      <trkpt lat="43.36692" lon="6.00831">
        <ele>555</ele>
        <time>2019-12-17T11:07:03.000Z</time>
      </trkpt>
      <trkpt lat="43.36691" lon="6.00831">
        <ele>555</ele>
        <time>2019-12-17T11:07:04.000Z</time>
      </trkpt>
      <trkpt lat="43.3669" lon="6.00831">
        <ele>555</ele>
        <time>2019-12-17T11:07:05.000Z</time>
      </trkpt>
      <trkpt lat="43.36689" lon="6.00831">
        <ele>555</ele>
        <time>2019-12-17T11:07:06.000Z</time>
      </trkpt>
      <trkpt lat="43.36688" lon="6.00832">
        <ele>555</ele>
        <time>2019-12-17T11:07:07.000Z</time>
      </trkpt>
      <trkpt lat="43.36687" lon="6.00833">
        <ele>555</ele>
        <time>2019-12-17T11:07:08.000Z</time>
      </trkpt>
      <trkpt lat="43.36686" lon="6.00834">
        <ele>556</ele>
        <time>2019-12-17T11:07:09.000Z</time>
      </trkpt>
      <trkpt lat="43.36685" lon="6.00835">
        <ele>556</ele>
        <time>2019-12-17T11:07:10.000Z</time>
      </trkpt>
      <trkpt lat="43.36684" lon="6.00836">
        <ele>556</ele>
        <time>2019-12-17T11:07:11.000Z</time>
      </trkpt>
      <trkpt lat="43.36683" lon="6.00837">
        <ele>556</ele>
        <time>2019-12-17T11:07:12.000Z</time>
      </trkpt>
      <trkpt lat="43.36682" lon="6.00838">
        <ele>556</ele>
        <time>2019-12-17T11:07:13.000Z</time>
      </trkpt>
      <trkpt lat="43.36681" lon="6.00839">
        <ele>556</ele>
        <time>2019-12-17T11:07:14.000Z</time>
      </trkpt>
      <trkpt lat="43.3668" lon="6.0084">
        <ele>556</ele>
        <time>2019-12-17T11:07:15.000Z</time>
      </trkpt>
      <trkpt lat="43.36679" lon="6.0084">
        <ele>556</ele>
        <time>2019-12-17T11:07:16.000Z</time>
      </trkpt>
      <trkpt lat="43.36678" lon="6.00841">
        <ele>556</ele>
        <time>2019-12-17T11:07:17.000Z</time>
      </trkpt>
      <trkpt lat="43.36677" lon="6.00842">
        <ele>556</ele>
        <time>2019-12-17T11:07:18.000Z</time>
      </trkpt>
      <trkpt lat="43.36676" lon="6.00843">
        <ele>556</ele>
        <time>2019-12-17T11:07:19.000Z</time>
      </trkpt>
      <trkpt lat="43.36675" lon="6.00844">
        <ele>556</ele>
        <time>2019-12-17T11:07:20.000Z</time>
      </trkpt>
      <trkpt lat="43.36674" lon="6.00845">
        <ele>556</ele>
        <time>2019-12-17T11:07:21.000Z</time>
      </trkpt>
      <trkpt lat="43.36673" lon="6.00845">
        <ele>556</ele>
        <time>2019-12-17T11:07:22.000Z</time>
      </trkpt>
      <trkpt lat="43.36672" lon="6.00846">
        <ele>556</ele>
        <time>2019-12-17T11:07:23.000Z</time>
      </trkpt>
      <trkpt lat="43.36671" lon="6.00847">
        <ele>556</ele>
        <time>2019-12-17T11:07:24.000Z</time>
      </trkpt>
      <trkpt lat="43.3667" lon="6.00848">
        <ele>556</ele>
        <time>2019-12-17T11:07:25.000Z</time>
      </trkpt>
      <trkpt lat="43.36669" lon="6.00848">
        <ele>556</ele>
        <time>2019-12-17T11:07:26.000Z</time>
      </trkpt>
      <trkpt lat="43.36668" lon="6.00849">
        <ele>556</ele>
        <time>2019-12-17T11:07:27.000Z</time>
      </trkpt>
      <trkpt lat="43.36667" lon="6.0085">
        <ele>556</ele>
        <time>2019-12-17T11:07:28.000Z</time>
      </trkpt>
      <trkpt lat="43.36666" lon="6.00851">
        <ele>556</ele>
        <time>2019-12-17T11:07:29.000Z</time>
      </trkpt>
      <trkpt lat="43.36665" lon="6.00852">
        <ele>556</ele>
        <time>2019-12-17T11:07:30.000Z</time>
      </trkpt>
      <trkpt lat="43.36664" lon="6.00852">
        <ele>556</ele>
        <time>2019-12-17T11:07:31.000Z</time>
      </trkpt>
      <trkpt lat="43.36663" lon="6.00853">
        <ele>556</ele>
        <time>2019-12-17T11:07:32.000Z</time>
      </trkpt>
      <trkpt lat="43.36662" lon="6.00853">
        <ele>556</ele>
        <time>2019-12-17T11:07:33.000Z</time>
      </trkpt>
      <trkpt lat="43.36661" lon="6.00853">
        <ele>556</ele>
        <time>2019-12-17T11:07:34.000Z</time>
      </trkpt>
      <trkpt lat="43.3666" lon="6.00853">
        <ele>556</ele>
        <time>2019-12-17T11:07:35.000Z</time>
      </trkpt>
      <trkpt lat="43.36659" lon="6.00854">
        <ele>556</ele>
        <time>2019-12-17T11:07:36.000Z</time>
      </trkpt>
      <trkpt lat="43.36658" lon="6.00855">
        <ele>556</ele>
        <time>2019-12-17T11:07:37.000Z</time>
      </trkpt>
      <trkpt lat="43.36657" lon="6.00855">
        <ele>556</ele>
        <time>2019-12-17T11:07:38.000Z</time>
      </trkpt>
      <trkpt lat="43.36656" lon="6.00856">
        <ele>556</ele>
        <time>2019-12-17T11:07:39.000Z</time>
      </trkpt>
      <trkpt lat="43.36655" lon="6.00857">
        <ele>556</ele>
        <time>2019-12-17T11:07:40.000Z</time>
      </trkpt>
      <trkpt lat="43.36654" lon="6.00858">
        <ele>556</ele>
        <time>2019-12-17T11:07:41.000Z</time>
      </trkpt>
      <trkpt lat="43.36653" lon="6.00859">
        <ele>556</ele>
        <time>2019-12-17T11:07:42.000Z</time>
      </trkpt>
      <trkpt lat="43.36652" lon="6.0086">
        <ele>556</ele>
        <time>2019-12-17T11:07:43.000Z</time>
      </trkpt>
      <trkpt lat="43.3665" lon="6.00861">
        <ele>556</ele>
        <time>2019-12-17T11:07:44.000Z</time>
      </trkpt>
      <trkpt lat="43.36649" lon="6.00862">
        <ele>556</ele>
        <time>2019-12-17T11:07:45.000Z</time>
      </trkpt>
      <trkpt lat="43.36648" lon="6.00864">
        <ele>556</ele>
        <time>2019-12-17T11:07:46.000Z</time>
      </trkpt>
      <trkpt lat="43.36647" lon="6.00865">
        <ele>556</ele>
        <time>2019-12-17T11:07:47.000Z</time>
      </trkpt>
      <trkpt lat="43.36647" lon="6.00865">
        <ele>556</ele>
        <time>2019-12-17T11:07:48.000Z</time>
      </trkpt>
      <trkpt lat="43.36646" lon="6.00866">
        <ele>556</ele>
        <time>2019-12-17T11:07:49.000Z</time>
      </trkpt>
      <trkpt lat="43.36645" lon="6.00867">
        <ele>556</ele>
        <time>2019-12-17T11:07:50.000Z</time>
      </trkpt>
      <trkpt lat="43.36644" lon="6.00868">
        <ele>556</ele>
        <time>2019-12-17T11:07:51.000Z</time>
      </trkpt>
      <trkpt lat="43.36643" lon="6.00868">
        <ele>556</ele>
        <time>2019-12-17T11:07:52.000Z</time>
      </trkpt>
      <trkpt lat="43.36642" lon="6.00869">
        <ele>556</ele>
        <time>2019-12-17T11:07:53.000Z</time>
      </trkpt>
      <trkpt lat="43.36641" lon="6.0087">
        <ele>556</ele>
        <time>2019-12-17T11:07:54.000Z</time>
      </trkpt>
      <trkpt lat="43.36639" lon="6.00871">
        <ele>556</ele>
        <time>2019-12-17T11:07:55.000Z</time>
      </trkpt>
      <trkpt lat="43.36638" lon="6.00872">
        <ele>556</ele>
        <time>2019-12-17T11:07:56.000Z</time>
      </trkpt>
      <trkpt lat="43.36637" lon="6.00873">
        <ele>556</ele>
        <time>2019-12-17T11:07:57.000Z</time>
      </trkpt>
      <trkpt lat="43.36637" lon="6.00873">
        <ele>556</ele>
        <time>2019-12-17T11:07:58.000Z</time>
      </trkpt>
      <trkpt lat="43.36636" lon="6.00874">
        <ele>556</ele>
        <time>2019-12-17T11:07:59.000Z</time>
      </trkpt>
      <trkpt lat="43.36635" lon="6.00875">
        <ele>556</ele>
        <time>2019-12-17T11:08:00.000Z</time>
      </trkpt>
      <trkpt lat="43.36635" lon="6.00875">
        <ele>556</ele>
        <time>2019-12-17T11:08:01.000Z</time>
      </trkpt>
      <trkpt lat="43.36634" lon="6.00876">
        <ele>556</ele>
        <time>2019-12-17T11:08:02.000Z</time>
      </trkpt>
      <trkpt lat="43.36633" lon="6.00877">
        <ele>556</ele>
        <time>2019-12-17T11:08:03.000Z</time>
      </trkpt>
      <trkpt lat="43.36632" lon="6.00877">
        <ele>557</ele>
        <time>2019-12-17T11:08:04.000Z</time>
      </trkpt>
      <trkpt lat="43.36631" lon="6.00878">
        <ele>557</ele>
        <time>2019-12-17T11:08:05.000Z</time>
      </trkpt>
      <trkpt lat="43.3663" lon="6.00878">
        <ele>557</ele>
        <time>2019-12-17T11:08:06.000Z</time>
      </trkpt>
      <trkpt lat="43.3663" lon="6.00878">
        <ele>557</ele>
        <time>2019-12-17T11:08:07.000Z</time>
      </trkpt>
      <trkpt lat="43.36629" lon="6.00879">
        <ele>557</ele>
        <time>2019-12-17T11:08:08.000Z</time>
      </trkpt>
      <trkpt lat="43.36628" lon="6.0088">
        <ele>557</ele>
        <time>2019-12-17T11:08:09.000Z</time>
      </trkpt>
      <trkpt lat="43.36627" lon="6.0088">
        <ele>557</ele>
        <time>2019-12-17T11:08:10.000Z</time>
      </trkpt>
      <trkpt lat="43.36627" lon="6.00881">
        <ele>557</ele>
        <time>2019-12-17T11:08:11.000Z</time>
      </trkpt>
      <trkpt lat="43.36626" lon="6.00881">
        <ele>557</ele>
        <time>2019-12-17T11:08:12.000Z</time>
      </trkpt>
      <trkpt lat="43.36625" lon="6.00881">
        <ele>557</ele>
        <time>2019-12-17T11:08:13.000Z</time>
      </trkpt>
      <trkpt lat="43.36624" lon="6.00881">
        <ele>557</ele>
        <time>2019-12-17T11:08:14.000Z</time>
      </trkpt>
      <trkpt lat="43.36623" lon="6.00882">
        <ele>557</ele>
        <time>2019-12-17T11:08:15.000Z</time>
      </trkpt>
      <trkpt lat="43.36622" lon="6.00883">
        <ele>557</ele>
        <time>2019-12-17T11:08:16.000Z</time>
      </trkpt>
      <trkpt lat="43.36621" lon="6.00883">
        <ele>557</ele>
        <time>2019-12-17T11:08:17.000Z</time>
      </trkpt>
      <trkpt lat="43.3662" lon="6.00885">
        <ele>557</ele>
        <time>2019-12-17T11:08:18.000Z</time>
      </trkpt>
      <trkpt lat="43.36619" lon="6.00885">
        <ele>557</ele>
        <time>2019-12-17T11:08:19.000Z</time>
      </trkpt>
      <trkpt lat="43.36618" lon="6.00887">
        <ele>557</ele>
        <time>2019-12-17T11:08:20.000Z</time>
      </trkpt>
      <trkpt lat="43.36618" lon="6.00887">
        <ele>557</ele>
        <time>2019-12-17T11:08:21.000Z</time>
      </trkpt>
      <trkpt lat="43.36617" lon="6.00888">
        <ele>557</ele>
        <time>2019-12-17T11:08:22.000Z</time>
      </trkpt>
      <trkpt lat="43.36616" lon="6.00888">
        <ele>557</ele>
        <time>2019-12-17T11:08:23.000Z</time>
      </trkpt>
      <trkpt lat="43.36615" lon="6.00889">
        <ele>558</ele>
        <time>2019-12-17T11:08:24.000Z</time>
      </trkpt>
      <trkpt lat="43.36614" lon="6.0089">
        <ele>558</ele>
        <time>2019-12-17T11:08:25.000Z</time>
      </trkpt>
      <trkpt lat="43.36613" lon="6.00891">
        <ele>558</ele>
        <time>2019-12-17T11:08:26.000Z</time>
      </trkpt>
      <trkpt lat="43.36611" lon="6.00891">
        <ele>558</ele>
        <time>2019-12-17T11:08:27.000Z</time>
      </trkpt>
      <trkpt lat="43.3661" lon="6.00892">
        <ele>558</ele>
        <time>2019-12-17T11:08:28.000Z</time>
      </trkpt>
      <trkpt lat="43.36609" lon="6.00892">
        <ele>558</ele>
        <time>2019-12-17T11:08:29.000Z</time>
      </trkpt>
      <trkpt lat="43.36608" lon="6.00893">
        <ele>558</ele>
        <time>2019-12-17T11:08:30.000Z</time>
      </trkpt>
      <trkpt lat="43.36606" lon="6.00893">
        <ele>558</ele>
        <time>2019-12-17T11:08:31.000Z</time>
      </trkpt>
      <trkpt lat="43.36604" lon="6.00894">
        <ele>558</ele>
        <time>2019-12-17T11:08:32.000Z</time>
      </trkpt>
      <trkpt lat="43.36603" lon="6.00895">
        <ele>558</ele>
        <time>2019-12-17T11:08:33.000Z</time>
      </trkpt>
      <trkpt lat="43.36602" lon="6.00895">
        <ele>558</ele>
        <time>2019-12-17T11:08:34.000Z</time>
      </trkpt>
      <trkpt lat="43.36601" lon="6.00896">
        <ele>558</ele>
        <time>2019-12-17T11:08:35.000Z</time>
      </trkpt>
      <trkpt lat="43.366" lon="6.00896">
        <ele>558</ele>
        <time>2019-12-17T11:08:36.000Z</time>
      </trkpt>
      <trkpt lat="43.36598" lon="6.00897">
        <ele>558</ele>
        <time>2019-12-17T11:08:37.000Z</time>
      </trkpt>
      <trkpt lat="43.36597" lon="6.00897">
        <ele>558</ele>
        <time>2019-12-17T11:08:38.000Z</time>
      </trkpt>
      <trkpt lat="43.36596" lon="6.00898">
        <ele>558</ele>
        <time>2019-12-17T11:08:39.000Z</time>
      </trkpt>
      <trkpt lat="43.36594" lon="6.00898">
        <ele>558</ele>
        <time>2019-12-17T11:08:40.000Z</time>
      </trkpt>
      <trkpt lat="43.36593" lon="6.00899">
        <ele>558</ele>
        <time>2019-12-17T11:08:41.000Z</time>
      </trkpt>
      <trkpt lat="43.36591" lon="6.00899">
        <ele>558</ele>
        <time>2019-12-17T11:08:42.000Z</time>
      </trkpt>
      <trkpt lat="43.3659" lon="6.009">
        <ele>558</ele>
        <time>2019-12-17T11:08:43.000Z</time>
      </trkpt>
      <trkpt lat="43.36588" lon="6.009">
        <ele>558</ele>
        <time>2019-12-17T11:08:44.000Z</time>
      </trkpt>
      <trkpt lat="43.36587" lon="6.00901">
        <ele>559</ele>
        <time>2019-12-17T11:08:45.000Z</time>
      </trkpt>
      <trkpt lat="43.36585" lon="6.00901">
        <ele>559</ele>
        <time>2019-12-17T11:08:46.000Z</time>
      </trkpt>
      <trkpt lat="43.36584" lon="6.00902">
        <ele>559</ele>
        <time>2019-12-17T11:08:47.000Z</time>
      </trkpt>
      <trkpt lat="43.36582" lon="6.00902">
        <ele>559</ele>
        <time>2019-12-17T11:08:48.000Z</time>
      </trkpt>
      <trkpt lat="43.36581" lon="6.00903">
        <ele>559</ele>
        <time>2019-12-17T11:08:49.000Z</time>
      </trkpt>
      <trkpt lat="43.3658" lon="6.00903">
        <ele>559</ele>
        <time>2019-12-17T11:08:50.000Z</time>
      </trkpt>
      <trkpt lat="43.36578" lon="6.00903">
        <ele>559</ele>
        <time>2019-12-17T11:08:51.000Z</time>
      </trkpt>
      <trkpt lat="43.36577" lon="6.00904">
        <ele>559</ele>
        <time>2019-12-17T11:08:52.000Z</time>
      </trkpt>
      <trkpt lat="43.36576" lon="6.00904">
        <ele>559</ele>
        <time>2019-12-17T11:08:53.000Z</time>
      </trkpt>
      <trkpt lat="43.36575" lon="6.00904">
        <ele>559</ele>
        <time>2019-12-17T11:08:54.000Z</time>
      </trkpt>
      <trkpt lat="43.36574" lon="6.00904">
        <ele>559</ele>
        <time>2019-12-17T11:08:55.000Z</time>
      </trkpt>
      <trkpt lat="43.36572" lon="6.00904">
        <ele>560</ele>
        <time>2019-12-17T11:08:56.000Z</time>
      </trkpt>
      <trkpt lat="43.36571" lon="6.00904">
        <ele>560</ele>
        <time>2019-12-17T11:08:57.000Z</time>
      </trkpt>
      <trkpt lat="43.36569" lon="6.00904">
        <ele>560</ele>
        <time>2019-12-17T11:08:58.000Z</time>
      </trkpt>
      <trkpt lat="43.36567" lon="6.00904">
        <ele>560</ele>
        <time>2019-12-17T11:08:59.000Z</time>
      </trkpt>
      <trkpt lat="43.36566" lon="6.00904">
        <ele>560</ele>
        <time>2019-12-17T11:09:00.000Z</time>
      </trkpt>
      <trkpt lat="43.36564" lon="6.00904">
        <ele>559</ele>
        <time>2019-12-17T11:09:01.000Z</time>
      </trkpt>
      <trkpt lat="43.36563" lon="6.00904">
        <ele>559</ele>
        <time>2019-12-17T11:09:02.000Z</time>
      </trkpt>
      <trkpt lat="43.36561" lon="6.00903">
        <ele>559</ele>
        <time>2019-12-17T11:09:03.000Z</time>
      </trkpt>
      <trkpt lat="43.3656" lon="6.00903">
        <ele>559</ele>
        <time>2019-12-17T11:09:04.000Z</time>
      </trkpt>
      <trkpt lat="43.36559" lon="6.00903">
        <ele>559</ele>
        <time>2019-12-17T11:09:05.000Z</time>
      </trkpt>
      <trkpt lat="43.36557" lon="6.00902">
        <ele>559</ele>
        <time>2019-12-17T11:09:06.000Z</time>
      </trkpt>
      <trkpt lat="43.36556" lon="6.00902">
        <ele>559</ele>
        <time>2019-12-17T11:09:07.000Z</time>
      </trkpt>
      <trkpt lat="43.36555" lon="6.00903">
        <ele>559</ele>
        <time>2019-12-17T11:09:08.000Z</time>
      </trkpt>
      <trkpt lat="43.36553" lon="6.00902">
        <ele>559</ele>
        <time>2019-12-17T11:09:09.000Z</time>
      </trkpt>
      <trkpt lat="43.36552" lon="6.00902">
        <ele>559</ele>
        <time>2019-12-17T11:09:10.000Z</time>
      </trkpt>
      <trkpt lat="43.36551" lon="6.00901">
        <ele>559</ele>
        <time>2019-12-17T11:09:11.000Z</time>
      </trkpt>
      <trkpt lat="43.3655" lon="6.009">
        <ele>559</ele>
        <time>2019-12-17T11:09:12.000Z</time>
      </trkpt>
      <trkpt lat="43.36549" lon="6.00899">
        <ele>559</ele>
        <time>2019-12-17T11:09:13.000Z</time>
      </trkpt>
      <trkpt lat="43.36549" lon="6.00899">
        <ele>558</ele>
        <time>2019-12-17T11:09:14.000Z</time>
      </trkpt>
      <trkpt lat="43.36548" lon="6.00898">
        <ele>558</ele>
        <time>2019-12-17T11:09:15.000Z</time>
      </trkpt>
      <trkpt lat="43.36547" lon="6.00897">
        <ele>558</ele>
        <time>2019-12-17T11:09:16.000Z</time>
      </trkpt>
      <trkpt lat="43.36546" lon="6.00896">
        <ele>558</ele>
        <time>2019-12-17T11:09:17.000Z</time>
      </trkpt>
      <trkpt lat="43.36545" lon="6.00895">
        <ele>558</ele>
        <time>2019-12-17T11:09:18.000Z</time>
      </trkpt>
      <trkpt lat="43.36545" lon="6.00894">
        <ele>557</ele>
        <time>2019-12-17T11:09:19.000Z</time>
      </trkpt>
      <trkpt lat="43.36544" lon="6.00894">
        <ele>557</ele>
        <time>2019-12-17T11:09:20.000Z</time>
      </trkpt>
      <trkpt lat="43.36543" lon="6.00893">
        <ele>557</ele>
        <time>2019-12-17T11:09:21.000Z</time>
      </trkpt>
      <trkpt lat="43.36542" lon="6.00893">
        <ele>557</ele>
        <time>2019-12-17T11:09:22.000Z</time>
      </trkpt>
      <trkpt lat="43.36541" lon="6.00892">
        <ele>557</ele>
        <time>2019-12-17T11:09:23.000Z</time>
      </trkpt>
      <trkpt lat="43.3654" lon="6.00891">
        <ele>557</ele>
        <time>2019-12-17T11:09:24.000Z</time>
      </trkpt>
      <trkpt lat="43.36539" lon="6.0089">
        <ele>557</ele>
        <time>2019-12-17T11:09:25.000Z</time>
      </trkpt>
      <trkpt lat="43.36538" lon="6.00889">
        <ele>557</ele>
        <time>2019-12-17T11:09:26.000Z</time>
      </trkpt>
      <trkpt lat="43.36537" lon="6.00888">
        <ele>557</ele>
        <time>2019-12-17T11:09:27.000Z</time>
      </trkpt>
      <trkpt lat="43.36535" lon="6.00887">
        <ele>557</ele>
        <time>2019-12-17T11:09:28.000Z</time>
      </trkpt>
      <trkpt lat="43.36534" lon="6.00887">
        <ele>557</ele>
        <time>2019-12-17T11:09:29.000Z</time>
      </trkpt>
      <trkpt lat="43.36533" lon="6.00886">
        <ele>557</ele>
        <time>2019-12-17T11:09:30.000Z</time>
      </trkpt>
      <trkpt lat="43.36532" lon="6.00885">
        <ele>557</ele>
        <time>2019-12-17T11:09:31.000Z</time>
      </trkpt>
      <trkpt lat="43.36531" lon="6.00884">
        <ele>557</ele>
        <time>2019-12-17T11:09:32.000Z</time>
      </trkpt>
      <trkpt lat="43.36529" lon="6.00884">
        <ele>557</ele>
        <time>2019-12-17T11:09:33.000Z</time>
      </trkpt>
      <trkpt lat="43.36528" lon="6.00883">
        <ele>557</ele>
        <time>2019-12-17T11:09:34.000Z</time>
      </trkpt>
      <trkpt lat="43.36527" lon="6.00883">
        <ele>557</ele>
        <time>2019-12-17T11:09:35.000Z</time>
      </trkpt>
      <trkpt lat="43.36526" lon="6.00882">
        <ele>557</ele>
        <time>2019-12-17T11:09:36.000Z</time>
      </trkpt>
      <trkpt lat="43.36525" lon="6.00882">
        <ele>557</ele>
        <time>2019-12-17T11:09:37.000Z</time>
      </trkpt>
      <trkpt lat="43.36524" lon="6.00881">
        <ele>557</ele>
        <time>2019-12-17T11:09:38.000Z</time>
      </trkpt>
      <trkpt lat="43.36523" lon="6.0088">
        <ele>557</ele>
        <time>2019-12-17T11:09:39.000Z</time>
      </trkpt>
      <trkpt lat="43.36522" lon="6.00879">
        <ele>557</ele>
        <time>2019-12-17T11:09:40.000Z</time>
      </trkpt>
      <trkpt lat="43.36521" lon="6.00878">
        <ele>556</ele>
        <time>2019-12-17T11:09:41.000Z</time>
      </trkpt>
      <trkpt lat="43.3652" lon="6.00877">
        <ele>556</ele>
        <time>2019-12-17T11:09:42.000Z</time>
      </trkpt>
      <trkpt lat="43.36519" lon="6.00875">
        <ele>556</ele>
        <time>2019-12-17T11:09:43.000Z</time>
      </trkpt>
      <trkpt lat="43.36519" lon="6.00874">
        <ele>556</ele>
        <time>2019-12-17T11:09:44.000Z</time>
      </trkpt>
      <trkpt lat="43.36518" lon="6.00873">
        <ele>555</ele>
        <time>2019-12-17T11:09:45.000Z</time>
      </trkpt>
      <trkpt lat="43.36517" lon="6.00871">
        <ele>555</ele>
        <time>2019-12-17T11:09:46.000Z</time>
      </trkpt>
      <trkpt lat="43.36517" lon="6.0087">
        <ele>555</ele>
        <time>2019-12-17T11:09:47.000Z</time>
      </trkpt>
      <trkpt lat="43.36516" lon="6.00869">
        <ele>555</ele>
        <time>2019-12-17T11:09:48.000Z</time>
      </trkpt>
      <trkpt lat="43.36516" lon="6.00867">
        <ele>554</ele>
        <time>2019-12-17T11:09:49.000Z</time>
      </trkpt>
      <trkpt lat="43.36515" lon="6.00865">
        <ele>554</ele>
        <time>2019-12-17T11:09:50.000Z</time>
      </trkpt>
      <trkpt lat="43.36515" lon="6.00864">
        <ele>554</ele>
        <time>2019-12-17T11:09:51.000Z</time>
      </trkpt>
      <trkpt lat="43.36514" lon="6.00863">
        <ele>554</ele>
        <time>2019-12-17T11:09:52.000Z</time>
      </trkpt>
      <trkpt lat="43.36514" lon="6.00862">
        <ele>554</ele>
        <time>2019-12-17T11:09:53.000Z</time>
      </trkpt>
      <trkpt lat="43.36513" lon="6.00861">
        <ele>554</ele>
        <time>2019-12-17T11:09:54.000Z</time>
      </trkpt>
      <trkpt lat="43.36513" lon="6.00861">
        <ele>553</ele>
        <time>2019-12-17T11:09:55.000Z</time>
      </trkpt>
      <trkpt lat="43.36513" lon="6.0086">
        <ele>553</ele>
        <time>2019-12-17T11:09:56.000Z</time>
      </trkpt>
      <trkpt lat="43.36513" lon="6.00858">
        <ele>553</ele>
        <time>2019-12-17T11:09:57.000Z</time>
      </trkpt>
      <trkpt lat="43.36513" lon="6.00856">
        <ele>553</ele>
        <time>2019-12-17T11:09:58.000Z</time>
      </trkpt>
      <trkpt lat="43.36514" lon="6.00855">
        <ele>553</ele>
        <time>2019-12-17T11:09:59.000Z</time>
      </trkpt>
      <trkpt lat="43.36514" lon="6.00855">
        <ele>553</ele>
        <time>2019-12-17T11:10:00.000Z</time>
      </trkpt>
      <trkpt lat="43.36514" lon="6.00855">
        <ele>553</ele>
        <time>2019-12-17T11:10:01.000Z</time>
      </trkpt>
      <trkpt lat="43.36514" lon="6.00855">
        <ele>553</ele>
        <time>2019-12-17T11:10:02.000Z</time>
      </trkpt>
      <trkpt lat="43.36514" lon="6.00854">
        <ele>553</ele>
        <time>2019-12-17T11:10:03.000Z</time>
      </trkpt>
      <trkpt lat="43.36514" lon="6.00854">
        <ele>553</ele>
        <time>2019-12-17T11:10:04.000Z</time>
      </trkpt>
      <trkpt lat="43.36514" lon="6.00854">
        <ele>553</ele>
        <time>2019-12-17T11:10:05.000Z</time>
      </trkpt>
      <trkpt lat="43.36514" lon="6.00854">
        <ele>553</ele>
        <time>2019-12-17T11:10:06.000Z</time>
      </trkpt>
      <trkpt lat="43.36514" lon="6.00854">
        <ele>553</ele>
        <time>2019-12-17T11:10:07.000Z</time>
      </trkpt>
      <trkpt lat="43.36514" lon="6.00854">
        <ele>553</ele>
        <time>2019-12-17T11:10:08.000Z</time>
      </trkpt>
      <trkpt lat="43.36514" lon="6.00853">
        <ele>553</ele>
        <time>2019-12-17T11:10:09.000Z</time>
      </trkpt>
      <trkpt lat="43.36513" lon="6.00853">
        <ele>553</ele>
        <time>2019-12-17T11:10:10.000Z</time>
      </trkpt>
      <trkpt lat="43.36512" lon="6.00852">
        <ele>553</ele>
        <time>2019-12-17T11:10:11.000Z</time>
      </trkpt>
      <trkpt lat="43.36512" lon="6.00852">
        <ele>553</ele>
        <time>2019-12-17T11:10:12.000Z</time>
      </trkpt>
      <trkpt lat="43.36511" lon="6.00851">
        <ele>552</ele>
        <time>2019-12-17T11:10:13.000Z</time>
      </trkpt>
      <trkpt lat="43.3651" lon="6.0085">
        <ele>552</ele>
        <time>2019-12-17T11:10:14.000Z</time>
      </trkpt>
      <trkpt lat="43.3651" lon="6.00849">
        <ele>552</ele>
        <time>2019-12-17T11:10:15.000Z</time>
      </trkpt>
      <trkpt lat="43.36509" lon="6.00848">
        <ele>552</ele>
        <time>2019-12-17T11:10:16.000Z</time>
      </trkpt>
      <trkpt lat="43.36509" lon="6.00847">
        <ele>552</ele>
        <time>2019-12-17T11:10:17.000Z</time>
      </trkpt>
      <trkpt lat="43.36508" lon="6.00846">
        <ele>552</ele>
        <time>2019-12-17T11:10:18.000Z</time>
      </trkpt>
      <trkpt lat="43.36508" lon="6.00846">
        <ele>552</ele>
        <time>2019-12-17T11:10:19.000Z</time>
      </trkpt>
      <trkpt lat="43.36508" lon="6.00846">
        <ele>552</ele>
        <time>2019-12-17T11:10:22.000Z</time>
      </trkpt>
      <trkpt lat="43.36508" lon="6.00846">
        <ele>552</ele>
        <time>2019-12-17T11:10:23.000Z</time>
      </trkpt>
      <trkpt lat="43.36506" lon="6.00846">
        <ele>552</ele>
        <time>2019-12-17T11:10:24.000Z</time>
      </trkpt>
      <trkpt lat="43.36506" lon="6.00845">
        <ele>551</ele>
        <time>2019-12-17T11:10:25.000Z</time>
      </trkpt>
      <trkpt lat="43.36506" lon="6.00844">
        <ele>551</ele>
        <time>2019-12-17T11:10:26.000Z</time>
      </trkpt>
      <trkpt lat="43.36505" lon="6.00844">
        <ele>551</ele>
        <time>2019-12-17T11:10:27.000Z</time>
      </trkpt>
      <trkpt lat="43.36505" lon="6.00844">
        <ele>551</ele>
        <time>2019-12-17T11:10:28.000Z</time>
      </trkpt>
      <trkpt lat="43.36504" lon="6.00843">
        <ele>551</ele>
        <time>2019-12-17T11:10:29.000Z</time>
      </trkpt>
      <trkpt lat="43.36503" lon="6.00843">
        <ele>551</ele>
        <time>2019-12-17T11:10:30.000Z</time>
      </trkpt>
      <trkpt lat="43.36503" lon="6.00843">
        <ele>550</ele>
        <time>2019-12-17T11:10:31.000Z</time>
      </trkpt>
      <trkpt lat="43.36502" lon="6.00842">
        <ele>550</ele>
        <time>2019-12-17T11:10:32.000Z</time>
      </trkpt>
      <trkpt lat="43.36502" lon="6.00841">
        <ele>550</ele>
        <time>2019-12-17T11:10:33.000Z</time>
      </trkpt>
      <trkpt lat="43.36502" lon="6.0084">
        <ele>550</ele>
        <time>2019-12-17T11:10:34.000Z</time>
      </trkpt>
      <trkpt lat="43.36502" lon="6.00838">
        <ele>550</ele>
        <time>2019-12-17T11:10:35.000Z</time>
      </trkpt>
      <trkpt lat="43.36502" lon="6.00836">
        <ele>550</ele>
        <time>2019-12-17T11:10:36.000Z</time>
      </trkpt>
      <trkpt lat="43.36503" lon="6.00834">
        <ele>550</ele>
        <time>2019-12-17T11:10:37.000Z</time>
      </trkpt>
      <trkpt lat="43.36503" lon="6.00832">
        <ele>550</ele>
        <time>2019-12-17T11:10:38.000Z</time>
      </trkpt>
      <trkpt lat="43.36504" lon="6.0083">
        <ele>550</ele>
        <time>2019-12-17T11:10:39.000Z</time>
      </trkpt>
      <trkpt lat="43.36505" lon="6.00827">
        <ele>550</ele>
        <time>2019-12-17T11:10:40.000Z</time>
      </trkpt>
      <trkpt lat="43.36506" lon="6.00825">
        <ele>550</ele>
        <time>2019-12-17T11:10:41.000Z</time>
      </trkpt>
      <trkpt lat="43.36506" lon="6.00823">
        <ele>550</ele>
        <time>2019-12-17T11:10:42.000Z</time>
      </trkpt>
      <trkpt lat="43.36507" lon="6.00821">
        <ele>550</ele>
        <time>2019-12-17T11:10:43.000Z</time>
      </trkpt>
      <trkpt lat="43.36508" lon="6.00819">
        <ele>550</ele>
        <time>2019-12-17T11:10:44.000Z</time>
      </trkpt>
      <trkpt lat="43.36508" lon="6.00817">
        <ele>550</ele>
        <time>2019-12-17T11:10:45.000Z</time>
      </trkpt>
      <trkpt lat="43.36509" lon="6.00815">
        <ele>549</ele>
        <time>2019-12-17T11:10:46.000Z</time>
      </trkpt>
      <trkpt lat="43.3651" lon="6.00812">
        <ele>549</ele>
        <time>2019-12-17T11:10:47.000Z</time>
      </trkpt>
      <trkpt lat="43.36511" lon="6.0081">
        <ele>549</ele>
        <time>2019-12-17T11:10:48.000Z</time>
      </trkpt>
      <trkpt lat="43.36511" lon="6.00808">
        <ele>548</ele>
        <time>2019-12-17T11:10:49.000Z</time>
      </trkpt>
      <trkpt lat="43.36512" lon="6.00806">
        <ele>548</ele>
        <time>2019-12-17T11:10:50.000Z</time>
      </trkpt>
      <trkpt lat="43.36512" lon="6.00803">
        <ele>548</ele>
        <time>2019-12-17T11:10:51.000Z</time>
      </trkpt>
      <trkpt lat="43.36513" lon="6.00801">
        <ele>548</ele>
        <time>2019-12-17T11:10:52.000Z</time>
      </trkpt>
      <trkpt lat="43.36514" lon="6.008">
        <ele>547</ele>
        <time>2019-12-17T11:10:53.000Z</time>
      </trkpt>
      <trkpt lat="43.36514" lon="6.00798">
        <ele>547</ele>
        <time>2019-12-17T11:10:54.000Z</time>
      </trkpt>
      <trkpt lat="43.36514" lon="6.00796">
        <ele>547</ele>
        <time>2019-12-17T11:10:55.000Z</time>
      </trkpt>
      <trkpt lat="43.36514" lon="6.00794">
        <ele>547</ele>
        <time>2019-12-17T11:10:56.000Z</time>
      </trkpt>
      <trkpt lat="43.36515" lon="6.00793">
        <ele>547</ele>
        <time>2019-12-17T11:10:57.000Z</time>
      </trkpt>
      <trkpt lat="43.36515" lon="6.00791">
        <ele>547</ele>
        <time>2019-12-17T11:10:58.000Z</time>
      </trkpt>
      <trkpt lat="43.36515" lon="6.0079">
        <ele>546</ele>
        <time>2019-12-17T11:10:59.000Z</time>
      </trkpt>
      <trkpt lat="43.36516" lon="6.00788">
        <ele>546</ele>
        <time>2019-12-17T11:11:00.000Z</time>
      </trkpt>
      <trkpt lat="43.36517" lon="6.00786">
        <ele>546</ele>
        <time>2019-12-17T11:11:01.000Z</time>
      </trkpt>
      <trkpt lat="43.36518" lon="6.00784">
        <ele>546</ele>
        <time>2019-12-17T11:11:02.000Z</time>
      </trkpt>
      <trkpt lat="43.36518" lon="6.00783">
        <ele>546</ele>
        <time>2019-12-17T11:11:03.000Z</time>
      </trkpt>
      <trkpt lat="43.36519" lon="6.00782">
        <ele>546</ele>
        <time>2019-12-17T11:11:04.000Z</time>
      </trkpt>
      <trkpt lat="43.36519" lon="6.00782">
        <ele>546</ele>
        <time>2019-12-17T11:11:05.000Z</time>
      </trkpt>
      <trkpt lat="43.36519" lon="6.00781">
        <ele>546</ele>
        <time>2019-12-17T11:11:06.000Z</time>
      </trkpt>
      <trkpt lat="43.36518" lon="6.0078">
        <ele>546</ele>
        <time>2019-12-17T11:11:07.000Z</time>
      </trkpt>
      <trkpt lat="43.36518" lon="6.00779">
        <ele>546</ele>
        <time>2019-12-17T11:11:08.000Z</time>
      </trkpt>
      <trkpt lat="43.36518" lon="6.00778">
        <ele>546</ele>
        <time>2019-12-17T11:11:09.000Z</time>
      </trkpt>
      <trkpt lat="43.36518" lon="6.00776">
        <ele>546</ele>
        <time>2019-12-17T11:11:10.000Z</time>
      </trkpt>
      <trkpt lat="43.36518" lon="6.00774">
        <ele>546</ele>
        <time>2019-12-17T11:11:11.000Z</time>
      </trkpt>
      <trkpt lat="43.36518" lon="6.00773">
        <ele>546</ele>
        <time>2019-12-17T11:11:12.000Z</time>
      </trkpt>
      <trkpt lat="43.36518" lon="6.00772">
        <ele>546</ele>
        <time>2019-12-17T11:11:13.000Z</time>
      </trkpt>
      <trkpt lat="43.36518" lon="6.00771">
        <ele>546</ele>
        <time>2019-12-17T11:11:14.000Z</time>
      </trkpt>
      <trkpt lat="43.36518" lon="6.0077">
        <ele>546</ele>
        <time>2019-12-17T11:11:15.000Z</time>
      </trkpt>
      <trkpt lat="43.36518" lon="6.0077">
        <ele>546</ele>
        <time>2019-12-17T11:11:16.000Z</time>
      </trkpt>
      <trkpt lat="43.36519" lon="6.0077">
        <ele>546</ele>
        <time>2019-12-17T11:11:17.000Z</time>
      </trkpt>
      <trkpt lat="43.36519" lon="6.0077">
        <ele>546</ele>
        <time>2019-12-17T11:11:18.000Z</time>
      </trkpt>
      <trkpt lat="43.36519" lon="6.00769">
        <ele>546</ele>
        <time>2019-12-17T11:11:19.000Z</time>
      </trkpt>
      <trkpt lat="43.36519" lon="6.00769">
        <ele>547</ele>
        <time>2019-12-17T11:11:20.000Z</time>
      </trkpt>
      <trkpt lat="43.36518" lon="6.00769">
        <ele>547</ele>
        <time>2019-12-17T11:11:21.000Z</time>
      </trkpt>
      <trkpt lat="43.36518" lon="6.00768">
        <ele>547</ele>
        <time>2019-12-17T11:11:22.000Z</time>
      </trkpt>
      <trkpt lat="43.36518" lon="6.00768">
        <ele>547</ele>
        <time>2019-12-17T11:11:23.000Z</time>
      </trkpt>
      <trkpt lat="43.36518" lon="6.00767">
        <ele>547</ele>
        <time>2019-12-17T11:11:24.000Z</time>
      </trkpt>
      <trkpt lat="43.36517" lon="6.00766">
        <ele>546</ele>
        <time>2019-12-17T11:11:25.000Z</time>
      </trkpt>
      <trkpt lat="43.36517" lon="6.00765">
        <ele>546</ele>
        <time>2019-12-17T11:11:26.000Z</time>
      </trkpt>
      <trkpt lat="43.36517" lon="6.00764">
        <ele>546</ele>
        <time>2019-12-17T11:11:27.000Z</time>
      </trkpt>
      <trkpt lat="43.36517" lon="6.00762">
        <ele>546</ele>
        <time>2019-12-17T11:11:28.000Z</time>
      </trkpt>
      <trkpt lat="43.36516" lon="6.00761">
        <ele>546</ele>
        <time>2019-12-17T11:11:29.000Z</time>
      </trkpt>
      <trkpt lat="43.36517" lon="6.0076">
        <ele>546</ele>
        <time>2019-12-17T11:11:30.000Z</time>
      </trkpt>
      <trkpt lat="43.36517" lon="6.00759">
        <ele>546</ele>
        <time>2019-12-17T11:11:31.000Z</time>
      </trkpt>
      <trkpt lat="43.36517" lon="6.00758">
        <ele>546</ele>
        <time>2019-12-17T11:11:32.000Z</time>
      </trkpt>
      <trkpt lat="43.36517" lon="6.00757">
        <ele>546</ele>
        <time>2019-12-17T11:11:33.000Z</time>
      </trkpt>
      <trkpt lat="43.36518" lon="6.00756">
        <ele>546</ele>
        <time>2019-12-17T11:11:34.000Z</time>
      </trkpt>
      <trkpt lat="43.36518" lon="6.00755">
        <ele>546</ele>
        <time>2019-12-17T11:11:35.000Z</time>
      </trkpt>
      <trkpt lat="43.36519" lon="6.00754">
        <ele>546</ele>
        <time>2019-12-17T11:11:36.000Z</time>
      </trkpt>
      <trkpt lat="43.36519" lon="6.00753">
        <ele>546</ele>
        <time>2019-12-17T11:11:37.000Z</time>
      </trkpt>
      <trkpt lat="43.36519" lon="6.00751">
        <ele>546</ele>
        <time>2019-12-17T11:11:38.000Z</time>
      </trkpt>
      <trkpt lat="43.3652" lon="6.0075">
        <ele>546</ele>
        <time>2019-12-17T11:11:39.000Z</time>
      </trkpt>
      <trkpt lat="43.3652" lon="6.00749">
        <ele>546</ele>
        <time>2019-12-17T11:11:40.000Z</time>
      </trkpt>
      <trkpt lat="43.3652" lon="6.00748">
        <ele>546</ele>
        <time>2019-12-17T11:11:41.000Z</time>
      </trkpt>
      <trkpt lat="43.3652" lon="6.00746">
        <ele>546</ele>
        <time>2019-12-17T11:11:42.000Z</time>
      </trkpt>
      <trkpt lat="43.3652" lon="6.00745">
        <ele>546</ele>
        <time>2019-12-17T11:11:43.000Z</time>
      </trkpt>
      <trkpt lat="43.3652" lon="6.00743">
        <ele>546</ele>
        <time>2019-12-17T11:11:44.000Z</time>
      </trkpt>
      <trkpt lat="43.36521" lon="6.00742">
        <ele>546</ele>
        <time>2019-12-17T11:11:45.000Z</time>
      </trkpt>
      <trkpt lat="43.36521" lon="6.0074">
        <ele>546</ele>
        <time>2019-12-17T11:11:46.000Z</time>
      </trkpt>
      <trkpt lat="43.36521" lon="6.00739">
        <ele>546</ele>
        <time>2019-12-17T11:11:47.000Z</time>
      </trkpt>
      <trkpt lat="43.36521" lon="6.00737">
        <ele>546</ele>
        <time>2019-12-17T11:11:48.000Z</time>
      </trkpt>
      <trkpt lat="43.3652" lon="6.00736">
        <ele>546</ele>
        <time>2019-12-17T11:11:49.000Z</time>
      </trkpt>
      <trkpt lat="43.3652" lon="6.00734">
        <ele>546</ele>
        <time>2019-12-17T11:11:50.000Z</time>
      </trkpt>
      <trkpt lat="43.36521" lon="6.00733">
        <ele>546</ele>
        <time>2019-12-17T11:11:51.000Z</time>
      </trkpt>
      <trkpt lat="43.36521" lon="6.00731">
        <ele>546</ele>
        <time>2019-12-17T11:11:52.000Z</time>
      </trkpt>
      <trkpt lat="43.36521" lon="6.00729">
        <ele>546</ele>
        <time>2019-12-17T11:11:53.000Z</time>
      </trkpt>
      <trkpt lat="43.36522" lon="6.00727">
        <ele>546</ele>
        <time>2019-12-17T11:11:54.000Z</time>
      </trkpt>
      <trkpt lat="43.36522" lon="6.00725">
        <ele>546</ele>
        <time>2019-12-17T11:11:55.000Z</time>
      </trkpt>
      <trkpt lat="43.36522" lon="6.00723">
        <ele>546</ele>
        <time>2019-12-17T11:11:56.000Z</time>
      </trkpt>
      <trkpt lat="43.36523" lon="6.00721">
        <ele>546</ele>
        <time>2019-12-17T11:11:57.000Z</time>
      </trkpt>
      <trkpt lat="43.36523" lon="6.0072">
        <ele>545</ele>
        <time>2019-12-17T11:11:58.000Z</time>
      </trkpt>
      <trkpt lat="43.36524" lon="6.00718">
        <ele>545</ele>
        <time>2019-12-17T11:11:59.000Z</time>
      </trkpt>
      <trkpt lat="43.36524" lon="6.00717">
        <ele>545</ele>
        <time>2019-12-17T11:12:00.000Z</time>
      </trkpt>
      <trkpt lat="43.36524" lon="6.00715">
        <ele>545</ele>
        <time>2019-12-17T11:12:01.000Z</time>
      </trkpt>
      <trkpt lat="43.36524" lon="6.00714">
        <ele>545</ele>
        <time>2019-12-17T11:12:02.000Z</time>
      </trkpt>
      <trkpt lat="43.36525" lon="6.00712">
        <ele>545</ele>
        <time>2019-12-17T11:12:03.000Z</time>
      </trkpt>
      <trkpt lat="43.36525" lon="6.0071">
        <ele>545</ele>
        <time>2019-12-17T11:12:04.000Z</time>
      </trkpt>
      <trkpt lat="43.36525" lon="6.00709">
        <ele>545</ele>
        <time>2019-12-17T11:12:05.000Z</time>
      </trkpt>
      <trkpt lat="43.36525" lon="6.00707">
        <ele>545</ele>
        <time>2019-12-17T11:12:06.000Z</time>
      </trkpt>
      <trkpt lat="43.36526" lon="6.00705">
        <ele>545</ele>
        <time>2019-12-17T11:12:07.000Z</time>
      </trkpt>
      <trkpt lat="43.36525" lon="6.00704">
        <ele>545</ele>
        <time>2019-12-17T11:12:08.000Z</time>
      </trkpt>
      <trkpt lat="43.36525" lon="6.00702">
        <ele>545</ele>
        <time>2019-12-17T11:12:09.000Z</time>
      </trkpt>
      <trkpt lat="43.36524" lon="6.00701">
        <ele>544</ele>
        <time>2019-12-17T11:12:10.000Z</time>
      </trkpt>
      <trkpt lat="43.36524" lon="6.00699">
        <ele>544</ele>
        <time>2019-12-17T11:12:11.000Z</time>
      </trkpt>
      <trkpt lat="43.36523" lon="6.00698">
        <ele>544</ele>
        <time>2019-12-17T11:12:12.000Z</time>
      </trkpt>
      <trkpt lat="43.36523" lon="6.00696">
        <ele>544</ele>
        <time>2019-12-17T11:12:13.000Z</time>
      </trkpt>
      <trkpt lat="43.36522" lon="6.00695">
        <ele>544</ele>
        <time>2019-12-17T11:12:14.000Z</time>
      </trkpt>
      <trkpt lat="43.36521" lon="6.00694">
        <ele>544</ele>
        <time>2019-12-17T11:12:15.000Z</time>
      </trkpt>
      <trkpt lat="43.36521" lon="6.00693">
        <ele>545</ele>
        <time>2019-12-17T11:12:16.000Z</time>
      </trkpt>
      <trkpt lat="43.3652" lon="6.00692">
        <ele>545</ele>
        <time>2019-12-17T11:12:17.000Z</time>
      </trkpt>
      <trkpt lat="43.36519" lon="6.00691">
        <ele>545</ele>
        <time>2019-12-17T11:12:18.000Z</time>
      </trkpt>
      <trkpt lat="43.36518" lon="6.00689">
        <ele>545</ele>
        <time>2019-12-17T11:12:19.000Z</time>
      </trkpt>
      <trkpt lat="43.36517" lon="6.00688">
        <ele>545</ele>
        <time>2019-12-17T11:12:20.000Z</time>
      </trkpt>
      <trkpt lat="43.36516" lon="6.00687">
        <ele>545</ele>
        <time>2019-12-17T11:12:21.000Z</time>
      </trkpt>
      <trkpt lat="43.36515" lon="6.00686">
        <ele>545</ele>
        <time>2019-12-17T11:12:22.000Z</time>
      </trkpt>
      <trkpt lat="43.36515" lon="6.00686">
        <ele>545</ele>
        <time>2019-12-17T11:12:23.000Z</time>
      </trkpt>
      <trkpt lat="43.36514" lon="6.00685">
        <ele>545</ele>
        <time>2019-12-17T11:12:24.000Z</time>
      </trkpt>
      <trkpt lat="43.36513" lon="6.00684">
        <ele>545</ele>
        <time>2019-12-17T11:12:25.000Z</time>
      </trkpt>
      <trkpt lat="43.36512" lon="6.00683">
        <ele>545</ele>
        <time>2019-12-17T11:12:26.000Z</time>
      </trkpt>
      <trkpt lat="43.36511" lon="6.00682">
        <ele>545</ele>
        <time>2019-12-17T11:12:27.000Z</time>
      </trkpt>
      <trkpt lat="43.3651" lon="6.00682">
        <ele>545</ele>
        <time>2019-12-17T11:12:28.000Z</time>
      </trkpt>
      <trkpt lat="43.36509" lon="6.00682">
        <ele>545</ele>
        <time>2019-12-17T11:12:29.000Z</time>
      </trkpt>
      <trkpt lat="43.36508" lon="6.00682">
        <ele>545</ele>
        <time>2019-12-17T11:12:30.000Z</time>
      </trkpt>
      <trkpt lat="43.36507" lon="6.00681">
        <ele>545</ele>
        <time>2019-12-17T11:12:31.000Z</time>
      </trkpt>
      <trkpt lat="43.36506" lon="6.0068">
        <ele>545</ele>
        <time>2019-12-17T11:12:32.000Z</time>
      </trkpt>
      <trkpt lat="43.36504" lon="6.0068">
        <ele>545</ele>
        <time>2019-12-17T11:12:33.000Z</time>
      </trkpt>
      <trkpt lat="43.36503" lon="6.00679">
        <ele>545</ele>
        <time>2019-12-17T11:12:34.000Z</time>
      </trkpt>
      <trkpt lat="43.36502" lon="6.00679">
        <ele>545</ele>
        <time>2019-12-17T11:12:35.000Z</time>
      </trkpt>
      <trkpt lat="43.36502" lon="6.00678">
        <ele>545</ele>
        <time>2019-12-17T11:12:36.000Z</time>
      </trkpt>
      <trkpt lat="43.36501" lon="6.00677">
        <ele>545</ele>
        <time>2019-12-17T11:12:37.000Z</time>
      </trkpt>
      <trkpt lat="43.365" lon="6.00676">
        <ele>545</ele>
        <time>2019-12-17T11:12:38.000Z</time>
      </trkpt>
      <trkpt lat="43.365" lon="6.00675">
        <ele>545</ele>
        <time>2019-12-17T11:12:39.000Z</time>
      </trkpt>
      <trkpt lat="43.36499" lon="6.00674">
        <ele>545</ele>
        <time>2019-12-17T11:12:40.000Z</time>
      </trkpt>
      <trkpt lat="43.36498" lon="6.00673">
        <ele>545</ele>
        <time>2019-12-17T11:12:41.000Z</time>
      </trkpt>
      <trkpt lat="43.36497" lon="6.00672">
        <ele>545</ele>
        <time>2019-12-17T11:12:42.000Z</time>
      </trkpt>
      <trkpt lat="43.36496" lon="6.00671">
        <ele>545</ele>
        <time>2019-12-17T11:12:43.000Z</time>
      </trkpt>
      <trkpt lat="43.36496" lon="6.0067">
        <ele>544</ele>
        <time>2019-12-17T11:12:44.000Z</time>
      </trkpt>
      <trkpt lat="43.36495" lon="6.00669">
        <ele>544</ele>
        <time>2019-12-17T11:12:45.000Z</time>
      </trkpt>
      <trkpt lat="43.36494" lon="6.00668">
        <ele>544</ele>
        <time>2019-12-17T11:12:46.000Z</time>
      </trkpt>
      <trkpt lat="43.36494" lon="6.00666">
        <ele>544</ele>
        <time>2019-12-17T11:12:47.000Z</time>
      </trkpt>
      <trkpt lat="43.36493" lon="6.00665">
        <ele>544</ele>
        <time>2019-12-17T11:12:48.000Z</time>
      </trkpt>
      <trkpt lat="43.36493" lon="6.00663">
        <ele>544</ele>
        <time>2019-12-17T11:12:49.000Z</time>
      </trkpt>
      <trkpt lat="43.36492" lon="6.00661">
        <ele>544</ele>
        <time>2019-12-17T11:12:50.000Z</time>
      </trkpt>
      <trkpt lat="43.36492" lon="6.0066">
        <ele>544</ele>
        <time>2019-12-17T11:12:51.000Z</time>
      </trkpt>
      <trkpt lat="43.36492" lon="6.00658">
        <ele>544</ele>
        <time>2019-12-17T11:12:52.000Z</time>
      </trkpt>
      <trkpt lat="43.36492" lon="6.00656">
        <ele>544</ele>
        <time>2019-12-17T11:12:53.000Z</time>
      </trkpt>
      <trkpt lat="43.36492" lon="6.00654">
        <ele>543</ele>
        <time>2019-12-17T11:12:54.000Z</time>
      </trkpt>
      <trkpt lat="43.36492" lon="6.00652">
        <ele>543</ele>
        <time>2019-12-17T11:12:55.000Z</time>
      </trkpt>
      <trkpt lat="43.36492" lon="6.0065">
        <ele>543</ele>
        <time>2019-12-17T11:12:56.000Z</time>
      </trkpt>
      <trkpt lat="43.36493" lon="6.00648">
        <ele>543</ele>
        <time>2019-12-17T11:12:57.000Z</time>
      </trkpt>
      <trkpt lat="43.36493" lon="6.00646">
        <ele>543</ele>
        <time>2019-12-17T11:12:58.000Z</time>
      </trkpt>
      <trkpt lat="43.36493" lon="6.00644">
        <ele>543</ele>
        <time>2019-12-17T11:12:59.000Z</time>
      </trkpt>
      <trkpt lat="43.36493" lon="6.00642">
        <ele>543</ele>
        <time>2019-12-17T11:13:00.000Z</time>
      </trkpt>
      <trkpt lat="43.36493" lon="6.00641">
        <ele>543</ele>
        <time>2019-12-17T11:13:01.000Z</time>
      </trkpt>
      <trkpt lat="43.36493" lon="6.00639">
        <ele>543</ele>
        <time>2019-12-17T11:13:02.000Z</time>
      </trkpt>
      <trkpt lat="43.36493" lon="6.00638">
        <ele>543</ele>
        <time>2019-12-17T11:13:03.000Z</time>
      </trkpt>
      <trkpt lat="43.36493" lon="6.00637">
        <ele>543</ele>
        <time>2019-12-17T11:13:04.000Z</time>
      </trkpt>
      <trkpt lat="43.36493" lon="6.00635">
        <ele>543</ele>
        <time>2019-12-17T11:13:05.000Z</time>
      </trkpt>
      <trkpt lat="43.36493" lon="6.00634">
        <ele>543</ele>
        <time>2019-12-17T11:13:06.000Z</time>
      </trkpt>
      <trkpt lat="43.36493" lon="6.00633">
        <ele>543</ele>
        <time>2019-12-17T11:13:07.000Z</time>
      </trkpt>
      <trkpt lat="43.36493" lon="6.00633">
        <ele>543</ele>
        <time>2019-12-17T11:13:08.000Z</time>
      </trkpt>
      <trkpt lat="43.36492" lon="6.00632">
        <ele>543</ele>
        <time>2019-12-17T11:13:09.000Z</time>
      </trkpt>
      <trkpt lat="43.36492" lon="6.00631">
        <ele>543</ele>
        <time>2019-12-17T11:13:10.000Z</time>
      </trkpt>
      <trkpt lat="43.36491" lon="6.0063">
        <ele>543</ele>
        <time>2019-12-17T11:13:11.000Z</time>
      </trkpt>
      <trkpt lat="43.36491" lon="6.00629">
        <ele>543</ele>
        <time>2019-12-17T11:13:12.000Z</time>
      </trkpt>
      <trkpt lat="43.36491" lon="6.00629">
        <ele>543</ele>
        <time>2019-12-17T11:13:13.000Z</time>
      </trkpt>
      <trkpt lat="43.36491" lon="6.00628">
        <ele>543</ele>
        <time>2019-12-17T11:13:14.000Z</time>
      </trkpt>
      <trkpt lat="43.3649" lon="6.00627">
        <ele>543</ele>
        <time>2019-12-17T11:13:15.000Z</time>
      </trkpt>
      <trkpt lat="43.36489" lon="6.00627">
        <ele>543</ele>
        <time>2019-12-17T11:13:16.000Z</time>
      </trkpt>
      <trkpt lat="43.36488" lon="6.00626">
        <ele>543</ele>
        <time>2019-12-17T11:13:17.000Z</time>
      </trkpt>
      <trkpt lat="43.36487" lon="6.00625">
        <ele>543</ele>
        <time>2019-12-17T11:13:18.000Z</time>
      </trkpt>
      <trkpt lat="43.36486" lon="6.00624">
        <ele>543</ele>
        <time>2019-12-17T11:13:19.000Z</time>
      </trkpt>
      <trkpt lat="43.36485" lon="6.00624">
        <ele>543</ele>
        <time>2019-12-17T11:13:20.000Z</time>
      </trkpt>
      <trkpt lat="43.36484" lon="6.00623">
        <ele>543</ele>
        <time>2019-12-17T11:13:21.000Z</time>
      </trkpt>
      <trkpt lat="43.36483" lon="6.00621">
        <ele>543</ele>
        <time>2019-12-17T11:13:22.000Z</time>
      </trkpt>
      <trkpt lat="43.36483" lon="6.0062">
        <ele>543</ele>
        <time>2019-12-17T11:13:23.000Z</time>
      </trkpt>
      <trkpt lat="43.36482" lon="6.00619">
        <ele>543</ele>
        <time>2019-12-17T11:13:24.000Z</time>
      </trkpt>
      <trkpt lat="43.36481" lon="6.00618">
        <ele>543</ele>
        <time>2019-12-17T11:13:25.000Z</time>
      </trkpt>
      <trkpt lat="43.36481" lon="6.00617">
        <ele>543</ele>
        <time>2019-12-17T11:13:26.000Z</time>
      </trkpt>
      <trkpt lat="43.3648" lon="6.00616">
        <ele>543</ele>
        <time>2019-12-17T11:13:27.000Z</time>
      </trkpt>
      <trkpt lat="43.36479" lon="6.00616">
        <ele>543</ele>
        <time>2019-12-17T11:13:28.000Z</time>
      </trkpt>
      <trkpt lat="43.36477" lon="6.00615">
        <ele>543</ele>
        <time>2019-12-17T11:13:29.000Z</time>
      </trkpt>
      <trkpt lat="43.36476" lon="6.00615">
        <ele>543</ele>
        <time>2019-12-17T11:13:30.000Z</time>
      </trkpt>
      <trkpt lat="43.36475" lon="6.00614">
        <ele>543</ele>
        <time>2019-12-17T11:13:31.000Z</time>
      </trkpt>
      <trkpt lat="43.36475" lon="6.00613">
        <ele>543</ele>
        <time>2019-12-17T11:13:32.000Z</time>
      </trkpt>
      <trkpt lat="43.36474" lon="6.00612">
        <ele>543</ele>
        <time>2019-12-17T11:13:33.000Z</time>
      </trkpt>
      <trkpt lat="43.36473" lon="6.00611">
        <ele>543</ele>
        <time>2019-12-17T11:13:34.000Z</time>
      </trkpt>
      <trkpt lat="43.36472" lon="6.00609">
        <ele>543</ele>
        <time>2019-12-17T11:13:35.000Z</time>
      </trkpt>
      <trkpt lat="43.36472" lon="6.00608">
        <ele>543</ele>
        <time>2019-12-17T11:13:36.000Z</time>
      </trkpt>
      <trkpt lat="43.36471" lon="6.00607">
        <ele>543</ele>
        <time>2019-12-17T11:13:37.000Z</time>
      </trkpt>
      <trkpt lat="43.36471" lon="6.00606">
        <ele>543</ele>
        <time>2019-12-17T11:13:38.000Z</time>
      </trkpt>
      <trkpt lat="43.36471" lon="6.00604">
        <ele>543</ele>
        <time>2019-12-17T11:13:39.000Z</time>
      </trkpt>
      <trkpt lat="43.3647" lon="6.00602">
        <ele>543</ele>
        <time>2019-12-17T11:13:40.000Z</time>
      </trkpt>
      <trkpt lat="43.3647" lon="6.00601">
        <ele>543</ele>
        <time>2019-12-17T11:13:41.000Z</time>
      </trkpt>
      <trkpt lat="43.3647" lon="6.00599">
        <ele>543</ele>
        <time>2019-12-17T11:13:42.000Z</time>
      </trkpt>
      <trkpt lat="43.36469" lon="6.00598">
        <ele>543</ele>
        <time>2019-12-17T11:13:43.000Z</time>
      </trkpt>
      <trkpt lat="43.36469" lon="6.00596">
        <ele>543</ele>
        <time>2019-12-17T11:13:44.000Z</time>
      </trkpt>
      <trkpt lat="43.36468" lon="6.00594">
        <ele>543</ele>
        <time>2019-12-17T11:13:45.000Z</time>
      </trkpt>
      <trkpt lat="43.36468" lon="6.00593">
        <ele>543</ele>
        <time>2019-12-17T11:13:46.000Z</time>
      </trkpt>
      <trkpt lat="43.36467" lon="6.00591">
        <ele>543</ele>
        <time>2019-12-17T11:13:47.000Z</time>
      </trkpt>
      <trkpt lat="43.36467" lon="6.00589">
        <ele>543</ele>
        <time>2019-12-17T11:13:48.000Z</time>
      </trkpt>
      <trkpt lat="43.36467" lon="6.00588">
        <ele>543</ele>
        <time>2019-12-17T11:13:49.000Z</time>
      </trkpt>
      <trkpt lat="43.36466" lon="6.00586">
        <ele>543</ele>
        <time>2019-12-17T11:13:50.000Z</time>
      </trkpt>
      <trkpt lat="43.36466" lon="6.00585">
        <ele>543</ele>
        <time>2019-12-17T11:13:51.000Z</time>
      </trkpt>
      <trkpt lat="43.36466" lon="6.00584">
        <ele>543</ele>
        <time>2019-12-17T11:13:52.000Z</time>
      </trkpt>
      <trkpt lat="43.36466" lon="6.00582">
        <ele>543</ele>
        <time>2019-12-17T11:13:53.000Z</time>
      </trkpt>
      <trkpt lat="43.36466" lon="6.0058">
        <ele>543</ele>
        <time>2019-12-17T11:13:54.000Z</time>
      </trkpt>
      <trkpt lat="43.36466" lon="6.00579">
        <ele>543</ele>
        <time>2019-12-17T11:13:55.000Z</time>
      </trkpt>
      <trkpt lat="43.36466" lon="6.00577">
        <ele>543</ele>
        <time>2019-12-17T11:13:56.000Z</time>
      </trkpt>
      <trkpt lat="43.36467" lon="6.00575">
        <ele>543</ele>
        <time>2019-12-17T11:13:57.000Z</time>
      </trkpt>
      <trkpt lat="43.36467" lon="6.00574">
        <ele>543</ele>
        <time>2019-12-17T11:13:58.000Z</time>
      </trkpt>
      <trkpt lat="43.36468" lon="6.00573">
        <ele>543</ele>
        <time>2019-12-17T11:13:59.000Z</time>
      </trkpt>
      <trkpt lat="43.36468" lon="6.00572">
        <ele>543</ele>
        <time>2019-12-17T11:14:00.000Z</time>
      </trkpt>
      <trkpt lat="43.36469" lon="6.00571">
        <ele>543</ele>
        <time>2019-12-17T11:14:01.000Z</time>
      </trkpt>
      <trkpt lat="43.36469" lon="6.00569">
        <ele>543</ele>
        <time>2019-12-17T11:14:02.000Z</time>
      </trkpt>
      <trkpt lat="43.3647" lon="6.00568">
        <ele>543</ele>
        <time>2019-12-17T11:14:03.000Z</time>
      </trkpt>
      <trkpt lat="43.3647" lon="6.00567">
        <ele>543</ele>
        <time>2019-12-17T11:14:04.000Z</time>
      </trkpt>
      <trkpt lat="43.3647" lon="6.00566">
        <ele>543</ele>
        <time>2019-12-17T11:14:05.000Z</time>
      </trkpt>
      <trkpt lat="43.3647" lon="6.00565">
        <ele>543</ele>
        <time>2019-12-17T11:14:06.000Z</time>
      </trkpt>
      <trkpt lat="43.3647" lon="6.00564">
        <ele>543</ele>
        <time>2019-12-17T11:14:07.000Z</time>
      </trkpt>
      <trkpt lat="43.3647" lon="6.00563">
        <ele>543</ele>
        <time>2019-12-17T11:14:08.000Z</time>
      </trkpt>
      <trkpt lat="43.3647" lon="6.00562">
        <ele>543</ele>
        <time>2019-12-17T11:14:09.000Z</time>
      </trkpt>
      <trkpt lat="43.3647" lon="6.00561">
        <ele>543</ele>
        <time>2019-12-17T11:14:10.000Z</time>
      </trkpt>
      <trkpt lat="43.3647" lon="6.00559">
        <ele>543</ele>
        <time>2019-12-17T11:14:11.000Z</time>
      </trkpt>
      <trkpt lat="43.3647" lon="6.00558">
        <ele>543</ele>
        <time>2019-12-17T11:14:12.000Z</time>
      </trkpt>
      <trkpt lat="43.3647" lon="6.00556">
        <ele>543</ele>
        <time>2019-12-17T11:14:13.000Z</time>
      </trkpt>
      <trkpt lat="43.3647" lon="6.00555">
        <ele>543</ele>
        <time>2019-12-17T11:14:14.000Z</time>
      </trkpt>
      <trkpt lat="43.3647" lon="6.00553">
        <ele>543</ele>
        <time>2019-12-17T11:14:15.000Z</time>
      </trkpt>
      <trkpt lat="43.3647" lon="6.00551">
        <ele>543</ele>
        <time>2019-12-17T11:14:16.000Z</time>
      </trkpt>
      <trkpt lat="43.3647" lon="6.0055">
        <ele>543</ele>
        <time>2019-12-17T11:14:17.000Z</time>
      </trkpt>
      <trkpt lat="43.3647" lon="6.00548">
        <ele>543</ele>
        <time>2019-12-17T11:14:18.000Z</time>
      </trkpt>
      <trkpt lat="43.36471" lon="6.00546">
        <ele>543</ele>
        <time>2019-12-17T11:14:19.000Z</time>
      </trkpt>
      <trkpt lat="43.36471" lon="6.00544">
        <ele>543</ele>
        <time>2019-12-17T11:14:20.000Z</time>
      </trkpt>
      <trkpt lat="43.36471" lon="6.00542">
        <ele>543</ele>
        <time>2019-12-17T11:14:21.000Z</time>
      </trkpt>
      <trkpt lat="43.36471" lon="6.0054">
        <ele>543</ele>
        <time>2019-12-17T11:14:22.000Z</time>
      </trkpt>
      <trkpt lat="43.36471" lon="6.00538">
        <ele>543</ele>
        <time>2019-12-17T11:14:23.000Z</time>
      </trkpt>
      <trkpt lat="43.36471" lon="6.00536">
        <ele>543</ele>
        <time>2019-12-17T11:14:24.000Z</time>
      </trkpt>
      <trkpt lat="43.36471" lon="6.00534">
        <ele>543</ele>
        <time>2019-12-17T11:14:25.000Z</time>
      </trkpt>
      <trkpt lat="43.36471" lon="6.00532">
        <ele>543</ele>
        <time>2019-12-17T11:14:26.000Z</time>
      </trkpt>
      <trkpt lat="43.36471" lon="6.00531">
        <ele>543</ele>
        <time>2019-12-17T11:14:27.000Z</time>
      </trkpt>
      <trkpt lat="43.36471" lon="6.00529">
        <ele>543</ele>
        <time>2019-12-17T11:14:28.000Z</time>
      </trkpt>
      <trkpt lat="43.36471" lon="6.00527">
        <ele>544</ele>
        <time>2019-12-17T11:14:29.000Z</time>
      </trkpt>
      <trkpt lat="43.3647" lon="6.00526">
        <ele>544</ele>
        <time>2019-12-17T11:14:30.000Z</time>
      </trkpt>
      <trkpt lat="43.3647" lon="6.00525">
        <ele>544</ele>
        <time>2019-12-17T11:14:31.000Z</time>
      </trkpt>
      <trkpt lat="43.3647" lon="6.00524">
        <ele>544</ele>
        <time>2019-12-17T11:14:32.000Z</time>
      </trkpt>
      <trkpt lat="43.36469" lon="6.00523">
        <ele>544</ele>
        <time>2019-12-17T11:14:33.000Z</time>
      </trkpt>
      <trkpt lat="43.36469" lon="6.00521">
        <ele>544</ele>
        <time>2019-12-17T11:14:34.000Z</time>
      </trkpt>
      <trkpt lat="43.36469" lon="6.0052">
        <ele>544</ele>
        <time>2019-12-17T11:14:35.000Z</time>
      </trkpt>
      <trkpt lat="43.36469" lon="6.00519">
        <ele>544</ele>
        <time>2019-12-17T11:14:36.000Z</time>
      </trkpt>
      <trkpt lat="43.36469" lon="6.00518">
        <ele>544</ele>
        <time>2019-12-17T11:14:37.000Z</time>
      </trkpt>
      <trkpt lat="43.36469" lon="6.00517">
        <ele>545</ele>
        <time>2019-12-17T11:14:38.000Z</time>
      </trkpt>
      <trkpt lat="43.36469" lon="6.00517">
        <ele>545</ele>
        <time>2019-12-17T11:14:39.000Z</time>
      </trkpt>
      <trkpt lat="43.36469" lon="6.00516">
        <ele>545</ele>
        <time>2019-12-17T11:14:40.000Z</time>
      </trkpt>
      <trkpt lat="43.36469" lon="6.00516">
        <ele>545</ele>
        <time>2019-12-17T11:14:41.000Z</time>
      </trkpt>
      <trkpt lat="43.36469" lon="6.00515">
        <ele>545</ele>
        <time>2019-12-17T11:14:42.000Z</time>
      </trkpt>
      <trkpt lat="43.36469" lon="6.00514">
        <ele>545</ele>
        <time>2019-12-17T11:14:43.000Z</time>
      </trkpt>
      <trkpt lat="43.36468" lon="6.00513">
        <ele>546</ele>
        <time>2019-12-17T11:14:44.000Z</time>
      </trkpt>
      <trkpt lat="43.36468" lon="6.00512">
        <ele>546</ele>
        <time>2019-12-17T11:14:45.000Z</time>
      </trkpt>
      <trkpt lat="43.36468" lon="6.0051">
        <ele>546</ele>
        <time>2019-12-17T11:14:46.000Z</time>
      </trkpt>
      <trkpt lat="43.36467" lon="6.00509">
        <ele>546</ele>
        <time>2019-12-17T11:14:47.000Z</time>
      </trkpt>
      <trkpt lat="43.36467" lon="6.00507">
        <ele>546</ele>
        <time>2019-12-17T11:14:48.000Z</time>
      </trkpt>
      <trkpt lat="43.36467" lon="6.00505">
        <ele>546</ele>
        <time>2019-12-17T11:14:49.000Z</time>
      </trkpt>
      <trkpt lat="43.36466" lon="6.00503">
        <ele>546</ele>
        <time>2019-12-17T11:14:50.000Z</time>
      </trkpt>
      <trkpt lat="43.36465" lon="6.00502">
        <ele>546</ele>
        <time>2019-12-17T11:14:51.000Z</time>
      </trkpt>
      <trkpt lat="43.36465" lon="6.005">
        <ele>546</ele>
        <time>2019-12-17T11:14:52.000Z</time>
      </trkpt>
      <trkpt lat="43.36464" lon="6.00499">
        <ele>546</ele>
        <time>2019-12-17T11:14:53.000Z</time>
      </trkpt>
      <trkpt lat="43.36464" lon="6.00498">
        <ele>546</ele>
        <time>2019-12-17T11:14:54.000Z</time>
      </trkpt>
      <trkpt lat="43.36463" lon="6.00496">
        <ele>546</ele>
        <time>2019-12-17T11:14:55.000Z</time>
      </trkpt>
      <trkpt lat="43.36462" lon="6.00495">
        <ele>546</ele>
        <time>2019-12-17T11:14:56.000Z</time>
      </trkpt>
      <trkpt lat="43.36461" lon="6.00494">
        <ele>546</ele>
        <time>2019-12-17T11:14:57.000Z</time>
      </trkpt>
      <trkpt lat="43.3646" lon="6.00494">
        <ele>546</ele>
        <time>2019-12-17T11:14:58.000Z</time>
      </trkpt>
      <trkpt lat="43.36459" lon="6.00493">
        <ele>546</ele>
        <time>2019-12-17T11:14:59.000Z</time>
      </trkpt>
      <trkpt lat="43.36459" lon="6.00492">
        <ele>546</ele>
        <time>2019-12-17T11:15:00.000Z</time>
      </trkpt>
      <trkpt lat="43.36458" lon="6.00491">
        <ele>546</ele>
        <time>2019-12-17T11:15:01.000Z</time>
      </trkpt>
      <trkpt lat="43.36458" lon="6.00489">
        <ele>546</ele>
        <time>2019-12-17T11:15:02.000Z</time>
      </trkpt>
      <trkpt lat="43.36458" lon="6.00488">
        <ele>547</ele>
        <time>2019-12-17T11:15:03.000Z</time>
      </trkpt>
      <trkpt lat="43.36458" lon="6.00486">
        <ele>547</ele>
        <time>2019-12-17T11:15:04.000Z</time>
      </trkpt>
      <trkpt lat="43.36458" lon="6.00485">
        <ele>547</ele>
        <time>2019-12-17T11:15:05.000Z</time>
      </trkpt>
      <trkpt lat="43.36457" lon="6.00483">
        <ele>547</ele>
        <time>2019-12-17T11:15:06.000Z</time>
      </trkpt>
      <trkpt lat="43.36457" lon="6.00482">
        <ele>547</ele>
        <time>2019-12-17T11:15:07.000Z</time>
      </trkpt>
      <trkpt lat="43.36456" lon="6.0048">
        <ele>547</ele>
        <time>2019-12-17T11:15:08.000Z</time>
      </trkpt>
      <trkpt lat="43.36456" lon="6.00479">
        <ele>547</ele>
        <time>2019-12-17T11:15:09.000Z</time>
      </trkpt>
      <trkpt lat="43.36455" lon="6.00477">
        <ele>547</ele>
        <time>2019-12-17T11:15:10.000Z</time>
      </trkpt>
      <trkpt lat="43.36455" lon="6.00475">
        <ele>548</ele>
        <time>2019-12-17T11:15:11.000Z</time>
      </trkpt>
      <trkpt lat="43.36455" lon="6.00474">
        <ele>548</ele>
        <time>2019-12-17T11:15:12.000Z</time>
      </trkpt>
      <trkpt lat="43.36455" lon="6.00472">
        <ele>548</ele>
        <time>2019-12-17T11:15:13.000Z</time>
      </trkpt>
      <trkpt lat="43.36455" lon="6.00471">
        <ele>548</ele>
        <time>2019-12-17T11:15:14.000Z</time>
      </trkpt>
      <trkpt lat="43.36455" lon="6.0047">
        <ele>548</ele>
        <time>2019-12-17T11:15:15.000Z</time>
      </trkpt>
      <trkpt lat="43.36454" lon="6.0047">
        <ele>548</ele>
        <time>2019-12-17T11:15:16.000Z</time>
      </trkpt>
      <trkpt lat="43.36454" lon="6.00469">
        <ele>548</ele>
        <time>2019-12-17T11:15:17.000Z</time>
      </trkpt>
      <trkpt lat="43.36454" lon="6.00469">
        <ele>548</ele>
        <time>2019-12-17T11:15:18.000Z</time>
      </trkpt>
      <trkpt lat="43.36454" lon="6.00468">
        <ele>548</ele>
        <time>2019-12-17T11:15:19.000Z</time>
      </trkpt>
      <trkpt lat="43.36453" lon="6.00467">
        <ele>548</ele>
        <time>2019-12-17T11:15:20.000Z</time>
      </trkpt>
      <trkpt lat="43.36453" lon="6.00466">
        <ele>548</ele>
        <time>2019-12-17T11:15:21.000Z</time>
      </trkpt>
      <trkpt lat="43.36452" lon="6.00466">
        <ele>548</ele>
        <time>2019-12-17T11:15:22.000Z</time>
      </trkpt>
      <trkpt lat="43.36452" lon="6.00464">
        <ele>548</ele>
        <time>2019-12-17T11:15:23.000Z</time>
      </trkpt>
      <trkpt lat="43.36452" lon="6.00463">
        <ele>548</ele>
        <time>2019-12-17T11:15:24.000Z</time>
      </trkpt>
      <trkpt lat="43.36452" lon="6.00462">
        <ele>548</ele>
        <time>2019-12-17T11:15:25.000Z</time>
      </trkpt>
      <trkpt lat="43.36452" lon="6.00461">
        <ele>548</ele>
        <time>2019-12-17T11:15:26.000Z</time>
      </trkpt>
      <trkpt lat="43.36452" lon="6.00461">
        <ele>548</ele>
        <time>2019-12-17T11:15:27.000Z</time>
      </trkpt>
      <trkpt lat="43.36451" lon="6.0046">
        <ele>549</ele>
        <time>2019-12-17T11:15:28.000Z</time>
      </trkpt>
      <trkpt lat="43.36451" lon="6.00459">
        <ele>549</ele>
        <time>2019-12-17T11:15:29.000Z</time>
      </trkpt>
      <trkpt lat="43.36451" lon="6.00458">
        <ele>549</ele>
        <time>2019-12-17T11:15:30.000Z</time>
      </trkpt>
      <trkpt lat="43.3645" lon="6.00457">
        <ele>549</ele>
        <time>2019-12-17T11:15:31.000Z</time>
      </trkpt>
      <trkpt lat="43.3645" lon="6.00456">
        <ele>549</ele>
        <time>2019-12-17T11:15:32.000Z</time>
      </trkpt>
      <trkpt lat="43.3645" lon="6.00456">
        <ele>549</ele>
        <time>2019-12-17T11:15:33.000Z</time>
      </trkpt>
      <trkpt lat="43.3645" lon="6.00454">
        <ele>549</ele>
        <time>2019-12-17T11:15:34.000Z</time>
      </trkpt>
      <trkpt lat="43.36451" lon="6.00453">
        <ele>549</ele>
        <time>2019-12-17T11:15:35.000Z</time>
      </trkpt>
      <trkpt lat="43.36451" lon="6.00451">
        <ele>549</ele>
        <time>2019-12-17T11:15:36.000Z</time>
      </trkpt>
      <trkpt lat="43.36452" lon="6.0045">
        <ele>549</ele>
        <time>2019-12-17T11:15:37.000Z</time>
      </trkpt>
      <trkpt lat="43.36452" lon="6.00448">
        <ele>549</ele>
        <time>2019-12-17T11:15:38.000Z</time>
      </trkpt>
      <trkpt lat="43.36453" lon="6.00447">
        <ele>549</ele>
        <time>2019-12-17T11:15:39.000Z</time>
      </trkpt>
      <trkpt lat="43.36453" lon="6.00445">
        <ele>549</ele>
        <time>2019-12-17T11:15:40.000Z</time>
      </trkpt>
      <trkpt lat="43.36454" lon="6.00443">
        <ele>549</ele>
        <time>2019-12-17T11:15:41.000Z</time>
      </trkpt>
      <trkpt lat="43.36454" lon="6.00442">
        <ele>549</ele>
        <time>2019-12-17T11:15:42.000Z</time>
      </trkpt>
      <trkpt lat="43.36455" lon="6.00441">
        <ele>549</ele>
        <time>2019-12-17T11:15:43.000Z</time>
      </trkpt>
      <trkpt lat="43.36455" lon="6.0044">
        <ele>549</ele>
        <time>2019-12-17T11:15:44.000Z</time>
      </trkpt>
      <trkpt lat="43.36455" lon="6.00439">
        <ele>549</ele>
        <time>2019-12-17T11:15:45.000Z</time>
      </trkpt>
      <trkpt lat="43.36456" lon="6.00438">
        <ele>549</ele>
        <time>2019-12-17T11:15:46.000Z</time>
      </trkpt>
      <trkpt lat="43.36456" lon="6.00438">
        <ele>548</ele>
        <time>2019-12-17T11:15:47.000Z</time>
      </trkpt>
      <trkpt lat="43.36455" lon="6.00437">
        <ele>548</ele>
        <time>2019-12-17T11:15:48.000Z</time>
      </trkpt>
      <trkpt lat="43.36455" lon="6.00437">
        <ele>548</ele>
        <time>2019-12-17T11:15:49.000Z</time>
      </trkpt>
      <trkpt lat="43.36454" lon="6.00437">
        <ele>548</ele>
        <time>2019-12-17T11:15:50.000Z</time>
      </trkpt>
      <trkpt lat="43.36453" lon="6.00437">
        <ele>548</ele>
        <time>2019-12-17T11:15:51.000Z</time>
      </trkpt>
      <trkpt lat="43.36453" lon="6.00437">
        <ele>548</ele>
        <time>2019-12-17T11:15:52.000Z</time>
      </trkpt>
      <trkpt lat="43.36452" lon="6.00437">
        <ele>548</ele>
        <time>2019-12-17T11:15:53.000Z</time>
      </trkpt>
      <trkpt lat="43.36451" lon="6.00437">
        <ele>548</ele>
        <time>2019-12-17T11:15:54.000Z</time>
      </trkpt>
      <trkpt lat="43.36451" lon="6.00437">
        <ele>548</ele>
        <time>2019-12-17T11:15:55.000Z</time>
      </trkpt>
      <trkpt lat="43.36451" lon="6.00437">
        <ele>548</ele>
        <time>2019-12-17T11:15:56.000Z</time>
      </trkpt>
      <trkpt lat="43.36451" lon="6.00437">
        <ele>548</ele>
        <time>2019-12-17T11:15:57.000Z</time>
      </trkpt>
      <trkpt lat="43.3645" lon="6.00437">
        <ele>548</ele>
        <time>2019-12-17T11:15:58.000Z</time>
      </trkpt>
      <trkpt lat="43.3645" lon="6.00436">
        <ele>548</ele>
        <time>2019-12-17T11:15:59.000Z</time>
      </trkpt>
      <trkpt lat="43.3645" lon="6.00435">
        <ele>548</ele>
        <time>2019-12-17T11:16:00.000Z</time>
      </trkpt>
      <trkpt lat="43.36451" lon="6.00434">
        <ele>548</ele>
        <time>2019-12-17T11:16:01.000Z</time>
      </trkpt>
      <trkpt lat="43.36451" lon="6.00433">
        <ele>548</ele>
        <time>2019-12-17T11:16:02.000Z</time>
      </trkpt>
      <trkpt lat="43.36451" lon="6.00432">
        <ele>548</ele>
        <time>2019-12-17T11:16:03.000Z</time>
      </trkpt>
      <trkpt lat="43.36451" lon="6.0043">
        <ele>548</ele>
        <time>2019-12-17T11:16:04.000Z</time>
      </trkpt>
      <trkpt lat="43.36451" lon="6.00429">
        <ele>548</ele>
        <time>2019-12-17T11:16:05.000Z</time>
      </trkpt>
      <trkpt lat="43.36451" lon="6.00427">
        <ele>548</ele>
        <time>2019-12-17T11:16:06.000Z</time>
      </trkpt>
      <trkpt lat="43.36452" lon="6.00426">
        <ele>548</ele>
        <time>2019-12-17T11:16:07.000Z</time>
      </trkpt>
      <trkpt lat="43.36452" lon="6.00425">
        <ele>548</ele>
        <time>2019-12-17T11:16:08.000Z</time>
      </trkpt>
      <trkpt lat="43.36452" lon="6.00424">
        <ele>548</ele>
        <time>2019-12-17T11:16:09.000Z</time>
      </trkpt>
      <trkpt lat="43.36452" lon="6.00422">
        <ele>548</ele>
        <time>2019-12-17T11:16:10.000Z</time>
      </trkpt>
      <trkpt lat="43.36452" lon="6.00421">
        <ele>548</ele>
        <time>2019-12-17T11:16:11.000Z</time>
      </trkpt>
      <trkpt lat="43.36453" lon="6.0042">
        <ele>548</ele>
        <time>2019-12-17T11:16:12.000Z</time>
      </trkpt>
      <trkpt lat="43.36453" lon="6.00418">
        <ele>548</ele>
        <time>2019-12-17T11:16:13.000Z</time>
      </trkpt>
      <trkpt lat="43.36454" lon="6.00418">
        <ele>548</ele>
        <time>2019-12-17T11:16:14.000Z</time>
      </trkpt>
      <trkpt lat="43.36454" lon="6.00417">
        <ele>548</ele>
        <time>2019-12-17T11:16:15.000Z</time>
      </trkpt>
      <trkpt lat="43.36454" lon="6.00416">
        <ele>548</ele>
        <time>2019-12-17T11:16:16.000Z</time>
      </trkpt>
      <trkpt lat="43.36454" lon="6.00416">
        <ele>548</ele>
        <time>2019-12-17T11:16:17.000Z</time>
      </trkpt>
      <trkpt lat="43.36454" lon="6.00415">
        <ele>548</ele>
        <time>2019-12-17T11:16:18.000Z</time>
      </trkpt>
      <trkpt lat="43.36454" lon="6.00414">
        <ele>548</ele>
        <time>2019-12-17T11:16:19.000Z</time>
      </trkpt>
      <trkpt lat="43.36454" lon="6.00413">
        <ele>548</ele>
        <time>2019-12-17T11:16:20.000Z</time>
      </trkpt>
      <trkpt lat="43.36455" lon="6.00412">
        <ele>548</ele>
        <time>2019-12-17T11:16:21.000Z</time>
      </trkpt>
      <trkpt lat="43.36455" lon="6.00412">
        <ele>548</ele>
        <time>2019-12-17T11:16:22.000Z</time>
      </trkpt>
      <trkpt lat="43.36455" lon="6.00411">
        <ele>548</ele>
        <time>2019-12-17T11:16:23.000Z</time>
      </trkpt>
      <trkpt lat="43.36455" lon="6.0041">
        <ele>548</ele>
        <time>2019-12-17T11:16:24.000Z</time>
      </trkpt>
      <trkpt lat="43.36455" lon="6.0041">
        <ele>548</ele>
        <time>2019-12-17T11:16:25.000Z</time>
      </trkpt>
      <trkpt lat="43.36455" lon="6.00409">
        <ele>548</ele>
        <time>2019-12-17T11:16:26.000Z</time>
      </trkpt>
      <trkpt lat="43.36455" lon="6.00409">
        <ele>548</ele>
        <time>2019-12-17T11:16:27.000Z</time>
      </trkpt>
      <trkpt lat="43.36456" lon="6.00408">
        <ele>548</ele>
        <time>2019-12-17T11:16:28.000Z</time>
      </trkpt>
      <trkpt lat="43.36456" lon="6.00407">
        <ele>548</ele>
        <time>2019-12-17T11:16:29.000Z</time>
      </trkpt>
      <trkpt lat="43.36457" lon="6.00406">
        <ele>548</ele>
        <time>2019-12-17T11:16:30.000Z</time>
      </trkpt>
      <trkpt lat="43.36457" lon="6.00404">
        <ele>548</ele>
        <time>2019-12-17T11:16:31.000Z</time>
      </trkpt>
      <trkpt lat="43.36458" lon="6.00403">
        <ele>548</ele>
        <time>2019-12-17T11:16:32.000Z</time>
      </trkpt>
      <trkpt lat="43.36458" lon="6.00401">
        <ele>548</ele>
        <time>2019-12-17T11:16:33.000Z</time>
      </trkpt>
      <trkpt lat="43.36458" lon="6.004">
        <ele>548</ele>
        <time>2019-12-17T11:16:34.000Z</time>
      </trkpt>
      <trkpt lat="43.36459" lon="6.00398">
        <ele>548</ele>
        <time>2019-12-17T11:16:35.000Z</time>
      </trkpt>
      <trkpt lat="43.36459" lon="6.00397">
        <ele>548</ele>
        <time>2019-12-17T11:16:36.000Z</time>
      </trkpt>
      <trkpt lat="43.36459" lon="6.00396">
        <ele>548</ele>
        <time>2019-12-17T11:16:37.000Z</time>
      </trkpt>
      <trkpt lat="43.3646" lon="6.00394">
        <ele>548</ele>
        <time>2019-12-17T11:16:38.000Z</time>
      </trkpt>
      <trkpt lat="43.3646" lon="6.00392">
        <ele>548</ele>
        <time>2019-12-17T11:16:39.000Z</time>
      </trkpt>
      <trkpt lat="43.36461" lon="6.0039">
        <ele>548</ele>
        <time>2019-12-17T11:16:40.000Z</time>
      </trkpt>
      <trkpt lat="43.36462" lon="6.00389">
        <ele>548</ele>
        <time>2019-12-17T11:16:41.000Z</time>
      </trkpt>
      <trkpt lat="43.36463" lon="6.00387">
        <ele>548</ele>
        <time>2019-12-17T11:16:42.000Z</time>
      </trkpt>
      <trkpt lat="43.36463" lon="6.00385">
        <ele>548</ele>
        <time>2019-12-17T11:16:43.000Z</time>
      </trkpt>
      <trkpt lat="43.36464" lon="6.00384">
        <ele>548</ele>
        <time>2019-12-17T11:16:44.000Z</time>
      </trkpt>
      <trkpt lat="43.36464" lon="6.00383">
        <ele>548</ele>
        <time>2019-12-17T11:16:45.000Z</time>
      </trkpt>
      <trkpt lat="43.36464" lon="6.00382">
        <ele>548</ele>
        <time>2019-12-17T11:16:46.000Z</time>
      </trkpt>
      <trkpt lat="43.36464" lon="6.00381">
        <ele>548</ele>
        <time>2019-12-17T11:16:47.000Z</time>
      </trkpt>
      <trkpt lat="43.36464" lon="6.00381">
        <ele>548</ele>
        <time>2019-12-17T11:16:48.000Z</time>
      </trkpt>
      <trkpt lat="43.36465" lon="6.0038">
        <ele>548</ele>
        <time>2019-12-17T11:16:49.000Z</time>
      </trkpt>
      <trkpt lat="43.36465" lon="6.00379">
        <ele>548</ele>
        <time>2019-12-17T11:16:50.000Z</time>
      </trkpt>
      <trkpt lat="43.36465" lon="6.00379">
        <ele>547</ele>
        <time>2019-12-17T11:16:51.000Z</time>
      </trkpt>
      <trkpt lat="43.36465" lon="6.00378">
        <ele>547</ele>
        <time>2019-12-17T11:16:52.000Z</time>
      </trkpt>
      <trkpt lat="43.36465" lon="6.00377">
        <ele>547</ele>
        <time>2019-12-17T11:16:53.000Z</time>
      </trkpt>
      <trkpt lat="43.36466" lon="6.00376">
        <ele>547</ele>
        <time>2019-12-17T11:16:54.000Z</time>
      </trkpt>
      <trkpt lat="43.36466" lon="6.00374">
        <ele>547</ele>
        <time>2019-12-17T11:16:55.000Z</time>
      </trkpt>
      <trkpt lat="43.36466" lon="6.00373">
        <ele>547</ele>
        <time>2019-12-17T11:16:56.000Z</time>
      </trkpt>
      <trkpt lat="43.36466" lon="6.00372">
        <ele>547</ele>
        <time>2019-12-17T11:16:57.000Z</time>
      </trkpt>
      <trkpt lat="43.36467" lon="6.00371">
        <ele>547</ele>
        <time>2019-12-17T11:16:58.000Z</time>
      </trkpt>
      <trkpt lat="43.36467" lon="6.0037">
        <ele>547</ele>
        <time>2019-12-17T11:16:59.000Z</time>
      </trkpt>
      <trkpt lat="43.36467" lon="6.00368">
        <ele>547</ele>
        <time>2019-12-17T11:17:00.000Z</time>
      </trkpt>
      <trkpt lat="43.36467" lon="6.00367">
        <ele>547</ele>
        <time>2019-12-17T11:17:01.000Z</time>
      </trkpt>
      <trkpt lat="43.36467" lon="6.00366">
        <ele>547</ele>
        <time>2019-12-17T11:17:02.000Z</time>
      </trkpt>
      <trkpt lat="43.36467" lon="6.00365">
        <ele>547</ele>
        <time>2019-12-17T11:17:03.000Z</time>
      </trkpt>
      <trkpt lat="43.36468" lon="6.00363">
        <ele>547</ele>
        <time>2019-12-17T11:17:04.000Z</time>
      </trkpt>
      <trkpt lat="43.36469" lon="6.00362">
        <ele>547</ele>
        <time>2019-12-17T11:17:05.000Z</time>
      </trkpt>
      <trkpt lat="43.3647" lon="6.0036">
        <ele>547</ele>
        <time>2019-12-17T11:17:06.000Z</time>
      </trkpt>
      <trkpt lat="43.36471" lon="6.00358">
        <ele>547</ele>
        <time>2019-12-17T11:17:07.000Z</time>
      </trkpt>
      <trkpt lat="43.36471" lon="6.00356">
        <ele>547</ele>
        <time>2019-12-17T11:17:08.000Z</time>
      </trkpt>
      <trkpt lat="43.36472" lon="6.00354">
        <ele>547</ele>
        <time>2019-12-17T11:17:09.000Z</time>
      </trkpt>
      <trkpt lat="43.36473" lon="6.00352">
        <ele>546</ele>
        <time>2019-12-17T11:17:10.000Z</time>
      </trkpt>
      <trkpt lat="43.36474" lon="6.00348">
        <ele>546</ele>
        <time>2019-12-17T11:17:11.000Z</time>
      </trkpt>
      <trkpt lat="43.36475" lon="6.00345">
        <ele>546</ele>
        <time>2019-12-17T11:17:12.000Z</time>
      </trkpt>
      <trkpt lat="43.36476" lon="6.00342">
        <ele>546</ele>
        <time>2019-12-17T11:17:13.000Z</time>
      </trkpt>
      <trkpt lat="43.36477" lon="6.00339">
        <ele>546</ele>
        <time>2019-12-17T11:17:14.000Z</time>
      </trkpt>
      <trkpt lat="43.36477" lon="6.00337">
        <ele>546</ele>
        <time>2019-12-17T11:17:15.000Z</time>
      </trkpt>
      <trkpt lat="43.36477" lon="6.00335">
        <ele>546</ele>
        <time>2019-12-17T11:17:16.000Z</time>
      </trkpt>
      <trkpt lat="43.36476" lon="6.00333">
        <ele>546</ele>
        <time>2019-12-17T11:17:17.000Z</time>
      </trkpt>
      <trkpt lat="43.36476" lon="6.00331">
        <ele>546</ele>
        <time>2019-12-17T11:17:18.000Z</time>
      </trkpt>
      <trkpt lat="43.36475" lon="6.0033">
        <ele>545</ele>
        <time>2019-12-17T11:17:19.000Z</time>
      </trkpt>
      <trkpt lat="43.36474" lon="6.00329">
        <ele>545</ele>
        <time>2019-12-17T11:17:20.000Z</time>
      </trkpt>
      <trkpt lat="43.36474" lon="6.00328">
        <ele>545</ele>
        <time>2019-12-17T11:17:21.000Z</time>
      </trkpt>
      <trkpt lat="43.36473" lon="6.00326">
        <ele>545</ele>
        <time>2019-12-17T11:17:22.000Z</time>
      </trkpt>
      <trkpt lat="43.36472" lon="6.00325">
        <ele>545</ele>
        <time>2019-12-17T11:17:23.000Z</time>
      </trkpt>
      <trkpt lat="43.36472" lon="6.00324">
        <ele>545</ele>
        <time>2019-12-17T11:17:24.000Z</time>
      </trkpt>
      <trkpt lat="43.36471" lon="6.00322">
        <ele>545</ele>
        <time>2019-12-17T11:17:25.000Z</time>
      </trkpt>
      <trkpt lat="43.3647" lon="6.00321">
        <ele>545</ele>
        <time>2019-12-17T11:17:26.000Z</time>
      </trkpt>
      <trkpt lat="43.3647" lon="6.00319">
        <ele>545</ele>
        <time>2019-12-17T11:17:27.000Z</time>
      </trkpt>
      <trkpt lat="43.36469" lon="6.00317">
        <ele>545</ele>
        <time>2019-12-17T11:17:28.000Z</time>
      </trkpt>
      <trkpt lat="43.36469" lon="6.00315">
        <ele>545</ele>
        <time>2019-12-17T11:17:29.000Z</time>
      </trkpt>
      <trkpt lat="43.36468" lon="6.00314">
        <ele>545</ele>
        <time>2019-12-17T11:17:30.000Z</time>
      </trkpt>
      <trkpt lat="43.36468" lon="6.00312">
        <ele>545</ele>
        <time>2019-12-17T11:17:31.000Z</time>
      </trkpt>
      <trkpt lat="43.36468" lon="6.00311">
        <ele>544</ele>
        <time>2019-12-17T11:17:32.000Z</time>
      </trkpt>
      <trkpt lat="43.36467" lon="6.0031">
        <ele>544</ele>
        <time>2019-12-17T11:17:33.000Z</time>
      </trkpt>
      <trkpt lat="43.36466" lon="6.00309">
        <ele>544</ele>
        <time>2019-12-17T11:17:34.000Z</time>
      </trkpt>
      <trkpt lat="43.36465" lon="6.00308">
        <ele>544</ele>
        <time>2019-12-17T11:17:35.000Z</time>
      </trkpt>
      <trkpt lat="43.36464" lon="6.00308">
        <ele>544</ele>
        <time>2019-12-17T11:17:36.000Z</time>
      </trkpt>
      <trkpt lat="43.36463" lon="6.00307">
        <ele>544</ele>
        <time>2019-12-17T11:17:37.000Z</time>
      </trkpt>
      <trkpt lat="43.36462" lon="6.00307">
        <ele>544</ele>
        <time>2019-12-17T11:17:38.000Z</time>
      </trkpt>
      <trkpt lat="43.36461" lon="6.00306">
        <ele>544</ele>
        <time>2019-12-17T11:17:39.000Z</time>
      </trkpt>
      <trkpt lat="43.3646" lon="6.00306">
        <ele>544</ele>
        <time>2019-12-17T11:17:40.000Z</time>
      </trkpt>
      <trkpt lat="43.36459" lon="6.00305">
        <ele>544</ele>
        <time>2019-12-17T11:17:41.000Z</time>
      </trkpt>
      <trkpt lat="43.36458" lon="6.00304">
        <ele>544</ele>
        <time>2019-12-17T11:17:42.000Z</time>
      </trkpt>
      <trkpt lat="43.36458" lon="6.00303">
        <ele>544</ele>
        <time>2019-12-17T11:17:43.000Z</time>
      </trkpt>
      <trkpt lat="43.36457" lon="6.00302">
        <ele>545</ele>
        <time>2019-12-17T11:17:44.000Z</time>
      </trkpt>
      <trkpt lat="43.36456" lon="6.00301">
        <ele>545</ele>
        <time>2019-12-17T11:17:45.000Z</time>
      </trkpt>
      <trkpt lat="43.36455" lon="6.00301">
        <ele>545</ele>
        <time>2019-12-17T11:17:46.000Z</time>
      </trkpt>
      <trkpt lat="43.36455" lon="6.00301">
        <ele>545</ele>
        <time>2019-12-17T11:17:47.000Z</time>
      </trkpt>
      <trkpt lat="43.36454" lon="6.003">
        <ele>545</ele>
        <time>2019-12-17T11:17:48.000Z</time>
      </trkpt>
      <trkpt lat="43.36453" lon="6.00299">
        <ele>545</ele>
        <time>2019-12-17T11:17:49.000Z</time>
      </trkpt>
      <trkpt lat="43.36453" lon="6.00299">
        <ele>545</ele>
        <time>2019-12-17T11:17:50.000Z</time>
      </trkpt>
      <trkpt lat="43.36452" lon="6.00298">
        <ele>545</ele>
        <time>2019-12-17T11:17:51.000Z</time>
      </trkpt>
      <trkpt lat="43.36451" lon="6.00298">
        <ele>545</ele>
        <time>2019-12-17T11:17:52.000Z</time>
      </trkpt>
      <trkpt lat="43.3645" lon="6.00297">
        <ele>545</ele>
        <time>2019-12-17T11:17:53.000Z</time>
      </trkpt>
      <trkpt lat="43.3645" lon="6.00296">
        <ele>545</ele>
        <time>2019-12-17T11:17:54.000Z</time>
      </trkpt>
      <trkpt lat="43.36449" lon="6.00295">
        <ele>545</ele>
        <time>2019-12-17T11:17:55.000Z</time>
      </trkpt>
      <trkpt lat="43.36448" lon="6.00294">
        <ele>545</ele>
        <time>2019-12-17T11:17:56.000Z</time>
      </trkpt>
      <trkpt lat="43.36448" lon="6.00293">
        <ele>545</ele>
        <time>2019-12-17T11:17:57.000Z</time>
      </trkpt>
      <trkpt lat="43.36448" lon="6.00291">
        <ele>545</ele>
        <time>2019-12-17T11:17:58.000Z</time>
      </trkpt>
      <trkpt lat="43.36448" lon="6.0029">
        <ele>545</ele>
        <time>2019-12-17T11:17:59.000Z</time>
      </trkpt>
      <trkpt lat="43.36447" lon="6.00288">
        <ele>545</ele>
        <time>2019-12-17T11:18:00.000Z</time>
      </trkpt>
      <trkpt lat="43.36447" lon="6.00286">
        <ele>545</ele>
        <time>2019-12-17T11:18:01.000Z</time>
      </trkpt>
      <trkpt lat="43.36447" lon="6.00285">
        <ele>544</ele>
        <time>2019-12-17T11:18:02.000Z</time>
      </trkpt>
      <trkpt lat="43.36447" lon="6.00283">
        <ele>544</ele>
        <time>2019-12-17T11:18:03.000Z</time>
      </trkpt>
      <trkpt lat="43.36447" lon="6.00281">
        <ele>544</ele>
        <time>2019-12-17T11:18:04.000Z</time>
      </trkpt>
      <trkpt lat="43.36446" lon="6.0028">
        <ele>544</ele>
        <time>2019-12-17T11:18:05.000Z</time>
      </trkpt>
      <trkpt lat="43.36446" lon="6.00278">
        <ele>544</ele>
        <time>2019-12-17T11:18:06.000Z</time>
      </trkpt>
      <trkpt lat="43.36446" lon="6.00277">
        <ele>544</ele>
        <time>2019-12-17T11:18:07.000Z</time>
      </trkpt>
      <trkpt lat="43.36445" lon="6.00275">
        <ele>544</ele>
        <time>2019-12-17T11:18:08.000Z</time>
      </trkpt>
      <trkpt lat="43.36445" lon="6.00273">
        <ele>544</ele>
        <time>2019-12-17T11:18:09.000Z</time>
      </trkpt>
      <trkpt lat="43.36445" lon="6.00271">
        <ele>544</ele>
        <time>2019-12-17T11:18:10.000Z</time>
      </trkpt>
      <trkpt lat="43.36445" lon="6.0027">
        <ele>544</ele>
        <time>2019-12-17T11:18:11.000Z</time>
      </trkpt>
      <trkpt lat="43.36446" lon="6.00268">
        <ele>544</ele>
        <time>2019-12-17T11:18:12.000Z</time>
      </trkpt>
      <trkpt lat="43.36446" lon="6.00267">
        <ele>544</ele>
        <time>2019-12-17T11:18:13.000Z</time>
      </trkpt>
      <trkpt lat="43.36446" lon="6.00265">
        <ele>544</ele>
        <time>2019-12-17T11:18:14.000Z</time>
      </trkpt>
      <trkpt lat="43.36445" lon="6.00264">
        <ele>544</ele>
        <time>2019-12-17T11:18:15.000Z</time>
      </trkpt>
      <trkpt lat="43.36445" lon="6.00263">
        <ele>544</ele>
        <time>2019-12-17T11:18:16.000Z</time>
      </trkpt>
      <trkpt lat="43.36445" lon="6.00262">
        <ele>544</ele>
        <time>2019-12-17T11:18:17.000Z</time>
      </trkpt>
      <trkpt lat="43.36445" lon="6.0026">
        <ele>544</ele>
        <time>2019-12-17T11:18:18.000Z</time>
      </trkpt>
      <trkpt lat="43.36445" lon="6.00259">
        <ele>544</ele>
        <time>2019-12-17T11:18:19.000Z</time>
      </trkpt>
      <trkpt lat="43.36445" lon="6.00258">
        <ele>544</ele>
        <time>2019-12-17T11:18:20.000Z</time>
      </trkpt>
      <trkpt lat="43.36445" lon="6.00257">
        <ele>544</ele>
        <time>2019-12-17T11:18:21.000Z</time>
      </trkpt>
      <trkpt lat="43.36445" lon="6.00256">
        <ele>544</ele>
        <time>2019-12-17T11:18:22.000Z</time>
      </trkpt>
      <trkpt lat="43.36445" lon="6.00255">
        <ele>545</ele>
        <time>2019-12-17T11:18:23.000Z</time>
      </trkpt>
      <trkpt lat="43.36445" lon="6.00254">
        <ele>545</ele>
        <time>2019-12-17T11:18:24.000Z</time>
      </trkpt>
      <trkpt lat="43.36445" lon="6.00252">
        <ele>545</ele>
        <time>2019-12-17T11:18:25.000Z</time>
      </trkpt>
      <trkpt lat="43.36445" lon="6.00251">
        <ele>545</ele>
        <time>2019-12-17T11:18:26.000Z</time>
      </trkpt>
      <trkpt lat="43.36445" lon="6.0025">
        <ele>545</ele>
        <time>2019-12-17T11:18:27.000Z</time>
      </trkpt>
      <trkpt lat="43.36445" lon="6.00249">
        <ele>545</ele>
        <time>2019-12-17T11:18:28.000Z</time>
      </trkpt>
      <trkpt lat="43.36445" lon="6.00248">
        <ele>545</ele>
        <time>2019-12-17T11:18:29.000Z</time>
      </trkpt>
      <trkpt lat="43.36445" lon="6.00247">
        <ele>545</ele>
        <time>2019-12-17T11:18:30.000Z</time>
      </trkpt>
      <trkpt lat="43.36444" lon="6.00246">
        <ele>545</ele>
        <time>2019-12-17T11:18:31.000Z</time>
      </trkpt>
      <trkpt lat="43.36444" lon="6.00244">
        <ele>545</ele>
        <time>2019-12-17T11:18:32.000Z</time>
      </trkpt>
      <trkpt lat="43.36444" lon="6.00243">
        <ele>545</ele>
        <time>2019-12-17T11:18:33.000Z</time>
      </trkpt>
      <trkpt lat="43.36444" lon="6.00242">
        <ele>546</ele>
        <time>2019-12-17T11:18:34.000Z</time>
      </trkpt>
      <trkpt lat="43.36443" lon="6.00241">
        <ele>546</ele>
        <time>2019-12-17T11:18:35.000Z</time>
      </trkpt>
      <trkpt lat="43.36443" lon="6.0024">
        <ele>546</ele>
        <time>2019-12-17T11:18:36.000Z</time>
      </trkpt>
      <trkpt lat="43.36442" lon="6.00239">
        <ele>546</ele>
        <time>2019-12-17T11:18:37.000Z</time>
      </trkpt>
      <trkpt lat="43.36442" lon="6.00238">
        <ele>546</ele>
        <time>2019-12-17T11:18:38.000Z</time>
      </trkpt>
      <trkpt lat="43.36441" lon="6.00238">
        <ele>546</ele>
        <time>2019-12-17T11:18:39.000Z</time>
      </trkpt>
      <trkpt lat="43.36441" lon="6.00237">
        <ele>546</ele>
        <time>2019-12-17T11:18:40.000Z</time>
      </trkpt>
      <trkpt lat="43.3644" lon="6.00236">
        <ele>546</ele>
        <time>2019-12-17T11:18:41.000Z</time>
      </trkpt>
      <trkpt lat="43.36439" lon="6.00235">
        <ele>546</ele>
        <time>2019-12-17T11:18:42.000Z</time>
      </trkpt>
      <trkpt lat="43.36438" lon="6.00235">
        <ele>546</ele>
        <time>2019-12-17T11:18:43.000Z</time>
      </trkpt>
      <trkpt lat="43.36437" lon="6.00235">
        <ele>546</ele>
        <time>2019-12-17T11:18:44.000Z</time>
      </trkpt>
      <trkpt lat="43.36436" lon="6.00234">
        <ele>546</ele>
        <time>2019-12-17T11:18:45.000Z</time>
      </trkpt>
      <trkpt lat="43.36436" lon="6.00234">
        <ele>546</ele>
        <time>2019-12-17T11:18:46.000Z</time>
      </trkpt>
      <trkpt lat="43.36435" lon="6.00235">
        <ele>546</ele>
        <time>2019-12-17T11:18:47.000Z</time>
      </trkpt>
      <trkpt lat="43.36434" lon="6.00235">
        <ele>546</ele>
        <time>2019-12-17T11:18:48.000Z</time>
      </trkpt>
      <trkpt lat="43.36433" lon="6.00236">
        <ele>547</ele>
        <time>2019-12-17T11:18:49.000Z</time>
      </trkpt>
      <trkpt lat="43.36432" lon="6.00237">
        <ele>546</ele>
        <time>2019-12-17T11:18:50.000Z</time>
      </trkpt>
      <trkpt lat="43.36431" lon="6.00237">
        <ele>546</ele>
        <time>2019-12-17T11:18:51.000Z</time>
      </trkpt>
      <trkpt lat="43.3643" lon="6.00237">
        <ele>547</ele>
        <time>2019-12-17T11:18:52.000Z</time>
      </trkpt>
      <trkpt lat="43.36429" lon="6.00237">
        <ele>547</ele>
        <time>2019-12-17T11:18:53.000Z</time>
      </trkpt>
      <trkpt lat="43.36428" lon="6.00237">
        <ele>547</ele>
        <time>2019-12-17T11:18:54.000Z</time>
      </trkpt>
      <trkpt lat="43.36427" lon="6.00237">
        <ele>547</ele>
        <time>2019-12-17T11:18:55.000Z</time>
      </trkpt>
      <trkpt lat="43.36426" lon="6.00237">
        <ele>547</ele>
        <time>2019-12-17T11:18:56.000Z</time>
      </trkpt>
      <trkpt lat="43.36425" lon="6.00238">
        <ele>547</ele>
        <time>2019-12-17T11:18:57.000Z</time>
      </trkpt>
      <trkpt lat="43.36424" lon="6.00239">
        <ele>547</ele>
        <time>2019-12-17T11:18:58.000Z</time>
      </trkpt>
      <trkpt lat="43.36423" lon="6.00239">
        <ele>547</ele>
        <time>2019-12-17T11:18:59.000Z</time>
      </trkpt>
      <trkpt lat="43.36422" lon="6.0024">
        <ele>547</ele>
        <time>2019-12-17T11:19:00.000Z</time>
      </trkpt>
      <trkpt lat="43.36421" lon="6.0024">
        <ele>547</ele>
        <time>2019-12-17T11:19:01.000Z</time>
      </trkpt>
      <trkpt lat="43.3642" lon="6.0024">
        <ele>547</ele>
        <time>2019-12-17T11:19:02.000Z</time>
      </trkpt>
      <trkpt lat="43.3642" lon="6.0024">
        <ele>547</ele>
        <time>2019-12-17T11:19:03.000Z</time>
      </trkpt>
      <trkpt lat="43.36419" lon="6.00239">
        <ele>547</ele>
        <time>2019-12-17T11:19:04.000Z</time>
      </trkpt>
      <trkpt lat="43.36419" lon="6.00238">
        <ele>547</ele>
        <time>2019-12-17T11:19:05.000Z</time>
      </trkpt>
      <trkpt lat="43.36419" lon="6.00237">
        <ele>547</ele>
        <time>2019-12-17T11:19:06.000Z</time>
      </trkpt>
      <trkpt lat="43.36419" lon="6.00236">
        <ele>547</ele>
        <time>2019-12-17T11:19:07.000Z</time>
      </trkpt>
      <trkpt lat="43.36419" lon="6.00235">
        <ele>547</ele>
        <time>2019-12-17T11:19:08.000Z</time>
      </trkpt>
      <trkpt lat="43.36419" lon="6.00234">
        <ele>547</ele>
        <time>2019-12-17T11:19:09.000Z</time>
      </trkpt>
      <trkpt lat="43.36418" lon="6.00233">
        <ele>547</ele>
        <time>2019-12-17T11:19:10.000Z</time>
      </trkpt>
      <trkpt lat="43.36418" lon="6.00231">
        <ele>547</ele>
        <time>2019-12-17T11:19:11.000Z</time>
      </trkpt>
      <trkpt lat="43.36418" lon="6.0023">
        <ele>547</ele>
        <time>2019-12-17T11:19:12.000Z</time>
      </trkpt>
      <trkpt lat="43.36418" lon="6.00228">
        <ele>547</ele>
        <time>2019-12-17T11:19:13.000Z</time>
      </trkpt>
      <trkpt lat="43.36418" lon="6.00227">
        <ele>547</ele>
        <time>2019-12-17T11:19:14.000Z</time>
      </trkpt>
      <trkpt lat="43.36417" lon="6.00225">
        <ele>547</ele>
        <time>2019-12-17T11:19:15.000Z</time>
      </trkpt>
      <trkpt lat="43.36417" lon="6.00224">
        <ele>547</ele>
        <time>2019-12-17T11:19:16.000Z</time>
      </trkpt>
      <trkpt lat="43.36417" lon="6.00221">
        <ele>547</ele>
        <time>2019-12-17T11:19:17.000Z</time>
      </trkpt>
      <trkpt lat="43.36417" lon="6.00219">
        <ele>547</ele>
        <time>2019-12-17T11:19:18.000Z</time>
      </trkpt>
      <trkpt lat="43.36416" lon="6.00217">
        <ele>547</ele>
        <time>2019-12-17T11:19:19.000Z</time>
      </trkpt>
      <trkpt lat="43.36416" lon="6.00215">
        <ele>547</ele>
        <time>2019-12-17T11:19:20.000Z</time>
      </trkpt>
      <trkpt lat="43.36416" lon="6.00212">
        <ele>547</ele>
        <time>2019-12-17T11:19:21.000Z</time>
      </trkpt>
      <trkpt lat="43.36416" lon="6.0021">
        <ele>547</ele>
        <time>2019-12-17T11:19:22.000Z</time>
      </trkpt>
      <trkpt lat="43.36416" lon="6.00207">
        <ele>547</ele>
        <time>2019-12-17T11:19:23.000Z</time>
      </trkpt>
      <trkpt lat="43.36416" lon="6.00205">
        <ele>546</ele>
        <time>2019-12-17T11:19:24.000Z</time>
      </trkpt>
      <trkpt lat="43.36416" lon="6.00203">
        <ele>546</ele>
        <time>2019-12-17T11:19:25.000Z</time>
      </trkpt>
      <trkpt lat="43.36416" lon="6.00201">
        <ele>546</ele>
        <time>2019-12-17T11:19:26.000Z</time>
      </trkpt>
      <trkpt lat="43.36415" lon="6.00199">
        <ele>546</ele>
        <time>2019-12-17T11:19:27.000Z</time>
      </trkpt>
      <trkpt lat="43.36414" lon="6.00197">
        <ele>546</ele>
        <time>2019-12-17T11:19:28.000Z</time>
      </trkpt>
      <trkpt lat="43.36414" lon="6.00195">
        <ele>546</ele>
        <time>2019-12-17T11:19:29.000Z</time>
      </trkpt>
      <trkpt lat="43.36414" lon="6.00193">
        <ele>546</ele>
        <time>2019-12-17T11:19:30.000Z</time>
      </trkpt>
      <trkpt lat="43.36413" lon="6.00192">
        <ele>546</ele>
        <time>2019-12-17T11:19:31.000Z</time>
      </trkpt>
      <trkpt lat="43.36413" lon="6.00191">
        <ele>546</ele>
        <time>2019-12-17T11:19:32.000Z</time>
      </trkpt>
      <trkpt lat="43.36413" lon="6.00189">
        <ele>546</ele>
        <time>2019-12-17T11:19:33.000Z</time>
      </trkpt>
      <trkpt lat="43.36413" lon="6.00188">
        <ele>546</ele>
        <time>2019-12-17T11:19:34.000Z</time>
      </trkpt>
      <trkpt lat="43.36412" lon="6.00187">
        <ele>546</ele>
        <time>2019-12-17T11:19:35.000Z</time>
      </trkpt>
      <trkpt lat="43.36412" lon="6.00186">
        <ele>546</ele>
        <time>2019-12-17T11:19:36.000Z</time>
      </trkpt>
      <trkpt lat="43.36411" lon="6.00185">
        <ele>546</ele>
        <time>2019-12-17T11:19:37.000Z</time>
      </trkpt>
      <trkpt lat="43.3641" lon="6.00184">
        <ele>546</ele>
        <time>2019-12-17T11:19:38.000Z</time>
      </trkpt>
      <trkpt lat="43.36409" lon="6.00184">
        <ele>546</ele>
        <time>2019-12-17T11:19:39.000Z</time>
      </trkpt>
      <trkpt lat="43.36409" lon="6.00183">
        <ele>546</ele>
        <time>2019-12-17T11:19:40.000Z</time>
      </trkpt>
      <trkpt lat="43.36408" lon="6.00182">
        <ele>547</ele>
        <time>2019-12-17T11:19:41.000Z</time>
      </trkpt>
      <trkpt lat="43.36407" lon="6.00181">
        <ele>547</ele>
        <time>2019-12-17T11:19:42.000Z</time>
      </trkpt>
      <trkpt lat="43.36407" lon="6.0018">
        <ele>547</ele>
        <time>2019-12-17T11:19:43.000Z</time>
      </trkpt>
      <trkpt lat="43.36407" lon="6.00179">
        <ele>547</ele>
        <time>2019-12-17T11:19:44.000Z</time>
      </trkpt>
      <trkpt lat="43.36406" lon="6.00178">
        <ele>547</ele>
        <time>2019-12-17T11:19:45.000Z</time>
      </trkpt>
      <trkpt lat="43.36405" lon="6.00178">
        <ele>547</ele>
        <time>2019-12-17T11:19:46.000Z</time>
      </trkpt>
      <trkpt lat="43.36405" lon="6.00177">
        <ele>547</ele>
        <time>2019-12-17T11:19:47.000Z</time>
      </trkpt>
      <trkpt lat="43.36404" lon="6.00177">
        <ele>547</ele>
        <time>2019-12-17T11:19:48.000Z</time>
      </trkpt>
      <trkpt lat="43.36402" lon="6.00177">
        <ele>547</ele>
        <time>2019-12-17T11:19:49.000Z</time>
      </trkpt>
      <trkpt lat="43.36401" lon="6.00177">
        <ele>547</ele>
        <time>2019-12-17T11:19:50.000Z</time>
      </trkpt>
      <trkpt lat="43.36401" lon="6.00177">
        <ele>547</ele>
        <time>2019-12-17T11:19:51.000Z</time>
      </trkpt>
      <trkpt lat="43.364" lon="6.00177">
        <ele>547</ele>
        <time>2019-12-17T11:19:52.000Z</time>
      </trkpt>
      <trkpt lat="43.364" lon="6.00177">
        <ele>547</ele>
        <time>2019-12-17T11:19:53.000Z</time>
      </trkpt>
      <trkpt lat="43.364" lon="6.00178">
        <ele>547</ele>
        <time>2019-12-17T11:19:54.000Z</time>
      </trkpt>
      <trkpt lat="43.364" lon="6.00178">
        <ele>547</ele>
        <time>2019-12-17T11:19:55.000Z</time>
      </trkpt>
      <trkpt lat="43.364" lon="6.00179">
        <ele>547</ele>
        <time>2019-12-17T11:19:56.000Z</time>
      </trkpt>
      <trkpt lat="43.36399" lon="6.0018">
        <ele>546</ele>
        <time>2019-12-17T11:19:57.000Z</time>
      </trkpt>
      <trkpt lat="43.36399" lon="6.00181">
        <ele>546</ele>
        <time>2019-12-17T11:19:58.000Z</time>
      </trkpt>
      <trkpt lat="43.36398" lon="6.00182">
        <ele>546</ele>
        <time>2019-12-17T11:19:59.000Z</time>
      </trkpt>
      <trkpt lat="43.36398" lon="6.00184">
        <ele>546</ele>
        <time>2019-12-17T11:20:00.000Z</time>
      </trkpt>
      <trkpt lat="43.36397" lon="6.00185">
        <ele>546</ele>
        <time>2019-12-17T11:20:01.000Z</time>
      </trkpt>
      <trkpt lat="43.36397" lon="6.00186">
        <ele>546</ele>
        <time>2019-12-17T11:20:02.000Z</time>
      </trkpt>
      <trkpt lat="43.36396" lon="6.00188">
        <ele>547</ele>
        <time>2019-12-17T11:20:03.000Z</time>
      </trkpt>
      <trkpt lat="43.36395" lon="6.00189">
        <ele>547</ele>
        <time>2019-12-17T11:20:04.000Z</time>
      </trkpt>
      <trkpt lat="43.36395" lon="6.0019">
        <ele>547</ele>
        <time>2019-12-17T11:20:05.000Z</time>
      </trkpt>
      <trkpt lat="43.36394" lon="6.00191">
        <ele>547</ele>
        <time>2019-12-17T11:20:06.000Z</time>
      </trkpt>
      <trkpt lat="43.36393" lon="6.00191">
        <ele>547</ele>
        <time>2019-12-17T11:20:07.000Z</time>
      </trkpt>
      <trkpt lat="43.36392" lon="6.00192">
        <ele>547</ele>
        <time>2019-12-17T11:20:08.000Z</time>
      </trkpt>
      <trkpt lat="43.36392" lon="6.00192">
        <ele>547</ele>
        <time>2019-12-17T11:20:09.000Z</time>
      </trkpt>
      <trkpt lat="43.36392" lon="6.00192">
        <ele>547</ele>
        <time>2019-12-17T11:20:10.000Z</time>
      </trkpt>
      <trkpt lat="43.36392" lon="6.00192">
        <ele>547</ele>
        <time>2019-12-17T11:20:11.000Z</time>
      </trkpt>
      <trkpt lat="43.36392" lon="6.00193">
        <ele>547</ele>
        <time>2019-12-17T11:20:12.000Z</time>
      </trkpt>
      <trkpt lat="43.36392" lon="6.00193">
        <ele>547</ele>
        <time>2019-12-17T11:20:13.000Z</time>
      </trkpt>
      <trkpt lat="43.36392" lon="6.00193">
        <ele>547</ele>
        <time>2019-12-17T11:20:14.000Z</time>
      </trkpt>
      <trkpt lat="43.36392" lon="6.00193">
        <ele>547</ele>
        <time>2019-12-17T11:20:15.000Z</time>
      </trkpt>
      <trkpt lat="43.36392" lon="6.00193">
        <ele>547</ele>
        <time>2019-12-17T11:20:16.000Z</time>
      </trkpt>
      <trkpt lat="43.36392" lon="6.00193">
        <ele>547</ele>
        <time>2019-12-17T11:20:17.000Z</time>
      </trkpt>
      <trkpt lat="43.36391" lon="6.00193">
        <ele>547</ele>
        <time>2019-12-17T11:20:18.000Z</time>
      </trkpt>
      <trkpt lat="43.36391" lon="6.00193">
        <ele>547</ele>
        <time>2019-12-17T11:20:19.000Z</time>
      </trkpt>
      <trkpt lat="43.36391" lon="6.00193">
        <ele>547</ele>
        <time>2019-12-17T11:20:20.000Z</time>
      </trkpt>
      <trkpt lat="43.36391" lon="6.00193">
        <ele>547</ele>
        <time>2019-12-17T11:20:21.000Z</time>
      </trkpt>
      <trkpt lat="43.36391" lon="6.00193">
        <ele>547</ele>
        <time>2019-12-17T11:20:22.000Z</time>
      </trkpt>
      <trkpt lat="43.36391" lon="6.00193">
        <ele>547</ele>
        <time>2019-12-17T11:20:23.000Z</time>
      </trkpt>
      <trkpt lat="43.36391" lon="6.00193">
        <ele>547</ele>
        <time>2019-12-17T11:20:24.000Z</time>
      </trkpt>
      <trkpt lat="43.36391" lon="6.00193">
        <ele>547</ele>
        <time>2019-12-17T11:20:25.000Z</time>
      </trkpt>
      <trkpt lat="43.36392" lon="6.00193">
        <ele>547</ele>
        <time>2019-12-17T11:20:26.000Z</time>
      </trkpt>
      <trkpt lat="43.36392" lon="6.00193">
        <ele>547</ele>
        <time>2019-12-17T11:20:27.000Z</time>
      </trkpt>
      <trkpt lat="43.36392" lon="6.00193">
        <ele>547</ele>
        <time>2019-12-17T11:20:28.000Z</time>
      </trkpt>
      <trkpt lat="43.36392" lon="6.00193">
        <ele>547</ele>
        <time>2019-12-17T11:20:29.000Z</time>
      </trkpt>
      <trkpt lat="43.36392" lon="6.00193">
        <ele>547</ele>
        <time>2019-12-17T11:20:30.000Z</time>
      </trkpt>
      <trkpt lat="43.36392" lon="6.00193">
        <ele>547</ele>
        <time>2019-12-17T11:20:31.000Z</time>
      </trkpt>
      <trkpt lat="43.36392" lon="6.00193">
        <ele>547</ele>
        <time>2019-12-17T11:20:32.000Z</time>
      </trkpt>
      <trkpt lat="43.36392" lon="6.00193">
        <ele>547</ele>
        <time>2019-12-17T11:20:33.000Z</time>
      </trkpt>
      <trkpt lat="43.36392" lon="6.00193">
        <ele>547</ele>
        <time>2019-12-17T11:20:34.000Z</time>
      </trkpt>
      <trkpt lat="43.36392" lon="6.00194">
        <ele>547</ele>
        <time>2019-12-17T11:20:35.000Z</time>
      </trkpt>
      <trkpt lat="43.36392" lon="6.00194">
        <ele>547</ele>
        <time>2019-12-17T11:20:36.000Z</time>
      </trkpt>
      <trkpt lat="43.36392" lon="6.00194">
        <ele>547</ele>
        <time>2019-12-17T11:20:37.000Z</time>
      </trkpt>
      <trkpt lat="43.36391" lon="6.00194">
        <ele>547</ele>
        <time>2019-12-17T11:20:38.000Z</time>
      </trkpt>
      <trkpt lat="43.36391" lon="6.00195">
        <ele>547</ele>
        <time>2019-12-17T11:20:39.000Z</time>
      </trkpt>
      <trkpt lat="43.3639" lon="6.00195">
        <ele>547</ele>
        <time>2019-12-17T11:20:40.000Z</time>
      </trkpt>
      <trkpt lat="43.36389" lon="6.00196">
        <ele>547</ele>
        <time>2019-12-17T11:20:41.000Z</time>
      </trkpt>
      <trkpt lat="43.36389" lon="6.00197">
        <ele>547</ele>
        <time>2019-12-17T11:20:42.000Z</time>
      </trkpt>
      <trkpt lat="43.36388" lon="6.00197">
        <ele>548</ele>
        <time>2019-12-17T11:20:43.000Z</time>
      </trkpt>
      <trkpt lat="43.36388" lon="6.00198">
        <ele>548</ele>
        <time>2019-12-17T11:20:44.000Z</time>
      </trkpt>
      <trkpt lat="43.36388" lon="6.00199">
        <ele>548</ele>
        <time>2019-12-17T11:20:45.000Z</time>
      </trkpt>
      <trkpt lat="43.36387" lon="6.00199">
        <ele>548</ele>
        <time>2019-12-17T11:20:46.000Z</time>
      </trkpt>
      <trkpt lat="43.36387" lon="6.002">
        <ele>548</ele>
        <time>2019-12-17T11:20:47.000Z</time>
      </trkpt>
      <trkpt lat="43.36386" lon="6.002">
        <ele>548</ele>
        <time>2019-12-17T11:20:48.000Z</time>
      </trkpt>
      <trkpt lat="43.36386" lon="6.002">
        <ele>548</ele>
        <time>2019-12-17T11:20:49.000Z</time>
      </trkpt>
      <trkpt lat="43.36385" lon="6.00201">
        <ele>548</ele>
        <time>2019-12-17T11:20:50.000Z</time>
      </trkpt>
      <trkpt lat="43.36385" lon="6.00201">
        <ele>548</ele>
        <time>2019-12-17T11:20:51.000Z</time>
      </trkpt>
      <trkpt lat="43.36385" lon="6.00201">
        <ele>548</ele>
        <time>2019-12-17T11:20:52.000Z</time>
      </trkpt>
      <trkpt lat="43.36384" lon="6.00201">
        <ele>548</ele>
        <time>2019-12-17T11:20:53.000Z</time>
      </trkpt>
      <trkpt lat="43.36384" lon="6.00202">
        <ele>548</ele>
        <time>2019-12-17T11:20:54.000Z</time>
      </trkpt>
      <trkpt lat="43.36384" lon="6.00202">
        <ele>548</ele>
        <time>2019-12-17T11:20:55.000Z</time>
      </trkpt>
      <trkpt lat="43.36384" lon="6.00202">
        <ele>548</ele>
        <time>2019-12-17T11:20:56.000Z</time>
      </trkpt>
      <trkpt lat="43.36383" lon="6.00202">
        <ele>548</ele>
        <time>2019-12-17T11:20:57.000Z</time>
      </trkpt>
      <trkpt lat="43.36383" lon="6.00203">
        <ele>548</ele>
        <time>2019-12-17T11:20:58.000Z</time>
      </trkpt>
      <trkpt lat="43.36384" lon="6.00204">
        <ele>548</ele>
        <time>2019-12-17T11:20:59.000Z</time>
      </trkpt>
      <trkpt lat="43.36384" lon="6.00205">
        <ele>548</ele>
        <time>2019-12-17T11:21:00.000Z</time>
      </trkpt>
      <trkpt lat="43.36384" lon="6.00206">
        <ele>548</ele>
        <time>2019-12-17T11:21:01.000Z</time>
      </trkpt>
      <trkpt lat="43.36384" lon="6.00208">
        <ele>548</ele>
        <time>2019-12-17T11:21:02.000Z</time>
      </trkpt>
      <trkpt lat="43.36384" lon="6.00209">
        <ele>548</ele>
        <time>2019-12-17T11:21:03.000Z</time>
      </trkpt>
      <trkpt lat="43.36384" lon="6.00211">
        <ele>548</ele>
        <time>2019-12-17T11:21:04.000Z</time>
      </trkpt>
      <trkpt lat="43.36383" lon="6.00212">
        <ele>548</ele>
        <time>2019-12-17T11:21:05.000Z</time>
      </trkpt>
      <trkpt lat="43.36383" lon="6.00214">
        <ele>548</ele>
        <time>2019-12-17T11:21:06.000Z</time>
      </trkpt>
      <trkpt lat="43.36383" lon="6.00215">
        <ele>548</ele>
        <time>2019-12-17T11:21:07.000Z</time>
      </trkpt>
      <trkpt lat="43.36383" lon="6.00216">
        <ele>548</ele>
        <time>2019-12-17T11:21:08.000Z</time>
      </trkpt>
      <trkpt lat="43.36383" lon="6.00217">
        <ele>548</ele>
        <time>2019-12-17T11:21:09.000Z</time>
      </trkpt>
      <trkpt lat="43.36383" lon="6.00218">
        <ele>548</ele>
        <time>2019-12-17T11:21:10.000Z</time>
      </trkpt>
      <trkpt lat="43.36383" lon="6.0022">
        <ele>548</ele>
        <time>2019-12-17T11:21:11.000Z</time>
      </trkpt>
      <trkpt lat="43.36383" lon="6.00221">
        <ele>549</ele>
        <time>2019-12-17T11:21:12.000Z</time>
      </trkpt>
      <trkpt lat="43.36383" lon="6.00223">
        <ele>549</ele>
        <time>2019-12-17T11:21:13.000Z</time>
      </trkpt>
      <trkpt lat="43.36384" lon="6.00224">
        <ele>549</ele>
        <time>2019-12-17T11:21:14.000Z</time>
      </trkpt>
      <trkpt lat="43.36384" lon="6.00225">
        <ele>549</ele>
        <time>2019-12-17T11:21:15.000Z</time>
      </trkpt>
      <trkpt lat="43.36384" lon="6.00226">
        <ele>549</ele>
        <time>2019-12-17T11:21:16.000Z</time>
      </trkpt>
      <trkpt lat="43.36385" lon="6.00227">
        <ele>549</ele>
        <time>2019-12-17T11:21:17.000Z</time>
      </trkpt>
      <trkpt lat="43.36385" lon="6.00228">
        <ele>549</ele>
        <time>2019-12-17T11:21:18.000Z</time>
      </trkpt>
      <trkpt lat="43.36385" lon="6.00229">
        <ele>549</ele>
        <time>2019-12-17T11:21:19.000Z</time>
      </trkpt>
      <trkpt lat="43.36385" lon="6.0023">
        <ele>549</ele>
        <time>2019-12-17T11:21:20.000Z</time>
      </trkpt>
      <trkpt lat="43.36386" lon="6.00231">
        <ele>549</ele>
        <time>2019-12-17T11:21:21.000Z</time>
      </trkpt>
      <trkpt lat="43.36386" lon="6.00232">
        <ele>549</ele>
        <time>2019-12-17T11:21:22.000Z</time>
      </trkpt>
      <trkpt lat="43.36386" lon="6.00233">
        <ele>549</ele>
        <time>2019-12-17T11:21:23.000Z</time>
      </trkpt>
      <trkpt lat="43.36387" lon="6.00234">
        <ele>549</ele>
        <time>2019-12-17T11:21:24.000Z</time>
      </trkpt>
      <trkpt lat="43.36386" lon="6.00235">
        <ele>549</ele>
        <time>2019-12-17T11:21:25.000Z</time>
      </trkpt>
      <trkpt lat="43.36386" lon="6.00236">
        <ele>549</ele>
        <time>2019-12-17T11:21:26.000Z</time>
      </trkpt>
      <trkpt lat="43.36386" lon="6.00238">
        <ele>549</ele>
        <time>2019-12-17T11:21:27.000Z</time>
      </trkpt>
      <trkpt lat="43.36386" lon="6.00239">
        <ele>549</ele>
        <time>2019-12-17T11:21:28.000Z</time>
      </trkpt>
      <trkpt lat="43.36386" lon="6.0024">
        <ele>549</ele>
        <time>2019-12-17T11:21:29.000Z</time>
      </trkpt>
      <trkpt lat="43.36385" lon="6.00242">
        <ele>549</ele>
        <time>2019-12-17T11:21:30.000Z</time>
      </trkpt>
      <trkpt lat="43.36385" lon="6.00243">
        <ele>549</ele>
        <time>2019-12-17T11:21:31.000Z</time>
      </trkpt>
      <trkpt lat="43.36385" lon="6.00244">
        <ele>549</ele>
        <time>2019-12-17T11:21:32.000Z</time>
      </trkpt>
      <trkpt lat="43.36385" lon="6.00246">
        <ele>549</ele>
        <time>2019-12-17T11:21:33.000Z</time>
      </trkpt>
      <trkpt lat="43.36385" lon="6.00246">
        <ele>549</ele>
        <time>2019-12-17T11:21:34.000Z</time>
      </trkpt>
      <trkpt lat="43.36385" lon="6.00248">
        <ele>549</ele>
        <time>2019-12-17T11:21:35.000Z</time>
      </trkpt>
      <trkpt lat="43.36385" lon="6.00249">
        <ele>549</ele>
        <time>2019-12-17T11:21:36.000Z</time>
      </trkpt>
      <trkpt lat="43.36385" lon="6.00251">
        <ele>549</ele>
        <time>2019-12-17T11:21:37.000Z</time>
      </trkpt>
      <trkpt lat="43.36385" lon="6.00252">
        <ele>549</ele>
        <time>2019-12-17T11:21:38.000Z</time>
      </trkpt>
      <trkpt lat="43.36384" lon="6.00254">
        <ele>549</ele>
        <time>2019-12-17T11:21:39.000Z</time>
      </trkpt>
      <trkpt lat="43.36384" lon="6.00256">
        <ele>549</ele>
        <time>2019-12-17T11:21:40.000Z</time>
      </trkpt>
      <trkpt lat="43.36384" lon="6.00258">
        <ele>549</ele>
        <time>2019-12-17T11:21:41.000Z</time>
      </trkpt>
      <trkpt lat="43.36383" lon="6.00259">
        <ele>549</ele>
        <time>2019-12-17T11:21:42.000Z</time>
      </trkpt>
      <trkpt lat="43.36383" lon="6.00259">
        <ele>549</ele>
        <time>2019-12-17T11:21:43.000Z</time>
      </trkpt>
      <trkpt lat="43.36383" lon="6.00259">
        <ele>549</ele>
        <time>2019-12-17T11:21:44.000Z</time>
      </trkpt>
      <trkpt lat="43.36383" lon="6.00259">
        <ele>549</ele>
        <time>2019-12-17T11:21:45.000Z</time>
      </trkpt>
      <trkpt lat="43.36384" lon="6.00259">
        <ele>549</ele>
        <time>2019-12-17T11:21:46.000Z</time>
      </trkpt>
      <trkpt lat="43.36384" lon="6.00259">
        <ele>549</ele>
        <time>2019-12-17T11:21:47.000Z</time>
      </trkpt>
      <trkpt lat="43.36384" lon="6.00259">
        <ele>549</ele>
        <time>2019-12-17T11:21:48.000Z</time>
      </trkpt>
      <trkpt lat="43.36385" lon="6.00259">
        <ele>549</ele>
        <time>2019-12-17T11:21:49.000Z</time>
      </trkpt>
      <trkpt lat="43.36385" lon="6.00259">
        <ele>549</ele>
        <time>2019-12-17T11:21:50.000Z</time>
      </trkpt>
      <trkpt lat="43.36385" lon="6.0026">
        <ele>549</ele>
        <time>2019-12-17T11:21:51.000Z</time>
      </trkpt>
      <trkpt lat="43.36386" lon="6.00261">
        <ele>549</ele>
        <time>2019-12-17T11:21:52.000Z</time>
      </trkpt>
      <trkpt lat="43.36386" lon="6.00261">
        <ele>549</ele>
        <time>2019-12-17T11:21:53.000Z</time>
      </trkpt>
      <trkpt lat="43.36386" lon="6.00262">
        <ele>549</ele>
        <time>2019-12-17T11:21:54.000Z</time>
      </trkpt>
      <trkpt lat="43.36385" lon="6.00262">
        <ele>549</ele>
        <time>2019-12-17T11:21:55.000Z</time>
      </trkpt>
      <trkpt lat="43.36385" lon="6.00263">
        <ele>548</ele>
        <time>2019-12-17T11:21:56.000Z</time>
      </trkpt>
      <trkpt lat="43.36385" lon="6.00264">
        <ele>548</ele>
        <time>2019-12-17T11:21:57.000Z</time>
      </trkpt>
      <trkpt lat="43.36385" lon="6.00265">
        <ele>548</ele>
        <time>2019-12-17T11:21:58.000Z</time>
      </trkpt>
      <trkpt lat="43.36385" lon="6.00267">
        <ele>548</ele>
        <time>2019-12-17T11:21:59.000Z</time>
      </trkpt>
      <trkpt lat="43.36384" lon="6.00268">
        <ele>548</ele>
        <time>2019-12-17T11:22:00.000Z</time>
      </trkpt>
      <trkpt lat="43.36383" lon="6.0027">
        <ele>548</ele>
        <time>2019-12-17T11:22:01.000Z</time>
      </trkpt>
      <trkpt lat="43.36383" lon="6.00271">
        <ele>548</ele>
        <time>2019-12-17T11:22:02.000Z</time>
      </trkpt>
      <trkpt lat="43.36382" lon="6.00273">
        <ele>548</ele>
        <time>2019-12-17T11:22:03.000Z</time>
      </trkpt>
      <trkpt lat="43.36382" lon="6.00275">
        <ele>548</ele>
        <time>2019-12-17T11:22:04.000Z</time>
      </trkpt>
      <trkpt lat="43.36381" lon="6.00277">
        <ele>548</ele>
        <time>2019-12-17T11:22:05.000Z</time>
      </trkpt>
      <trkpt lat="43.36381" lon="6.00279">
        <ele>548</ele>
        <time>2019-12-17T11:22:06.000Z</time>
      </trkpt>
      <trkpt lat="43.3638" lon="6.00281">
        <ele>548</ele>
        <time>2019-12-17T11:22:07.000Z</time>
      </trkpt>
      <trkpt lat="43.3638" lon="6.00283">
        <ele>548</ele>
        <time>2019-12-17T11:22:08.000Z</time>
      </trkpt>
      <trkpt lat="43.36379" lon="6.00285">
        <ele>548</ele>
        <time>2019-12-17T11:22:09.000Z</time>
      </trkpt>
      <trkpt lat="43.36379" lon="6.00286">
        <ele>548</ele>
        <time>2019-12-17T11:22:10.000Z</time>
      </trkpt>
      <trkpt lat="43.36379" lon="6.00287">
        <ele>548</ele>
        <time>2019-12-17T11:22:11.000Z</time>
      </trkpt>
      <trkpt lat="43.36379" lon="6.00288">
        <ele>548</ele>
        <time>2019-12-17T11:22:12.000Z</time>
      </trkpt>
      <trkpt lat="43.3638" lon="6.00289">
        <ele>548</ele>
        <time>2019-12-17T11:22:13.000Z</time>
      </trkpt>
      <trkpt lat="43.3638" lon="6.0029">
        <ele>548</ele>
        <time>2019-12-17T11:22:14.000Z</time>
      </trkpt>
      <trkpt lat="43.3638" lon="6.00291">
        <ele>548</ele>
        <time>2019-12-17T11:22:15.000Z</time>
      </trkpt>
      <trkpt lat="43.3638" lon="6.00293">
        <ele>548</ele>
        <time>2019-12-17T11:22:16.000Z</time>
      </trkpt>
      <trkpt lat="43.3638" lon="6.00294">
        <ele>548</ele>
        <time>2019-12-17T11:22:17.000Z</time>
      </trkpt>
      <trkpt lat="43.3638" lon="6.00295">
        <ele>548</ele>
        <time>2019-12-17T11:22:18.000Z</time>
      </trkpt>
      <trkpt lat="43.3638" lon="6.00296">
        <ele>548</ele>
        <time>2019-12-17T11:22:19.000Z</time>
      </trkpt>
      <trkpt lat="43.3638" lon="6.00297">
        <ele>548</ele>
        <time>2019-12-17T11:22:20.000Z</time>
      </trkpt>
      <trkpt lat="43.3638" lon="6.00298">
        <ele>548</ele>
        <time>2019-12-17T11:22:21.000Z</time>
      </trkpt>
      <trkpt lat="43.3638" lon="6.00299">
        <ele>548</ele>
        <time>2019-12-17T11:22:22.000Z</time>
      </trkpt>
      <trkpt lat="43.3638" lon="6.00301">
        <ele>548</ele>
        <time>2019-12-17T11:22:23.000Z</time>
      </trkpt>
      <trkpt lat="43.3638" lon="6.00302">
        <ele>548</ele>
        <time>2019-12-17T11:22:24.000Z</time>
      </trkpt>
      <trkpt lat="43.36379" lon="6.00303">
        <ele>548</ele>
        <time>2019-12-17T11:22:25.000Z</time>
      </trkpt>
      <trkpt lat="43.36379" lon="6.00304">
        <ele>548</ele>
        <time>2019-12-17T11:22:26.000Z</time>
      </trkpt>
      <trkpt lat="43.36379" lon="6.00306">
        <ele>548</ele>
        <time>2019-12-17T11:22:27.000Z</time>
      </trkpt>
      <trkpt lat="43.36379" lon="6.00307">
        <ele>548</ele>
        <time>2019-12-17T11:22:28.000Z</time>
      </trkpt>
      <trkpt lat="43.36379" lon="6.00308">
        <ele>548</ele>
        <time>2019-12-17T11:22:29.000Z</time>
      </trkpt>
      <trkpt lat="43.36379" lon="6.00309">
        <ele>548</ele>
        <time>2019-12-17T11:22:30.000Z</time>
      </trkpt>
      <trkpt lat="43.36379" lon="6.0031">
        <ele>548</ele>
        <time>2019-12-17T11:22:31.000Z</time>
      </trkpt>
      <trkpt lat="43.36379" lon="6.0031">
        <ele>548</ele>
        <time>2019-12-17T11:22:32.000Z</time>
      </trkpt>
      <trkpt lat="43.36379" lon="6.00311">
        <ele>548</ele>
        <time>2019-12-17T11:22:33.000Z</time>
      </trkpt>
      <trkpt lat="43.36379" lon="6.00312">
        <ele>548</ele>
        <time>2019-12-17T11:22:34.000Z</time>
      </trkpt>
      <trkpt lat="43.36379" lon="6.00313">
        <ele>548</ele>
        <time>2019-12-17T11:22:35.000Z</time>
      </trkpt>
      <trkpt lat="43.36379" lon="6.00314">
        <ele>548</ele>
        <time>2019-12-17T11:22:36.000Z</time>
      </trkpt>
      <trkpt lat="43.36379" lon="6.00315">
        <ele>548</ele>
        <time>2019-12-17T11:22:37.000Z</time>
      </trkpt>
      <trkpt lat="43.36379" lon="6.00317">
        <ele>548</ele>
        <time>2019-12-17T11:22:38.000Z</time>
      </trkpt>
      <trkpt lat="43.36379" lon="6.00318">
        <ele>548</ele>
        <time>2019-12-17T11:22:39.000Z</time>
      </trkpt>
      <trkpt lat="43.36379" lon="6.0032">
        <ele>548</ele>
        <time>2019-12-17T11:22:40.000Z</time>
      </trkpt>
      <trkpt lat="43.36379" lon="6.00321">
        <ele>548</ele>
        <time>2019-12-17T11:22:41.000Z</time>
      </trkpt>
      <trkpt lat="43.36378" lon="6.00323">
        <ele>548</ele>
        <time>2019-12-17T11:22:42.000Z</time>
      </trkpt>
      <trkpt lat="43.36378" lon="6.00324">
        <ele>548</ele>
        <time>2019-12-17T11:22:43.000Z</time>
      </trkpt>
      <trkpt lat="43.36378" lon="6.00326">
        <ele>547</ele>
        <time>2019-12-17T11:22:44.000Z</time>
      </trkpt>
      <trkpt lat="43.36378" lon="6.00327">
        <ele>547</ele>
        <time>2019-12-17T11:22:45.000Z</time>
      </trkpt>
      <trkpt lat="43.36377" lon="6.00329">
        <ele>547</ele>
        <time>2019-12-17T11:22:46.000Z</time>
      </trkpt>
      <trkpt lat="43.36377" lon="6.0033">
        <ele>547</ele>
        <time>2019-12-17T11:22:47.000Z</time>
      </trkpt>
      <trkpt lat="43.36377" lon="6.00332">
        <ele>547</ele>
        <time>2019-12-17T11:22:48.000Z</time>
      </trkpt>
      <trkpt lat="43.36376" lon="6.00334">
        <ele>547</ele>
        <time>2019-12-17T11:22:49.000Z</time>
      </trkpt>
      <trkpt lat="43.36376" lon="6.00335">
        <ele>547</ele>
        <time>2019-12-17T11:22:50.000Z</time>
      </trkpt>
      <trkpt lat="43.36375" lon="6.00337">
        <ele>547</ele>
        <time>2019-12-17T11:22:51.000Z</time>
      </trkpt>
      <trkpt lat="43.36375" lon="6.00338">
        <ele>547</ele>
        <time>2019-12-17T11:22:52.000Z</time>
      </trkpt>
      <trkpt lat="43.36375" lon="6.0034">
        <ele>547</ele>
        <time>2019-12-17T11:22:53.000Z</time>
      </trkpt>
      <trkpt lat="43.36374" lon="6.00342">
        <ele>547</ele>
        <time>2019-12-17T11:22:54.000Z</time>
      </trkpt>
      <trkpt lat="43.36374" lon="6.00344">
        <ele>547</ele>
        <time>2019-12-17T11:22:55.000Z</time>
      </trkpt>
      <trkpt lat="43.36374" lon="6.00346">
        <ele>547</ele>
        <time>2019-12-17T11:22:56.000Z</time>
      </trkpt>
      <trkpt lat="43.36374" lon="6.00347">
        <ele>547</ele>
        <time>2019-12-17T11:22:57.000Z</time>
      </trkpt>
      <trkpt lat="43.36373" lon="6.00349">
        <ele>547</ele>
        <time>2019-12-17T11:22:58.000Z</time>
      </trkpt>
      <trkpt lat="43.36373" lon="6.0035">
        <ele>547</ele>
        <time>2019-12-17T11:22:59.000Z</time>
      </trkpt>
      <trkpt lat="43.36373" lon="6.00351">
        <ele>547</ele>
        <time>2019-12-17T11:23:00.000Z</time>
      </trkpt>
      <trkpt lat="43.36373" lon="6.00352">
        <ele>547</ele>
        <time>2019-12-17T11:23:01.000Z</time>
      </trkpt>
      <trkpt lat="43.36373" lon="6.00353">
        <ele>547</ele>
        <time>2019-12-17T11:23:02.000Z</time>
      </trkpt>
      <trkpt lat="43.36373" lon="6.00353">
        <ele>547</ele>
        <time>2019-12-17T11:23:03.000Z</time>
      </trkpt>
      <trkpt lat="43.36373" lon="6.00354">
        <ele>547</ele>
        <time>2019-12-17T11:23:04.000Z</time>
      </trkpt>
      <trkpt lat="43.36373" lon="6.00354">
        <ele>547</ele>
        <time>2019-12-17T11:23:05.000Z</time>
      </trkpt>
      <trkpt lat="43.36373" lon="6.00355">
        <ele>547</ele>
        <time>2019-12-17T11:23:06.000Z</time>
      </trkpt>
      <trkpt lat="43.36374" lon="6.00356">
        <ele>547</ele>
        <time>2019-12-17T11:23:07.000Z</time>
      </trkpt>
      <trkpt lat="43.36374" lon="6.00357">
        <ele>547</ele>
        <time>2019-12-17T11:23:08.000Z</time>
      </trkpt>
      <trkpt lat="43.36374" lon="6.00358">
        <ele>547</ele>
        <time>2019-12-17T11:23:09.000Z</time>
      </trkpt>
      <trkpt lat="43.36374" lon="6.00359">
        <ele>547</ele>
        <time>2019-12-17T11:23:10.000Z</time>
      </trkpt>
      <trkpt lat="43.36375" lon="6.0036">
        <ele>547</ele>
        <time>2019-12-17T11:23:11.000Z</time>
      </trkpt>
      <trkpt lat="43.36375" lon="6.00361">
        <ele>547</ele>
        <time>2019-12-17T11:23:12.000Z</time>
      </trkpt>
      <trkpt lat="43.36375" lon="6.00361">
        <ele>547</ele>
        <time>2019-12-17T11:23:13.000Z</time>
      </trkpt>
      <trkpt lat="43.36375" lon="6.00362">
        <ele>547</ele>
        <time>2019-12-17T11:23:14.000Z</time>
      </trkpt>
      <trkpt lat="43.36375" lon="6.00363">
        <ele>547</ele>
        <time>2019-12-17T11:23:15.000Z</time>
      </trkpt>
      <trkpt lat="43.36375" lon="6.00364">
        <ele>547</ele>
        <time>2019-12-17T11:23:16.000Z</time>
      </trkpt>
      <trkpt lat="43.36375" lon="6.00365">
        <ele>547</ele>
        <time>2019-12-17T11:23:17.000Z</time>
      </trkpt>
      <trkpt lat="43.36374" lon="6.00367">
        <ele>547</ele>
        <time>2019-12-17T11:23:18.000Z</time>
      </trkpt>
      <trkpt lat="43.36374" lon="6.00368">
        <ele>548</ele>
        <time>2019-12-17T11:23:19.000Z</time>
      </trkpt>
      <trkpt lat="43.36374" lon="6.0037">
        <ele>548</ele>
        <time>2019-12-17T11:23:20.000Z</time>
      </trkpt>
      <trkpt lat="43.36373" lon="6.00371">
        <ele>548</ele>
        <time>2019-12-17T11:23:21.000Z</time>
      </trkpt>
      <trkpt lat="43.36374" lon="6.00372">
        <ele>548</ele>
        <time>2019-12-17T11:23:22.000Z</time>
      </trkpt>
      <trkpt lat="43.36373" lon="6.00374">
        <ele>548</ele>
        <time>2019-12-17T11:23:23.000Z</time>
      </trkpt>
      <trkpt lat="43.36373" lon="6.00375">
        <ele>548</ele>
        <time>2019-12-17T11:23:24.000Z</time>
      </trkpt>
      <trkpt lat="43.36373" lon="6.00377">
        <ele>548</ele>
        <time>2019-12-17T11:23:25.000Z</time>
      </trkpt>
      <trkpt lat="43.36373" lon="6.00378">
        <ele>548</ele>
        <time>2019-12-17T11:23:26.000Z</time>
      </trkpt>
      <trkpt lat="43.36373" lon="6.00379">
        <ele>548</ele>
        <time>2019-12-17T11:23:27.000Z</time>
      </trkpt>
      <trkpt lat="43.36373" lon="6.00381">
        <ele>548</ele>
        <time>2019-12-17T11:23:28.000Z</time>
      </trkpt>
      <trkpt lat="43.36373" lon="6.00382">
        <ele>548</ele>
        <time>2019-12-17T11:23:29.000Z</time>
      </trkpt>
      <trkpt lat="43.36373" lon="6.00384">
        <ele>548</ele>
        <time>2019-12-17T11:23:30.000Z</time>
      </trkpt>
      <trkpt lat="43.36373" lon="6.00385">
        <ele>548</ele>
        <time>2019-12-17T11:23:31.000Z</time>
      </trkpt>
      <trkpt lat="43.36373" lon="6.00386">
        <ele>548</ele>
        <time>2019-12-17T11:23:32.000Z</time>
      </trkpt>
      <trkpt lat="43.36373" lon="6.00387">
        <ele>548</ele>
        <time>2019-12-17T11:23:33.000Z</time>
      </trkpt>
      <trkpt lat="43.36372" lon="6.00388">
        <ele>548</ele>
        <time>2019-12-17T11:23:34.000Z</time>
      </trkpt>
      <trkpt lat="43.36372" lon="6.00389">
        <ele>549</ele>
        <time>2019-12-17T11:23:35.000Z</time>
      </trkpt>
      <trkpt lat="43.36372" lon="6.00389">
        <ele>549</ele>
        <time>2019-12-17T11:23:36.000Z</time>
      </trkpt>
      <trkpt lat="43.36372" lon="6.0039">
        <ele>549</ele>
        <time>2019-12-17T11:23:37.000Z</time>
      </trkpt>
      <trkpt lat="43.36372" lon="6.0039">
        <ele>549</ele>
        <time>2019-12-17T11:23:38.000Z</time>
      </trkpt>
      <trkpt lat="43.36372" lon="6.0039">
        <ele>549</ele>
        <time>2019-12-17T11:23:39.000Z</time>
      </trkpt>
      <trkpt lat="43.36372" lon="6.0039">
        <ele>549</ele>
        <time>2019-12-17T11:23:40.000Z</time>
      </trkpt>
      <trkpt lat="43.36372" lon="6.0039">
        <ele>549</ele>
        <time>2019-12-17T11:23:41.000Z</time>
      </trkpt>
      <trkpt lat="43.36372" lon="6.00391">
        <ele>549</ele>
        <time>2019-12-17T11:23:42.000Z</time>
      </trkpt>
      <trkpt lat="43.36372" lon="6.00391">
        <ele>549</ele>
        <time>2019-12-17T11:23:43.000Z</time>
      </trkpt>
      <trkpt lat="43.36372" lon="6.00391">
        <ele>549</ele>
        <time>2019-12-17T11:23:44.000Z</time>
      </trkpt>
      <trkpt lat="43.36372" lon="6.00391">
        <ele>549</ele>
        <time>2019-12-17T11:23:45.000Z</time>
      </trkpt>
      <trkpt lat="43.36372" lon="6.00391">
        <ele>549</ele>
        <time>2019-12-17T11:23:46.000Z</time>
      </trkpt>
      <trkpt lat="43.36372" lon="6.00391">
        <ele>549</ele>
        <time>2019-12-17T11:23:47.000Z</time>
      </trkpt>
      <trkpt lat="43.36372" lon="6.00391">
        <ele>549</ele>
        <time>2019-12-17T11:23:48.000Z</time>
      </trkpt>
      <trkpt lat="43.36372" lon="6.00391">
        <ele>549</ele>
        <time>2019-12-17T11:23:49.000Z</time>
      </trkpt>
      <trkpt lat="43.36372" lon="6.00392">
        <ele>549</ele>
        <time>2019-12-17T11:23:50.000Z</time>
      </trkpt>
      <trkpt lat="43.36372" lon="6.00392">
        <ele>549</ele>
        <time>2019-12-17T11:23:51.000Z</time>
      </trkpt>
      <trkpt lat="43.36372" lon="6.00392">
        <ele>549</ele>
        <time>2019-12-17T11:23:52.000Z</time>
      </trkpt>
      <trkpt lat="43.36372" lon="6.00392">
        <ele>549</ele>
        <time>2019-12-17T11:23:53.000Z</time>
      </trkpt>
      <trkpt lat="43.36372" lon="6.00392">
        <ele>549</ele>
        <time>2019-12-17T11:23:54.000Z</time>
      </trkpt>
      <trkpt lat="43.36372" lon="6.00392">
        <ele>549</ele>
        <time>2019-12-17T11:23:55.000Z</time>
      </trkpt>
      <trkpt lat="43.36372" lon="6.00392">
        <ele>549</ele>
        <time>2019-12-17T11:23:56.000Z</time>
      </trkpt>
      <trkpt lat="43.36372" lon="6.00392">
        <ele>549</ele>
        <time>2019-12-17T11:23:57.000Z</time>
      </trkpt>
      <trkpt lat="43.36372" lon="6.00392">
        <ele>549</ele>
        <time>2019-12-17T11:23:58.000Z</time>
      </trkpt>
      <trkpt lat="43.36372" lon="6.00392">
        <ele>549</ele>
        <time>2019-12-17T11:23:59.000Z</time>
      </trkpt>
      <trkpt lat="43.36372" lon="6.00392">
        <ele>549</ele>
        <time>2019-12-17T11:24:00.000Z</time>
      </trkpt>
      <trkpt lat="43.36372" lon="6.00392">
        <ele>549</ele>
        <time>2019-12-17T11:24:01.000Z</time>
      </trkpt>
      <trkpt lat="43.36372" lon="6.00392">
        <ele>549</ele>
        <time>2019-12-17T11:24:02.000Z</time>
      </trkpt>
      <trkpt lat="43.36372" lon="6.00392">
        <ele>549</ele>
        <time>2019-12-17T11:24:03.000Z</time>
      </trkpt>
      <trkpt lat="43.36372" lon="6.00391">
        <ele>549</ele>
        <time>2019-12-17T11:24:04.000Z</time>
      </trkpt>
      <trkpt lat="43.36372" lon="6.00391">
        <ele>549</ele>
        <time>2019-12-17T11:24:05.000Z</time>
      </trkpt>
      <trkpt lat="43.36372" lon="6.00391">
        <ele>549</ele>
        <time>2019-12-17T11:24:06.000Z</time>
      </trkpt>
      <trkpt lat="43.36372" lon="6.00392">
        <ele>549</ele>
        <time>2019-12-17T11:24:07.000Z</time>
      </trkpt>
      <trkpt lat="43.36372" lon="6.00392">
        <ele>549</ele>
        <time>2019-12-17T11:24:08.000Z</time>
      </trkpt>
      <trkpt lat="43.36372" lon="6.00392">
        <ele>549</ele>
        <time>2019-12-17T11:24:09.000Z</time>
      </trkpt>
      <trkpt lat="43.36372" lon="6.00392">
        <ele>549</ele>
        <time>2019-12-17T11:24:10.000Z</time>
      </trkpt>
      <trkpt lat="43.36372" lon="6.00392">
        <ele>549</ele>
        <time>2019-12-17T11:24:11.000Z</time>
      </trkpt>
      <trkpt lat="43.36372" lon="6.00392">
        <ele>549</ele>
        <time>2019-12-17T11:24:12.000Z</time>
      </trkpt>
      <trkpt lat="43.36372" lon="6.00392">
        <ele>549</ele>
        <time>2019-12-17T11:24:13.000Z</time>
      </trkpt>
      <trkpt lat="43.36372" lon="6.00392">
        <ele>549</ele>
        <time>2019-12-17T11:24:14.000Z</time>
      </trkpt>
      <trkpt lat="43.36372" lon="6.00392">
        <ele>549</ele>
        <time>2019-12-17T11:24:15.000Z</time>
      </trkpt>
      <trkpt lat="43.36373" lon="6.00392">
        <ele>549</ele>
        <time>2019-12-17T11:24:16.000Z</time>
      </trkpt>
      <trkpt lat="43.36373" lon="6.00391">
        <ele>549</ele>
        <time>2019-12-17T11:24:17.000Z</time>
      </trkpt>
      <trkpt lat="43.36373" lon="6.00391">
        <ele>549</ele>
        <time>2019-12-17T11:24:18.000Z</time>
      </trkpt>
      <trkpt lat="43.36373" lon="6.00391">
        <ele>549</ele>
        <time>2019-12-17T11:24:19.000Z</time>
      </trkpt>
      <trkpt lat="43.36373" lon="6.00391">
        <ele>549</ele>
        <time>2019-12-17T11:24:20.000Z</time>
      </trkpt>
      <trkpt lat="43.36374" lon="6.0039">
        <ele>549</ele>
        <time>2019-12-17T11:24:21.000Z</time>
      </trkpt>
      <trkpt lat="43.36374" lon="6.0039">
        <ele>549</ele>
        <time>2019-12-17T11:24:22.000Z</time>
      </trkpt>
      <trkpt lat="43.36375" lon="6.00389">
        <ele>549</ele>
        <time>2019-12-17T11:24:23.000Z</time>
      </trkpt>
      <trkpt lat="43.36375" lon="6.00389">
        <ele>549</ele>
        <time>2019-12-17T11:24:24.000Z</time>
      </trkpt>
      <trkpt lat="43.36376" lon="6.00389">
        <ele>549</ele>
        <time>2019-12-17T11:24:25.000Z</time>
      </trkpt>
      <trkpt lat="43.36377" lon="6.00388">
        <ele>549</ele>
        <time>2019-12-17T11:24:26.000Z</time>
      </trkpt>
      <trkpt lat="43.36377" lon="6.00387">
        <ele>549</ele>
        <time>2019-12-17T11:24:27.000Z</time>
      </trkpt>
      <trkpt lat="43.36377" lon="6.00387">
        <ele>549</ele>
        <time>2019-12-17T11:24:28.000Z</time>
      </trkpt>
      <trkpt lat="43.36378" lon="6.00387">
        <ele>549</ele>
        <time>2019-12-17T11:24:29.000Z</time>
      </trkpt>
      <trkpt lat="43.36378" lon="6.00386">
        <ele>549</ele>
        <time>2019-12-17T11:24:30.000Z</time>
      </trkpt>
      <trkpt lat="43.36378" lon="6.00386">
        <ele>549</ele>
        <time>2019-12-17T11:24:31.000Z</time>
      </trkpt>
      <trkpt lat="43.36378" lon="6.00386">
        <ele>549</ele>
        <time>2019-12-17T11:24:32.000Z</time>
      </trkpt>
      <trkpt lat="43.36379" lon="6.00386">
        <ele>549</ele>
        <time>2019-12-17T11:24:33.000Z</time>
      </trkpt>
      <trkpt lat="43.36379" lon="6.00385">
        <ele>549</ele>
        <time>2019-12-17T11:24:34.000Z</time>
      </trkpt>
      <trkpt lat="43.36379" lon="6.00385">
        <ele>549</ele>
        <time>2019-12-17T11:24:35.000Z</time>
      </trkpt>
      <trkpt lat="43.36379" lon="6.00385">
        <ele>549</ele>
        <time>2019-12-17T11:24:36.000Z</time>
      </trkpt>
      <trkpt lat="43.36379" lon="6.00385">
        <ele>549</ele>
        <time>2019-12-17T11:24:37.000Z</time>
      </trkpt>
      <trkpt lat="43.36379" lon="6.00385">
        <ele>549</ele>
        <time>2019-12-17T11:24:38.000Z</time>
      </trkpt>
      <trkpt lat="43.36379" lon="6.00385">
        <ele>549</ele>
        <time>2019-12-17T11:24:39.000Z</time>
      </trkpt>
      <trkpt lat="43.36379" lon="6.00385">
        <ele>549</ele>
        <time>2019-12-17T11:24:40.000Z</time>
      </trkpt>
      <trkpt lat="43.36379" lon="6.00385">
        <ele>549</ele>
        <time>2019-12-17T11:24:41.000Z</time>
      </trkpt>
      <trkpt lat="43.36379" lon="6.00384">
        <ele>549</ele>
        <time>2019-12-17T11:24:42.000Z</time>
      </trkpt>
      <trkpt lat="43.36379" lon="6.00384">
        <ele>549</ele>
        <time>2019-12-17T11:24:43.000Z</time>
      </trkpt>
      <trkpt lat="43.36379" lon="6.00384">
        <ele>549</ele>
        <time>2019-12-17T11:24:44.000Z</time>
      </trkpt>
      <trkpt lat="43.36379" lon="6.00383">
        <ele>549</ele>
        <time>2019-12-17T11:24:45.000Z</time>
      </trkpt>
      <trkpt lat="43.36379" lon="6.00383">
        <ele>549</ele>
        <time>2019-12-17T11:24:46.000Z</time>
      </trkpt>
      <trkpt lat="43.36379" lon="6.00382">
        <ele>549</ele>
        <time>2019-12-17T11:24:47.000Z</time>
      </trkpt>
      <trkpt lat="43.36378" lon="6.00381">
        <ele>549</ele>
        <time>2019-12-17T11:24:48.000Z</time>
      </trkpt>
      <trkpt lat="43.36378" lon="6.00381">
        <ele>549</ele>
        <time>2019-12-17T11:24:49.000Z</time>
      </trkpt>
      <trkpt lat="43.36377" lon="6.0038">
        <ele>549</ele>
        <time>2019-12-17T11:24:50.000Z</time>
      </trkpt>
      <trkpt lat="43.36377" lon="6.00379">
        <ele>549</ele>
        <time>2019-12-17T11:24:51.000Z</time>
      </trkpt>
      <trkpt lat="43.36376" lon="6.00378">
        <ele>549</ele>
        <time>2019-12-17T11:24:52.000Z</time>
      </trkpt>
      <trkpt lat="43.36376" lon="6.00377">
        <ele>549</ele>
        <time>2019-12-17T11:24:53.000Z</time>
      </trkpt>
      <trkpt lat="43.36375" lon="6.00377">
        <ele>549</ele>
        <time>2019-12-17T11:24:54.000Z</time>
      </trkpt>
      <trkpt lat="43.36375" lon="6.00377">
        <ele>549</ele>
        <time>2019-12-17T11:24:55.000Z</time>
      </trkpt>
      <trkpt lat="43.36375" lon="6.00377">
        <ele>549</ele>
        <time>2019-12-17T11:24:56.000Z</time>
      </trkpt>
      <trkpt lat="43.36375" lon="6.00376">
        <ele>549</ele>
        <time>2019-12-17T11:24:57.000Z</time>
      </trkpt>
      <trkpt lat="43.36375" lon="6.00376">
        <ele>549</ele>
        <time>2019-12-17T11:24:58.000Z</time>
      </trkpt>
      <trkpt lat="43.36375" lon="6.00375">
        <ele>549</ele>
        <time>2019-12-17T11:24:59.000Z</time>
      </trkpt>
      <trkpt lat="43.36375" lon="6.00375">
        <ele>549</ele>
        <time>2019-12-17T11:25:00.000Z</time>
      </trkpt>
      <trkpt lat="43.36375" lon="6.00374">
        <ele>549</ele>
        <time>2019-12-17T11:25:01.000Z</time>
      </trkpt>
      <trkpt lat="43.36374" lon="6.00373">
        <ele>549</ele>
        <time>2019-12-17T11:25:02.000Z</time>
      </trkpt>
      <trkpt lat="43.36374" lon="6.00373">
        <ele>549</ele>
        <time>2019-12-17T11:25:03.000Z</time>
      </trkpt>
      <trkpt lat="43.36374" lon="6.00372">
        <ele>549</ele>
        <time>2019-12-17T11:25:04.000Z</time>
      </trkpt>
      <trkpt lat="43.36374" lon="6.00371">
        <ele>549</ele>
        <time>2019-12-17T11:25:05.000Z</time>
      </trkpt>
      <trkpt lat="43.36373" lon="6.00371">
        <ele>549</ele>
        <time>2019-12-17T11:25:06.000Z</time>
      </trkpt>
      <trkpt lat="43.36373" lon="6.0037">
        <ele>549</ele>
        <time>2019-12-17T11:25:07.000Z</time>
      </trkpt>
      <trkpt lat="43.36372" lon="6.00369">
        <ele>549</ele>
        <time>2019-12-17T11:25:08.000Z</time>
      </trkpt>
      <trkpt lat="43.36372" lon="6.00369">
        <ele>549</ele>
        <time>2019-12-17T11:25:09.000Z</time>
      </trkpt>
      <trkpt lat="43.36371" lon="6.00369">
        <ele>549</ele>
        <time>2019-12-17T11:25:10.000Z</time>
      </trkpt>
      <trkpt lat="43.36371" lon="6.00369">
        <ele>549</ele>
        <time>2019-12-17T11:25:11.000Z</time>
      </trkpt>
      <trkpt lat="43.36371" lon="6.00369">
        <ele>549</ele>
        <time>2019-12-17T11:25:12.000Z</time>
      </trkpt>
      <trkpt lat="43.36371" lon="6.00369">
        <ele>549</ele>
        <time>2019-12-17T11:25:13.000Z</time>
      </trkpt>
      <trkpt lat="43.36371" lon="6.00368">
        <ele>549</ele>
        <time>2019-12-17T11:25:14.000Z</time>
      </trkpt>
      <trkpt lat="43.3637" lon="6.00368">
        <ele>549</ele>
        <time>2019-12-17T11:25:15.000Z</time>
      </trkpt>
      <trkpt lat="43.36369" lon="6.00368">
        <ele>549</ele>
        <time>2019-12-17T11:25:16.000Z</time>
      </trkpt>
      <trkpt lat="43.36369" lon="6.00368">
        <ele>549</ele>
        <time>2019-12-17T11:25:17.000Z</time>
      </trkpt>
      <trkpt lat="43.36369" lon="6.00367">
        <ele>549</ele>
        <time>2019-12-17T11:25:18.000Z</time>
      </trkpt>
      <trkpt lat="43.36369" lon="6.00367">
        <ele>549</ele>
        <time>2019-12-17T11:25:19.000Z</time>
      </trkpt>
      <trkpt lat="43.36369" lon="6.00366">
        <ele>549</ele>
        <time>2019-12-17T11:25:20.000Z</time>
      </trkpt>
      <trkpt lat="43.36369" lon="6.00365">
        <ele>549</ele>
        <time>2019-12-17T11:25:21.000Z</time>
      </trkpt>
      <trkpt lat="43.36369" lon="6.00365">
        <ele>549</ele>
        <time>2019-12-17T11:25:22.000Z</time>
      </trkpt>
      <trkpt lat="43.36369" lon="6.00364">
        <ele>549</ele>
        <time>2019-12-17T11:25:23.000Z</time>
      </trkpt>
      <trkpt lat="43.36369" lon="6.00363">
        <ele>549</ele>
        <time>2019-12-17T11:25:24.000Z</time>
      </trkpt>
      <trkpt lat="43.36369" lon="6.00361">
        <ele>549</ele>
        <time>2019-12-17T11:25:25.000Z</time>
      </trkpt>
      <trkpt lat="43.36369" lon="6.0036">
        <ele>549</ele>
        <time>2019-12-17T11:25:26.000Z</time>
      </trkpt>
      <trkpt lat="43.36368" lon="6.00358">
        <ele>549</ele>
        <time>2019-12-17T11:25:27.000Z</time>
      </trkpt>
      <trkpt lat="43.36368" lon="6.00357">
        <ele>549</ele>
        <time>2019-12-17T11:25:28.000Z</time>
      </trkpt>
      <trkpt lat="43.36368" lon="6.00355">
        <ele>549</ele>
        <time>2019-12-17T11:25:29.000Z</time>
      </trkpt>
      <trkpt lat="43.36368" lon="6.00353">
        <ele>549</ele>
        <time>2019-12-17T11:25:30.000Z</time>
      </trkpt>
      <trkpt lat="43.36368" lon="6.00351">
        <ele>549</ele>
        <time>2019-12-17T11:25:31.000Z</time>
      </trkpt>
      <trkpt lat="43.36368" lon="6.00349">
        <ele>549</ele>
        <time>2019-12-17T11:25:32.000Z</time>
      </trkpt>
      <trkpt lat="43.36368" lon="6.00347">
        <ele>549</ele>
        <time>2019-12-17T11:25:33.000Z</time>
      </trkpt>
      <trkpt lat="43.36368" lon="6.00346">
        <ele>549</ele>
        <time>2019-12-17T11:25:34.000Z</time>
      </trkpt>
      <trkpt lat="43.36368" lon="6.00344">
        <ele>549</ele>
        <time>2019-12-17T11:25:35.000Z</time>
      </trkpt>
      <trkpt lat="43.36368" lon="6.00342">
        <ele>549</ele>
        <time>2019-12-17T11:25:36.000Z</time>
      </trkpt>
      <trkpt lat="43.36368" lon="6.0034">
        <ele>549</ele>
        <time>2019-12-17T11:25:37.000Z</time>
      </trkpt>
      <trkpt lat="43.36368" lon="6.00338">
        <ele>549</ele>
        <time>2019-12-17T11:25:38.000Z</time>
      </trkpt>
      <trkpt lat="43.36368" lon="6.00336">
        <ele>549</ele>
        <time>2019-12-17T11:25:39.000Z</time>
      </trkpt>
      <trkpt lat="43.36369" lon="6.00334">
        <ele>549</ele>
        <time>2019-12-17T11:25:40.000Z</time>
      </trkpt>
      <trkpt lat="43.3637" lon="6.00332">
        <ele>549</ele>
        <time>2019-12-17T11:25:41.000Z</time>
      </trkpt>
      <trkpt lat="43.36371" lon="6.0033">
        <ele>549</ele>
        <time>2019-12-17T11:25:42.000Z</time>
      </trkpt>
      <trkpt lat="43.36372" lon="6.00328">
        <ele>549</ele>
        <time>2019-12-17T11:25:43.000Z</time>
      </trkpt>
      <trkpt lat="43.36372" lon="6.00325">
        <ele>549</ele>
        <time>2019-12-17T11:25:44.000Z</time>
      </trkpt>
      <trkpt lat="43.36373" lon="6.00323">
        <ele>549</ele>
        <time>2019-12-17T11:25:45.000Z</time>
      </trkpt>
      <trkpt lat="43.36374" lon="6.00322">
        <ele>549</ele>
        <time>2019-12-17T11:25:46.000Z</time>
      </trkpt>
      <trkpt lat="43.36375" lon="6.00319">
        <ele>549</ele>
        <time>2019-12-17T11:25:47.000Z</time>
      </trkpt>
      <trkpt lat="43.36376" lon="6.00317">
        <ele>549</ele>
        <time>2019-12-17T11:25:48.000Z</time>
      </trkpt>
      <trkpt lat="43.36376" lon="6.00315">
        <ele>549</ele>
        <time>2019-12-17T11:25:49.000Z</time>
      </trkpt>
      <trkpt lat="43.36377" lon="6.00313">
        <ele>549</ele>
        <time>2019-12-17T11:25:50.000Z</time>
      </trkpt>
      <trkpt lat="43.36377" lon="6.00311">
        <ele>549</ele>
        <time>2019-12-17T11:25:51.000Z</time>
      </trkpt>
      <trkpt lat="43.36378" lon="6.00309">
        <ele>549</ele>
        <time>2019-12-17T11:25:52.000Z</time>
      </trkpt>
      <trkpt lat="43.36378" lon="6.00307">
        <ele>549</ele>
        <time>2019-12-17T11:25:53.000Z</time>
      </trkpt>
      <trkpt lat="43.36379" lon="6.00305">
        <ele>550</ele>
        <time>2019-12-17T11:25:54.000Z</time>
      </trkpt>
      <trkpt lat="43.36379" lon="6.00302">
        <ele>550</ele>
        <time>2019-12-17T11:25:55.000Z</time>
      </trkpt>
      <trkpt lat="43.3638" lon="6.003">
        <ele>550</ele>
        <time>2019-12-17T11:25:56.000Z</time>
      </trkpt>
      <trkpt lat="43.3638" lon="6.00297">
        <ele>550</ele>
        <time>2019-12-17T11:25:57.000Z</time>
      </trkpt>
      <trkpt lat="43.36381" lon="6.00294">
        <ele>550</ele>
        <time>2019-12-17T11:25:58.000Z</time>
      </trkpt>
      <trkpt lat="43.36381" lon="6.00291">
        <ele>550</ele>
        <time>2019-12-17T11:25:59.000Z</time>
      </trkpt>
      <trkpt lat="43.36382" lon="6.00289">
        <ele>550</ele>
        <time>2019-12-17T11:26:00.000Z</time>
      </trkpt>
      <trkpt lat="43.36383" lon="6.00287">
        <ele>550</ele>
        <time>2019-12-17T11:26:01.000Z</time>
      </trkpt>
      <trkpt lat="43.36383" lon="6.00285">
        <ele>550</ele>
        <time>2019-12-17T11:26:02.000Z</time>
      </trkpt>
      <trkpt lat="43.36384" lon="6.00283">
        <ele>550</ele>
        <time>2019-12-17T11:26:03.000Z</time>
      </trkpt>
      <trkpt lat="43.36384" lon="6.00282">
        <ele>550</ele>
        <time>2019-12-17T11:26:04.000Z</time>
      </trkpt>
      <trkpt lat="43.36384" lon="6.00281">
        <ele>550</ele>
        <time>2019-12-17T11:26:05.000Z</time>
      </trkpt>
      <trkpt lat="43.36384" lon="6.0028">
        <ele>550</ele>
        <time>2019-12-17T11:26:06.000Z</time>
      </trkpt>
      <trkpt lat="43.36384" lon="6.00279">
        <ele>550</ele>
        <time>2019-12-17T11:26:07.000Z</time>
      </trkpt>
      <trkpt lat="43.36385" lon="6.00279">
        <ele>550</ele>
        <time>2019-12-17T11:26:08.000Z</time>
      </trkpt>
      <trkpt lat="43.36385" lon="6.00278">
        <ele>550</ele>
        <time>2019-12-17T11:26:09.000Z</time>
      </trkpt>
      <trkpt lat="43.36385" lon="6.00276">
        <ele>550</ele>
        <time>2019-12-17T11:26:10.000Z</time>
      </trkpt>
      <trkpt lat="43.36386" lon="6.00275">
        <ele>550</ele>
        <time>2019-12-17T11:26:11.000Z</time>
      </trkpt>
      <trkpt lat="43.36386" lon="6.00272">
        <ele>550</ele>
        <time>2019-12-17T11:26:12.000Z</time>
      </trkpt>
      <trkpt lat="43.36386" lon="6.0027">
        <ele>550</ele>
        <time>2019-12-17T11:26:13.000Z</time>
      </trkpt>
      <trkpt lat="43.36386" lon="6.00268">
        <ele>550</ele>
        <time>2019-12-17T11:26:14.000Z</time>
      </trkpt>
      <trkpt lat="43.36387" lon="6.00266">
        <ele>550</ele>
        <time>2019-12-17T11:26:15.000Z</time>
      </trkpt>
      <trkpt lat="43.36387" lon="6.00264">
        <ele>550</ele>
        <time>2019-12-17T11:26:16.000Z</time>
      </trkpt>
      <trkpt lat="43.36387" lon="6.00262">
        <ele>550</ele>
        <time>2019-12-17T11:26:17.000Z</time>
      </trkpt>
      <trkpt lat="43.36388" lon="6.0026">
        <ele>550</ele>
        <time>2019-12-17T11:26:18.000Z</time>
      </trkpt>
      <trkpt lat="43.36388" lon="6.00258">
        <ele>550</ele>
        <time>2019-12-17T11:26:19.000Z</time>
      </trkpt>
      <trkpt lat="43.36389" lon="6.00257">
        <ele>550</ele>
        <time>2019-12-17T11:26:20.000Z</time>
      </trkpt>
      <trkpt lat="43.36389" lon="6.00255">
        <ele>550</ele>
        <time>2019-12-17T11:26:21.000Z</time>
      </trkpt>
      <trkpt lat="43.36389" lon="6.00253">
        <ele>550</ele>
        <time>2019-12-17T11:26:22.000Z</time>
      </trkpt>
      <trkpt lat="43.36388" lon="6.00252">
        <ele>550</ele>
        <time>2019-12-17T11:26:23.000Z</time>
      </trkpt>
      <trkpt lat="43.36388" lon="6.00251">
        <ele>550</ele>
        <time>2019-12-17T11:26:24.000Z</time>
      </trkpt>
      <trkpt lat="43.36387" lon="6.0025">
        <ele>550</ele>
        <time>2019-12-17T11:26:25.000Z</time>
      </trkpt>
      <trkpt lat="43.36387" lon="6.00249">
        <ele>550</ele>
        <time>2019-12-17T11:26:26.000Z</time>
      </trkpt>
      <trkpt lat="43.36387" lon="6.00248">
        <ele>550</ele>
        <time>2019-12-17T11:26:27.000Z</time>
      </trkpt>
      <trkpt lat="43.36386" lon="6.00247">
        <ele>550</ele>
        <time>2019-12-17T11:26:28.000Z</time>
      </trkpt>
      <trkpt lat="43.36386" lon="6.00247">
        <ele>550</ele>
        <time>2019-12-17T11:26:29.000Z</time>
      </trkpt>
      <trkpt lat="43.36385" lon="6.00246">
        <ele>550</ele>
        <time>2019-12-17T11:26:30.000Z</time>
      </trkpt>
      <trkpt lat="43.36384" lon="6.00245">
        <ele>550</ele>
        <time>2019-12-17T11:26:31.000Z</time>
      </trkpt>
      <trkpt lat="43.36384" lon="6.00244">
        <ele>550</ele>
        <time>2019-12-17T11:26:32.000Z</time>
      </trkpt>
      <trkpt lat="43.36383" lon="6.00243">
        <ele>550</ele>
        <time>2019-12-17T11:26:33.000Z</time>
      </trkpt>
      <trkpt lat="43.36383" lon="6.00242">
        <ele>550</ele>
        <time>2019-12-17T11:26:34.000Z</time>
      </trkpt>
      <trkpt lat="43.36383" lon="6.00242">
        <ele>550</ele>
        <time>2019-12-17T11:26:35.000Z</time>
      </trkpt>
      <trkpt lat="43.36382" lon="6.00241">
        <ele>551</ele>
        <time>2019-12-17T11:26:36.000Z</time>
      </trkpt>
      <trkpt lat="43.36382" lon="6.00239">
        <ele>551</ele>
        <time>2019-12-17T11:26:37.000Z</time>
      </trkpt>
      <trkpt lat="43.36382" lon="6.00238">
        <ele>551</ele>
        <time>2019-12-17T11:26:38.000Z</time>
      </trkpt>
      <trkpt lat="43.36382" lon="6.00237">
        <ele>551</ele>
        <time>2019-12-17T11:26:39.000Z</time>
      </trkpt>
      <trkpt lat="43.36382" lon="6.00236">
        <ele>551</ele>
        <time>2019-12-17T11:26:40.000Z</time>
      </trkpt>
      <trkpt lat="43.36382" lon="6.00234">
        <ele>551</ele>
        <time>2019-12-17T11:26:41.000Z</time>
      </trkpt>
      <trkpt lat="43.36382" lon="6.00233">
        <ele>551</ele>
        <time>2019-12-17T11:26:42.000Z</time>
      </trkpt>
      <trkpt lat="43.36382" lon="6.00231">
        <ele>551</ele>
        <time>2019-12-17T11:26:43.000Z</time>
      </trkpt>
      <trkpt lat="43.36382" lon="6.0023">
        <ele>551</ele>
        <time>2019-12-17T11:26:44.000Z</time>
      </trkpt>
      <trkpt lat="43.36382" lon="6.00228">
        <ele>551</ele>
        <time>2019-12-17T11:26:45.000Z</time>
      </trkpt>
      <trkpt lat="43.36382" lon="6.00227">
        <ele>551</ele>
        <time>2019-12-17T11:26:46.000Z</time>
      </trkpt>
      <trkpt lat="43.36382" lon="6.00226">
        <ele>551</ele>
        <time>2019-12-17T11:26:47.000Z</time>
      </trkpt>
      <trkpt lat="43.36381" lon="6.00225">
        <ele>551</ele>
        <time>2019-12-17T11:26:48.000Z</time>
      </trkpt>
      <trkpt lat="43.36381" lon="6.00224">
        <ele>550</ele>
        <time>2019-12-17T11:26:49.000Z</time>
      </trkpt>
      <trkpt lat="43.36381" lon="6.00224">
        <ele>550</ele>
        <time>2019-12-17T11:26:50.000Z</time>
      </trkpt>
      <trkpt lat="43.36381" lon="6.00222">
        <ele>550</ele>
        <time>2019-12-17T11:26:51.000Z</time>
      </trkpt>
      <trkpt lat="43.36381" lon="6.00221">
        <ele>550</ele>
        <time>2019-12-17T11:26:52.000Z</time>
      </trkpt>
      <trkpt lat="43.3638" lon="6.0022">
        <ele>550</ele>
        <time>2019-12-17T11:26:53.000Z</time>
      </trkpt>
      <trkpt lat="43.3638" lon="6.00218">
        <ele>550</ele>
        <time>2019-12-17T11:26:54.000Z</time>
      </trkpt>
      <trkpt lat="43.3638" lon="6.00217">
        <ele>550</ele>
        <time>2019-12-17T11:26:55.000Z</time>
      </trkpt>
      <trkpt lat="43.3638" lon="6.00216">
        <ele>550</ele>
        <time>2019-12-17T11:26:56.000Z</time>
      </trkpt>
      <trkpt lat="43.3638" lon="6.00215">
        <ele>550</ele>
        <time>2019-12-17T11:26:57.000Z</time>
      </trkpt>
      <trkpt lat="43.3638" lon="6.00214">
        <ele>550</ele>
        <time>2019-12-17T11:26:58.000Z</time>
      </trkpt>
      <trkpt lat="43.36381" lon="6.00213">
        <ele>550</ele>
        <time>2019-12-17T11:26:59.000Z</time>
      </trkpt>
      <trkpt lat="43.36381" lon="6.00213">
        <ele>550</ele>
        <time>2019-12-17T11:27:00.000Z</time>
      </trkpt>
      <trkpt lat="43.36381" lon="6.00212">
        <ele>550</ele>
        <time>2019-12-17T11:27:01.000Z</time>
      </trkpt>
      <trkpt lat="43.36381" lon="6.00212">
        <ele>550</ele>
        <time>2019-12-17T11:27:02.000Z</time>
      </trkpt>
      <trkpt lat="43.36381" lon="6.00211">
        <ele>550</ele>
        <time>2019-12-17T11:27:03.000Z</time>
      </trkpt>
      <trkpt lat="43.36382" lon="6.00211">
        <ele>550</ele>
        <time>2019-12-17T11:27:04.000Z</time>
      </trkpt>
      <trkpt lat="43.36382" lon="6.00211">
        <ele>550</ele>
        <time>2019-12-17T11:27:06.000Z</time>
      </trkpt>
      <trkpt lat="43.36382" lon="6.00211">
        <ele>550</ele>
        <time>2019-12-17T11:27:07.000Z</time>
      </trkpt>
      <trkpt lat="43.36382" lon="6.0021">
        <ele>550</ele>
        <time>2019-12-17T11:27:08.000Z</time>
      </trkpt>
      <trkpt lat="43.36382" lon="6.0021">
        <ele>550</ele>
        <time>2019-12-17T11:27:09.000Z</time>
      </trkpt>
      <trkpt lat="43.36382" lon="6.00209">
        <ele>550</ele>
        <time>2019-12-17T11:27:10.000Z</time>
      </trkpt>
      <trkpt lat="43.36382" lon="6.00209">
        <ele>550</ele>
        <time>2019-12-17T11:27:11.000Z</time>
      </trkpt>
      <trkpt lat="43.36382" lon="6.00209">
        <ele>550</ele>
        <time>2019-12-17T11:27:12.000Z</time>
      </trkpt>
      <trkpt lat="43.36382" lon="6.0021">
        <ele>551</ele>
        <time>2019-12-17T11:27:13.000Z</time>
      </trkpt>
      <trkpt lat="43.36382" lon="6.00209">
        <ele>551</ele>
        <time>2019-12-17T11:27:14.000Z</time>
      </trkpt>
      <trkpt lat="43.36383" lon="6.00209">
        <ele>551</ele>
        <time>2019-12-17T11:27:15.000Z</time>
      </trkpt>
      <trkpt lat="43.36383" lon="6.00208">
        <ele>551</ele>
        <time>2019-12-17T11:27:16.000Z</time>
      </trkpt>
      <trkpt lat="43.36383" lon="6.00208">
        <ele>551</ele>
        <time>2019-12-17T11:27:17.000Z</time>
      </trkpt>
      <trkpt lat="43.36384" lon="6.00207">
        <ele>551</ele>
        <time>2019-12-17T11:27:18.000Z</time>
      </trkpt>
      <trkpt lat="43.36385" lon="6.00205">
        <ele>551</ele>
        <time>2019-12-17T11:27:19.000Z</time>
      </trkpt>
      <trkpt lat="43.36386" lon="6.00204">
        <ele>551</ele>
        <time>2019-12-17T11:27:20.000Z</time>
      </trkpt>
      <trkpt lat="43.36386" lon="6.00204">
        <ele>550</ele>
        <time>2019-12-17T11:27:21.000Z</time>
      </trkpt>
      <trkpt lat="43.36387" lon="6.00203">
        <ele>550</ele>
        <time>2019-12-17T11:27:22.000Z</time>
      </trkpt>
      <trkpt lat="43.36387" lon="6.00203">
        <ele>550</ele>
        <time>2019-12-17T11:27:23.000Z</time>
      </trkpt>
      <trkpt lat="43.36388" lon="6.00202">
        <ele>550</ele>
        <time>2019-12-17T11:27:24.000Z</time>
      </trkpt>
      <trkpt lat="43.36388" lon="6.00202">
        <ele>550</ele>
        <time>2019-12-17T11:27:25.000Z</time>
      </trkpt>
      <trkpt lat="43.36388" lon="6.00202">
        <ele>550</ele>
        <time>2019-12-17T11:27:26.000Z</time>
      </trkpt>
      <trkpt lat="43.36389" lon="6.00201">
        <ele>550</ele>
        <time>2019-12-17T11:27:27.000Z</time>
      </trkpt>
      <trkpt lat="43.36389" lon="6.00201">
        <ele>551</ele>
        <time>2019-12-17T11:27:28.000Z</time>
      </trkpt>
      <trkpt lat="43.36389" lon="6.00201">
        <ele>551</ele>
        <time>2019-12-17T11:27:29.000Z</time>
      </trkpt>
      <trkpt lat="43.36388" lon="6.00202">
        <ele>551</ele>
        <time>2019-12-17T11:27:30.000Z</time>
      </trkpt>
      <trkpt lat="43.36388" lon="6.00202">
        <ele>551</ele>
        <time>2019-12-17T11:27:31.000Z</time>
      </trkpt>
      <trkpt lat="43.36388" lon="6.00203">
        <ele>552</ele>
        <time>2019-12-17T11:27:32.000Z</time>
      </trkpt>
      <trkpt lat="43.36387" lon="6.00204">
        <ele>552</ele>
        <time>2019-12-17T11:27:33.000Z</time>
      </trkpt>
      <trkpt lat="43.36386" lon="6.00205">
        <ele>553</ele>
        <time>2019-12-17T11:27:34.000Z</time>
      </trkpt>
      <trkpt lat="43.36386" lon="6.00206">
        <ele>554</ele>
        <time>2019-12-17T11:27:35.000Z</time>
      </trkpt>
      <trkpt lat="43.36385" lon="6.00207">
        <ele>554</ele>
        <time>2019-12-17T11:27:36.000Z</time>
      </trkpt>
      <trkpt lat="43.36385" lon="6.00208">
        <ele>554</ele>
        <time>2019-12-17T11:27:37.000Z</time>
      </trkpt>
      <trkpt lat="43.36385" lon="6.00209">
        <ele>555</ele>
        <time>2019-12-17T11:27:38.000Z</time>
      </trkpt>
      <trkpt lat="43.36385" lon="6.0021">
        <ele>555</ele>
        <time>2019-12-17T11:27:39.000Z</time>
      </trkpt>
      <trkpt lat="43.36385" lon="6.00211">
        <ele>555</ele>
        <time>2019-12-17T11:27:40.000Z</time>
      </trkpt>
      <trkpt lat="43.36384" lon="6.00212">
        <ele>555</ele>
        <time>2019-12-17T11:27:41.000Z</time>
      </trkpt>
      <trkpt lat="43.36384" lon="6.00213">
        <ele>555</ele>
        <time>2019-12-17T11:27:42.000Z</time>
      </trkpt>
      <trkpt lat="43.36384" lon="6.00214">
        <ele>555</ele>
        <time>2019-12-17T11:27:43.000Z</time>
      </trkpt>
      <trkpt lat="43.36383" lon="6.00215">
        <ele>555</ele>
        <time>2019-12-17T11:27:44.000Z</time>
      </trkpt>
      <trkpt lat="43.36383" lon="6.00215">
        <ele>555</ele>
        <time>2019-12-17T11:27:45.000Z</time>
      </trkpt>
      <trkpt lat="43.36383" lon="6.00216">
        <ele>555</ele>
        <time>2019-12-17T11:27:46.000Z</time>
      </trkpt>
      <trkpt lat="43.36384" lon="6.00215">
        <ele>555</ele>
        <time>2019-12-17T11:27:47.000Z</time>
      </trkpt>
      <trkpt lat="43.36384" lon="6.00215">
        <ele>555</ele>
        <time>2019-12-17T11:27:48.000Z</time>
      </trkpt>
      <trkpt lat="43.36384" lon="6.00216">
        <ele>555</ele>
        <time>2019-12-17T11:27:49.000Z</time>
      </trkpt>
      <trkpt lat="43.36384" lon="6.00216">
        <ele>555</ele>
        <time>2019-12-17T11:27:50.000Z</time>
      </trkpt>
      <trkpt lat="43.36384" lon="6.00215">
        <ele>555</ele>
        <time>2019-12-17T11:27:51.000Z</time>
      </trkpt>
      <trkpt lat="43.36384" lon="6.00216">
        <ele>555</ele>
        <time>2019-12-17T11:27:52.000Z</time>
      </trkpt>
      <trkpt lat="43.36384" lon="6.00216">
        <ele>555</ele>
        <time>2019-12-17T11:27:53.000Z</time>
      </trkpt>
      <trkpt lat="43.36384" lon="6.00216">
        <ele>555</ele>
        <time>2019-12-17T11:27:54.000Z</time>
      </trkpt>
      <trkpt lat="43.36384" lon="6.00217">
        <ele>555</ele>
        <time>2019-12-17T11:27:55.000Z</time>
      </trkpt>
      <trkpt lat="43.36383" lon="6.00217">
        <ele>555</ele>
        <time>2019-12-17T11:27:56.000Z</time>
      </trkpt>
      <trkpt lat="43.36383" lon="6.00218">
        <ele>555</ele>
        <time>2019-12-17T11:27:57.000Z</time>
      </trkpt>
      <trkpt lat="43.36382" lon="6.00218">
        <ele>555</ele>
        <time>2019-12-17T11:27:58.000Z</time>
      </trkpt>
      <trkpt lat="43.36382" lon="6.00219">
        <ele>555</ele>
        <time>2019-12-17T11:27:59.000Z</time>
      </trkpt>
      <trkpt lat="43.36381" lon="6.0022">
        <ele>555</ele>
        <time>2019-12-17T11:28:00.000Z</time>
      </trkpt>
      <trkpt lat="43.36381" lon="6.00221">
        <ele>555</ele>
        <time>2019-12-17T11:28:01.000Z</time>
      </trkpt>
      <trkpt lat="43.36381" lon="6.00222">
        <ele>555</ele>
        <time>2019-12-17T11:28:02.000Z</time>
      </trkpt>
      <trkpt lat="43.3638" lon="6.00223">
        <ele>555</ele>
        <time>2019-12-17T11:28:03.000Z</time>
      </trkpt>
      <trkpt lat="43.36379" lon="6.00224">
        <ele>555</ele>
        <time>2019-12-17T11:28:04.000Z</time>
      </trkpt>
      <trkpt lat="43.36379" lon="6.00225">
        <ele>555</ele>
        <time>2019-12-17T11:28:05.000Z</time>
      </trkpt>
      <trkpt lat="43.36378" lon="6.00226">
        <ele>555</ele>
        <time>2019-12-17T11:28:06.000Z</time>
      </trkpt>
      <trkpt lat="43.36377" lon="6.00227">
        <ele>555</ele>
        <time>2019-12-17T11:28:07.000Z</time>
      </trkpt>
      <trkpt lat="43.36377" lon="6.00228">
        <ele>555</ele>
        <time>2019-12-17T11:28:08.000Z</time>
      </trkpt>
      <trkpt lat="43.36376" lon="6.00229">
        <ele>555</ele>
        <time>2019-12-17T11:28:09.000Z</time>
      </trkpt>
      <trkpt lat="43.36376" lon="6.0023">
        <ele>555</ele>
        <time>2019-12-17T11:28:10.000Z</time>
      </trkpt>
      <trkpt lat="43.36375" lon="6.00231">
        <ele>555</ele>
        <time>2019-12-17T11:28:11.000Z</time>
      </trkpt>
      <trkpt lat="43.36374" lon="6.00233">
        <ele>555</ele>
        <time>2019-12-17T11:28:12.000Z</time>
      </trkpt>
      <trkpt lat="43.36374" lon="6.00234">
        <ele>555</ele>
        <time>2019-12-17T11:28:13.000Z</time>
      </trkpt>
      <trkpt lat="43.36373" lon="6.00235">
        <ele>555</ele>
        <time>2019-12-17T11:28:14.000Z</time>
      </trkpt>
      <trkpt lat="43.36373" lon="6.00235">
        <ele>556</ele>
        <time>2019-12-17T11:28:15.000Z</time>
      </trkpt>
      <trkpt lat="43.36373" lon="6.00236">
        <ele>556</ele>
        <time>2019-12-17T11:28:16.000Z</time>
      </trkpt>
      <trkpt lat="43.36373" lon="6.00237">
        <ele>556</ele>
        <time>2019-12-17T11:28:17.000Z</time>
      </trkpt>
      <trkpt lat="43.36373" lon="6.00238">
        <ele>556</ele>
        <time>2019-12-17T11:28:18.000Z</time>
      </trkpt>
      <trkpt lat="43.36372" lon="6.00239">
        <ele>556</ele>
        <time>2019-12-17T11:28:19.000Z</time>
      </trkpt>
      <trkpt lat="43.36372" lon="6.0024">
        <ele>555</ele>
        <time>2019-12-17T11:28:20.000Z</time>
      </trkpt>
      <trkpt lat="43.36371" lon="6.00241">
        <ele>555</ele>
        <time>2019-12-17T11:28:21.000Z</time>
      </trkpt>
      <trkpt lat="43.36371" lon="6.00242">
        <ele>555</ele>
        <time>2019-12-17T11:28:22.000Z</time>
      </trkpt>
      <trkpt lat="43.3637" lon="6.00242">
        <ele>555</ele>
        <time>2019-12-17T11:28:23.000Z</time>
      </trkpt>
      <trkpt lat="43.3637" lon="6.00243">
        <ele>555</ele>
        <time>2019-12-17T11:28:24.000Z</time>
      </trkpt>
      <trkpt lat="43.3637" lon="6.00244">
        <ele>555</ele>
        <time>2019-12-17T11:28:25.000Z</time>
      </trkpt>
      <trkpt lat="43.36369" lon="6.00244">
        <ele>555</ele>
        <time>2019-12-17T11:28:26.000Z</time>
      </trkpt>
      <trkpt lat="43.36369" lon="6.00244">
        <ele>555</ele>
        <time>2019-12-17T11:28:27.000Z</time>
      </trkpt>
      <trkpt lat="43.36369" lon="6.00245">
        <ele>555</ele>
        <time>2019-12-17T11:28:28.000Z</time>
      </trkpt>
      <trkpt lat="43.36369" lon="6.00245">
        <ele>555</ele>
        <time>2019-12-17T11:28:29.000Z</time>
      </trkpt>
      <trkpt lat="43.36369" lon="6.00246">
        <ele>555</ele>
        <time>2019-12-17T11:28:30.000Z</time>
      </trkpt>
      <trkpt lat="43.36368" lon="6.00246">
        <ele>555</ele>
        <time>2019-12-17T11:28:31.000Z</time>
      </trkpt>
      <trkpt lat="43.36368" lon="6.00246">
        <ele>555</ele>
        <time>2019-12-17T11:28:32.000Z</time>
      </trkpt>
      <trkpt lat="43.36368" lon="6.00246">
        <ele>555</ele>
        <time>2019-12-17T11:28:33.000Z</time>
      </trkpt>
      <trkpt lat="43.36368" lon="6.00246">
        <ele>555</ele>
        <time>2019-12-17T11:28:34.000Z</time>
      </trkpt>
      <trkpt lat="43.36368" lon="6.00246">
        <ele>555</ele>
        <time>2019-12-17T11:28:35.000Z</time>
      </trkpt>
      <trkpt lat="43.36368" lon="6.00246">
        <ele>555</ele>
        <time>2019-12-17T11:28:36.000Z</time>
      </trkpt>
      <trkpt lat="43.36368" lon="6.00247">
        <ele>555</ele>
        <time>2019-12-17T11:28:37.000Z</time>
      </trkpt>
      <trkpt lat="43.36367" lon="6.00247">
        <ele>555</ele>
        <time>2019-12-17T11:28:38.000Z</time>
      </trkpt>
      <trkpt lat="43.36367" lon="6.00248">
        <ele>554</ele>
        <time>2019-12-17T11:28:39.000Z</time>
      </trkpt>
      <trkpt lat="43.36366" lon="6.00248">
        <ele>554</ele>
        <time>2019-12-17T11:28:40.000Z</time>
      </trkpt>
      <trkpt lat="43.36366" lon="6.00249">
        <ele>554</ele>
        <time>2019-12-17T11:28:41.000Z</time>
      </trkpt>
      <trkpt lat="43.36365" lon="6.0025">
        <ele>554</ele>
        <time>2019-12-17T11:28:42.000Z</time>
      </trkpt>
      <trkpt lat="43.36365" lon="6.0025">
        <ele>554</ele>
        <time>2019-12-17T11:28:43.000Z</time>
      </trkpt>
      <trkpt lat="43.36364" lon="6.00251">
        <ele>554</ele>
        <time>2019-12-17T11:28:44.000Z</time>
      </trkpt>
      <trkpt lat="43.36364" lon="6.00252">
        <ele>554</ele>
        <time>2019-12-17T11:28:45.000Z</time>
      </trkpt>
      <trkpt lat="43.36363" lon="6.00253">
        <ele>554</ele>
        <time>2019-12-17T11:28:46.000Z</time>
      </trkpt>
      <trkpt lat="43.36362" lon="6.00254">
        <ele>554</ele>
        <time>2019-12-17T11:28:47.000Z</time>
      </trkpt>
      <trkpt lat="43.36361" lon="6.00255">
        <ele>554</ele>
        <time>2019-12-17T11:28:48.000Z</time>
      </trkpt>
      <trkpt lat="43.36361" lon="6.00256">
        <ele>554</ele>
        <time>2019-12-17T11:28:49.000Z</time>
      </trkpt>
      <trkpt lat="43.3636" lon="6.00257">
        <ele>553</ele>
        <time>2019-12-17T11:28:50.000Z</time>
      </trkpt>
      <trkpt lat="43.36359" lon="6.00258">
        <ele>553</ele>
        <time>2019-12-17T11:28:51.000Z</time>
      </trkpt>
      <trkpt lat="43.36359" lon="6.00258">
        <ele>553</ele>
        <time>2019-12-17T11:28:52.000Z</time>
      </trkpt>
      <trkpt lat="43.36358" lon="6.00258">
        <ele>553</ele>
        <time>2019-12-17T11:28:53.000Z</time>
      </trkpt>
      <trkpt lat="43.36358" lon="6.00259">
        <ele>553</ele>
        <time>2019-12-17T11:28:54.000Z</time>
      </trkpt>
      <trkpt lat="43.36357" lon="6.00259">
        <ele>553</ele>
        <time>2019-12-17T11:28:55.000Z</time>
      </trkpt>
      <trkpt lat="43.36357" lon="6.00259">
        <ele>553</ele>
        <time>2019-12-17T11:28:56.000Z</time>
      </trkpt>
      <trkpt lat="43.36357" lon="6.0026">
        <ele>553</ele>
        <time>2019-12-17T11:28:57.000Z</time>
      </trkpt>
      <trkpt lat="43.36357" lon="6.0026">
        <ele>553</ele>
        <time>2019-12-17T11:28:58.000Z</time>
      </trkpt>
      <trkpt lat="43.36356" lon="6.00261">
        <ele>553</ele>
        <time>2019-12-17T11:28:59.000Z</time>
      </trkpt>
      <trkpt lat="43.36356" lon="6.00261">
        <ele>552</ele>
        <time>2019-12-17T11:29:00.000Z</time>
      </trkpt>
      <trkpt lat="43.36355" lon="6.00261">
        <ele>552</ele>
        <time>2019-12-17T11:29:01.000Z</time>
      </trkpt>
      <trkpt lat="43.36355" lon="6.00262">
        <ele>552</ele>
        <time>2019-12-17T11:29:02.000Z</time>
      </trkpt>
      <trkpt lat="43.36355" lon="6.00262">
        <ele>552</ele>
        <time>2019-12-17T11:29:03.000Z</time>
      </trkpt>
      <trkpt lat="43.36354" lon="6.00263">
        <ele>552</ele>
        <time>2019-12-17T11:29:04.000Z</time>
      </trkpt>
      <trkpt lat="43.36354" lon="6.00264">
        <ele>552</ele>
        <time>2019-12-17T11:29:05.000Z</time>
      </trkpt>
      <trkpt lat="43.36353" lon="6.00264">
        <ele>551</ele>
        <time>2019-12-17T11:29:06.000Z</time>
      </trkpt>
      <trkpt lat="43.36352" lon="6.00265">
        <ele>551</ele>
        <time>2019-12-17T11:29:07.000Z</time>
      </trkpt>
      <trkpt lat="43.36352" lon="6.00266">
        <ele>551</ele>
        <time>2019-12-17T11:29:08.000Z</time>
      </trkpt>
      <trkpt lat="43.36351" lon="6.00267">
        <ele>551</ele>
        <time>2019-12-17T11:29:09.000Z</time>
      </trkpt>
      <trkpt lat="43.3635" lon="6.00267">
        <ele>551</ele>
        <time>2019-12-17T11:29:10.000Z</time>
      </trkpt>
      <trkpt lat="43.36349" lon="6.00268">
        <ele>551</ele>
        <time>2019-12-17T11:29:11.000Z</time>
      </trkpt>
      <trkpt lat="43.36349" lon="6.00269">
        <ele>550</ele>
        <time>2019-12-17T11:29:12.000Z</time>
      </trkpt>
      <trkpt lat="43.36348" lon="6.00269">
        <ele>550</ele>
        <time>2019-12-17T11:29:13.000Z</time>
      </trkpt>
      <trkpt lat="43.36348" lon="6.0027">
        <ele>550</ele>
        <time>2019-12-17T11:29:14.000Z</time>
      </trkpt>
      <trkpt lat="43.36347" lon="6.00271">
        <ele>550</ele>
        <time>2019-12-17T11:29:15.000Z</time>
      </trkpt>
      <trkpt lat="43.36346" lon="6.00272">
        <ele>550</ele>
        <time>2019-12-17T11:29:16.000Z</time>
      </trkpt>
      <trkpt lat="43.36346" lon="6.00272">
        <ele>550</ele>
        <time>2019-12-17T11:29:17.000Z</time>
      </trkpt>
      <trkpt lat="43.36345" lon="6.00273">
        <ele>550</ele>
        <time>2019-12-17T11:29:18.000Z</time>
      </trkpt>
      <trkpt lat="43.36345" lon="6.00274">
        <ele>550</ele>
        <time>2019-12-17T11:29:19.000Z</time>
      </trkpt>
      <trkpt lat="43.36344" lon="6.00274">
        <ele>551</ele>
        <time>2019-12-17T11:29:20.000Z</time>
      </trkpt>
      <trkpt lat="43.36344" lon="6.00275">
        <ele>551</ele>
        <time>2019-12-17T11:29:21.000Z</time>
      </trkpt>
      <trkpt lat="43.36343" lon="6.00275">
        <ele>551</ele>
        <time>2019-12-17T11:29:22.000Z</time>
      </trkpt>
      <trkpt lat="43.36342" lon="6.00275">
        <ele>551</ele>
        <time>2019-12-17T11:29:23.000Z</time>
      </trkpt>
      <trkpt lat="43.36341" lon="6.00275">
        <ele>551</ele>
        <time>2019-12-17T11:29:24.000Z</time>
      </trkpt>
      <trkpt lat="43.3634" lon="6.00276">
        <ele>551</ele>
        <time>2019-12-17T11:29:25.000Z</time>
      </trkpt>
      <trkpt lat="43.3634" lon="6.00276">
        <ele>551</ele>
        <time>2019-12-17T11:29:26.000Z</time>
      </trkpt>
      <trkpt lat="43.3634" lon="6.00276">
        <ele>551</ele>
        <time>2019-12-17T11:29:27.000Z</time>
      </trkpt>
      <trkpt lat="43.36339" lon="6.00276">
        <ele>551</ele>
        <time>2019-12-17T11:29:28.000Z</time>
      </trkpt>
      <trkpt lat="43.36339" lon="6.00277">
        <ele>551</ele>
        <time>2019-12-17T11:29:29.000Z</time>
      </trkpt>
      <trkpt lat="43.36338" lon="6.00277">
        <ele>551</ele>
        <time>2019-12-17T11:29:30.000Z</time>
      </trkpt>
      <trkpt lat="43.36338" lon="6.00278">
        <ele>551</ele>
        <time>2019-12-17T11:29:31.000Z</time>
      </trkpt>
      <trkpt lat="43.36337" lon="6.00278">
        <ele>552</ele>
        <time>2019-12-17T11:29:32.000Z</time>
      </trkpt>
      <trkpt lat="43.36336" lon="6.00278">
        <ele>552</ele>
        <time>2019-12-17T11:29:33.000Z</time>
      </trkpt>
      <trkpt lat="43.36335" lon="6.00279">
        <ele>552</ele>
        <time>2019-12-17T11:29:34.000Z</time>
      </trkpt>
      <trkpt lat="43.36334" lon="6.00279">
        <ele>552</ele>
        <time>2019-12-17T11:29:35.000Z</time>
      </trkpt>
      <trkpt lat="43.36334" lon="6.00279">
        <ele>552</ele>
        <time>2019-12-17T11:29:36.000Z</time>
      </trkpt>
      <trkpt lat="43.36333" lon="6.0028">
        <ele>553</ele>
        <time>2019-12-17T11:29:37.000Z</time>
      </trkpt>
      <trkpt lat="43.36332" lon="6.0028">
        <ele>553</ele>
        <time>2019-12-17T11:29:38.000Z</time>
      </trkpt>
      <trkpt lat="43.36331" lon="6.0028">
        <ele>553</ele>
        <time>2019-12-17T11:29:39.000Z</time>
      </trkpt>
      <trkpt lat="43.36331" lon="6.00281">
        <ele>553</ele>
        <time>2019-12-17T11:29:40.000Z</time>
      </trkpt>
      <trkpt lat="43.36329" lon="6.00282">
        <ele>554</ele>
        <time>2019-12-17T11:29:41.000Z</time>
      </trkpt>
      <trkpt lat="43.36328" lon="6.00283">
        <ele>554</ele>
        <time>2019-12-17T11:29:42.000Z</time>
      </trkpt>
      <trkpt lat="43.36327" lon="6.00284">
        <ele>554</ele>
        <time>2019-12-17T11:29:43.000Z</time>
      </trkpt>
      <trkpt lat="43.36326" lon="6.00284">
        <ele>554</ele>
        <time>2019-12-17T11:29:44.000Z</time>
      </trkpt>
      <trkpt lat="43.36325" lon="6.00285">
        <ele>554</ele>
        <time>2019-12-17T11:29:45.000Z</time>
      </trkpt>
      <trkpt lat="43.36324" lon="6.00286">
        <ele>554</ele>
        <time>2019-12-17T11:29:46.000Z</time>
      </trkpt>
      <trkpt lat="43.36323" lon="6.00287">
        <ele>555</ele>
        <time>2019-12-17T11:29:47.000Z</time>
      </trkpt>
      <trkpt lat="43.36322" lon="6.00288">
        <ele>555</ele>
        <time>2019-12-17T11:29:48.000Z</time>
      </trkpt>
      <trkpt lat="43.36321" lon="6.00289">
        <ele>555</ele>
        <time>2019-12-17T11:29:49.000Z</time>
      </trkpt>
      <trkpt lat="43.3632" lon="6.0029">
        <ele>555</ele>
        <time>2019-12-17T11:29:50.000Z</time>
      </trkpt>
      <trkpt lat="43.36319" lon="6.0029">
        <ele>555</ele>
        <time>2019-12-17T11:29:51.000Z</time>
      </trkpt>
      <trkpt lat="43.36318" lon="6.0029">
        <ele>556</ele>
        <time>2019-12-17T11:29:52.000Z</time>
      </trkpt>
      <trkpt lat="43.36317" lon="6.00291">
        <ele>556</ele>
        <time>2019-12-17T11:29:53.000Z</time>
      </trkpt>
      <trkpt lat="43.36316" lon="6.00291">
        <ele>556</ele>
        <time>2019-12-17T11:29:54.000Z</time>
      </trkpt>
      <trkpt lat="43.36314" lon="6.00291">
        <ele>556</ele>
        <time>2019-12-17T11:29:55.000Z</time>
      </trkpt>
      <trkpt lat="43.36313" lon="6.00291">
        <ele>556</ele>
        <time>2019-12-17T11:29:56.000Z</time>
      </trkpt>
      <trkpt lat="43.36312" lon="6.0029">
        <ele>556</ele>
        <time>2019-12-17T11:29:57.000Z</time>
      </trkpt>
      <trkpt lat="43.36312" lon="6.0029">
        <ele>557</ele>
        <time>2019-12-17T11:29:58.000Z</time>
      </trkpt>
      <trkpt lat="43.36311" lon="6.00289">
        <ele>557</ele>
        <time>2019-12-17T11:29:59.000Z</time>
      </trkpt>
      <trkpt lat="43.3631" lon="6.00289">
        <ele>557</ele>
        <time>2019-12-17T11:30:00.000Z</time>
      </trkpt>
      <trkpt lat="43.3631" lon="6.00289">
        <ele>557</ele>
        <time>2019-12-17T11:30:01.000Z</time>
      </trkpt>
      <trkpt lat="43.36309" lon="6.00289">
        <ele>557</ele>
        <time>2019-12-17T11:30:02.000Z</time>
      </trkpt>
      <trkpt lat="43.36308" lon="6.00289">
        <ele>557</ele>
        <time>2019-12-17T11:30:03.000Z</time>
      </trkpt>
      <trkpt lat="43.36307" lon="6.00289">
        <ele>557</ele>
        <time>2019-12-17T11:30:04.000Z</time>
      </trkpt>
      <trkpt lat="43.36307" lon="6.00289">
        <ele>557</ele>
        <time>2019-12-17T11:30:05.000Z</time>
      </trkpt>
      <trkpt lat="43.36306" lon="6.00289">
        <ele>558</ele>
        <time>2019-12-17T11:30:06.000Z</time>
      </trkpt>
      <trkpt lat="43.36305" lon="6.00289">
        <ele>558</ele>
        <time>2019-12-17T11:30:07.000Z</time>
      </trkpt>
      <trkpt lat="43.36304" lon="6.00289">
        <ele>558</ele>
        <time>2019-12-17T11:30:08.000Z</time>
      </trkpt>
      <trkpt lat="43.36303" lon="6.0029">
        <ele>558</ele>
        <time>2019-12-17T11:30:09.000Z</time>
      </trkpt>
      <trkpt lat="43.36302" lon="6.0029">
        <ele>558</ele>
        <time>2019-12-17T11:30:10.000Z</time>
      </trkpt>
      <trkpt lat="43.36301" lon="6.00291">
        <ele>558</ele>
        <time>2019-12-17T11:30:11.000Z</time>
      </trkpt>
      <trkpt lat="43.363" lon="6.00291">
        <ele>558</ele>
        <time>2019-12-17T11:30:12.000Z</time>
      </trkpt>
      <trkpt lat="43.36299" lon="6.00292">
        <ele>558</ele>
        <time>2019-12-17T11:30:13.000Z</time>
      </trkpt>
      <trkpt lat="43.36298" lon="6.00292">
        <ele>558</ele>
        <time>2019-12-17T11:30:14.000Z</time>
      </trkpt>
      <trkpt lat="43.36297" lon="6.00292">
        <ele>558</ele>
        <time>2019-12-17T11:30:15.000Z</time>
      </trkpt>
      <trkpt lat="43.36296" lon="6.00292">
        <ele>558</ele>
        <time>2019-12-17T11:30:16.000Z</time>
      </trkpt>
      <trkpt lat="43.36295" lon="6.00292">
        <ele>558</ele>
        <time>2019-12-17T11:30:17.000Z</time>
      </trkpt>
      <trkpt lat="43.36294" lon="6.00293">
        <ele>558</ele>
        <time>2019-12-17T11:30:18.000Z</time>
      </trkpt>
      <trkpt lat="43.36293" lon="6.00293">
        <ele>559</ele>
        <time>2019-12-17T11:30:19.000Z</time>
      </trkpt>
      <trkpt lat="43.36292" lon="6.00294">
        <ele>559</ele>
        <time>2019-12-17T11:30:20.000Z</time>
      </trkpt>
      <trkpt lat="43.36291" lon="6.00294">
        <ele>559</ele>
        <time>2019-12-17T11:30:21.000Z</time>
      </trkpt>
      <trkpt lat="43.36289" lon="6.00295">
        <ele>559</ele>
        <time>2019-12-17T11:30:22.000Z</time>
      </trkpt>
      <trkpt lat="43.36289" lon="6.00295">
        <ele>559</ele>
        <time>2019-12-17T11:30:23.000Z</time>
      </trkpt>
      <trkpt lat="43.36288" lon="6.00295">
        <ele>559</ele>
        <time>2019-12-17T11:30:24.000Z</time>
      </trkpt>
      <trkpt lat="43.36288" lon="6.00295">
        <ele>559</ele>
        <time>2019-12-17T11:30:25.000Z</time>
      </trkpt>
      <trkpt lat="43.36288" lon="6.00296">
        <ele>560</ele>
        <time>2019-12-17T11:30:26.000Z</time>
      </trkpt>
      <trkpt lat="43.36288" lon="6.00296">
        <ele>560</ele>
        <time>2019-12-17T11:30:27.000Z</time>
      </trkpt>
      <trkpt lat="43.36287" lon="6.00296">
        <ele>560</ele>
        <time>2019-12-17T11:30:28.000Z</time>
      </trkpt>
      <trkpt lat="43.36287" lon="6.00296">
        <ele>560</ele>
        <time>2019-12-17T11:30:29.000Z</time>
      </trkpt>
      <trkpt lat="43.36287" lon="6.00296">
        <ele>560</ele>
        <time>2019-12-17T11:30:30.000Z</time>
      </trkpt>
      <trkpt lat="43.36287" lon="6.00296">
        <ele>560</ele>
        <time>2019-12-17T11:30:31.000Z</time>
      </trkpt>
      <trkpt lat="43.36287" lon="6.00296">
        <ele>561</ele>
        <time>2019-12-17T11:30:32.000Z</time>
      </trkpt>
      <trkpt lat="43.36287" lon="6.00296">
        <ele>561</ele>
        <time>2019-12-17T11:30:33.000Z</time>
      </trkpt>
      <trkpt lat="43.36287" lon="6.00295">
        <ele>561</ele>
        <time>2019-12-17T11:30:34.000Z</time>
      </trkpt>
      <trkpt lat="43.36287" lon="6.00295">
        <ele>561</ele>
        <time>2019-12-17T11:30:35.000Z</time>
      </trkpt>
      <trkpt lat="43.36287" lon="6.00295">
        <ele>561</ele>
        <time>2019-12-17T11:30:36.000Z</time>
      </trkpt>
      <trkpt lat="43.36287" lon="6.00295">
        <ele>561</ele>
        <time>2019-12-17T11:30:37.000Z</time>
      </trkpt>
      <trkpt lat="43.36287" lon="6.00295">
        <ele>561</ele>
        <time>2019-12-17T11:30:38.000Z</time>
      </trkpt>
      <trkpt lat="43.36286" lon="6.00296">
        <ele>561</ele>
        <time>2019-12-17T11:30:39.000Z</time>
      </trkpt>
      <trkpt lat="43.36286" lon="6.00296">
        <ele>561</ele>
        <time>2019-12-17T11:30:40.000Z</time>
      </trkpt>
      <trkpt lat="43.36286" lon="6.00295">
        <ele>561</ele>
        <time>2019-12-17T11:30:41.000Z</time>
      </trkpt>
      <trkpt lat="43.36286" lon="6.00295">
        <ele>561</ele>
        <time>2019-12-17T11:30:42.000Z</time>
      </trkpt>
      <trkpt lat="43.36286" lon="6.00295">
        <ele>561</ele>
        <time>2019-12-17T11:30:43.000Z</time>
      </trkpt>
      <trkpt lat="43.36286" lon="6.00295">
        <ele>561</ele>
        <time>2019-12-17T11:30:44.000Z</time>
      </trkpt>
      <trkpt lat="43.36286" lon="6.00295">
        <ele>561</ele>
        <time>2019-12-17T11:30:45.000Z</time>
      </trkpt>
      <trkpt lat="43.36286" lon="6.00295">
        <ele>561</ele>
        <time>2019-12-17T11:30:46.000Z</time>
      </trkpt>
      <trkpt lat="43.36286" lon="6.00295">
        <ele>561</ele>
        <time>2019-12-17T11:30:47.000Z</time>
      </trkpt>
      <trkpt lat="43.36286" lon="6.00295">
        <ele>562</ele>
        <time>2019-12-17T11:30:48.000Z</time>
      </trkpt>
      <trkpt lat="43.36286" lon="6.00295">
        <ele>562</ele>
        <time>2019-12-17T11:30:49.000Z</time>
      </trkpt>
      <trkpt lat="43.36286" lon="6.00295">
        <ele>562</ele>
        <time>2019-12-17T11:30:50.000Z</time>
      </trkpt>
      <trkpt lat="43.36286" lon="6.00295">
        <ele>562</ele>
        <time>2019-12-17T11:30:51.000Z</time>
      </trkpt>
      <trkpt lat="43.36286" lon="6.00295">
        <ele>562</ele>
        <time>2019-12-17T11:30:52.000Z</time>
      </trkpt>
      <trkpt lat="43.36286" lon="6.00295">
        <ele>562</ele>
        <time>2019-12-17T11:30:53.000Z</time>
      </trkpt>
      <trkpt lat="43.36286" lon="6.00295">
        <ele>562</ele>
        <time>2019-12-17T11:30:54.000Z</time>
      </trkpt>
      <trkpt lat="43.36286" lon="6.00295">
        <ele>562</ele>
        <time>2019-12-17T11:30:55.000Z</time>
      </trkpt>
      <trkpt lat="43.36286" lon="6.00295">
        <ele>562</ele>
        <time>2019-12-17T11:30:56.000Z</time>
      </trkpt>
      <trkpt lat="43.36286" lon="6.00295">
        <ele>562</ele>
        <time>2019-12-17T11:30:57.000Z</time>
      </trkpt>
      <trkpt lat="43.36286" lon="6.00295">
        <ele>562</ele>
        <time>2019-12-17T11:30:58.000Z</time>
      </trkpt>
      <trkpt lat="43.36286" lon="6.00295">
        <ele>562</ele>
        <time>2019-12-17T11:30:59.000Z</time>
      </trkpt>
      <trkpt lat="43.36286" lon="6.00295">
        <ele>562</ele>
        <time>2019-12-17T11:31:00.000Z</time>
      </trkpt>
      <trkpt lat="43.36286" lon="6.00295">
        <ele>562</ele>
        <time>2019-12-17T11:31:01.000Z</time>
      </trkpt>
      <trkpt lat="43.36286" lon="6.00295">
        <ele>562</ele>
        <time>2019-12-17T11:31:02.000Z</time>
      </trkpt>
      <trkpt lat="43.36286" lon="6.00295">
        <ele>562</ele>
        <time>2019-12-17T11:31:03.000Z</time>
      </trkpt>
      <trkpt lat="43.36286" lon="6.00295">
        <ele>562</ele>
        <time>2019-12-17T11:31:04.000Z</time>
      </trkpt>
      <trkpt lat="43.36286" lon="6.00295">
        <ele>562</ele>
        <time>2019-12-17T11:31:05.000Z</time>
      </trkpt>
      <trkpt lat="43.36286" lon="6.00295">
        <ele>562</ele>
        <time>2019-12-17T11:31:06.000Z</time>
      </trkpt>
      <trkpt lat="43.36286" lon="6.00295">
        <ele>562</ele>
        <time>2019-12-17T11:31:07.000Z</time>
      </trkpt>
      <trkpt lat="43.36286" lon="6.00295">
        <ele>562</ele>
        <time>2019-12-17T11:31:08.000Z</time>
      </trkpt>
      <trkpt lat="43.36286" lon="6.00295">
        <ele>562</ele>
        <time>2019-12-17T11:31:09.000Z</time>
      </trkpt>
      <trkpt lat="43.36286" lon="6.00295">
        <ele>562</ele>
        <time>2019-12-17T11:31:10.000Z</time>
      </trkpt>
      <trkpt lat="43.36286" lon="6.00295">
        <ele>562</ele>
        <time>2019-12-17T11:31:11.000Z</time>
      </trkpt>
      <trkpt lat="43.36286" lon="6.00295">
        <ele>562</ele>
        <time>2019-12-17T11:31:12.000Z</time>
      </trkpt>
      <trkpt lat="43.36286" lon="6.00295">
        <ele>562</ele>
        <time>2019-12-17T11:31:13.000Z</time>
      </trkpt>
      <trkpt lat="43.36286" lon="6.00295">
        <ele>562</ele>
        <time>2019-12-17T11:31:14.000Z</time>
      </trkpt>
      <trkpt lat="43.36286" lon="6.00295">
        <ele>562</ele>
        <time>2019-12-17T11:31:15.000Z</time>
      </trkpt>
      <trkpt lat="43.36286" lon="6.00295">
        <ele>562</ele>
        <time>2019-12-17T11:31:16.000Z</time>
      </trkpt>
      <trkpt lat="43.36286" lon="6.00295">
        <ele>562</ele>
        <time>2019-12-17T11:31:17.000Z</time>
      </trkpt>
      <trkpt lat="43.36286" lon="6.00295">
        <ele>562</ele>
        <time>2019-12-17T11:31:18.000Z</time>
      </trkpt>
      <trkpt lat="43.36286" lon="6.00295">
        <ele>562</ele>
        <time>2019-12-17T11:31:19.000Z</time>
      </trkpt>
      <trkpt lat="43.36286" lon="6.00295">
        <ele>562</ele>
        <time>2019-12-17T11:31:20.000Z</time>
      </trkpt>
      <trkpt lat="43.36286" lon="6.00295">
        <ele>562</ele>
        <time>2019-12-17T11:31:21.000Z</time>
      </trkpt>
      <trkpt lat="43.36286" lon="6.00296">
        <ele>562</ele>
        <time>2019-12-17T11:31:22.000Z</time>
      </trkpt>
      <trkpt lat="43.36286" lon="6.00295">
        <ele>562</ele>
        <time>2019-12-17T11:31:23.000Z</time>
      </trkpt>
      <trkpt lat="43.36286" lon="6.00295">
        <ele>562</ele>
        <time>2019-12-17T11:31:24.000Z</time>
      </trkpt>
      <trkpt lat="43.36286" lon="6.00295">
        <ele>562</ele>
        <time>2019-12-17T11:31:25.000Z</time>
      </trkpt>
      <trkpt lat="43.36286" lon="6.00295">
        <ele>562</ele>
        <time>2019-12-17T11:31:26.000Z</time>
      </trkpt>
      <trkpt lat="43.36286" lon="6.00295">
        <ele>562</ele>
        <time>2019-12-17T11:31:27.000Z</time>
      </trkpt>
      <trkpt lat="43.36286" lon="6.00295">
        <ele>562</ele>
        <time>2019-12-17T11:31:28.000Z</time>
      </trkpt>
      <trkpt lat="43.36286" lon="6.00295">
        <ele>562</ele>
        <time>2019-12-17T11:31:29.000Z</time>
      </trkpt>
      <trkpt lat="43.36286" lon="6.00295">
        <ele>562</ele>
        <time>2019-12-17T11:31:30.000Z</time>
      </trkpt>
      <trkpt lat="43.36286" lon="6.00295">
        <ele>562</ele>
        <time>2019-12-17T11:31:31.000Z</time>
      </trkpt>
      <trkpt lat="43.36286" lon="6.00295">
        <ele>562</ele>
        <time>2019-12-17T11:31:32.000Z</time>
      </trkpt>
      <trkpt lat="43.36286" lon="6.00295">
        <ele>562</ele>
        <time>2019-12-17T11:31:33.000Z</time>
      </trkpt>
      <trkpt lat="43.36286" lon="6.00295">
        <ele>562</ele>
        <time>2019-12-17T11:31:34.000Z</time>
      </trkpt>
      <trkpt lat="43.36286" lon="6.00295">
        <ele>562</ele>
        <time>2019-12-17T11:31:35.000Z</time>
      </trkpt>
      <trkpt lat="43.36286" lon="6.00295">
        <ele>562</ele>
        <time>2019-12-17T11:31:36.000Z</time>
      </trkpt>
      <trkpt lat="43.36286" lon="6.00295">
        <ele>562</ele>
        <time>2019-12-17T11:31:37.000Z</time>
      </trkpt>
      <trkpt lat="43.36286" lon="6.00295">
        <ele>562</ele>
        <time>2019-12-17T11:31:38.000Z</time>
      </trkpt>
      <trkpt lat="43.36286" lon="6.00295">
        <ele>562</ele>
        <time>2019-12-17T11:31:39.000Z</time>
      </trkpt>
      <trkpt lat="43.36286" lon="6.00295">
        <ele>562</ele>
        <time>2019-12-17T11:31:40.000Z</time>
      </trkpt>
      <trkpt lat="43.36286" lon="6.00295">
        <ele>562</ele>
        <time>2019-12-17T11:31:41.000Z</time>
      </trkpt>
      <trkpt lat="43.36286" lon="6.00295">
        <ele>562</ele>
        <time>2019-12-17T11:31:42.000Z</time>
      </trkpt>
      <trkpt lat="43.36285" lon="6.00295">
        <ele>562</ele>
        <time>2019-12-17T11:31:43.000Z</time>
      </trkpt>
      <trkpt lat="43.36285" lon="6.00295">
        <ele>562</ele>
        <time>2019-12-17T11:31:44.000Z</time>
      </trkpt>
      <trkpt lat="43.36284" lon="6.00295">
        <ele>562</ele>
        <time>2019-12-17T11:31:45.000Z</time>
      </trkpt>
      <trkpt lat="43.36284" lon="6.00295">
        <ele>562</ele>
        <time>2019-12-17T11:31:46.000Z</time>
      </trkpt>
      <trkpt lat="43.36284" lon="6.00295">
        <ele>562</ele>
        <time>2019-12-17T11:31:47.000Z</time>
      </trkpt>
      <trkpt lat="43.36284" lon="6.00295">
        <ele>562</ele>
        <time>2019-12-17T11:31:48.000Z</time>
      </trkpt>
      <trkpt lat="43.36284" lon="6.00295">
        <ele>562</ele>
        <time>2019-12-17T11:31:49.000Z</time>
      </trkpt>
      <trkpt lat="43.36284" lon="6.00294">
        <ele>562</ele>
        <time>2019-12-17T11:31:50.000Z</time>
      </trkpt>
      <trkpt lat="43.36284" lon="6.00294">
        <ele>562</ele>
        <time>2019-12-17T11:31:51.000Z</time>
      </trkpt>
      <trkpt lat="43.36284" lon="6.00294">
        <ele>562</ele>
        <time>2019-12-17T11:31:52.000Z</time>
      </trkpt>
      <trkpt lat="43.36284" lon="6.00295">
        <ele>562</ele>
        <time>2019-12-17T11:31:53.000Z</time>
      </trkpt>
      <trkpt lat="43.36284" lon="6.00295">
        <ele>562</ele>
        <time>2019-12-17T11:31:54.000Z</time>
      </trkpt>
      <trkpt lat="43.36284" lon="6.00294">
        <ele>562</ele>
        <time>2019-12-17T11:31:55.000Z</time>
      </trkpt>
      <trkpt lat="43.36284" lon="6.00294">
        <ele>562</ele>
        <time>2019-12-17T11:31:56.000Z</time>
      </trkpt>
      <trkpt lat="43.36283" lon="6.00293">
        <ele>562</ele>
        <time>2019-12-17T11:31:57.000Z</time>
      </trkpt>
      <trkpt lat="43.36283" lon="6.00292">
        <ele>562</ele>
        <time>2019-12-17T11:31:58.000Z</time>
      </trkpt>
      <trkpt lat="43.36284" lon="6.00291">
        <ele>562</ele>
        <time>2019-12-17T11:31:59.000Z</time>
      </trkpt>
      <trkpt lat="43.36284" lon="6.0029">
        <ele>562</ele>
        <time>2019-12-17T11:32:00.000Z</time>
      </trkpt>
      <trkpt lat="43.36284" lon="6.00288">
        <ele>562</ele>
        <time>2019-12-17T11:32:01.000Z</time>
      </trkpt>
      <trkpt lat="43.36285" lon="6.00287">
        <ele>562</ele>
        <time>2019-12-17T11:32:02.000Z</time>
      </trkpt>
      <trkpt lat="43.36285" lon="6.00286">
        <ele>562</ele>
        <time>2019-12-17T11:32:03.000Z</time>
      </trkpt>
      <trkpt lat="43.36286" lon="6.00285">
        <ele>562</ele>
        <time>2019-12-17T11:32:04.000Z</time>
      </trkpt>
      <trkpt lat="43.36286" lon="6.00284">
        <ele>562</ele>
        <time>2019-12-17T11:32:05.000Z</time>
      </trkpt>
      <trkpt lat="43.36286" lon="6.00283">
        <ele>562</ele>
        <time>2019-12-17T11:32:06.000Z</time>
      </trkpt>
      <trkpt lat="43.36287" lon="6.00282">
        <ele>562</ele>
        <time>2019-12-17T11:32:07.000Z</time>
      </trkpt>
      <trkpt lat="43.36287" lon="6.00281">
        <ele>562</ele>
        <time>2019-12-17T11:32:08.000Z</time>
      </trkpt>
      <trkpt lat="43.36288" lon="6.0028">
        <ele>562</ele>
        <time>2019-12-17T11:32:09.000Z</time>
      </trkpt>
      <trkpt lat="43.36288" lon="6.00279">
        <ele>562</ele>
        <time>2019-12-17T11:32:10.000Z</time>
      </trkpt>
      <trkpt lat="43.36288" lon="6.00277">
        <ele>562</ele>
        <time>2019-12-17T11:32:11.000Z</time>
      </trkpt>
      <trkpt lat="43.36289" lon="6.00277">
        <ele>562</ele>
        <time>2019-12-17T11:32:12.000Z</time>
      </trkpt>
      <trkpt lat="43.36289" lon="6.00276">
        <ele>562</ele>
        <time>2019-12-17T11:32:13.000Z</time>
      </trkpt>
      <trkpt lat="43.3629" lon="6.00274">
        <ele>562</ele>
        <time>2019-12-17T11:32:14.000Z</time>
      </trkpt>
      <trkpt lat="43.3629" lon="6.00273">
        <ele>562</ele>
        <time>2019-12-17T11:32:15.000Z</time>
      </trkpt>
      <trkpt lat="43.3629" lon="6.00272">
        <ele>562</ele>
        <time>2019-12-17T11:32:16.000Z</time>
      </trkpt>
      <trkpt lat="43.3629" lon="6.00271">
        <ele>562</ele>
        <time>2019-12-17T11:32:17.000Z</time>
      </trkpt>
      <trkpt lat="43.3629" lon="6.00271">
        <ele>562</ele>
        <time>2019-12-17T11:32:18.000Z</time>
      </trkpt>
      <trkpt lat="43.3629" lon="6.0027">
        <ele>562</ele>
        <time>2019-12-17T11:32:19.000Z</time>
      </trkpt>
      <trkpt lat="43.3629" lon="6.00269">
        <ele>562</ele>
        <time>2019-12-17T11:32:20.000Z</time>
      </trkpt>
      <trkpt lat="43.3629" lon="6.00268">
        <ele>562</ele>
        <time>2019-12-17T11:32:21.000Z</time>
      </trkpt>
      <trkpt lat="43.3629" lon="6.00267">
        <ele>562</ele>
        <time>2019-12-17T11:32:22.000Z</time>
      </trkpt>
      <trkpt lat="43.36291" lon="6.00267">
        <ele>562</ele>
        <time>2019-12-17T11:32:23.000Z</time>
      </trkpt>
      <trkpt lat="43.36291" lon="6.00266">
        <ele>562</ele>
        <time>2019-12-17T11:32:24.000Z</time>
      </trkpt>
      <trkpt lat="43.36292" lon="6.00265">
        <ele>562</ele>
        <time>2019-12-17T11:32:25.000Z</time>
      </trkpt>
      <trkpt lat="43.36293" lon="6.00264">
        <ele>562</ele>
        <time>2019-12-17T11:32:26.000Z</time>
      </trkpt>
      <trkpt lat="43.36293" lon="6.00263">
        <ele>562</ele>
        <time>2019-12-17T11:32:27.000Z</time>
      </trkpt>
      <trkpt lat="43.36293" lon="6.00262">
        <ele>562</ele>
        <time>2019-12-17T11:32:28.000Z</time>
      </trkpt>
      <trkpt lat="43.36294" lon="6.00261">
        <ele>562</ele>
        <time>2019-12-17T11:32:29.000Z</time>
      </trkpt>
      <trkpt lat="43.36294" lon="6.00261">
        <ele>562</ele>
        <time>2019-12-17T11:32:30.000Z</time>
      </trkpt>
      <trkpt lat="43.36295" lon="6.0026">
        <ele>562</ele>
        <time>2019-12-17T11:32:31.000Z</time>
      </trkpt>
      <trkpt lat="43.36296" lon="6.00258">
        <ele>562</ele>
        <time>2019-12-17T11:32:32.000Z</time>
      </trkpt>
      <trkpt lat="43.36296" lon="6.00257">
        <ele>562</ele>
        <time>2019-12-17T11:32:33.000Z</time>
      </trkpt>
      <trkpt lat="43.36297" lon="6.00256">
        <ele>561</ele>
        <time>2019-12-17T11:32:34.000Z</time>
      </trkpt>
      <trkpt lat="43.36298" lon="6.00254">
        <ele>561</ele>
        <time>2019-12-17T11:32:35.000Z</time>
      </trkpt>
      <trkpt lat="43.36299" lon="6.00253">
        <ele>561</ele>
        <time>2019-12-17T11:32:36.000Z</time>
      </trkpt>
      <trkpt lat="43.36299" lon="6.00251">
        <ele>561</ele>
        <time>2019-12-17T11:32:37.000Z</time>
      </trkpt>
      <trkpt lat="43.363" lon="6.0025">
        <ele>561</ele>
        <time>2019-12-17T11:32:38.000Z</time>
      </trkpt>
      <trkpt lat="43.36301" lon="6.00248">
        <ele>562</ele>
        <time>2019-12-17T11:32:39.000Z</time>
      </trkpt>
      <trkpt lat="43.36301" lon="6.00247">
        <ele>562</ele>
        <time>2019-12-17T11:32:40.000Z</time>
      </trkpt>
      <trkpt lat="43.36302" lon="6.00245">
        <ele>562</ele>
        <time>2019-12-17T11:32:41.000Z</time>
      </trkpt>
      <trkpt lat="43.36302" lon="6.00244">
        <ele>562</ele>
        <time>2019-12-17T11:32:42.000Z</time>
      </trkpt>
      <trkpt lat="43.36303" lon="6.00243">
        <ele>562</ele>
        <time>2019-12-17T11:32:43.000Z</time>
      </trkpt>
      <trkpt lat="43.36303" lon="6.00241">
        <ele>562</ele>
        <time>2019-12-17T11:32:44.000Z</time>
      </trkpt>
      <trkpt lat="43.36304" lon="6.0024">
        <ele>562</ele>
        <time>2019-12-17T11:32:45.000Z</time>
      </trkpt>
      <trkpt lat="43.36304" lon="6.00239">
        <ele>562</ele>
        <time>2019-12-17T11:32:46.000Z</time>
      </trkpt>
      <trkpt lat="43.36304" lon="6.00239">
        <ele>562</ele>
        <time>2019-12-17T11:32:47.000Z</time>
      </trkpt>
      <trkpt lat="43.36304" lon="6.00238">
        <ele>562</ele>
        <time>2019-12-17T11:32:48.000Z</time>
      </trkpt>
      <trkpt lat="43.36304" lon="6.00237">
        <ele>562</ele>
        <time>2019-12-17T11:32:49.000Z</time>
      </trkpt>
      <trkpt lat="43.36304" lon="6.00237">
        <ele>562</ele>
        <time>2019-12-17T11:32:50.000Z</time>
      </trkpt>
      <trkpt lat="43.36304" lon="6.00236">
        <ele>562</ele>
        <time>2019-12-17T11:32:51.000Z</time>
      </trkpt>
      <trkpt lat="43.36304" lon="6.00235">
        <ele>562</ele>
        <time>2019-12-17T11:32:52.000Z</time>
      </trkpt>
      <trkpt lat="43.36304" lon="6.00234">
        <ele>563</ele>
        <time>2019-12-17T11:32:53.000Z</time>
      </trkpt>
      <trkpt lat="43.36304" lon="6.00232">
        <ele>563</ele>
        <time>2019-12-17T11:32:54.000Z</time>
      </trkpt>
      <trkpt lat="43.36305" lon="6.00231">
        <ele>563</ele>
        <time>2019-12-17T11:32:55.000Z</time>
      </trkpt>
      <trkpt lat="43.36305" lon="6.00229">
        <ele>563</ele>
        <time>2019-12-17T11:32:56.000Z</time>
      </trkpt>
      <trkpt lat="43.36306" lon="6.00228">
        <ele>563</ele>
        <time>2019-12-17T11:32:57.000Z</time>
      </trkpt>
      <trkpt lat="43.36306" lon="6.00226">
        <ele>563</ele>
        <time>2019-12-17T11:32:58.000Z</time>
      </trkpt>
      <trkpt lat="43.36306" lon="6.00225">
        <ele>563</ele>
        <time>2019-12-17T11:32:59.000Z</time>
      </trkpt>
      <trkpt lat="43.36307" lon="6.00223">
        <ele>563</ele>
        <time>2019-12-17T11:33:00.000Z</time>
      </trkpt>
      <trkpt lat="43.36307" lon="6.00221">
        <ele>563</ele>
        <time>2019-12-17T11:33:01.000Z</time>
      </trkpt>
      <trkpt lat="43.36307" lon="6.0022">
        <ele>563</ele>
        <time>2019-12-17T11:33:02.000Z</time>
      </trkpt>
      <trkpt lat="43.36308" lon="6.00218">
        <ele>563</ele>
        <time>2019-12-17T11:33:03.000Z</time>
      </trkpt>
      <trkpt lat="43.36308" lon="6.00217">
        <ele>564</ele>
        <time>2019-12-17T11:33:04.000Z</time>
      </trkpt>
      <trkpt lat="43.36309" lon="6.00216">
        <ele>564</ele>
        <time>2019-12-17T11:33:05.000Z</time>
      </trkpt>
      <trkpt lat="43.36309" lon="6.00214">
        <ele>564</ele>
        <time>2019-12-17T11:33:06.000Z</time>
      </trkpt>
      <trkpt lat="43.36309" lon="6.00212">
        <ele>564</ele>
        <time>2019-12-17T11:33:07.000Z</time>
      </trkpt>
      <trkpt lat="43.36309" lon="6.00211">
        <ele>564</ele>
        <time>2019-12-17T11:33:08.000Z</time>
      </trkpt>
      <trkpt lat="43.3631" lon="6.0021">
        <ele>564</ele>
        <time>2019-12-17T11:33:09.000Z</time>
      </trkpt>
      <trkpt lat="43.3631" lon="6.00208">
        <ele>564</ele>
        <time>2019-12-17T11:33:10.000Z</time>
      </trkpt>
      <trkpt lat="43.3631" lon="6.00207">
        <ele>564</ele>
        <time>2019-12-17T11:33:11.000Z</time>
      </trkpt>
      <trkpt lat="43.36311" lon="6.00206">
        <ele>564</ele>
        <time>2019-12-17T11:33:12.000Z</time>
      </trkpt>
      <trkpt lat="43.36311" lon="6.00205">
        <ele>564</ele>
        <time>2019-12-17T11:33:13.000Z</time>
      </trkpt>
      <trkpt lat="43.36312" lon="6.00203">
        <ele>564</ele>
        <time>2019-12-17T11:33:14.000Z</time>
      </trkpt>
      <trkpt lat="43.36312" lon="6.00202">
        <ele>564</ele>
        <time>2019-12-17T11:33:15.000Z</time>
      </trkpt>
      <trkpt lat="43.36312" lon="6.002">
        <ele>564</ele>
        <time>2019-12-17T11:33:16.000Z</time>
      </trkpt>
      <trkpt lat="43.36313" lon="6.00199">
        <ele>564</ele>
        <time>2019-12-17T11:33:17.000Z</time>
      </trkpt>
      <trkpt lat="43.36313" lon="6.00197">
        <ele>564</ele>
        <time>2019-12-17T11:33:18.000Z</time>
      </trkpt>
      <trkpt lat="43.36313" lon="6.00196">
        <ele>564</ele>
        <time>2019-12-17T11:33:19.000Z</time>
      </trkpt>
      <trkpt lat="43.36312" lon="6.00194">
        <ele>564</ele>
        <time>2019-12-17T11:33:20.000Z</time>
      </trkpt>
      <trkpt lat="43.36312" lon="6.00192">
        <ele>564</ele>
        <time>2019-12-17T11:33:21.000Z</time>
      </trkpt>
      <trkpt lat="43.36312" lon="6.00191">
        <ele>564</ele>
        <time>2019-12-17T11:33:22.000Z</time>
      </trkpt>
      <trkpt lat="43.36311" lon="6.0019">
        <ele>564</ele>
        <time>2019-12-17T11:33:23.000Z</time>
      </trkpt>
      <trkpt lat="43.36311" lon="6.00188">
        <ele>564</ele>
        <time>2019-12-17T11:33:24.000Z</time>
      </trkpt>
      <trkpt lat="43.3631" lon="6.00187">
        <ele>564</ele>
        <time>2019-12-17T11:33:25.000Z</time>
      </trkpt>
      <trkpt lat="43.3631" lon="6.00186">
        <ele>564</ele>
        <time>2019-12-17T11:33:26.000Z</time>
      </trkpt>
      <trkpt lat="43.3631" lon="6.00185">
        <ele>564</ele>
        <time>2019-12-17T11:33:27.000Z</time>
      </trkpt>
      <trkpt lat="43.36309" lon="6.00184">
        <ele>564</ele>
        <time>2019-12-17T11:33:28.000Z</time>
      </trkpt>
      <trkpt lat="43.36309" lon="6.00182">
        <ele>564</ele>
        <time>2019-12-17T11:33:29.000Z</time>
      </trkpt>
      <trkpt lat="43.36309" lon="6.00181">
        <ele>564</ele>
        <time>2019-12-17T11:33:30.000Z</time>
      </trkpt>
      <trkpt lat="43.36309" lon="6.0018">
        <ele>565</ele>
        <time>2019-12-17T11:33:31.000Z</time>
      </trkpt>
      <trkpt lat="43.36309" lon="6.00179">
        <ele>565</ele>
        <time>2019-12-17T11:33:32.000Z</time>
      </trkpt>
      <trkpt lat="43.36309" lon="6.00177">
        <ele>565</ele>
        <time>2019-12-17T11:33:33.000Z</time>
      </trkpt>
      <trkpt lat="43.36309" lon="6.00176">
        <ele>565</ele>
        <time>2019-12-17T11:33:34.000Z</time>
      </trkpt>
      <trkpt lat="43.36309" lon="6.00174">
        <ele>565</ele>
        <time>2019-12-17T11:33:35.000Z</time>
      </trkpt>
      <trkpt lat="43.36309" lon="6.00173">
        <ele>565</ele>
        <time>2019-12-17T11:33:36.000Z</time>
      </trkpt>
      <trkpt lat="43.36309" lon="6.00171">
        <ele>565</ele>
        <time>2019-12-17T11:33:37.000Z</time>
      </trkpt>
      <trkpt lat="43.3631" lon="6.00169">
        <ele>565</ele>
        <time>2019-12-17T11:33:38.000Z</time>
      </trkpt>
      <trkpt lat="43.3631" lon="6.00168">
        <ele>565</ele>
        <time>2019-12-17T11:33:39.000Z</time>
      </trkpt>
      <trkpt lat="43.3631" lon="6.00166">
        <ele>565</ele>
        <time>2019-12-17T11:33:40.000Z</time>
      </trkpt>
      <trkpt lat="43.36311" lon="6.00164">
        <ele>565</ele>
        <time>2019-12-17T11:33:41.000Z</time>
      </trkpt>
      <trkpt lat="43.36311" lon="6.00163">
        <ele>565</ele>
        <time>2019-12-17T11:33:42.000Z</time>
      </trkpt>
      <trkpt lat="43.36311" lon="6.00161">
        <ele>565</ele>
        <time>2019-12-17T11:33:43.000Z</time>
      </trkpt>
      <trkpt lat="43.36311" lon="6.00159">
        <ele>565</ele>
        <time>2019-12-17T11:33:44.000Z</time>
      </trkpt>
      <trkpt lat="43.36311" lon="6.00157">
        <ele>565</ele>
        <time>2019-12-17T11:33:45.000Z</time>
      </trkpt>
      <trkpt lat="43.36311" lon="6.00156">
        <ele>565</ele>
        <time>2019-12-17T11:33:46.000Z</time>
      </trkpt>
      <trkpt lat="43.36311" lon="6.00154">
        <ele>565</ele>
        <time>2019-12-17T11:33:47.000Z</time>
      </trkpt>
      <trkpt lat="43.36311" lon="6.00153">
        <ele>565</ele>
        <time>2019-12-17T11:33:48.000Z</time>
      </trkpt>
      <trkpt lat="43.3631" lon="6.00151">
        <ele>565</ele>
        <time>2019-12-17T11:33:49.000Z</time>
      </trkpt>
      <trkpt lat="43.3631" lon="6.00151">
        <ele>565</ele>
        <time>2019-12-17T11:33:50.000Z</time>
      </trkpt>
      <trkpt lat="43.3631" lon="6.0015">
        <ele>565</ele>
        <time>2019-12-17T11:33:51.000Z</time>
      </trkpt>
      <trkpt lat="43.3631" lon="6.00148">
        <ele>565</ele>
        <time>2019-12-17T11:33:52.000Z</time>
      </trkpt>
      <trkpt lat="43.3631" lon="6.00147">
        <ele>565</ele>
        <time>2019-12-17T11:33:53.000Z</time>
      </trkpt>
      <trkpt lat="43.36309" lon="6.00146">
        <ele>565</ele>
        <time>2019-12-17T11:33:54.000Z</time>
      </trkpt>
      <trkpt lat="43.36309" lon="6.00144">
        <ele>565</ele>
        <time>2019-12-17T11:33:55.000Z</time>
      </trkpt>
      <trkpt lat="43.36309" lon="6.00143">
        <ele>565</ele>
        <time>2019-12-17T11:33:56.000Z</time>
      </trkpt>
      <trkpt lat="43.36309" lon="6.00141">
        <ele>565</ele>
        <time>2019-12-17T11:33:57.000Z</time>
      </trkpt>
      <trkpt lat="43.36309" lon="6.0014">
        <ele>565</ele>
        <time>2019-12-17T11:33:58.000Z</time>
      </trkpt>
      <trkpt lat="43.36309" lon="6.00139">
        <ele>565</ele>
        <time>2019-12-17T11:33:59.000Z</time>
      </trkpt>
      <trkpt lat="43.36309" lon="6.00138">
        <ele>565</ele>
        <time>2019-12-17T11:34:00.000Z</time>
      </trkpt>
      <trkpt lat="43.36308" lon="6.00137">
        <ele>565</ele>
        <time>2019-12-17T11:34:01.000Z</time>
      </trkpt>
      <trkpt lat="43.36308" lon="6.00136">
        <ele>565</ele>
        <time>2019-12-17T11:34:02.000Z</time>
      </trkpt>
      <trkpt lat="43.36307" lon="6.00135">
        <ele>566</ele>
        <time>2019-12-17T11:34:03.000Z</time>
      </trkpt>
      <trkpt lat="43.36306" lon="6.00134">
        <ele>566</ele>
        <time>2019-12-17T11:34:04.000Z</time>
      </trkpt>
      <trkpt lat="43.36305" lon="6.00133">
        <ele>566</ele>
        <time>2019-12-17T11:34:05.000Z</time>
      </trkpt>
      <trkpt lat="43.36304" lon="6.00132">
        <ele>566</ele>
        <time>2019-12-17T11:34:06.000Z</time>
      </trkpt>
      <trkpt lat="43.36304" lon="6.00131">
        <ele>566</ele>
        <time>2019-12-17T11:34:07.000Z</time>
      </trkpt>
      <trkpt lat="43.36303" lon="6.0013">
        <ele>566</ele>
        <time>2019-12-17T11:34:08.000Z</time>
      </trkpt>
      <trkpt lat="43.36303" lon="6.00128">
        <ele>566</ele>
        <time>2019-12-17T11:34:09.000Z</time>
      </trkpt>
      <trkpt lat="43.36302" lon="6.00127">
        <ele>567</ele>
        <time>2019-12-17T11:34:10.000Z</time>
      </trkpt>
      <trkpt lat="43.36302" lon="6.00125">
        <ele>567</ele>
        <time>2019-12-17T11:34:11.000Z</time>
      </trkpt>
      <trkpt lat="43.36302" lon="6.00124">
        <ele>567</ele>
        <time>2019-12-17T11:34:12.000Z</time>
      </trkpt>
      <trkpt lat="43.36302" lon="6.00123">
        <ele>567</ele>
        <time>2019-12-17T11:34:13.000Z</time>
      </trkpt>
      <trkpt lat="43.36301" lon="6.00121">
        <ele>567</ele>
        <time>2019-12-17T11:34:14.000Z</time>
      </trkpt>
      <trkpt lat="43.36301" lon="6.0012">
        <ele>567</ele>
        <time>2019-12-17T11:34:15.000Z</time>
      </trkpt>
      <trkpt lat="43.36301" lon="6.00119">
        <ele>567</ele>
        <time>2019-12-17T11:34:16.000Z</time>
      </trkpt>
      <trkpt lat="43.36301" lon="6.00117">
        <ele>567</ele>
        <time>2019-12-17T11:34:17.000Z</time>
      </trkpt>
      <trkpt lat="43.363" lon="6.00116">
        <ele>567</ele>
        <time>2019-12-17T11:34:18.000Z</time>
      </trkpt>
      <trkpt lat="43.363" lon="6.00114">
        <ele>567</ele>
        <time>2019-12-17T11:34:19.000Z</time>
      </trkpt>
      <trkpt lat="43.363" lon="6.00113">
        <ele>567</ele>
        <time>2019-12-17T11:34:20.000Z</time>
      </trkpt>
      <trkpt lat="43.36299" lon="6.00111">
        <ele>567</ele>
        <time>2019-12-17T11:34:21.000Z</time>
      </trkpt>
      <trkpt lat="43.36299" lon="6.0011">
        <ele>567</ele>
        <time>2019-12-17T11:34:22.000Z</time>
      </trkpt>
      <trkpt lat="43.36299" lon="6.00108">
        <ele>567</ele>
        <time>2019-12-17T11:34:23.000Z</time>
      </trkpt>
      <trkpt lat="43.36299" lon="6.00106">
        <ele>567</ele>
        <time>2019-12-17T11:34:24.000Z</time>
      </trkpt>
      <trkpt lat="43.36299" lon="6.00104">
        <ele>567</ele>
        <time>2019-12-17T11:34:25.000Z</time>
      </trkpt>
      <trkpt lat="43.36298" lon="6.00103">
        <ele>567</ele>
        <time>2019-12-17T11:34:26.000Z</time>
      </trkpt>
      <trkpt lat="43.36298" lon="6.00101">
        <ele>567</ele>
        <time>2019-12-17T11:34:27.000Z</time>
      </trkpt>
      <trkpt lat="43.36298" lon="6.001">
        <ele>567</ele>
        <time>2019-12-17T11:34:28.000Z</time>
      </trkpt>
      <trkpt lat="43.36298" lon="6.00098">
        <ele>567</ele>
        <time>2019-12-17T11:34:29.000Z</time>
      </trkpt>
      <trkpt lat="43.36298" lon="6.00097">
        <ele>567</ele>
        <time>2019-12-17T11:34:30.000Z</time>
      </trkpt>
      <trkpt lat="43.36297" lon="6.00095">
        <ele>567</ele>
        <time>2019-12-17T11:34:31.000Z</time>
      </trkpt>
      <trkpt lat="43.36297" lon="6.00093">
        <ele>567</ele>
        <time>2019-12-17T11:34:32.000Z</time>
      </trkpt>
      <trkpt lat="43.36297" lon="6.00091">
        <ele>567</ele>
        <time>2019-12-17T11:34:33.000Z</time>
      </trkpt>
      <trkpt lat="43.36297" lon="6.00089">
        <ele>567</ele>
        <time>2019-12-17T11:34:34.000Z</time>
      </trkpt>
      <trkpt lat="43.36296" lon="6.00088">
        <ele>567</ele>
        <time>2019-12-17T11:34:35.000Z</time>
      </trkpt>
      <trkpt lat="43.36296" lon="6.00086">
        <ele>567</ele>
        <time>2019-12-17T11:34:36.000Z</time>
      </trkpt>
      <trkpt lat="43.36296" lon="6.00085">
        <ele>567</ele>
        <time>2019-12-17T11:34:37.000Z</time>
      </trkpt>
      <trkpt lat="43.36296" lon="6.00083">
        <ele>567</ele>
        <time>2019-12-17T11:34:38.000Z</time>
      </trkpt>
      <trkpt lat="43.36296" lon="6.00082">
        <ele>567</ele>
        <time>2019-12-17T11:34:39.000Z</time>
      </trkpt>
      <trkpt lat="43.36295" lon="6.00081">
        <ele>567</ele>
        <time>2019-12-17T11:34:40.000Z</time>
      </trkpt>
      <trkpt lat="43.36295" lon="6.00079">
        <ele>567</ele>
        <time>2019-12-17T11:34:41.000Z</time>
      </trkpt>
      <trkpt lat="43.36294" lon="6.00078">
        <ele>567</ele>
        <time>2019-12-17T11:34:42.000Z</time>
      </trkpt>
      <trkpt lat="43.36294" lon="6.00077">
        <ele>567</ele>
        <time>2019-12-17T11:34:43.000Z</time>
      </trkpt>
      <trkpt lat="43.36293" lon="6.00075">
        <ele>568</ele>
        <time>2019-12-17T11:34:44.000Z</time>
      </trkpt>
      <trkpt lat="43.36293" lon="6.00074">
        <ele>568</ele>
        <time>2019-12-17T11:34:45.000Z</time>
      </trkpt>
      <trkpt lat="43.36292" lon="6.00073">
        <ele>568</ele>
        <time>2019-12-17T11:34:46.000Z</time>
      </trkpt>
      <trkpt lat="43.36292" lon="6.00072">
        <ele>568</ele>
        <time>2019-12-17T11:34:47.000Z</time>
      </trkpt>
      <trkpt lat="43.36291" lon="6.00071">
        <ele>568</ele>
        <time>2019-12-17T11:34:48.000Z</time>
      </trkpt>
      <trkpt lat="43.36291" lon="6.00069">
        <ele>568</ele>
        <time>2019-12-17T11:34:49.000Z</time>
      </trkpt>
      <trkpt lat="43.3629" lon="6.00068">
        <ele>568</ele>
        <time>2019-12-17T11:34:50.000Z</time>
      </trkpt>
      <trkpt lat="43.36289" lon="6.00067">
        <ele>568</ele>
        <time>2019-12-17T11:34:51.000Z</time>
      </trkpt>
      <trkpt lat="43.36288" lon="6.00066">
        <ele>569</ele>
        <time>2019-12-17T11:34:52.000Z</time>
      </trkpt>
      <trkpt lat="43.36287" lon="6.00065">
        <ele>569</ele>
        <time>2019-12-17T11:34:53.000Z</time>
      </trkpt>
      <trkpt lat="43.36287" lon="6.00064">
        <ele>569</ele>
        <time>2019-12-17T11:34:54.000Z</time>
      </trkpt>
      <trkpt lat="43.36286" lon="6.00062">
        <ele>569</ele>
        <time>2019-12-17T11:34:55.000Z</time>
      </trkpt>
      <trkpt lat="43.36286" lon="6.00061">
        <ele>569</ele>
        <time>2019-12-17T11:34:56.000Z</time>
      </trkpt>
      <trkpt lat="43.36286" lon="6.00059">
        <ele>570</ele>
        <time>2019-12-17T11:34:57.000Z</time>
      </trkpt>
      <trkpt lat="43.36285" lon="6.00057">
        <ele>570</ele>
        <time>2019-12-17T11:34:58.000Z</time>
      </trkpt>
      <trkpt lat="43.36285" lon="6.00056">
        <ele>570</ele>
        <time>2019-12-17T11:34:59.000Z</time>
      </trkpt>
      <trkpt lat="43.36284" lon="6.00055">
        <ele>570</ele>
        <time>2019-12-17T11:35:00.000Z</time>
      </trkpt>
      <trkpt lat="43.36283" lon="6.00053">
        <ele>570</ele>
        <time>2019-12-17T11:35:01.000Z</time>
      </trkpt>
      <trkpt lat="43.36282" lon="6.00052">
        <ele>570</ele>
        <time>2019-12-17T11:35:02.000Z</time>
      </trkpt>
      <trkpt lat="43.36282" lon="6.0005">
        <ele>570</ele>
        <time>2019-12-17T11:35:03.000Z</time>
      </trkpt>
      <trkpt lat="43.36281" lon="6.00049">
        <ele>570</ele>
        <time>2019-12-17T11:35:04.000Z</time>
      </trkpt>
      <trkpt lat="43.3628" lon="6.00048">
        <ele>570</ele>
        <time>2019-12-17T11:35:05.000Z</time>
      </trkpt>
      <trkpt lat="43.3628" lon="6.00046">
        <ele>570</ele>
        <time>2019-12-17T11:35:06.000Z</time>
      </trkpt>
      <trkpt lat="43.36279" lon="6.00045">
        <ele>570</ele>
        <time>2019-12-17T11:35:07.000Z</time>
      </trkpt>
      <trkpt lat="43.36278" lon="6.00044">
        <ele>570</ele>
        <time>2019-12-17T11:35:08.000Z</time>
      </trkpt>
      <trkpt lat="43.36278" lon="6.00042">
        <ele>570</ele>
        <time>2019-12-17T11:35:09.000Z</time>
      </trkpt>
      <trkpt lat="43.36277" lon="6.00041">
        <ele>570</ele>
        <time>2019-12-17T11:35:10.000Z</time>
      </trkpt>
      <trkpt lat="43.36277" lon="6.0004">
        <ele>570</ele>
        <time>2019-12-17T11:35:11.000Z</time>
      </trkpt>
      <trkpt lat="43.36276" lon="6.00038">
        <ele>570</ele>
        <time>2019-12-17T11:35:12.000Z</time>
      </trkpt>
      <trkpt lat="43.36275" lon="6.00037">
        <ele>570</ele>
        <time>2019-12-17T11:35:13.000Z</time>
      </trkpt>
      <trkpt lat="43.36274" lon="6.00036">
        <ele>570</ele>
        <time>2019-12-17T11:35:14.000Z</time>
      </trkpt>
      <trkpt lat="43.36274" lon="6.00035">
        <ele>570</ele>
        <time>2019-12-17T11:35:15.000Z</time>
      </trkpt>
      <trkpt lat="43.36273" lon="6.00033">
        <ele>570</ele>
        <time>2019-12-17T11:35:16.000Z</time>
      </trkpt>
      <trkpt lat="43.36272" lon="6.00032">
        <ele>570</ele>
        <time>2019-12-17T11:35:17.000Z</time>
      </trkpt>
      <trkpt lat="43.36272" lon="6.00031">
        <ele>570</ele>
        <time>2019-12-17T11:35:18.000Z</time>
      </trkpt>
      <trkpt lat="43.36271" lon="6.0003">
        <ele>570</ele>
        <time>2019-12-17T11:35:19.000Z</time>
      </trkpt>
      <trkpt lat="43.36271" lon="6.00029">
        <ele>570</ele>
        <time>2019-12-17T11:35:20.000Z</time>
      </trkpt>
      <trkpt lat="43.3627" lon="6.00028">
        <ele>570</ele>
        <time>2019-12-17T11:35:21.000Z</time>
      </trkpt>
      <trkpt lat="43.36269" lon="6.00026">
        <ele>571</ele>
        <time>2019-12-17T11:35:22.000Z</time>
      </trkpt>
      <trkpt lat="43.36269" lon="6.00024">
        <ele>571</ele>
        <time>2019-12-17T11:35:23.000Z</time>
      </trkpt>
      <trkpt lat="43.36269" lon="6.00023">
        <ele>571</ele>
        <time>2019-12-17T11:35:24.000Z</time>
      </trkpt>
      <trkpt lat="43.36269" lon="6.00021">
        <ele>571</ele>
        <time>2019-12-17T11:35:25.000Z</time>
      </trkpt>
      <trkpt lat="43.36268" lon="6.0002">
        <ele>571</ele>
        <time>2019-12-17T11:35:26.000Z</time>
      </trkpt>
      <trkpt lat="43.36268" lon="6.00019">
        <ele>571</ele>
        <time>2019-12-17T11:35:27.000Z</time>
      </trkpt>
      <trkpt lat="43.36267" lon="6.00018">
        <ele>571</ele>
        <time>2019-12-17T11:35:28.000Z</time>
      </trkpt>
      <trkpt lat="43.36266" lon="6.00018">
        <ele>571</ele>
        <time>2019-12-17T11:35:29.000Z</time>
      </trkpt>
      <trkpt lat="43.36265" lon="6.00017">
        <ele>571</ele>
        <time>2019-12-17T11:35:30.000Z</time>
      </trkpt>
      <trkpt lat="43.36265" lon="6.00016">
        <ele>571</ele>
        <time>2019-12-17T11:35:31.000Z</time>
      </trkpt>
      <trkpt lat="43.36264" lon="6.00015">
        <ele>571</ele>
        <time>2019-12-17T11:35:32.000Z</time>
      </trkpt>
      <trkpt lat="43.36263" lon="6.00013">
        <ele>571</ele>
        <time>2019-12-17T11:35:33.000Z</time>
      </trkpt>
      <trkpt lat="43.36262" lon="6.00012">
        <ele>571</ele>
        <time>2019-12-17T11:35:34.000Z</time>
      </trkpt>
      <trkpt lat="43.36261" lon="6.00011">
        <ele>571</ele>
        <time>2019-12-17T11:35:35.000Z</time>
      </trkpt>
      <trkpt lat="43.36261" lon="6.0001">
        <ele>571</ele>
        <time>2019-12-17T11:35:36.000Z</time>
      </trkpt>
      <trkpt lat="43.3626" lon="6.00008">
        <ele>571</ele>
        <time>2019-12-17T11:35:37.000Z</time>
      </trkpt>
      <trkpt lat="43.36259" lon="6.00007">
        <ele>571</ele>
        <time>2019-12-17T11:35:38.000Z</time>
      </trkpt>
      <trkpt lat="43.36258" lon="6.00006">
        <ele>571</ele>
        <time>2019-12-17T11:35:39.000Z</time>
      </trkpt>
      <trkpt lat="43.36258" lon="6.00005">
        <ele>571</ele>
        <time>2019-12-17T11:35:40.000Z</time>
      </trkpt>
      <trkpt lat="43.36257" lon="6.00003">
        <ele>571</ele>
        <time>2019-12-17T11:35:41.000Z</time>
      </trkpt>
      <trkpt lat="43.36257" lon="6.00002">
        <ele>571</ele>
        <time>2019-12-17T11:35:42.000Z</time>
      </trkpt>
      <trkpt lat="43.36256" lon="6.00001">
        <ele>571</ele>
        <time>2019-12-17T11:35:43.000Z</time>
      </trkpt>
      <trkpt lat="43.36255" lon="5.99999">
        <ele>571</ele>
        <time>2019-12-17T11:35:44.000Z</time>
      </trkpt>
      <trkpt lat="43.36255" lon="5.99998">
        <ele>571</ele>
        <time>2019-12-17T11:35:45.000Z</time>
      </trkpt>
      <trkpt lat="43.36255" lon="5.99998">
        <ele>571</ele>
        <time>2019-12-17T11:35:46.000Z</time>
      </trkpt>
      <trkpt lat="43.36253" lon="5.99996">
        <ele>571</ele>
        <time>2019-12-17T11:35:47.000Z</time>
      </trkpt>
      <trkpt lat="43.36253" lon="5.99996">
        <ele>571</ele>
        <time>2019-12-17T11:35:48.000Z</time>
      </trkpt>
      <trkpt lat="43.36252" lon="5.99995">
        <ele>572</ele>
        <time>2019-12-17T11:35:49.000Z</time>
      </trkpt>
      <trkpt lat="43.36251" lon="5.99994">
        <ele>572</ele>
        <time>2019-12-17T11:35:50.000Z</time>
      </trkpt>
      <trkpt lat="43.3625" lon="5.99993">
        <ele>572</ele>
        <time>2019-12-17T11:35:51.000Z</time>
      </trkpt>
      <trkpt lat="43.36249" lon="5.99993">
        <ele>572</ele>
        <time>2019-12-17T11:35:52.000Z</time>
      </trkpt>
      <trkpt lat="43.36248" lon="5.99992">
        <ele>572</ele>
        <time>2019-12-17T11:35:53.000Z</time>
      </trkpt>
      <trkpt lat="43.36247" lon="5.99992">
        <ele>572</ele>
        <time>2019-12-17T11:35:54.000Z</time>
      </trkpt>
      <trkpt lat="43.36246" lon="5.99991">
        <ele>572</ele>
        <time>2019-12-17T11:35:55.000Z</time>
      </trkpt>
      <trkpt lat="43.36245" lon="5.9999">
        <ele>572</ele>
        <time>2019-12-17T11:35:56.000Z</time>
      </trkpt>
      <trkpt lat="43.36244" lon="5.9999">
        <ele>572</ele>
        <time>2019-12-17T11:35:57.000Z</time>
      </trkpt>
      <trkpt lat="43.36243" lon="5.99989">
        <ele>572</ele>
        <time>2019-12-17T11:35:58.000Z</time>
      </trkpt>
      <trkpt lat="43.36242" lon="5.99987">
        <ele>572</ele>
        <time>2019-12-17T11:35:59.000Z</time>
      </trkpt>
      <trkpt lat="43.36242" lon="5.99986">
        <ele>572</ele>
        <time>2019-12-17T11:36:00.000Z</time>
      </trkpt>
      <trkpt lat="43.36241" lon="5.99985">
        <ele>572</ele>
        <time>2019-12-17T11:36:01.000Z</time>
      </trkpt>
      <trkpt lat="43.3624" lon="5.99984">
        <ele>572</ele>
        <time>2019-12-17T11:36:02.000Z</time>
      </trkpt>
      <trkpt lat="43.36239" lon="5.99983">
        <ele>572</ele>
        <time>2019-12-17T11:36:03.000Z</time>
      </trkpt>
      <trkpt lat="43.36239" lon="5.99982">
        <ele>573</ele>
        <time>2019-12-17T11:36:04.000Z</time>
      </trkpt>
      <trkpt lat="43.36238" lon="5.99981">
        <ele>573</ele>
        <time>2019-12-17T11:36:05.000Z</time>
      </trkpt>
      <trkpt lat="43.36237" lon="5.9998">
        <ele>573</ele>
        <time>2019-12-17T11:36:06.000Z</time>
      </trkpt>
      <trkpt lat="43.36236" lon="5.99978">
        <ele>573</ele>
        <time>2019-12-17T11:36:07.000Z</time>
      </trkpt>
      <trkpt lat="43.36235" lon="5.99978">
        <ele>573</ele>
        <time>2019-12-17T11:36:08.000Z</time>
      </trkpt>
      <trkpt lat="43.36235" lon="5.99976">
        <ele>573</ele>
        <time>2019-12-17T11:36:09.000Z</time>
      </trkpt>
      <trkpt lat="43.36235" lon="5.99976">
        <ele>573</ele>
        <time>2019-12-17T11:36:10.000Z</time>
      </trkpt>
      <trkpt lat="43.36233" lon="5.99974">
        <ele>573</ele>
        <time>2019-12-17T11:36:11.000Z</time>
      </trkpt>
      <trkpt lat="43.36232" lon="5.99974">
        <ele>572</ele>
        <time>2019-12-17T11:36:12.000Z</time>
      </trkpt>
      <trkpt lat="43.36231" lon="5.99973">
        <ele>572</ele>
        <time>2019-12-17T11:36:13.000Z</time>
      </trkpt>
      <trkpt lat="43.3623" lon="5.99972">
        <ele>572</ele>
        <time>2019-12-17T11:36:14.000Z</time>
      </trkpt>
      <trkpt lat="43.36229" lon="5.99971">
        <ele>572</ele>
        <time>2019-12-17T11:36:15.000Z</time>
      </trkpt>
      <trkpt lat="43.36228" lon="5.9997">
        <ele>572</ele>
        <time>2019-12-17T11:36:16.000Z</time>
      </trkpt>
      <trkpt lat="43.36227" lon="5.99969">
        <ele>573</ele>
        <time>2019-12-17T11:36:17.000Z</time>
      </trkpt>
      <trkpt lat="43.36226" lon="5.99968">
        <ele>573</ele>
        <time>2019-12-17T11:36:18.000Z</time>
      </trkpt>
      <trkpt lat="43.36225" lon="5.99967">
        <ele>573</ele>
        <time>2019-12-17T11:36:19.000Z</time>
      </trkpt>
      <trkpt lat="43.36224" lon="5.99966">
        <ele>573</ele>
        <time>2019-12-17T11:36:20.000Z</time>
      </trkpt>
      <trkpt lat="43.36223" lon="5.99966">
        <ele>573</ele>
        <time>2019-12-17T11:36:21.000Z</time>
      </trkpt>
      <trkpt lat="43.36222" lon="5.99965">
        <ele>573</ele>
        <time>2019-12-17T11:36:22.000Z</time>
      </trkpt>
      <trkpt lat="43.36221" lon="5.99964">
        <ele>573</ele>
        <time>2019-12-17T11:36:23.000Z</time>
      </trkpt>
      <trkpt lat="43.3622" lon="5.99964">
        <ele>573</ele>
        <time>2019-12-17T11:36:24.000Z</time>
      </trkpt>
      <trkpt lat="43.36219" lon="5.99963">
        <ele>573</ele>
        <time>2019-12-17T11:36:25.000Z</time>
      </trkpt>
      <trkpt lat="43.36218" lon="5.99962">
        <ele>573</ele>
        <time>2019-12-17T11:36:26.000Z</time>
      </trkpt>
      <trkpt lat="43.36217" lon="5.99962">
        <ele>573</ele>
        <time>2019-12-17T11:36:27.000Z</time>
      </trkpt>
      <trkpt lat="43.36216" lon="5.99961">
        <ele>573</ele>
        <time>2019-12-17T11:36:28.000Z</time>
      </trkpt>
      <trkpt lat="43.36215" lon="5.9996">
        <ele>573</ele>
        <time>2019-12-17T11:36:29.000Z</time>
      </trkpt>
      <trkpt lat="43.36215" lon="5.99959">
        <ele>573</ele>
        <time>2019-12-17T11:36:30.000Z</time>
      </trkpt>
      <trkpt lat="43.36214" lon="5.99958">
        <ele>573</ele>
        <time>2019-12-17T11:36:31.000Z</time>
      </trkpt>
      <trkpt lat="43.36213" lon="5.99958">
        <ele>573</ele>
        <time>2019-12-17T11:36:32.000Z</time>
      </trkpt>
      <trkpt lat="43.36212" lon="5.99957">
        <ele>573</ele>
        <time>2019-12-17T11:36:33.000Z</time>
      </trkpt>
      <trkpt lat="43.36211" lon="5.99956">
        <ele>573</ele>
        <time>2019-12-17T11:36:34.000Z</time>
      </trkpt>
      <trkpt lat="43.3621" lon="5.99955">
        <ele>573</ele>
        <time>2019-12-17T11:36:35.000Z</time>
      </trkpt>
      <trkpt lat="43.36209" lon="5.99955">
        <ele>573</ele>
        <time>2019-12-17T11:36:36.000Z</time>
      </trkpt>
      <trkpt lat="43.36208" lon="5.99954">
        <ele>573</ele>
        <time>2019-12-17T11:36:37.000Z</time>
      </trkpt>
      <trkpt lat="43.36207" lon="5.99952">
        <ele>573</ele>
        <time>2019-12-17T11:36:38.000Z</time>
      </trkpt>
      <trkpt lat="43.36206" lon="5.99951">
        <ele>574</ele>
        <time>2019-12-17T11:36:39.000Z</time>
      </trkpt>
      <trkpt lat="43.36206" lon="5.9995">
        <ele>574</ele>
        <time>2019-12-17T11:36:40.000Z</time>
      </trkpt>
      <trkpt lat="43.36205" lon="5.99949">
        <ele>574</ele>
        <time>2019-12-17T11:36:41.000Z</time>
      </trkpt>
      <trkpt lat="43.36205" lon="5.99948">
        <ele>574</ele>
        <time>2019-12-17T11:36:42.000Z</time>
      </trkpt>
      <trkpt lat="43.36204" lon="5.99947">
        <ele>574</ele>
        <time>2019-12-17T11:36:43.000Z</time>
      </trkpt>
      <trkpt lat="43.36203" lon="5.99947">
        <ele>573</ele>
        <time>2019-12-17T11:36:44.000Z</time>
      </trkpt>
      <trkpt lat="43.36202" lon="5.99946">
        <ele>573</ele>
        <time>2019-12-17T11:36:45.000Z</time>
      </trkpt>
      <trkpt lat="43.36201" lon="5.99945">
        <ele>573</ele>
        <time>2019-12-17T11:36:46.000Z</time>
      </trkpt>
      <trkpt lat="43.362" lon="5.99944">
        <ele>573</ele>
        <time>2019-12-17T11:36:47.000Z</time>
      </trkpt>
      <trkpt lat="43.36199" lon="5.99943">
        <ele>573</ele>
        <time>2019-12-17T11:36:48.000Z</time>
      </trkpt>
      <trkpt lat="43.36199" lon="5.99942">
        <ele>573</ele>
        <time>2019-12-17T11:36:49.000Z</time>
      </trkpt>
      <trkpt lat="43.36198" lon="5.99941">
        <ele>573</ele>
        <time>2019-12-17T11:36:50.000Z</time>
      </trkpt>
      <trkpt lat="43.36197" lon="5.99939">
        <ele>573</ele>
        <time>2019-12-17T11:36:51.000Z</time>
      </trkpt>
      <trkpt lat="43.36197" lon="5.99938">
        <ele>573</ele>
        <time>2019-12-17T11:36:52.000Z</time>
      </trkpt>
      <trkpt lat="43.36196" lon="5.99936">
        <ele>573</ele>
        <time>2019-12-17T11:36:53.000Z</time>
      </trkpt>
      <trkpt lat="43.36196" lon="5.99935">
        <ele>573</ele>
        <time>2019-12-17T11:36:54.000Z</time>
      </trkpt>
      <trkpt lat="43.36195" lon="5.99933">
        <ele>573</ele>
        <time>2019-12-17T11:36:55.000Z</time>
      </trkpt>
      <trkpt lat="43.36195" lon="5.99932">
        <ele>573</ele>
        <time>2019-12-17T11:36:56.000Z</time>
      </trkpt>
      <trkpt lat="43.36194" lon="5.9993">
        <ele>572</ele>
        <time>2019-12-17T11:36:57.000Z</time>
      </trkpt>
      <trkpt lat="43.36193" lon="5.99929">
        <ele>572</ele>
        <time>2019-12-17T11:36:58.000Z</time>
      </trkpt>
      <trkpt lat="43.36193" lon="5.99928">
        <ele>572</ele>
        <time>2019-12-17T11:36:59.000Z</time>
      </trkpt>
      <trkpt lat="43.36192" lon="5.99927">
        <ele>572</ele>
        <time>2019-12-17T11:37:00.000Z</time>
      </trkpt>
      <trkpt lat="43.36191" lon="5.99926">
        <ele>572</ele>
        <time>2019-12-17T11:37:01.000Z</time>
      </trkpt>
      <trkpt lat="43.3619" lon="5.99925">
        <ele>572</ele>
        <time>2019-12-17T11:37:02.000Z</time>
      </trkpt>
      <trkpt lat="43.3619" lon="5.99924">
        <ele>572</ele>
        <time>2019-12-17T11:37:03.000Z</time>
      </trkpt>
      <trkpt lat="43.36189" lon="5.99922">
        <ele>572</ele>
        <time>2019-12-17T11:37:04.000Z</time>
      </trkpt>
      <trkpt lat="43.36188" lon="5.99921">
        <ele>572</ele>
        <time>2019-12-17T11:37:05.000Z</time>
      </trkpt>
      <trkpt lat="43.36188" lon="5.9992">
        <ele>572</ele>
        <time>2019-12-17T11:37:06.000Z</time>
      </trkpt>
      <trkpt lat="43.36187" lon="5.99918">
        <ele>572</ele>
        <time>2019-12-17T11:37:07.000Z</time>
      </trkpt>
      <trkpt lat="43.36187" lon="5.99917">
        <ele>572</ele>
        <time>2019-12-17T11:37:08.000Z</time>
      </trkpt>
      <trkpt lat="43.36186" lon="5.99916">
        <ele>572</ele>
        <time>2019-12-17T11:37:09.000Z</time>
      </trkpt>
      <trkpt lat="43.36185" lon="5.99915">
        <ele>572</ele>
        <time>2019-12-17T11:37:10.000Z</time>
      </trkpt>
      <trkpt lat="43.36184" lon="5.99914">
        <ele>572</ele>
        <time>2019-12-17T11:37:11.000Z</time>
      </trkpt>
      <trkpt lat="43.36183" lon="5.99913">
        <ele>572</ele>
        <time>2019-12-17T11:37:12.000Z</time>
      </trkpt>
      <trkpt lat="43.36183" lon="5.99911">
        <ele>572</ele>
        <time>2019-12-17T11:37:13.000Z</time>
      </trkpt>
      <trkpt lat="43.36182" lon="5.9991">
        <ele>572</ele>
        <time>2019-12-17T11:37:14.000Z</time>
      </trkpt>
      <trkpt lat="43.36181" lon="5.99909">
        <ele>573</ele>
        <time>2019-12-17T11:37:15.000Z</time>
      </trkpt>
      <trkpt lat="43.36181" lon="5.99908">
        <ele>572</ele>
        <time>2019-12-17T11:37:16.000Z</time>
      </trkpt>
      <trkpt lat="43.3618" lon="5.99906">
        <ele>572</ele>
        <time>2019-12-17T11:37:17.000Z</time>
      </trkpt>
      <trkpt lat="43.36179" lon="5.99905">
        <ele>572</ele>
        <time>2019-12-17T11:37:18.000Z</time>
      </trkpt>
      <trkpt lat="43.36178" lon="5.99904">
        <ele>572</ele>
        <time>2019-12-17T11:37:19.000Z</time>
      </trkpt>
      <trkpt lat="43.36177" lon="5.99902">
        <ele>572</ele>
        <time>2019-12-17T11:37:20.000Z</time>
      </trkpt>
      <trkpt lat="43.36177" lon="5.99901">
        <ele>572</ele>
        <time>2019-12-17T11:37:21.000Z</time>
      </trkpt>
      <trkpt lat="43.36176" lon="5.99899">
        <ele>572</ele>
        <time>2019-12-17T11:37:22.000Z</time>
      </trkpt>
      <trkpt lat="43.36176" lon="5.99897">
        <ele>572</ele>
        <time>2019-12-17T11:37:23.000Z</time>
      </trkpt>
      <trkpt lat="43.36175" lon="5.99896">
        <ele>572</ele>
        <time>2019-12-17T11:37:24.000Z</time>
      </trkpt>
      <trkpt lat="43.36175" lon="5.99894">
        <ele>572</ele>
        <time>2019-12-17T11:37:25.000Z</time>
      </trkpt>
      <trkpt lat="43.36174" lon="5.99892">
        <ele>572</ele>
        <time>2019-12-17T11:37:26.000Z</time>
      </trkpt>
      <trkpt lat="43.36174" lon="5.99891">
        <ele>573</ele>
        <time>2019-12-17T11:37:27.000Z</time>
      </trkpt>
      <trkpt lat="43.36174" lon="5.99889">
        <ele>573</ele>
        <time>2019-12-17T11:37:28.000Z</time>
      </trkpt>
      <trkpt lat="43.36173" lon="5.99888">
        <ele>573</ele>
        <time>2019-12-17T11:37:29.000Z</time>
      </trkpt>
      <trkpt lat="43.36172" lon="5.99886">
        <ele>573</ele>
        <time>2019-12-17T11:37:30.000Z</time>
      </trkpt>
      <trkpt lat="43.36172" lon="5.99885">
        <ele>573</ele>
        <time>2019-12-17T11:37:31.000Z</time>
      </trkpt>
      <trkpt lat="43.36171" lon="5.99884">
        <ele>573</ele>
        <time>2019-12-17T11:37:32.000Z</time>
      </trkpt>
      <trkpt lat="43.3617" lon="5.99883">
        <ele>573</ele>
        <time>2019-12-17T11:37:33.000Z</time>
      </trkpt>
      <trkpt lat="43.3617" lon="5.99882">
        <ele>573</ele>
        <time>2019-12-17T11:37:34.000Z</time>
      </trkpt>
      <trkpt lat="43.36169" lon="5.99881">
        <ele>573</ele>
        <time>2019-12-17T11:37:35.000Z</time>
      </trkpt>
      <trkpt lat="43.36168" lon="5.9988">
        <ele>573</ele>
        <time>2019-12-17T11:37:36.000Z</time>
      </trkpt>
      <trkpt lat="43.36167" lon="5.99879">
        <ele>573</ele>
        <time>2019-12-17T11:37:37.000Z</time>
      </trkpt>
      <trkpt lat="43.36167" lon="5.99878">
        <ele>573</ele>
        <time>2019-12-17T11:37:38.000Z</time>
      </trkpt>
      <trkpt lat="43.36165" lon="5.99877">
        <ele>573</ele>
        <time>2019-12-17T11:37:39.000Z</time>
      </trkpt>
      <trkpt lat="43.36164" lon="5.99875">
        <ele>573</ele>
        <time>2019-12-17T11:37:40.000Z</time>
      </trkpt>
      <trkpt lat="43.36164" lon="5.99875">
        <ele>573</ele>
        <time>2019-12-17T11:37:41.000Z</time>
      </trkpt>
      <trkpt lat="43.36163" lon="5.99874">
        <ele>573</ele>
        <time>2019-12-17T11:37:42.000Z</time>
      </trkpt>
      <trkpt lat="43.36162" lon="5.99873">
        <ele>573</ele>
        <time>2019-12-17T11:37:43.000Z</time>
      </trkpt>
      <trkpt lat="43.36161" lon="5.99872">
        <ele>573</ele>
        <time>2019-12-17T11:37:44.000Z</time>
      </trkpt>
      <trkpt lat="43.3616" lon="5.99871">
        <ele>573</ele>
        <time>2019-12-17T11:37:45.000Z</time>
      </trkpt>
      <trkpt lat="43.3616" lon="5.9987">
        <ele>574</ele>
        <time>2019-12-17T11:37:46.000Z</time>
      </trkpt>
      <trkpt lat="43.36159" lon="5.99869">
        <ele>574</ele>
        <time>2019-12-17T11:37:47.000Z</time>
      </trkpt>
      <trkpt lat="43.36159" lon="5.99867">
        <ele>574</ele>
        <time>2019-12-17T11:37:48.000Z</time>
      </trkpt>
      <trkpt lat="43.36159" lon="5.99866">
        <ele>574</ele>
        <time>2019-12-17T11:37:49.000Z</time>
      </trkpt>
      <trkpt lat="43.36159" lon="5.99865">
        <ele>574</ele>
        <time>2019-12-17T11:37:50.000Z</time>
      </trkpt>
      <trkpt lat="43.36158" lon="5.99864">
        <ele>574</ele>
        <time>2019-12-17T11:37:51.000Z</time>
      </trkpt>
      <trkpt lat="43.36158" lon="5.99862">
        <ele>574</ele>
        <time>2019-12-17T11:37:52.000Z</time>
      </trkpt>
      <trkpt lat="43.36158" lon="5.9986">
        <ele>574</ele>
        <time>2019-12-17T11:37:53.000Z</time>
      </trkpt>
      <trkpt lat="43.36158" lon="5.99859">
        <ele>574</ele>
        <time>2019-12-17T11:37:54.000Z</time>
      </trkpt>
      <trkpt lat="43.36157" lon="5.99858">
        <ele>575</ele>
        <time>2019-12-17T11:37:55.000Z</time>
      </trkpt>
      <trkpt lat="43.36157" lon="5.99856">
        <ele>575</ele>
        <time>2019-12-17T11:37:56.000Z</time>
      </trkpt>
      <trkpt lat="43.36157" lon="5.99854">
        <ele>575</ele>
        <time>2019-12-17T11:37:57.000Z</time>
      </trkpt>
      <trkpt lat="43.36156" lon="5.99852">
        <ele>575</ele>
        <time>2019-12-17T11:37:58.000Z</time>
      </trkpt>
      <trkpt lat="43.36156" lon="5.99851">
        <ele>575</ele>
        <time>2019-12-17T11:37:59.000Z</time>
      </trkpt>
      <trkpt lat="43.36156" lon="5.99849">
        <ele>575</ele>
        <time>2019-12-17T11:38:00.000Z</time>
      </trkpt>
      <trkpt lat="43.36156" lon="5.99848">
        <ele>575</ele>
        <time>2019-12-17T11:38:01.000Z</time>
      </trkpt>
      <trkpt lat="43.36155" lon="5.99847">
        <ele>575</ele>
        <time>2019-12-17T11:38:02.000Z</time>
      </trkpt>
      <trkpt lat="43.36154" lon="5.99846">
        <ele>575</ele>
        <time>2019-12-17T11:38:03.000Z</time>
      </trkpt>
      <trkpt lat="43.36154" lon="5.99845">
        <ele>575</ele>
        <time>2019-12-17T11:38:04.000Z</time>
      </trkpt>
      <trkpt lat="43.36153" lon="5.99844">
        <ele>575</ele>
        <time>2019-12-17T11:38:05.000Z</time>
      </trkpt>
      <trkpt lat="43.36153" lon="5.99843">
        <ele>575</ele>
        <time>2019-12-17T11:38:06.000Z</time>
      </trkpt>
      <trkpt lat="43.36152" lon="5.99842">
        <ele>575</ele>
        <time>2019-12-17T11:38:07.000Z</time>
      </trkpt>
      <trkpt lat="43.36152" lon="5.99841">
        <ele>575</ele>
        <time>2019-12-17T11:38:08.000Z</time>
      </trkpt>
      <trkpt lat="43.36152" lon="5.99839">
        <ele>575</ele>
        <time>2019-12-17T11:38:09.000Z</time>
      </trkpt>
      <trkpt lat="43.36152" lon="5.99838">
        <ele>575</ele>
        <time>2019-12-17T11:38:10.000Z</time>
      </trkpt>
      <trkpt lat="43.36152" lon="5.99837">
        <ele>575</ele>
        <time>2019-12-17T11:38:11.000Z</time>
      </trkpt>
      <trkpt lat="43.36152" lon="5.99835">
        <ele>575</ele>
        <time>2019-12-17T11:38:12.000Z</time>
      </trkpt>
      <trkpt lat="43.36152" lon="5.99834">
        <ele>575</ele>
        <time>2019-12-17T11:38:13.000Z</time>
      </trkpt>
      <trkpt lat="43.36151" lon="5.99832">
        <ele>575</ele>
        <time>2019-12-17T11:38:14.000Z</time>
      </trkpt>
      <trkpt lat="43.36151" lon="5.9983">
        <ele>575</ele>
        <time>2019-12-17T11:38:15.000Z</time>
      </trkpt>
      <trkpt lat="43.36151" lon="5.99828">
        <ele>575</ele>
        <time>2019-12-17T11:38:16.000Z</time>
      </trkpt>
      <trkpt lat="43.36151" lon="5.99826">
        <ele>576</ele>
        <time>2019-12-17T11:38:17.000Z</time>
      </trkpt>
      <trkpt lat="43.36151" lon="5.99824">
        <ele>576</ele>
        <time>2019-12-17T11:38:18.000Z</time>
      </trkpt>
      <trkpt lat="43.36152" lon="5.99822">
        <ele>576</ele>
        <time>2019-12-17T11:38:19.000Z</time>
      </trkpt>
      <trkpt lat="43.36152" lon="5.9982">
        <ele>576</ele>
        <time>2019-12-17T11:38:20.000Z</time>
      </trkpt>
      <trkpt lat="43.36152" lon="5.99819">
        <ele>576</ele>
        <time>2019-12-17T11:38:21.000Z</time>
      </trkpt>
      <trkpt lat="43.36152" lon="5.99817">
        <ele>576</ele>
        <time>2019-12-17T11:38:22.000Z</time>
      </trkpt>
      <trkpt lat="43.36153" lon="5.99816">
        <ele>576</ele>
        <time>2019-12-17T11:38:23.000Z</time>
      </trkpt>
      <trkpt lat="43.36153" lon="5.99815">
        <ele>576</ele>
        <time>2019-12-17T11:38:24.000Z</time>
      </trkpt>
      <trkpt lat="43.36153" lon="5.99813">
        <ele>575</ele>
        <time>2019-12-17T11:38:25.000Z</time>
      </trkpt>
      <trkpt lat="43.36153" lon="5.99812">
        <ele>575</ele>
        <time>2019-12-17T11:38:26.000Z</time>
      </trkpt>
      <trkpt lat="43.36153" lon="5.9981">
        <ele>576</ele>
        <time>2019-12-17T11:38:27.000Z</time>
      </trkpt>
      <trkpt lat="43.36154" lon="5.99809">
        <ele>576</ele>
        <time>2019-12-17T11:38:28.000Z</time>
      </trkpt>
      <trkpt lat="43.36153" lon="5.99808">
        <ele>576</ele>
        <time>2019-12-17T11:38:29.000Z</time>
      </trkpt>
      <trkpt lat="43.36153" lon="5.99807">
        <ele>576</ele>
        <time>2019-12-17T11:38:30.000Z</time>
      </trkpt>
      <trkpt lat="43.36153" lon="5.99806">
        <ele>576</ele>
        <time>2019-12-17T11:38:31.000Z</time>
      </trkpt>
      <trkpt lat="43.36153" lon="5.99805">
        <ele>576</ele>
        <time>2019-12-17T11:38:32.000Z</time>
      </trkpt>
      <trkpt lat="43.36153" lon="5.99804">
        <ele>576</ele>
        <time>2019-12-17T11:38:33.000Z</time>
      </trkpt>
      <trkpt lat="43.36153" lon="5.99803">
        <ele>577</ele>
        <time>2019-12-17T11:38:34.000Z</time>
      </trkpt>
      <trkpt lat="43.36152" lon="5.99802">
        <ele>577</ele>
        <time>2019-12-17T11:38:35.000Z</time>
      </trkpt>
      <trkpt lat="43.36152" lon="5.99801">
        <ele>577</ele>
        <time>2019-12-17T11:38:36.000Z</time>
      </trkpt>
      <trkpt lat="43.36151" lon="5.998">
        <ele>577</ele>
        <time>2019-12-17T11:38:37.000Z</time>
      </trkpt>
      <trkpt lat="43.36151" lon="5.99799">
        <ele>577</ele>
        <time>2019-12-17T11:38:38.000Z</time>
      </trkpt>
      <trkpt lat="43.3615" lon="5.99798">
        <ele>577</ele>
        <time>2019-12-17T11:38:39.000Z</time>
      </trkpt>
      <trkpt lat="43.36149" lon="5.99796">
        <ele>578</ele>
        <time>2019-12-17T11:38:40.000Z</time>
      </trkpt>
      <trkpt lat="43.36148" lon="5.99795">
        <ele>578</ele>
        <time>2019-12-17T11:38:41.000Z</time>
      </trkpt>
      <trkpt lat="43.36148" lon="5.99794">
        <ele>578</ele>
        <time>2019-12-17T11:38:42.000Z</time>
      </trkpt>
      <trkpt lat="43.36148" lon="5.99794">
        <ele>578</ele>
        <time>2019-12-17T11:38:43.000Z</time>
      </trkpt>
      <trkpt lat="43.36146" lon="5.99792">
        <ele>578</ele>
        <time>2019-12-17T11:38:44.000Z</time>
      </trkpt>
      <trkpt lat="43.36145" lon="5.99791">
        <ele>579</ele>
        <time>2019-12-17T11:38:45.000Z</time>
      </trkpt>
      <trkpt lat="43.36145" lon="5.9979">
        <ele>579</ele>
        <time>2019-12-17T11:38:46.000Z</time>
      </trkpt>
      <trkpt lat="43.36144" lon="5.9979">
        <ele>579</ele>
        <time>2019-12-17T11:38:47.000Z</time>
      </trkpt>
      <trkpt lat="43.36143" lon="5.99789">
        <ele>579</ele>
        <time>2019-12-17T11:38:48.000Z</time>
      </trkpt>
      <trkpt lat="43.36142" lon="5.99788">
        <ele>579</ele>
        <time>2019-12-17T11:38:49.000Z</time>
      </trkpt>
      <trkpt lat="43.36141" lon="5.99788">
        <ele>580</ele>
        <time>2019-12-17T11:38:50.000Z</time>
      </trkpt>
      <trkpt lat="43.3614" lon="5.99787">
        <ele>580</ele>
        <time>2019-12-17T11:38:51.000Z</time>
      </trkpt>
      <trkpt lat="43.36139" lon="5.99786">
        <ele>580</ele>
        <time>2019-12-17T11:38:52.000Z</time>
      </trkpt>
      <trkpt lat="43.36138" lon="5.99786">
        <ele>580</ele>
        <time>2019-12-17T11:38:53.000Z</time>
      </trkpt>
      <trkpt lat="43.36137" lon="5.99785">
        <ele>581</ele>
        <time>2019-12-17T11:38:54.000Z</time>
      </trkpt>
      <trkpt lat="43.36136" lon="5.99784">
        <ele>581</ele>
        <time>2019-12-17T11:38:55.000Z</time>
      </trkpt>
      <trkpt lat="43.36135" lon="5.99783">
        <ele>581</ele>
        <time>2019-12-17T11:38:56.000Z</time>
      </trkpt>
      <trkpt lat="43.36134" lon="5.99782">
        <ele>581</ele>
        <time>2019-12-17T11:38:57.000Z</time>
      </trkpt>
      <trkpt lat="43.36133" lon="5.99781">
        <ele>581</ele>
        <time>2019-12-17T11:38:58.000Z</time>
      </trkpt>
      <trkpt lat="43.36133" lon="5.99779">
        <ele>582</ele>
        <time>2019-12-17T11:38:59.000Z</time>
      </trkpt>
      <trkpt lat="43.36132" lon="5.99778">
        <ele>582</ele>
        <time>2019-12-17T11:39:00.000Z</time>
      </trkpt>
      <trkpt lat="43.36131" lon="5.99776">
        <ele>582</ele>
        <time>2019-12-17T11:39:01.000Z</time>
      </trkpt>
      <trkpt lat="43.36131" lon="5.99775">
        <ele>582</ele>
        <time>2019-12-17T11:39:02.000Z</time>
      </trkpt>
      <trkpt lat="43.3613" lon="5.99773">
        <ele>582</ele>
        <time>2019-12-17T11:39:03.000Z</time>
      </trkpt>
      <trkpt lat="43.36129" lon="5.99772">
        <ele>582</ele>
        <time>2019-12-17T11:39:04.000Z</time>
      </trkpt>
      <trkpt lat="43.36128" lon="5.99771">
        <ele>582</ele>
        <time>2019-12-17T11:39:05.000Z</time>
      </trkpt>
      <trkpt lat="43.36128" lon="5.9977">
        <ele>582</ele>
        <time>2019-12-17T11:39:06.000Z</time>
      </trkpt>
      <trkpt lat="43.36127" lon="5.99769">
        <ele>582</ele>
        <time>2019-12-17T11:39:07.000Z</time>
      </trkpt>
      <trkpt lat="43.36126" lon="5.99768">
        <ele>582</ele>
        <time>2019-12-17T11:39:08.000Z</time>
      </trkpt>
      <trkpt lat="43.36126" lon="5.99767">
        <ele>582</ele>
        <time>2019-12-17T11:39:09.000Z</time>
      </trkpt>
      <trkpt lat="43.36125" lon="5.99766">
        <ele>582</ele>
        <time>2019-12-17T11:39:10.000Z</time>
      </trkpt>
      <trkpt lat="43.36124" lon="5.99765">
        <ele>582</ele>
        <time>2019-12-17T11:39:11.000Z</time>
      </trkpt>
      <trkpt lat="43.36124" lon="5.99764">
        <ele>582</ele>
        <time>2019-12-17T11:39:12.000Z</time>
      </trkpt>
      <trkpt lat="43.36123" lon="5.99763">
        <ele>582</ele>
        <time>2019-12-17T11:39:13.000Z</time>
      </trkpt>
      <trkpt lat="43.36123" lon="5.99763">
        <ele>582</ele>
        <time>2019-12-17T11:39:14.000Z</time>
      </trkpt>
      <trkpt lat="43.36122" lon="5.99762">
        <ele>582</ele>
        <time>2019-12-17T11:39:15.000Z</time>
      </trkpt>
      <trkpt lat="43.36121" lon="5.99762">
        <ele>582</ele>
        <time>2019-12-17T11:39:16.000Z</time>
      </trkpt>
      <trkpt lat="43.3612" lon="5.99762">
        <ele>582</ele>
        <time>2019-12-17T11:39:17.000Z</time>
      </trkpt>
      <trkpt lat="43.36119" lon="5.99761">
        <ele>582</ele>
        <time>2019-12-17T11:39:18.000Z</time>
      </trkpt>
      <trkpt lat="43.36118" lon="5.9976">
        <ele>582</ele>
        <time>2019-12-17T11:39:19.000Z</time>
      </trkpt>
      <trkpt lat="43.36118" lon="5.9976">
        <ele>582</ele>
        <time>2019-12-17T11:39:20.000Z</time>
      </trkpt>
      <trkpt lat="43.36117" lon="5.99759">
        <ele>581</ele>
        <time>2019-12-17T11:39:21.000Z</time>
      </trkpt>
      <trkpt lat="43.36116" lon="5.99758">
        <ele>581</ele>
        <time>2019-12-17T11:39:22.000Z</time>
      </trkpt>
      <trkpt lat="43.36116" lon="5.99757">
        <ele>581</ele>
        <time>2019-12-17T11:39:23.000Z</time>
      </trkpt>
      <trkpt lat="43.36115" lon="5.99756">
        <ele>581</ele>
        <time>2019-12-17T11:39:24.000Z</time>
      </trkpt>
      <trkpt lat="43.36114" lon="5.99754">
        <ele>581</ele>
        <time>2019-12-17T11:39:25.000Z</time>
      </trkpt>
      <trkpt lat="43.36114" lon="5.99753">
        <ele>581</ele>
        <time>2019-12-17T11:39:26.000Z</time>
      </trkpt>
      <trkpt lat="43.36114" lon="5.99752">
        <ele>581</ele>
        <time>2019-12-17T11:39:27.000Z</time>
      </trkpt>
      <trkpt lat="43.36113" lon="5.99751">
        <ele>581</ele>
        <time>2019-12-17T11:39:28.000Z</time>
      </trkpt>
      <trkpt lat="43.36113" lon="5.99749">
        <ele>581</ele>
        <time>2019-12-17T11:39:29.000Z</time>
      </trkpt>
      <trkpt lat="43.36112" lon="5.99748">
        <ele>581</ele>
        <time>2019-12-17T11:39:30.000Z</time>
      </trkpt>
      <trkpt lat="43.36112" lon="5.99746">
        <ele>581</ele>
        <time>2019-12-17T11:39:31.000Z</time>
      </trkpt>
      <trkpt lat="43.36111" lon="5.99745">
        <ele>581</ele>
        <time>2019-12-17T11:39:32.000Z</time>
      </trkpt>
      <trkpt lat="43.36111" lon="5.99744">
        <ele>581</ele>
        <time>2019-12-17T11:39:33.000Z</time>
      </trkpt>
      <trkpt lat="43.3611" lon="5.99743">
        <ele>581</ele>
        <time>2019-12-17T11:39:34.000Z</time>
      </trkpt>
      <trkpt lat="43.3611" lon="5.99742">
        <ele>581</ele>
        <time>2019-12-17T11:39:35.000Z</time>
      </trkpt>
      <trkpt lat="43.36109" lon="5.9974">
        <ele>581</ele>
        <time>2019-12-17T11:39:36.000Z</time>
      </trkpt>
      <trkpt lat="43.36109" lon="5.99739">
        <ele>581</ele>
        <time>2019-12-17T11:39:37.000Z</time>
      </trkpt>
      <trkpt lat="43.36108" lon="5.99738">
        <ele>580</ele>
        <time>2019-12-17T11:39:38.000Z</time>
      </trkpt>
      <trkpt lat="43.36107" lon="5.99737">
        <ele>580</ele>
        <time>2019-12-17T11:39:39.000Z</time>
      </trkpt>
      <trkpt lat="43.36107" lon="5.99736">
        <ele>580</ele>
        <time>2019-12-17T11:39:40.000Z</time>
      </trkpt>
      <trkpt lat="43.36106" lon="5.99736">
        <ele>580</ele>
        <time>2019-12-17T11:39:41.000Z</time>
      </trkpt>
      <trkpt lat="43.36105" lon="5.99734">
        <ele>580</ele>
        <time>2019-12-17T11:39:42.000Z</time>
      </trkpt>
      <trkpt lat="43.36104" lon="5.99733">
        <ele>580</ele>
        <time>2019-12-17T11:39:43.000Z</time>
      </trkpt>
      <trkpt lat="43.36104" lon="5.99732">
        <ele>580</ele>
        <time>2019-12-17T11:39:44.000Z</time>
      </trkpt>
      <trkpt lat="43.36103" lon="5.99731">
        <ele>580</ele>
        <time>2019-12-17T11:39:45.000Z</time>
      </trkpt>
      <trkpt lat="43.36102" lon="5.9973">
        <ele>580</ele>
        <time>2019-12-17T11:39:46.000Z</time>
      </trkpt>
      <trkpt lat="43.36101" lon="5.9973">
        <ele>580</ele>
        <time>2019-12-17T11:39:47.000Z</time>
      </trkpt>
      <trkpt lat="43.361" lon="5.99729">
        <ele>580</ele>
        <time>2019-12-17T11:39:48.000Z</time>
      </trkpt>
      <trkpt lat="43.36099" lon="5.99728">
        <ele>580</ele>
        <time>2019-12-17T11:39:49.000Z</time>
      </trkpt>
      <trkpt lat="43.36098" lon="5.99728">
        <ele>580</ele>
        <time>2019-12-17T11:39:50.000Z</time>
      </trkpt>
      <trkpt lat="43.36098" lon="5.99727">
        <ele>580</ele>
        <time>2019-12-17T11:39:51.000Z</time>
      </trkpt>
      <trkpt lat="43.36097" lon="5.99726">
        <ele>580</ele>
        <time>2019-12-17T11:39:52.000Z</time>
      </trkpt>
      <trkpt lat="43.36096" lon="5.99725">
        <ele>580</ele>
        <time>2019-12-17T11:39:53.000Z</time>
      </trkpt>
      <trkpt lat="43.36095" lon="5.99724">
        <ele>580</ele>
        <time>2019-12-17T11:39:54.000Z</time>
      </trkpt>
      <trkpt lat="43.36095" lon="5.99723">
        <ele>580</ele>
        <time>2019-12-17T11:39:55.000Z</time>
      </trkpt>
      <trkpt lat="43.36094" lon="5.99722">
        <ele>580</ele>
        <time>2019-12-17T11:39:56.000Z</time>
      </trkpt>
      <trkpt lat="43.36093" lon="5.99721">
        <ele>580</ele>
        <time>2019-12-17T11:39:57.000Z</time>
      </trkpt>
      <trkpt lat="43.36092" lon="5.99721">
        <ele>580</ele>
        <time>2019-12-17T11:39:58.000Z</time>
      </trkpt>
      <trkpt lat="43.36091" lon="5.99721">
        <ele>580</ele>
        <time>2019-12-17T11:39:59.000Z</time>
      </trkpt>
      <trkpt lat="43.36091" lon="5.99721">
        <ele>580</ele>
        <time>2019-12-17T11:40:00.000Z</time>
      </trkpt>
      <trkpt lat="43.3609" lon="5.9972">
        <ele>580</ele>
        <time>2019-12-17T11:40:01.000Z</time>
      </trkpt>
      <trkpt lat="43.36088" lon="5.9972">
        <ele>580</ele>
        <time>2019-12-17T11:40:02.000Z</time>
      </trkpt>
      <trkpt lat="43.36087" lon="5.9972">
        <ele>580</ele>
        <time>2019-12-17T11:40:03.000Z</time>
      </trkpt>
      <trkpt lat="43.36086" lon="5.99719">
        <ele>580</ele>
        <time>2019-12-17T11:40:04.000Z</time>
      </trkpt>
      <trkpt lat="43.36085" lon="5.99719">
        <ele>580</ele>
        <time>2019-12-17T11:40:05.000Z</time>
      </trkpt>
      <trkpt lat="43.36084" lon="5.99718">
        <ele>580</ele>
        <time>2019-12-17T11:40:06.000Z</time>
      </trkpt>
      <trkpt lat="43.36084" lon="5.99718">
        <ele>580</ele>
        <time>2019-12-17T11:40:07.000Z</time>
      </trkpt>
      <trkpt lat="43.36083" lon="5.99717">
        <ele>580</ele>
        <time>2019-12-17T11:40:08.000Z</time>
      </trkpt>
      <trkpt lat="43.36082" lon="5.99716">
        <ele>581</ele>
        <time>2019-12-17T11:40:09.000Z</time>
      </trkpt>
      <trkpt lat="43.36081" lon="5.99716">
        <ele>581</ele>
        <time>2019-12-17T11:40:10.000Z</time>
      </trkpt>
      <trkpt lat="43.3608" lon="5.99715">
        <ele>581</ele>
        <time>2019-12-17T11:40:11.000Z</time>
      </trkpt>
      <trkpt lat="43.36079" lon="5.99714">
        <ele>581</ele>
        <time>2019-12-17T11:40:12.000Z</time>
      </trkpt>
      <trkpt lat="43.36079" lon="5.99713">
        <ele>581</ele>
        <time>2019-12-17T11:40:13.000Z</time>
      </trkpt>
      <trkpt lat="43.36078" lon="5.99712">
        <ele>581</ele>
        <time>2019-12-17T11:40:14.000Z</time>
      </trkpt>
      <trkpt lat="43.36077" lon="5.99711">
        <ele>581</ele>
        <time>2019-12-17T11:40:15.000Z</time>
      </trkpt>
      <trkpt lat="43.36076" lon="5.9971">
        <ele>581</ele>
        <time>2019-12-17T11:40:16.000Z</time>
      </trkpt>
      <trkpt lat="43.36075" lon="5.9971">
        <ele>581</ele>
        <time>2019-12-17T11:40:17.000Z</time>
      </trkpt>
      <trkpt lat="43.36074" lon="5.99709">
        <ele>581</ele>
        <time>2019-12-17T11:40:18.000Z</time>
      </trkpt>
      <trkpt lat="43.36073" lon="5.99709">
        <ele>581</ele>
        <time>2019-12-17T11:40:19.000Z</time>
      </trkpt>
      <trkpt lat="43.36072" lon="5.99708">
        <ele>581</ele>
        <time>2019-12-17T11:40:20.000Z</time>
      </trkpt>
      <trkpt lat="43.36071" lon="5.99707">
        <ele>582</ele>
        <time>2019-12-17T11:40:21.000Z</time>
      </trkpt>
      <trkpt lat="43.3607" lon="5.99707">
        <ele>582</ele>
        <time>2019-12-17T11:40:22.000Z</time>
      </trkpt>
      <trkpt lat="43.36068" lon="5.99706">
        <ele>582</ele>
        <time>2019-12-17T11:40:23.000Z</time>
      </trkpt>
      <trkpt lat="43.36067" lon="5.99706">
        <ele>582</ele>
        <time>2019-12-17T11:40:24.000Z</time>
      </trkpt>
      <trkpt lat="43.36066" lon="5.99706">
        <ele>582</ele>
        <time>2019-12-17T11:40:25.000Z</time>
      </trkpt>
      <trkpt lat="43.36065" lon="5.99705">
        <ele>582</ele>
        <time>2019-12-17T11:40:26.000Z</time>
      </trkpt>
      <trkpt lat="43.36064" lon="5.99705">
        <ele>583</ele>
        <time>2019-12-17T11:40:27.000Z</time>
      </trkpt>
      <trkpt lat="43.36063" lon="5.99704">
        <ele>583</ele>
        <time>2019-12-17T11:40:28.000Z</time>
      </trkpt>
      <trkpt lat="43.36062" lon="5.99704">
        <ele>583</ele>
        <time>2019-12-17T11:40:29.000Z</time>
      </trkpt>
      <trkpt lat="43.36061" lon="5.99703">
        <ele>583</ele>
        <time>2019-12-17T11:40:30.000Z</time>
      </trkpt>
      <trkpt lat="43.36061" lon="5.99703">
        <ele>583</ele>
        <time>2019-12-17T11:40:31.000Z</time>
      </trkpt>
      <trkpt lat="43.36059" lon="5.99702">
        <ele>583</ele>
        <time>2019-12-17T11:40:32.000Z</time>
      </trkpt>
      <trkpt lat="43.36058" lon="5.99702">
        <ele>583</ele>
        <time>2019-12-17T11:40:33.000Z</time>
      </trkpt>
      <trkpt lat="43.36058" lon="5.99701">
        <ele>584</ele>
        <time>2019-12-17T11:40:34.000Z</time>
      </trkpt>
      <trkpt lat="43.36057" lon="5.99701">
        <ele>584</ele>
        <time>2019-12-17T11:40:35.000Z</time>
      </trkpt>
      <trkpt lat="43.36056" lon="5.99701">
        <ele>584</ele>
        <time>2019-12-17T11:40:36.000Z</time>
      </trkpt>
      <trkpt lat="43.36054" lon="5.99701">
        <ele>584</ele>
        <time>2019-12-17T11:40:37.000Z</time>
      </trkpt>
      <trkpt lat="43.36053" lon="5.997">
        <ele>584</ele>
        <time>2019-12-17T11:40:38.000Z</time>
      </trkpt>
      <trkpt lat="43.36052" lon="5.99699">
        <ele>584</ele>
        <time>2019-12-17T11:40:39.000Z</time>
      </trkpt>
      <trkpt lat="43.36052" lon="5.99699">
        <ele>584</ele>
        <time>2019-12-17T11:40:40.000Z</time>
      </trkpt>
      <trkpt lat="43.36051" lon="5.99698">
        <ele>585</ele>
        <time>2019-12-17T11:40:41.000Z</time>
      </trkpt>
      <trkpt lat="43.3605" lon="5.99697">
        <ele>585</ele>
        <time>2019-12-17T11:40:42.000Z</time>
      </trkpt>
      <trkpt lat="43.3605" lon="5.99697">
        <ele>585</ele>
        <time>2019-12-17T11:40:43.000Z</time>
      </trkpt>
      <trkpt lat="43.36049" lon="5.99697">
        <ele>585</ele>
        <time>2019-12-17T11:40:44.000Z</time>
      </trkpt>
      <trkpt lat="43.36048" lon="5.99696">
        <ele>586</ele>
        <time>2019-12-17T11:40:45.000Z</time>
      </trkpt>
      <trkpt lat="43.36048" lon="5.99697">
        <ele>586</ele>
        <time>2019-12-17T11:40:46.000Z</time>
      </trkpt>
      <trkpt lat="43.36048" lon="5.99697">
        <ele>586</ele>
        <time>2019-12-17T11:40:47.000Z</time>
      </trkpt>
      <trkpt lat="43.36047" lon="5.99697">
        <ele>586</ele>
        <time>2019-12-17T11:40:48.000Z</time>
      </trkpt>
      <trkpt lat="43.36047" lon="5.99697">
        <ele>586</ele>
        <time>2019-12-17T11:40:49.000Z</time>
      </trkpt>
      <trkpt lat="43.36047" lon="5.99697">
        <ele>586</ele>
        <time>2019-12-17T11:40:50.000Z</time>
      </trkpt>
      <trkpt lat="43.36047" lon="5.99697">
        <ele>586</ele>
        <time>2019-12-17T11:40:51.000Z</time>
      </trkpt>
      <trkpt lat="43.36047" lon="5.99697">
        <ele>586</ele>
        <time>2019-12-17T11:40:52.000Z</time>
      </trkpt>
      <trkpt lat="43.36047" lon="5.99697">
        <ele>587</ele>
        <time>2019-12-17T11:40:53.000Z</time>
      </trkpt>
      <trkpt lat="43.36046" lon="5.99697">
        <ele>587</ele>
        <time>2019-12-17T11:40:54.000Z</time>
      </trkpt>
      <trkpt lat="43.36046" lon="5.99697">
        <ele>587</ele>
        <time>2019-12-17T11:40:55.000Z</time>
      </trkpt>
      <trkpt lat="43.36046" lon="5.99697">
        <ele>587</ele>
        <time>2019-12-17T11:40:56.000Z</time>
      </trkpt>
      <trkpt lat="43.36046" lon="5.99697">
        <ele>587</ele>
        <time>2019-12-17T11:40:57.000Z</time>
      </trkpt>
      <trkpt lat="43.36046" lon="5.99697">
        <ele>587</ele>
        <time>2019-12-17T11:40:58.000Z</time>
      </trkpt>
      <trkpt lat="43.36046" lon="5.99697">
        <ele>587</ele>
        <time>2019-12-17T11:40:59.000Z</time>
      </trkpt>
      <trkpt lat="43.36046" lon="5.99696">
        <ele>587</ele>
        <time>2019-12-17T11:41:00.000Z</time>
      </trkpt>
      <trkpt lat="43.36046" lon="5.99696">
        <ele>587</ele>
        <time>2019-12-17T11:41:01.000Z</time>
      </trkpt>
      <trkpt lat="43.36046" lon="5.99696">
        <ele>587</ele>
        <time>2019-12-17T11:41:02.000Z</time>
      </trkpt>
      <trkpt lat="43.36046" lon="5.99696">
        <ele>587</ele>
        <time>2019-12-17T11:41:03.000Z</time>
      </trkpt>
      <trkpt lat="43.36046" lon="5.99696">
        <ele>587</ele>
        <time>2019-12-17T11:41:04.000Z</time>
      </trkpt>
      <trkpt lat="43.36046" lon="5.99696">
        <ele>587</ele>
        <time>2019-12-17T11:41:05.000Z</time>
      </trkpt>
      <trkpt lat="43.36046" lon="5.99696">
        <ele>587</ele>
        <time>2019-12-17T11:41:06.000Z</time>
      </trkpt>
      <trkpt lat="43.36046" lon="5.99696">
        <ele>587</ele>
        <time>2019-12-17T11:41:07.000Z</time>
      </trkpt>
      <trkpt lat="43.36045" lon="5.99696">
        <ele>587</ele>
        <time>2019-12-17T11:41:08.000Z</time>
      </trkpt>
      <trkpt lat="43.36045" lon="5.99696">
        <ele>587</ele>
        <time>2019-12-17T11:41:09.000Z</time>
      </trkpt>
      <trkpt lat="43.36045" lon="5.99696">
        <ele>587</ele>
        <time>2019-12-17T11:41:10.000Z</time>
      </trkpt>
      <trkpt lat="43.36045" lon="5.99696">
        <ele>587</ele>
        <time>2019-12-17T11:41:11.000Z</time>
      </trkpt>
      <trkpt lat="43.36045" lon="5.99696">
        <ele>587</ele>
        <time>2019-12-17T11:41:12.000Z</time>
      </trkpt>
      <trkpt lat="43.36045" lon="5.99696">
        <ele>587</ele>
        <time>2019-12-17T11:41:13.000Z</time>
      </trkpt>
      <trkpt lat="43.36045" lon="5.99696">
        <ele>587</ele>
        <time>2019-12-17T11:41:14.000Z</time>
      </trkpt>
      <trkpt lat="43.36045" lon="5.99696">
        <ele>587</ele>
        <time>2019-12-17T11:41:15.000Z</time>
      </trkpt>
      <trkpt lat="43.36045" lon="5.99696">
        <ele>587</ele>
        <time>2019-12-17T11:41:16.000Z</time>
      </trkpt>
      <trkpt lat="43.36045" lon="5.99696">
        <ele>587</ele>
        <time>2019-12-17T11:41:17.000Z</time>
      </trkpt>
      <trkpt lat="43.36045" lon="5.99696">
        <ele>587</ele>
        <time>2019-12-17T11:41:18.000Z</time>
      </trkpt>
      <trkpt lat="43.36045" lon="5.99696">
        <ele>587</ele>
        <time>2019-12-17T11:41:19.000Z</time>
      </trkpt>
      <trkpt lat="43.36045" lon="5.99696">
        <ele>587</ele>
        <time>2019-12-17T11:41:20.000Z</time>
      </trkpt>
      <trkpt lat="43.36045" lon="5.99696">
        <ele>587</ele>
        <time>2019-12-17T11:41:21.000Z</time>
      </trkpt>
      <trkpt lat="43.36045" lon="5.99696">
        <ele>587</ele>
        <time>2019-12-17T11:41:22.000Z</time>
      </trkpt>
      <trkpt lat="43.36045" lon="5.99696">
        <ele>587</ele>
        <time>2019-12-17T11:41:23.000Z</time>
      </trkpt>
      <trkpt lat="43.36045" lon="5.99696">
        <ele>587</ele>
        <time>2019-12-17T11:41:24.000Z</time>
      </trkpt>
      <trkpt lat="43.36045" lon="5.99696">
        <ele>587</ele>
        <time>2019-12-17T11:41:25.000Z</time>
      </trkpt>
      <trkpt lat="43.36045" lon="5.99696">
        <ele>587</ele>
        <time>2019-12-17T11:41:26.000Z</time>
      </trkpt>
      <trkpt lat="43.36045" lon="5.99695">
        <ele>588</ele>
        <time>2019-12-17T11:41:27.000Z</time>
      </trkpt>
      <trkpt lat="43.36045" lon="5.99695">
        <ele>588</ele>
        <time>2019-12-17T11:41:28.000Z</time>
      </trkpt>
      <trkpt lat="43.36045" lon="5.99695">
        <ele>588</ele>
        <time>2019-12-17T11:41:29.000Z</time>
      </trkpt>
      <trkpt lat="43.36045" lon="5.99695">
        <ele>588</ele>
        <time>2019-12-17T11:41:30.000Z</time>
      </trkpt>
      <trkpt lat="43.36045" lon="5.99695">
        <ele>588</ele>
        <time>2019-12-17T11:41:31.000Z</time>
      </trkpt>
      <trkpt lat="43.36045" lon="5.99695">
        <ele>588</ele>
        <time>2019-12-17T11:41:32.000Z</time>
      </trkpt>
      <trkpt lat="43.36045" lon="5.99695">
        <ele>587</ele>
        <time>2019-12-17T11:41:33.000Z</time>
      </trkpt>
      <trkpt lat="43.36045" lon="5.99695">
        <ele>587</ele>
        <time>2019-12-17T11:41:34.000Z</time>
      </trkpt>
      <trkpt lat="43.36045" lon="5.99695">
        <ele>587</ele>
        <time>2019-12-17T11:41:35.000Z</time>
      </trkpt>
      <trkpt lat="43.36045" lon="5.99695">
        <ele>587</ele>
        <time>2019-12-17T11:41:36.000Z</time>
      </trkpt>
      <trkpt lat="43.36045" lon="5.99695">
        <ele>587</ele>
        <time>2019-12-17T11:41:37.000Z</time>
      </trkpt>
      <trkpt lat="43.36045" lon="5.99695">
        <ele>587</ele>
        <time>2019-12-17T11:41:38.000Z</time>
      </trkpt>
      <trkpt lat="43.36045" lon="5.99695">
        <ele>587</ele>
        <time>2019-12-17T11:41:39.000Z</time>
      </trkpt>
      <trkpt lat="43.36044" lon="5.99695">
        <ele>587</ele>
        <time>2019-12-17T11:41:40.000Z</time>
      </trkpt>
      <trkpt lat="43.36044" lon="5.99695">
        <ele>587</ele>
        <time>2019-12-17T11:41:41.000Z</time>
      </trkpt>
      <trkpt lat="43.36044" lon="5.99695">
        <ele>587</ele>
        <time>2019-12-17T11:41:42.000Z</time>
      </trkpt>
      <trkpt lat="43.36044" lon="5.99695">
        <ele>587</ele>
        <time>2019-12-17T11:41:43.000Z</time>
      </trkpt>
      <trkpt lat="43.36044" lon="5.99695">
        <ele>587</ele>
        <time>2019-12-17T11:41:44.000Z</time>
      </trkpt>
      <trkpt lat="43.36044" lon="5.99695">
        <ele>587</ele>
        <time>2019-12-17T11:41:45.000Z</time>
      </trkpt>
      <trkpt lat="43.36044" lon="5.99695">
        <ele>587</ele>
        <time>2019-12-17T11:41:46.000Z</time>
      </trkpt>
      <trkpt lat="43.36044" lon="5.99695">
        <ele>587</ele>
        <time>2019-12-17T11:41:47.000Z</time>
      </trkpt>
      <trkpt lat="43.36044" lon="5.99695">
        <ele>587</ele>
        <time>2019-12-17T11:41:48.000Z</time>
      </trkpt>
      <trkpt lat="43.36044" lon="5.99695">
        <ele>587</ele>
        <time>2019-12-17T11:41:49.000Z</time>
      </trkpt>
      <trkpt lat="43.36044" lon="5.99695">
        <ele>587</ele>
        <time>2019-12-17T11:41:50.000Z</time>
      </trkpt>
      <trkpt lat="43.36044" lon="5.99695">
        <ele>587</ele>
        <time>2019-12-17T11:41:51.000Z</time>
      </trkpt>
      <trkpt lat="43.36044" lon="5.99695">
        <ele>587</ele>
        <time>2019-12-17T11:41:52.000Z</time>
      </trkpt>
      <trkpt lat="43.36044" lon="5.99695">
        <ele>587</ele>
        <time>2019-12-17T11:41:53.000Z</time>
      </trkpt>
      <trkpt lat="43.36044" lon="5.99695">
        <ele>587</ele>
        <time>2019-12-17T11:41:54.000Z</time>
      </trkpt>
      <trkpt lat="43.36044" lon="5.99695">
        <ele>587</ele>
        <time>2019-12-17T11:41:55.000Z</time>
      </trkpt>
      <trkpt lat="43.36044" lon="5.99695">
        <ele>587</ele>
        <time>2019-12-17T11:41:56.000Z</time>
      </trkpt>
      <trkpt lat="43.36044" lon="5.99695">
        <ele>587</ele>
        <time>2019-12-17T11:41:57.000Z</time>
      </trkpt>
      <trkpt lat="43.36044" lon="5.99695">
        <ele>587</ele>
        <time>2019-12-17T11:41:58.000Z</time>
      </trkpt>
      <trkpt lat="43.36044" lon="5.99695">
        <ele>587</ele>
        <time>2019-12-17T11:41:59.000Z</time>
      </trkpt>
      <trkpt lat="43.36044" lon="5.99695">
        <ele>587</ele>
        <time>2019-12-17T11:42:00.000Z</time>
      </trkpt>
      <trkpt lat="43.36044" lon="5.99695">
        <ele>587</ele>
        <time>2019-12-17T11:42:01.000Z</time>
      </trkpt>
      <trkpt lat="43.36044" lon="5.99695">
        <ele>587</ele>
        <time>2019-12-17T11:42:02.000Z</time>
      </trkpt>
      <trkpt lat="43.36044" lon="5.99695">
        <ele>587</ele>
        <time>2019-12-17T11:42:03.000Z</time>
      </trkpt>
      <trkpt lat="43.36044" lon="5.99695">
        <ele>587</ele>
        <time>2019-12-17T11:42:04.000Z</time>
      </trkpt>
      <trkpt lat="43.36044" lon="5.99695">
        <ele>587</ele>
        <time>2019-12-17T11:42:05.000Z</time>
      </trkpt>
      <trkpt lat="43.36044" lon="5.99695">
        <ele>587</ele>
        <time>2019-12-17T11:42:06.000Z</time>
      </trkpt>
      <trkpt lat="43.36044" lon="5.99695">
        <ele>587</ele>
        <time>2019-12-17T11:42:07.000Z</time>
      </trkpt>
      <trkpt lat="43.36044" lon="5.99695">
        <ele>587</ele>
        <time>2019-12-17T11:42:08.000Z</time>
      </trkpt>
      <trkpt lat="43.36043" lon="5.99695">
        <ele>587</ele>
        <time>2019-12-17T11:42:09.000Z</time>
      </trkpt>
      <trkpt lat="43.36043" lon="5.99695">
        <ele>587</ele>
        <time>2019-12-17T11:42:10.000Z</time>
      </trkpt>
      <trkpt lat="43.36043" lon="5.99695">
        <ele>587</ele>
        <time>2019-12-17T11:42:11.000Z</time>
      </trkpt>
      <trkpt lat="43.36043" lon="5.99695">
        <ele>587</ele>
        <time>2019-12-17T11:42:12.000Z</time>
      </trkpt>
      <trkpt lat="43.36042" lon="5.99696">
        <ele>587</ele>
        <time>2019-12-17T11:42:13.000Z</time>
      </trkpt>
      <trkpt lat="43.36042" lon="5.99696">
        <ele>587</ele>
        <time>2019-12-17T11:42:14.000Z</time>
      </trkpt>
      <trkpt lat="43.36041" lon="5.99696">
        <ele>587</ele>
        <time>2019-12-17T11:42:15.000Z</time>
      </trkpt>
      <trkpt lat="43.3604" lon="5.99696">
        <ele>587</ele>
        <time>2019-12-17T11:42:16.000Z</time>
      </trkpt>
      <trkpt lat="43.36039" lon="5.99696">
        <ele>587</ele>
        <time>2019-12-17T11:42:17.000Z</time>
      </trkpt>
      <trkpt lat="43.36037" lon="5.99697">
        <ele>587</ele>
        <time>2019-12-17T11:42:18.000Z</time>
      </trkpt>
      <trkpt lat="43.36037" lon="5.99697">
        <ele>587</ele>
        <time>2019-12-17T11:42:19.000Z</time>
      </trkpt>
      <trkpt lat="43.36036" lon="5.99697">
        <ele>587</ele>
        <time>2019-12-17T11:42:20.000Z</time>
      </trkpt>
      <trkpt lat="43.36035" lon="5.99698">
        <ele>587</ele>
        <time>2019-12-17T11:42:21.000Z</time>
      </trkpt>
      <trkpt lat="43.36034" lon="5.99698">
        <ele>587</ele>
        <time>2019-12-17T11:42:22.000Z</time>
      </trkpt>
      <trkpt lat="43.36033" lon="5.99698">
        <ele>587</ele>
        <time>2019-12-17T11:42:23.000Z</time>
      </trkpt>
      <trkpt lat="43.36033" lon="5.99698">
        <ele>587</ele>
        <time>2019-12-17T11:42:24.000Z</time>
      </trkpt>
      <trkpt lat="43.36031" lon="5.99699">
        <ele>587</ele>
        <time>2019-12-17T11:42:25.000Z</time>
      </trkpt>
      <trkpt lat="43.3603" lon="5.997">
        <ele>587</ele>
        <time>2019-12-17T11:42:26.000Z</time>
      </trkpt>
      <trkpt lat="43.36029" lon="5.997">
        <ele>587</ele>
        <time>2019-12-17T11:42:27.000Z</time>
      </trkpt>
      <trkpt lat="43.36028" lon="5.99701">
        <ele>587</ele>
        <time>2019-12-17T11:42:28.000Z</time>
      </trkpt>
      <trkpt lat="43.36027" lon="5.99701">
        <ele>587</ele>
        <time>2019-12-17T11:42:29.000Z</time>
      </trkpt>
      <trkpt lat="43.36026" lon="5.99702">
        <ele>587</ele>
        <time>2019-12-17T11:42:30.000Z</time>
      </trkpt>
      <trkpt lat="43.36026" lon="5.99702">
        <ele>587</ele>
        <time>2019-12-17T11:42:31.000Z</time>
      </trkpt>
      <trkpt lat="43.36025" lon="5.99703">
        <ele>587</ele>
        <time>2019-12-17T11:42:32.000Z</time>
      </trkpt>
      <trkpt lat="43.36024" lon="5.99703">
        <ele>587</ele>
        <time>2019-12-17T11:42:33.000Z</time>
      </trkpt>
      <trkpt lat="43.36024" lon="5.99704">
        <ele>587</ele>
        <time>2019-12-17T11:42:34.000Z</time>
      </trkpt>
      <trkpt lat="43.36023" lon="5.99705">
        <ele>587</ele>
        <time>2019-12-17T11:42:35.000Z</time>
      </trkpt>
      <trkpt lat="43.36023" lon="5.99706">
        <ele>587</ele>
        <time>2019-12-17T11:42:36.000Z</time>
      </trkpt>
      <trkpt lat="43.36023" lon="5.99707">
        <ele>587</ele>
        <time>2019-12-17T11:42:37.000Z</time>
      </trkpt>
      <trkpt lat="43.36022" lon="5.99707">
        <ele>587</ele>
        <time>2019-12-17T11:42:38.000Z</time>
      </trkpt>
      <trkpt lat="43.36022" lon="5.99708">
        <ele>587</ele>
        <time>2019-12-17T11:42:39.000Z</time>
      </trkpt>
      <trkpt lat="43.36021" lon="5.99708">
        <ele>587</ele>
        <time>2019-12-17T11:42:40.000Z</time>
      </trkpt>
      <trkpt lat="43.3602" lon="5.99709">
        <ele>587</ele>
        <time>2019-12-17T11:42:41.000Z</time>
      </trkpt>
      <trkpt lat="43.3602" lon="5.9971">
        <ele>587</ele>
        <time>2019-12-17T11:42:42.000Z</time>
      </trkpt>
      <trkpt lat="43.36019" lon="5.99711">
        <ele>587</ele>
        <time>2019-12-17T11:42:43.000Z</time>
      </trkpt>
      <trkpt lat="43.36018" lon="5.99712">
        <ele>587</ele>
        <time>2019-12-17T11:42:44.000Z</time>
      </trkpt>
      <trkpt lat="43.36017" lon="5.99713">
        <ele>587</ele>
        <time>2019-12-17T11:42:45.000Z</time>
      </trkpt>
      <trkpt lat="43.36016" lon="5.99714">
        <ele>587</ele>
        <time>2019-12-17T11:42:46.000Z</time>
      </trkpt>
      <trkpt lat="43.36015" lon="5.99715">
        <ele>587</ele>
        <time>2019-12-17T11:42:47.000Z</time>
      </trkpt>
      <trkpt lat="43.36014" lon="5.99716">
        <ele>587</ele>
        <time>2019-12-17T11:42:48.000Z</time>
      </trkpt>
      <trkpt lat="43.36013" lon="5.99716">
        <ele>587</ele>
        <time>2019-12-17T11:42:49.000Z</time>
      </trkpt>
      <trkpt lat="43.36012" lon="5.99717">
        <ele>587</ele>
        <time>2019-12-17T11:42:50.000Z</time>
      </trkpt>
      <trkpt lat="43.36011" lon="5.99717">
        <ele>587</ele>
        <time>2019-12-17T11:42:51.000Z</time>
      </trkpt>
      <trkpt lat="43.3601" lon="5.99718">
        <ele>587</ele>
        <time>2019-12-17T11:42:52.000Z</time>
      </trkpt>
      <trkpt lat="43.36009" lon="5.99719">
        <ele>588</ele>
        <time>2019-12-17T11:42:53.000Z</time>
      </trkpt>
      <trkpt lat="43.36008" lon="5.99719">
        <ele>588</ele>
        <time>2019-12-17T11:42:54.000Z</time>
      </trkpt>
      <trkpt lat="43.36006" lon="5.9972">
        <ele>588</ele>
        <time>2019-12-17T11:42:55.000Z</time>
      </trkpt>
      <trkpt lat="43.36005" lon="5.9972">
        <ele>588</ele>
        <time>2019-12-17T11:42:56.000Z</time>
      </trkpt>
      <trkpt lat="43.36004" lon="5.9972">
        <ele>588</ele>
        <time>2019-12-17T11:42:57.000Z</time>
      </trkpt>
      <trkpt lat="43.36003" lon="5.99719">
        <ele>588</ele>
        <time>2019-12-17T11:42:58.000Z</time>
      </trkpt>
      <trkpt lat="43.36001" lon="5.99718">
        <ele>588</ele>
        <time>2019-12-17T11:42:59.000Z</time>
      </trkpt>
      <trkpt lat="43.36" lon="5.99717">
        <ele>588</ele>
        <time>2019-12-17T11:43:00.000Z</time>
      </trkpt>
      <trkpt lat="43.35999" lon="5.99716">
        <ele>588</ele>
        <time>2019-12-17T11:43:01.000Z</time>
      </trkpt>
      <trkpt lat="43.35998" lon="5.99715">
        <ele>588</ele>
        <time>2019-12-17T11:43:02.000Z</time>
      </trkpt>
      <trkpt lat="43.35998" lon="5.99715">
        <ele>588</ele>
        <time>2019-12-17T11:43:03.000Z</time>
      </trkpt>
      <trkpt lat="43.35996" lon="5.99713">
        <ele>588</ele>
        <time>2019-12-17T11:43:04.000Z</time>
      </trkpt>
      <trkpt lat="43.35996" lon="5.99713">
        <ele>588</ele>
        <time>2019-12-17T11:43:05.000Z</time>
      </trkpt>
      <trkpt lat="43.35995" lon="5.99712">
        <ele>588</ele>
        <time>2019-12-17T11:43:06.000Z</time>
      </trkpt>
      <trkpt lat="43.35993" lon="5.9971">
        <ele>588</ele>
        <time>2019-12-17T11:43:07.000Z</time>
      </trkpt>
      <trkpt lat="43.35993" lon="5.9971">
        <ele>588</ele>
        <time>2019-12-17T11:43:08.000Z</time>
      </trkpt>
      <trkpt lat="43.35991" lon="5.99708">
        <ele>588</ele>
        <time>2019-12-17T11:43:09.000Z</time>
      </trkpt>
      <trkpt lat="43.35991" lon="5.99706">
        <ele>588</ele>
        <time>2019-12-17T11:43:10.000Z</time>
      </trkpt>
      <trkpt lat="43.35991" lon="5.99706">
        <ele>588</ele>
        <time>2019-12-17T11:43:11.000Z</time>
      </trkpt>
      <trkpt lat="43.35989" lon="5.99705">
        <ele>588</ele>
        <time>2019-12-17T11:43:12.000Z</time>
      </trkpt>
      <trkpt lat="43.35989" lon="5.99705">
        <ele>588</ele>
        <time>2019-12-17T11:43:13.000Z</time>
      </trkpt>
      <trkpt lat="43.35987" lon="5.99702">
        <ele>588</ele>
        <time>2019-12-17T11:43:14.000Z</time>
      </trkpt>
      <trkpt lat="43.35986" lon="5.99701">
        <ele>588</ele>
        <time>2019-12-17T11:43:15.000Z</time>
      </trkpt>
      <trkpt lat="43.35985" lon="5.997">
        <ele>588</ele>
        <time>2019-12-17T11:43:16.000Z</time>
      </trkpt>
      <trkpt lat="43.35984" lon="5.99699">
        <ele>588</ele>
        <time>2019-12-17T11:43:17.000Z</time>
      </trkpt>
      <trkpt lat="43.35983" lon="5.99698">
        <ele>588</ele>
        <time>2019-12-17T11:43:18.000Z</time>
      </trkpt>
      <trkpt lat="43.35982" lon="5.99697">
        <ele>588</ele>
        <time>2019-12-17T11:43:19.000Z</time>
      </trkpt>
      <trkpt lat="43.35981" lon="5.99696">
        <ele>588</ele>
        <time>2019-12-17T11:43:20.000Z</time>
      </trkpt>
      <trkpt lat="43.35981" lon="5.99695">
        <ele>588</ele>
        <time>2019-12-17T11:43:21.000Z</time>
      </trkpt>
      <trkpt lat="43.3598" lon="5.99694">
        <ele>588</ele>
        <time>2019-12-17T11:43:22.000Z</time>
      </trkpt>
      <trkpt lat="43.35979" lon="5.99693">
        <ele>588</ele>
        <time>2019-12-17T11:43:23.000Z</time>
      </trkpt>
      <trkpt lat="43.35978" lon="5.99692">
        <ele>588</ele>
        <time>2019-12-17T11:43:24.000Z</time>
      </trkpt>
      <trkpt lat="43.35977" lon="5.99691">
        <ele>588</ele>
        <time>2019-12-17T11:43:25.000Z</time>
      </trkpt>
      <trkpt lat="43.35977" lon="5.9969">
        <ele>588</ele>
        <time>2019-12-17T11:43:26.000Z</time>
      </trkpt>
      <trkpt lat="43.35976" lon="5.99689">
        <ele>588</ele>
        <time>2019-12-17T11:43:27.000Z</time>
      </trkpt>
      <trkpt lat="43.35975" lon="5.99688">
        <ele>588</ele>
        <time>2019-12-17T11:43:28.000Z</time>
      </trkpt>
      <trkpt lat="43.35974" lon="5.99687">
        <ele>588</ele>
        <time>2019-12-17T11:43:29.000Z</time>
      </trkpt>
      <trkpt lat="43.35973" lon="5.99686">
        <ele>588</ele>
        <time>2019-12-17T11:43:30.000Z</time>
      </trkpt>
      <trkpt lat="43.35972" lon="5.99685">
        <ele>588</ele>
        <time>2019-12-17T11:43:31.000Z</time>
      </trkpt>
      <trkpt lat="43.35971" lon="5.99684">
        <ele>588</ele>
        <time>2019-12-17T11:43:32.000Z</time>
      </trkpt>
      <trkpt lat="43.3597" lon="5.99683">
        <ele>588</ele>
        <time>2019-12-17T11:43:33.000Z</time>
      </trkpt>
      <trkpt lat="43.35969" lon="5.99682">
        <ele>588</ele>
        <time>2019-12-17T11:43:34.000Z</time>
      </trkpt>
      <trkpt lat="43.35968" lon="5.99681">
        <ele>588</ele>
        <time>2019-12-17T11:43:35.000Z</time>
      </trkpt>
      <trkpt lat="43.35967" lon="5.9968">
        <ele>588</ele>
        <time>2019-12-17T11:43:36.000Z</time>
      </trkpt>
      <trkpt lat="43.35966" lon="5.99678">
        <ele>588</ele>
        <time>2019-12-17T11:43:37.000Z</time>
      </trkpt>
      <trkpt lat="43.35965" lon="5.99677">
        <ele>588</ele>
        <time>2019-12-17T11:43:38.000Z</time>
      </trkpt>
      <trkpt lat="43.35964" lon="5.99676">
        <ele>588</ele>
        <time>2019-12-17T11:43:39.000Z</time>
      </trkpt>
      <trkpt lat="43.35963" lon="5.99675">
        <ele>588</ele>
        <time>2019-12-17T11:43:40.000Z</time>
      </trkpt>
      <trkpt lat="43.35963" lon="5.99674">
        <ele>588</ele>
        <time>2019-12-17T11:43:41.000Z</time>
      </trkpt>
      <trkpt lat="43.35962" lon="5.99673">
        <ele>588</ele>
        <time>2019-12-17T11:43:42.000Z</time>
      </trkpt>
      <trkpt lat="43.35961" lon="5.99672">
        <ele>589</ele>
        <time>2019-12-17T11:43:43.000Z</time>
      </trkpt>
      <trkpt lat="43.3596" lon="5.99671">
        <ele>589</ele>
        <time>2019-12-17T11:43:44.000Z</time>
      </trkpt>
      <trkpt lat="43.35959" lon="5.9967">
        <ele>589</ele>
        <time>2019-12-17T11:43:45.000Z</time>
      </trkpt>
      <trkpt lat="43.35958" lon="5.99669">
        <ele>589</ele>
        <time>2019-12-17T11:43:46.000Z</time>
      </trkpt>
      <trkpt lat="43.35958" lon="5.99668">
        <ele>589</ele>
        <time>2019-12-17T11:43:47.000Z</time>
      </trkpt>
      <trkpt lat="43.35957" lon="5.99667">
        <ele>589</ele>
        <time>2019-12-17T11:43:48.000Z</time>
      </trkpt>
      <trkpt lat="43.35956" lon="5.99667">
        <ele>589</ele>
        <time>2019-12-17T11:43:49.000Z</time>
      </trkpt>
      <trkpt lat="43.35956" lon="5.99666">
        <ele>589</ele>
        <time>2019-12-17T11:43:50.000Z</time>
      </trkpt>
      <trkpt lat="43.35955" lon="5.99665">
        <ele>589</ele>
        <time>2019-12-17T11:43:51.000Z</time>
      </trkpt>
      <trkpt lat="43.35954" lon="5.99664">
        <ele>589</ele>
        <time>2019-12-17T11:43:52.000Z</time>
      </trkpt>
      <trkpt lat="43.35953" lon="5.99663">
        <ele>589</ele>
        <time>2019-12-17T11:43:53.000Z</time>
      </trkpt>
      <trkpt lat="43.35953" lon="5.99663">
        <ele>589</ele>
        <time>2019-12-17T11:43:54.000Z</time>
      </trkpt>
      <trkpt lat="43.35951" lon="5.99661">
        <ele>589</ele>
        <time>2019-12-17T11:43:55.000Z</time>
      </trkpt>
      <trkpt lat="43.35951" lon="5.99661">
        <ele>589</ele>
        <time>2019-12-17T11:43:56.000Z</time>
      </trkpt>
      <trkpt lat="43.3595" lon="5.9966">
        <ele>589</ele>
        <time>2019-12-17T11:43:57.000Z</time>
      </trkpt>
      <trkpt lat="43.35948" lon="5.99659">
        <ele>589</ele>
        <time>2019-12-17T11:43:58.000Z</time>
      </trkpt>
      <trkpt lat="43.35948" lon="5.99659">
        <ele>589</ele>
        <time>2019-12-17T11:43:59.000Z</time>
      </trkpt>
      <trkpt lat="43.35946" lon="5.99656">
        <ele>589</ele>
        <time>2019-12-17T11:44:00.000Z</time>
      </trkpt>
      <trkpt lat="43.35946" lon="5.99656">
        <ele>589</ele>
        <time>2019-12-17T11:44:01.000Z</time>
      </trkpt>
      <trkpt lat="43.35945" lon="5.99653">
        <ele>589</ele>
        <time>2019-12-17T11:44:02.000Z</time>
      </trkpt>
      <trkpt lat="43.35945" lon="5.99653">
        <ele>589</ele>
        <time>2019-12-17T11:44:03.000Z</time>
      </trkpt>
      <trkpt lat="43.35944" lon="5.99651">
        <ele>589</ele>
        <time>2019-12-17T11:44:04.000Z</time>
      </trkpt>
      <trkpt lat="43.35944" lon="5.99649">
        <ele>589</ele>
        <time>2019-12-17T11:44:05.000Z</time>
      </trkpt>
      <trkpt lat="43.35944" lon="5.99648">
        <ele>589</ele>
        <time>2019-12-17T11:44:06.000Z</time>
      </trkpt>
      <trkpt lat="43.35943" lon="5.99647">
        <ele>589</ele>
        <time>2019-12-17T11:44:07.000Z</time>
      </trkpt>
      <trkpt lat="43.35942" lon="5.99646">
        <ele>589</ele>
        <time>2019-12-17T11:44:08.000Z</time>
      </trkpt>
      <trkpt lat="43.35942" lon="5.99646">
        <ele>589</ele>
        <time>2019-12-17T11:44:09.000Z</time>
      </trkpt>
      <trkpt lat="43.35942" lon="5.99645">
        <ele>589</ele>
        <time>2019-12-17T11:44:10.000Z</time>
      </trkpt>
      <trkpt lat="43.35941" lon="5.99645">
        <ele>589</ele>
        <time>2019-12-17T11:44:11.000Z</time>
      </trkpt>
      <trkpt lat="43.35941" lon="5.99644">
        <ele>588</ele>
        <time>2019-12-17T11:44:12.000Z</time>
      </trkpt>
      <trkpt lat="43.35941" lon="5.99644">
        <ele>588</ele>
        <time>2019-12-17T11:44:13.000Z</time>
      </trkpt>
      <trkpt lat="43.3594" lon="5.99644">
        <ele>588</ele>
        <time>2019-12-17T11:44:14.000Z</time>
      </trkpt>
      <trkpt lat="43.3594" lon="5.99644">
        <ele>588</ele>
        <time>2019-12-17T11:44:15.000Z</time>
      </trkpt>
      <trkpt lat="43.3594" lon="5.99644">
        <ele>588</ele>
        <time>2019-12-17T11:44:16.000Z</time>
      </trkpt>
      <trkpt lat="43.35941" lon="5.99644">
        <ele>588</ele>
        <time>2019-12-17T11:44:17.000Z</time>
      </trkpt>
      <trkpt lat="43.35941" lon="5.99644">
        <ele>588</ele>
        <time>2019-12-17T11:44:18.000Z</time>
      </trkpt>
      <trkpt lat="43.35941" lon="5.99644">
        <ele>588</ele>
        <time>2019-12-17T11:44:19.000Z</time>
      </trkpt>
      <trkpt lat="43.35941" lon="5.99644">
        <ele>588</ele>
        <time>2019-12-17T11:44:20.000Z</time>
      </trkpt>
      <trkpt lat="43.35941" lon="5.99643">
        <ele>588</ele>
        <time>2019-12-17T11:44:21.000Z</time>
      </trkpt>
      <trkpt lat="43.35941" lon="5.99643">
        <ele>588</ele>
        <time>2019-12-17T11:44:22.000Z</time>
      </trkpt>
      <trkpt lat="43.35941" lon="5.99643">
        <ele>588</ele>
        <time>2019-12-17T11:44:23.000Z</time>
      </trkpt>
      <trkpt lat="43.35941" lon="5.99643">
        <ele>588</ele>
        <time>2019-12-17T11:44:24.000Z</time>
      </trkpt>
      <trkpt lat="43.35941" lon="5.99643">
        <ele>588</ele>
        <time>2019-12-17T11:44:25.000Z</time>
      </trkpt>
      <trkpt lat="43.35941" lon="5.99643">
        <ele>588</ele>
        <time>2019-12-17T11:44:26.000Z</time>
      </trkpt>
      <trkpt lat="43.35941" lon="5.99643">
        <ele>588</ele>
        <time>2019-12-17T11:44:27.000Z</time>
      </trkpt>
      <trkpt lat="43.35941" lon="5.99642">
        <ele>588</ele>
        <time>2019-12-17T11:44:28.000Z</time>
      </trkpt>
      <trkpt lat="43.35941" lon="5.99642">
        <ele>588</ele>
        <time>2019-12-17T11:44:29.000Z</time>
      </trkpt>
      <trkpt lat="43.35941" lon="5.99642">
        <ele>588</ele>
        <time>2019-12-17T11:44:30.000Z</time>
      </trkpt>
      <trkpt lat="43.35941" lon="5.99642">
        <ele>588</ele>
        <time>2019-12-17T11:44:31.000Z</time>
      </trkpt>
      <trkpt lat="43.35941" lon="5.99642">
        <ele>588</ele>
        <time>2019-12-17T11:44:32.000Z</time>
      </trkpt>
      <trkpt lat="43.35941" lon="5.99642">
        <ele>588</ele>
        <time>2019-12-17T11:44:33.000Z</time>
      </trkpt>
      <trkpt lat="43.35941" lon="5.99642">
        <ele>588</ele>
        <time>2019-12-17T11:44:34.000Z</time>
      </trkpt>
      <trkpt lat="43.35941" lon="5.99642">
        <ele>588</ele>
        <time>2019-12-17T11:44:35.000Z</time>
      </trkpt>
      <trkpt lat="43.35941" lon="5.99642">
        <ele>588</ele>
        <time>2019-12-17T11:44:36.000Z</time>
      </trkpt>
      <trkpt lat="43.35941" lon="5.99642">
        <ele>588</ele>
        <time>2019-12-17T11:44:37.000Z</time>
      </trkpt>
      <trkpt lat="43.35941" lon="5.99642">
        <ele>588</ele>
        <time>2019-12-17T11:44:38.000Z</time>
      </trkpt>
      <trkpt lat="43.35941" lon="5.99642">
        <ele>588</ele>
        <time>2019-12-17T11:44:39.000Z</time>
      </trkpt>
      <trkpt lat="43.35941" lon="5.99642">
        <ele>588</ele>
        <time>2019-12-17T11:44:40.000Z</time>
      </trkpt>
      <trkpt lat="43.35941" lon="5.99642">
        <ele>588</ele>
        <time>2019-12-17T11:44:41.000Z</time>
      </trkpt>
      <trkpt lat="43.35941" lon="5.99642">
        <ele>588</ele>
        <time>2019-12-17T11:44:42.000Z</time>
      </trkpt>
      <trkpt lat="43.35941" lon="5.99642">
        <ele>588</ele>
        <time>2019-12-17T11:44:43.000Z</time>
      </trkpt>
      <trkpt lat="43.35941" lon="5.99642">
        <ele>588</ele>
        <time>2019-12-17T11:44:44.000Z</time>
      </trkpt>
      <trkpt lat="43.35941" lon="5.99642">
        <ele>588</ele>
        <time>2019-12-17T11:44:45.000Z</time>
      </trkpt>
      <trkpt lat="43.35941" lon="5.99642">
        <ele>588</ele>
        <time>2019-12-17T11:44:46.000Z</time>
      </trkpt>
      <trkpt lat="43.35941" lon="5.99642">
        <ele>588</ele>
        <time>2019-12-17T11:44:47.000Z</time>
      </trkpt>
      <trkpt lat="43.35941" lon="5.99642">
        <ele>588</ele>
        <time>2019-12-17T11:44:48.000Z</time>
      </trkpt>
      <trkpt lat="43.35941" lon="5.99642">
        <ele>588</ele>
        <time>2019-12-17T11:44:49.000Z</time>
      </trkpt>
      <trkpt lat="43.35941" lon="5.99642">
        <ele>588</ele>
        <time>2019-12-17T11:44:50.000Z</time>
      </trkpt>
      <trkpt lat="43.35941" lon="5.99642">
        <ele>588</ele>
        <time>2019-12-17T11:44:51.000Z</time>
      </trkpt>
      <trkpt lat="43.35941" lon="5.99642">
        <ele>588</ele>
        <time>2019-12-17T11:44:52.000Z</time>
      </trkpt>
      <trkpt lat="43.35941" lon="5.99641">
        <ele>588</ele>
        <time>2019-12-17T11:44:53.000Z</time>
      </trkpt>
      <trkpt lat="43.35941" lon="5.99641">
        <ele>588</ele>
        <time>2019-12-17T11:44:54.000Z</time>
      </trkpt>
      <trkpt lat="43.35941" lon="5.99641">
        <ele>588</ele>
        <time>2019-12-17T11:44:55.000Z</time>
      </trkpt>
      <trkpt lat="43.35941" lon="5.99641">
        <ele>588</ele>
        <time>2019-12-17T11:44:56.000Z</time>
      </trkpt>
      <trkpt lat="43.35941" lon="5.99641">
        <ele>588</ele>
        <time>2019-12-17T11:44:57.000Z</time>
      </trkpt>
      <trkpt lat="43.35941" lon="5.99641">
        <ele>588</ele>
        <time>2019-12-17T11:44:58.000Z</time>
      </trkpt>
      <trkpt lat="43.35941" lon="5.99641">
        <ele>588</ele>
        <time>2019-12-17T11:44:59.000Z</time>
      </trkpt>
      <trkpt lat="43.35941" lon="5.99641">
        <ele>589</ele>
        <time>2019-12-17T11:45:00.000Z</time>
      </trkpt>
      <trkpt lat="43.35941" lon="5.99641">
        <ele>589</ele>
        <time>2019-12-17T11:45:01.000Z</time>
      </trkpt>
      <trkpt lat="43.35941" lon="5.99641">
        <ele>589</ele>
        <time>2019-12-17T11:45:02.000Z</time>
      </trkpt>
      <trkpt lat="43.35941" lon="5.99641">
        <ele>589</ele>
        <time>2019-12-17T11:45:03.000Z</time>
      </trkpt>
      <trkpt lat="43.35941" lon="5.99641">
        <ele>588</ele>
        <time>2019-12-17T11:45:04.000Z</time>
      </trkpt>
      <trkpt lat="43.35941" lon="5.99641">
        <ele>588</ele>
        <time>2019-12-17T11:45:05.000Z</time>
      </trkpt>
      <trkpt lat="43.35941" lon="5.9964">
        <ele>588</ele>
        <time>2019-12-17T11:45:06.000Z</time>
      </trkpt>
      <trkpt lat="43.35941" lon="5.9964">
        <ele>588</ele>
        <time>2019-12-17T11:45:07.000Z</time>
      </trkpt>
      <trkpt lat="43.35941" lon="5.9964">
        <ele>588</ele>
        <time>2019-12-17T11:45:08.000Z</time>
      </trkpt>
      <trkpt lat="43.35941" lon="5.9964">
        <ele>588</ele>
        <time>2019-12-17T11:45:09.000Z</time>
      </trkpt>
      <trkpt lat="43.35941" lon="5.9964">
        <ele>589</ele>
        <time>2019-12-17T11:45:10.000Z</time>
      </trkpt>
      <trkpt lat="43.35941" lon="5.9964">
        <ele>589</ele>
        <time>2019-12-17T11:45:11.000Z</time>
      </trkpt>
      <trkpt lat="43.35941" lon="5.9964">
        <ele>589</ele>
        <time>2019-12-17T11:45:12.000Z</time>
      </trkpt>
      <trkpt lat="43.35941" lon="5.9964">
        <ele>589</ele>
        <time>2019-12-17T11:45:13.000Z</time>
      </trkpt>
      <trkpt lat="43.35941" lon="5.9964">
        <ele>589</ele>
        <time>2019-12-17T11:45:14.000Z</time>
      </trkpt>
      <trkpt lat="43.35941" lon="5.9964">
        <ele>589</ele>
        <time>2019-12-17T11:45:15.000Z</time>
      </trkpt>
      <trkpt lat="43.35941" lon="5.9964">
        <ele>589</ele>
        <time>2019-12-17T11:45:16.000Z</time>
      </trkpt>
      <trkpt lat="43.3594" lon="5.99641">
        <ele>589</ele>
        <time>2019-12-17T11:45:17.000Z</time>
      </trkpt>
      <trkpt lat="43.3594" lon="5.99642">
        <ele>589</ele>
        <time>2019-12-17T11:45:18.000Z</time>
      </trkpt>
      <trkpt lat="43.3594" lon="5.99642">
        <ele>589</ele>
        <time>2019-12-17T11:45:19.000Z</time>
      </trkpt>
      <trkpt lat="43.3594" lon="5.99642">
        <ele>589</ele>
        <time>2019-12-17T11:45:20.000Z</time>
      </trkpt>
      <trkpt lat="43.35939" lon="5.99644">
        <ele>589</ele>
        <time>2019-12-17T11:45:21.000Z</time>
      </trkpt>
      <trkpt lat="43.35939" lon="5.99644">
        <ele>589</ele>
        <time>2019-12-17T11:45:22.000Z</time>
      </trkpt>
      <trkpt lat="43.35938" lon="5.99645">
        <ele>589</ele>
        <time>2019-12-17T11:45:23.000Z</time>
      </trkpt>
      <trkpt lat="43.35938" lon="5.99646">
        <ele>589</ele>
        <time>2019-12-17T11:45:24.000Z</time>
      </trkpt>
      <trkpt lat="43.35937" lon="5.99646">
        <ele>589</ele>
        <time>2019-12-17T11:45:25.000Z</time>
      </trkpt>
      <trkpt lat="43.35937" lon="5.99647">
        <ele>589</ele>
        <time>2019-12-17T11:45:26.000Z</time>
      </trkpt>
      <trkpt lat="43.35936" lon="5.99647">
        <ele>589</ele>
        <time>2019-12-17T11:45:27.000Z</time>
      </trkpt>
      <trkpt lat="43.35936" lon="5.99648">
        <ele>589</ele>
        <time>2019-12-17T11:45:28.000Z</time>
      </trkpt>
      <trkpt lat="43.35936" lon="5.99648">
        <ele>590</ele>
        <time>2019-12-17T11:45:29.000Z</time>
      </trkpt>
      <trkpt lat="43.35935" lon="5.99649">
        <ele>590</ele>
        <time>2019-12-17T11:45:30.000Z</time>
      </trkpt>
      <trkpt lat="43.35935" lon="5.9965">
        <ele>590</ele>
        <time>2019-12-17T11:45:31.000Z</time>
      </trkpt>
      <trkpt lat="43.35934" lon="5.99651">
        <ele>590</ele>
        <time>2019-12-17T11:45:32.000Z</time>
      </trkpt>
      <trkpt lat="43.35933" lon="5.99652">
        <ele>590</ele>
        <time>2019-12-17T11:45:33.000Z</time>
      </trkpt>
      <trkpt lat="43.35933" lon="5.99653">
        <ele>589</ele>
        <time>2019-12-17T11:45:34.000Z</time>
      </trkpt>
      <trkpt lat="43.35933" lon="5.99653">
        <ele>589</ele>
        <time>2019-12-17T11:45:35.000Z</time>
      </trkpt>
      <trkpt lat="43.35931" lon="5.99654">
        <ele>589</ele>
        <time>2019-12-17T11:45:36.000Z</time>
      </trkpt>
      <trkpt lat="43.35929" lon="5.99655">
        <ele>589</ele>
        <time>2019-12-17T11:45:37.000Z</time>
      </trkpt>
      <trkpt lat="43.35929" lon="5.99655">
        <ele>589</ele>
        <time>2019-12-17T11:45:38.000Z</time>
      </trkpt>
      <trkpt lat="43.35928" lon="5.99655">
        <ele>589</ele>
        <time>2019-12-17T11:45:39.000Z</time>
      </trkpt>
      <trkpt lat="43.35926" lon="5.99656">
        <ele>589</ele>
        <time>2019-12-17T11:45:40.000Z</time>
      </trkpt>
      <trkpt lat="43.35926" lon="5.99656">
        <ele>589</ele>
        <time>2019-12-17T11:45:41.000Z</time>
      </trkpt>
      <trkpt lat="43.35924" lon="5.99656">
        <ele>589</ele>
        <time>2019-12-17T11:45:42.000Z</time>
      </trkpt>
      <trkpt lat="43.35924" lon="5.99656">
        <ele>589</ele>
        <time>2019-12-17T11:45:43.000Z</time>
      </trkpt>
      <trkpt lat="43.35922" lon="5.99655">
        <ele>589</ele>
        <time>2019-12-17T11:45:44.000Z</time>
      </trkpt>
      <trkpt lat="43.35922" lon="5.99655">
        <ele>589</ele>
        <time>2019-12-17T11:45:45.000Z</time>
      </trkpt>
      <trkpt lat="43.35921" lon="5.99655">
        <ele>589</ele>
        <time>2019-12-17T11:45:46.000Z</time>
      </trkpt>
      <trkpt lat="43.3592" lon="5.99654">
        <ele>589</ele>
        <time>2019-12-17T11:45:47.000Z</time>
      </trkpt>
      <trkpt lat="43.35919" lon="5.99653">
        <ele>589</ele>
        <time>2019-12-17T11:45:48.000Z</time>
      </trkpt>
      <trkpt lat="43.35918" lon="5.99652">
        <ele>589</ele>
        <time>2019-12-17T11:45:49.000Z</time>
      </trkpt>
      <trkpt lat="43.35917" lon="5.99651">
        <ele>589</ele>
        <time>2019-12-17T11:45:50.000Z</time>
      </trkpt>
      <trkpt lat="43.35916" lon="5.9965">
        <ele>589</ele>
        <time>2019-12-17T11:45:51.000Z</time>
      </trkpt>
      <trkpt lat="43.35915" lon="5.99649">
        <ele>589</ele>
        <time>2019-12-17T11:45:52.000Z</time>
      </trkpt>
      <trkpt lat="43.35915" lon="5.99648">
        <ele>589</ele>
        <time>2019-12-17T11:45:53.000Z</time>
      </trkpt>
      <trkpt lat="43.35914" lon="5.99647">
        <ele>588</ele>
        <time>2019-12-17T11:45:54.000Z</time>
      </trkpt>
      <trkpt lat="43.35913" lon="5.99646">
        <ele>588</ele>
        <time>2019-12-17T11:45:55.000Z</time>
      </trkpt>
      <trkpt lat="43.35913" lon="5.99646">
        <ele>588</ele>
        <time>2019-12-17T11:45:56.000Z</time>
      </trkpt>
      <trkpt lat="43.35911" lon="5.99644">
        <ele>588</ele>
        <time>2019-12-17T11:45:57.000Z</time>
      </trkpt>
      <trkpt lat="43.35911" lon="5.99644">
        <ele>588</ele>
        <time>2019-12-17T11:45:58.000Z</time>
      </trkpt>
      <trkpt lat="43.3591" lon="5.99643">
        <ele>587</ele>
        <time>2019-12-17T11:45:59.000Z</time>
      </trkpt>
      <trkpt lat="43.35909" lon="5.99643">
        <ele>587</ele>
        <time>2019-12-17T11:46:00.000Z</time>
      </trkpt>
      <trkpt lat="43.35908" lon="5.99642">
        <ele>587</ele>
        <time>2019-12-17T11:46:01.000Z</time>
      </trkpt>
      <trkpt lat="43.35907" lon="5.99642">
        <ele>587</ele>
        <time>2019-12-17T11:46:02.000Z</time>
      </trkpt>
      <trkpt lat="43.35905" lon="5.99642">
        <ele>587</ele>
        <time>2019-12-17T11:46:03.000Z</time>
      </trkpt>
      <trkpt lat="43.35904" lon="5.99642">
        <ele>586</ele>
        <time>2019-12-17T11:46:04.000Z</time>
      </trkpt>
      <trkpt lat="43.35903" lon="5.99642">
        <ele>586</ele>
        <time>2019-12-17T11:46:05.000Z</time>
      </trkpt>
      <trkpt lat="43.35902" lon="5.99641">
        <ele>586</ele>
        <time>2019-12-17T11:46:06.000Z</time>
      </trkpt>
      <trkpt lat="43.35901" lon="5.99641">
        <ele>586</ele>
        <time>2019-12-17T11:46:07.000Z</time>
      </trkpt>
      <trkpt lat="43.359" lon="5.99641">
        <ele>586</ele>
        <time>2019-12-17T11:46:08.000Z</time>
      </trkpt>
      <trkpt lat="43.35899" lon="5.99641">
        <ele>586</ele>
        <time>2019-12-17T11:46:09.000Z</time>
      </trkpt>
      <trkpt lat="43.35897" lon="5.9964">
        <ele>585</ele>
        <time>2019-12-17T11:46:10.000Z</time>
      </trkpt>
      <trkpt lat="43.35896" lon="5.9964">
        <ele>585</ele>
        <time>2019-12-17T11:46:11.000Z</time>
      </trkpt>
      <trkpt lat="43.35895" lon="5.9964">
        <ele>585</ele>
        <time>2019-12-17T11:46:12.000Z</time>
      </trkpt>
      <trkpt lat="43.35894" lon="5.9964">
        <ele>585</ele>
        <time>2019-12-17T11:46:13.000Z</time>
      </trkpt>
      <trkpt lat="43.35893" lon="5.9964">
        <ele>585</ele>
        <time>2019-12-17T11:46:14.000Z</time>
      </trkpt>
      <trkpt lat="43.35893" lon="5.9964">
        <ele>585</ele>
        <time>2019-12-17T11:46:15.000Z</time>
      </trkpt>
      <trkpt lat="43.35891" lon="5.9964">
        <ele>585</ele>
        <time>2019-12-17T11:46:16.000Z</time>
      </trkpt>
      <trkpt lat="43.3589" lon="5.9964">
        <ele>585</ele>
        <time>2019-12-17T11:46:17.000Z</time>
      </trkpt>
      <trkpt lat="43.35889" lon="5.9964">
        <ele>585</ele>
        <time>2019-12-17T11:46:18.000Z</time>
      </trkpt>
      <trkpt lat="43.35887" lon="5.9964">
        <ele>585</ele>
        <time>2019-12-17T11:46:19.000Z</time>
      </trkpt>
      <trkpt lat="43.35886" lon="5.9964">
        <ele>584</ele>
        <time>2019-12-17T11:46:20.000Z</time>
      </trkpt>
      <trkpt lat="43.35885" lon="5.99641">
        <ele>584</ele>
        <time>2019-12-17T11:46:21.000Z</time>
      </trkpt>
      <trkpt lat="43.35884" lon="5.99641">
        <ele>584</ele>
        <time>2019-12-17T11:46:22.000Z</time>
      </trkpt>
      <trkpt lat="43.35884" lon="5.99641">
        <ele>584</ele>
        <time>2019-12-17T11:46:23.000Z</time>
      </trkpt>
      <trkpt lat="43.35883" lon="5.9964">
        <ele>584</ele>
        <time>2019-12-17T11:46:24.000Z</time>
      </trkpt>
      <trkpt lat="43.35882" lon="5.99641">
        <ele>584</ele>
        <time>2019-12-17T11:46:25.000Z</time>
      </trkpt>
      <trkpt lat="43.35882" lon="5.99641">
        <ele>584</ele>
        <time>2019-12-17T11:46:26.000Z</time>
      </trkpt>
      <trkpt lat="43.35879" lon="5.9964">
        <ele>584</ele>
        <time>2019-12-17T11:46:27.000Z</time>
      </trkpt>
      <trkpt lat="43.35879" lon="5.9964">
        <ele>584</ele>
        <time>2019-12-17T11:46:28.000Z</time>
      </trkpt>
      <trkpt lat="43.35878" lon="5.9964">
        <ele>584</ele>
        <time>2019-12-17T11:46:29.000Z</time>
      </trkpt>
      <trkpt lat="43.35875" lon="5.9964">
        <ele>584</ele>
        <time>2019-12-17T11:46:30.000Z</time>
      </trkpt>
      <trkpt lat="43.35875" lon="5.9964">
        <ele>584</ele>
        <time>2019-12-17T11:46:31.000Z</time>
      </trkpt>
      <trkpt lat="43.35873" lon="5.9964">
        <ele>584</ele>
        <time>2019-12-17T11:46:32.000Z</time>
      </trkpt>
      <trkpt lat="43.35873" lon="5.9964">
        <ele>584</ele>
        <time>2019-12-17T11:46:33.000Z</time>
      </trkpt>
      <trkpt lat="43.35871" lon="5.9964">
        <ele>584</ele>
        <time>2019-12-17T11:46:34.000Z</time>
      </trkpt>
      <trkpt lat="43.3587" lon="5.9964">
        <ele>583</ele>
        <time>2019-12-17T11:46:35.000Z</time>
      </trkpt>
      <trkpt lat="43.35869" lon="5.9964">
        <ele>583</ele>
        <time>2019-12-17T11:46:36.000Z</time>
      </trkpt>
      <trkpt lat="43.35867" lon="5.9964">
        <ele>583</ele>
        <time>2019-12-17T11:46:37.000Z</time>
      </trkpt>
      <trkpt lat="43.35866" lon="5.9964">
        <ele>583</ele>
        <time>2019-12-17T11:46:38.000Z</time>
      </trkpt>
      <trkpt lat="43.35866" lon="5.9964">
        <ele>583</ele>
        <time>2019-12-17T11:46:39.000Z</time>
      </trkpt>
      <trkpt lat="43.35864" lon="5.9964">
        <ele>583</ele>
        <time>2019-12-17T11:46:40.000Z</time>
      </trkpt>
      <trkpt lat="43.35862" lon="5.99639">
        <ele>583</ele>
        <time>2019-12-17T11:46:41.000Z</time>
      </trkpt>
      <trkpt lat="43.35861" lon="5.99639">
        <ele>583</ele>
        <time>2019-12-17T11:46:42.000Z</time>
      </trkpt>
      <trkpt lat="43.3586" lon="5.99639">
        <ele>583</ele>
        <time>2019-12-17T11:46:43.000Z</time>
      </trkpt>
      <trkpt lat="43.35859" lon="5.99639">
        <ele>583</ele>
        <time>2019-12-17T11:46:44.000Z</time>
      </trkpt>
      <trkpt lat="43.35858" lon="5.99639">
        <ele>582</ele>
        <time>2019-12-17T11:46:45.000Z</time>
      </trkpt>
      <trkpt lat="43.35856" lon="5.99639">
        <ele>582</ele>
        <time>2019-12-17T11:46:46.000Z</time>
      </trkpt>
      <trkpt lat="43.35855" lon="5.99639">
        <ele>582</ele>
        <time>2019-12-17T11:46:47.000Z</time>
      </trkpt>
      <trkpt lat="43.35854" lon="5.99639">
        <ele>582</ele>
        <time>2019-12-17T11:46:48.000Z</time>
      </trkpt>
      <trkpt lat="43.35853" lon="5.99638">
        <ele>582</ele>
        <time>2019-12-17T11:46:49.000Z</time>
      </trkpt>
      <trkpt lat="43.35852" lon="5.99638">
        <ele>582</ele>
        <time>2019-12-17T11:46:50.000Z</time>
      </trkpt>
      <trkpt lat="43.35852" lon="5.99637">
        <ele>582</ele>
        <time>2019-12-17T11:46:51.000Z</time>
      </trkpt>
      <trkpt lat="43.35851" lon="5.99637">
        <ele>582</ele>
        <time>2019-12-17T11:46:52.000Z</time>
      </trkpt>
      <trkpt lat="43.3585" lon="5.99637">
        <ele>581</ele>
        <time>2019-12-17T11:46:53.000Z</time>
      </trkpt>
      <trkpt lat="43.3585" lon="5.99636">
        <ele>581</ele>
        <time>2019-12-17T11:46:54.000Z</time>
      </trkpt>
      <trkpt lat="43.35849" lon="5.99636">
        <ele>581</ele>
        <time>2019-12-17T11:46:55.000Z</time>
      </trkpt>
      <trkpt lat="43.35848" lon="5.99635">
        <ele>581</ele>
        <time>2019-12-17T11:46:56.000Z</time>
      </trkpt>
      <trkpt lat="43.35848" lon="5.99635">
        <ele>581</ele>
        <time>2019-12-17T11:46:57.000Z</time>
      </trkpt>
      <trkpt lat="43.35847" lon="5.99634">
        <ele>581</ele>
        <time>2019-12-17T11:46:58.000Z</time>
      </trkpt>
      <trkpt lat="43.35846" lon="5.99633">
        <ele>581</ele>
        <time>2019-12-17T11:46:59.000Z</time>
      </trkpt>
      <trkpt lat="43.35845" lon="5.99632">
        <ele>580</ele>
        <time>2019-12-17T11:47:00.000Z</time>
      </trkpt>
      <trkpt lat="43.35844" lon="5.99631">
        <ele>580</ele>
        <time>2019-12-17T11:47:01.000Z</time>
      </trkpt>
      <trkpt lat="43.35843" lon="5.9963">
        <ele>580</ele>
        <time>2019-12-17T11:47:02.000Z</time>
      </trkpt>
      <trkpt lat="43.35842" lon="5.99629">
        <ele>580</ele>
        <time>2019-12-17T11:47:03.000Z</time>
      </trkpt>
      <trkpt lat="43.35841" lon="5.99629">
        <ele>579</ele>
        <time>2019-12-17T11:47:04.000Z</time>
      </trkpt>
      <trkpt lat="43.3584" lon="5.99629">
        <ele>579</ele>
        <time>2019-12-17T11:47:05.000Z</time>
      </trkpt>
      <trkpt lat="43.35839" lon="5.99629">
        <ele>579</ele>
        <time>2019-12-17T11:47:06.000Z</time>
      </trkpt>
      <trkpt lat="43.35838" lon="5.99629">
        <ele>579</ele>
        <time>2019-12-17T11:47:07.000Z</time>
      </trkpt>
      <trkpt lat="43.35836" lon="5.99629">
        <ele>579</ele>
        <time>2019-12-17T11:47:08.000Z</time>
      </trkpt>
      <trkpt lat="43.35835" lon="5.99629">
        <ele>578</ele>
        <time>2019-12-17T11:47:09.000Z</time>
      </trkpt>
      <trkpt lat="43.35834" lon="5.99629">
        <ele>578</ele>
        <time>2019-12-17T11:47:10.000Z</time>
      </trkpt>
      <trkpt lat="43.35832" lon="5.99628">
        <ele>578</ele>
        <time>2019-12-17T11:47:11.000Z</time>
      </trkpt>
      <trkpt lat="43.35831" lon="5.99628">
        <ele>578</ele>
        <time>2019-12-17T11:47:12.000Z</time>
      </trkpt>
      <trkpt lat="43.3583" lon="5.99628">
        <ele>578</ele>
        <time>2019-12-17T11:47:13.000Z</time>
      </trkpt>
      <trkpt lat="43.35829" lon="5.99628">
        <ele>577</ele>
        <time>2019-12-17T11:47:14.000Z</time>
      </trkpt>
      <trkpt lat="43.35828" lon="5.99628">
        <ele>577</ele>
        <time>2019-12-17T11:47:15.000Z</time>
      </trkpt>
      <trkpt lat="43.35828" lon="5.99628">
        <ele>577</ele>
        <time>2019-12-17T11:47:16.000Z</time>
      </trkpt>
      <trkpt lat="43.35825" lon="5.99628">
        <ele>577</ele>
        <time>2019-12-17T11:47:17.000Z</time>
      </trkpt>
      <trkpt lat="43.35825" lon="5.99628">
        <ele>577</ele>
        <time>2019-12-17T11:47:18.000Z</time>
      </trkpt>
      <trkpt lat="43.35824" lon="5.99628">
        <ele>576</ele>
        <time>2019-12-17T11:47:19.000Z</time>
      </trkpt>
      <trkpt lat="43.35822" lon="5.99628">
        <ele>576</ele>
        <time>2019-12-17T11:47:20.000Z</time>
      </trkpt>
      <trkpt lat="43.35821" lon="5.99628">
        <ele>575</ele>
        <time>2019-12-17T11:47:21.000Z</time>
      </trkpt>
      <trkpt lat="43.35821" lon="5.99628">
        <ele>575</ele>
        <time>2019-12-17T11:47:22.000Z</time>
      </trkpt>
      <trkpt lat="43.35818" lon="5.99628">
        <ele>575</ele>
        <time>2019-12-17T11:47:23.000Z</time>
      </trkpt>
      <trkpt lat="43.35818" lon="5.99628">
        <ele>575</ele>
        <time>2019-12-17T11:47:24.000Z</time>
      </trkpt>
      <trkpt lat="43.35816" lon="5.99628">
        <ele>575</ele>
        <time>2019-12-17T11:47:25.000Z</time>
      </trkpt>
      <trkpt lat="43.35815" lon="5.99628">
        <ele>575</ele>
        <time>2019-12-17T11:47:26.000Z</time>
      </trkpt>
      <trkpt lat="43.35813" lon="5.99628">
        <ele>574</ele>
        <time>2019-12-17T11:47:27.000Z</time>
      </trkpt>
      <trkpt lat="43.35812" lon="5.99629">
        <ele>574</ele>
        <time>2019-12-17T11:47:28.000Z</time>
      </trkpt>
      <trkpt lat="43.35811" lon="5.99629">
        <ele>574</ele>
        <time>2019-12-17T11:47:29.000Z</time>
      </trkpt>
      <trkpt lat="43.35811" lon="5.99629">
        <ele>574</ele>
        <time>2019-12-17T11:47:30.000Z</time>
      </trkpt>
      <trkpt lat="43.35809" lon="5.99628">
        <ele>574</ele>
        <time>2019-12-17T11:47:31.000Z</time>
      </trkpt>
      <trkpt lat="43.35808" lon="5.99628">
        <ele>574</ele>
        <time>2019-12-17T11:47:32.000Z</time>
      </trkpt>
      <trkpt lat="43.35806" lon="5.99628">
        <ele>574</ele>
        <time>2019-12-17T11:47:33.000Z</time>
      </trkpt>
      <trkpt lat="43.35805" lon="5.99627">
        <ele>573</ele>
        <time>2019-12-17T11:47:34.000Z</time>
      </trkpt>
      <trkpt lat="43.35804" lon="5.99627">
        <ele>573</ele>
        <time>2019-12-17T11:47:35.000Z</time>
      </trkpt>
      <trkpt lat="43.35803" lon="5.99627">
        <ele>573</ele>
        <time>2019-12-17T11:47:36.000Z</time>
      </trkpt>
      <trkpt lat="43.35802" lon="5.99626">
        <ele>573</ele>
        <time>2019-12-17T11:47:37.000Z</time>
      </trkpt>
      <trkpt lat="43.35802" lon="5.99626">
        <ele>573</ele>
        <time>2019-12-17T11:47:38.000Z</time>
      </trkpt>
      <trkpt lat="43.35801" lon="5.99626">
        <ele>572</ele>
        <time>2019-12-17T11:47:39.000Z</time>
      </trkpt>
      <trkpt lat="43.358" lon="5.99625">
        <ele>572</ele>
        <time>2019-12-17T11:47:40.000Z</time>
      </trkpt>
      <trkpt lat="43.35799" lon="5.99625">
        <ele>572</ele>
        <time>2019-12-17T11:47:41.000Z</time>
      </trkpt>
      <trkpt lat="43.35798" lon="5.99624">
        <ele>572</ele>
        <time>2019-12-17T11:47:42.000Z</time>
      </trkpt>
      <trkpt lat="43.35797" lon="5.99624">
        <ele>572</ele>
        <time>2019-12-17T11:47:43.000Z</time>
      </trkpt>
      <trkpt lat="43.35796" lon="5.99623">
        <ele>571</ele>
        <time>2019-12-17T11:47:44.000Z</time>
      </trkpt>
      <trkpt lat="43.35795" lon="5.99622">
        <ele>571</ele>
        <time>2019-12-17T11:47:45.000Z</time>
      </trkpt>
      <trkpt lat="43.35795" lon="5.99621">
        <ele>571</ele>
        <time>2019-12-17T11:47:46.000Z</time>
      </trkpt>
      <trkpt lat="43.35794" lon="5.9962">
        <ele>571</ele>
        <time>2019-12-17T11:47:47.000Z</time>
      </trkpt>
      <trkpt lat="43.35793" lon="5.9962">
        <ele>571</ele>
        <time>2019-12-17T11:47:48.000Z</time>
      </trkpt>
      <trkpt lat="43.35792" lon="5.99619">
        <ele>571</ele>
        <time>2019-12-17T11:47:49.000Z</time>
      </trkpt>
      <trkpt lat="43.35791" lon="5.99619">
        <ele>570</ele>
        <time>2019-12-17T11:47:50.000Z</time>
      </trkpt>
      <trkpt lat="43.3579" lon="5.99618">
        <ele>570</ele>
        <time>2019-12-17T11:47:51.000Z</time>
      </trkpt>
      <trkpt lat="43.35789" lon="5.99617">
        <ele>570</ele>
        <time>2019-12-17T11:47:52.000Z</time>
      </trkpt>
      <trkpt lat="43.35788" lon="5.99616">
        <ele>570</ele>
        <time>2019-12-17T11:47:53.000Z</time>
      </trkpt>
      <trkpt lat="43.35787" lon="5.99615">
        <ele>570</ele>
        <time>2019-12-17T11:47:54.000Z</time>
      </trkpt>
      <trkpt lat="43.35785" lon="5.99615">
        <ele>570</ele>
        <time>2019-12-17T11:47:55.000Z</time>
      </trkpt>
      <trkpt lat="43.35784" lon="5.99614">
        <ele>570</ele>
        <time>2019-12-17T11:47:56.000Z</time>
      </trkpt>
      <trkpt lat="43.35783" lon="5.99613">
        <ele>570</ele>
        <time>2019-12-17T11:47:57.000Z</time>
      </trkpt>
      <trkpt lat="43.35783" lon="5.99612">
        <ele>570</ele>
        <time>2019-12-17T11:47:58.000Z</time>
      </trkpt>
      <trkpt lat="43.35782" lon="5.99611">
        <ele>569</ele>
        <time>2019-12-17T11:47:59.000Z</time>
      </trkpt>
      <trkpt lat="43.35781" lon="5.9961">
        <ele>569</ele>
        <time>2019-12-17T11:48:00.000Z</time>
      </trkpt>
      <trkpt lat="43.35781" lon="5.99608">
        <ele>569</ele>
        <time>2019-12-17T11:48:01.000Z</time>
      </trkpt>
      <trkpt lat="43.3578" lon="5.99607">
        <ele>569</ele>
        <time>2019-12-17T11:48:02.000Z</time>
      </trkpt>
      <trkpt lat="43.35779" lon="5.99606">
        <ele>568</ele>
        <time>2019-12-17T11:48:03.000Z</time>
      </trkpt>
      <trkpt lat="43.35778" lon="5.99605">
        <ele>568</ele>
        <time>2019-12-17T11:48:04.000Z</time>
      </trkpt>
      <trkpt lat="43.35777" lon="5.99604">
        <ele>568</ele>
        <time>2019-12-17T11:48:05.000Z</time>
      </trkpt>
      <trkpt lat="43.35777" lon="5.99603">
        <ele>568</ele>
        <time>2019-12-17T11:48:06.000Z</time>
      </trkpt>
      <trkpt lat="43.35777" lon="5.99603">
        <ele>568</ele>
        <time>2019-12-17T11:48:07.000Z</time>
      </trkpt>
      <trkpt lat="43.35775" lon="5.99601">
        <ele>567</ele>
        <time>2019-12-17T11:48:08.000Z</time>
      </trkpt>
      <trkpt lat="43.35775" lon="5.99601">
        <ele>567</ele>
        <time>2019-12-17T11:48:09.000Z</time>
      </trkpt>
      <trkpt lat="43.35774" lon="5.996">
        <ele>567</ele>
        <time>2019-12-17T11:48:10.000Z</time>
      </trkpt>
      <trkpt lat="43.35773" lon="5.99599">
        <ele>567</ele>
        <time>2019-12-17T11:48:11.000Z</time>
      </trkpt>
      <trkpt lat="43.35772" lon="5.99598">
        <ele>567</ele>
        <time>2019-12-17T11:48:12.000Z</time>
      </trkpt>
      <trkpt lat="43.35772" lon="5.99598">
        <ele>567</ele>
        <time>2019-12-17T11:48:13.000Z</time>
      </trkpt>
      <trkpt lat="43.3577" lon="5.99597">
        <ele>566</ele>
        <time>2019-12-17T11:48:14.000Z</time>
      </trkpt>
      <trkpt lat="43.3577" lon="5.99597">
        <ele>566</ele>
        <time>2019-12-17T11:48:15.000Z</time>
      </trkpt>
      <trkpt lat="43.35769" lon="5.99595">
        <ele>566</ele>
        <time>2019-12-17T11:48:16.000Z</time>
      </trkpt>
      <trkpt lat="43.35767" lon="5.99595">
        <ele>566</ele>
        <time>2019-12-17T11:48:17.000Z</time>
      </trkpt>
      <trkpt lat="43.35766" lon="5.99594">
        <ele>566</ele>
        <time>2019-12-17T11:48:18.000Z</time>
      </trkpt>
      <trkpt lat="43.35765" lon="5.99593">
        <ele>566</ele>
        <time>2019-12-17T11:48:19.000Z</time>
      </trkpt>
      <trkpt lat="43.35764" lon="5.99592">
        <ele>565</ele>
        <time>2019-12-17T11:48:20.000Z</time>
      </trkpt>
      <trkpt lat="43.35764" lon="5.99592">
        <ele>565</ele>
        <time>2019-12-17T11:48:21.000Z</time>
      </trkpt>
      <trkpt lat="43.35762" lon="5.9959">
        <ele>565</ele>
        <time>2019-12-17T11:48:22.000Z</time>
      </trkpt>
      <trkpt lat="43.35761" lon="5.99589">
        <ele>565</ele>
        <time>2019-12-17T11:48:23.000Z</time>
      </trkpt>
      <trkpt lat="43.3576" lon="5.99588">
        <ele>565</ele>
        <time>2019-12-17T11:48:24.000Z</time>
      </trkpt>
      <trkpt lat="43.3576" lon="5.99588">
        <ele>565</ele>
        <time>2019-12-17T11:48:25.000Z</time>
      </trkpt>
      <trkpt lat="43.35758" lon="5.99586">
        <ele>565</ele>
        <time>2019-12-17T11:48:26.000Z</time>
      </trkpt>
      <trkpt lat="43.35757" lon="5.99585">
        <ele>565</ele>
        <time>2019-12-17T11:48:27.000Z</time>
      </trkpt>
      <trkpt lat="43.35756" lon="5.99584">
        <ele>565</ele>
        <time>2019-12-17T11:48:28.000Z</time>
      </trkpt>
      <trkpt lat="43.35756" lon="5.99583">
        <ele>565</ele>
        <time>2019-12-17T11:48:29.000Z</time>
      </trkpt>
      <trkpt lat="43.35755" lon="5.99582">
        <ele>564</ele>
        <time>2019-12-17T11:48:30.000Z</time>
      </trkpt>
      <trkpt lat="43.35755" lon="5.99582">
        <ele>564</ele>
        <time>2019-12-17T11:48:31.000Z</time>
      </trkpt>
      <trkpt lat="43.35753" lon="5.9958">
        <ele>564</ele>
        <time>2019-12-17T11:48:32.000Z</time>
      </trkpt>
      <trkpt lat="43.35753" lon="5.9958">
        <ele>564</ele>
        <time>2019-12-17T11:48:33.000Z</time>
      </trkpt>
      <trkpt lat="43.35751" lon="5.99578">
        <ele>564</ele>
        <time>2019-12-17T11:48:34.000Z</time>
      </trkpt>
      <trkpt lat="43.35751" lon="5.99577">
        <ele>564</ele>
        <time>2019-12-17T11:48:35.000Z</time>
      </trkpt>
      <trkpt lat="43.35751" lon="5.99576">
        <ele>564</ele>
        <time>2019-12-17T11:48:36.000Z</time>
      </trkpt>
      <trkpt lat="43.3575" lon="5.99575">
        <ele>564</ele>
        <time>2019-12-17T11:48:37.000Z</time>
      </trkpt>
      <trkpt lat="43.3575" lon="5.99574">
        <ele>564</ele>
        <time>2019-12-17T11:48:38.000Z</time>
      </trkpt>
      <trkpt lat="43.35749" lon="5.99573">
        <ele>564</ele>
        <time>2019-12-17T11:48:39.000Z</time>
      </trkpt>
      <trkpt lat="43.35749" lon="5.99572">
        <ele>564</ele>
        <time>2019-12-17T11:48:40.000Z</time>
      </trkpt>
      <trkpt lat="43.35748" lon="5.99571">
        <ele>564</ele>
        <time>2019-12-17T11:48:41.000Z</time>
      </trkpt>
      <trkpt lat="43.35748" lon="5.9957">
        <ele>564</ele>
        <time>2019-12-17T11:48:42.000Z</time>
      </trkpt>
      <trkpt lat="43.35747" lon="5.99569">
        <ele>563</ele>
        <time>2019-12-17T11:48:43.000Z</time>
      </trkpt>
      <trkpt lat="43.35747" lon="5.99568">
        <ele>563</ele>
        <time>2019-12-17T11:48:44.000Z</time>
      </trkpt>
      <trkpt lat="43.35746" lon="5.99566">
        <ele>563</ele>
        <time>2019-12-17T11:48:45.000Z</time>
      </trkpt>
      <trkpt lat="43.35745" lon="5.99566">
        <ele>563</ele>
        <time>2019-12-17T11:48:46.000Z</time>
      </trkpt>
      <trkpt lat="43.35745" lon="5.99566">
        <ele>563</ele>
        <time>2019-12-17T11:48:47.000Z</time>
      </trkpt>
      <trkpt lat="43.35743" lon="5.99564">
        <ele>563</ele>
        <time>2019-12-17T11:48:48.000Z</time>
      </trkpt>
      <trkpt lat="43.35742" lon="5.99562">
        <ele>563</ele>
        <time>2019-12-17T11:48:49.000Z</time>
      </trkpt>
      <trkpt lat="43.35742" lon="5.99561">
        <ele>563</ele>
        <time>2019-12-17T11:48:50.000Z</time>
      </trkpt>
      <trkpt lat="43.35741" lon="5.9956">
        <ele>563</ele>
        <time>2019-12-17T11:48:51.000Z</time>
      </trkpt>
      <trkpt lat="43.35741" lon="5.99559">
        <ele>563</ele>
        <time>2019-12-17T11:48:52.000Z</time>
      </trkpt>
      <trkpt lat="43.3574" lon="5.99558">
        <ele>563</ele>
        <time>2019-12-17T11:48:53.000Z</time>
      </trkpt>
      <trkpt lat="43.35739" lon="5.99556">
        <ele>562</ele>
        <time>2019-12-17T11:48:54.000Z</time>
      </trkpt>
      <trkpt lat="43.35738" lon="5.99555">
        <ele>562</ele>
        <time>2019-12-17T11:48:55.000Z</time>
      </trkpt>
      <trkpt lat="43.35738" lon="5.99553">
        <ele>562</ele>
        <time>2019-12-17T11:48:56.000Z</time>
      </trkpt>
      <trkpt lat="43.35737" lon="5.99552">
        <ele>562</ele>
        <time>2019-12-17T11:48:57.000Z</time>
      </trkpt>
      <trkpt lat="43.35737" lon="5.99552">
        <ele>562</ele>
        <time>2019-12-17T11:48:58.000Z</time>
      </trkpt>
      <trkpt lat="43.35735" lon="5.9955">
        <ele>562</ele>
        <time>2019-12-17T11:48:59.000Z</time>
      </trkpt>
      <trkpt lat="43.35735" lon="5.9955">
        <ele>562</ele>
        <time>2019-12-17T11:49:00.000Z</time>
      </trkpt>
      <trkpt lat="43.35734" lon="5.99548">
        <ele>562</ele>
        <time>2019-12-17T11:49:01.000Z</time>
      </trkpt>
      <trkpt lat="43.35733" lon="5.99547">
        <ele>562</ele>
        <time>2019-12-17T11:49:02.000Z</time>
      </trkpt>
      <trkpt lat="43.35733" lon="5.99547">
        <ele>562</ele>
        <time>2019-12-17T11:49:03.000Z</time>
      </trkpt>
      <trkpt lat="43.35732" lon="5.99546">
        <ele>562</ele>
        <time>2019-12-17T11:49:04.000Z</time>
      </trkpt>
      <trkpt lat="43.35731" lon="5.99544">
        <ele>562</ele>
        <time>2019-12-17T11:49:05.000Z</time>
      </trkpt>
      <trkpt lat="43.3573" lon="5.99543">
        <ele>561</ele>
        <time>2019-12-17T11:49:06.000Z</time>
      </trkpt>
      <trkpt lat="43.3573" lon="5.99543">
        <ele>561</ele>
        <time>2019-12-17T11:49:07.000Z</time>
      </trkpt>
      <trkpt lat="43.35729" lon="5.99541">
        <ele>561</ele>
        <time>2019-12-17T11:49:08.000Z</time>
      </trkpt>
      <trkpt lat="43.35728" lon="5.9954">
        <ele>561</ele>
        <time>2019-12-17T11:49:09.000Z</time>
      </trkpt>
      <trkpt lat="43.35728" lon="5.99538">
        <ele>560</ele>
        <time>2019-12-17T11:49:10.000Z</time>
      </trkpt>
      <trkpt lat="43.35727" lon="5.99537">
        <ele>560</ele>
        <time>2019-12-17T11:49:11.000Z</time>
      </trkpt>
      <trkpt lat="43.35727" lon="5.99536">
        <ele>560</ele>
        <time>2019-12-17T11:49:12.000Z</time>
      </trkpt>
      <trkpt lat="43.35726" lon="5.99535">
        <ele>560</ele>
        <time>2019-12-17T11:49:13.000Z</time>
      </trkpt>
      <trkpt lat="43.35725" lon="5.99533">
        <ele>559</ele>
        <time>2019-12-17T11:49:14.000Z</time>
      </trkpt>
      <trkpt lat="43.35725" lon="5.99533">
        <ele>559</ele>
        <time>2019-12-17T11:49:15.000Z</time>
      </trkpt>
      <trkpt lat="43.35724" lon="5.99531">
        <ele>559</ele>
        <time>2019-12-17T11:49:16.000Z</time>
      </trkpt>
      <trkpt lat="43.35723" lon="5.9953">
        <ele>558</ele>
        <time>2019-12-17T11:49:17.000Z</time>
      </trkpt>
      <trkpt lat="43.35722" lon="5.99529">
        <ele>558</ele>
        <time>2019-12-17T11:49:18.000Z</time>
      </trkpt>
      <trkpt lat="43.35722" lon="5.99527">
        <ele>558</ele>
        <time>2019-12-17T11:49:19.000Z</time>
      </trkpt>
      <trkpt lat="43.35721" lon="5.99526">
        <ele>557</ele>
        <time>2019-12-17T11:49:20.000Z</time>
      </trkpt>
      <trkpt lat="43.3572" lon="5.99525">
        <ele>557</ele>
        <time>2019-12-17T11:49:21.000Z</time>
      </trkpt>
      <trkpt lat="43.35719" lon="5.99525">
        <ele>556</ele>
        <time>2019-12-17T11:49:22.000Z</time>
      </trkpt>
      <trkpt lat="43.35718" lon="5.99524">
        <ele>556</ele>
        <time>2019-12-17T11:49:23.000Z</time>
      </trkpt>
      <trkpt lat="43.35716" lon="5.99523">
        <ele>555</ele>
        <time>2019-12-17T11:49:24.000Z</time>
      </trkpt>
      <trkpt lat="43.35715" lon="5.99523">
        <ele>555</ele>
        <time>2019-12-17T11:49:25.000Z</time>
      </trkpt>
      <trkpt lat="43.35714" lon="5.99523">
        <ele>555</ele>
        <time>2019-12-17T11:49:26.000Z</time>
      </trkpt>
      <trkpt lat="43.35713" lon="5.99523">
        <ele>555</ele>
        <time>2019-12-17T11:49:27.000Z</time>
      </trkpt>
      <trkpt lat="43.35712" lon="5.99523">
        <ele>554</ele>
        <time>2019-12-17T11:49:28.000Z</time>
      </trkpt>
      <trkpt lat="43.3571" lon="5.99522">
        <ele>554</ele>
        <time>2019-12-17T11:49:29.000Z</time>
      </trkpt>
      <trkpt lat="43.35709" lon="5.99523">
        <ele>554</ele>
        <time>2019-12-17T11:49:30.000Z</time>
      </trkpt>
      <trkpt lat="43.35708" lon="5.99523">
        <ele>553</ele>
        <time>2019-12-17T11:49:31.000Z</time>
      </trkpt>
      <trkpt lat="43.35707" lon="5.99523">
        <ele>553</ele>
        <time>2019-12-17T11:49:32.000Z</time>
      </trkpt>
      <trkpt lat="43.35706" lon="5.99523">
        <ele>553</ele>
        <time>2019-12-17T11:49:33.000Z</time>
      </trkpt>
      <trkpt lat="43.35705" lon="5.99523">
        <ele>552</ele>
        <time>2019-12-17T11:49:34.000Z</time>
      </trkpt>
      <trkpt lat="43.35704" lon="5.99522">
        <ele>552</ele>
        <time>2019-12-17T11:49:35.000Z</time>
      </trkpt>
      <trkpt lat="43.35703" lon="5.99522">
        <ele>552</ele>
        <time>2019-12-17T11:49:36.000Z</time>
      </trkpt>
      <trkpt lat="43.35702" lon="5.99522">
        <ele>551</ele>
        <time>2019-12-17T11:49:37.000Z</time>
      </trkpt>
      <trkpt lat="43.35701" lon="5.99523">
        <ele>551</ele>
        <time>2019-12-17T11:49:38.000Z</time>
      </trkpt>
      <trkpt lat="43.35699" lon="5.99523">
        <ele>551</ele>
        <time>2019-12-17T11:49:39.000Z</time>
      </trkpt>
      <trkpt lat="43.35698" lon="5.99523">
        <ele>550</ele>
        <time>2019-12-17T11:49:40.000Z</time>
      </trkpt>
      <trkpt lat="43.35697" lon="5.99523">
        <ele>550</ele>
        <time>2019-12-17T11:49:41.000Z</time>
      </trkpt>
      <trkpt lat="43.35695" lon="5.99523">
        <ele>550</ele>
        <time>2019-12-17T11:49:42.000Z</time>
      </trkpt>
      <trkpt lat="43.35694" lon="5.99523">
        <ele>549</ele>
        <time>2019-12-17T11:49:43.000Z</time>
      </trkpt>
      <trkpt lat="43.35693" lon="5.99524">
        <ele>549</ele>
        <time>2019-12-17T11:49:44.000Z</time>
      </trkpt>
      <trkpt lat="43.35692" lon="5.99524">
        <ele>549</ele>
        <time>2019-12-17T11:49:45.000Z</time>
      </trkpt>
      <trkpt lat="43.35691" lon="5.99524">
        <ele>549</ele>
        <time>2019-12-17T11:49:46.000Z</time>
      </trkpt>
      <trkpt lat="43.3569" lon="5.99525">
        <ele>548</ele>
        <time>2019-12-17T11:49:47.000Z</time>
      </trkpt>
      <trkpt lat="43.3569" lon="5.99525">
        <ele>548</ele>
        <time>2019-12-17T11:49:48.000Z</time>
      </trkpt>
      <trkpt lat="43.35687" lon="5.99525">
        <ele>548</ele>
        <time>2019-12-17T11:49:49.000Z</time>
      </trkpt>
      <trkpt lat="43.35687" lon="5.99525">
        <ele>548</ele>
        <time>2019-12-17T11:49:50.000Z</time>
      </trkpt>
      <trkpt lat="43.35686" lon="5.99525">
        <ele>548</ele>
        <time>2019-12-17T11:49:51.000Z</time>
      </trkpt>
      <trkpt lat="43.35684" lon="5.99525">
        <ele>547</ele>
        <time>2019-12-17T11:49:52.000Z</time>
      </trkpt>
      <trkpt lat="43.35683" lon="5.99525">
        <ele>547</ele>
        <time>2019-12-17T11:49:53.000Z</time>
      </trkpt>
      <trkpt lat="43.35683" lon="5.99525">
        <ele>547</ele>
        <time>2019-12-17T11:49:54.000Z</time>
      </trkpt>
      <trkpt lat="43.35682" lon="5.99525">
        <ele>547</ele>
        <time>2019-12-17T11:49:55.000Z</time>
      </trkpt>
      <trkpt lat="43.35681" lon="5.99525">
        <ele>546</ele>
        <time>2019-12-17T11:49:56.000Z</time>
      </trkpt>
      <trkpt lat="43.3568" lon="5.99525">
        <ele>546</ele>
        <time>2019-12-17T11:49:57.000Z</time>
      </trkpt>
      <trkpt lat="43.35678" lon="5.99524">
        <ele>546</ele>
        <time>2019-12-17T11:49:58.000Z</time>
      </trkpt>
      <trkpt lat="43.35677" lon="5.99524">
        <ele>546</ele>
        <time>2019-12-17T11:49:59.000Z</time>
      </trkpt>
      <trkpt lat="43.35676" lon="5.99524">
        <ele>546</ele>
        <time>2019-12-17T11:50:00.000Z</time>
      </trkpt>
      <trkpt lat="43.35675" lon="5.99524">
        <ele>546</ele>
        <time>2019-12-17T11:50:01.000Z</time>
      </trkpt>
      <trkpt lat="43.35674" lon="5.99524">
        <ele>546</ele>
        <time>2019-12-17T11:50:02.000Z</time>
      </trkpt>
      <trkpt lat="43.35673" lon="5.99524">
        <ele>546</ele>
        <time>2019-12-17T11:50:03.000Z</time>
      </trkpt>
      <trkpt lat="43.35672" lon="5.99525">
        <ele>546</ele>
        <time>2019-12-17T11:50:04.000Z</time>
      </trkpt>
      <trkpt lat="43.35671" lon="5.99525">
        <ele>545</ele>
        <time>2019-12-17T11:50:05.000Z</time>
      </trkpt>
      <trkpt lat="43.35671" lon="5.99525">
        <ele>545</ele>
        <time>2019-12-17T11:50:06.000Z</time>
      </trkpt>
      <trkpt lat="43.35669" lon="5.99526">
        <ele>546</ele>
        <time>2019-12-17T11:50:07.000Z</time>
      </trkpt>
      <trkpt lat="43.35668" lon="5.99526">
        <ele>546</ele>
        <time>2019-12-17T11:50:08.000Z</time>
      </trkpt>
      <trkpt lat="43.35667" lon="5.99527">
        <ele>546</ele>
        <time>2019-12-17T11:50:09.000Z</time>
      </trkpt>
      <trkpt lat="43.35666" lon="5.99527">
        <ele>546</ele>
        <time>2019-12-17T11:50:10.000Z</time>
      </trkpt>
      <trkpt lat="43.35665" lon="5.99527">
        <ele>546</ele>
        <time>2019-12-17T11:50:11.000Z</time>
      </trkpt>
      <trkpt lat="43.35664" lon="5.99527">
        <ele>546</ele>
        <time>2019-12-17T11:50:12.000Z</time>
      </trkpt>
      <trkpt lat="43.35663" lon="5.99527">
        <ele>546</ele>
        <time>2019-12-17T11:50:13.000Z</time>
      </trkpt>
      <trkpt lat="43.35662" lon="5.99528">
        <ele>546</ele>
        <time>2019-12-17T11:50:14.000Z</time>
      </trkpt>
      <trkpt lat="43.35661" lon="5.99528">
        <ele>546</ele>
        <time>2019-12-17T11:50:15.000Z</time>
      </trkpt>
      <trkpt lat="43.3566" lon="5.99528">
        <ele>546</ele>
        <time>2019-12-17T11:50:16.000Z</time>
      </trkpt>
      <trkpt lat="43.35659" lon="5.99528">
        <ele>546</ele>
        <time>2019-12-17T11:50:17.000Z</time>
      </trkpt>
      <trkpt lat="43.35659" lon="5.99529">
        <ele>545</ele>
        <time>2019-12-17T11:50:18.000Z</time>
      </trkpt>
      <trkpt lat="43.35657" lon="5.99529">
        <ele>545</ele>
        <time>2019-12-17T11:50:19.000Z</time>
      </trkpt>
      <trkpt lat="43.35656" lon="5.99529">
        <ele>545</ele>
        <time>2019-12-17T11:50:20.000Z</time>
      </trkpt>
      <trkpt lat="43.35655" lon="5.99529">
        <ele>545</ele>
        <time>2019-12-17T11:50:21.000Z</time>
      </trkpt>
      <trkpt lat="43.35654" lon="5.9953">
        <ele>545</ele>
        <time>2019-12-17T11:50:22.000Z</time>
      </trkpt>
      <trkpt lat="43.35652" lon="5.9953">
        <ele>545</ele>
        <time>2019-12-17T11:50:23.000Z</time>
      </trkpt>
      <trkpt lat="43.35651" lon="5.99531">
        <ele>545</ele>
        <time>2019-12-17T11:50:24.000Z</time>
      </trkpt>
      <trkpt lat="43.35651" lon="5.99531">
        <ele>545</ele>
        <time>2019-12-17T11:50:25.000Z</time>
      </trkpt>
      <trkpt lat="43.35651" lon="5.99531">
        <ele>545</ele>
        <time>2019-12-17T11:50:26.000Z</time>
      </trkpt>
      <trkpt lat="43.35649" lon="5.99532">
        <ele>545</ele>
        <time>2019-12-17T11:50:27.000Z</time>
      </trkpt>
      <trkpt lat="43.35648" lon="5.99533">
        <ele>545</ele>
        <time>2019-12-17T11:50:28.000Z</time>
      </trkpt>
      <trkpt lat="43.35647" lon="5.99533">
        <ele>545</ele>
        <time>2019-12-17T11:50:29.000Z</time>
      </trkpt>
      <trkpt lat="43.35646" lon="5.99534">
        <ele>545</ele>
        <time>2019-12-17T11:50:30.000Z</time>
      </trkpt>
      <trkpt lat="43.35646" lon="5.99534">
        <ele>545</ele>
        <time>2019-12-17T11:50:31.000Z</time>
      </trkpt>
      <trkpt lat="43.35644" lon="5.99535">
        <ele>545</ele>
        <time>2019-12-17T11:50:32.000Z</time>
      </trkpt>
      <trkpt lat="43.35643" lon="5.99536">
        <ele>545</ele>
        <time>2019-12-17T11:50:33.000Z</time>
      </trkpt>
      <trkpt lat="43.35642" lon="5.99537">
        <ele>545</ele>
        <time>2019-12-17T11:50:34.000Z</time>
      </trkpt>
      <trkpt lat="43.35642" lon="5.99537">
        <ele>545</ele>
        <time>2019-12-17T11:50:35.000Z</time>
      </trkpt>
      <trkpt lat="43.35641" lon="5.99538">
        <ele>545</ele>
        <time>2019-12-17T11:50:36.000Z</time>
      </trkpt>
      <trkpt lat="43.35641" lon="5.99538">
        <ele>545</ele>
        <time>2019-12-17T11:50:37.000Z</time>
      </trkpt>
      <trkpt lat="43.3564" lon="5.99539">
        <ele>545</ele>
        <time>2019-12-17T11:50:38.000Z</time>
      </trkpt>
      <trkpt lat="43.3564" lon="5.99539">
        <ele>545</ele>
        <time>2019-12-17T11:50:39.000Z</time>
      </trkpt>
      <trkpt lat="43.35639" lon="5.99541">
        <ele>545</ele>
        <time>2019-12-17T11:50:40.000Z</time>
      </trkpt>
      <trkpt lat="43.35639" lon="5.99541">
        <ele>545</ele>
        <time>2019-12-17T11:50:41.000Z</time>
      </trkpt>
      <trkpt lat="43.35638" lon="5.99543">
        <ele>545</ele>
        <time>2019-12-17T11:50:42.000Z</time>
      </trkpt>
      <trkpt lat="43.35638" lon="5.99543">
        <ele>545</ele>
        <time>2019-12-17T11:50:43.000Z</time>
      </trkpt>
      <trkpt lat="43.35637" lon="5.99543">
        <ele>545</ele>
        <time>2019-12-17T11:50:44.000Z</time>
      </trkpt>
      <trkpt lat="43.35636" lon="5.99544">
        <ele>545</ele>
        <time>2019-12-17T11:50:45.000Z</time>
      </trkpt>
      <trkpt lat="43.35635" lon="5.99546">
        <ele>545</ele>
        <time>2019-12-17T11:50:46.000Z</time>
      </trkpt>
      <trkpt lat="43.35635" lon="5.99546">
        <ele>545</ele>
        <time>2019-12-17T11:50:47.000Z</time>
      </trkpt>
      <trkpt lat="43.35633" lon="5.99548">
        <ele>545</ele>
        <time>2019-12-17T11:50:48.000Z</time>
      </trkpt>
      <trkpt lat="43.35632" lon="5.99549">
        <ele>545</ele>
        <time>2019-12-17T11:50:49.000Z</time>
      </trkpt>
      <trkpt lat="43.35631" lon="5.9955">
        <ele>545</ele>
        <time>2019-12-17T11:50:50.000Z</time>
      </trkpt>
      <trkpt lat="43.3563" lon="5.99551">
        <ele>545</ele>
        <time>2019-12-17T11:50:51.000Z</time>
      </trkpt>
      <trkpt lat="43.3563" lon="5.99551">
        <ele>545</ele>
        <time>2019-12-17T11:50:52.000Z</time>
      </trkpt>
      <trkpt lat="43.35629" lon="5.99553">
        <ele>545</ele>
        <time>2019-12-17T11:50:53.000Z</time>
      </trkpt>
      <trkpt lat="43.35628" lon="5.99553">
        <ele>545</ele>
        <time>2019-12-17T11:50:54.000Z</time>
      </trkpt>
      <trkpt lat="43.35627" lon="5.99554">
        <ele>545</ele>
        <time>2019-12-17T11:50:55.000Z</time>
      </trkpt>
      <trkpt lat="43.35627" lon="5.99554">
        <ele>545</ele>
        <time>2019-12-17T11:50:56.000Z</time>
      </trkpt>
      <trkpt lat="43.35626" lon="5.99556">
        <ele>544</ele>
        <time>2019-12-17T11:50:57.000Z</time>
      </trkpt>
      <trkpt lat="43.35625" lon="5.99557">
        <ele>544</ele>
        <time>2019-12-17T11:50:58.000Z</time>
      </trkpt>
      <trkpt lat="43.35624" lon="5.99558">
        <ele>544</ele>
        <time>2019-12-17T11:50:59.000Z</time>
      </trkpt>
      <trkpt lat="43.35623" lon="5.9956">
        <ele>544</ele>
        <time>2019-12-17T11:51:00.000Z</time>
      </trkpt>
      <trkpt lat="43.35622" lon="5.99561">
        <ele>544</ele>
        <time>2019-12-17T11:51:01.000Z</time>
      </trkpt>
      <trkpt lat="43.35621" lon="5.99562">
        <ele>544</ele>
        <time>2019-12-17T11:51:02.000Z</time>
      </trkpt>
      <trkpt lat="43.3562" lon="5.99563">
        <ele>544</ele>
        <time>2019-12-17T11:51:03.000Z</time>
      </trkpt>
      <trkpt lat="43.3562" lon="5.99564">
        <ele>544</ele>
        <time>2019-12-17T11:51:04.000Z</time>
      </trkpt>
      <trkpt lat="43.35619" lon="5.99565">
        <ele>543</ele>
        <time>2019-12-17T11:51:05.000Z</time>
      </trkpt>
      <trkpt lat="43.35619" lon="5.99565">
        <ele>543</ele>
        <time>2019-12-17T11:51:06.000Z</time>
      </trkpt>
      <trkpt lat="43.35618" lon="5.99568">
        <ele>543</ele>
        <time>2019-12-17T11:51:07.000Z</time>
      </trkpt>
      <trkpt lat="43.35617" lon="5.99569">
        <ele>543</ele>
        <time>2019-12-17T11:51:08.000Z</time>
      </trkpt>
      <trkpt lat="43.35616" lon="5.9957">
        <ele>543</ele>
        <time>2019-12-17T11:51:09.000Z</time>
      </trkpt>
      <trkpt lat="43.35616" lon="5.99571">
        <ele>543</ele>
        <time>2019-12-17T11:51:10.000Z</time>
      </trkpt>
      <trkpt lat="43.35615" lon="5.99572">
        <ele>543</ele>
        <time>2019-12-17T11:51:11.000Z</time>
      </trkpt>
      <trkpt lat="43.35614" lon="5.99573">
        <ele>543</ele>
        <time>2019-12-17T11:51:12.000Z</time>
      </trkpt>
      <trkpt lat="43.35614" lon="5.99573">
        <ele>543</ele>
        <time>2019-12-17T11:51:13.000Z</time>
      </trkpt>
      <trkpt lat="43.35613" lon="5.99575">
        <ele>543</ele>
        <time>2019-12-17T11:51:14.000Z</time>
      </trkpt>
      <trkpt lat="43.35613" lon="5.99576">
        <ele>542</ele>
        <time>2019-12-17T11:51:15.000Z</time>
      </trkpt>
      <trkpt lat="43.35612" lon="5.99577">
        <ele>542</ele>
        <time>2019-12-17T11:51:16.000Z</time>
      </trkpt>
      <trkpt lat="43.35611" lon="5.99579">
        <ele>542</ele>
        <time>2019-12-17T11:51:17.000Z</time>
      </trkpt>
      <trkpt lat="43.35611" lon="5.99579">
        <ele>542</ele>
        <time>2019-12-17T11:51:18.000Z</time>
      </trkpt>
      <trkpt lat="43.35609" lon="5.99582">
        <ele>542</ele>
        <time>2019-12-17T11:51:19.000Z</time>
      </trkpt>
      <trkpt lat="43.35609" lon="5.99583">
        <ele>542</ele>
        <time>2019-12-17T11:51:20.000Z</time>
      </trkpt>
      <trkpt lat="43.35609" lon="5.99583">
        <ele>542</ele>
        <time>2019-12-17T11:51:21.000Z</time>
      </trkpt>
      <trkpt lat="43.35607" lon="5.99585">
        <ele>541</ele>
        <time>2019-12-17T11:51:22.000Z</time>
      </trkpt>
      <trkpt lat="43.35607" lon="5.99586">
        <ele>541</ele>
        <time>2019-12-17T11:51:23.000Z</time>
      </trkpt>
      <trkpt lat="43.35607" lon="5.99586">
        <ele>541</ele>
        <time>2019-12-17T11:51:24.000Z</time>
      </trkpt>
      <trkpt lat="43.35605" lon="5.99587">
        <ele>540</ele>
        <time>2019-12-17T11:51:25.000Z</time>
      </trkpt>
      <trkpt lat="43.35605" lon="5.99587">
        <ele>540</ele>
        <time>2019-12-17T11:51:26.000Z</time>
      </trkpt>
      <trkpt lat="43.35603" lon="5.99589">
        <ele>540</ele>
        <time>2019-12-17T11:51:27.000Z</time>
      </trkpt>
      <trkpt lat="43.35603" lon="5.9959">
        <ele>540</ele>
        <time>2019-12-17T11:51:28.000Z</time>
      </trkpt>
      <trkpt lat="43.35603" lon="5.9959">
        <ele>540</ele>
        <time>2019-12-17T11:51:29.000Z</time>
      </trkpt>
      <trkpt lat="43.35602" lon="5.9959">
        <ele>539</ele>
        <time>2019-12-17T11:51:30.000Z</time>
      </trkpt>
      <trkpt lat="43.356" lon="5.99592">
        <ele>539</ele>
        <time>2019-12-17T11:51:31.000Z</time>
      </trkpt>
      <trkpt lat="43.356" lon="5.99592">
        <ele>539</ele>
        <time>2019-12-17T11:51:32.000Z</time>
      </trkpt>
      <trkpt lat="43.35599" lon="5.99594">
        <ele>538</ele>
        <time>2019-12-17T11:51:33.000Z</time>
      </trkpt>
      <trkpt lat="43.35598" lon="5.99595">
        <ele>538</ele>
        <time>2019-12-17T11:51:34.000Z</time>
      </trkpt>
      <trkpt lat="43.35597" lon="5.99596">
        <ele>538</ele>
        <time>2019-12-17T11:51:35.000Z</time>
      </trkpt>
      <trkpt lat="43.35596" lon="5.99598">
        <ele>537</ele>
        <time>2019-12-17T11:51:36.000Z</time>
      </trkpt>
      <trkpt lat="43.35594" lon="5.99601">
        <ele>537</ele>
        <time>2019-12-17T11:51:37.000Z</time>
      </trkpt>
      <trkpt lat="43.35594" lon="5.99601">
        <ele>537</ele>
        <time>2019-12-17T11:51:38.000Z</time>
      </trkpt>
      <trkpt lat="43.35592" lon="5.99604">
        <ele>537</ele>
        <time>2019-12-17T11:51:39.000Z</time>
      </trkpt>
      <trkpt lat="43.35592" lon="5.99604">
        <ele>537</ele>
        <time>2019-12-17T11:51:40.000Z</time>
      </trkpt>
      <trkpt lat="43.3559" lon="5.99605">
        <ele>537</ele>
        <time>2019-12-17T11:51:41.000Z</time>
      </trkpt>
      <trkpt lat="43.35588" lon="5.99606">
        <ele>536</ele>
        <time>2019-12-17T11:51:42.000Z</time>
      </trkpt>
      <trkpt lat="43.35587" lon="5.99607">
        <ele>536</ele>
        <time>2019-12-17T11:51:43.000Z</time>
      </trkpt>
      <trkpt lat="43.35586" lon="5.99608">
        <ele>536</ele>
        <time>2019-12-17T11:51:44.000Z</time>
      </trkpt>
      <trkpt lat="43.35586" lon="5.99608">
        <ele>536</ele>
        <time>2019-12-17T11:51:45.000Z</time>
      </trkpt>
      <trkpt lat="43.35585" lon="5.9961">
        <ele>536</ele>
        <time>2019-12-17T11:51:46.000Z</time>
      </trkpt>
      <trkpt lat="43.35582" lon="5.99611">
        <ele>535</ele>
        <time>2019-12-17T11:51:47.000Z</time>
      </trkpt>
      <trkpt lat="43.35581" lon="5.99612">
        <ele>535</ele>
        <time>2019-12-17T11:51:48.000Z</time>
      </trkpt>
      <trkpt lat="43.35581" lon="5.99612">
        <ele>535</ele>
        <time>2019-12-17T11:51:49.000Z</time>
      </trkpt>
      <trkpt lat="43.35579" lon="5.99614">
        <ele>534</ele>
        <time>2019-12-17T11:51:50.000Z</time>
      </trkpt>
      <trkpt lat="43.35578" lon="5.99614">
        <ele>534</ele>
        <time>2019-12-17T11:51:51.000Z</time>
      </trkpt>
      <trkpt lat="43.35578" lon="5.99614">
        <ele>534</ele>
        <time>2019-12-17T11:51:52.000Z</time>
      </trkpt>
      <trkpt lat="43.35577" lon="5.99615">
        <ele>534</ele>
        <time>2019-12-17T11:51:53.000Z</time>
      </trkpt>
      <trkpt lat="43.35575" lon="5.99617">
        <ele>533</ele>
        <time>2019-12-17T11:51:54.000Z</time>
      </trkpt>
      <trkpt lat="43.35575" lon="5.99617">
        <ele>533</ele>
        <time>2019-12-17T11:51:55.000Z</time>
      </trkpt>
      <trkpt lat="43.35573" lon="5.99619">
        <ele>532</ele>
        <time>2019-12-17T11:51:56.000Z</time>
      </trkpt>
      <trkpt lat="43.35571" lon="5.99619">
        <ele>532</ele>
        <time>2019-12-17T11:51:57.000Z</time>
      </trkpt>
      <trkpt lat="43.35571" lon="5.99619">
        <ele>532</ele>
        <time>2019-12-17T11:51:58.000Z</time>
      </trkpt>
      <trkpt lat="43.35569" lon="5.99621">
        <ele>532</ele>
        <time>2019-12-17T11:51:59.000Z</time>
      </trkpt>
      <trkpt lat="43.35568" lon="5.99621">
        <ele>531</ele>
        <time>2019-12-17T11:52:00.000Z</time>
      </trkpt>
      <trkpt lat="43.35567" lon="5.99622">
        <ele>531</ele>
        <time>2019-12-17T11:52:01.000Z</time>
      </trkpt>
      <trkpt lat="43.35566" lon="5.99622">
        <ele>531</ele>
        <time>2019-12-17T11:52:02.000Z</time>
      </trkpt>
      <trkpt lat="43.35565" lon="5.99622">
        <ele>531</ele>
        <time>2019-12-17T11:52:03.000Z</time>
      </trkpt>
      <trkpt lat="43.35564" lon="5.99623">
        <ele>531</ele>
        <time>2019-12-17T11:52:04.000Z</time>
      </trkpt>
      <trkpt lat="43.35563" lon="5.99623">
        <ele>531</ele>
        <time>2019-12-17T11:52:05.000Z</time>
      </trkpt>
      <trkpt lat="43.35563" lon="5.99623">
        <ele>531</ele>
        <time>2019-12-17T11:52:06.000Z</time>
      </trkpt>
      <trkpt lat="43.35561" lon="5.99624">
        <ele>530</ele>
        <time>2019-12-17T11:52:07.000Z</time>
      </trkpt>
      <trkpt lat="43.3556" lon="5.99624">
        <ele>530</ele>
        <time>2019-12-17T11:52:08.000Z</time>
      </trkpt>
      <trkpt lat="43.3556" lon="5.99624">
        <ele>530</ele>
        <time>2019-12-17T11:52:09.000Z</time>
      </trkpt>
      <trkpt lat="43.35558" lon="5.99626">
        <ele>530</ele>
        <time>2019-12-17T11:52:10.000Z</time>
      </trkpt>
      <trkpt lat="43.35557" lon="5.99627">
        <ele>530</ele>
        <time>2019-12-17T11:52:11.000Z</time>
      </trkpt>
      <trkpt lat="43.35555" lon="5.99627">
        <ele>529</ele>
        <time>2019-12-17T11:52:12.000Z</time>
      </trkpt>
      <trkpt lat="43.35554" lon="5.99628">
        <ele>529</ele>
        <time>2019-12-17T11:52:13.000Z</time>
      </trkpt>
      <trkpt lat="43.35553" lon="5.99629">
        <ele>529</ele>
        <time>2019-12-17T11:52:14.000Z</time>
      </trkpt>
      <trkpt lat="43.35552" lon="5.9963">
        <ele>529</ele>
        <time>2019-12-17T11:52:15.000Z</time>
      </trkpt>
      <trkpt lat="43.35551" lon="5.9963">
        <ele>528</ele>
        <time>2019-12-17T11:52:16.000Z</time>
      </trkpt>
      <trkpt lat="43.3555" lon="5.99631">
        <ele>528</ele>
        <time>2019-12-17T11:52:17.000Z</time>
      </trkpt>
      <trkpt lat="43.35549" lon="5.99631">
        <ele>528</ele>
        <time>2019-12-17T11:52:18.000Z</time>
      </trkpt>
      <trkpt lat="43.35549" lon="5.99631">
        <ele>528</ele>
        <time>2019-12-17T11:52:19.000Z</time>
      </trkpt>
      <trkpt lat="43.35547" lon="5.99632">
        <ele>528</ele>
        <time>2019-12-17T11:52:20.000Z</time>
      </trkpt>
      <trkpt lat="43.35545" lon="5.99633">
        <ele>527</ele>
        <time>2019-12-17T11:52:21.000Z</time>
      </trkpt>
      <trkpt lat="43.35545" lon="5.99633">
        <ele>527</ele>
        <time>2019-12-17T11:52:22.000Z</time>
      </trkpt>
      <trkpt lat="43.35544" lon="5.99633">
        <ele>527</ele>
        <time>2019-12-17T11:52:23.000Z</time>
      </trkpt>
      <trkpt lat="43.35542" lon="5.99634">
        <ele>527</ele>
        <time>2019-12-17T11:52:24.000Z</time>
      </trkpt>
      <trkpt lat="43.35542" lon="5.99634">
        <ele>527</ele>
        <time>2019-12-17T11:52:25.000Z</time>
      </trkpt>
      <trkpt lat="43.35541" lon="5.99635">
        <ele>527</ele>
        <time>2019-12-17T11:52:26.000Z</time>
      </trkpt>
      <trkpt lat="43.3554" lon="5.99635">
        <ele>527</ele>
        <time>2019-12-17T11:52:27.000Z</time>
      </trkpt>
      <trkpt lat="43.35538" lon="5.99635">
        <ele>526</ele>
        <time>2019-12-17T11:52:28.000Z</time>
      </trkpt>
      <trkpt lat="43.35536" lon="5.99636">
        <ele>526</ele>
        <time>2019-12-17T11:52:29.000Z</time>
      </trkpt>
      <trkpt lat="43.35535" lon="5.99636">
        <ele>526</ele>
        <time>2019-12-17T11:52:30.000Z</time>
      </trkpt>
      <trkpt lat="43.35535" lon="5.99636">
        <ele>526</ele>
        <time>2019-12-17T11:52:31.000Z</time>
      </trkpt>
      <trkpt lat="43.35533" lon="5.99637">
        <ele>526</ele>
        <time>2019-12-17T11:52:32.000Z</time>
      </trkpt>
      <trkpt lat="43.35533" lon="5.99637">
        <ele>526</ele>
        <time>2019-12-17T11:52:33.000Z</time>
      </trkpt>
      <trkpt lat="43.35532" lon="5.99637">
        <ele>526</ele>
        <time>2019-12-17T11:52:34.000Z</time>
      </trkpt>
      <trkpt lat="43.35529" lon="5.99638">
        <ele>525</ele>
        <time>2019-12-17T11:52:35.000Z</time>
      </trkpt>
      <trkpt lat="43.35528" lon="5.99639">
        <ele>525</ele>
        <time>2019-12-17T11:52:36.000Z</time>
      </trkpt>
      <trkpt lat="43.35527" lon="5.99639">
        <ele>525</ele>
        <time>2019-12-17T11:52:37.000Z</time>
      </trkpt>
      <trkpt lat="43.35526" lon="5.9964">
        <ele>525</ele>
        <time>2019-12-17T11:52:38.000Z</time>
      </trkpt>
      <trkpt lat="43.35525" lon="5.99641">
        <ele>525</ele>
        <time>2019-12-17T11:52:39.000Z</time>
      </trkpt>
      <trkpt lat="43.35525" lon="5.99641">
        <ele>525</ele>
        <time>2019-12-17T11:52:40.000Z</time>
      </trkpt>
      <trkpt lat="43.35523" lon="5.99641">
        <ele>525</ele>
        <time>2019-12-17T11:52:41.000Z</time>
      </trkpt>
      <trkpt lat="43.35522" lon="5.99642">
        <ele>525</ele>
        <time>2019-12-17T11:52:42.000Z</time>
      </trkpt>
      <trkpt lat="43.35522" lon="5.99643">
        <ele>524</ele>
        <time>2019-12-17T11:52:43.000Z</time>
      </trkpt>
      <trkpt lat="43.35521" lon="5.99644">
        <ele>524</ele>
        <time>2019-12-17T11:52:44.000Z</time>
      </trkpt>
      <trkpt lat="43.3552" lon="5.99645">
        <ele>524</ele>
        <time>2019-12-17T11:52:45.000Z</time>
      </trkpt>
      <trkpt lat="43.35519" lon="5.99646">
        <ele>524</ele>
        <time>2019-12-17T11:52:46.000Z</time>
      </trkpt>
      <trkpt lat="43.35519" lon="5.99647">
        <ele>523</ele>
        <time>2019-12-17T11:52:47.000Z</time>
      </trkpt>
      <trkpt lat="43.35518" lon="5.99648">
        <ele>523</ele>
        <time>2019-12-17T11:52:48.000Z</time>
      </trkpt>
      <trkpt lat="43.35518" lon="5.99648">
        <ele>523</ele>
        <time>2019-12-17T11:52:49.000Z</time>
      </trkpt>
      <trkpt lat="43.35517" lon="5.9965">
        <ele>523</ele>
        <time>2019-12-17T11:52:50.000Z</time>
      </trkpt>
      <trkpt lat="43.35516" lon="5.99651">
        <ele>522</ele>
        <time>2019-12-17T11:52:51.000Z</time>
      </trkpt>
      <trkpt lat="43.35515" lon="5.99652">
        <ele>522</ele>
        <time>2019-12-17T11:52:52.000Z</time>
      </trkpt>
      <trkpt lat="43.35515" lon="5.99653">
        <ele>522</ele>
        <time>2019-12-17T11:52:53.000Z</time>
      </trkpt>
      <trkpt lat="43.35515" lon="5.99653">
        <ele>522</ele>
        <time>2019-12-17T11:52:54.000Z</time>
      </trkpt>
      <trkpt lat="43.35513" lon="5.99656">
        <ele>522</ele>
        <time>2019-12-17T11:52:55.000Z</time>
      </trkpt>
      <trkpt lat="43.35513" lon="5.99657">
        <ele>521</ele>
        <time>2019-12-17T11:52:56.000Z</time>
      </trkpt>
      <trkpt lat="43.35512" lon="5.99658">
        <ele>521</ele>
        <time>2019-12-17T11:52:57.000Z</time>
      </trkpt>
      <trkpt lat="43.35512" lon="5.99658">
        <ele>521</ele>
        <time>2019-12-17T11:52:58.000Z</time>
      </trkpt>
      <trkpt lat="43.3551" lon="5.9966">
        <ele>521</ele>
        <time>2019-12-17T11:52:59.000Z</time>
      </trkpt>
      <trkpt lat="43.35509" lon="5.99661">
        <ele>521</ele>
        <time>2019-12-17T11:53:00.000Z</time>
      </trkpt>
      <trkpt lat="43.35508" lon="5.99662">
        <ele>521</ele>
        <time>2019-12-17T11:53:01.000Z</time>
      </trkpt>
      <trkpt lat="43.35507" lon="5.99663">
        <ele>520</ele>
        <time>2019-12-17T11:53:02.000Z</time>
      </trkpt>
      <trkpt lat="43.35506" lon="5.99664">
        <ele>520</ele>
        <time>2019-12-17T11:53:03.000Z</time>
      </trkpt>
      <trkpt lat="43.35506" lon="5.99664">
        <ele>520</ele>
        <time>2019-12-17T11:53:04.000Z</time>
      </trkpt>
      <trkpt lat="43.35505" lon="5.99665">
        <ele>520</ele>
        <time>2019-12-17T11:53:05.000Z</time>
      </trkpt>
      <trkpt lat="43.35504" lon="5.99665">
        <ele>520</ele>
        <time>2019-12-17T11:53:06.000Z</time>
      </trkpt>
      <trkpt lat="43.35504" lon="5.99665">
        <ele>520</ele>
        <time>2019-12-17T11:53:07.000Z</time>
      </trkpt>
      <trkpt lat="43.35503" lon="5.99665">
        <ele>520</ele>
        <time>2019-12-17T11:53:08.000Z</time>
      </trkpt>
      <trkpt lat="43.35503" lon="5.99665">
        <ele>520</ele>
        <time>2019-12-17T11:53:09.000Z</time>
      </trkpt>
      <trkpt lat="43.35502" lon="5.99665">
        <ele>520</ele>
        <time>2019-12-17T11:53:10.000Z</time>
      </trkpt>
      <trkpt lat="43.35499" lon="5.99666">
        <ele>519</ele>
        <time>2019-12-17T11:53:11.000Z</time>
      </trkpt>
      <trkpt lat="43.35498" lon="5.99666">
        <ele>519</ele>
        <time>2019-12-17T11:53:12.000Z</time>
      </trkpt>
      <trkpt lat="43.35498" lon="5.99666">
        <ele>519</ele>
        <time>2019-12-17T11:53:13.000Z</time>
      </trkpt>
      <trkpt lat="43.35496" lon="5.99666">
        <ele>518</ele>
        <time>2019-12-17T11:53:14.000Z</time>
      </trkpt>
      <trkpt lat="43.35496" lon="5.99666">
        <ele>518</ele>
        <time>2019-12-17T11:53:15.000Z</time>
      </trkpt>
      <trkpt lat="43.35494" lon="5.99666">
        <ele>518</ele>
        <time>2019-12-17T11:53:16.000Z</time>
      </trkpt>
      <trkpt lat="43.35492" lon="5.99667">
        <ele>517</ele>
        <time>2019-12-17T11:53:17.000Z</time>
      </trkpt>
      <trkpt lat="43.35492" lon="5.99667">
        <ele>517</ele>
        <time>2019-12-17T11:53:18.000Z</time>
      </trkpt>
      <trkpt lat="43.3549" lon="5.99668">
        <ele>517</ele>
        <time>2019-12-17T11:53:19.000Z</time>
      </trkpt>
      <trkpt lat="43.35489" lon="5.99668">
        <ele>516</ele>
        <time>2019-12-17T11:53:20.000Z</time>
      </trkpt>
      <trkpt lat="43.35488" lon="5.99668">
        <ele>516</ele>
        <time>2019-12-17T11:53:21.000Z</time>
      </trkpt>
      <trkpt lat="43.35487" lon="5.99668">
        <ele>516</ele>
        <time>2019-12-17T11:53:22.000Z</time>
      </trkpt>
      <trkpt lat="43.35486" lon="5.99669">
        <ele>515</ele>
        <time>2019-12-17T11:53:23.000Z</time>
      </trkpt>
      <trkpt lat="43.35485" lon="5.99669">
        <ele>515</ele>
        <time>2019-12-17T11:53:24.000Z</time>
      </trkpt>
      <trkpt lat="43.35484" lon="5.99669">
        <ele>515</ele>
        <time>2019-12-17T11:53:25.000Z</time>
      </trkpt>
      <trkpt lat="43.35483" lon="5.99669">
        <ele>514</ele>
        <time>2019-12-17T11:53:26.000Z</time>
      </trkpt>
      <trkpt lat="43.35483" lon="5.99669">
        <ele>514</ele>
        <time>2019-12-17T11:53:27.000Z</time>
      </trkpt>
      <trkpt lat="43.35482" lon="5.99669">
        <ele>514</ele>
        <time>2019-12-17T11:53:28.000Z</time>
      </trkpt>
      <trkpt lat="43.3548" lon="5.9967">
        <ele>513</ele>
        <time>2019-12-17T11:53:29.000Z</time>
      </trkpt>
      <trkpt lat="43.3548" lon="5.9967">
        <ele>513</ele>
        <time>2019-12-17T11:53:30.000Z</time>
      </trkpt>
      <trkpt lat="43.35479" lon="5.99671">
        <ele>513</ele>
        <time>2019-12-17T11:53:31.000Z</time>
      </trkpt>
      <trkpt lat="43.35477" lon="5.99672">
        <ele>513</ele>
        <time>2019-12-17T11:53:32.000Z</time>
      </trkpt>
      <trkpt lat="43.35477" lon="5.99672">
        <ele>513</ele>
        <time>2019-12-17T11:53:33.000Z</time>
      </trkpt>
      <trkpt lat="43.35474" lon="5.99673">
        <ele>512</ele>
        <time>2019-12-17T11:53:34.000Z</time>
      </trkpt>
      <trkpt lat="43.35473" lon="5.99673">
        <ele>512</ele>
        <time>2019-12-17T11:53:35.000Z</time>
      </trkpt>
      <trkpt lat="43.35472" lon="5.99673">
        <ele>512</ele>
        <time>2019-12-17T11:53:36.000Z</time>
      </trkpt>
      <trkpt lat="43.35471" lon="5.99673">
        <ele>512</ele>
        <time>2019-12-17T11:53:37.000Z</time>
      </trkpt>
      <trkpt lat="43.3547" lon="5.99673">
        <ele>512</ele>
        <time>2019-12-17T11:53:38.000Z</time>
      </trkpt>
      <trkpt lat="43.3547" lon="5.99673">
        <ele>512</ele>
        <time>2019-12-17T11:53:39.000Z</time>
      </trkpt>
      <trkpt lat="43.35469" lon="5.99673">
        <ele>511</ele>
        <time>2019-12-17T11:53:40.000Z</time>
      </trkpt>
      <trkpt lat="43.35468" lon="5.99674">
        <ele>511</ele>
        <time>2019-12-17T11:53:41.000Z</time>
      </trkpt>
      <trkpt lat="43.35468" lon="5.99674">
        <ele>511</ele>
        <time>2019-12-17T11:53:42.000Z</time>
      </trkpt>
      <trkpt lat="43.35466" lon="5.99673">
        <ele>511</ele>
        <time>2019-12-17T11:53:43.000Z</time>
      </trkpt>
      <trkpt lat="43.35465" lon="5.99673">
        <ele>511</ele>
        <time>2019-12-17T11:53:44.000Z</time>
      </trkpt>
      <trkpt lat="43.35464" lon="5.99673">
        <ele>511</ele>
        <time>2019-12-17T11:53:45.000Z</time>
      </trkpt>
      <trkpt lat="43.35463" lon="5.99673">
        <ele>510</ele>
        <time>2019-12-17T11:53:46.000Z</time>
      </trkpt>
      <trkpt lat="43.35462" lon="5.99673">
        <ele>510</ele>
        <time>2019-12-17T11:53:47.000Z</time>
      </trkpt>
      <trkpt lat="43.35461" lon="5.99673">
        <ele>510</ele>
        <time>2019-12-17T11:53:48.000Z</time>
      </trkpt>
      <trkpt lat="43.3546" lon="5.99673">
        <ele>510</ele>
        <time>2019-12-17T11:53:49.000Z</time>
      </trkpt>
      <trkpt lat="43.35459" lon="5.99673">
        <ele>509</ele>
        <time>2019-12-17T11:53:50.000Z</time>
      </trkpt>
      <trkpt lat="43.35459" lon="5.99673">
        <ele>509</ele>
        <time>2019-12-17T11:53:51.000Z</time>
      </trkpt>
      <trkpt lat="43.35457" lon="5.99673">
        <ele>509</ele>
        <time>2019-12-17T11:53:52.000Z</time>
      </trkpt>
      <trkpt lat="43.35456" lon="5.99673">
        <ele>509</ele>
        <time>2019-12-17T11:53:53.000Z</time>
      </trkpt>
      <trkpt lat="43.35455" lon="5.99672">
        <ele>509</ele>
        <time>2019-12-17T11:53:54.000Z</time>
      </trkpt>
      <trkpt lat="43.35454" lon="5.99672">
        <ele>508</ele>
        <time>2019-12-17T11:53:55.000Z</time>
      </trkpt>
      <trkpt lat="43.35454" lon="5.99672">
        <ele>508</ele>
        <time>2019-12-17T11:53:56.000Z</time>
      </trkpt>
      <trkpt lat="43.35452" lon="5.99672">
        <ele>508</ele>
        <time>2019-12-17T11:53:57.000Z</time>
      </trkpt>
      <trkpt lat="43.35451" lon="5.99672">
        <ele>508</ele>
        <time>2019-12-17T11:53:58.000Z</time>
      </trkpt>
      <trkpt lat="43.3545" lon="5.99672">
        <ele>508</ele>
        <time>2019-12-17T11:53:59.000Z</time>
      </trkpt>
      <trkpt lat="43.3545" lon="5.99672">
        <ele>508</ele>
        <time>2019-12-17T11:54:00.000Z</time>
      </trkpt>
      <trkpt lat="43.35448" lon="5.99671">
        <ele>508</ele>
        <time>2019-12-17T11:54:01.000Z</time>
      </trkpt>
      <trkpt lat="43.35447" lon="5.99671">
        <ele>508</ele>
        <time>2019-12-17T11:54:02.000Z</time>
      </trkpt>
      <trkpt lat="43.35446" lon="5.99671">
        <ele>508</ele>
        <time>2019-12-17T11:54:03.000Z</time>
      </trkpt>
      <trkpt lat="43.35446" lon="5.99671">
        <ele>508</ele>
        <time>2019-12-17T11:54:04.000Z</time>
      </trkpt>
      <trkpt lat="43.35445" lon="5.99671">
        <ele>508</ele>
        <time>2019-12-17T11:54:05.000Z</time>
      </trkpt>
      <trkpt lat="43.35443" lon="5.99671">
        <ele>508</ele>
        <time>2019-12-17T11:54:06.000Z</time>
      </trkpt>
      <trkpt lat="43.35442" lon="5.99672">
        <ele>508</ele>
        <time>2019-12-17T11:54:07.000Z</time>
      </trkpt>
      <trkpt lat="43.35441" lon="5.99672">
        <ele>508</ele>
        <time>2019-12-17T11:54:08.000Z</time>
      </trkpt>
      <trkpt lat="43.3544" lon="5.99672">
        <ele>508</ele>
        <time>2019-12-17T11:54:09.000Z</time>
      </trkpt>
      <trkpt lat="43.35438" lon="5.99672">
        <ele>508</ele>
        <time>2019-12-17T11:54:10.000Z</time>
      </trkpt>
      <trkpt lat="43.35438" lon="5.99672">
        <ele>508</ele>
        <time>2019-12-17T11:54:11.000Z</time>
      </trkpt>
      <trkpt lat="43.35436" lon="5.99673">
        <ele>508</ele>
        <time>2019-12-17T11:54:12.000Z</time>
      </trkpt>
      <trkpt lat="43.35435" lon="5.99673">
        <ele>509</ele>
        <time>2019-12-17T11:54:13.000Z</time>
      </trkpt>
      <trkpt lat="43.35434" lon="5.99672">
        <ele>509</ele>
        <time>2019-12-17T11:54:14.000Z</time>
      </trkpt>
      <trkpt lat="43.35433" lon="5.99672">
        <ele>509</ele>
        <time>2019-12-17T11:54:15.000Z</time>
      </trkpt>
      <trkpt lat="43.35433" lon="5.99672">
        <ele>509</ele>
        <time>2019-12-17T11:54:16.000Z</time>
      </trkpt>
      <trkpt lat="43.35432" lon="5.99672">
        <ele>509</ele>
        <time>2019-12-17T11:54:17.000Z</time>
      </trkpt>
      <trkpt lat="43.3543" lon="5.99672">
        <ele>509</ele>
        <time>2019-12-17T11:54:18.000Z</time>
      </trkpt>
      <trkpt lat="43.3543" lon="5.99672">
        <ele>509</ele>
        <time>2019-12-17T11:54:19.000Z</time>
      </trkpt>
      <trkpt lat="43.35428" lon="5.99672">
        <ele>509</ele>
        <time>2019-12-17T11:54:20.000Z</time>
      </trkpt>
      <trkpt lat="43.35427" lon="5.99672">
        <ele>510</ele>
        <time>2019-12-17T11:54:21.000Z</time>
      </trkpt>
      <trkpt lat="43.35427" lon="5.99672">
        <ele>510</ele>
        <time>2019-12-17T11:54:22.000Z</time>
      </trkpt>
      <trkpt lat="43.35424" lon="5.99672">
        <ele>510</ele>
        <time>2019-12-17T11:54:23.000Z</time>
      </trkpt>
      <trkpt lat="43.35423" lon="5.99672">
        <ele>510</ele>
        <time>2019-12-17T11:54:24.000Z</time>
      </trkpt>
      <trkpt lat="43.35422" lon="5.99672">
        <ele>510</ele>
        <time>2019-12-17T11:54:25.000Z</time>
      </trkpt>
      <trkpt lat="43.3542" lon="5.99672">
        <ele>511</ele>
        <time>2019-12-17T11:54:26.000Z</time>
      </trkpt>
      <trkpt lat="43.3542" lon="5.99672">
        <ele>511</ele>
        <time>2019-12-17T11:54:27.000Z</time>
      </trkpt>
      <trkpt lat="43.35418" lon="5.99672">
        <ele>511</ele>
        <time>2019-12-17T11:54:28.000Z</time>
      </trkpt>
      <trkpt lat="43.35417" lon="5.99672">
        <ele>511</ele>
        <time>2019-12-17T11:54:29.000Z</time>
      </trkpt>
      <trkpt lat="43.35416" lon="5.99671">
        <ele>511</ele>
        <time>2019-12-17T11:54:30.000Z</time>
      </trkpt>
      <trkpt lat="43.35415" lon="5.99671">
        <ele>512</ele>
        <time>2019-12-17T11:54:31.000Z</time>
      </trkpt>
      <trkpt lat="43.35414" lon="5.99671">
        <ele>512</ele>
        <time>2019-12-17T11:54:32.000Z</time>
      </trkpt>
      <trkpt lat="43.35412" lon="5.99672">
        <ele>512</ele>
        <time>2019-12-17T11:54:33.000Z</time>
      </trkpt>
      <trkpt lat="43.35411" lon="5.99672">
        <ele>512</ele>
        <time>2019-12-17T11:54:34.000Z</time>
      </trkpt>
      <trkpt lat="43.3541" lon="5.99672">
        <ele>512</ele>
        <time>2019-12-17T11:54:35.000Z</time>
      </trkpt>
      <trkpt lat="43.35408" lon="5.99672">
        <ele>512</ele>
        <time>2019-12-17T11:54:36.000Z</time>
      </trkpt>
      <trkpt lat="43.35407" lon="5.99672">
        <ele>512</ele>
        <time>2019-12-17T11:54:37.000Z</time>
      </trkpt>
      <trkpt lat="43.35406" lon="5.99672">
        <ele>512</ele>
        <time>2019-12-17T11:54:38.000Z</time>
      </trkpt>
      <trkpt lat="43.35405" lon="5.99672">
        <ele>512</ele>
        <time>2019-12-17T11:54:39.000Z</time>
      </trkpt>
      <trkpt lat="43.35404" lon="5.99672">
        <ele>512</ele>
        <time>2019-12-17T11:54:40.000Z</time>
      </trkpt>
      <trkpt lat="43.35403" lon="5.99672">
        <ele>513</ele>
        <time>2019-12-17T11:54:41.000Z</time>
      </trkpt>
      <trkpt lat="43.35401" lon="5.99672">
        <ele>513</ele>
        <time>2019-12-17T11:54:42.000Z</time>
      </trkpt>
      <trkpt lat="43.354" lon="5.99672">
        <ele>513</ele>
        <time>2019-12-17T11:54:43.000Z</time>
      </trkpt>
      <trkpt lat="43.354" lon="5.99672">
        <ele>513</ele>
        <time>2019-12-17T11:54:44.000Z</time>
      </trkpt>
      <trkpt lat="43.35397" lon="5.99672">
        <ele>513</ele>
        <time>2019-12-17T11:54:45.000Z</time>
      </trkpt>
      <trkpt lat="43.35395" lon="5.99673">
        <ele>513</ele>
        <time>2019-12-17T11:54:46.000Z</time>
      </trkpt>
      <trkpt lat="43.35394" lon="5.99673">
        <ele>512</ele>
        <time>2019-12-17T11:54:47.000Z</time>
      </trkpt>
      <trkpt lat="43.35392" lon="5.99673">
        <ele>512</ele>
        <time>2019-12-17T11:54:48.000Z</time>
      </trkpt>
      <trkpt lat="43.35391" lon="5.99672">
        <ele>512</ele>
        <time>2019-12-17T11:54:49.000Z</time>
      </trkpt>
      <trkpt lat="43.35391" lon="5.99672">
        <ele>512</ele>
        <time>2019-12-17T11:54:50.000Z</time>
      </trkpt>
      <trkpt lat="43.3539" lon="5.99669">
        <ele>512</ele>
        <time>2019-12-17T11:54:51.000Z</time>
      </trkpt>
      <trkpt lat="43.3539" lon="5.99668">
        <ele>511</ele>
        <time>2019-12-17T11:54:52.000Z</time>
      </trkpt>
      <trkpt lat="43.3539" lon="5.99668">
        <ele>511</ele>
        <time>2019-12-17T11:54:53.000Z</time>
      </trkpt>
      <trkpt lat="43.35389" lon="5.99667">
        <ele>511</ele>
        <time>2019-12-17T11:54:54.000Z</time>
      </trkpt>
      <trkpt lat="43.35387" lon="5.99665">
        <ele>511</ele>
        <time>2019-12-17T11:54:55.000Z</time>
      </trkpt>
      <trkpt lat="43.35387" lon="5.99665">
        <ele>511</ele>
        <time>2019-12-17T11:54:56.000Z</time>
      </trkpt>
      <trkpt lat="43.35386" lon="5.99664">
        <ele>511</ele>
        <time>2019-12-17T11:54:57.000Z</time>
      </trkpt>
      <trkpt lat="43.35385" lon="5.9966">
        <ele>510</ele>
        <time>2019-12-17T11:54:58.000Z</time>
      </trkpt>
      <trkpt lat="43.35384" lon="5.99659">
        <ele>510</ele>
        <time>2019-12-17T11:54:59.000Z</time>
      </trkpt>
      <trkpt lat="43.35384" lon="5.99659">
        <ele>510</ele>
        <time>2019-12-17T11:55:00.000Z</time>
      </trkpt>
      <trkpt lat="43.35384" lon="5.99657">
        <ele>510</ele>
        <time>2019-12-17T11:55:01.000Z</time>
      </trkpt>
      <trkpt lat="43.35383" lon="5.99655">
        <ele>510</ele>
        <time>2019-12-17T11:55:02.000Z</time>
      </trkpt>
      <trkpt lat="43.35382" lon="5.99652">
        <ele>509</ele>
        <time>2019-12-17T11:55:03.000Z</time>
      </trkpt>
      <trkpt lat="43.35381" lon="5.9965">
        <ele>509</ele>
        <time>2019-12-17T11:55:04.000Z</time>
      </trkpt>
      <trkpt lat="43.3538" lon="5.99648">
        <ele>509</ele>
        <time>2019-12-17T11:55:05.000Z</time>
      </trkpt>
      <trkpt lat="43.35379" lon="5.99646">
        <ele>509</ele>
        <time>2019-12-17T11:55:06.000Z</time>
      </trkpt>
      <trkpt lat="43.35379" lon="5.99646">
        <ele>509</ele>
        <time>2019-12-17T11:55:07.000Z</time>
      </trkpt>
      <trkpt lat="43.35378" lon="5.99643">
        <ele>508</ele>
        <time>2019-12-17T11:55:08.000Z</time>
      </trkpt>
      <trkpt lat="43.35377" lon="5.99641">
        <ele>508</ele>
        <time>2019-12-17T11:55:09.000Z</time>
      </trkpt>
      <trkpt lat="43.35377" lon="5.99639">
        <ele>508</ele>
        <time>2019-12-17T11:55:10.000Z</time>
      </trkpt>
      <trkpt lat="43.35376" lon="5.99638">
        <ele>508</ele>
        <time>2019-12-17T11:55:11.000Z</time>
      </trkpt>
      <trkpt lat="43.35375" lon="5.99637">
        <ele>508</ele>
        <time>2019-12-17T11:55:12.000Z</time>
      </trkpt>
      <trkpt lat="43.35375" lon="5.99637">
        <ele>508</ele>
        <time>2019-12-17T11:55:13.000Z</time>
      </trkpt>
      <trkpt lat="43.35374" lon="5.99635">
        <ele>508</ele>
        <time>2019-12-17T11:55:14.000Z</time>
      </trkpt>
      <trkpt lat="43.35374" lon="5.99634">
        <ele>508</ele>
        <time>2019-12-17T11:55:15.000Z</time>
      </trkpt>
      <trkpt lat="43.35372" lon="5.99631">
        <ele>508</ele>
        <time>2019-12-17T11:55:16.000Z</time>
      </trkpt>
      <trkpt lat="43.35371" lon="5.9963">
        <ele>508</ele>
        <time>2019-12-17T11:55:17.000Z</time>
      </trkpt>
      <trkpt lat="43.3537" lon="5.99628">
        <ele>507</ele>
        <time>2019-12-17T11:55:18.000Z</time>
      </trkpt>
      <trkpt lat="43.35369" lon="5.99627">
        <ele>507</ele>
        <time>2019-12-17T11:55:19.000Z</time>
      </trkpt>
      <trkpt lat="43.35369" lon="5.99625">
        <ele>507</ele>
        <time>2019-12-17T11:55:20.000Z</time>
      </trkpt>
      <trkpt lat="43.35368" lon="5.99623">
        <ele>506</ele>
        <time>2019-12-17T11:55:21.000Z</time>
      </trkpt>
      <trkpt lat="43.35368" lon="5.99621">
        <ele>506</ele>
        <time>2019-12-17T11:55:22.000Z</time>
      </trkpt>
      <trkpt lat="43.35368" lon="5.99621">
        <ele>506</ele>
        <time>2019-12-17T11:55:23.000Z</time>
      </trkpt>
      <trkpt lat="43.35367" lon="5.99619">
        <ele>506</ele>
        <time>2019-12-17T11:55:24.000Z</time>
      </trkpt>
      <trkpt lat="43.35366" lon="5.99616">
        <ele>505</ele>
        <time>2019-12-17T11:55:25.000Z</time>
      </trkpt>
      <trkpt lat="43.35365" lon="5.99615">
        <ele>505</ele>
        <time>2019-12-17T11:55:26.000Z</time>
      </trkpt>
      <trkpt lat="43.35364" lon="5.99613">
        <ele>505</ele>
        <time>2019-12-17T11:55:27.000Z</time>
      </trkpt>
      <trkpt lat="43.35363" lon="5.99612">
        <ele>504</ele>
        <time>2019-12-17T11:55:28.000Z</time>
      </trkpt>
      <trkpt lat="43.35363" lon="5.99612">
        <ele>504</ele>
        <time>2019-12-17T11:55:29.000Z</time>
      </trkpt>
      <trkpt lat="43.35361" lon="5.9961">
        <ele>504</ele>
        <time>2019-12-17T11:55:30.000Z</time>
      </trkpt>
      <trkpt lat="43.35359" lon="5.99609">
        <ele>504</ele>
        <time>2019-12-17T11:55:31.000Z</time>
      </trkpt>
      <trkpt lat="43.35358" lon="5.99609">
        <ele>504</ele>
        <time>2019-12-17T11:55:32.000Z</time>
      </trkpt>
      <trkpt lat="43.35357" lon="5.99608">
        <ele>504</ele>
        <time>2019-12-17T11:55:33.000Z</time>
      </trkpt>
      <trkpt lat="43.35356" lon="5.99607">
        <ele>504</ele>
        <time>2019-12-17T11:55:34.000Z</time>
      </trkpt>
      <trkpt lat="43.35356" lon="5.99607">
        <ele>504</ele>
        <time>2019-12-17T11:55:35.000Z</time>
      </trkpt>
      <trkpt lat="43.35354" lon="5.99605">
        <ele>504</ele>
        <time>2019-12-17T11:55:36.000Z</time>
      </trkpt>
      <trkpt lat="43.35353" lon="5.99604">
        <ele>504</ele>
        <time>2019-12-17T11:55:37.000Z</time>
      </trkpt>
      <trkpt lat="43.35352" lon="5.99603">
        <ele>504</ele>
        <time>2019-12-17T11:55:38.000Z</time>
      </trkpt>
      <trkpt lat="43.35352" lon="5.99603">
        <ele>504</ele>
        <time>2019-12-17T11:55:39.000Z</time>
      </trkpt>
      <trkpt lat="43.3535" lon="5.99602">
        <ele>504</ele>
        <time>2019-12-17T11:55:40.000Z</time>
      </trkpt>
      <trkpt lat="43.35349" lon="5.99601">
        <ele>504</ele>
        <time>2019-12-17T11:55:41.000Z</time>
      </trkpt>
      <trkpt lat="43.35347" lon="5.996">
        <ele>504</ele>
        <time>2019-12-17T11:55:42.000Z</time>
      </trkpt>
      <trkpt lat="43.35346" lon="5.996">
        <ele>504</ele>
        <time>2019-12-17T11:55:43.000Z</time>
      </trkpt>
      <trkpt lat="43.35346" lon="5.996">
        <ele>504</ele>
        <time>2019-12-17T11:55:44.000Z</time>
      </trkpt>
      <trkpt lat="43.35344" lon="5.99598">
        <ele>504</ele>
        <time>2019-12-17T11:55:45.000Z</time>
      </trkpt>
      <trkpt lat="43.35344" lon="5.99598">
        <ele>504</ele>
        <time>2019-12-17T11:55:46.000Z</time>
      </trkpt>
      <trkpt lat="43.35343" lon="5.99598">
        <ele>504</ele>
        <time>2019-12-17T11:55:47.000Z</time>
      </trkpt>
      <trkpt lat="43.35343" lon="5.99596">
        <ele>504</ele>
        <time>2019-12-17T11:55:48.000Z</time>
      </trkpt>
      <trkpt lat="43.35342" lon="5.99595">
        <ele>504</ele>
        <time>2019-12-17T11:55:49.000Z</time>
      </trkpt>
      <trkpt lat="43.3534" lon="5.99593">
        <ele>503</ele>
        <time>2019-12-17T11:55:50.000Z</time>
      </trkpt>
      <trkpt lat="43.3534" lon="5.99593">
        <ele>503</ele>
        <time>2019-12-17T11:55:51.000Z</time>
      </trkpt>
      <trkpt lat="43.35339" lon="5.99591">
        <ele>503</ele>
        <time>2019-12-17T11:55:52.000Z</time>
      </trkpt>
      <trkpt lat="43.35339" lon="5.99591">
        <ele>503</ele>
        <time>2019-12-17T11:55:53.000Z</time>
      </trkpt>
      <trkpt lat="43.35338" lon="5.9959">
        <ele>503</ele>
        <time>2019-12-17T11:55:54.000Z</time>
      </trkpt>
      <trkpt lat="43.35337" lon="5.99589">
        <ele>502</ele>
        <time>2019-12-17T11:55:55.000Z</time>
      </trkpt>
      <trkpt lat="43.35336" lon="5.99588">
        <ele>502</ele>
        <time>2019-12-17T11:55:56.000Z</time>
      </trkpt>
      <trkpt lat="43.35335" lon="5.99587">
        <ele>502</ele>
        <time>2019-12-17T11:55:57.000Z</time>
      </trkpt>
      <trkpt lat="43.35334" lon="5.99587">
        <ele>502</ele>
        <time>2019-12-17T11:55:58.000Z</time>
      </trkpt>
      <trkpt lat="43.35334" lon="5.99587">
        <ele>502</ele>
        <time>2019-12-17T11:55:59.000Z</time>
      </trkpt>
      <trkpt lat="43.35333" lon="5.99585">
        <ele>502</ele>
        <time>2019-12-17T11:56:00.000Z</time>
      </trkpt>
      <trkpt lat="43.35332" lon="5.99585">
        <ele>502</ele>
        <time>2019-12-17T11:56:01.000Z</time>
      </trkpt>
      <trkpt lat="43.35331" lon="5.99584">
        <ele>502</ele>
        <time>2019-12-17T11:56:02.000Z</time>
      </trkpt>
      <trkpt lat="43.35329" lon="5.99584">
        <ele>501</ele>
        <time>2019-12-17T11:56:03.000Z</time>
      </trkpt>
      <trkpt lat="43.35329" lon="5.99584">
        <ele>501</ele>
        <time>2019-12-17T11:56:04.000Z</time>
      </trkpt>
      <trkpt lat="43.35327" lon="5.99582">
        <ele>501</ele>
        <time>2019-12-17T11:56:05.000Z</time>
      </trkpt>
      <trkpt lat="43.35326" lon="5.99582">
        <ele>501</ele>
        <time>2019-12-17T11:56:06.000Z</time>
      </trkpt>
      <trkpt lat="43.35325" lon="5.99581">
        <ele>501</ele>
        <time>2019-12-17T11:56:07.000Z</time>
      </trkpt>
      <trkpt lat="43.35325" lon="5.99581">
        <ele>501</ele>
        <time>2019-12-17T11:56:08.000Z</time>
      </trkpt>
      <trkpt lat="43.35322" lon="5.99579">
        <ele>500</ele>
        <time>2019-12-17T11:56:09.000Z</time>
      </trkpt>
      <trkpt lat="43.35321" lon="5.99579">
        <ele>500</ele>
        <time>2019-12-17T11:56:10.000Z</time>
      </trkpt>
      <trkpt lat="43.3532" lon="5.99578">
        <ele>500</ele>
        <time>2019-12-17T11:56:11.000Z</time>
      </trkpt>
      <trkpt lat="43.35319" lon="5.99578">
        <ele>500</ele>
        <time>2019-12-17T11:56:12.000Z</time>
      </trkpt>
      <trkpt lat="43.35318" lon="5.99577">
        <ele>499</ele>
        <time>2019-12-17T11:56:13.000Z</time>
      </trkpt>
      <trkpt lat="43.35316" lon="5.99577">
        <ele>499</ele>
        <time>2019-12-17T11:56:14.000Z</time>
      </trkpt>
      <trkpt lat="43.35315" lon="5.99576">
        <ele>499</ele>
        <time>2019-12-17T11:56:15.000Z</time>
      </trkpt>
      <trkpt lat="43.35314" lon="5.99575">
        <ele>499</ele>
        <time>2019-12-17T11:56:16.000Z</time>
      </trkpt>
      <trkpt lat="43.35313" lon="5.99575">
        <ele>498</ele>
        <time>2019-12-17T11:56:17.000Z</time>
      </trkpt>
      <trkpt lat="43.35312" lon="5.99574">
        <ele>498</ele>
        <time>2019-12-17T11:56:18.000Z</time>
      </trkpt>
      <trkpt lat="43.35311" lon="5.99573">
        <ele>498</ele>
        <time>2019-12-17T11:56:19.000Z</time>
      </trkpt>
      <trkpt lat="43.3531" lon="5.99571">
        <ele>498</ele>
        <time>2019-12-17T11:56:20.000Z</time>
      </trkpt>
      <trkpt lat="43.35309" lon="5.9957">
        <ele>497</ele>
        <time>2019-12-17T11:56:21.000Z</time>
      </trkpt>
      <trkpt lat="43.35308" lon="5.99569">
        <ele>497</ele>
        <time>2019-12-17T11:56:22.000Z</time>
      </trkpt>
      <trkpt lat="43.35307" lon="5.99568">
        <ele>497</ele>
        <time>2019-12-17T11:56:23.000Z</time>
      </trkpt>
      <trkpt lat="43.35306" lon="5.99567">
        <ele>497</ele>
        <time>2019-12-17T11:56:24.000Z</time>
      </trkpt>
      <trkpt lat="43.35305" lon="5.99566">
        <ele>497</ele>
        <time>2019-12-17T11:56:25.000Z</time>
      </trkpt>
      <trkpt lat="43.35305" lon="5.99566">
        <ele>497</ele>
        <time>2019-12-17T11:56:26.000Z</time>
      </trkpt>
      <trkpt lat="43.35303" lon="5.99564">
        <ele>497</ele>
        <time>2019-12-17T11:56:27.000Z</time>
      </trkpt>
      <trkpt lat="43.35302" lon="5.99563">
        <ele>497</ele>
        <time>2019-12-17T11:56:28.000Z</time>
      </trkpt>
      <trkpt lat="43.35301" lon="5.99562">
        <ele>497</ele>
        <time>2019-12-17T11:56:29.000Z</time>
      </trkpt>
      <trkpt lat="43.35301" lon="5.99562">
        <ele>497</ele>
        <time>2019-12-17T11:56:30.000Z</time>
      </trkpt>
      <trkpt lat="43.353" lon="5.99561">
        <ele>498</ele>
        <time>2019-12-17T11:56:31.000Z</time>
      </trkpt>
      <trkpt lat="43.35298" lon="5.99559">
        <ele>498</ele>
        <time>2019-12-17T11:56:32.000Z</time>
      </trkpt>
      <trkpt lat="43.35297" lon="5.99558">
        <ele>498</ele>
        <time>2019-12-17T11:56:33.000Z</time>
      </trkpt>
      <trkpt lat="43.35296" lon="5.99557">
        <ele>498</ele>
        <time>2019-12-17T11:56:34.000Z</time>
      </trkpt>
      <trkpt lat="43.35296" lon="5.99557">
        <ele>498</ele>
        <time>2019-12-17T11:56:35.000Z</time>
      </trkpt>
      <trkpt lat="43.35294" lon="5.99555">
        <ele>498</ele>
        <time>2019-12-17T11:56:36.000Z</time>
      </trkpt>
      <trkpt lat="43.35294" lon="5.99555">
        <ele>498</ele>
        <time>2019-12-17T11:56:37.000Z</time>
      </trkpt>
      <trkpt lat="43.35293" lon="5.99554">
        <ele>498</ele>
        <time>2019-12-17T11:56:38.000Z</time>
      </trkpt>
      <trkpt lat="43.35291" lon="5.99553">
        <ele>498</ele>
        <time>2019-12-17T11:56:39.000Z</time>
      </trkpt>
      <trkpt lat="43.3529" lon="5.99553">
        <ele>498</ele>
        <time>2019-12-17T11:56:40.000Z</time>
      </trkpt>
      <trkpt lat="43.3529" lon="5.99553">
        <ele>498</ele>
        <time>2019-12-17T11:56:41.000Z</time>
      </trkpt>
      <trkpt lat="43.35288" lon="5.99552">
        <ele>498</ele>
        <time>2019-12-17T11:56:42.000Z</time>
      </trkpt>
      <trkpt lat="43.35286" lon="5.99552">
        <ele>498</ele>
        <time>2019-12-17T11:56:43.000Z</time>
      </trkpt>
      <trkpt lat="43.35285" lon="5.99552">
        <ele>498</ele>
        <time>2019-12-17T11:56:44.000Z</time>
      </trkpt>
      <trkpt lat="43.35285" lon="5.99552">
        <ele>498</ele>
        <time>2019-12-17T11:56:45.000Z</time>
      </trkpt>
      <trkpt lat="43.35284" lon="5.99552">
        <ele>498</ele>
        <time>2019-12-17T11:56:46.000Z</time>
      </trkpt>
      <trkpt lat="43.35283" lon="5.99551">
        <ele>499</ele>
        <time>2019-12-17T11:56:47.000Z</time>
      </trkpt>
      <trkpt lat="43.35281" lon="5.9955">
        <ele>499</ele>
        <time>2019-12-17T11:56:48.000Z</time>
      </trkpt>
      <trkpt lat="43.35281" lon="5.9955">
        <ele>499</ele>
        <time>2019-12-17T11:56:49.000Z</time>
      </trkpt>
      <trkpt lat="43.3528" lon="5.9955">
        <ele>499</ele>
        <time>2019-12-17T11:56:50.000Z</time>
      </trkpt>
      <trkpt lat="43.35279" lon="5.9955">
        <ele>499</ele>
        <time>2019-12-17T11:56:51.000Z</time>
      </trkpt>
      <trkpt lat="43.35278" lon="5.9955">
        <ele>499</ele>
        <time>2019-12-17T11:56:52.000Z</time>
      </trkpt>
      <trkpt lat="43.35276" lon="5.9955">
        <ele>499</ele>
        <time>2019-12-17T11:56:53.000Z</time>
      </trkpt>
      <trkpt lat="43.35275" lon="5.9955">
        <ele>499</ele>
        <time>2019-12-17T11:56:54.000Z</time>
      </trkpt>
      <trkpt lat="43.35274" lon="5.9955">
        <ele>500</ele>
        <time>2019-12-17T11:56:55.000Z</time>
      </trkpt>
      <trkpt lat="43.35273" lon="5.9955">
        <ele>500</ele>
        <time>2019-12-17T11:56:56.000Z</time>
      </trkpt>
      <trkpt lat="43.3527" lon="5.9955">
        <ele>500</ele>
        <time>2019-12-17T11:56:57.000Z</time>
      </trkpt>
      <trkpt lat="43.3527" lon="5.9955">
        <ele>500</ele>
        <time>2019-12-17T11:56:58.000Z</time>
      </trkpt>
      <trkpt lat="43.35268" lon="5.99549">
        <ele>499</ele>
        <time>2019-12-17T11:56:59.000Z</time>
      </trkpt>
      <trkpt lat="43.35268" lon="5.99549">
        <ele>499</ele>
        <time>2019-12-17T11:57:00.000Z</time>
      </trkpt>
      <trkpt lat="43.35264" lon="5.99548">
        <ele>499</ele>
        <time>2019-12-17T11:57:01.000Z</time>
      </trkpt>
      <trkpt lat="43.35264" lon="5.99548">
        <ele>499</ele>
        <time>2019-12-17T11:57:02.000Z</time>
      </trkpt>
      <trkpt lat="43.35263" lon="5.99549">
        <ele>499</ele>
        <time>2019-12-17T11:57:03.000Z</time>
      </trkpt>
      <trkpt lat="43.35262" lon="5.99549">
        <ele>498</ele>
        <time>2019-12-17T11:57:04.000Z</time>
      </trkpt>
      <trkpt lat="43.3526" lon="5.99548">
        <ele>498</ele>
        <time>2019-12-17T11:57:05.000Z</time>
      </trkpt>
      <trkpt lat="43.35259" lon="5.99548">
        <ele>498</ele>
        <time>2019-12-17T11:57:06.000Z</time>
      </trkpt>
      <trkpt lat="43.35257" lon="5.99548">
        <ele>497</ele>
        <time>2019-12-17T11:57:07.000Z</time>
      </trkpt>
      <trkpt lat="43.35256" lon="5.99548">
        <ele>497</ele>
        <time>2019-12-17T11:57:08.000Z</time>
      </trkpt>
      <trkpt lat="43.35253" lon="5.99548">
        <ele>497</ele>
        <time>2019-12-17T11:57:09.000Z</time>
      </trkpt>
      <trkpt lat="43.35253" lon="5.99548">
        <ele>497</ele>
        <time>2019-12-17T11:57:10.000Z</time>
      </trkpt>
      <trkpt lat="43.35252" lon="5.99548">
        <ele>496</ele>
        <time>2019-12-17T11:57:11.000Z</time>
      </trkpt>
      <trkpt lat="43.3525" lon="5.99548">
        <ele>496</ele>
        <time>2019-12-17T11:57:12.000Z</time>
      </trkpt>
      <trkpt lat="43.35249" lon="5.99547">
        <ele>496</ele>
        <time>2019-12-17T11:57:13.000Z</time>
      </trkpt>
      <trkpt lat="43.35246" lon="5.99545">
        <ele>496</ele>
        <time>2019-12-17T11:57:14.000Z</time>
      </trkpt>
      <trkpt lat="43.35246" lon="5.99545">
        <ele>496</ele>
        <time>2019-12-17T11:57:15.000Z</time>
      </trkpt>
      <trkpt lat="43.35245" lon="5.99545">
        <ele>496</ele>
        <time>2019-12-17T11:57:16.000Z</time>
      </trkpt>
      <trkpt lat="43.35244" lon="5.99544">
        <ele>496</ele>
        <time>2019-12-17T11:57:17.000Z</time>
      </trkpt>
      <trkpt lat="43.35244" lon="5.99543">
        <ele>495</ele>
        <time>2019-12-17T11:57:18.000Z</time>
      </trkpt>
      <trkpt lat="43.35242" lon="5.99541">
        <ele>495</ele>
        <time>2019-12-17T11:57:19.000Z</time>
      </trkpt>
      <trkpt lat="43.35241" lon="5.9954">
        <ele>495</ele>
        <time>2019-12-17T11:57:20.000Z</time>
      </trkpt>
      <trkpt lat="43.35241" lon="5.9954">
        <ele>495</ele>
        <time>2019-12-17T11:57:21.000Z</time>
      </trkpt>
      <trkpt lat="43.3524" lon="5.99538">
        <ele>495</ele>
        <time>2019-12-17T11:57:22.000Z</time>
      </trkpt>
      <trkpt lat="43.35239" lon="5.99537">
        <ele>495</ele>
        <time>2019-12-17T11:57:23.000Z</time>
      </trkpt>
      <trkpt lat="43.35238" lon="5.99536">
        <ele>495</ele>
        <time>2019-12-17T11:57:24.000Z</time>
      </trkpt>
      <trkpt lat="43.35237" lon="5.99535">
        <ele>495</ele>
        <time>2019-12-17T11:57:25.000Z</time>
      </trkpt>
      <trkpt lat="43.35236" lon="5.99534">
        <ele>495</ele>
        <time>2019-12-17T11:57:26.000Z</time>
      </trkpt>
      <trkpt lat="43.35235" lon="5.99533">
        <ele>495</ele>
        <time>2019-12-17T11:57:27.000Z</time>
      </trkpt>
      <trkpt lat="43.35234" lon="5.99532">
        <ele>494</ele>
        <time>2019-12-17T11:57:28.000Z</time>
      </trkpt>
      <trkpt lat="43.35233" lon="5.99531">
        <ele>494</ele>
        <time>2019-12-17T11:57:29.000Z</time>
      </trkpt>
      <trkpt lat="43.35232" lon="5.99529">
        <ele>494</ele>
        <time>2019-12-17T11:57:30.000Z</time>
      </trkpt>
      <trkpt lat="43.35231" lon="5.99528">
        <ele>494</ele>
        <time>2019-12-17T11:57:31.000Z</time>
      </trkpt>
      <trkpt lat="43.3523" lon="5.99527">
        <ele>494</ele>
        <time>2019-12-17T11:57:32.000Z</time>
      </trkpt>
      <trkpt lat="43.35229" lon="5.99526">
        <ele>494</ele>
        <time>2019-12-17T11:57:33.000Z</time>
      </trkpt>
      <trkpt lat="43.35228" lon="5.99525">
        <ele>494</ele>
        <time>2019-12-17T11:57:34.000Z</time>
      </trkpt>
      <trkpt lat="43.35227" lon="5.99524">
        <ele>494</ele>
        <time>2019-12-17T11:57:35.000Z</time>
      </trkpt>
      <trkpt lat="43.35226" lon="5.99523">
        <ele>494</ele>
        <time>2019-12-17T11:57:36.000Z</time>
      </trkpt>
      <trkpt lat="43.35225" lon="5.99521">
        <ele>494</ele>
        <time>2019-12-17T11:57:37.000Z</time>
      </trkpt>
      <trkpt lat="43.35224" lon="5.9952">
        <ele>494</ele>
        <time>2019-12-17T11:57:38.000Z</time>
      </trkpt>
      <trkpt lat="43.35223" lon="5.99519">
        <ele>494</ele>
        <time>2019-12-17T11:57:39.000Z</time>
      </trkpt>
      <trkpt lat="43.35222" lon="5.99518">
        <ele>493</ele>
        <time>2019-12-17T11:57:40.000Z</time>
      </trkpt>
      <trkpt lat="43.35221" lon="5.99517">
        <ele>493</ele>
        <time>2019-12-17T11:57:41.000Z</time>
      </trkpt>
      <trkpt lat="43.3522" lon="5.99516">
        <ele>493</ele>
        <time>2019-12-17T11:57:42.000Z</time>
      </trkpt>
      <trkpt lat="43.35219" lon="5.99515">
        <ele>493</ele>
        <time>2019-12-17T11:57:43.000Z</time>
      </trkpt>
      <trkpt lat="43.35218" lon="5.99515">
        <ele>493</ele>
        <time>2019-12-17T11:57:44.000Z</time>
      </trkpt>
      <trkpt lat="43.35217" lon="5.99514">
        <ele>493</ele>
        <time>2019-12-17T11:57:45.000Z</time>
      </trkpt>
      <trkpt lat="43.35216" lon="5.99513">
        <ele>493</ele>
        <time>2019-12-17T11:57:46.000Z</time>
      </trkpt>
      <trkpt lat="43.35215" lon="5.99512">
        <ele>493</ele>
        <time>2019-12-17T11:57:47.000Z</time>
      </trkpt>
      <trkpt lat="43.35214" lon="5.99511">
        <ele>493</ele>
        <time>2019-12-17T11:57:48.000Z</time>
      </trkpt>
      <trkpt lat="43.35213" lon="5.9951">
        <ele>492</ele>
        <time>2019-12-17T11:57:49.000Z</time>
      </trkpt>
      <trkpt lat="43.35213" lon="5.99509">
        <ele>492</ele>
        <time>2019-12-17T11:57:50.000Z</time>
      </trkpt>
      <trkpt lat="43.35211" lon="5.99508">
        <ele>492</ele>
        <time>2019-12-17T11:57:51.000Z</time>
      </trkpt>
      <trkpt lat="43.3521" lon="5.99507">
        <ele>492</ele>
        <time>2019-12-17T11:57:52.000Z</time>
      </trkpt>
      <trkpt lat="43.35209" lon="5.99506">
        <ele>492</ele>
        <time>2019-12-17T11:57:53.000Z</time>
      </trkpt>
      <trkpt lat="43.35208" lon="5.99505">
        <ele>492</ele>
        <time>2019-12-17T11:57:54.000Z</time>
      </trkpt>
      <trkpt lat="43.35208" lon="5.99505">
        <ele>492</ele>
        <time>2019-12-17T11:57:55.000Z</time>
      </trkpt>
      <trkpt lat="43.35207" lon="5.99504">
        <ele>492</ele>
        <time>2019-12-17T11:57:56.000Z</time>
      </trkpt>
      <trkpt lat="43.35206" lon="5.99503">
        <ele>492</ele>
        <time>2019-12-17T11:57:57.000Z</time>
      </trkpt>
      <trkpt lat="43.35205" lon="5.99503">
        <ele>492</ele>
        <time>2019-12-17T11:57:58.000Z</time>
      </trkpt>
      <trkpt lat="43.35204" lon="5.99502">
        <ele>492</ele>
        <time>2019-12-17T11:57:59.000Z</time>
      </trkpt>
      <trkpt lat="43.35203" lon="5.99501">
        <ele>492</ele>
        <time>2019-12-17T11:58:00.000Z</time>
      </trkpt>
      <trkpt lat="43.35202" lon="5.995">
        <ele>492</ele>
        <time>2019-12-17T11:58:01.000Z</time>
      </trkpt>
      <trkpt lat="43.35202" lon="5.995">
        <ele>492</ele>
        <time>2019-12-17T11:58:02.000Z</time>
      </trkpt>
      <trkpt lat="43.35201" lon="5.99499">
        <ele>492</ele>
        <time>2019-12-17T11:58:03.000Z</time>
      </trkpt>
      <trkpt lat="43.352" lon="5.99498">
        <ele>492</ele>
        <time>2019-12-17T11:58:04.000Z</time>
      </trkpt>
      <trkpt lat="43.35199" lon="5.99498">
        <ele>492</ele>
        <time>2019-12-17T11:58:05.000Z</time>
      </trkpt>
      <trkpt lat="43.35198" lon="5.99497">
        <ele>492</ele>
        <time>2019-12-17T11:58:06.000Z</time>
      </trkpt>
      <trkpt lat="43.35197" lon="5.99496">
        <ele>492</ele>
        <time>2019-12-17T11:58:07.000Z</time>
      </trkpt>
      <trkpt lat="43.35196" lon="5.99495">
        <ele>492</ele>
        <time>2019-12-17T11:58:08.000Z</time>
      </trkpt>
      <trkpt lat="43.35195" lon="5.99494">
        <ele>492</ele>
        <time>2019-12-17T11:58:09.000Z</time>
      </trkpt>
      <trkpt lat="43.35194" lon="5.99492">
        <ele>492</ele>
        <time>2019-12-17T11:58:10.000Z</time>
      </trkpt>
      <trkpt lat="43.35194" lon="5.99491">
        <ele>492</ele>
        <time>2019-12-17T11:58:11.000Z</time>
      </trkpt>
      <trkpt lat="43.35193" lon="5.9949">
        <ele>492</ele>
        <time>2019-12-17T11:58:12.000Z</time>
      </trkpt>
      <trkpt lat="43.35193" lon="5.99489">
        <ele>492</ele>
        <time>2019-12-17T11:58:13.000Z</time>
      </trkpt>
      <trkpt lat="43.35192" lon="5.99488">
        <ele>492</ele>
        <time>2019-12-17T11:58:14.000Z</time>
      </trkpt>
      <trkpt lat="43.35191" lon="5.99487">
        <ele>492</ele>
        <time>2019-12-17T11:58:15.000Z</time>
      </trkpt>
      <trkpt lat="43.3519" lon="5.99486">
        <ele>492</ele>
        <time>2019-12-17T11:58:16.000Z</time>
      </trkpt>
      <trkpt lat="43.35189" lon="5.99485">
        <ele>493</ele>
        <time>2019-12-17T11:58:17.000Z</time>
      </trkpt>
      <trkpt lat="43.35187" lon="5.99484">
        <ele>493</ele>
        <time>2019-12-17T11:58:18.000Z</time>
      </trkpt>
      <trkpt lat="43.35187" lon="5.99483">
        <ele>493</ele>
        <time>2019-12-17T11:58:19.000Z</time>
      </trkpt>
      <trkpt lat="43.35186" lon="5.99481">
        <ele>493</ele>
        <time>2019-12-17T11:58:20.000Z</time>
      </trkpt>
      <trkpt lat="43.35185" lon="5.9948">
        <ele>493</ele>
        <time>2019-12-17T11:58:21.000Z</time>
      </trkpt>
      <trkpt lat="43.35185" lon="5.99478">
        <ele>493</ele>
        <time>2019-12-17T11:58:22.000Z</time>
      </trkpt>
      <trkpt lat="43.35184" lon="5.99477">
        <ele>493</ele>
        <time>2019-12-17T11:58:23.000Z</time>
      </trkpt>
      <trkpt lat="43.35183" lon="5.99475">
        <ele>493</ele>
        <time>2019-12-17T11:58:24.000Z</time>
      </trkpt>
      <trkpt lat="43.35183" lon="5.99473">
        <ele>493</ele>
        <time>2019-12-17T11:58:25.000Z</time>
      </trkpt>
      <trkpt lat="43.35182" lon="5.99471">
        <ele>493</ele>
        <time>2019-12-17T11:58:26.000Z</time>
      </trkpt>
      <trkpt lat="43.35181" lon="5.9947">
        <ele>493</ele>
        <time>2019-12-17T11:58:27.000Z</time>
      </trkpt>
      <trkpt lat="43.3518" lon="5.99469">
        <ele>493</ele>
        <time>2019-12-17T11:58:28.000Z</time>
      </trkpt>
      <trkpt lat="43.3518" lon="5.99467">
        <ele>493</ele>
        <time>2019-12-17T11:58:29.000Z</time>
      </trkpt>
      <trkpt lat="43.35179" lon="5.99466">
        <ele>493</ele>
        <time>2019-12-17T11:58:30.000Z</time>
      </trkpt>
      <trkpt lat="43.35178" lon="5.99465">
        <ele>493</ele>
        <time>2019-12-17T11:58:31.000Z</time>
      </trkpt>
      <trkpt lat="43.35177" lon="5.99465">
        <ele>493</ele>
        <time>2019-12-17T11:58:32.000Z</time>
      </trkpt>
      <trkpt lat="43.35176" lon="5.99464">
        <ele>493</ele>
        <time>2019-12-17T11:58:33.000Z</time>
      </trkpt>
      <trkpt lat="43.35175" lon="5.99463">
        <ele>493</ele>
        <time>2019-12-17T11:58:34.000Z</time>
      </trkpt>
      <trkpt lat="43.35174" lon="5.99462">
        <ele>493</ele>
        <time>2019-12-17T11:58:35.000Z</time>
      </trkpt>
      <trkpt lat="43.35173" lon="5.99461">
        <ele>493</ele>
        <time>2019-12-17T11:58:36.000Z</time>
      </trkpt>
      <trkpt lat="43.35173" lon="5.9946">
        <ele>494</ele>
        <time>2019-12-17T11:58:37.000Z</time>
      </trkpt>
      <trkpt lat="43.35172" lon="5.99459">
        <ele>494</ele>
        <time>2019-12-17T11:58:38.000Z</time>
      </trkpt>
      <trkpt lat="43.35171" lon="5.99458">
        <ele>494</ele>
        <time>2019-12-17T11:58:39.000Z</time>
      </trkpt>
      <trkpt lat="43.3517" lon="5.99457">
        <ele>494</ele>
        <time>2019-12-17T11:58:40.000Z</time>
      </trkpt>
      <trkpt lat="43.35169" lon="5.99457">
        <ele>494</ele>
        <time>2019-12-17T11:58:41.000Z</time>
      </trkpt>
      <trkpt lat="43.35168" lon="5.99456">
        <ele>494</ele>
        <time>2019-12-17T11:58:42.000Z</time>
      </trkpt>
      <trkpt lat="43.35167" lon="5.99455">
        <ele>494</ele>
        <time>2019-12-17T11:58:43.000Z</time>
      </trkpt>
      <trkpt lat="43.35166" lon="5.99454">
        <ele>494</ele>
        <time>2019-12-17T11:58:44.000Z</time>
      </trkpt>
      <trkpt lat="43.35166" lon="5.99453">
        <ele>494</ele>
        <time>2019-12-17T11:58:45.000Z</time>
      </trkpt>
      <trkpt lat="43.35165" lon="5.99452">
        <ele>494</ele>
        <time>2019-12-17T11:58:46.000Z</time>
      </trkpt>
      <trkpt lat="43.35165" lon="5.99451">
        <ele>494</ele>
        <time>2019-12-17T11:58:47.000Z</time>
      </trkpt>
      <trkpt lat="43.35165" lon="5.9945">
        <ele>494</ele>
        <time>2019-12-17T11:58:48.000Z</time>
      </trkpt>
      <trkpt lat="43.35164" lon="5.99448">
        <ele>494</ele>
        <time>2019-12-17T11:58:49.000Z</time>
      </trkpt>
      <trkpt lat="43.35163" lon="5.99447">
        <ele>494</ele>
        <time>2019-12-17T11:58:50.000Z</time>
      </trkpt>
      <trkpt lat="43.35163" lon="5.99445">
        <ele>494</ele>
        <time>2019-12-17T11:58:51.000Z</time>
      </trkpt>
      <trkpt lat="43.35162" lon="5.99444">
        <ele>494</ele>
        <time>2019-12-17T11:58:52.000Z</time>
      </trkpt>
      <trkpt lat="43.35161" lon="5.99442">
        <ele>493</ele>
        <time>2019-12-17T11:58:53.000Z</time>
      </trkpt>
      <trkpt lat="43.35161" lon="5.99441">
        <ele>493</ele>
        <time>2019-12-17T11:58:54.000Z</time>
      </trkpt>
      <trkpt lat="43.3516" lon="5.99439">
        <ele>493</ele>
        <time>2019-12-17T11:58:55.000Z</time>
      </trkpt>
      <trkpt lat="43.35159" lon="5.99438">
        <ele>493</ele>
        <time>2019-12-17T11:58:56.000Z</time>
      </trkpt>
      <trkpt lat="43.35159" lon="5.99436">
        <ele>493</ele>
        <time>2019-12-17T11:58:57.000Z</time>
      </trkpt>
      <trkpt lat="43.35158" lon="5.99435">
        <ele>493</ele>
        <time>2019-12-17T11:58:58.000Z</time>
      </trkpt>
      <trkpt lat="43.35157" lon="5.99433">
        <ele>493</ele>
        <time>2019-12-17T11:58:59.000Z</time>
      </trkpt>
      <trkpt lat="43.35156" lon="5.99432">
        <ele>493</ele>
        <time>2019-12-17T11:59:00.000Z</time>
      </trkpt>
      <trkpt lat="43.35155" lon="5.99431">
        <ele>493</ele>
        <time>2019-12-17T11:59:01.000Z</time>
      </trkpt>
      <trkpt lat="43.35154" lon="5.9943">
        <ele>493</ele>
        <time>2019-12-17T11:59:02.000Z</time>
      </trkpt>
      <trkpt lat="43.35153" lon="5.99428">
        <ele>493</ele>
        <time>2019-12-17T11:59:03.000Z</time>
      </trkpt>
      <trkpt lat="43.35153" lon="5.99426">
        <ele>493</ele>
        <time>2019-12-17T11:59:04.000Z</time>
      </trkpt>
      <trkpt lat="43.35152" lon="5.99425">
        <ele>493</ele>
        <time>2019-12-17T11:59:05.000Z</time>
      </trkpt>
      <trkpt lat="43.35151" lon="5.99424">
        <ele>493</ele>
        <time>2019-12-17T11:59:06.000Z</time>
      </trkpt>
      <trkpt lat="43.35151" lon="5.99423">
        <ele>493</ele>
        <time>2019-12-17T11:59:07.000Z</time>
      </trkpt>
      <trkpt lat="43.3515" lon="5.99422">
        <ele>493</ele>
        <time>2019-12-17T11:59:08.000Z</time>
      </trkpt>
      <trkpt lat="43.35149" lon="5.99421">
        <ele>493</ele>
        <time>2019-12-17T11:59:09.000Z</time>
      </trkpt>
      <trkpt lat="43.35148" lon="5.9942">
        <ele>493</ele>
        <time>2019-12-17T11:59:10.000Z</time>
      </trkpt>
      <trkpt lat="43.35148" lon="5.99419">
        <ele>492</ele>
        <time>2019-12-17T11:59:11.000Z</time>
      </trkpt>
      <trkpt lat="43.35147" lon="5.99419">
        <ele>492</ele>
        <time>2019-12-17T11:59:12.000Z</time>
      </trkpt>
      <trkpt lat="43.35147" lon="5.99418">
        <ele>492</ele>
        <time>2019-12-17T11:59:13.000Z</time>
      </trkpt>
      <trkpt lat="43.35147" lon="5.99418">
        <ele>492</ele>
        <time>2019-12-17T11:59:14.000Z</time>
      </trkpt>
      <trkpt lat="43.35147" lon="5.99418">
        <ele>492</ele>
        <time>2019-12-17T11:59:15.000Z</time>
      </trkpt>
      <trkpt lat="43.35147" lon="5.99418">
        <ele>492</ele>
        <time>2019-12-17T11:59:16.000Z</time>
      </trkpt>
      <trkpt lat="43.35146" lon="5.99417">
        <ele>491</ele>
        <time>2019-12-17T11:59:17.000Z</time>
      </trkpt>
      <trkpt lat="43.35145" lon="5.99416">
        <ele>491</ele>
        <time>2019-12-17T11:59:18.000Z</time>
      </trkpt>
      <trkpt lat="43.35144" lon="5.99416">
        <ele>491</ele>
        <time>2019-12-17T11:59:19.000Z</time>
      </trkpt>
      <trkpt lat="43.35144" lon="5.99415">
        <ele>491</ele>
        <time>2019-12-17T11:59:20.000Z</time>
      </trkpt>
      <trkpt lat="43.35143" lon="5.99414">
        <ele>491</ele>
        <time>2019-12-17T11:59:21.000Z</time>
      </trkpt>
      <trkpt lat="43.35141" lon="5.99413">
        <ele>490</ele>
        <time>2019-12-17T11:59:22.000Z</time>
      </trkpt>
      <trkpt lat="43.35141" lon="5.99413">
        <ele>490</ele>
        <time>2019-12-17T11:59:23.000Z</time>
      </trkpt>
      <trkpt lat="43.35139" lon="5.99413">
        <ele>490</ele>
        <time>2019-12-17T11:59:24.000Z</time>
      </trkpt>
      <trkpt lat="43.35138" lon="5.99412">
        <ele>490</ele>
        <time>2019-12-17T11:59:25.000Z</time>
      </trkpt>
      <trkpt lat="43.35138" lon="5.99412">
        <ele>490</ele>
        <time>2019-12-17T11:59:26.000Z</time>
      </trkpt>
      <trkpt lat="43.35137" lon="5.99412">
        <ele>489</ele>
        <time>2019-12-17T11:59:27.000Z</time>
      </trkpt>
      <trkpt lat="43.35136" lon="5.99411">
        <ele>489</ele>
        <time>2019-12-17T11:59:28.000Z</time>
      </trkpt>
      <trkpt lat="43.35135" lon="5.99411">
        <ele>489</ele>
        <time>2019-12-17T11:59:29.000Z</time>
      </trkpt>
      <trkpt lat="43.35133" lon="5.9941">
        <ele>489</ele>
        <time>2019-12-17T11:59:30.000Z</time>
      </trkpt>
      <trkpt lat="43.35133" lon="5.9941">
        <ele>489</ele>
        <time>2019-12-17T11:59:31.000Z</time>
      </trkpt>
      <trkpt lat="43.35131" lon="5.9941">
        <ele>489</ele>
        <time>2019-12-17T11:59:32.000Z</time>
      </trkpt>
      <trkpt lat="43.3513" lon="5.9941">
        <ele>489</ele>
        <time>2019-12-17T11:59:33.000Z</time>
      </trkpt>
      <trkpt lat="43.35129" lon="5.9941">
        <ele>489</ele>
        <time>2019-12-17T11:59:34.000Z</time>
      </trkpt>
      <trkpt lat="43.35127" lon="5.9941">
        <ele>489</ele>
        <time>2019-12-17T11:59:35.000Z</time>
      </trkpt>
      <trkpt lat="43.35127" lon="5.9941">
        <ele>489</ele>
        <time>2019-12-17T11:59:36.000Z</time>
      </trkpt>
      <trkpt lat="43.35125" lon="5.99409">
        <ele>489</ele>
        <time>2019-12-17T11:59:37.000Z</time>
      </trkpt>
      <trkpt lat="43.35124" lon="5.99409">
        <ele>489</ele>
        <time>2019-12-17T11:59:38.000Z</time>
      </trkpt>
      <trkpt lat="43.35123" lon="5.99408">
        <ele>489</ele>
        <time>2019-12-17T11:59:39.000Z</time>
      </trkpt>
      <trkpt lat="43.35121" lon="5.99407">
        <ele>489</ele>
        <time>2019-12-17T11:59:40.000Z</time>
      </trkpt>
      <trkpt lat="43.35121" lon="5.99407">
        <ele>489</ele>
        <time>2019-12-17T11:59:41.000Z</time>
      </trkpt>
      <trkpt lat="43.3512" lon="5.99407">
        <ele>489</ele>
        <time>2019-12-17T11:59:42.000Z</time>
      </trkpt>
      <trkpt lat="43.35118" lon="5.99407">
        <ele>489</ele>
        <time>2019-12-17T11:59:43.000Z</time>
      </trkpt>
      <trkpt lat="43.35117" lon="5.99406">
        <ele>489</ele>
        <time>2019-12-17T11:59:44.000Z</time>
      </trkpt>
      <trkpt lat="43.35116" lon="5.99406">
        <ele>489</ele>
        <time>2019-12-17T11:59:45.000Z</time>
      </trkpt>
      <trkpt lat="43.35115" lon="5.99405">
        <ele>489</ele>
        <time>2019-12-17T11:59:46.000Z</time>
      </trkpt>
      <trkpt lat="43.35112" lon="5.99405">
        <ele>489</ele>
        <time>2019-12-17T11:59:47.000Z</time>
      </trkpt>
      <trkpt lat="43.35112" lon="5.99405">
        <ele>489</ele>
        <time>2019-12-17T11:59:48.000Z</time>
      </trkpt>
      <trkpt lat="43.35111" lon="5.99404">
        <ele>489</ele>
        <time>2019-12-17T11:59:49.000Z</time>
      </trkpt>
      <trkpt lat="43.3511" lon="5.99404">
        <ele>489</ele>
        <time>2019-12-17T11:59:50.000Z</time>
      </trkpt>
      <trkpt lat="43.35108" lon="5.99402">
        <ele>489</ele>
        <time>2019-12-17T11:59:51.000Z</time>
      </trkpt>
      <trkpt lat="43.35107" lon="5.99402">
        <ele>489</ele>
        <time>2019-12-17T11:59:52.000Z</time>
      </trkpt>
      <trkpt lat="43.35107" lon="5.99402">
        <ele>489</ele>
        <time>2019-12-17T11:59:53.000Z</time>
      </trkpt>
      <trkpt lat="43.35106" lon="5.99401">
        <ele>489</ele>
        <time>2019-12-17T11:59:54.000Z</time>
      </trkpt>
      <trkpt lat="43.35105" lon="5.99401">
        <ele>488</ele>
        <time>2019-12-17T11:59:55.000Z</time>
      </trkpt>
      <trkpt lat="43.35103" lon="5.994">
        <ele>489</ele>
        <time>2019-12-17T11:59:56.000Z</time>
      </trkpt>
      <trkpt lat="43.35103" lon="5.994">
        <ele>489</ele>
        <time>2019-12-17T11:59:57.000Z</time>
      </trkpt>
      <trkpt lat="43.35102" lon="5.99399">
        <ele>489</ele>
        <time>2019-12-17T11:59:58.000Z</time>
      </trkpt>
      <trkpt lat="43.351" lon="5.99399">
        <ele>489</ele>
        <time>2019-12-17T11:59:59.000Z</time>
      </trkpt>
      <trkpt lat="43.35099" lon="5.99398">
        <ele>489</ele>
        <time>2019-12-17T12:00:00.000Z</time>
      </trkpt>
      <trkpt lat="43.35097" lon="5.99397">
        <ele>489</ele>
        <time>2019-12-17T12:00:01.000Z</time>
      </trkpt>
      <trkpt lat="43.35097" lon="5.99397">
        <ele>489</ele>
        <time>2019-12-17T12:00:02.000Z</time>
      </trkpt>
      <trkpt lat="43.35096" lon="5.99396">
        <ele>488</ele>
        <time>2019-12-17T12:00:03.000Z</time>
      </trkpt>
      <trkpt lat="43.35094" lon="5.99395">
        <ele>488</ele>
        <time>2019-12-17T12:00:04.000Z</time>
      </trkpt>
      <trkpt lat="43.35093" lon="5.99394">
        <ele>488</ele>
        <time>2019-12-17T12:00:05.000Z</time>
      </trkpt>
      <trkpt lat="43.35092" lon="5.99393">
        <ele>488</ele>
        <time>2019-12-17T12:00:06.000Z</time>
      </trkpt>
      <trkpt lat="43.35091" lon="5.99393">
        <ele>488</ele>
        <time>2019-12-17T12:00:07.000Z</time>
      </trkpt>
      <trkpt lat="43.35089" lon="5.99391">
        <ele>488</ele>
        <time>2019-12-17T12:00:08.000Z</time>
      </trkpt>
      <trkpt lat="43.35089" lon="5.99391">
        <ele>488</ele>
        <time>2019-12-17T12:00:09.000Z</time>
      </trkpt>
      <trkpt lat="43.35088" lon="5.9939">
        <ele>488</ele>
        <time>2019-12-17T12:00:10.000Z</time>
      </trkpt>
      <trkpt lat="43.35087" lon="5.99389">
        <ele>488</ele>
        <time>2019-12-17T12:00:11.000Z</time>
      </trkpt>
      <trkpt lat="43.35085" lon="5.99387">
        <ele>488</ele>
        <time>2019-12-17T12:00:12.000Z</time>
      </trkpt>
      <trkpt lat="43.35085" lon="5.99387">
        <ele>488</ele>
        <time>2019-12-17T12:00:13.000Z</time>
      </trkpt>
      <trkpt lat="43.35084" lon="5.99387">
        <ele>488</ele>
        <time>2019-12-17T12:00:14.000Z</time>
      </trkpt>
      <trkpt lat="43.35083" lon="5.99386">
        <ele>488</ele>
        <time>2019-12-17T12:00:15.000Z</time>
      </trkpt>
      <trkpt lat="43.35082" lon="5.99385">
        <ele>488</ele>
        <time>2019-12-17T12:00:16.000Z</time>
      </trkpt>
      <trkpt lat="43.35081" lon="5.99385">
        <ele>488</ele>
        <time>2019-12-17T12:00:17.000Z</time>
      </trkpt>
      <trkpt lat="43.3508" lon="5.99384">
        <ele>488</ele>
        <time>2019-12-17T12:00:18.000Z</time>
      </trkpt>
      <trkpt lat="43.35079" lon="5.99384">
        <ele>488</ele>
        <time>2019-12-17T12:00:19.000Z</time>
      </trkpt>
      <trkpt lat="43.35077" lon="5.99383">
        <ele>488</ele>
        <time>2019-12-17T12:00:20.000Z</time>
      </trkpt>
      <trkpt lat="43.35076" lon="5.99382">
        <ele>488</ele>
        <time>2019-12-17T12:00:21.000Z</time>
      </trkpt>
      <trkpt lat="43.35075" lon="5.99382">
        <ele>488</ele>
        <time>2019-12-17T12:00:22.000Z</time>
      </trkpt>
      <trkpt lat="43.35074" lon="5.99381">
        <ele>487</ele>
        <time>2019-12-17T12:00:23.000Z</time>
      </trkpt>
      <trkpt lat="43.35073" lon="5.9938">
        <ele>487</ele>
        <time>2019-12-17T12:00:24.000Z</time>
      </trkpt>
      <trkpt lat="43.35072" lon="5.9938">
        <ele>487</ele>
        <time>2019-12-17T12:00:25.000Z</time>
      </trkpt>
      <trkpt lat="43.35071" lon="5.99379">
        <ele>487</ele>
        <time>2019-12-17T12:00:26.000Z</time>
      </trkpt>
      <trkpt lat="43.3507" lon="5.99378">
        <ele>487</ele>
        <time>2019-12-17T12:00:27.000Z</time>
      </trkpt>
      <trkpt lat="43.35069" lon="5.99378">
        <ele>487</ele>
        <time>2019-12-17T12:00:28.000Z</time>
      </trkpt>
      <trkpt lat="43.35068" lon="5.99377">
        <ele>487</ele>
        <time>2019-12-17T12:00:29.000Z</time>
      </trkpt>
      <trkpt lat="43.35067" lon="5.99376">
        <ele>487</ele>
        <time>2019-12-17T12:00:30.000Z</time>
      </trkpt>
      <trkpt lat="43.35066" lon="5.99375">
        <ele>487</ele>
        <time>2019-12-17T12:00:31.000Z</time>
      </trkpt>
      <trkpt lat="43.35065" lon="5.99374">
        <ele>487</ele>
        <time>2019-12-17T12:00:32.000Z</time>
      </trkpt>
      <trkpt lat="43.35063" lon="5.99373">
        <ele>487</ele>
        <time>2019-12-17T12:00:33.000Z</time>
      </trkpt>
      <trkpt lat="43.35062" lon="5.99372">
        <ele>487</ele>
        <time>2019-12-17T12:00:34.000Z</time>
      </trkpt>
      <trkpt lat="43.35061" lon="5.99371">
        <ele>487</ele>
        <time>2019-12-17T12:00:35.000Z</time>
      </trkpt>
      <trkpt lat="43.3506" lon="5.9937">
        <ele>487</ele>
        <time>2019-12-17T12:00:36.000Z</time>
      </trkpt>
      <trkpt lat="43.35059" lon="5.99369">
        <ele>487</ele>
        <time>2019-12-17T12:00:37.000Z</time>
      </trkpt>
      <trkpt lat="43.35058" lon="5.99368">
        <ele>487</ele>
        <time>2019-12-17T12:00:38.000Z</time>
      </trkpt>
      <trkpt lat="43.35057" lon="5.99367">
        <ele>486</ele>
        <time>2019-12-17T12:00:39.000Z</time>
      </trkpt>
      <trkpt lat="43.35056" lon="5.99366">
        <ele>486</ele>
        <time>2019-12-17T12:00:40.000Z</time>
      </trkpt>
      <trkpt lat="43.35055" lon="5.99365">
        <ele>486</ele>
        <time>2019-12-17T12:00:41.000Z</time>
      </trkpt>
      <trkpt lat="43.35055" lon="5.99364">
        <ele>486</ele>
        <time>2019-12-17T12:00:42.000Z</time>
      </trkpt>
      <trkpt lat="43.35054" lon="5.99362">
        <ele>486</ele>
        <time>2019-12-17T12:00:43.000Z</time>
      </trkpt>
      <trkpt lat="43.35053" lon="5.99361">
        <ele>486</ele>
        <time>2019-12-17T12:00:44.000Z</time>
      </trkpt>
      <trkpt lat="43.35052" lon="5.9936">
        <ele>486</ele>
        <time>2019-12-17T12:00:45.000Z</time>
      </trkpt>
      <trkpt lat="43.35051" lon="5.99358">
        <ele>486</ele>
        <time>2019-12-17T12:00:46.000Z</time>
      </trkpt>
      <trkpt lat="43.35051" lon="5.99357">
        <ele>486</ele>
        <time>2019-12-17T12:00:47.000Z</time>
      </trkpt>
      <trkpt lat="43.3505" lon="5.99356">
        <ele>486</ele>
        <time>2019-12-17T12:00:48.000Z</time>
      </trkpt>
      <trkpt lat="43.35049" lon="5.99355">
        <ele>486</ele>
        <time>2019-12-17T12:00:49.000Z</time>
      </trkpt>
      <trkpt lat="43.35048" lon="5.99354">
        <ele>486</ele>
        <time>2019-12-17T12:00:50.000Z</time>
      </trkpt>
      <trkpt lat="43.35048" lon="5.99352">
        <ele>486</ele>
        <time>2019-12-17T12:00:51.000Z</time>
      </trkpt>
      <trkpt lat="43.35047" lon="5.99351">
        <ele>486</ele>
        <time>2019-12-17T12:00:52.000Z</time>
      </trkpt>
      <trkpt lat="43.35046" lon="5.99349">
        <ele>486</ele>
        <time>2019-12-17T12:00:53.000Z</time>
      </trkpt>
      <trkpt lat="43.35046" lon="5.99348">
        <ele>486</ele>
        <time>2019-12-17T12:00:54.000Z</time>
      </trkpt>
      <trkpt lat="43.35045" lon="5.99346">
        <ele>486</ele>
        <time>2019-12-17T12:00:55.000Z</time>
      </trkpt>
      <trkpt lat="43.35044" lon="5.99345">
        <ele>486</ele>
        <time>2019-12-17T12:00:56.000Z</time>
      </trkpt>
      <trkpt lat="43.35044" lon="5.99343">
        <ele>486</ele>
        <time>2019-12-17T12:00:57.000Z</time>
      </trkpt>
      <trkpt lat="43.35043" lon="5.99342">
        <ele>486</ele>
        <time>2019-12-17T12:00:58.000Z</time>
      </trkpt>
      <trkpt lat="43.35042" lon="5.9934">
        <ele>487</ele>
        <time>2019-12-17T12:00:59.000Z</time>
      </trkpt>
      <trkpt lat="43.35042" lon="5.99339">
        <ele>487</ele>
        <time>2019-12-17T12:01:00.000Z</time>
      </trkpt>
      <trkpt lat="43.35042" lon="5.99338">
        <ele>487</ele>
        <time>2019-12-17T12:01:01.000Z</time>
      </trkpt>
      <trkpt lat="43.35042" lon="5.99336">
        <ele>487</ele>
        <time>2019-12-17T12:01:02.000Z</time>
      </trkpt>
      <trkpt lat="43.35042" lon="5.99335">
        <ele>487</ele>
        <time>2019-12-17T12:01:03.000Z</time>
      </trkpt>
      <trkpt lat="43.35042" lon="5.99334">
        <ele>487</ele>
        <time>2019-12-17T12:01:04.000Z</time>
      </trkpt>
      <trkpt lat="43.35042" lon="5.99334">
        <ele>488</ele>
        <time>2019-12-17T12:01:05.000Z</time>
      </trkpt>
      <trkpt lat="43.35042" lon="5.99332">
        <ele>488</ele>
        <time>2019-12-17T12:01:06.000Z</time>
      </trkpt>
      <trkpt lat="43.35042" lon="5.99332">
        <ele>488</ele>
        <time>2019-12-17T12:01:07.000Z</time>
      </trkpt>
      <trkpt lat="43.35041" lon="5.99331">
        <ele>488</ele>
        <time>2019-12-17T12:01:08.000Z</time>
      </trkpt>
      <trkpt lat="43.3504" lon="5.9933">
        <ele>488</ele>
        <time>2019-12-17T12:01:09.000Z</time>
      </trkpt>
      <trkpt lat="43.35039" lon="5.99328">
        <ele>488</ele>
        <time>2019-12-17T12:01:10.000Z</time>
      </trkpt>
      <trkpt lat="43.35038" lon="5.99327">
        <ele>488</ele>
        <time>2019-12-17T12:01:11.000Z</time>
      </trkpt>
      <trkpt lat="43.35037" lon="5.99326">
        <ele>488</ele>
        <time>2019-12-17T12:01:12.000Z</time>
      </trkpt>
      <trkpt lat="43.35036" lon="5.99324">
        <ele>488</ele>
        <time>2019-12-17T12:01:13.000Z</time>
      </trkpt>
      <trkpt lat="43.35035" lon="5.99323">
        <ele>488</ele>
        <time>2019-12-17T12:01:14.000Z</time>
      </trkpt>
      <trkpt lat="43.35034" lon="5.99321">
        <ele>488</ele>
        <time>2019-12-17T12:01:15.000Z</time>
      </trkpt>
      <trkpt lat="43.35033" lon="5.9932">
        <ele>488</ele>
        <time>2019-12-17T12:01:16.000Z</time>
      </trkpt>
      <trkpt lat="43.35032" lon="5.99319">
        <ele>488</ele>
        <time>2019-12-17T12:01:17.000Z</time>
      </trkpt>
      <trkpt lat="43.35032" lon="5.99317">
        <ele>488</ele>
        <time>2019-12-17T12:01:18.000Z</time>
      </trkpt>
      <trkpt lat="43.35031" lon="5.99315">
        <ele>488</ele>
        <time>2019-12-17T12:01:19.000Z</time>
      </trkpt>
      <trkpt lat="43.3503" lon="5.99314">
        <ele>488</ele>
        <time>2019-12-17T12:01:20.000Z</time>
      </trkpt>
      <trkpt lat="43.35029" lon="5.99312">
        <ele>488</ele>
        <time>2019-12-17T12:01:21.000Z</time>
      </trkpt>
      <trkpt lat="43.35028" lon="5.99311">
        <ele>489</ele>
        <time>2019-12-17T12:01:22.000Z</time>
      </trkpt>
      <trkpt lat="43.35027" lon="5.99309">
        <ele>488</ele>
        <time>2019-12-17T12:01:23.000Z</time>
      </trkpt>
      <trkpt lat="43.35026" lon="5.99307">
        <ele>488</ele>
        <time>2019-12-17T12:01:24.000Z</time>
      </trkpt>
      <trkpt lat="43.35025" lon="5.99306">
        <ele>488</ele>
        <time>2019-12-17T12:01:25.000Z</time>
      </trkpt>
      <trkpt lat="43.35025" lon="5.99304">
        <ele>488</ele>
        <time>2019-12-17T12:01:26.000Z</time>
      </trkpt>
      <trkpt lat="43.35024" lon="5.99302">
        <ele>488</ele>
        <time>2019-12-17T12:01:27.000Z</time>
      </trkpt>
      <trkpt lat="43.35023" lon="5.99301">
        <ele>488</ele>
        <time>2019-12-17T12:01:28.000Z</time>
      </trkpt>
      <trkpt lat="43.35023" lon="5.99299">
        <ele>488</ele>
        <time>2019-12-17T12:01:29.000Z</time>
      </trkpt>
      <trkpt lat="43.35022" lon="5.99298">
        <ele>488</ele>
        <time>2019-12-17T12:01:30.000Z</time>
      </trkpt>
      <trkpt lat="43.35021" lon="5.99296">
        <ele>488</ele>
        <time>2019-12-17T12:01:31.000Z</time>
      </trkpt>
      <trkpt lat="43.3502" lon="5.99295">
        <ele>488</ele>
        <time>2019-12-17T12:01:32.000Z</time>
      </trkpt>
      <trkpt lat="43.3502" lon="5.99293">
        <ele>488</ele>
        <time>2019-12-17T12:01:33.000Z</time>
      </trkpt>
      <trkpt lat="43.35019" lon="5.99292">
        <ele>488</ele>
        <time>2019-12-17T12:01:34.000Z</time>
      </trkpt>
      <trkpt lat="43.35018" lon="5.99291">
        <ele>488</ele>
        <time>2019-12-17T12:01:35.000Z</time>
      </trkpt>
      <trkpt lat="43.35017" lon="5.9929">
        <ele>488</ele>
        <time>2019-12-17T12:01:36.000Z</time>
      </trkpt>
      <trkpt lat="43.35017" lon="5.99289">
        <ele>488</ele>
        <time>2019-12-17T12:01:37.000Z</time>
      </trkpt>
      <trkpt lat="43.35016" lon="5.99288">
        <ele>488</ele>
        <time>2019-12-17T12:01:38.000Z</time>
      </trkpt>
      <trkpt lat="43.35015" lon="5.99287">
        <ele>488</ele>
        <time>2019-12-17T12:01:39.000Z</time>
      </trkpt>
      <trkpt lat="43.35013" lon="5.99286">
        <ele>488</ele>
        <time>2019-12-17T12:01:40.000Z</time>
      </trkpt>
      <trkpt lat="43.35012" lon="5.99285">
        <ele>488</ele>
        <time>2019-12-17T12:01:41.000Z</time>
      </trkpt>
      <trkpt lat="43.35011" lon="5.99284">
        <ele>488</ele>
        <time>2019-12-17T12:01:42.000Z</time>
      </trkpt>
      <trkpt lat="43.3501" lon="5.99283">
        <ele>488</ele>
        <time>2019-12-17T12:01:43.000Z</time>
      </trkpt>
      <trkpt lat="43.35008" lon="5.99283">
        <ele>488</ele>
        <time>2019-12-17T12:01:44.000Z</time>
      </trkpt>
      <trkpt lat="43.35007" lon="5.99282">
        <ele>489</ele>
        <time>2019-12-17T12:01:45.000Z</time>
      </trkpt>
      <trkpt lat="43.35006" lon="5.99281">
        <ele>489</ele>
        <time>2019-12-17T12:01:46.000Z</time>
      </trkpt>
      <trkpt lat="43.35004" lon="5.99281">
        <ele>489</ele>
        <time>2019-12-17T12:01:47.000Z</time>
      </trkpt>
      <trkpt lat="43.35003" lon="5.9928">
        <ele>489</ele>
        <time>2019-12-17T12:01:48.000Z</time>
      </trkpt>
      <trkpt lat="43.35002" lon="5.99279">
        <ele>489</ele>
        <time>2019-12-17T12:01:49.000Z</time>
      </trkpt>
      <trkpt lat="43.35001" lon="5.99279">
        <ele>489</ele>
        <time>2019-12-17T12:01:50.000Z</time>
      </trkpt>
      <trkpt lat="43.35" lon="5.99278">
        <ele>489</ele>
        <time>2019-12-17T12:01:51.000Z</time>
      </trkpt>
      <trkpt lat="43.34999" lon="5.99278">
        <ele>489</ele>
        <time>2019-12-17T12:01:52.000Z</time>
      </trkpt>
      <trkpt lat="43.34998" lon="5.99277">
        <ele>489</ele>
        <time>2019-12-17T12:01:53.000Z</time>
      </trkpt>
      <trkpt lat="43.34997" lon="5.99276">
        <ele>489</ele>
        <time>2019-12-17T12:01:54.000Z</time>
      </trkpt>
      <trkpt lat="43.34997" lon="5.99275">
        <ele>489</ele>
        <time>2019-12-17T12:01:55.000Z</time>
      </trkpt>
      <trkpt lat="43.34996" lon="5.99275">
        <ele>489</ele>
        <time>2019-12-17T12:01:56.000Z</time>
      </trkpt>
      <trkpt lat="43.34995" lon="5.99274">
        <ele>489</ele>
        <time>2019-12-17T12:01:57.000Z</time>
      </trkpt>
      <trkpt lat="43.34994" lon="5.99273">
        <ele>489</ele>
        <time>2019-12-17T12:01:58.000Z</time>
      </trkpt>
      <trkpt lat="43.34993" lon="5.99273">
        <ele>489</ele>
        <time>2019-12-17T12:01:59.000Z</time>
      </trkpt>
      <trkpt lat="43.34992" lon="5.99272">
        <ele>489</ele>
        <time>2019-12-17T12:02:00.000Z</time>
      </trkpt>
      <trkpt lat="43.34992" lon="5.99271">
        <ele>489</ele>
        <time>2019-12-17T12:02:01.000Z</time>
      </trkpt>
      <trkpt lat="43.34991" lon="5.9927">
        <ele>489</ele>
        <time>2019-12-17T12:02:02.000Z</time>
      </trkpt>
      <trkpt lat="43.34991" lon="5.99268">
        <ele>489</ele>
        <time>2019-12-17T12:02:03.000Z</time>
      </trkpt>
      <trkpt lat="43.3499" lon="5.99267">
        <ele>489</ele>
        <time>2019-12-17T12:02:04.000Z</time>
      </trkpt>
      <trkpt lat="43.34989" lon="5.99267">
        <ele>489</ele>
        <time>2019-12-17T12:02:05.000Z</time>
      </trkpt>
      <trkpt lat="43.34989" lon="5.99266">
        <ele>489</ele>
        <time>2019-12-17T12:02:06.000Z</time>
      </trkpt>
      <trkpt lat="43.34988" lon="5.99265">
        <ele>489</ele>
        <time>2019-12-17T12:02:07.000Z</time>
      </trkpt>
      <trkpt lat="43.34987" lon="5.99264">
        <ele>488</ele>
        <time>2019-12-17T12:02:08.000Z</time>
      </trkpt>
      <trkpt lat="43.34986" lon="5.99264">
        <ele>488</ele>
        <time>2019-12-17T12:02:09.000Z</time>
      </trkpt>
      <trkpt lat="43.34985" lon="5.99263">
        <ele>488</ele>
        <time>2019-12-17T12:02:10.000Z</time>
      </trkpt>
      <trkpt lat="43.34984" lon="5.99262">
        <ele>489</ele>
        <time>2019-12-17T12:02:11.000Z</time>
      </trkpt>
      <trkpt lat="43.34983" lon="5.99261">
        <ele>489</ele>
        <time>2019-12-17T12:02:12.000Z</time>
      </trkpt>
      <trkpt lat="43.34982" lon="5.99259">
        <ele>489</ele>
        <time>2019-12-17T12:02:13.000Z</time>
      </trkpt>
      <trkpt lat="43.34982" lon="5.99258">
        <ele>489</ele>
        <time>2019-12-17T12:02:14.000Z</time>
      </trkpt>
      <trkpt lat="43.34981" lon="5.99256">
        <ele>489</ele>
        <time>2019-12-17T12:02:15.000Z</time>
      </trkpt>
      <trkpt lat="43.3498" lon="5.99255">
        <ele>489</ele>
        <time>2019-12-17T12:02:16.000Z</time>
      </trkpt>
      <trkpt lat="43.34979" lon="5.99253">
        <ele>489</ele>
        <time>2019-12-17T12:02:17.000Z</time>
      </trkpt>
      <trkpt lat="43.34978" lon="5.99252">
        <ele>489</ele>
        <time>2019-12-17T12:02:18.000Z</time>
      </trkpt>
      <trkpt lat="43.34977" lon="5.99251">
        <ele>489</ele>
        <time>2019-12-17T12:02:19.000Z</time>
      </trkpt>
      <trkpt lat="43.34977" lon="5.99249">
        <ele>489</ele>
        <time>2019-12-17T12:02:20.000Z</time>
      </trkpt>
      <trkpt lat="43.34976" lon="5.99248">
        <ele>489</ele>
        <time>2019-12-17T12:02:21.000Z</time>
      </trkpt>
      <trkpt lat="43.34975" lon="5.99246">
        <ele>489</ele>
        <time>2019-12-17T12:02:22.000Z</time>
      </trkpt>
      <trkpt lat="43.34975" lon="5.99245">
        <ele>489</ele>
        <time>2019-12-17T12:02:23.000Z</time>
      </trkpt>
      <trkpt lat="43.34974" lon="5.99243">
        <ele>489</ele>
        <time>2019-12-17T12:02:24.000Z</time>
      </trkpt>
      <trkpt lat="43.34974" lon="5.99242">
        <ele>489</ele>
        <time>2019-12-17T12:02:25.000Z</time>
      </trkpt>
      <trkpt lat="43.34973" lon="5.99241">
        <ele>489</ele>
        <time>2019-12-17T12:02:26.000Z</time>
      </trkpt>
      <trkpt lat="43.34972" lon="5.9924">
        <ele>489</ele>
        <time>2019-12-17T12:02:27.000Z</time>
      </trkpt>
      <trkpt lat="43.34971" lon="5.99239">
        <ele>490</ele>
        <time>2019-12-17T12:02:28.000Z</time>
      </trkpt>
      <trkpt lat="43.3497" lon="5.99238">
        <ele>490</ele>
        <time>2019-12-17T12:02:29.000Z</time>
      </trkpt>
      <trkpt lat="43.34969" lon="5.99237">
        <ele>490</ele>
        <time>2019-12-17T12:02:30.000Z</time>
      </trkpt>
      <trkpt lat="43.34968" lon="5.99236">
        <ele>490</ele>
        <time>2019-12-17T12:02:31.000Z</time>
      </trkpt>
      <trkpt lat="43.34968" lon="5.99235">
        <ele>490</ele>
        <time>2019-12-17T12:02:32.000Z</time>
      </trkpt>
      <trkpt lat="43.34967" lon="5.99234">
        <ele>490</ele>
        <time>2019-12-17T12:02:33.000Z</time>
      </trkpt>
      <trkpt lat="43.34966" lon="5.99233">
        <ele>489</ele>
        <time>2019-12-17T12:02:34.000Z</time>
      </trkpt>
      <trkpt lat="43.34965" lon="5.99232">
        <ele>489</ele>
        <time>2019-12-17T12:02:35.000Z</time>
      </trkpt>
      <trkpt lat="43.34963" lon="5.99232">
        <ele>489</ele>
        <time>2019-12-17T12:02:36.000Z</time>
      </trkpt>
      <trkpt lat="43.34962" lon="5.99231">
        <ele>489</ele>
        <time>2019-12-17T12:02:37.000Z</time>
      </trkpt>
      <trkpt lat="43.34961" lon="5.99231">
        <ele>488</ele>
        <time>2019-12-17T12:02:38.000Z</time>
      </trkpt>
      <trkpt lat="43.3496" lon="5.9923">
        <ele>488</ele>
        <time>2019-12-17T12:02:39.000Z</time>
      </trkpt>
      <trkpt lat="43.34959" lon="5.9923">
        <ele>488</ele>
        <time>2019-12-17T12:02:40.000Z</time>
      </trkpt>
      <trkpt lat="43.34957" lon="5.9923">
        <ele>487</ele>
        <time>2019-12-17T12:02:41.000Z</time>
      </trkpt>
      <trkpt lat="43.34956" lon="5.99229">
        <ele>487</ele>
        <time>2019-12-17T12:02:42.000Z</time>
      </trkpt>
      <trkpt lat="43.34955" lon="5.99229">
        <ele>487</ele>
        <time>2019-12-17T12:02:43.000Z</time>
      </trkpt>
      <trkpt lat="43.34953" lon="5.99229">
        <ele>487</ele>
        <time>2019-12-17T12:02:44.000Z</time>
      </trkpt>
      <trkpt lat="43.34952" lon="5.99229">
        <ele>487</ele>
        <time>2019-12-17T12:02:45.000Z</time>
      </trkpt>
      <trkpt lat="43.3495" lon="5.99228">
        <ele>487</ele>
        <time>2019-12-17T12:02:46.000Z</time>
      </trkpt>
      <trkpt lat="43.34949" lon="5.99228">
        <ele>486</ele>
        <time>2019-12-17T12:02:47.000Z</time>
      </trkpt>
      <trkpt lat="43.34947" lon="5.99228">
        <ele>486</ele>
        <time>2019-12-17T12:02:48.000Z</time>
      </trkpt>
      <trkpt lat="43.34946" lon="5.99227">
        <ele>486</ele>
        <time>2019-12-17T12:02:49.000Z</time>
      </trkpt>
      <trkpt lat="43.34945" lon="5.99226">
        <ele>486</ele>
        <time>2019-12-17T12:02:50.000Z</time>
      </trkpt>
      <trkpt lat="43.34944" lon="5.99226">
        <ele>486</ele>
        <time>2019-12-17T12:02:51.000Z</time>
      </trkpt>
      <trkpt lat="43.34943" lon="5.99225">
        <ele>486</ele>
        <time>2019-12-17T12:02:52.000Z</time>
      </trkpt>
      <trkpt lat="43.34942" lon="5.99224">
        <ele>486</ele>
        <time>2019-12-17T12:02:53.000Z</time>
      </trkpt>
      <trkpt lat="43.34941" lon="5.99224">
        <ele>486</ele>
        <time>2019-12-17T12:02:54.000Z</time>
      </trkpt>
      <trkpt lat="43.3494" lon="5.99223">
        <ele>486</ele>
        <time>2019-12-17T12:02:55.000Z</time>
      </trkpt>
      <trkpt lat="43.34939" lon="5.99223">
        <ele>486</ele>
        <time>2019-12-17T12:02:56.000Z</time>
      </trkpt>
      <trkpt lat="43.34938" lon="5.99222">
        <ele>485</ele>
        <time>2019-12-17T12:02:57.000Z</time>
      </trkpt>
      <trkpt lat="43.34937" lon="5.99221">
        <ele>485</ele>
        <time>2019-12-17T12:02:58.000Z</time>
      </trkpt>
      <trkpt lat="43.34936" lon="5.9922">
        <ele>485</ele>
        <time>2019-12-17T12:02:59.000Z</time>
      </trkpt>
      <trkpt lat="43.34934" lon="5.9922">
        <ele>485</ele>
        <time>2019-12-17T12:03:00.000Z</time>
      </trkpt>
      <trkpt lat="43.34933" lon="5.99219">
        <ele>485</ele>
        <time>2019-12-17T12:03:01.000Z</time>
      </trkpt>
      <trkpt lat="43.34932" lon="5.99219">
        <ele>485</ele>
        <time>2019-12-17T12:03:02.000Z</time>
      </trkpt>
      <trkpt lat="43.34931" lon="5.99218">
        <ele>485</ele>
        <time>2019-12-17T12:03:05.000Z</time>
      </trkpt>
      <trkpt lat="43.34931" lon="5.99218">
        <ele>485</ele>
        <time>2019-12-17T12:03:06.000Z</time>
      </trkpt>
      <trkpt lat="43.34926" lon="5.99216">
        <ele>485</ele>
        <time>2019-12-17T12:03:07.000Z</time>
      </trkpt>
      <trkpt lat="43.34924" lon="5.99215">
        <ele>485</ele>
        <time>2019-12-17T12:03:08.000Z</time>
      </trkpt>
      <trkpt lat="43.34923" lon="5.99215">
        <ele>485</ele>
        <time>2019-12-17T12:03:09.000Z</time>
      </trkpt>
      <trkpt lat="43.34922" lon="5.99215">
        <ele>485</ele>
        <time>2019-12-17T12:03:10.000Z</time>
      </trkpt>
      <trkpt lat="43.34921" lon="5.99214">
        <ele>485</ele>
        <time>2019-12-17T12:03:11.000Z</time>
      </trkpt>
      <trkpt lat="43.34919" lon="5.99214">
        <ele>485</ele>
        <time>2019-12-17T12:03:12.000Z</time>
      </trkpt>
      <trkpt lat="43.34918" lon="5.99214">
        <ele>484</ele>
        <time>2019-12-17T12:03:13.000Z</time>
      </trkpt>
      <trkpt lat="43.34917" lon="5.99213">
        <ele>484</ele>
        <time>2019-12-17T12:03:14.000Z</time>
      </trkpt>
      <trkpt lat="43.34916" lon="5.99213">
        <ele>484</ele>
        <time>2019-12-17T12:03:15.000Z</time>
      </trkpt>
      <trkpt lat="43.34915" lon="5.99213">
        <ele>484</ele>
        <time>2019-12-17T12:03:16.000Z</time>
      </trkpt>
      <trkpt lat="43.34913" lon="5.99213">
        <ele>484</ele>
        <time>2019-12-17T12:03:17.000Z</time>
      </trkpt>
      <trkpt lat="43.34912" lon="5.99213">
        <ele>484</ele>
        <time>2019-12-17T12:03:18.000Z</time>
      </trkpt>
      <trkpt lat="43.34911" lon="5.99213">
        <ele>484</ele>
        <time>2019-12-17T12:03:19.000Z</time>
      </trkpt>
      <trkpt lat="43.3491" lon="5.99213">
        <ele>484</ele>
        <time>2019-12-17T12:03:20.000Z</time>
      </trkpt>
      <trkpt lat="43.34909" lon="5.99213">
        <ele>484</ele>
        <time>2019-12-17T12:03:21.000Z</time>
      </trkpt>
      <trkpt lat="43.34907" lon="5.99213">
        <ele>484</ele>
        <time>2019-12-17T12:03:22.000Z</time>
      </trkpt>
      <trkpt lat="43.34906" lon="5.99213">
        <ele>483</ele>
        <time>2019-12-17T12:03:23.000Z</time>
      </trkpt>
      <trkpt lat="43.34905" lon="5.99213">
        <ele>483</ele>
        <time>2019-12-17T12:03:24.000Z</time>
      </trkpt>
      <trkpt lat="43.34905" lon="5.99214">
        <ele>483</ele>
        <time>2019-12-17T12:03:25.000Z</time>
      </trkpt>
      <trkpt lat="43.34904" lon="5.99214">
        <ele>483</ele>
        <time>2019-12-17T12:03:26.000Z</time>
      </trkpt>
      <trkpt lat="43.34902" lon="5.99214">
        <ele>482</ele>
        <time>2019-12-17T12:03:27.000Z</time>
      </trkpt>
      <trkpt lat="43.34902" lon="5.99214">
        <ele>482</ele>
        <time>2019-12-17T12:03:28.000Z</time>
      </trkpt>
      <trkpt lat="43.34901" lon="5.99214">
        <ele>482</ele>
        <time>2019-12-17T12:03:29.000Z</time>
      </trkpt>
      <trkpt lat="43.349" lon="5.99214">
        <ele>482</ele>
        <time>2019-12-17T12:03:30.000Z</time>
      </trkpt>
      <trkpt lat="43.34898" lon="5.99215">
        <ele>482</ele>
        <time>2019-12-17T12:03:31.000Z</time>
      </trkpt>
      <trkpt lat="43.34897" lon="5.99215">
        <ele>482</ele>
        <time>2019-12-17T12:03:32.000Z</time>
      </trkpt>
      <trkpt lat="43.34896" lon="5.99216">
        <ele>482</ele>
        <time>2019-12-17T12:03:33.000Z</time>
      </trkpt>
      <trkpt lat="43.34895" lon="5.99216">
        <ele>481</ele>
        <time>2019-12-17T12:03:34.000Z</time>
      </trkpt>
      <trkpt lat="43.34894" lon="5.99216">
        <ele>481</ele>
        <time>2019-12-17T12:03:35.000Z</time>
      </trkpt>
      <trkpt lat="43.34893" lon="5.99216">
        <ele>481</ele>
        <time>2019-12-17T12:03:36.000Z</time>
      </trkpt>
      <trkpt lat="43.34892" lon="5.99217">
        <ele>481</ele>
        <time>2019-12-17T12:03:37.000Z</time>
      </trkpt>
      <trkpt lat="43.34891" lon="5.99217">
        <ele>481</ele>
        <time>2019-12-17T12:03:38.000Z</time>
      </trkpt>
      <trkpt lat="43.3489" lon="5.99218">
        <ele>481</ele>
        <time>2019-12-17T12:03:39.000Z</time>
      </trkpt>
      <trkpt lat="43.34889" lon="5.99218">
        <ele>481</ele>
        <time>2019-12-17T12:03:40.000Z</time>
      </trkpt>
      <trkpt lat="43.34888" lon="5.99219">
        <ele>481</ele>
        <time>2019-12-17T12:03:41.000Z</time>
      </trkpt>
      <trkpt lat="43.34886" lon="5.99219">
        <ele>481</ele>
        <time>2019-12-17T12:03:42.000Z</time>
      </trkpt>
      <trkpt lat="43.34885" lon="5.9922">
        <ele>481</ele>
        <time>2019-12-17T12:03:43.000Z</time>
      </trkpt>
      <trkpt lat="43.34884" lon="5.9922">
        <ele>481</ele>
        <time>2019-12-17T12:03:44.000Z</time>
      </trkpt>
      <trkpt lat="43.34883" lon="5.9922">
        <ele>481</ele>
        <time>2019-12-17T12:03:45.000Z</time>
      </trkpt>
      <trkpt lat="43.34882" lon="5.99221">
        <ele>481</ele>
        <time>2019-12-17T12:03:46.000Z</time>
      </trkpt>
      <trkpt lat="43.34881" lon="5.99221">
        <ele>481</ele>
        <time>2019-12-17T12:03:47.000Z</time>
      </trkpt>
      <trkpt lat="43.3488" lon="5.99221">
        <ele>481</ele>
        <time>2019-12-17T12:03:48.000Z</time>
      </trkpt>
      <trkpt lat="43.34879" lon="5.99221">
        <ele>481</ele>
        <time>2019-12-17T12:03:49.000Z</time>
      </trkpt>
      <trkpt lat="43.34878" lon="5.99222">
        <ele>481</ele>
        <time>2019-12-17T12:03:50.000Z</time>
      </trkpt>
      <trkpt lat="43.34877" lon="5.99222">
        <ele>481</ele>
        <time>2019-12-17T12:03:51.000Z</time>
      </trkpt>
      <trkpt lat="43.34876" lon="5.99222">
        <ele>481</ele>
        <time>2019-12-17T12:03:52.000Z</time>
      </trkpt>
      <trkpt lat="43.34875" lon="5.99222">
        <ele>481</ele>
        <time>2019-12-17T12:03:53.000Z</time>
      </trkpt>
      <trkpt lat="43.34874" lon="5.99223">
        <ele>480</ele>
        <time>2019-12-17T12:03:54.000Z</time>
      </trkpt>
      <trkpt lat="43.34874" lon="5.99223">
        <ele>480</ele>
        <time>2019-12-17T12:03:55.000Z</time>
      </trkpt>
      <trkpt lat="43.34873" lon="5.99223">
        <ele>480</ele>
        <time>2019-12-17T12:03:56.000Z</time>
      </trkpt>
      <trkpt lat="43.34872" lon="5.99223">
        <ele>480</ele>
        <time>2019-12-17T12:03:57.000Z</time>
      </trkpt>
      <trkpt lat="43.34871" lon="5.99223">
        <ele>480</ele>
        <time>2019-12-17T12:03:58.000Z</time>
      </trkpt>
      <trkpt lat="43.3487" lon="5.99224">
        <ele>480</ele>
        <time>2019-12-17T12:03:59.000Z</time>
      </trkpt>
      <trkpt lat="43.34869" lon="5.99224">
        <ele>480</ele>
        <time>2019-12-17T12:04:00.000Z</time>
      </trkpt>
      <trkpt lat="43.34868" lon="5.99224">
        <ele>479</ele>
        <time>2019-12-17T12:04:01.000Z</time>
      </trkpt>
      <trkpt lat="43.34867" lon="5.99225">
        <ele>479</ele>
        <time>2019-12-17T12:04:02.000Z</time>
      </trkpt>
      <trkpt lat="43.34866" lon="5.99225">
        <ele>479</ele>
        <time>2019-12-17T12:04:03.000Z</time>
      </trkpt>
      <trkpt lat="43.34865" lon="5.99225">
        <ele>479</ele>
        <time>2019-12-17T12:04:04.000Z</time>
      </trkpt>
      <trkpt lat="43.34864" lon="5.99225">
        <ele>479</ele>
        <time>2019-12-17T12:04:05.000Z</time>
      </trkpt>
      <trkpt lat="43.34863" lon="5.99225">
        <ele>478</ele>
        <time>2019-12-17T12:04:06.000Z</time>
      </trkpt>
      <trkpt lat="43.34863" lon="5.99226">
        <ele>478</ele>
        <time>2019-12-17T12:04:07.000Z</time>
      </trkpt>
      <trkpt lat="43.34862" lon="5.99226">
        <ele>478</ele>
        <time>2019-12-17T12:04:08.000Z</time>
      </trkpt>
      <trkpt lat="43.34861" lon="5.99226">
        <ele>478</ele>
        <time>2019-12-17T12:04:09.000Z</time>
      </trkpt>
      <trkpt lat="43.3486" lon="5.99227">
        <ele>478</ele>
        <time>2019-12-17T12:04:10.000Z</time>
      </trkpt>
      <trkpt lat="43.34859" lon="5.99227">
        <ele>478</ele>
        <time>2019-12-17T12:04:11.000Z</time>
      </trkpt>
      <trkpt lat="43.34858" lon="5.99227">
        <ele>477</ele>
        <time>2019-12-17T12:04:12.000Z</time>
      </trkpt>
      <trkpt lat="43.34857" lon="5.99228">
        <ele>477</ele>
        <time>2019-12-17T12:04:13.000Z</time>
      </trkpt>
      <trkpt lat="43.34855" lon="5.99228">
        <ele>477</ele>
        <time>2019-12-17T12:04:14.000Z</time>
      </trkpt>
      <trkpt lat="43.34854" lon="5.99229">
        <ele>477</ele>
        <time>2019-12-17T12:04:15.000Z</time>
      </trkpt>
      <trkpt lat="43.34853" lon="5.99229">
        <ele>477</ele>
        <time>2019-12-17T12:04:16.000Z</time>
      </trkpt>
      <trkpt lat="43.34852" lon="5.9923">
        <ele>477</ele>
        <time>2019-12-17T12:04:17.000Z</time>
      </trkpt>
      <trkpt lat="43.34851" lon="5.9923">
        <ele>476</ele>
        <time>2019-12-17T12:04:18.000Z</time>
      </trkpt>
      <trkpt lat="43.3485" lon="5.99231">
        <ele>476</ele>
        <time>2019-12-17T12:04:19.000Z</time>
      </trkpt>
      <trkpt lat="43.34849" lon="5.99231">
        <ele>476</ele>
        <time>2019-12-17T12:04:20.000Z</time>
      </trkpt>
      <trkpt lat="43.34848" lon="5.99232">
        <ele>476</ele>
        <time>2019-12-17T12:04:21.000Z</time>
      </trkpt>
      <trkpt lat="43.34847" lon="5.99232">
        <ele>476</ele>
        <time>2019-12-17T12:04:22.000Z</time>
      </trkpt>
      <trkpt lat="43.34846" lon="5.99233">
        <ele>476</ele>
        <time>2019-12-17T12:04:23.000Z</time>
      </trkpt>
      <trkpt lat="43.34846" lon="5.99233">
        <ele>476</ele>
        <time>2019-12-17T12:04:24.000Z</time>
      </trkpt>
      <trkpt lat="43.34845" lon="5.99233">
        <ele>476</ele>
        <time>2019-12-17T12:04:25.000Z</time>
      </trkpt>
      <trkpt lat="43.34844" lon="5.99234">
        <ele>476</ele>
        <time>2019-12-17T12:04:26.000Z</time>
      </trkpt>
      <trkpt lat="43.34843" lon="5.99234">
        <ele>476</ele>
        <time>2019-12-17T12:04:27.000Z</time>
      </trkpt>
      <trkpt lat="43.34843" lon="5.99234">
        <ele>476</ele>
        <time>2019-12-17T12:04:28.000Z</time>
      </trkpt>
      <trkpt lat="43.34842" lon="5.99235">
        <ele>476</ele>
        <time>2019-12-17T12:04:29.000Z</time>
      </trkpt>
      <trkpt lat="43.34841" lon="5.99235">
        <ele>476</ele>
        <time>2019-12-17T12:04:30.000Z</time>
      </trkpt>
      <trkpt lat="43.34841" lon="5.99236">
        <ele>476</ele>
        <time>2019-12-17T12:04:31.000Z</time>
      </trkpt>
      <trkpt lat="43.3484" lon="5.99237">
        <ele>476</ele>
        <time>2019-12-17T12:04:32.000Z</time>
      </trkpt>
      <trkpt lat="43.34839" lon="5.99237">
        <ele>476</ele>
        <time>2019-12-17T12:04:33.000Z</time>
      </trkpt>
      <trkpt lat="43.34838" lon="5.99238">
        <ele>476</ele>
        <time>2019-12-17T12:04:34.000Z</time>
      </trkpt>
      <trkpt lat="43.34837" lon="5.99239">
        <ele>476</ele>
        <time>2019-12-17T12:04:35.000Z</time>
      </trkpt>
      <trkpt lat="43.34836" lon="5.99239">
        <ele>476</ele>
        <time>2019-12-17T12:04:36.000Z</time>
      </trkpt>
      <trkpt lat="43.34835" lon="5.99239">
        <ele>476</ele>
        <time>2019-12-17T12:04:37.000Z</time>
      </trkpt>
      <trkpt lat="43.34835" lon="5.99239">
        <ele>476</ele>
        <time>2019-12-17T12:04:38.000Z</time>
      </trkpt>
      <trkpt lat="43.34834" lon="5.9924">
        <ele>476</ele>
        <time>2019-12-17T12:04:39.000Z</time>
      </trkpt>
      <trkpt lat="43.34833" lon="5.9924">
        <ele>476</ele>
        <time>2019-12-17T12:04:40.000Z</time>
      </trkpt>
      <trkpt lat="43.34832" lon="5.99241">
        <ele>476</ele>
        <time>2019-12-17T12:04:41.000Z</time>
      </trkpt>
      <trkpt lat="43.34831" lon="5.99241">
        <ele>476</ele>
        <time>2019-12-17T12:04:42.000Z</time>
      </trkpt>
      <trkpt lat="43.3483" lon="5.99242">
        <ele>476</ele>
        <time>2019-12-17T12:04:43.000Z</time>
      </trkpt>
      <trkpt lat="43.3483" lon="5.99243">
        <ele>476</ele>
        <time>2019-12-17T12:04:44.000Z</time>
      </trkpt>
      <trkpt lat="43.34829" lon="5.99243">
        <ele>476</ele>
        <time>2019-12-17T12:04:45.000Z</time>
      </trkpt>
      <trkpt lat="43.34828" lon="5.99244">
        <ele>476</ele>
        <time>2019-12-17T12:04:46.000Z</time>
      </trkpt>
      <trkpt lat="43.34827" lon="5.99244">
        <ele>476</ele>
        <time>2019-12-17T12:04:47.000Z</time>
      </trkpt>
      <trkpt lat="43.34826" lon="5.99244">
        <ele>476</ele>
        <time>2019-12-17T12:04:48.000Z</time>
      </trkpt>
      <trkpt lat="43.34825" lon="5.99245">
        <ele>476</ele>
        <time>2019-12-17T12:04:49.000Z</time>
      </trkpt>
      <trkpt lat="43.34824" lon="5.99245">
        <ele>476</ele>
        <time>2019-12-17T12:04:50.000Z</time>
      </trkpt>
      <trkpt lat="43.34824" lon="5.99246">
        <ele>476</ele>
        <time>2019-12-17T12:04:51.000Z</time>
      </trkpt>
      <trkpt lat="43.34823" lon="5.99246">
        <ele>476</ele>
        <time>2019-12-17T12:04:52.000Z</time>
      </trkpt>
      <trkpt lat="43.34822" lon="5.99246">
        <ele>476</ele>
        <time>2019-12-17T12:04:53.000Z</time>
      </trkpt>
      <trkpt lat="43.34821" lon="5.99246">
        <ele>476</ele>
        <time>2019-12-17T12:04:54.000Z</time>
      </trkpt>
      <trkpt lat="43.3482" lon="5.99247">
        <ele>476</ele>
        <time>2019-12-17T12:04:55.000Z</time>
      </trkpt>
      <trkpt lat="43.34819" lon="5.99248">
        <ele>476</ele>
        <time>2019-12-17T12:04:56.000Z</time>
      </trkpt>
      <trkpt lat="43.34818" lon="5.99248">
        <ele>476</ele>
        <time>2019-12-17T12:04:57.000Z</time>
      </trkpt>
      <trkpt lat="43.34817" lon="5.99249">
        <ele>476</ele>
        <time>2019-12-17T12:04:58.000Z</time>
      </trkpt>
      <trkpt lat="43.34816" lon="5.99249">
        <ele>476</ele>
        <time>2019-12-17T12:04:59.000Z</time>
      </trkpt>
      <trkpt lat="43.34815" lon="5.9925">
        <ele>476</ele>
        <time>2019-12-17T12:05:00.000Z</time>
      </trkpt>
      <trkpt lat="43.34814" lon="5.99251">
        <ele>476</ele>
        <time>2019-12-17T12:05:01.000Z</time>
      </trkpt>
      <trkpt lat="43.34813" lon="5.99252">
        <ele>477</ele>
        <time>2019-12-17T12:05:02.000Z</time>
      </trkpt>
      <trkpt lat="43.34811" lon="5.99252">
        <ele>477</ele>
        <time>2019-12-17T12:05:03.000Z</time>
      </trkpt>
      <trkpt lat="43.3481" lon="5.99253">
        <ele>477</ele>
        <time>2019-12-17T12:05:04.000Z</time>
      </trkpt>
      <trkpt lat="43.34809" lon="5.99254">
        <ele>477</ele>
        <time>2019-12-17T12:05:05.000Z</time>
      </trkpt>
      <trkpt lat="43.34808" lon="5.99255">
        <ele>477</ele>
        <time>2019-12-17T12:05:08.000Z</time>
      </trkpt>
      <trkpt lat="43.34808" lon="5.99255">
        <ele>478</ele>
        <time>2019-12-17T12:05:09.000Z</time>
      </trkpt>
      <trkpt lat="43.34804" lon="5.99258">
        <ele>478</ele>
        <time>2019-12-17T12:05:10.000Z</time>
      </trkpt>
      <trkpt lat="43.34803" lon="5.99259">
        <ele>478</ele>
        <time>2019-12-17T12:05:11.000Z</time>
      </trkpt>
      <trkpt lat="43.34802" lon="5.99259">
        <ele>478</ele>
        <time>2019-12-17T12:05:12.000Z</time>
      </trkpt>
      <trkpt lat="43.34801" lon="5.99259">
        <ele>478</ele>
        <time>2019-12-17T12:05:13.000Z</time>
      </trkpt>
      <trkpt lat="43.348" lon="5.9926">
        <ele>478</ele>
        <time>2019-12-17T12:05:14.000Z</time>
      </trkpt>
      <trkpt lat="43.34799" lon="5.9926">
        <ele>478</ele>
        <time>2019-12-17T12:05:15.000Z</time>
      </trkpt>
      <trkpt lat="43.34798" lon="5.99261">
        <ele>479</ele>
        <time>2019-12-17T12:05:16.000Z</time>
      </trkpt>
      <trkpt lat="43.34797" lon="5.99261">
        <ele>479</ele>
        <time>2019-12-17T12:05:17.000Z</time>
      </trkpt>
      <trkpt lat="43.34795" lon="5.99262">
        <ele>479</ele>
        <time>2019-12-17T12:05:18.000Z</time>
      </trkpt>
      <trkpt lat="43.34794" lon="5.99263">
        <ele>479</ele>
        <time>2019-12-17T12:05:19.000Z</time>
      </trkpt>
      <trkpt lat="43.34793" lon="5.99264">
        <ele>479</ele>
        <time>2019-12-17T12:05:20.000Z</time>
      </trkpt>
      <trkpt lat="43.34792" lon="5.99265">
        <ele>479</ele>
        <time>2019-12-17T12:05:21.000Z</time>
      </trkpt>
      <trkpt lat="43.34791" lon="5.99266">
        <ele>479</ele>
        <time>2019-12-17T12:05:22.000Z</time>
      </trkpt>
      <trkpt lat="43.3479" lon="5.99266">
        <ele>479</ele>
        <time>2019-12-17T12:05:23.000Z</time>
      </trkpt>
      <trkpt lat="43.34789" lon="5.99267">
        <ele>479</ele>
        <time>2019-12-17T12:05:24.000Z</time>
      </trkpt>
      <trkpt lat="43.34788" lon="5.99268">
        <ele>479</ele>
        <time>2019-12-17T12:05:25.000Z</time>
      </trkpt>
      <trkpt lat="43.34787" lon="5.99269">
        <ele>479</ele>
        <time>2019-12-17T12:05:26.000Z</time>
      </trkpt>
      <trkpt lat="43.34786" lon="5.99269">
        <ele>480</ele>
        <time>2019-12-17T12:05:27.000Z</time>
      </trkpt>
      <trkpt lat="43.34785" lon="5.9927">
        <ele>480</ele>
        <time>2019-12-17T12:05:28.000Z</time>
      </trkpt>
      <trkpt lat="43.34784" lon="5.99271">
        <ele>480</ele>
        <time>2019-12-17T12:05:29.000Z</time>
      </trkpt>
      <trkpt lat="43.34783" lon="5.99271">
        <ele>480</ele>
        <time>2019-12-17T12:05:30.000Z</time>
      </trkpt>
      <trkpt lat="43.34782" lon="5.99272">
        <ele>480</ele>
        <time>2019-12-17T12:05:31.000Z</time>
      </trkpt>
      <trkpt lat="43.34781" lon="5.99273">
        <ele>480</ele>
        <time>2019-12-17T12:05:32.000Z</time>
      </trkpt>
      <trkpt lat="43.3478" lon="5.99274">
        <ele>480</ele>
        <time>2019-12-17T12:05:33.000Z</time>
      </trkpt>
      <trkpt lat="43.34779" lon="5.99274">
        <ele>480</ele>
        <time>2019-12-17T12:05:34.000Z</time>
      </trkpt>
      <trkpt lat="43.34778" lon="5.99275">
        <ele>480</ele>
        <time>2019-12-17T12:05:35.000Z</time>
      </trkpt>
      <trkpt lat="43.34777" lon="5.99275">
        <ele>480</ele>
        <time>2019-12-17T12:05:36.000Z</time>
      </trkpt>
      <trkpt lat="43.34776" lon="5.99276">
        <ele>480</ele>
        <time>2019-12-17T12:05:37.000Z</time>
      </trkpt>
      <trkpt lat="43.34775" lon="5.99277">
        <ele>480</ele>
        <time>2019-12-17T12:05:38.000Z</time>
      </trkpt>
      <trkpt lat="43.34775" lon="5.99277">
        <ele>480</ele>
        <time>2019-12-17T12:05:39.000Z</time>
      </trkpt>
      <trkpt lat="43.34773" lon="5.99278">
        <ele>480</ele>
        <time>2019-12-17T12:05:40.000Z</time>
      </trkpt>
      <trkpt lat="43.34773" lon="5.99279">
        <ele>480</ele>
        <time>2019-12-17T12:05:41.000Z</time>
      </trkpt>
      <trkpt lat="43.34771" lon="5.9928">
        <ele>479</ele>
        <time>2019-12-17T12:05:42.000Z</time>
      </trkpt>
      <trkpt lat="43.34771" lon="5.99281">
        <ele>479</ele>
        <time>2019-12-17T12:05:43.000Z</time>
      </trkpt>
      <trkpt lat="43.3477" lon="5.99282">
        <ele>478</ele>
        <time>2019-12-17T12:05:44.000Z</time>
      </trkpt>
      <trkpt lat="43.34769" lon="5.99283">
        <ele>478</ele>
        <time>2019-12-17T12:05:45.000Z</time>
      </trkpt>
      <trkpt lat="43.34768" lon="5.99284">
        <ele>477</ele>
        <time>2019-12-17T12:05:46.000Z</time>
      </trkpt>
      <trkpt lat="43.34767" lon="5.99285">
        <ele>477</ele>
        <time>2019-12-17T12:05:47.000Z</time>
      </trkpt>
      <trkpt lat="43.34766" lon="5.99286">
        <ele>476</ele>
        <time>2019-12-17T12:05:48.000Z</time>
      </trkpt>
      <trkpt lat="43.34765" lon="5.99287">
        <ele>476</ele>
        <time>2019-12-17T12:05:49.000Z</time>
      </trkpt>
      <trkpt lat="43.34764" lon="5.99288">
        <ele>475</ele>
        <time>2019-12-17T12:05:50.000Z</time>
      </trkpt>
      <trkpt lat="43.34763" lon="5.99289">
        <ele>475</ele>
        <time>2019-12-17T12:05:51.000Z</time>
      </trkpt>
      <trkpt lat="43.34762" lon="5.99291">
        <ele>474</ele>
        <time>2019-12-17T12:05:52.000Z</time>
      </trkpt>
      <trkpt lat="43.3476" lon="5.99292">
        <ele>474</ele>
        <time>2019-12-17T12:05:53.000Z</time>
      </trkpt>
      <trkpt lat="43.34759" lon="5.99293">
        <ele>473</ele>
        <time>2019-12-17T12:05:54.000Z</time>
      </trkpt>
      <trkpt lat="43.34758" lon="5.99294">
        <ele>473</ele>
        <time>2019-12-17T12:05:55.000Z</time>
      </trkpt>
      <trkpt lat="43.34757" lon="5.99295">
        <ele>472</ele>
        <time>2019-12-17T12:05:56.000Z</time>
      </trkpt>
      <trkpt lat="43.34756" lon="5.99296">
        <ele>472</ele>
        <time>2019-12-17T12:05:57.000Z</time>
      </trkpt>
      <trkpt lat="43.34755" lon="5.99297">
        <ele>471</ele>
        <time>2019-12-17T12:05:58.000Z</time>
      </trkpt>
      <trkpt lat="43.34754" lon="5.99298">
        <ele>471</ele>
        <time>2019-12-17T12:05:59.000Z</time>
      </trkpt>
      <trkpt lat="43.34753" lon="5.99299">
        <ele>470</ele>
        <time>2019-12-17T12:06:00.000Z</time>
      </trkpt>
      <trkpt lat="43.34752" lon="5.993">
        <ele>470</ele>
        <time>2019-12-17T12:06:01.000Z</time>
      </trkpt>
      <trkpt lat="43.34751" lon="5.99301">
        <ele>470</ele>
        <time>2019-12-17T12:06:02.000Z</time>
      </trkpt>
      <trkpt lat="43.34749" lon="5.99302">
        <ele>470</ele>
        <time>2019-12-17T12:06:03.000Z</time>
      </trkpt>
      <trkpt lat="43.34748" lon="5.99304">
        <ele>469</ele>
        <time>2019-12-17T12:06:04.000Z</time>
      </trkpt>
      <trkpt lat="43.34747" lon="5.99305">
        <ele>469</ele>
        <time>2019-12-17T12:06:05.000Z</time>
      </trkpt>
      <trkpt lat="43.34746" lon="5.99306">
        <ele>469</ele>
        <time>2019-12-17T12:06:06.000Z</time>
      </trkpt>
      <trkpt lat="43.34745" lon="5.99307">
        <ele>469</ele>
        <time>2019-12-17T12:06:07.000Z</time>
      </trkpt>
      <trkpt lat="43.34744" lon="5.99309">
        <ele>468</ele>
        <time>2019-12-17T12:06:08.000Z</time>
      </trkpt>
      <trkpt lat="43.34743" lon="5.9931">
        <ele>468</ele>
        <time>2019-12-17T12:06:09.000Z</time>
      </trkpt>
      <trkpt lat="43.34743" lon="5.99311">
        <ele>468</ele>
        <time>2019-12-17T12:06:10.000Z</time>
      </trkpt>
      <trkpt lat="43.34742" lon="5.99312">
        <ele>468</ele>
        <time>2019-12-17T12:06:11.000Z</time>
      </trkpt>
      <trkpt lat="43.34741" lon="5.99313">
        <ele>468</ele>
        <time>2019-12-17T12:06:12.000Z</time>
      </trkpt>
      <trkpt lat="43.3474" lon="5.99314">
        <ele>467</ele>
        <time>2019-12-17T12:06:13.000Z</time>
      </trkpt>
      <trkpt lat="43.3474" lon="5.99315">
        <ele>467</ele>
        <time>2019-12-17T12:06:14.000Z</time>
      </trkpt>
      <trkpt lat="43.34739" lon="5.99317">
        <ele>467</ele>
        <time>2019-12-17T12:06:15.000Z</time>
      </trkpt>
      <trkpt lat="43.34738" lon="5.99318">
        <ele>467</ele>
        <time>2019-12-17T12:06:16.000Z</time>
      </trkpt>
      <trkpt lat="43.34738" lon="5.99319">
        <ele>466</ele>
        <time>2019-12-17T12:06:17.000Z</time>
      </trkpt>
      <trkpt lat="43.34737" lon="5.99321">
        <ele>466</ele>
        <time>2019-12-17T12:06:18.000Z</time>
      </trkpt>
      <trkpt lat="43.34736" lon="5.99322">
        <ele>466</ele>
        <time>2019-12-17T12:06:19.000Z</time>
      </trkpt>
      <trkpt lat="43.34736" lon="5.99324">
        <ele>465</ele>
        <time>2019-12-17T12:06:20.000Z</time>
      </trkpt>
      <trkpt lat="43.34735" lon="5.99325">
        <ele>465</ele>
        <time>2019-12-17T12:06:21.000Z</time>
      </trkpt>
      <trkpt lat="43.34735" lon="5.99327">
        <ele>465</ele>
        <time>2019-12-17T12:06:22.000Z</time>
      </trkpt>
      <trkpt lat="43.34734" lon="5.99328">
        <ele>465</ele>
        <time>2019-12-17T12:06:23.000Z</time>
      </trkpt>
      <trkpt lat="43.34734" lon="5.99329">
        <ele>464</ele>
        <time>2019-12-17T12:06:24.000Z</time>
      </trkpt>
      <trkpt lat="43.34733" lon="5.9933">
        <ele>464</ele>
        <time>2019-12-17T12:06:25.000Z</time>
      </trkpt>
      <trkpt lat="43.34732" lon="5.99331">
        <ele>464</ele>
        <time>2019-12-17T12:06:26.000Z</time>
      </trkpt>
      <trkpt lat="43.34731" lon="5.99332">
        <ele>464</ele>
        <time>2019-12-17T12:06:27.000Z</time>
      </trkpt>
      <trkpt lat="43.3473" lon="5.99332">
        <ele>464</ele>
        <time>2019-12-17T12:06:28.000Z</time>
      </trkpt>
      <trkpt lat="43.34729" lon="5.99333">
        <ele>464</ele>
        <time>2019-12-17T12:06:29.000Z</time>
      </trkpt>
      <trkpt lat="43.34728" lon="5.99334">
        <ele>463</ele>
        <time>2019-12-17T12:06:30.000Z</time>
      </trkpt>
      <trkpt lat="43.34727" lon="5.99336">
        <ele>463</ele>
        <time>2019-12-17T12:06:31.000Z</time>
      </trkpt>
      <trkpt lat="43.34727" lon="5.99337">
        <ele>463</ele>
        <time>2019-12-17T12:06:32.000Z</time>
      </trkpt>
      <trkpt lat="43.34726" lon="5.99338">
        <ele>463</ele>
        <time>2019-12-17T12:06:33.000Z</time>
      </trkpt>
      <trkpt lat="43.34726" lon="5.9934">
        <ele>463</ele>
        <time>2019-12-17T12:06:34.000Z</time>
      </trkpt>
      <trkpt lat="43.34726" lon="5.99341">
        <ele>462</ele>
        <time>2019-12-17T12:06:35.000Z</time>
      </trkpt>
      <trkpt lat="43.34726" lon="5.99342">
        <ele>462</ele>
        <time>2019-12-17T12:06:36.000Z</time>
      </trkpt>
      <trkpt lat="43.34726" lon="5.99343">
        <ele>462</ele>
        <time>2019-12-17T12:06:37.000Z</time>
      </trkpt>
      <trkpt lat="43.34726" lon="5.99344">
        <ele>462</ele>
        <time>2019-12-17T12:06:38.000Z</time>
      </trkpt>
      <trkpt lat="43.34726" lon="5.99345">
        <ele>462</ele>
        <time>2019-12-17T12:06:39.000Z</time>
      </trkpt>
      <trkpt lat="43.34726" lon="5.99346">
        <ele>462</ele>
        <time>2019-12-17T12:06:40.000Z</time>
      </trkpt>
      <trkpt lat="43.34726" lon="5.99346">
        <ele>461</ele>
        <time>2019-12-17T12:06:41.000Z</time>
      </trkpt>
      <trkpt lat="43.34726" lon="5.99346">
        <ele>461</ele>
        <time>2019-12-17T12:06:42.000Z</time>
      </trkpt>
      <trkpt lat="43.34726" lon="5.99347">
        <ele>461</ele>
        <time>2019-12-17T12:06:43.000Z</time>
      </trkpt>
      <trkpt lat="43.34726" lon="5.99347">
        <ele>461</ele>
        <time>2019-12-17T12:06:44.000Z</time>
      </trkpt>
      <trkpt lat="43.34726" lon="5.99347">
        <ele>461</ele>
        <time>2019-12-17T12:06:45.000Z</time>
      </trkpt>
      <trkpt lat="43.34726" lon="5.99347">
        <ele>461</ele>
        <time>2019-12-17T12:06:46.000Z</time>
      </trkpt>
      <trkpt lat="43.34726" lon="5.99347">
        <ele>461</ele>
        <time>2019-12-17T12:06:47.000Z</time>
      </trkpt>
      <trkpt lat="43.34727" lon="5.99348">
        <ele>460</ele>
        <time>2019-12-17T12:06:48.000Z</time>
      </trkpt>
      <trkpt lat="43.34728" lon="5.99349">
        <ele>460</ele>
        <time>2019-12-17T12:06:49.000Z</time>
      </trkpt>
      <trkpt lat="43.34729" lon="5.99351">
        <ele>460</ele>
        <time>2019-12-17T12:06:50.000Z</time>
      </trkpt>
      <trkpt lat="43.34729" lon="5.99352">
        <ele>460</ele>
        <time>2019-12-17T12:06:51.000Z</time>
      </trkpt>
      <trkpt lat="43.3473" lon="5.99354">
        <ele>460</ele>
        <time>2019-12-17T12:06:52.000Z</time>
      </trkpt>
      <trkpt lat="43.34731" lon="5.99355">
        <ele>460</ele>
        <time>2019-12-17T12:06:53.000Z</time>
      </trkpt>
      <trkpt lat="43.34732" lon="5.99356">
        <ele>460</ele>
        <time>2019-12-17T12:06:54.000Z</time>
      </trkpt>
      <trkpt lat="43.34733" lon="5.99357">
        <ele>459</ele>
        <time>2019-12-17T12:06:55.000Z</time>
      </trkpt>
      <trkpt lat="43.34734" lon="5.99358">
        <ele>459</ele>
        <time>2019-12-17T12:06:56.000Z</time>
      </trkpt>
      <trkpt lat="43.34735" lon="5.99359">
        <ele>459</ele>
        <time>2019-12-17T12:06:57.000Z</time>
      </trkpt>
      <trkpt lat="43.34737" lon="5.99359">
        <ele>459</ele>
        <time>2019-12-17T12:06:58.000Z</time>
      </trkpt>
      <trkpt lat="43.34738" lon="5.9936">
        <ele>459</ele>
        <time>2019-12-17T12:06:59.000Z</time>
      </trkpt>
      <trkpt lat="43.34738" lon="5.99361">
        <ele>459</ele>
        <time>2019-12-17T12:07:00.000Z</time>
      </trkpt>
      <trkpt lat="43.34739" lon="5.99362">
        <ele>459</ele>
        <time>2019-12-17T12:07:01.000Z</time>
      </trkpt>
      <trkpt lat="43.3474" lon="5.99364">
        <ele>458</ele>
        <time>2019-12-17T12:07:02.000Z</time>
      </trkpt>
      <trkpt lat="43.3474" lon="5.99365">
        <ele>458</ele>
        <time>2019-12-17T12:07:03.000Z</time>
      </trkpt>
      <trkpt lat="43.34741" lon="5.99366">
        <ele>458</ele>
        <time>2019-12-17T12:07:04.000Z</time>
      </trkpt>
      <trkpt lat="43.34742" lon="5.99368">
        <ele>458</ele>
        <time>2019-12-17T12:07:05.000Z</time>
      </trkpt>
      <trkpt lat="43.34742" lon="5.99369">
        <ele>458</ele>
        <time>2019-12-17T12:07:06.000Z</time>
      </trkpt>
      <trkpt lat="43.34742" lon="5.9937">
        <ele>458</ele>
        <time>2019-12-17T12:07:07.000Z</time>
      </trkpt>
      <trkpt lat="43.34743" lon="5.99372">
        <ele>458</ele>
        <time>2019-12-17T12:07:08.000Z</time>
      </trkpt>
      <trkpt lat="43.34743" lon="5.99373">
        <ele>458</ele>
        <time>2019-12-17T12:07:09.000Z</time>
      </trkpt>
      <trkpt lat="43.34743" lon="5.99375">
        <ele>457</ele>
        <time>2019-12-17T12:07:10.000Z</time>
      </trkpt>
      <trkpt lat="43.34744" lon="5.99376">
        <ele>457</ele>
        <time>2019-12-17T12:07:11.000Z</time>
      </trkpt>
      <trkpt lat="43.34744" lon="5.99377">
        <ele>457</ele>
        <time>2019-12-17T12:07:12.000Z</time>
      </trkpt>
      <trkpt lat="43.34744" lon="5.99379">
        <ele>457</ele>
        <time>2019-12-17T12:07:13.000Z</time>
      </trkpt>
      <trkpt lat="43.34744" lon="5.99381">
        <ele>457</ele>
        <time>2019-12-17T12:07:14.000Z</time>
      </trkpt>
      <trkpt lat="43.34744" lon="5.99382">
        <ele>457</ele>
        <time>2019-12-17T12:07:15.000Z</time>
      </trkpt>
      <trkpt lat="43.34744" lon="5.99384">
        <ele>457</ele>
        <time>2019-12-17T12:07:16.000Z</time>
      </trkpt>
      <trkpt lat="43.34744" lon="5.99385">
        <ele>456</ele>
        <time>2019-12-17T12:07:17.000Z</time>
      </trkpt>
      <trkpt lat="43.34744" lon="5.99386">
        <ele>456</ele>
        <time>2019-12-17T12:07:18.000Z</time>
      </trkpt>
      <trkpt lat="43.34745" lon="5.99388">
        <ele>456</ele>
        <time>2019-12-17T12:07:19.000Z</time>
      </trkpt>
      <trkpt lat="43.34745" lon="5.99389">
        <ele>456</ele>
        <time>2019-12-17T12:07:20.000Z</time>
      </trkpt>
      <trkpt lat="43.34745" lon="5.99391">
        <ele>456</ele>
        <time>2019-12-17T12:07:21.000Z</time>
      </trkpt>
      <trkpt lat="43.34746" lon="5.99392">
        <ele>456</ele>
        <time>2019-12-17T12:07:22.000Z</time>
      </trkpt>
      <trkpt lat="43.34746" lon="5.99394">
        <ele>455</ele>
        <time>2019-12-17T12:07:23.000Z</time>
      </trkpt>
      <trkpt lat="43.34746" lon="5.99395">
        <ele>455</ele>
        <time>2019-12-17T12:07:24.000Z</time>
      </trkpt>
      <trkpt lat="43.34747" lon="5.99396">
        <ele>455</ele>
        <time>2019-12-17T12:07:25.000Z</time>
      </trkpt>
      <trkpt lat="43.34747" lon="5.99398">
        <ele>455</ele>
        <time>2019-12-17T12:07:26.000Z</time>
      </trkpt>
      <trkpt lat="43.34747" lon="5.994">
        <ele>455</ele>
        <time>2019-12-17T12:07:27.000Z</time>
      </trkpt>
      <trkpt lat="43.34747" lon="5.99401">
        <ele>455</ele>
        <time>2019-12-17T12:07:28.000Z</time>
      </trkpt>
      <trkpt lat="43.34748" lon="5.99403">
        <ele>455</ele>
        <time>2019-12-17T12:07:29.000Z</time>
      </trkpt>
      <trkpt lat="43.34749" lon="5.99404">
        <ele>455</ele>
        <time>2019-12-17T12:07:30.000Z</time>
      </trkpt>
      <trkpt lat="43.34749" lon="5.99405">
        <ele>455</ele>
        <time>2019-12-17T12:07:31.000Z</time>
      </trkpt>
      <trkpt lat="43.3475" lon="5.99407">
        <ele>455</ele>
        <time>2019-12-17T12:07:32.000Z</time>
      </trkpt>
      <trkpt lat="43.3475" lon="5.99408">
        <ele>455</ele>
        <time>2019-12-17T12:07:33.000Z</time>
      </trkpt>
      <trkpt lat="43.34751" lon="5.99409">
        <ele>455</ele>
        <time>2019-12-17T12:07:34.000Z</time>
      </trkpt>
      <trkpt lat="43.34752" lon="5.99411">
        <ele>455</ele>
        <time>2019-12-17T12:07:35.000Z</time>
      </trkpt>
      <trkpt lat="43.34753" lon="5.99412">
        <ele>455</ele>
        <time>2019-12-17T12:07:36.000Z</time>
      </trkpt>
      <trkpt lat="43.34754" lon="5.99414">
        <ele>455</ele>
        <time>2019-12-17T12:07:37.000Z</time>
      </trkpt>
      <trkpt lat="43.34754" lon="5.99415">
        <ele>455</ele>
        <time>2019-12-17T12:07:38.000Z</time>
      </trkpt>
      <trkpt lat="43.34755" lon="5.99416">
        <ele>455</ele>
        <time>2019-12-17T12:07:39.000Z</time>
      </trkpt>
      <trkpt lat="43.34756" lon="5.99417">
        <ele>455</ele>
        <time>2019-12-17T12:07:40.000Z</time>
      </trkpt>
      <trkpt lat="43.34757" lon="5.99418">
        <ele>455</ele>
        <time>2019-12-17T12:07:41.000Z</time>
      </trkpt>
      <trkpt lat="43.34757" lon="5.99419">
        <ele>454</ele>
        <time>2019-12-17T12:07:42.000Z</time>
      </trkpt>
      <trkpt lat="43.34758" lon="5.9942">
        <ele>454</ele>
        <time>2019-12-17T12:07:43.000Z</time>
      </trkpt>
      <trkpt lat="43.34759" lon="5.99421">
        <ele>454</ele>
        <time>2019-12-17T12:07:44.000Z</time>
      </trkpt>
      <trkpt lat="43.34759" lon="5.99422">
        <ele>454</ele>
        <time>2019-12-17T12:07:45.000Z</time>
      </trkpt>
      <trkpt lat="43.3476" lon="5.99423">
        <ele>454</ele>
        <time>2019-12-17T12:07:46.000Z</time>
      </trkpt>
      <trkpt lat="43.34761" lon="5.99424">
        <ele>454</ele>
        <time>2019-12-17T12:07:47.000Z</time>
      </trkpt>
      <trkpt lat="43.34762" lon="5.99425">
        <ele>454</ele>
        <time>2019-12-17T12:07:48.000Z</time>
      </trkpt>
      <trkpt lat="43.34762" lon="5.99426">
        <ele>454</ele>
        <time>2019-12-17T12:07:49.000Z</time>
      </trkpt>
      <trkpt lat="43.34763" lon="5.99427">
        <ele>453</ele>
        <time>2019-12-17T12:07:50.000Z</time>
      </trkpt>
      <trkpt lat="43.34764" lon="5.99428">
        <ele>453</ele>
        <time>2019-12-17T12:07:51.000Z</time>
      </trkpt>
      <trkpt lat="43.34765" lon="5.99429">
        <ele>453</ele>
        <time>2019-12-17T12:07:52.000Z</time>
      </trkpt>
      <trkpt lat="43.34766" lon="5.9943">
        <ele>453</ele>
        <time>2019-12-17T12:07:53.000Z</time>
      </trkpt>
      <trkpt lat="43.34767" lon="5.99431">
        <ele>453</ele>
        <time>2019-12-17T12:07:54.000Z</time>
      </trkpt>
      <trkpt lat="43.34768" lon="5.99431">
        <ele>453</ele>
        <time>2019-12-17T12:07:55.000Z</time>
      </trkpt>
      <trkpt lat="43.34769" lon="5.99432">
        <ele>453</ele>
        <time>2019-12-17T12:07:56.000Z</time>
      </trkpt>
      <trkpt lat="43.3477" lon="5.99432">
        <ele>453</ele>
        <time>2019-12-17T12:07:57.000Z</time>
      </trkpt>
      <trkpt lat="43.34771" lon="5.99432">
        <ele>453</ele>
        <time>2019-12-17T12:07:58.000Z</time>
      </trkpt>
      <trkpt lat="43.34773" lon="5.99432">
        <ele>453</ele>
        <time>2019-12-17T12:07:59.000Z</time>
      </trkpt>
      <trkpt lat="43.34774" lon="5.99433">
        <ele>454</ele>
        <time>2019-12-17T12:08:00.000Z</time>
      </trkpt>
      <trkpt lat="43.34776" lon="5.99433">
        <ele>454</ele>
        <time>2019-12-17T12:08:01.000Z</time>
      </trkpt>
      <trkpt lat="43.34777" lon="5.99434">
        <ele>454</ele>
        <time>2019-12-17T12:08:02.000Z</time>
      </trkpt>
      <trkpt lat="43.34778" lon="5.99434">
        <ele>454</ele>
        <time>2019-12-17T12:08:03.000Z</time>
      </trkpt>
      <trkpt lat="43.3478" lon="5.99435">
        <ele>454</ele>
        <time>2019-12-17T12:08:04.000Z</time>
      </trkpt>
      <trkpt lat="43.34781" lon="5.99435">
        <ele>454</ele>
        <time>2019-12-17T12:08:05.000Z</time>
      </trkpt>
      <trkpt lat="43.34782" lon="5.99436">
        <ele>454</ele>
        <time>2019-12-17T12:08:06.000Z</time>
      </trkpt>
      <trkpt lat="43.34783" lon="5.99436">
        <ele>454</ele>
        <time>2019-12-17T12:08:07.000Z</time>
      </trkpt>
      <trkpt lat="43.34784" lon="5.99436">
        <ele>455</ele>
        <time>2019-12-17T12:08:08.000Z</time>
      </trkpt>
      <trkpt lat="43.34785" lon="5.99436">
        <ele>455</ele>
        <time>2019-12-17T12:08:09.000Z</time>
      </trkpt>
      <trkpt lat="43.34785" lon="5.99437">
        <ele>455</ele>
        <time>2019-12-17T12:08:10.000Z</time>
      </trkpt>
      <trkpt lat="43.34785" lon="5.99438">
        <ele>455</ele>
        <time>2019-12-17T12:08:11.000Z</time>
      </trkpt>
      <trkpt lat="43.34784" lon="5.99438">
        <ele>455</ele>
        <time>2019-12-17T12:08:12.000Z</time>
      </trkpt>
      <trkpt lat="43.34783" lon="5.99438">
        <ele>455</ele>
        <time>2019-12-17T12:08:13.000Z</time>
      </trkpt>
      <trkpt lat="43.34782" lon="5.99438">
        <ele>456</ele>
        <time>2019-12-17T12:08:14.000Z</time>
      </trkpt>
      <trkpt lat="43.34781" lon="5.99439">
        <ele>456</ele>
        <time>2019-12-17T12:08:15.000Z</time>
      </trkpt>
      <trkpt lat="43.3478" lon="5.99439">
        <ele>456</ele>
        <time>2019-12-17T12:08:16.000Z</time>
      </trkpt>
      <trkpt lat="43.34779" lon="5.99438">
        <ele>456</ele>
        <time>2019-12-17T12:08:17.000Z</time>
      </trkpt>
      <trkpt lat="43.34778" lon="5.99438">
        <ele>456</ele>
        <time>2019-12-17T12:08:18.000Z</time>
      </trkpt>
      <trkpt lat="43.34777" lon="5.99438">
        <ele>456</ele>
        <time>2019-12-17T12:08:19.000Z</time>
      </trkpt>
      <trkpt lat="43.34776" lon="5.99438">
        <ele>457</ele>
        <time>2019-12-17T12:08:20.000Z</time>
      </trkpt>
      <trkpt lat="43.34775" lon="5.99438">
        <ele>457</ele>
        <time>2019-12-17T12:08:21.000Z</time>
      </trkpt>
      <trkpt lat="43.34773" lon="5.99437">
        <ele>457</ele>
        <time>2019-12-17T12:08:22.000Z</time>
      </trkpt>
      <trkpt lat="43.34772" lon="5.99438">
        <ele>457</ele>
        <time>2019-12-17T12:08:23.000Z</time>
      </trkpt>
      <trkpt lat="43.34771" lon="5.99438">
        <ele>457</ele>
        <time>2019-12-17T12:08:24.000Z</time>
      </trkpt>
      <trkpt lat="43.34769" lon="5.99438">
        <ele>457</ele>
        <time>2019-12-17T12:08:25.000Z</time>
      </trkpt>
      <trkpt lat="43.34768" lon="5.99438">
        <ele>457</ele>
        <time>2019-12-17T12:08:26.000Z</time>
      </trkpt>
      <trkpt lat="43.34767" lon="5.99438">
        <ele>457</ele>
        <time>2019-12-17T12:08:27.000Z</time>
      </trkpt>
      <trkpt lat="43.34766" lon="5.99437">
        <ele>457</ele>
        <time>2019-12-17T12:08:28.000Z</time>
      </trkpt>
      <trkpt lat="43.34764" lon="5.99437">
        <ele>457</ele>
        <time>2019-12-17T12:08:29.000Z</time>
      </trkpt>
      <trkpt lat="43.34763" lon="5.99437">
        <ele>458</ele>
        <time>2019-12-17T12:08:30.000Z</time>
      </trkpt>
      <trkpt lat="43.34763" lon="5.99437">
        <ele>458</ele>
        <time>2019-12-17T12:08:31.000Z</time>
      </trkpt>
      <trkpt lat="43.34761" lon="5.99437">
        <ele>458</ele>
        <time>2019-12-17T12:08:35.000Z</time>
      </trkpt>
      <trkpt lat="43.34761" lon="5.99437">
        <ele>458</ele>
        <time>2019-12-17T12:08:36.000Z</time>
      </trkpt>
      <trkpt lat="43.34756" lon="5.99436">
        <ele>458</ele>
        <time>2019-12-17T12:08:37.000Z</time>
      </trkpt>
      <trkpt lat="43.34755" lon="5.99436">
        <ele>458</ele>
        <time>2019-12-17T12:08:38.000Z</time>
      </trkpt>
      <trkpt lat="43.34753" lon="5.99436">
        <ele>458</ele>
        <time>2019-12-17T12:08:39.000Z</time>
      </trkpt>
      <trkpt lat="43.34752" lon="5.99436">
        <ele>458</ele>
        <time>2019-12-17T12:08:40.000Z</time>
      </trkpt>
      <trkpt lat="43.3475" lon="5.99436">
        <ele>456</ele>
        <time>2019-12-17T12:08:48.000Z</time>
      </trkpt>
      <trkpt lat="43.3475" lon="5.99436">
        <ele>456</ele>
        <time>2019-12-17T12:08:49.000Z</time>
      </trkpt>
      <trkpt lat="43.34738" lon="5.99434">
        <ele>455</ele>
        <time>2019-12-17T12:08:50.000Z</time>
      </trkpt>
      <trkpt lat="43.34737" lon="5.99433">
        <ele>454</ele>
        <time>2019-12-17T12:08:51.000Z</time>
      </trkpt>
      <trkpt lat="43.34736" lon="5.99433">
        <ele>453</ele>
        <time>2019-12-17T12:08:52.000Z</time>
      </trkpt>
      <trkpt lat="43.34735" lon="5.99432">
        <ele>452</ele>
        <time>2019-12-17T12:08:53.000Z</time>
      </trkpt>
      <trkpt lat="43.34734" lon="5.99432">
        <ele>452</ele>
        <time>2019-12-17T12:08:54.000Z</time>
      </trkpt>
      <trkpt lat="43.34733" lon="5.99431">
        <ele>451</ele>
        <time>2019-12-17T12:08:55.000Z</time>
      </trkpt>
      <trkpt lat="43.34731" lon="5.9943">
        <ele>450</ele>
        <time>2019-12-17T12:08:56.000Z</time>
      </trkpt>
      <trkpt lat="43.3473" lon="5.99429">
        <ele>449</ele>
        <time>2019-12-17T12:08:57.000Z</time>
      </trkpt>
      <trkpt lat="43.34729" lon="5.99428">
        <ele>448</ele>
        <time>2019-12-17T12:08:58.000Z</time>
      </trkpt>
      <trkpt lat="43.34728" lon="5.99427">
        <ele>448</ele>
        <time>2019-12-17T12:08:59.000Z</time>
      </trkpt>
      <trkpt lat="43.34726" lon="5.99427">
        <ele>447</ele>
        <time>2019-12-17T12:09:00.000Z</time>
      </trkpt>
      <trkpt lat="43.34725" lon="5.99426">
        <ele>447</ele>
        <time>2019-12-17T12:09:01.000Z</time>
      </trkpt>
      <trkpt lat="43.34724" lon="5.99425">
        <ele>446</ele>
        <time>2019-12-17T12:09:02.000Z</time>
      </trkpt>
      <trkpt lat="43.34723" lon="5.99424">
        <ele>445</ele>
        <time>2019-12-17T12:09:03.000Z</time>
      </trkpt>
      <trkpt lat="43.34722" lon="5.99423">
        <ele>445</ele>
        <time>2019-12-17T12:09:04.000Z</time>
      </trkpt>
      <trkpt lat="43.34721" lon="5.99422">
        <ele>444</ele>
        <time>2019-12-17T12:09:05.000Z</time>
      </trkpt>
      <trkpt lat="43.3472" lon="5.99421">
        <ele>444</ele>
        <time>2019-12-17T12:09:06.000Z</time>
      </trkpt>
      <trkpt lat="43.34719" lon="5.99421">
        <ele>444</ele>
        <time>2019-12-17T12:09:07.000Z</time>
      </trkpt>
      <trkpt lat="43.34717" lon="5.9942">
        <ele>443</ele>
        <time>2019-12-17T12:09:08.000Z</time>
      </trkpt>
      <trkpt lat="43.34716" lon="5.99419">
        <ele>443</ele>
        <time>2019-12-17T12:09:09.000Z</time>
      </trkpt>
      <trkpt lat="43.34715" lon="5.99419">
        <ele>443</ele>
        <time>2019-12-17T12:09:10.000Z</time>
      </trkpt>
      <trkpt lat="43.34714" lon="5.99418">
        <ele>443</ele>
        <time>2019-12-17T12:09:11.000Z</time>
      </trkpt>
      <trkpt lat="43.34713" lon="5.99417">
        <ele>443</ele>
        <time>2019-12-17T12:09:12.000Z</time>
      </trkpt>
      <trkpt lat="43.34712" lon="5.99417">
        <ele>443</ele>
        <time>2019-12-17T12:09:13.000Z</time>
      </trkpt>
      <trkpt lat="43.34711" lon="5.99417">
        <ele>443</ele>
        <time>2019-12-17T12:09:14.000Z</time>
      </trkpt>
      <trkpt lat="43.3471" lon="5.99416">
        <ele>443</ele>
        <time>2019-12-17T12:09:15.000Z</time>
      </trkpt>
      <trkpt lat="43.34709" lon="5.99416">
        <ele>443</ele>
        <time>2019-12-17T12:09:16.000Z</time>
      </trkpt>
      <trkpt lat="43.34708" lon="5.99416">
        <ele>443</ele>
        <time>2019-12-17T12:09:17.000Z</time>
      </trkpt>
      <trkpt lat="43.34707" lon="5.99416">
        <ele>443</ele>
        <time>2019-12-17T12:09:18.000Z</time>
      </trkpt>
      <trkpt lat="43.34706" lon="5.99416">
        <ele>443</ele>
        <time>2019-12-17T12:09:19.000Z</time>
      </trkpt>
      <trkpt lat="43.34705" lon="5.99416">
        <ele>443</ele>
        <time>2019-12-17T12:09:20.000Z</time>
      </trkpt>
      <trkpt lat="43.34705" lon="5.99416">
        <ele>444</ele>
        <time>2019-12-17T12:09:21.000Z</time>
      </trkpt>
      <trkpt lat="43.34704" lon="5.99416">
        <ele>444</ele>
        <time>2019-12-17T12:09:22.000Z</time>
      </trkpt>
      <trkpt lat="43.34704" lon="5.99416">
        <ele>444</ele>
        <time>2019-12-17T12:09:23.000Z</time>
      </trkpt>
      <trkpt lat="43.34704" lon="5.99416">
        <ele>444</ele>
        <time>2019-12-17T12:09:24.000Z</time>
      </trkpt>
      <trkpt lat="43.34704" lon="5.99417">
        <ele>445</ele>
        <time>2019-12-17T12:09:25.000Z</time>
      </trkpt>
      <trkpt lat="43.34703" lon="5.99417">
        <ele>445</ele>
        <time>2019-12-17T12:09:26.000Z</time>
      </trkpt>
      <trkpt lat="43.34703" lon="5.99417">
        <ele>445</ele>
        <time>2019-12-17T12:09:27.000Z</time>
      </trkpt>
      <trkpt lat="43.34703" lon="5.99417">
        <ele>446</ele>
        <time>2019-12-17T12:09:28.000Z</time>
      </trkpt>
      <trkpt lat="43.34703" lon="5.99417">
        <ele>446</ele>
        <time>2019-12-17T12:09:29.000Z</time>
      </trkpt>
      <trkpt lat="43.34702" lon="5.99417">
        <ele>447</ele>
        <time>2019-12-17T12:09:30.000Z</time>
      </trkpt>
      <trkpt lat="43.34701" lon="5.99417">
        <ele>447</ele>
        <time>2019-12-17T12:09:31.000Z</time>
      </trkpt>
      <trkpt lat="43.34701" lon="5.99417">
        <ele>447</ele>
        <time>2019-12-17T12:09:32.000Z</time>
      </trkpt>
      <trkpt lat="43.347" lon="5.99417">
        <ele>448</ele>
        <time>2019-12-17T12:09:33.000Z</time>
      </trkpt>
      <trkpt lat="43.347" lon="5.99416">
        <ele>448</ele>
        <time>2019-12-17T12:09:34.000Z</time>
      </trkpt>
      <trkpt lat="43.34699" lon="5.99416">
        <ele>448</ele>
        <time>2019-12-17T12:09:35.000Z</time>
      </trkpt>
      <trkpt lat="43.34698" lon="5.99417">
        <ele>449</ele>
        <time>2019-12-17T12:09:36.000Z</time>
      </trkpt>
      <trkpt lat="43.34697" lon="5.99417">
        <ele>449</ele>
        <time>2019-12-17T12:09:37.000Z</time>
      </trkpt>
      <trkpt lat="43.34697" lon="5.99417">
        <ele>449</ele>
        <time>2019-12-17T12:09:38.000Z</time>
      </trkpt>
      <trkpt lat="43.34696" lon="5.99417">
        <ele>450</ele>
        <time>2019-12-17T12:09:39.000Z</time>
      </trkpt>
      <trkpt lat="43.34696" lon="5.99417">
        <ele>450</ele>
        <time>2019-12-17T12:09:40.000Z</time>
      </trkpt>
      <trkpt lat="43.34695" lon="5.99417">
        <ele>450</ele>
        <time>2019-12-17T12:09:41.000Z</time>
      </trkpt>
      <trkpt lat="43.34695" lon="5.99417">
        <ele>450</ele>
        <time>2019-12-17T12:09:42.000Z</time>
      </trkpt>
      <trkpt lat="43.34694" lon="5.99418">
        <ele>451</ele>
        <time>2019-12-17T12:09:43.000Z</time>
      </trkpt>
      <trkpt lat="43.34694" lon="5.99418">
        <ele>451</ele>
        <time>2019-12-17T12:09:44.000Z</time>
      </trkpt>
      <trkpt lat="43.34693" lon="5.99418">
        <ele>451</ele>
        <time>2019-12-17T12:09:45.000Z</time>
      </trkpt>
      <trkpt lat="43.34692" lon="5.99418">
        <ele>451</ele>
        <time>2019-12-17T12:09:46.000Z</time>
      </trkpt>
      <trkpt lat="43.34691" lon="5.99419">
        <ele>452</ele>
        <time>2019-12-17T12:09:47.000Z</time>
      </trkpt>
      <trkpt lat="43.3469" lon="5.99419">
        <ele>452</ele>
        <time>2019-12-17T12:09:48.000Z</time>
      </trkpt>
      <trkpt lat="43.34689" lon="5.99419">
        <ele>452</ele>
        <time>2019-12-17T12:09:49.000Z</time>
      </trkpt>
      <trkpt lat="43.34688" lon="5.99419">
        <ele>452</ele>
        <time>2019-12-17T12:09:50.000Z</time>
      </trkpt>
      <trkpt lat="43.34688" lon="5.9942">
        <ele>452</ele>
        <time>2019-12-17T12:09:51.000Z</time>
      </trkpt>
      <trkpt lat="43.34687" lon="5.9942">
        <ele>453</ele>
        <time>2019-12-17T12:09:52.000Z</time>
      </trkpt>
      <trkpt lat="43.34686" lon="5.9942">
        <ele>453</ele>
        <time>2019-12-17T12:09:53.000Z</time>
      </trkpt>
      <trkpt lat="43.34686" lon="5.9942">
        <ele>453</ele>
        <time>2019-12-17T12:09:54.000Z</time>
      </trkpt>
      <trkpt lat="43.34685" lon="5.9942">
        <ele>453</ele>
        <time>2019-12-17T12:09:55.000Z</time>
      </trkpt>
      <trkpt lat="43.34684" lon="5.99421">
        <ele>453</ele>
        <time>2019-12-17T12:09:56.000Z</time>
      </trkpt>
      <trkpt lat="43.34683" lon="5.99421">
        <ele>454</ele>
        <time>2019-12-17T12:09:57.000Z</time>
      </trkpt>
      <trkpt lat="43.34683" lon="5.99421">
        <ele>454</ele>
        <time>2019-12-17T12:09:58.000Z</time>
      </trkpt>
      <trkpt lat="43.34682" lon="5.99422">
        <ele>454</ele>
        <time>2019-12-17T12:09:59.000Z</time>
      </trkpt>
      <trkpt lat="43.34681" lon="5.99422">
        <ele>454</ele>
        <time>2019-12-17T12:10:00.000Z</time>
      </trkpt>
      <trkpt lat="43.3468" lon="5.99422">
        <ele>454</ele>
        <time>2019-12-17T12:10:01.000Z</time>
      </trkpt>
      <trkpt lat="43.3468" lon="5.99423">
        <ele>455</ele>
        <time>2019-12-17T12:10:02.000Z</time>
      </trkpt>
      <trkpt lat="43.3468" lon="5.99423">
        <ele>455</ele>
        <time>2019-12-17T12:10:03.000Z</time>
      </trkpt>
      <trkpt lat="43.34679" lon="5.99423">
        <ele>455</ele>
        <time>2019-12-17T12:10:04.000Z</time>
      </trkpt>
      <trkpt lat="43.34679" lon="5.99423">
        <ele>455</ele>
        <time>2019-12-17T12:10:05.000Z</time>
      </trkpt>
      <trkpt lat="43.34678" lon="5.99423">
        <ele>455</ele>
        <time>2019-12-17T12:10:06.000Z</time>
      </trkpt>
      <trkpt lat="43.34678" lon="5.99423">
        <ele>455</ele>
        <time>2019-12-17T12:10:07.000Z</time>
      </trkpt>
      <trkpt lat="43.34677" lon="5.99423">
        <ele>455</ele>
        <time>2019-12-17T12:10:08.000Z</time>
      </trkpt>
      <trkpt lat="43.34676" lon="5.99423">
        <ele>456</ele>
        <time>2019-12-17T12:10:09.000Z</time>
      </trkpt>
      <trkpt lat="43.34675" lon="5.99423">
        <ele>456</ele>
        <time>2019-12-17T12:10:10.000Z</time>
      </trkpt>
      <trkpt lat="43.34674" lon="5.99424">
        <ele>456</ele>
        <time>2019-12-17T12:10:11.000Z</time>
      </trkpt>
      <trkpt lat="43.34673" lon="5.99424">
        <ele>456</ele>
        <time>2019-12-17T12:10:12.000Z</time>
      </trkpt>
      <trkpt lat="43.34671" lon="5.99425">
        <ele>456</ele>
        <time>2019-12-17T12:10:13.000Z</time>
      </trkpt>
      <trkpt lat="43.34669" lon="5.99425">
        <ele>455</ele>
        <time>2019-12-17T12:10:14.000Z</time>
      </trkpt>
      <trkpt lat="43.34667" lon="5.99426">
        <ele>455</ele>
        <time>2019-12-17T12:10:15.000Z</time>
      </trkpt>
      <trkpt lat="43.34665" lon="5.99426">
        <ele>454</ele>
        <time>2019-12-17T12:10:16.000Z</time>
      </trkpt>
      <trkpt lat="43.34663" lon="5.99427">
        <ele>453</ele>
        <time>2019-12-17T12:10:17.000Z</time>
      </trkpt>
      <trkpt lat="43.34661" lon="5.99428">
        <ele>452</ele>
        <time>2019-12-17T12:10:18.000Z</time>
      </trkpt>
      <trkpt lat="43.34658" lon="5.99429">
        <ele>451</ele>
        <time>2019-12-17T12:10:19.000Z</time>
      </trkpt>
      <trkpt lat="43.34655" lon="5.99429">
        <ele>450</ele>
        <time>2019-12-17T12:10:20.000Z</time>
      </trkpt>
      <trkpt lat="43.34653" lon="5.99429">
        <ele>449</ele>
        <time>2019-12-17T12:10:21.000Z</time>
      </trkpt>
      <trkpt lat="43.3465" lon="5.9943">
        <ele>448</ele>
        <time>2019-12-17T12:10:22.000Z</time>
      </trkpt>
      <trkpt lat="43.34648" lon="5.9943">
        <ele>448</ele>
        <time>2019-12-17T12:10:23.000Z</time>
      </trkpt>
      <trkpt lat="43.34646" lon="5.9943">
        <ele>447</ele>
        <time>2019-12-17T12:10:24.000Z</time>
      </trkpt>
      <trkpt lat="43.34643" lon="5.9943">
        <ele>446</ele>
        <time>2019-12-17T12:10:25.000Z</time>
      </trkpt>
      <trkpt lat="43.34641" lon="5.9943">
        <ele>446</ele>
        <time>2019-12-17T12:10:26.000Z</time>
      </trkpt>
      <trkpt lat="43.3464" lon="5.99431">
        <ele>445</ele>
        <time>2019-12-17T12:10:27.000Z</time>
      </trkpt>
      <trkpt lat="43.34638" lon="5.99431">
        <ele>445</ele>
        <time>2019-12-17T12:10:28.000Z</time>
      </trkpt>
      <trkpt lat="43.34636" lon="5.99431">
        <ele>444</ele>
        <time>2019-12-17T12:10:29.000Z</time>
      </trkpt>
      <trkpt lat="43.34635" lon="5.99431">
        <ele>444</ele>
        <time>2019-12-17T12:10:30.000Z</time>
      </trkpt>
      <trkpt lat="43.34633" lon="5.99431">
        <ele>444</ele>
        <time>2019-12-17T12:10:31.000Z</time>
      </trkpt>
      <trkpt lat="43.34632" lon="5.99431">
        <ele>443</ele>
        <time>2019-12-17T12:10:32.000Z</time>
      </trkpt>
      <trkpt lat="43.3463" lon="5.99431">
        <ele>443</ele>
        <time>2019-12-17T12:10:33.000Z</time>
      </trkpt>
      <trkpt lat="43.34629" lon="5.99431">
        <ele>443</ele>
        <time>2019-12-17T12:10:34.000Z</time>
      </trkpt>
      <trkpt lat="43.34627" lon="5.99431">
        <ele>443</ele>
        <time>2019-12-17T12:10:35.000Z</time>
      </trkpt>
      <trkpt lat="43.34626" lon="5.99431">
        <ele>442</ele>
        <time>2019-12-17T12:10:36.000Z</time>
      </trkpt>
      <trkpt lat="43.34624" lon="5.99431">
        <ele>442</ele>
        <time>2019-12-17T12:10:37.000Z</time>
      </trkpt>
      <trkpt lat="43.34622" lon="5.99431">
        <ele>442</ele>
        <time>2019-12-17T12:10:38.000Z</time>
      </trkpt>
      <trkpt lat="43.34621" lon="5.99431">
        <ele>442</ele>
        <time>2019-12-17T12:10:39.000Z</time>
      </trkpt>
      <trkpt lat="43.3462" lon="5.9943">
        <ele>442</ele>
        <time>2019-12-17T12:10:40.000Z</time>
      </trkpt>
      <trkpt lat="43.34618" lon="5.99429">
        <ele>441</ele>
        <time>2019-12-17T12:10:41.000Z</time>
      </trkpt>
      <trkpt lat="43.34617" lon="5.99429">
        <ele>441</ele>
        <time>2019-12-17T12:10:42.000Z</time>
      </trkpt>
      <trkpt lat="43.34615" lon="5.99428">
        <ele>440</ele>
        <time>2019-12-17T12:10:43.000Z</time>
      </trkpt>
      <trkpt lat="43.34614" lon="5.99427">
        <ele>440</ele>
        <time>2019-12-17T12:10:44.000Z</time>
      </trkpt>
      <trkpt lat="43.34612" lon="5.99426">
        <ele>439</ele>
        <time>2019-12-17T12:10:45.000Z</time>
      </trkpt>
      <trkpt lat="43.34611" lon="5.99426">
        <ele>439</ele>
        <time>2019-12-17T12:10:46.000Z</time>
      </trkpt>
      <trkpt lat="43.3461" lon="5.99425">
        <ele>438</ele>
        <time>2019-12-17T12:10:47.000Z</time>
      </trkpt>
      <trkpt lat="43.34609" lon="5.99424">
        <ele>438</ele>
        <time>2019-12-17T12:10:48.000Z</time>
      </trkpt>
      <trkpt lat="43.34608" lon="5.99423">
        <ele>437</ele>
        <time>2019-12-17T12:10:49.000Z</time>
      </trkpt>
      <trkpt lat="43.34607" lon="5.99423">
        <ele>437</ele>
        <time>2019-12-17T12:10:50.000Z</time>
      </trkpt>
      <trkpt lat="43.34606" lon="5.99422">
        <ele>436</ele>
        <time>2019-12-17T12:10:51.000Z</time>
      </trkpt>
      <trkpt lat="43.34604" lon="5.99421">
        <ele>436</ele>
        <time>2019-12-17T12:10:52.000Z</time>
      </trkpt>
      <trkpt lat="43.34603" lon="5.99421">
        <ele>436</ele>
        <time>2019-12-17T12:10:53.000Z</time>
      </trkpt>
      <trkpt lat="43.34602" lon="5.9942">
        <ele>435</ele>
        <time>2019-12-17T12:10:54.000Z</time>
      </trkpt>
      <trkpt lat="43.34601" lon="5.99419">
        <ele>435</ele>
        <time>2019-12-17T12:10:55.000Z</time>
      </trkpt>
      <trkpt lat="43.346" lon="5.99418">
        <ele>435</ele>
        <time>2019-12-17T12:10:56.000Z</time>
      </trkpt>
      <trkpt lat="43.34599" lon="5.99417">
        <ele>434</ele>
        <time>2019-12-17T12:10:57.000Z</time>
      </trkpt>
      <trkpt lat="43.34598" lon="5.99416">
        <ele>434</ele>
        <time>2019-12-17T12:10:58.000Z</time>
      </trkpt>
      <trkpt lat="43.34598" lon="5.99415">
        <ele>434</ele>
        <time>2019-12-17T12:10:59.000Z</time>
      </trkpt>
      <trkpt lat="43.34597" lon="5.99414">
        <ele>433</ele>
        <time>2019-12-17T12:11:00.000Z</time>
      </trkpt>
      <trkpt lat="43.34596" lon="5.99414">
        <ele>433</ele>
        <time>2019-12-17T12:11:01.000Z</time>
      </trkpt>
      <trkpt lat="43.34595" lon="5.99413">
        <ele>433</ele>
        <time>2019-12-17T12:11:02.000Z</time>
      </trkpt>
      <trkpt lat="43.34595" lon="5.99412">
        <ele>432</ele>
        <time>2019-12-17T12:11:03.000Z</time>
      </trkpt>
      <trkpt lat="43.34595" lon="5.99411">
        <ele>432</ele>
        <time>2019-12-17T12:11:04.000Z</time>
      </trkpt>
      <trkpt lat="43.34594" lon="5.9941">
        <ele>431</ele>
        <time>2019-12-17T12:11:05.000Z</time>
      </trkpt>
      <trkpt lat="43.34594" lon="5.99408">
        <ele>431</ele>
        <time>2019-12-17T12:11:06.000Z</time>
      </trkpt>
      <trkpt lat="43.34594" lon="5.99406">
        <ele>430</ele>
        <time>2019-12-17T12:11:07.000Z</time>
      </trkpt>
      <trkpt lat="43.34593" lon="5.99405">
        <ele>430</ele>
        <time>2019-12-17T12:11:08.000Z</time>
      </trkpt>
      <trkpt lat="43.34593" lon="5.99403">
        <ele>429</ele>
        <time>2019-12-17T12:11:09.000Z</time>
      </trkpt>
      <trkpt lat="43.34593" lon="5.99401">
        <ele>429</ele>
        <time>2019-12-17T12:11:10.000Z</time>
      </trkpt>
      <trkpt lat="43.34593" lon="5.994">
        <ele>428</ele>
        <time>2019-12-17T12:11:11.000Z</time>
      </trkpt>
      <trkpt lat="43.34593" lon="5.99398">
        <ele>428</ele>
        <time>2019-12-17T12:11:12.000Z</time>
      </trkpt>
      <trkpt lat="43.34593" lon="5.99397">
        <ele>427</ele>
        <time>2019-12-17T12:11:13.000Z</time>
      </trkpt>
      <trkpt lat="43.34593" lon="5.99395">
        <ele>427</ele>
        <time>2019-12-17T12:11:14.000Z</time>
      </trkpt>
      <trkpt lat="43.34593" lon="5.99394">
        <ele>426</ele>
        <time>2019-12-17T12:11:15.000Z</time>
      </trkpt>
      <trkpt lat="43.34592" lon="5.99392">
        <ele>425</ele>
        <time>2019-12-17T12:11:16.000Z</time>
      </trkpt>
      <trkpt lat="43.34592" lon="5.99391">
        <ele>425</ele>
        <time>2019-12-17T12:11:17.000Z</time>
      </trkpt>
      <trkpt lat="43.34591" lon="5.99389">
        <ele>424</ele>
        <time>2019-12-17T12:11:18.000Z</time>
      </trkpt>
      <trkpt lat="43.34591" lon="5.99388">
        <ele>424</ele>
        <time>2019-12-17T12:11:19.000Z</time>
      </trkpt>
      <trkpt lat="43.34591" lon="5.99387">
        <ele>424</ele>
        <time>2019-12-17T12:11:20.000Z</time>
      </trkpt>
      <trkpt lat="43.3459" lon="5.99386">
        <ele>423</ele>
        <time>2019-12-17T12:11:21.000Z</time>
      </trkpt>
      <trkpt lat="43.3459" lon="5.99385">
        <ele>423</ele>
        <time>2019-12-17T12:11:22.000Z</time>
      </trkpt>
      <trkpt lat="43.34589" lon="5.99384">
        <ele>423</ele>
        <time>2019-12-17T12:11:23.000Z</time>
      </trkpt>
      <trkpt lat="43.34589" lon="5.99383">
        <ele>422</ele>
        <time>2019-12-17T12:11:24.000Z</time>
      </trkpt>
      <trkpt lat="43.34589" lon="5.99383">
        <ele>422</ele>
        <time>2019-12-17T12:11:25.000Z</time>
      </trkpt>
      <trkpt lat="43.34589" lon="5.99383">
        <ele>422</ele>
        <time>2019-12-17T12:11:26.000Z</time>
      </trkpt>
      <trkpt lat="43.34589" lon="5.99383">
        <ele>422</ele>
        <time>2019-12-17T12:11:27.000Z</time>
      </trkpt>
      <trkpt lat="43.34588" lon="5.99383">
        <ele>422</ele>
        <time>2019-12-17T12:11:28.000Z</time>
      </trkpt>
      <trkpt lat="43.34588" lon="5.99383">
        <ele>422</ele>
        <time>2019-12-17T12:11:29.000Z</time>
      </trkpt>
      <trkpt lat="43.34588" lon="5.99383">
        <ele>421</ele>
        <time>2019-12-17T12:11:30.000Z</time>
      </trkpt>
      <trkpt lat="43.34588" lon="5.99383">
        <ele>421</ele>
        <time>2019-12-17T12:11:31.000Z</time>
      </trkpt>
      <trkpt lat="43.34588" lon="5.99382">
        <ele>421</ele>
        <time>2019-12-17T12:11:32.000Z</time>
      </trkpt>
      <trkpt lat="43.34588" lon="5.99382">
        <ele>421</ele>
        <time>2019-12-17T12:11:33.000Z</time>
      </trkpt>
      <trkpt lat="43.34588" lon="5.99382">
        <ele>421</ele>
        <time>2019-12-17T12:11:34.000Z</time>
      </trkpt>
      <trkpt lat="43.34588" lon="5.99382">
        <ele>421</ele>
        <time>2019-12-17T12:11:35.000Z</time>
      </trkpt>
      <trkpt lat="43.34588" lon="5.99382">
        <ele>421</ele>
        <time>2019-12-17T12:11:36.000Z</time>
      </trkpt>
      <trkpt lat="43.34588" lon="5.99382">
        <ele>421</ele>
        <time>2019-12-17T12:11:37.000Z</time>
      </trkpt>
      <trkpt lat="43.34588" lon="5.99382">
        <ele>421</ele>
        <time>2019-12-17T12:11:38.000Z</time>
      </trkpt>
      <trkpt lat="43.34588" lon="5.99382">
        <ele>420</ele>
        <time>2019-12-17T12:11:39.000Z</time>
      </trkpt>
      <trkpt lat="43.34588" lon="5.99382">
        <ele>420</ele>
        <time>2019-12-17T12:11:40.000Z</time>
      </trkpt>
      <trkpt lat="43.34588" lon="5.99382">
        <ele>420</ele>
        <time>2019-12-17T12:11:41.000Z</time>
      </trkpt>
      <trkpt lat="43.34588" lon="5.99382">
        <ele>420</ele>
        <time>2019-12-17T12:11:42.000Z</time>
      </trkpt>
      <trkpt lat="43.34588" lon="5.99382">
        <ele>420</ele>
        <time>2019-12-17T12:11:43.000Z</time>
      </trkpt>
      <trkpt lat="43.34588" lon="5.99381">
        <ele>420</ele>
        <time>2019-12-17T12:11:44.000Z</time>
      </trkpt>
      <trkpt lat="43.34588" lon="5.99381">
        <ele>420</ele>
        <time>2019-12-17T12:11:45.000Z</time>
      </trkpt>
      <trkpt lat="43.34588" lon="5.99381">
        <ele>420</ele>
        <time>2019-12-17T12:11:46.000Z</time>
      </trkpt>
      <trkpt lat="43.34588" lon="5.99381">
        <ele>420</ele>
        <time>2019-12-17T12:11:47.000Z</time>
      </trkpt>
      <trkpt lat="43.34588" lon="5.99381">
        <ele>420</ele>
        <time>2019-12-17T12:11:48.000Z</time>
      </trkpt>
      <trkpt lat="43.34588" lon="5.99381">
        <ele>420</ele>
        <time>2019-12-17T12:11:49.000Z</time>
      </trkpt>
      <trkpt lat="43.34588" lon="5.99381">
        <ele>420</ele>
        <time>2019-12-17T12:11:50.000Z</time>
      </trkpt>
      <trkpt lat="43.34588" lon="5.99381">
        <ele>420</ele>
        <time>2019-12-17T12:11:51.000Z</time>
      </trkpt>
      <trkpt lat="43.34587" lon="5.99381">
        <ele>420</ele>
        <time>2019-12-17T12:11:52.000Z</time>
      </trkpt>
      <trkpt lat="43.34587" lon="5.99381">
        <ele>420</ele>
        <time>2019-12-17T12:11:53.000Z</time>
      </trkpt>
      <trkpt lat="43.34587" lon="5.99381">
        <ele>420</ele>
        <time>2019-12-17T12:11:54.000Z</time>
      </trkpt>
      <trkpt lat="43.34587" lon="5.99381">
        <ele>420</ele>
        <time>2019-12-17T12:11:55.000Z</time>
      </trkpt>
      <trkpt lat="43.34587" lon="5.99381">
        <ele>420</ele>
        <time>2019-12-17T12:11:56.000Z</time>
      </trkpt>
      <trkpt lat="43.34587" lon="5.9938">
        <ele>420</ele>
        <time>2019-12-17T12:11:57.000Z</time>
      </trkpt>
      <trkpt lat="43.34587" lon="5.9938">
        <ele>419</ele>
        <time>2019-12-17T12:11:58.000Z</time>
      </trkpt>
      <trkpt lat="43.34588" lon="5.99379">
        <ele>419</ele>
        <time>2019-12-17T12:11:59.000Z</time>
      </trkpt>
      <trkpt lat="43.34588" lon="5.99377">
        <ele>419</ele>
        <time>2019-12-17T12:12:00.000Z</time>
      </trkpt>
      <trkpt lat="43.34589" lon="5.99376">
        <ele>419</ele>
        <time>2019-12-17T12:12:01.000Z</time>
      </trkpt>
      <trkpt lat="43.34589" lon="5.99374">
        <ele>419</ele>
        <time>2019-12-17T12:12:02.000Z</time>
      </trkpt>
      <trkpt lat="43.3459" lon="5.99373">
        <ele>419</ele>
        <time>2019-12-17T12:12:03.000Z</time>
      </trkpt>
      <trkpt lat="43.3459" lon="5.99371">
        <ele>419</ele>
        <time>2019-12-17T12:12:04.000Z</time>
      </trkpt>
      <trkpt lat="43.34591" lon="5.9937">
        <ele>419</ele>
        <time>2019-12-17T12:12:05.000Z</time>
      </trkpt>
      <trkpt lat="43.34591" lon="5.99369">
        <ele>419</ele>
        <time>2019-12-17T12:12:06.000Z</time>
      </trkpt>
      <trkpt lat="43.34592" lon="5.99367">
        <ele>418</ele>
        <time>2019-12-17T12:12:07.000Z</time>
      </trkpt>
      <trkpt lat="43.34592" lon="5.99366">
        <ele>418</ele>
        <time>2019-12-17T12:12:08.000Z</time>
      </trkpt>
      <trkpt lat="43.34592" lon="5.99364">
        <ele>418</ele>
        <time>2019-12-17T12:12:09.000Z</time>
      </trkpt>
      <trkpt lat="43.34592" lon="5.99363">
        <ele>418</ele>
        <time>2019-12-17T12:12:10.000Z</time>
      </trkpt>
      <trkpt lat="43.34593" lon="5.99361">
        <ele>418</ele>
        <time>2019-12-17T12:12:11.000Z</time>
      </trkpt>
      <trkpt lat="43.34593" lon="5.9936">
        <ele>418</ele>
        <time>2019-12-17T12:12:12.000Z</time>
      </trkpt>
      <trkpt lat="43.34594" lon="5.99359">
        <ele>417</ele>
        <time>2019-12-17T12:12:13.000Z</time>
      </trkpt>
      <trkpt lat="43.34594" lon="5.99357">
        <ele>417</ele>
        <time>2019-12-17T12:12:14.000Z</time>
      </trkpt>
      <trkpt lat="43.34594" lon="5.99356">
        <ele>417</ele>
        <time>2019-12-17T12:12:15.000Z</time>
      </trkpt>
      <trkpt lat="43.34595" lon="5.99355">
        <ele>417</ele>
        <time>2019-12-17T12:12:16.000Z</time>
      </trkpt>
      <trkpt lat="43.34595" lon="5.99353">
        <ele>417</ele>
        <time>2019-12-17T12:12:17.000Z</time>
      </trkpt>
      <trkpt lat="43.34595" lon="5.99352">
        <ele>417</ele>
        <time>2019-12-17T12:12:18.000Z</time>
      </trkpt>
      <trkpt lat="43.34594" lon="5.99351">
        <ele>417</ele>
        <time>2019-12-17T12:12:19.000Z</time>
      </trkpt>
      <trkpt lat="43.34593" lon="5.99349">
        <ele>417</ele>
        <time>2019-12-17T12:12:20.000Z</time>
      </trkpt>
      <trkpt lat="43.34592" lon="5.99349">
        <ele>417</ele>
        <time>2019-12-17T12:12:21.000Z</time>
      </trkpt>
      <trkpt lat="43.34591" lon="5.99348">
        <ele>417</ele>
        <time>2019-12-17T12:12:22.000Z</time>
      </trkpt>
      <trkpt lat="43.3459" lon="5.99347">
        <ele>417</ele>
        <time>2019-12-17T12:12:23.000Z</time>
      </trkpt>
      <trkpt lat="43.34589" lon="5.99346">
        <ele>417</ele>
        <time>2019-12-17T12:12:24.000Z</time>
      </trkpt>
      <trkpt lat="43.34588" lon="5.99345">
        <ele>417</ele>
        <time>2019-12-17T12:12:25.000Z</time>
      </trkpt>
      <trkpt lat="43.34587" lon="5.99344">
        <ele>417</ele>
        <time>2019-12-17T12:12:26.000Z</time>
      </trkpt>
      <trkpt lat="43.34586" lon="5.99344">
        <ele>417</ele>
        <time>2019-12-17T12:12:27.000Z</time>
      </trkpt>
      <trkpt lat="43.34585" lon="5.99343">
        <ele>417</ele>
        <time>2019-12-17T12:12:28.000Z</time>
      </trkpt>
      <trkpt lat="43.34583" lon="5.99343">
        <ele>416</ele>
        <time>2019-12-17T12:12:29.000Z</time>
      </trkpt>
      <trkpt lat="43.34582" lon="5.99343">
        <ele>416</ele>
        <time>2019-12-17T12:12:30.000Z</time>
      </trkpt>
      <trkpt lat="43.34581" lon="5.99342">
        <ele>416</ele>
        <time>2019-12-17T12:12:31.000Z</time>
      </trkpt>
      <trkpt lat="43.3458" lon="5.99342">
        <ele>416</ele>
        <time>2019-12-17T12:12:32.000Z</time>
      </trkpt>
      <trkpt lat="43.34578" lon="5.99342">
        <ele>416</ele>
        <time>2019-12-17T12:12:33.000Z</time>
      </trkpt>
      <trkpt lat="43.34577" lon="5.99342">
        <ele>416</ele>
        <time>2019-12-17T12:12:34.000Z</time>
      </trkpt>
      <trkpt lat="43.34576" lon="5.99341">
        <ele>416</ele>
        <time>2019-12-17T12:12:35.000Z</time>
      </trkpt>
      <trkpt lat="43.34575" lon="5.99341">
        <ele>416</ele>
        <time>2019-12-17T12:12:36.000Z</time>
      </trkpt>
      <trkpt lat="43.34574" lon="5.99341">
        <ele>416</ele>
        <time>2019-12-17T12:12:37.000Z</time>
      </trkpt>
      <trkpt lat="43.34572" lon="5.99341">
        <ele>416</ele>
        <time>2019-12-17T12:12:38.000Z</time>
      </trkpt>
      <trkpt lat="43.34571" lon="5.99342">
        <ele>416</ele>
        <time>2019-12-17T12:12:39.000Z</time>
      </trkpt>
      <trkpt lat="43.3457" lon="5.99342">
        <ele>416</ele>
        <time>2019-12-17T12:12:40.000Z</time>
      </trkpt>
      <trkpt lat="43.34568" lon="5.99343">
        <ele>417</ele>
        <time>2019-12-17T12:12:41.000Z</time>
      </trkpt>
      <trkpt lat="43.34567" lon="5.99344">
        <ele>417</ele>
        <time>2019-12-17T12:12:42.000Z</time>
      </trkpt>
      <trkpt lat="43.34566" lon="5.99345">
        <ele>416</ele>
        <time>2019-12-17T12:12:43.000Z</time>
      </trkpt>
      <trkpt lat="43.34565" lon="5.99345">
        <ele>416</ele>
        <time>2019-12-17T12:12:44.000Z</time>
      </trkpt>
      <trkpt lat="43.34564" lon="5.99346">
        <ele>416</ele>
        <time>2019-12-17T12:12:45.000Z</time>
      </trkpt>
      <trkpt lat="43.34563" lon="5.99347">
        <ele>416</ele>
        <time>2019-12-17T12:12:46.000Z</time>
      </trkpt>
      <trkpt lat="43.34562" lon="5.99348">
        <ele>416</ele>
        <time>2019-12-17T12:12:47.000Z</time>
      </trkpt>
      <trkpt lat="43.34561" lon="5.99349">
        <ele>416</ele>
        <time>2019-12-17T12:12:48.000Z</time>
      </trkpt>
      <trkpt lat="43.3456" lon="5.9935">
        <ele>416</ele>
        <time>2019-12-17T12:12:49.000Z</time>
      </trkpt>
      <trkpt lat="43.34559" lon="5.99351">
        <ele>416</ele>
        <time>2019-12-17T12:12:50.000Z</time>
      </trkpt>
      <trkpt lat="43.34558" lon="5.99352">
        <ele>416</ele>
        <time>2019-12-17T12:12:51.000Z</time>
      </trkpt>
      <trkpt lat="43.34557" lon="5.99353">
        <ele>416</ele>
        <time>2019-12-17T12:12:52.000Z</time>
      </trkpt>
      <trkpt lat="43.34556" lon="5.99354">
        <ele>416</ele>
        <time>2019-12-17T12:12:53.000Z</time>
      </trkpt>
      <trkpt lat="43.34555" lon="5.99355">
        <ele>416</ele>
        <time>2019-12-17T12:12:54.000Z</time>
      </trkpt>
      <trkpt lat="43.34555" lon="5.99356">
        <ele>416</ele>
        <time>2019-12-17T12:12:55.000Z</time>
      </trkpt>
      <trkpt lat="43.34554" lon="5.99356">
        <ele>416</ele>
        <time>2019-12-17T12:12:56.000Z</time>
      </trkpt>
      <trkpt lat="43.34554" lon="5.99356">
        <ele>416</ele>
        <time>2019-12-17T12:12:57.000Z</time>
      </trkpt>
      <trkpt lat="43.34554" lon="5.99356">
        <ele>416</ele>
        <time>2019-12-17T12:12:58.000Z</time>
      </trkpt>
      <trkpt lat="43.34554" lon="5.99356">
        <ele>416</ele>
        <time>2019-12-17T12:12:59.000Z</time>
      </trkpt>
      <trkpt lat="43.34554" lon="5.99356">
        <ele>416</ele>
        <time>2019-12-17T12:13:00.000Z</time>
      </trkpt>
      <trkpt lat="43.34554" lon="5.99356">
        <ele>416</ele>
        <time>2019-12-17T12:13:01.000Z</time>
      </trkpt>
      <trkpt lat="43.34554" lon="5.99356">
        <ele>416</ele>
        <time>2019-12-17T12:13:02.000Z</time>
      </trkpt>
      <trkpt lat="43.34554" lon="5.99356">
        <ele>416</ele>
        <time>2019-12-17T12:13:03.000Z</time>
      </trkpt>
      <trkpt lat="43.34554" lon="5.99356">
        <ele>416</ele>
        <time>2019-12-17T12:13:04.000Z</time>
      </trkpt>
      <trkpt lat="43.34554" lon="5.99356">
        <ele>416</ele>
        <time>2019-12-17T12:13:05.000Z</time>
      </trkpt>
      <trkpt lat="43.34553" lon="5.99357">
        <ele>416</ele>
        <time>2019-12-17T12:13:06.000Z</time>
      </trkpt>
      <trkpt lat="43.34553" lon="5.99357">
        <ele>416</ele>
        <time>2019-12-17T12:13:07.000Z</time>
      </trkpt>
      <trkpt lat="43.34552" lon="5.99358">
        <ele>415</ele>
        <time>2019-12-17T12:13:08.000Z</time>
      </trkpt>
      <trkpt lat="43.34552" lon="5.99358">
        <ele>415</ele>
        <time>2019-12-17T12:13:09.000Z</time>
      </trkpt>
      <trkpt lat="43.34551" lon="5.99359">
        <ele>415</ele>
        <time>2019-12-17T12:13:10.000Z</time>
      </trkpt>
      <trkpt lat="43.3455" lon="5.99359">
        <ele>415</ele>
        <time>2019-12-17T12:13:11.000Z</time>
      </trkpt>
      <trkpt lat="43.3455" lon="5.9936">
        <ele>415</ele>
        <time>2019-12-17T12:13:12.000Z</time>
      </trkpt>
      <trkpt lat="43.34549" lon="5.9936">
        <ele>415</ele>
        <time>2019-12-17T12:13:13.000Z</time>
      </trkpt>
      <trkpt lat="43.34548" lon="5.99361">
        <ele>415</ele>
        <time>2019-12-17T12:13:14.000Z</time>
      </trkpt>
      <trkpt lat="43.34547" lon="5.99361">
        <ele>415</ele>
        <time>2019-12-17T12:13:15.000Z</time>
      </trkpt>
      <trkpt lat="43.34546" lon="5.99361">
        <ele>415</ele>
        <time>2019-12-17T12:13:16.000Z</time>
      </trkpt>
      <trkpt lat="43.34545" lon="5.99362">
        <ele>415</ele>
        <time>2019-12-17T12:13:17.000Z</time>
      </trkpt>
      <trkpt lat="43.34544" lon="5.99362">
        <ele>415</ele>
        <time>2019-12-17T12:13:18.000Z</time>
      </trkpt>
      <trkpt lat="43.34543" lon="5.99362">
        <ele>415</ele>
        <time>2019-12-17T12:13:19.000Z</time>
      </trkpt>
      <trkpt lat="43.34542" lon="5.99363">
        <ele>415</ele>
        <time>2019-12-17T12:13:20.000Z</time>
      </trkpt>
      <trkpt lat="43.34541" lon="5.99363">
        <ele>415</ele>
        <time>2019-12-17T12:13:21.000Z</time>
      </trkpt>
      <trkpt lat="43.3454" lon="5.99363">
        <ele>415</ele>
        <time>2019-12-17T12:13:22.000Z</time>
      </trkpt>
      <trkpt lat="43.34539" lon="5.99363">
        <ele>415</ele>
        <time>2019-12-17T12:13:23.000Z</time>
      </trkpt>
      <trkpt lat="43.34538" lon="5.99364">
        <ele>415</ele>
        <time>2019-12-17T12:13:24.000Z</time>
      </trkpt>
      <trkpt lat="43.34537" lon="5.99364">
        <ele>415</ele>
        <time>2019-12-17T12:13:25.000Z</time>
      </trkpt>
      <trkpt lat="43.34536" lon="5.99364">
        <ele>415</ele>
        <time>2019-12-17T12:13:26.000Z</time>
      </trkpt>
      <trkpt lat="43.34535" lon="5.99364">
        <ele>415</ele>
        <time>2019-12-17T12:13:27.000Z</time>
      </trkpt>
      <trkpt lat="43.34534" lon="5.99364">
        <ele>415</ele>
        <time>2019-12-17T12:13:28.000Z</time>
      </trkpt>
      <trkpt lat="43.34533" lon="5.99364">
        <ele>415</ele>
        <time>2019-12-17T12:13:29.000Z</time>
      </trkpt>
      <trkpt lat="43.34532" lon="5.99364">
        <ele>415</ele>
        <time>2019-12-17T12:13:30.000Z</time>
      </trkpt>
      <trkpt lat="43.34531" lon="5.99365">
        <ele>415</ele>
        <time>2019-12-17T12:13:31.000Z</time>
      </trkpt>
      <trkpt lat="43.3453" lon="5.99365">
        <ele>415</ele>
        <time>2019-12-17T12:13:32.000Z</time>
      </trkpt>
      <trkpt lat="43.34529" lon="5.99364">
        <ele>415</ele>
        <time>2019-12-17T12:13:33.000Z</time>
      </trkpt>
      <trkpt lat="43.34528" lon="5.99365">
        <ele>415</ele>
        <time>2019-12-17T12:13:34.000Z</time>
      </trkpt>
      <trkpt lat="43.34527" lon="5.99365">
        <ele>415</ele>
        <time>2019-12-17T12:13:35.000Z</time>
      </trkpt>
      <trkpt lat="43.34525" lon="5.99364">
        <ele>415</ele>
        <time>2019-12-17T12:13:36.000Z</time>
      </trkpt>
      <trkpt lat="43.34524" lon="5.99364">
        <ele>416</ele>
        <time>2019-12-17T12:13:37.000Z</time>
      </trkpt>
      <trkpt lat="43.34523" lon="5.99364">
        <ele>416</ele>
        <time>2019-12-17T12:13:38.000Z</time>
      </trkpt>
      <trkpt lat="43.34522" lon="5.99364">
        <ele>416</ele>
        <time>2019-12-17T12:13:39.000Z</time>
      </trkpt>
      <trkpt lat="43.34521" lon="5.99364">
        <ele>416</ele>
        <time>2019-12-17T12:13:40.000Z</time>
      </trkpt>
      <trkpt lat="43.3452" lon="5.99364">
        <ele>416</ele>
        <time>2019-12-17T12:13:41.000Z</time>
      </trkpt>
      <trkpt lat="43.34519" lon="5.99364">
        <ele>416</ele>
        <time>2019-12-17T12:13:42.000Z</time>
      </trkpt>
      <trkpt lat="43.34518" lon="5.99364">
        <ele>416</ele>
        <time>2019-12-17T12:13:43.000Z</time>
      </trkpt>
      <trkpt lat="43.34517" lon="5.99365">
        <ele>416</ele>
        <time>2019-12-17T12:13:44.000Z</time>
      </trkpt>
      <trkpt lat="43.34516" lon="5.99365">
        <ele>416</ele>
        <time>2019-12-17T12:13:45.000Z</time>
      </trkpt>
      <trkpt lat="43.34515" lon="5.99365">
        <ele>416</ele>
        <time>2019-12-17T12:13:46.000Z</time>
      </trkpt>
      <trkpt lat="43.34514" lon="5.99365">
        <ele>416</ele>
        <time>2019-12-17T12:13:47.000Z</time>
      </trkpt>
      <trkpt lat="43.34513" lon="5.99365">
        <ele>417</ele>
        <time>2019-12-17T12:13:48.000Z</time>
      </trkpt>
      <trkpt lat="43.34513" lon="5.99365">
        <ele>417</ele>
        <time>2019-12-17T12:13:49.000Z</time>
      </trkpt>
      <trkpt lat="43.34512" lon="5.99365">
        <ele>417</ele>
        <time>2019-12-17T12:13:50.000Z</time>
      </trkpt>
      <trkpt lat="43.34511" lon="5.99365">
        <ele>417</ele>
        <time>2019-12-17T12:13:51.000Z</time>
      </trkpt>
      <trkpt lat="43.3451" lon="5.99365">
        <ele>417</ele>
        <time>2019-12-17T12:13:52.000Z</time>
      </trkpt>
      <trkpt lat="43.34509" lon="5.99365">
        <ele>417</ele>
        <time>2019-12-17T12:13:53.000Z</time>
      </trkpt>
      <trkpt lat="43.34508" lon="5.99365">
        <ele>417</ele>
        <time>2019-12-17T12:13:54.000Z</time>
      </trkpt>
      <trkpt lat="43.34507" lon="5.99366">
        <ele>417</ele>
        <time>2019-12-17T12:13:55.000Z</time>
      </trkpt>
      <trkpt lat="43.34506" lon="5.99366">
        <ele>417</ele>
        <time>2019-12-17T12:13:56.000Z</time>
      </trkpt>
      <trkpt lat="43.34505" lon="5.99366">
        <ele>417</ele>
        <time>2019-12-17T12:13:57.000Z</time>
      </trkpt>
      <trkpt lat="43.34504" lon="5.99366">
        <ele>417</ele>
        <time>2019-12-17T12:13:58.000Z</time>
      </trkpt>
      <trkpt lat="43.34503" lon="5.99367">
        <ele>417</ele>
        <time>2019-12-17T12:13:59.000Z</time>
      </trkpt>
      <trkpt lat="43.34502" lon="5.99367">
        <ele>417</ele>
        <time>2019-12-17T12:14:00.000Z</time>
      </trkpt>
      <trkpt lat="43.34501" lon="5.99367">
        <ele>418</ele>
        <time>2019-12-17T12:14:01.000Z</time>
      </trkpt>
      <trkpt lat="43.345" lon="5.99367">
        <ele>418</ele>
        <time>2019-12-17T12:14:02.000Z</time>
      </trkpt>
      <trkpt lat="43.34499" lon="5.99368">
        <ele>418</ele>
        <time>2019-12-17T12:14:03.000Z</time>
      </trkpt>
      <trkpt lat="43.34498" lon="5.99368">
        <ele>418</ele>
        <time>2019-12-17T12:14:04.000Z</time>
      </trkpt>
      <trkpt lat="43.34497" lon="5.99368">
        <ele>418</ele>
        <time>2019-12-17T12:14:05.000Z</time>
      </trkpt>
      <trkpt lat="43.34496" lon="5.99368">
        <ele>418</ele>
        <time>2019-12-17T12:14:06.000Z</time>
      </trkpt>
      <trkpt lat="43.34494" lon="5.99369">
        <ele>419</ele>
        <time>2019-12-17T12:14:07.000Z</time>
      </trkpt>
      <trkpt lat="43.34493" lon="5.99369">
        <ele>419</ele>
        <time>2019-12-17T12:14:08.000Z</time>
      </trkpt>
      <trkpt lat="43.34492" lon="5.99369">
        <ele>419</ele>
        <time>2019-12-17T12:14:09.000Z</time>
      </trkpt>
      <trkpt lat="43.34491" lon="5.9937">
        <ele>419</ele>
        <time>2019-12-17T12:14:10.000Z</time>
      </trkpt>
      <trkpt lat="43.3449" lon="5.99369">
        <ele>419</ele>
        <time>2019-12-17T12:14:11.000Z</time>
      </trkpt>
      <trkpt lat="43.34489" lon="5.99369">
        <ele>419</ele>
        <time>2019-12-17T12:14:12.000Z</time>
      </trkpt>
      <trkpt lat="43.34488" lon="5.9937">
        <ele>420</ele>
        <time>2019-12-17T12:14:13.000Z</time>
      </trkpt>
      <trkpt lat="43.34487" lon="5.9937">
        <ele>420</ele>
        <time>2019-12-17T12:14:14.000Z</time>
      </trkpt>
      <trkpt lat="43.34486" lon="5.9937">
        <ele>420</ele>
        <time>2019-12-17T12:14:15.000Z</time>
      </trkpt>
      <trkpt lat="43.34486" lon="5.99371">
        <ele>420</ele>
        <time>2019-12-17T12:14:16.000Z</time>
      </trkpt>
      <trkpt lat="43.34485" lon="5.99371">
        <ele>420</ele>
        <time>2019-12-17T12:14:17.000Z</time>
      </trkpt>
      <trkpt lat="43.34484" lon="5.99371">
        <ele>420</ele>
        <time>2019-12-17T12:14:18.000Z</time>
      </trkpt>
      <trkpt lat="43.34483" lon="5.99371">
        <ele>421</ele>
        <time>2019-12-17T12:14:19.000Z</time>
      </trkpt>
      <trkpt lat="43.34482" lon="5.99371">
        <ele>421</ele>
        <time>2019-12-17T12:14:20.000Z</time>
      </trkpt>
      <trkpt lat="43.34482" lon="5.99371">
        <ele>421</ele>
        <time>2019-12-17T12:14:21.000Z</time>
      </trkpt>
      <trkpt lat="43.34481" lon="5.9937">
        <ele>421</ele>
        <time>2019-12-17T12:14:22.000Z</time>
      </trkpt>
      <trkpt lat="43.3448" lon="5.9937">
        <ele>421</ele>
        <time>2019-12-17T12:14:23.000Z</time>
      </trkpt>
      <trkpt lat="43.34479" lon="5.9937">
        <ele>421</ele>
        <time>2019-12-17T12:14:24.000Z</time>
      </trkpt>
      <trkpt lat="43.34478" lon="5.9937">
        <ele>422</ele>
        <time>2019-12-17T12:14:25.000Z</time>
      </trkpt>
      <trkpt lat="43.34477" lon="5.9937">
        <ele>422</ele>
        <time>2019-12-17T12:14:26.000Z</time>
      </trkpt>
      <trkpt lat="43.34476" lon="5.9937">
        <ele>422</ele>
        <time>2019-12-17T12:14:27.000Z</time>
      </trkpt>
      <trkpt lat="43.34475" lon="5.9937">
        <ele>422</ele>
        <time>2019-12-17T12:14:28.000Z</time>
      </trkpt>
      <trkpt lat="43.34474" lon="5.9937">
        <ele>422</ele>
        <time>2019-12-17T12:14:29.000Z</time>
      </trkpt>
      <trkpt lat="43.34473" lon="5.9937">
        <ele>422</ele>
        <time>2019-12-17T12:14:30.000Z</time>
      </trkpt>
      <trkpt lat="43.34472" lon="5.99371">
        <ele>423</ele>
        <time>2019-12-17T12:14:31.000Z</time>
      </trkpt>
      <trkpt lat="43.34471" lon="5.99371">
        <ele>423</ele>
        <time>2019-12-17T12:14:32.000Z</time>
      </trkpt>
      <trkpt lat="43.3447" lon="5.99371">
        <ele>423</ele>
        <time>2019-12-17T12:14:33.000Z</time>
      </trkpt>
      <trkpt lat="43.34469" lon="5.99371">
        <ele>423</ele>
        <time>2019-12-17T12:14:34.000Z</time>
      </trkpt>
      <trkpt lat="43.34467" lon="5.99371">
        <ele>423</ele>
        <time>2019-12-17T12:14:35.000Z</time>
      </trkpt>
      <trkpt lat="43.34466" lon="5.99372">
        <ele>423</ele>
        <time>2019-12-17T12:14:36.000Z</time>
      </trkpt>
      <trkpt lat="43.34465" lon="5.99372">
        <ele>423</ele>
        <time>2019-12-17T12:14:37.000Z</time>
      </trkpt>
      <trkpt lat="43.34464" lon="5.99372">
        <ele>423</ele>
        <time>2019-12-17T12:14:38.000Z</time>
      </trkpt>
      <trkpt lat="43.34463" lon="5.99372">
        <ele>424</ele>
        <time>2019-12-17T12:14:39.000Z</time>
      </trkpt>
      <trkpt lat="43.34462" lon="5.99372">
        <ele>424</ele>
        <time>2019-12-17T12:14:40.000Z</time>
      </trkpt>
      <trkpt lat="43.34461" lon="5.99372">
        <ele>424</ele>
        <time>2019-12-17T12:14:41.000Z</time>
      </trkpt>
      <trkpt lat="43.3446" lon="5.99372">
        <ele>424</ele>
        <time>2019-12-17T12:14:42.000Z</time>
      </trkpt>
      <trkpt lat="43.34459" lon="5.99372">
        <ele>424</ele>
        <time>2019-12-17T12:14:43.000Z</time>
      </trkpt>
      <trkpt lat="43.34458" lon="5.99372">
        <ele>424</ele>
        <time>2019-12-17T12:14:44.000Z</time>
      </trkpt>
      <trkpt lat="43.34457" lon="5.99372">
        <ele>424</ele>
        <time>2019-12-17T12:14:45.000Z</time>
      </trkpt>
      <trkpt lat="43.34456" lon="5.99372">
        <ele>425</ele>
        <time>2019-12-17T12:14:46.000Z</time>
      </trkpt>
      <trkpt lat="43.34455" lon="5.99372">
        <ele>425</ele>
        <time>2019-12-17T12:14:47.000Z</time>
      </trkpt>
      <trkpt lat="43.34454" lon="5.99372">
        <ele>425</ele>
        <time>2019-12-17T12:14:48.000Z</time>
      </trkpt>
      <trkpt lat="43.34453" lon="5.99373">
        <ele>425</ele>
        <time>2019-12-17T12:14:49.000Z</time>
      </trkpt>
      <trkpt lat="43.34452" lon="5.99373">
        <ele>425</ele>
        <time>2019-12-17T12:14:50.000Z</time>
      </trkpt>
      <trkpt lat="43.34451" lon="5.99373">
        <ele>426</ele>
        <time>2019-12-17T12:14:51.000Z</time>
      </trkpt>
      <trkpt lat="43.3445" lon="5.99374">
        <ele>426</ele>
        <time>2019-12-17T12:14:52.000Z</time>
      </trkpt>
      <trkpt lat="43.34449" lon="5.99374">
        <ele>426</ele>
        <time>2019-12-17T12:14:53.000Z</time>
      </trkpt>
      <trkpt lat="43.34449" lon="5.99375">
        <ele>426</ele>
        <time>2019-12-17T12:14:54.000Z</time>
      </trkpt>
      <trkpt lat="43.34448" lon="5.99375">
        <ele>426</ele>
        <time>2019-12-17T12:14:55.000Z</time>
      </trkpt>
      <trkpt lat="43.34448" lon="5.99375">
        <ele>426</ele>
        <time>2019-12-17T12:14:56.000Z</time>
      </trkpt>
      <trkpt lat="43.34447" lon="5.99376">
        <ele>426</ele>
        <time>2019-12-17T12:14:57.000Z</time>
      </trkpt>
      <trkpt lat="43.34446" lon="5.99376">
        <ele>427</ele>
        <time>2019-12-17T12:14:58.000Z</time>
      </trkpt>
      <trkpt lat="43.34445" lon="5.99377">
        <ele>427</ele>
        <time>2019-12-17T12:14:59.000Z</time>
      </trkpt>
      <trkpt lat="43.34445" lon="5.99377">
        <ele>427</ele>
        <time>2019-12-17T12:15:00.000Z</time>
      </trkpt>
      <trkpt lat="43.34444" lon="5.99378">
        <ele>427</ele>
        <time>2019-12-17T12:15:01.000Z</time>
      </trkpt>
      <trkpt lat="43.34443" lon="5.99379">
        <ele>427</ele>
        <time>2019-12-17T12:15:02.000Z</time>
      </trkpt>
      <trkpt lat="43.34442" lon="5.99379">
        <ele>427</ele>
        <time>2019-12-17T12:15:03.000Z</time>
      </trkpt>
      <trkpt lat="43.34441" lon="5.9938">
        <ele>428</ele>
        <time>2019-12-17T12:15:04.000Z</time>
      </trkpt>
      <trkpt lat="43.3444" lon="5.99381">
        <ele>428</ele>
        <time>2019-12-17T12:15:05.000Z</time>
      </trkpt>
      <trkpt lat="43.34439" lon="5.99381">
        <ele>428</ele>
        <time>2019-12-17T12:15:06.000Z</time>
      </trkpt>
      <trkpt lat="43.34438" lon="5.99382">
        <ele>428</ele>
        <time>2019-12-17T12:15:07.000Z</time>
      </trkpt>
      <trkpt lat="43.34438" lon="5.99383">
        <ele>428</ele>
        <time>2019-12-17T12:15:08.000Z</time>
      </trkpt>
      <trkpt lat="43.34437" lon="5.99384">
        <ele>428</ele>
        <time>2019-12-17T12:15:09.000Z</time>
      </trkpt>
      <trkpt lat="43.34436" lon="5.99385">
        <ele>429</ele>
        <time>2019-12-17T12:15:10.000Z</time>
      </trkpt>
      <trkpt lat="43.34435" lon="5.99386">
        <ele>429</ele>
        <time>2019-12-17T12:15:11.000Z</time>
      </trkpt>
      <trkpt lat="43.34433" lon="5.99386">
        <ele>429</ele>
        <time>2019-12-17T12:15:12.000Z</time>
      </trkpt>
      <trkpt lat="43.34433" lon="5.99387">
        <ele>429</ele>
        <time>2019-12-17T12:15:13.000Z</time>
      </trkpt>
      <trkpt lat="43.34432" lon="5.99388">
        <ele>429</ele>
        <time>2019-12-17T12:15:14.000Z</time>
      </trkpt>
      <trkpt lat="43.34431" lon="5.99389">
        <ele>429</ele>
        <time>2019-12-17T12:15:15.000Z</time>
      </trkpt>
      <trkpt lat="43.3443" lon="5.9939">
        <ele>429</ele>
        <time>2019-12-17T12:15:16.000Z</time>
      </trkpt>
      <trkpt lat="43.34429" lon="5.99391">
        <ele>429</ele>
        <time>2019-12-17T12:15:17.000Z</time>
      </trkpt>
      <trkpt lat="43.34428" lon="5.99391">
        <ele>429</ele>
        <time>2019-12-17T12:15:18.000Z</time>
      </trkpt>
      <trkpt lat="43.34427" lon="5.99392">
        <ele>429</ele>
        <time>2019-12-17T12:15:19.000Z</time>
      </trkpt>
      <trkpt lat="43.34426" lon="5.99392">
        <ele>429</ele>
        <time>2019-12-17T12:15:20.000Z</time>
      </trkpt>
      <trkpt lat="43.34425" lon="5.99393">
        <ele>429</ele>
        <time>2019-12-17T12:15:21.000Z</time>
      </trkpt>
      <trkpt lat="43.34424" lon="5.99393">
        <ele>430</ele>
        <time>2019-12-17T12:15:22.000Z</time>
      </trkpt>
      <trkpt lat="43.34423" lon="5.99394">
        <ele>430</ele>
        <time>2019-12-17T12:15:23.000Z</time>
      </trkpt>
      <trkpt lat="43.34422" lon="5.99395">
        <ele>430</ele>
        <time>2019-12-17T12:15:24.000Z</time>
      </trkpt>
      <trkpt lat="43.34422" lon="5.99395">
        <ele>430</ele>
        <time>2019-12-17T12:15:25.000Z</time>
      </trkpt>
      <trkpt lat="43.34421" lon="5.99396">
        <ele>430</ele>
        <time>2019-12-17T12:15:26.000Z</time>
      </trkpt>
      <trkpt lat="43.34421" lon="5.99397">
        <ele>430</ele>
        <time>2019-12-17T12:15:27.000Z</time>
      </trkpt>
      <trkpt lat="43.3442" lon="5.99398">
        <ele>430</ele>
        <time>2019-12-17T12:15:28.000Z</time>
      </trkpt>
      <trkpt lat="43.34419" lon="5.99398">
        <ele>430</ele>
        <time>2019-12-17T12:15:29.000Z</time>
      </trkpt>
      <trkpt lat="43.34418" lon="5.99399">
        <ele>430</ele>
        <time>2019-12-17T12:15:30.000Z</time>
      </trkpt>
      <trkpt lat="43.34417" lon="5.99399">
        <ele>430</ele>
        <time>2019-12-17T12:15:31.000Z</time>
      </trkpt>
      <trkpt lat="43.34416" lon="5.99399">
        <ele>430</ele>
        <time>2019-12-17T12:15:32.000Z</time>
      </trkpt>
      <trkpt lat="43.34415" lon="5.99399">
        <ele>430</ele>
        <time>2019-12-17T12:15:33.000Z</time>
      </trkpt>
      <trkpt lat="43.34414" lon="5.99398">
        <ele>430</ele>
        <time>2019-12-17T12:15:34.000Z</time>
      </trkpt>
      <trkpt lat="43.34413" lon="5.99398">
        <ele>430</ele>
        <time>2019-12-17T12:15:35.000Z</time>
      </trkpt>
      <trkpt lat="43.34412" lon="5.99397">
        <ele>430</ele>
        <time>2019-12-17T12:15:36.000Z</time>
      </trkpt>
      <trkpt lat="43.34411" lon="5.99396">
        <ele>431</ele>
        <time>2019-12-17T12:15:37.000Z</time>
      </trkpt>
      <trkpt lat="43.3441" lon="5.99395">
        <ele>431</ele>
        <time>2019-12-17T12:15:38.000Z</time>
      </trkpt>
      <trkpt lat="43.3441" lon="5.99394">
        <ele>431</ele>
        <time>2019-12-17T12:15:39.000Z</time>
      </trkpt>
      <trkpt lat="43.3441" lon="5.99393">
        <ele>430</ele>
        <time>2019-12-17T12:15:40.000Z</time>
      </trkpt>
      <trkpt lat="43.34409" lon="5.99392">
        <ele>430</ele>
        <time>2019-12-17T12:15:41.000Z</time>
      </trkpt>
      <trkpt lat="43.34409" lon="5.99391">
        <ele>430</ele>
        <time>2019-12-17T12:15:42.000Z</time>
      </trkpt>
      <trkpt lat="43.34409" lon="5.9939">
        <ele>430</ele>
        <time>2019-12-17T12:15:43.000Z</time>
      </trkpt>
      <trkpt lat="43.34409" lon="5.99389">
        <ele>430</ele>
        <time>2019-12-17T12:15:44.000Z</time>
      </trkpt>
      <trkpt lat="43.3441" lon="5.99388">
        <ele>430</ele>
        <time>2019-12-17T12:15:45.000Z</time>
      </trkpt>
      <trkpt lat="43.3441" lon="5.99388">
        <ele>430</ele>
        <time>2019-12-17T12:15:46.000Z</time>
      </trkpt>
      <trkpt lat="43.3441" lon="5.99387">
        <ele>430</ele>
        <time>2019-12-17T12:15:47.000Z</time>
      </trkpt>
      <trkpt lat="43.34411" lon="5.99386">
        <ele>430</ele>
        <time>2019-12-17T12:15:48.000Z</time>
      </trkpt>
      <trkpt lat="43.34411" lon="5.99385">
        <ele>430</ele>
        <time>2019-12-17T12:15:49.000Z</time>
      </trkpt>
      <trkpt lat="43.34411" lon="5.99384">
        <ele>430</ele>
        <time>2019-12-17T12:15:50.000Z</time>
      </trkpt>
      <trkpt lat="43.34412" lon="5.99383">
        <ele>430</ele>
        <time>2019-12-17T12:15:51.000Z</time>
      </trkpt>
      <trkpt lat="43.34412" lon="5.99383">
        <ele>430</ele>
        <time>2019-12-17T12:15:52.000Z</time>
      </trkpt>
      <trkpt lat="43.34412" lon="5.99382">
        <ele>430</ele>
        <time>2019-12-17T12:15:53.000Z</time>
      </trkpt>
      <trkpt lat="43.34412" lon="5.99381">
        <ele>430</ele>
        <time>2019-12-17T12:15:54.000Z</time>
      </trkpt>
      <trkpt lat="43.34413" lon="5.9938">
        <ele>431</ele>
        <time>2019-12-17T12:15:55.000Z</time>
      </trkpt>
      <trkpt lat="43.34413" lon="5.99379">
        <ele>431</ele>
        <time>2019-12-17T12:15:56.000Z</time>
      </trkpt>
      <trkpt lat="43.34414" lon="5.99379">
        <ele>431</ele>
        <time>2019-12-17T12:15:57.000Z</time>
      </trkpt>
      <trkpt lat="43.34414" lon="5.99378">
        <ele>431</ele>
        <time>2019-12-17T12:15:58.000Z</time>
      </trkpt>
      <trkpt lat="43.34414" lon="5.99377">
        <ele>431</ele>
        <time>2019-12-17T12:15:59.000Z</time>
      </trkpt>
      <trkpt lat="43.34414" lon="5.99376">
        <ele>431</ele>
        <time>2019-12-17T12:16:00.000Z</time>
      </trkpt>
      <trkpt lat="43.34414" lon="5.99376">
        <ele>431</ele>
        <time>2019-12-17T12:16:01.000Z</time>
      </trkpt>
      <trkpt lat="43.34414" lon="5.99375">
        <ele>431</ele>
        <time>2019-12-17T12:16:02.000Z</time>
      </trkpt>
      <trkpt lat="43.34414" lon="5.99374">
        <ele>431</ele>
        <time>2019-12-17T12:16:03.000Z</time>
      </trkpt>
      <trkpt lat="43.34415" lon="5.99373">
        <ele>432</ele>
        <time>2019-12-17T12:16:04.000Z</time>
      </trkpt>
      <trkpt lat="43.34415" lon="5.99373">
        <ele>432</ele>
        <time>2019-12-17T12:16:05.000Z</time>
      </trkpt>
      <trkpt lat="43.34415" lon="5.99372">
        <ele>432</ele>
        <time>2019-12-17T12:16:06.000Z</time>
      </trkpt>
      <trkpt lat="43.34415" lon="5.99371">
        <ele>432</ele>
        <time>2019-12-17T12:16:07.000Z</time>
      </trkpt>
      <trkpt lat="43.34416" lon="5.99371">
        <ele>432</ele>
        <time>2019-12-17T12:16:08.000Z</time>
      </trkpt>
      <trkpt lat="43.34416" lon="5.9937">
        <ele>432</ele>
        <time>2019-12-17T12:16:09.000Z</time>
      </trkpt>
      <trkpt lat="43.34416" lon="5.99369">
        <ele>432</ele>
        <time>2019-12-17T12:16:10.000Z</time>
      </trkpt>
      <trkpt lat="43.34417" lon="5.99368">
        <ele>432</ele>
        <time>2019-12-17T12:16:11.000Z</time>
      </trkpt>
      <trkpt lat="43.34417" lon="5.99367">
        <ele>432</ele>
        <time>2019-12-17T12:16:12.000Z</time>
      </trkpt>
      <trkpt lat="43.34417" lon="5.99366">
        <ele>433</ele>
        <time>2019-12-17T12:16:13.000Z</time>
      </trkpt>
      <trkpt lat="43.34418" lon="5.99365">
        <ele>433</ele>
        <time>2019-12-17T12:16:14.000Z</time>
      </trkpt>
      <trkpt lat="43.34418" lon="5.99364">
        <ele>433</ele>
        <time>2019-12-17T12:16:15.000Z</time>
      </trkpt>
      <trkpt lat="43.34419" lon="5.99363">
        <ele>433</ele>
        <time>2019-12-17T12:16:16.000Z</time>
      </trkpt>
      <trkpt lat="43.34419" lon="5.99362">
        <ele>433</ele>
        <time>2019-12-17T12:16:17.000Z</time>
      </trkpt>
      <trkpt lat="43.3442" lon="5.99361">
        <ele>433</ele>
        <time>2019-12-17T12:16:18.000Z</time>
      </trkpt>
      <trkpt lat="43.34421" lon="5.9936">
        <ele>433</ele>
        <time>2019-12-17T12:16:19.000Z</time>
      </trkpt>
      <trkpt lat="43.34421" lon="5.99359">
        <ele>434</ele>
        <time>2019-12-17T12:16:20.000Z</time>
      </trkpt>
      <trkpt lat="43.34421" lon="5.99358">
        <ele>434</ele>
        <time>2019-12-17T12:16:21.000Z</time>
      </trkpt>
      <trkpt lat="43.34421" lon="5.99357">
        <ele>434</ele>
        <time>2019-12-17T12:16:22.000Z</time>
      </trkpt>
      <trkpt lat="43.34422" lon="5.99356">
        <ele>434</ele>
        <time>2019-12-17T12:16:23.000Z</time>
      </trkpt>
      <trkpt lat="43.34422" lon="5.99355">
        <ele>434</ele>
        <time>2019-12-17T12:16:24.000Z</time>
      </trkpt>
      <trkpt lat="43.34423" lon="5.99354">
        <ele>434</ele>
        <time>2019-12-17T12:16:25.000Z</time>
      </trkpt>
      <trkpt lat="43.34424" lon="5.99353">
        <ele>434</ele>
        <time>2019-12-17T12:16:26.000Z</time>
      </trkpt>
      <trkpt lat="43.34424" lon="5.99352">
        <ele>434</ele>
        <time>2019-12-17T12:16:27.000Z</time>
      </trkpt>
      <trkpt lat="43.34425" lon="5.99351">
        <ele>434</ele>
        <time>2019-12-17T12:16:28.000Z</time>
      </trkpt>
      <trkpt lat="43.34426" lon="5.9935">
        <ele>434</ele>
        <time>2019-12-17T12:16:29.000Z</time>
      </trkpt>
      <trkpt lat="43.34427" lon="5.99348">
        <ele>434</ele>
        <time>2019-12-17T12:16:30.000Z</time>
      </trkpt>
      <trkpt lat="43.34428" lon="5.99347">
        <ele>434</ele>
        <time>2019-12-17T12:16:31.000Z</time>
      </trkpt>
      <trkpt lat="43.34429" lon="5.99346">
        <ele>434</ele>
        <time>2019-12-17T12:16:32.000Z</time>
      </trkpt>
      <trkpt lat="43.3443" lon="5.99345">
        <ele>434</ele>
        <time>2019-12-17T12:16:33.000Z</time>
      </trkpt>
      <trkpt lat="43.3443" lon="5.99344">
        <ele>434</ele>
        <time>2019-12-17T12:16:34.000Z</time>
      </trkpt>
      <trkpt lat="43.34431" lon="5.99343">
        <ele>434</ele>
        <time>2019-12-17T12:16:35.000Z</time>
      </trkpt>
      <trkpt lat="43.34432" lon="5.99342">
        <ele>434</ele>
        <time>2019-12-17T12:16:36.000Z</time>
      </trkpt>
      <trkpt lat="43.34433" lon="5.99342">
        <ele>435</ele>
        <time>2019-12-17T12:16:37.000Z</time>
      </trkpt>
      <trkpt lat="43.34433" lon="5.99341">
        <ele>435</ele>
        <time>2019-12-17T12:16:38.000Z</time>
      </trkpt>
      <trkpt lat="43.34434" lon="5.9934">
        <ele>435</ele>
        <time>2019-12-17T12:16:39.000Z</time>
      </trkpt>
      <trkpt lat="43.34434" lon="5.99339">
        <ele>435</ele>
        <time>2019-12-17T12:16:40.000Z</time>
      </trkpt>
      <trkpt lat="43.34435" lon="5.99338">
        <ele>435</ele>
        <time>2019-12-17T12:16:41.000Z</time>
      </trkpt>
      <trkpt lat="43.34436" lon="5.99337">
        <ele>435</ele>
        <time>2019-12-17T12:16:42.000Z</time>
      </trkpt>
      <trkpt lat="43.34436" lon="5.99336">
        <ele>435</ele>
        <time>2019-12-17T12:16:43.000Z</time>
      </trkpt>
      <trkpt lat="43.34437" lon="5.99335">
        <ele>435</ele>
        <time>2019-12-17T12:16:44.000Z</time>
      </trkpt>
      <trkpt lat="43.34437" lon="5.99334">
        <ele>435</ele>
        <time>2019-12-17T12:16:45.000Z</time>
      </trkpt>
      <trkpt lat="43.34438" lon="5.99333">
        <ele>435</ele>
        <time>2019-12-17T12:16:46.000Z</time>
      </trkpt>
      <trkpt lat="43.34438" lon="5.99332">
        <ele>435</ele>
        <time>2019-12-17T12:16:47.000Z</time>
      </trkpt>
      <trkpt lat="43.34438" lon="5.99331">
        <ele>435</ele>
        <time>2019-12-17T12:16:48.000Z</time>
      </trkpt>
      <trkpt lat="43.34439" lon="5.9933">
        <ele>435</ele>
        <time>2019-12-17T12:16:49.000Z</time>
      </trkpt>
      <trkpt lat="43.34439" lon="5.99329">
        <ele>435</ele>
        <time>2019-12-17T12:16:50.000Z</time>
      </trkpt>
      <trkpt lat="43.3444" lon="5.99328">
        <ele>435</ele>
        <time>2019-12-17T12:16:51.000Z</time>
      </trkpt>
      <trkpt lat="43.3444" lon="5.99327">
        <ele>435</ele>
        <time>2019-12-17T12:16:52.000Z</time>
      </trkpt>
      <trkpt lat="43.34441" lon="5.99326">
        <ele>435</ele>
        <time>2019-12-17T12:16:53.000Z</time>
      </trkpt>
      <trkpt lat="43.34442" lon="5.99324">
        <ele>435</ele>
        <time>2019-12-17T12:16:54.000Z</time>
      </trkpt>
      <trkpt lat="43.34443" lon="5.99323">
        <ele>435</ele>
        <time>2019-12-17T12:16:55.000Z</time>
      </trkpt>
      <trkpt lat="43.34444" lon="5.99322">
        <ele>435</ele>
        <time>2019-12-17T12:16:56.000Z</time>
      </trkpt>
      <trkpt lat="43.34445" lon="5.99321">
        <ele>435</ele>
        <time>2019-12-17T12:16:57.000Z</time>
      </trkpt>
      <trkpt lat="43.34445" lon="5.9932">
        <ele>435</ele>
        <time>2019-12-17T12:16:58.000Z</time>
      </trkpt>
      <trkpt lat="43.34446" lon="5.99319">
        <ele>435</ele>
        <time>2019-12-17T12:16:59.000Z</time>
      </trkpt>
      <trkpt lat="43.34447" lon="5.99319">
        <ele>435</ele>
        <time>2019-12-17T12:17:00.000Z</time>
      </trkpt>
      <trkpt lat="43.34447" lon="5.99318">
        <ele>435</ele>
        <time>2019-12-17T12:17:01.000Z</time>
      </trkpt>
      <trkpt lat="43.34448" lon="5.99317">
        <ele>435</ele>
        <time>2019-12-17T12:17:02.000Z</time>
      </trkpt>
      <trkpt lat="43.34449" lon="5.99316">
        <ele>435</ele>
        <time>2019-12-17T12:17:03.000Z</time>
      </trkpt>
      <trkpt lat="43.34449" lon="5.99315">
        <ele>435</ele>
        <time>2019-12-17T12:17:04.000Z</time>
      </trkpt>
      <trkpt lat="43.3445" lon="5.99313">
        <ele>435</ele>
        <time>2019-12-17T12:17:05.000Z</time>
      </trkpt>
      <trkpt lat="43.3445" lon="5.99312">
        <ele>436</ele>
        <time>2019-12-17T12:17:06.000Z</time>
      </trkpt>
      <trkpt lat="43.34451" lon="5.99311">
        <ele>436</ele>
        <time>2019-12-17T12:17:07.000Z</time>
      </trkpt>
      <trkpt lat="43.34451" lon="5.99309">
        <ele>436</ele>
        <time>2019-12-17T12:17:08.000Z</time>
      </trkpt>
      <trkpt lat="43.34452" lon="5.99308">
        <ele>436</ele>
        <time>2019-12-17T12:17:09.000Z</time>
      </trkpt>
      <trkpt lat="43.34452" lon="5.99307">
        <ele>436</ele>
        <time>2019-12-17T12:17:10.000Z</time>
      </trkpt>
      <trkpt lat="43.34453" lon="5.99306">
        <ele>437</ele>
        <time>2019-12-17T12:17:11.000Z</time>
      </trkpt>
      <trkpt lat="43.34453" lon="5.99305">
        <ele>437</ele>
        <time>2019-12-17T12:17:12.000Z</time>
      </trkpt>
      <trkpt lat="43.34453" lon="5.99304">
        <ele>437</ele>
        <time>2019-12-17T12:17:13.000Z</time>
      </trkpt>
      <trkpt lat="43.34454" lon="5.99302">
        <ele>437</ele>
        <time>2019-12-17T12:17:14.000Z</time>
      </trkpt>
      <trkpt lat="43.34454" lon="5.99301">
        <ele>437</ele>
        <time>2019-12-17T12:17:15.000Z</time>
      </trkpt>
      <trkpt lat="43.34455" lon="5.993">
        <ele>437</ele>
        <time>2019-12-17T12:17:16.000Z</time>
      </trkpt>
      <trkpt lat="43.34455" lon="5.99299">
        <ele>437</ele>
        <time>2019-12-17T12:17:17.000Z</time>
      </trkpt>
      <trkpt lat="43.34455" lon="5.99297">
        <ele>438</ele>
        <time>2019-12-17T12:17:18.000Z</time>
      </trkpt>
      <trkpt lat="43.34455" lon="5.99296">
        <ele>438</ele>
        <time>2019-12-17T12:17:19.000Z</time>
      </trkpt>
      <trkpt lat="43.34456" lon="5.99295">
        <ele>438</ele>
        <time>2019-12-17T12:17:20.000Z</time>
      </trkpt>
      <trkpt lat="43.34456" lon="5.99294">
        <ele>438</ele>
        <time>2019-12-17T12:17:21.000Z</time>
      </trkpt>
      <trkpt lat="43.34456" lon="5.99293">
        <ele>438</ele>
        <time>2019-12-17T12:17:22.000Z</time>
      </trkpt>
      <trkpt lat="43.34457" lon="5.99292">
        <ele>438</ele>
        <time>2019-12-17T12:17:23.000Z</time>
      </trkpt>
      <trkpt lat="43.34457" lon="5.99291">
        <ele>438</ele>
        <time>2019-12-17T12:17:24.000Z</time>
      </trkpt>
      <trkpt lat="43.34458" lon="5.9929">
        <ele>439</ele>
        <time>2019-12-17T12:17:25.000Z</time>
      </trkpt>
      <trkpt lat="43.34458" lon="5.99288">
        <ele>439</ele>
        <time>2019-12-17T12:17:26.000Z</time>
      </trkpt>
      <trkpt lat="43.34459" lon="5.99287">
        <ele>439</ele>
        <time>2019-12-17T12:17:27.000Z</time>
      </trkpt>
      <trkpt lat="43.34459" lon="5.99286">
        <ele>439</ele>
        <time>2019-12-17T12:17:28.000Z</time>
      </trkpt>
      <trkpt lat="43.34459" lon="5.99285">
        <ele>439</ele>
        <time>2019-12-17T12:17:29.000Z</time>
      </trkpt>
      <trkpt lat="43.3446" lon="5.99283">
        <ele>439</ele>
        <time>2019-12-17T12:17:30.000Z</time>
      </trkpt>
      <trkpt lat="43.3446" lon="5.99282">
        <ele>440</ele>
        <time>2019-12-17T12:17:31.000Z</time>
      </trkpt>
      <trkpt lat="43.34461" lon="5.99281">
        <ele>440</ele>
        <time>2019-12-17T12:17:32.000Z</time>
      </trkpt>
      <trkpt lat="43.34461" lon="5.9928">
        <ele>440</ele>
        <time>2019-12-17T12:17:33.000Z</time>
      </trkpt>
      <trkpt lat="43.34462" lon="5.99278">
        <ele>440</ele>
        <time>2019-12-17T12:17:34.000Z</time>
      </trkpt>
      <trkpt lat="43.34463" lon="5.99277">
        <ele>440</ele>
        <time>2019-12-17T12:17:35.000Z</time>
      </trkpt>
      <trkpt lat="43.34463" lon="5.99276">
        <ele>440</ele>
        <time>2019-12-17T12:17:36.000Z</time>
      </trkpt>
      <trkpt lat="43.34464" lon="5.99274">
        <ele>441</ele>
        <time>2019-12-17T12:17:37.000Z</time>
      </trkpt>
      <trkpt lat="43.34464" lon="5.99273">
        <ele>441</ele>
        <time>2019-12-17T12:17:38.000Z</time>
      </trkpt>
      <trkpt lat="43.34465" lon="5.99272">
        <ele>441</ele>
        <time>2019-12-17T12:17:39.000Z</time>
      </trkpt>
      <trkpt lat="43.34465" lon="5.99271">
        <ele>441</ele>
        <time>2019-12-17T12:17:40.000Z</time>
      </trkpt>
      <trkpt lat="43.34465" lon="5.9927">
        <ele>441</ele>
        <time>2019-12-17T12:17:41.000Z</time>
      </trkpt>
      <trkpt lat="43.34466" lon="5.99268">
        <ele>441</ele>
        <time>2019-12-17T12:17:42.000Z</time>
      </trkpt>
      <trkpt lat="43.34466" lon="5.99267">
        <ele>441</ele>
        <time>2019-12-17T12:17:43.000Z</time>
      </trkpt>
      <trkpt lat="43.34466" lon="5.99266">
        <ele>442</ele>
        <time>2019-12-17T12:17:44.000Z</time>
      </trkpt>
      <trkpt lat="43.34466" lon="5.99265">
        <ele>442</ele>
        <time>2019-12-17T12:17:45.000Z</time>
      </trkpt>
      <trkpt lat="43.34467" lon="5.99263">
        <ele>442</ele>
        <time>2019-12-17T12:17:46.000Z</time>
      </trkpt>
      <trkpt lat="43.34467" lon="5.99262">
        <ele>442</ele>
        <time>2019-12-17T12:17:47.000Z</time>
      </trkpt>
      <trkpt lat="43.34468" lon="5.99261">
        <ele>442</ele>
        <time>2019-12-17T12:17:48.000Z</time>
      </trkpt>
      <trkpt lat="43.34468" lon="5.9926">
        <ele>442</ele>
        <time>2019-12-17T12:17:49.000Z</time>
      </trkpt>
      <trkpt lat="43.34468" lon="5.99259">
        <ele>443</ele>
        <time>2019-12-17T12:17:50.000Z</time>
      </trkpt>
      <trkpt lat="43.34469" lon="5.99258">
        <ele>443</ele>
        <time>2019-12-17T12:17:51.000Z</time>
      </trkpt>
      <trkpt lat="43.3447" lon="5.99257">
        <ele>443</ele>
        <time>2019-12-17T12:17:52.000Z</time>
      </trkpt>
      <trkpt lat="43.3447" lon="5.99256">
        <ele>443</ele>
        <time>2019-12-17T12:17:53.000Z</time>
      </trkpt>
      <trkpt lat="43.3447" lon="5.99255">
        <ele>444</ele>
        <time>2019-12-17T12:17:54.000Z</time>
      </trkpt>
      <trkpt lat="43.3447" lon="5.99255">
        <ele>444</ele>
        <time>2019-12-17T12:17:55.000Z</time>
      </trkpt>
      <trkpt lat="43.34469" lon="5.99255">
        <ele>444</ele>
        <time>2019-12-17T12:17:56.000Z</time>
      </trkpt>
      <trkpt lat="43.34469" lon="5.99255">
        <ele>444</ele>
        <time>2019-12-17T12:17:57.000Z</time>
      </trkpt>
      <trkpt lat="43.34469" lon="5.99254">
        <ele>444</ele>
        <time>2019-12-17T12:17:58.000Z</time>
      </trkpt>
      <trkpt lat="43.34469" lon="5.99253">
        <ele>444</ele>
        <time>2019-12-17T12:17:59.000Z</time>
      </trkpt>
      <trkpt lat="43.34468" lon="5.99252">
        <ele>445</ele>
        <time>2019-12-17T12:18:00.000Z</time>
      </trkpt>
      <trkpt lat="43.34468" lon="5.99251">
        <ele>445</ele>
        <time>2019-12-17T12:18:01.000Z</time>
      </trkpt>
      <trkpt lat="43.34468" lon="5.9925">
        <ele>445</ele>
        <time>2019-12-17T12:18:02.000Z</time>
      </trkpt>
      <trkpt lat="43.34467" lon="5.99249">
        <ele>445</ele>
        <time>2019-12-17T12:18:03.000Z</time>
      </trkpt>
      <trkpt lat="43.34467" lon="5.99248">
        <ele>445</ele>
        <time>2019-12-17T12:18:04.000Z</time>
      </trkpt>
      <trkpt lat="43.34467" lon="5.99247">
        <ele>445</ele>
        <time>2019-12-17T12:18:05.000Z</time>
      </trkpt>
      <trkpt lat="43.34467" lon="5.99246">
        <ele>445</ele>
        <time>2019-12-17T12:18:06.000Z</time>
      </trkpt>
      <trkpt lat="43.34466" lon="5.99246">
        <ele>445</ele>
        <time>2019-12-17T12:18:07.000Z</time>
      </trkpt>
      <trkpt lat="43.34466" lon="5.99245">
        <ele>445</ele>
        <time>2019-12-17T12:18:08.000Z</time>
      </trkpt>
      <trkpt lat="43.34466" lon="5.99245">
        <ele>445</ele>
        <time>2019-12-17T12:18:09.000Z</time>
      </trkpt>
      <trkpt lat="43.34466" lon="5.99245">
        <ele>445</ele>
        <time>2019-12-17T12:18:10.000Z</time>
      </trkpt>
      <trkpt lat="43.34466" lon="5.99245">
        <ele>445</ele>
        <time>2019-12-17T12:18:11.000Z</time>
      </trkpt>
      <trkpt lat="43.34466" lon="5.99245">
        <ele>445</ele>
        <time>2019-12-17T12:18:12.000Z</time>
      </trkpt>
      <trkpt lat="43.34466" lon="5.99245">
        <ele>445</ele>
        <time>2019-12-17T12:18:13.000Z</time>
      </trkpt>
      <trkpt lat="43.34466" lon="5.99245">
        <ele>445</ele>
        <time>2019-12-17T12:18:14.000Z</time>
      </trkpt>
      <trkpt lat="43.34466" lon="5.99245">
        <ele>445</ele>
        <time>2019-12-17T12:18:15.000Z</time>
      </trkpt>
      <trkpt lat="43.34466" lon="5.99244">
        <ele>445</ele>
        <time>2019-12-17T12:18:16.000Z</time>
      </trkpt>
      <trkpt lat="43.34466" lon="5.99244">
        <ele>445</ele>
        <time>2019-12-17T12:18:17.000Z</time>
      </trkpt>
      <trkpt lat="43.34466" lon="5.99244">
        <ele>445</ele>
        <time>2019-12-17T12:18:18.000Z</time>
      </trkpt>
      <trkpt lat="43.34466" lon="5.99243">
        <ele>445</ele>
        <time>2019-12-17T12:18:19.000Z</time>
      </trkpt>
      <trkpt lat="43.34466" lon="5.99243">
        <ele>445</ele>
        <time>2019-12-17T12:18:20.000Z</time>
      </trkpt>
      <trkpt lat="43.34466" lon="5.99243">
        <ele>445</ele>
        <time>2019-12-17T12:18:21.000Z</time>
      </trkpt>
      <trkpt lat="43.34466" lon="5.99242">
        <ele>445</ele>
        <time>2019-12-17T12:18:22.000Z</time>
      </trkpt>
      <trkpt lat="43.34465" lon="5.99241">
        <ele>445</ele>
        <time>2019-12-17T12:18:23.000Z</time>
      </trkpt>
      <trkpt lat="43.34465" lon="5.99241">
        <ele>445</ele>
        <time>2019-12-17T12:18:24.000Z</time>
      </trkpt>
      <trkpt lat="43.34465" lon="5.9924">
        <ele>445</ele>
        <time>2019-12-17T12:18:25.000Z</time>
      </trkpt>
      <trkpt lat="43.34465" lon="5.99239">
        <ele>445</ele>
        <time>2019-12-17T12:18:26.000Z</time>
      </trkpt>
      <trkpt lat="43.34464" lon="5.99239">
        <ele>445</ele>
        <time>2019-12-17T12:18:27.000Z</time>
      </trkpt>
      <trkpt lat="43.34464" lon="5.99238">
        <ele>445</ele>
        <time>2019-12-17T12:18:28.000Z</time>
      </trkpt>
      <trkpt lat="43.34464" lon="5.99237">
        <ele>445</ele>
        <time>2019-12-17T12:18:29.000Z</time>
      </trkpt>
      <trkpt lat="43.34463" lon="5.99237">
        <ele>445</ele>
        <time>2019-12-17T12:18:30.000Z</time>
      </trkpt>
      <trkpt lat="43.34462" lon="5.99236">
        <ele>445</ele>
        <time>2019-12-17T12:18:31.000Z</time>
      </trkpt>
      <trkpt lat="43.34462" lon="5.99235">
        <ele>445</ele>
        <time>2019-12-17T12:18:32.000Z</time>
      </trkpt>
      <trkpt lat="43.34461" lon="5.99234">
        <ele>445</ele>
        <time>2019-12-17T12:18:33.000Z</time>
      </trkpt>
      <trkpt lat="43.3446" lon="5.99233">
        <ele>445</ele>
        <time>2019-12-17T12:18:34.000Z</time>
      </trkpt>
      <trkpt lat="43.3446" lon="5.99232">
        <ele>445</ele>
        <time>2019-12-17T12:18:35.000Z</time>
      </trkpt>
      <trkpt lat="43.34459" lon="5.99231">
        <ele>445</ele>
        <time>2019-12-17T12:18:36.000Z</time>
      </trkpt>
      <trkpt lat="43.34459" lon="5.9923">
        <ele>444</ele>
        <time>2019-12-17T12:18:37.000Z</time>
      </trkpt>
      <trkpt lat="43.34459" lon="5.99229">
        <ele>444</ele>
        <time>2019-12-17T12:18:38.000Z</time>
      </trkpt>
      <trkpt lat="43.34458" lon="5.99229">
        <ele>444</ele>
        <time>2019-12-17T12:18:39.000Z</time>
      </trkpt>
      <trkpt lat="43.34458" lon="5.99228">
        <ele>444</ele>
        <time>2019-12-17T12:18:40.000Z</time>
      </trkpt>
      <trkpt lat="43.34458" lon="5.99227">
        <ele>444</ele>
        <time>2019-12-17T12:18:41.000Z</time>
      </trkpt>
      <trkpt lat="43.34457" lon="5.99226">
        <ele>444</ele>
        <time>2019-12-17T12:18:42.000Z</time>
      </trkpt>
      <trkpt lat="43.34457" lon="5.99225">
        <ele>444</ele>
        <time>2019-12-17T12:18:43.000Z</time>
      </trkpt>
      <trkpt lat="43.34457" lon="5.99224">
        <ele>443</ele>
        <time>2019-12-17T12:18:44.000Z</time>
      </trkpt>
      <trkpt lat="43.34457" lon="5.99223">
        <ele>443</ele>
        <time>2019-12-17T12:18:45.000Z</time>
      </trkpt>
      <trkpt lat="43.34457" lon="5.99222">
        <ele>443</ele>
        <time>2019-12-17T12:18:46.000Z</time>
      </trkpt>
      <trkpt lat="43.34457" lon="5.99221">
        <ele>443</ele>
        <time>2019-12-17T12:18:47.000Z</time>
      </trkpt>
      <trkpt lat="43.34457" lon="5.9922">
        <ele>443</ele>
        <time>2019-12-17T12:18:48.000Z</time>
      </trkpt>
      <trkpt lat="43.34457" lon="5.99218">
        <ele>443</ele>
        <time>2019-12-17T12:18:49.000Z</time>
      </trkpt>
      <trkpt lat="43.34457" lon="5.99217">
        <ele>443</ele>
        <time>2019-12-17T12:18:50.000Z</time>
      </trkpt>
      <trkpt lat="43.34458" lon="5.99216">
        <ele>442</ele>
        <time>2019-12-17T12:18:51.000Z</time>
      </trkpt>
      <trkpt lat="43.34458" lon="5.99215">
        <ele>442</ele>
        <time>2019-12-17T12:18:52.000Z</time>
      </trkpt>
      <trkpt lat="43.34458" lon="5.99214">
        <ele>442</ele>
        <time>2019-12-17T12:18:53.000Z</time>
      </trkpt>
      <trkpt lat="43.34459" lon="5.99212">
        <ele>442</ele>
        <time>2019-12-17T12:18:54.000Z</time>
      </trkpt>
      <trkpt lat="43.3446" lon="5.99212">
        <ele>442</ele>
        <time>2019-12-17T12:18:55.000Z</time>
      </trkpt>
      <trkpt lat="43.3446" lon="5.99211">
        <ele>442</ele>
        <time>2019-12-17T12:18:56.000Z</time>
      </trkpt>
      <trkpt lat="43.34461" lon="5.9921">
        <ele>442</ele>
        <time>2019-12-17T12:18:57.000Z</time>
      </trkpt>
      <trkpt lat="43.34461" lon="5.99208">
        <ele>442</ele>
        <time>2019-12-17T12:18:58.000Z</time>
      </trkpt>
      <trkpt lat="43.34461" lon="5.99207">
        <ele>442</ele>
        <time>2019-12-17T12:18:59.000Z</time>
      </trkpt>
      <trkpt lat="43.34461" lon="5.99206">
        <ele>442</ele>
        <time>2019-12-17T12:19:00.000Z</time>
      </trkpt>
      <trkpt lat="43.34461" lon="5.99205">
        <ele>442</ele>
        <time>2019-12-17T12:19:01.000Z</time>
      </trkpt>
      <trkpt lat="43.34461" lon="5.99203">
        <ele>442</ele>
        <time>2019-12-17T12:19:02.000Z</time>
      </trkpt>
      <trkpt lat="43.34461" lon="5.99202">
        <ele>441</ele>
        <time>2019-12-17T12:19:03.000Z</time>
      </trkpt>
      <trkpt lat="43.34461" lon="5.99201">
        <ele>441</ele>
        <time>2019-12-17T12:19:04.000Z</time>
      </trkpt>
      <trkpt lat="43.34461" lon="5.992">
        <ele>441</ele>
        <time>2019-12-17T12:19:05.000Z</time>
      </trkpt>
      <trkpt lat="43.34462" lon="5.99199">
        <ele>441</ele>
        <time>2019-12-17T12:19:06.000Z</time>
      </trkpt>
      <trkpt lat="43.34462" lon="5.99197">
        <ele>441</ele>
        <time>2019-12-17T12:19:07.000Z</time>
      </trkpt>
      <trkpt lat="43.34463" lon="5.99196">
        <ele>441</ele>
        <time>2019-12-17T12:19:08.000Z</time>
      </trkpt>
      <trkpt lat="43.34463" lon="5.99195">
        <ele>441</ele>
        <time>2019-12-17T12:19:09.000Z</time>
      </trkpt>
      <trkpt lat="43.34463" lon="5.99194">
        <ele>441</ele>
        <time>2019-12-17T12:19:10.000Z</time>
      </trkpt>
      <trkpt lat="43.34464" lon="5.99192">
        <ele>441</ele>
        <time>2019-12-17T12:19:11.000Z</time>
      </trkpt>
      <trkpt lat="43.34464" lon="5.99191">
        <ele>441</ele>
        <time>2019-12-17T12:19:12.000Z</time>
      </trkpt>
      <trkpt lat="43.34464" lon="5.9919">
        <ele>441</ele>
        <time>2019-12-17T12:19:13.000Z</time>
      </trkpt>
      <trkpt lat="43.34465" lon="5.99189">
        <ele>441</ele>
        <time>2019-12-17T12:19:14.000Z</time>
      </trkpt>
      <trkpt lat="43.34466" lon="5.99188">
        <ele>441</ele>
        <time>2019-12-17T12:19:15.000Z</time>
      </trkpt>
      <trkpt lat="43.34466" lon="5.99187">
        <ele>441</ele>
        <time>2019-12-17T12:19:16.000Z</time>
      </trkpt>
      <trkpt lat="43.34467" lon="5.99186">
        <ele>440</ele>
        <time>2019-12-17T12:19:17.000Z</time>
      </trkpt>
      <trkpt lat="43.34467" lon="5.99185">
        <ele>440</ele>
        <time>2019-12-17T12:19:18.000Z</time>
      </trkpt>
      <trkpt lat="43.34467" lon="5.99184">
        <ele>440</ele>
        <time>2019-12-17T12:19:19.000Z</time>
      </trkpt>
      <trkpt lat="43.34467" lon="5.99183">
        <ele>440</ele>
        <time>2019-12-17T12:19:20.000Z</time>
      </trkpt>
      <trkpt lat="43.34467" lon="5.99181">
        <ele>440</ele>
        <time>2019-12-17T12:19:21.000Z</time>
      </trkpt>
      <trkpt lat="43.34467" lon="5.99179">
        <ele>440</ele>
        <time>2019-12-17T12:19:22.000Z</time>
      </trkpt>
      <trkpt lat="43.34467" lon="5.99178">
        <ele>440</ele>
        <time>2019-12-17T12:19:23.000Z</time>
      </trkpt>
      <trkpt lat="43.34466" lon="5.99177">
        <ele>440</ele>
        <time>2019-12-17T12:19:24.000Z</time>
      </trkpt>
      <trkpt lat="43.34467" lon="5.99175">
        <ele>439</ele>
        <time>2019-12-17T12:19:25.000Z</time>
      </trkpt>
      <trkpt lat="43.34466" lon="5.99174">
        <ele>439</ele>
        <time>2019-12-17T12:19:26.000Z</time>
      </trkpt>
      <trkpt lat="43.34466" lon="5.99173">
        <ele>439</ele>
        <time>2019-12-17T12:19:27.000Z</time>
      </trkpt>
      <trkpt lat="43.34466" lon="5.99171">
        <ele>439</ele>
        <time>2019-12-17T12:19:28.000Z</time>
      </trkpt>
      <trkpt lat="43.34466" lon="5.9917">
        <ele>439</ele>
        <time>2019-12-17T12:19:29.000Z</time>
      </trkpt>
      <trkpt lat="43.34466" lon="5.99169">
        <ele>439</ele>
        <time>2019-12-17T12:19:30.000Z</time>
      </trkpt>
      <trkpt lat="43.34466" lon="5.99167">
        <ele>439</ele>
        <time>2019-12-17T12:19:31.000Z</time>
      </trkpt>
      <trkpt lat="43.34466" lon="5.99166">
        <ele>438</ele>
        <time>2019-12-17T12:19:32.000Z</time>
      </trkpt>
      <trkpt lat="43.34466" lon="5.99165">
        <ele>438</ele>
        <time>2019-12-17T12:19:33.000Z</time>
      </trkpt>
      <trkpt lat="43.34466" lon="5.99164">
        <ele>438</ele>
        <time>2019-12-17T12:19:34.000Z</time>
      </trkpt>
      <trkpt lat="43.34466" lon="5.99162">
        <ele>438</ele>
        <time>2019-12-17T12:19:35.000Z</time>
      </trkpt>
      <trkpt lat="43.34466" lon="5.99161">
        <ele>438</ele>
        <time>2019-12-17T12:19:36.000Z</time>
      </trkpt>
      <trkpt lat="43.34466" lon="5.9916">
        <ele>438</ele>
        <time>2019-12-17T12:19:37.000Z</time>
      </trkpt>
      <trkpt lat="43.34467" lon="5.99159">
        <ele>438</ele>
        <time>2019-12-17T12:19:38.000Z</time>
      </trkpt>
      <trkpt lat="43.34467" lon="5.99158">
        <ele>437</ele>
        <time>2019-12-17T12:19:39.000Z</time>
      </trkpt>
      <trkpt lat="43.34468" lon="5.99157">
        <ele>437</ele>
        <time>2019-12-17T12:19:40.000Z</time>
      </trkpt>
      <trkpt lat="43.34468" lon="5.99155">
        <ele>437</ele>
        <time>2019-12-17T12:19:41.000Z</time>
      </trkpt>
      <trkpt lat="43.34469" lon="5.99154">
        <ele>437</ele>
        <time>2019-12-17T12:19:42.000Z</time>
      </trkpt>
      <trkpt lat="43.34469" lon="5.99152">
        <ele>437</ele>
        <time>2019-12-17T12:19:43.000Z</time>
      </trkpt>
      <trkpt lat="43.34469" lon="5.9915">
        <ele>437</ele>
        <time>2019-12-17T12:19:44.000Z</time>
      </trkpt>
      <trkpt lat="43.34469" lon="5.99149">
        <ele>437</ele>
        <time>2019-12-17T12:19:45.000Z</time>
      </trkpt>
      <trkpt lat="43.34469" lon="5.99148">
        <ele>437</ele>
        <time>2019-12-17T12:19:46.000Z</time>
      </trkpt>
      <trkpt lat="43.3447" lon="5.99147">
        <ele>437</ele>
        <time>2019-12-17T12:19:47.000Z</time>
      </trkpt>
      <trkpt lat="43.3447" lon="5.99146">
        <ele>436</ele>
        <time>2019-12-17T12:19:48.000Z</time>
      </trkpt>
      <trkpt lat="43.34471" lon="5.99145">
        <ele>436</ele>
        <time>2019-12-17T12:19:49.000Z</time>
      </trkpt>
      <trkpt lat="43.34471" lon="5.99144">
        <ele>436</ele>
        <time>2019-12-17T12:19:50.000Z</time>
      </trkpt>
      <trkpt lat="43.34471" lon="5.99143">
        <ele>436</ele>
        <time>2019-12-17T12:19:51.000Z</time>
      </trkpt>
      <trkpt lat="43.34471" lon="5.99142">
        <ele>436</ele>
        <time>2019-12-17T12:19:52.000Z</time>
      </trkpt>
      <trkpt lat="43.3447" lon="5.9914">
        <ele>436</ele>
        <time>2019-12-17T12:19:53.000Z</time>
      </trkpt>
      <trkpt lat="43.3447" lon="5.99139">
        <ele>436</ele>
        <time>2019-12-17T12:19:54.000Z</time>
      </trkpt>
      <trkpt lat="43.3447" lon="5.99138">
        <ele>436</ele>
        <time>2019-12-17T12:19:55.000Z</time>
      </trkpt>
      <trkpt lat="43.3447" lon="5.99136">
        <ele>435</ele>
        <time>2019-12-17T12:19:56.000Z</time>
      </trkpt>
      <trkpt lat="43.3447" lon="5.99135">
        <ele>435</ele>
        <time>2019-12-17T12:19:57.000Z</time>
      </trkpt>
      <trkpt lat="43.3447" lon="5.99134">
        <ele>435</ele>
        <time>2019-12-17T12:19:58.000Z</time>
      </trkpt>
      <trkpt lat="43.3447" lon="5.99133">
        <ele>435</ele>
        <time>2019-12-17T12:19:59.000Z</time>
      </trkpt>
      <trkpt lat="43.3447" lon="5.99132">
        <ele>435</ele>
        <time>2019-12-17T12:20:00.000Z</time>
      </trkpt>
      <trkpt lat="43.3447" lon="5.9913">
        <ele>435</ele>
        <time>2019-12-17T12:20:01.000Z</time>
      </trkpt>
      <trkpt lat="43.34471" lon="5.99129">
        <ele>435</ele>
        <time>2019-12-17T12:20:02.000Z</time>
      </trkpt>
      <trkpt lat="43.34471" lon="5.99128">
        <ele>435</ele>
        <time>2019-12-17T12:20:03.000Z</time>
      </trkpt>
      <trkpt lat="43.34471" lon="5.99127">
        <ele>435</ele>
        <time>2019-12-17T12:20:04.000Z</time>
      </trkpt>
      <trkpt lat="43.34471" lon="5.99126">
        <ele>435</ele>
        <time>2019-12-17T12:20:05.000Z</time>
      </trkpt>
      <trkpt lat="43.34472" lon="5.99125">
        <ele>435</ele>
        <time>2019-12-17T12:20:06.000Z</time>
      </trkpt>
      <trkpt lat="43.34472" lon="5.99124">
        <ele>435</ele>
        <time>2019-12-17T12:20:07.000Z</time>
      </trkpt>
      <trkpt lat="43.34472" lon="5.99123">
        <ele>435</ele>
        <time>2019-12-17T12:20:08.000Z</time>
      </trkpt>
      <trkpt lat="43.34472" lon="5.99121">
        <ele>435</ele>
        <time>2019-12-17T12:20:09.000Z</time>
      </trkpt>
      <trkpt lat="43.34472" lon="5.9912">
        <ele>434</ele>
        <time>2019-12-17T12:20:10.000Z</time>
      </trkpt>
      <trkpt lat="43.34472" lon="5.99118">
        <ele>434</ele>
        <time>2019-12-17T12:20:11.000Z</time>
      </trkpt>
      <trkpt lat="43.34472" lon="5.99118">
        <ele>434</ele>
        <time>2019-12-17T12:20:13.000Z</time>
      </trkpt>
      <trkpt lat="43.34472" lon="5.99118">
        <ele>434</ele>
        <time>2019-12-17T12:20:14.000Z</time>
      </trkpt>
      <trkpt lat="43.34471" lon="5.99112">
        <ele>434</ele>
        <time>2019-12-17T12:20:15.000Z</time>
      </trkpt>
      <trkpt lat="43.34471" lon="5.9911">
        <ele>434</ele>
        <time>2019-12-17T12:20:16.000Z</time>
      </trkpt>
      <trkpt lat="43.34472" lon="5.99109">
        <ele>434</ele>
        <time>2019-12-17T12:20:17.000Z</time>
      </trkpt>
      <trkpt lat="43.34472" lon="5.99107">
        <ele>433</ele>
        <time>2019-12-17T12:20:18.000Z</time>
      </trkpt>
      <trkpt lat="43.34472" lon="5.99106">
        <ele>433</ele>
        <time>2019-12-17T12:20:19.000Z</time>
      </trkpt>
      <trkpt lat="43.34472" lon="5.99105">
        <ele>432</ele>
        <time>2019-12-17T12:20:20.000Z</time>
      </trkpt>
      <trkpt lat="43.34472" lon="5.99104">
        <ele>432</ele>
        <time>2019-12-17T12:20:21.000Z</time>
      </trkpt>
      <trkpt lat="43.34471" lon="5.99103">
        <ele>432</ele>
        <time>2019-12-17T12:20:22.000Z</time>
      </trkpt>
      <trkpt lat="43.34471" lon="5.99102">
        <ele>431</ele>
        <time>2019-12-17T12:20:23.000Z</time>
      </trkpt>
      <trkpt lat="43.34471" lon="5.99101">
        <ele>431</ele>
        <time>2019-12-17T12:20:24.000Z</time>
      </trkpt>
      <trkpt lat="43.34472" lon="5.99099">
        <ele>430</ele>
        <time>2019-12-17T12:20:25.000Z</time>
      </trkpt>
      <trkpt lat="43.34473" lon="5.99098">
        <ele>430</ele>
        <time>2019-12-17T12:20:26.000Z</time>
      </trkpt>
      <trkpt lat="43.34473" lon="5.99097">
        <ele>430</ele>
        <time>2019-12-17T12:20:27.000Z</time>
      </trkpt>
      <trkpt lat="43.34473" lon="5.99096">
        <ele>430</ele>
        <time>2019-12-17T12:20:28.000Z</time>
      </trkpt>
      <trkpt lat="43.34473" lon="5.99095">
        <ele>430</ele>
        <time>2019-12-17T12:20:29.000Z</time>
      </trkpt>
      <trkpt lat="43.34473" lon="5.99094">
        <ele>430</ele>
        <time>2019-12-17T12:20:30.000Z</time>
      </trkpt>
      <trkpt lat="43.34472" lon="5.99093">
        <ele>429</ele>
        <time>2019-12-17T12:20:31.000Z</time>
      </trkpt>
      <trkpt lat="43.34472" lon="5.99091">
        <ele>429</ele>
        <time>2019-12-17T12:20:32.000Z</time>
      </trkpt>
      <trkpt lat="43.34472" lon="5.9909">
        <ele>428</ele>
        <time>2019-12-17T12:20:33.000Z</time>
      </trkpt>
      <trkpt lat="43.34471" lon="5.99088">
        <ele>428</ele>
        <time>2019-12-17T12:20:34.000Z</time>
      </trkpt>
      <trkpt lat="43.34471" lon="5.99087">
        <ele>427</ele>
        <time>2019-12-17T12:20:35.000Z</time>
      </trkpt>
      <trkpt lat="43.3447" lon="5.99086">
        <ele>427</ele>
        <time>2019-12-17T12:20:36.000Z</time>
      </trkpt>
      <trkpt lat="43.3447" lon="5.99084">
        <ele>426</ele>
        <time>2019-12-17T12:20:37.000Z</time>
      </trkpt>
      <trkpt lat="43.3447" lon="5.99083">
        <ele>426</ele>
        <time>2019-12-17T12:20:38.000Z</time>
      </trkpt>
      <trkpt lat="43.34471" lon="5.99082">
        <ele>425</ele>
        <time>2019-12-17T12:20:39.000Z</time>
      </trkpt>
      <trkpt lat="43.34471" lon="5.9908">
        <ele>424</ele>
        <time>2019-12-17T12:20:40.000Z</time>
      </trkpt>
      <trkpt lat="43.3447" lon="5.99079">
        <ele>424</ele>
        <time>2019-12-17T12:20:41.000Z</time>
      </trkpt>
      <trkpt lat="43.3447" lon="5.99078">
        <ele>423</ele>
        <time>2019-12-17T12:20:42.000Z</time>
      </trkpt>
      <trkpt lat="43.34469" lon="5.99076">
        <ele>422</ele>
        <time>2019-12-17T12:20:43.000Z</time>
      </trkpt>
      <trkpt lat="43.34469" lon="5.99075">
        <ele>422</ele>
        <time>2019-12-17T12:20:44.000Z</time>
      </trkpt>
      <trkpt lat="43.34468" lon="5.99074">
        <ele>421</ele>
        <time>2019-12-17T12:20:45.000Z</time>
      </trkpt>
      <trkpt lat="43.34468" lon="5.99072">
        <ele>421</ele>
        <time>2019-12-17T12:20:46.000Z</time>
      </trkpt>
      <trkpt lat="43.34468" lon="5.99071">
        <ele>421</ele>
        <time>2019-12-17T12:20:47.000Z</time>
      </trkpt>
      <trkpt lat="43.34467" lon="5.9907">
        <ele>421</ele>
        <time>2019-12-17T12:20:48.000Z</time>
      </trkpt>
      <trkpt lat="43.34467" lon="5.99068">
        <ele>421</ele>
        <time>2019-12-17T12:20:49.000Z</time>
      </trkpt>
      <trkpt lat="43.34467" lon="5.99067">
        <ele>422</ele>
        <time>2019-12-17T12:20:50.000Z</time>
      </trkpt>
      <trkpt lat="43.34467" lon="5.99065">
        <ele>422</ele>
        <time>2019-12-17T12:20:51.000Z</time>
      </trkpt>
      <trkpt lat="43.34467" lon="5.99063">
        <ele>422</ele>
        <time>2019-12-17T12:20:52.000Z</time>
      </trkpt>
      <trkpt lat="43.34467" lon="5.99062">
        <ele>423</ele>
        <time>2019-12-17T12:20:53.000Z</time>
      </trkpt>
      <trkpt lat="43.34467" lon="5.9906">
        <ele>423</ele>
        <time>2019-12-17T12:20:54.000Z</time>
      </trkpt>
      <trkpt lat="43.34467" lon="5.99059">
        <ele>423</ele>
        <time>2019-12-17T12:20:55.000Z</time>
      </trkpt>
      <trkpt lat="43.34466" lon="5.99058">
        <ele>423</ele>
        <time>2019-12-17T12:20:56.000Z</time>
      </trkpt>
      <trkpt lat="43.34466" lon="5.99057">
        <ele>424</ele>
        <time>2019-12-17T12:20:57.000Z</time>
      </trkpt>
      <trkpt lat="43.34466" lon="5.99055">
        <ele>424</ele>
        <time>2019-12-17T12:20:58.000Z</time>
      </trkpt>
      <trkpt lat="43.34466" lon="5.99054">
        <ele>424</ele>
        <time>2019-12-17T12:20:59.000Z</time>
      </trkpt>
      <trkpt lat="43.34466" lon="5.99052">
        <ele>424</ele>
        <time>2019-12-17T12:21:00.000Z</time>
      </trkpt>
      <trkpt lat="43.34467" lon="5.99051">
        <ele>424</ele>
        <time>2019-12-17T12:21:01.000Z</time>
      </trkpt>
      <trkpt lat="43.34468" lon="5.9905">
        <ele>424</ele>
        <time>2019-12-17T12:21:02.000Z</time>
      </trkpt>
      <trkpt lat="43.34469" lon="5.99049">
        <ele>424</ele>
        <time>2019-12-17T12:21:03.000Z</time>
      </trkpt>
      <trkpt lat="43.3447" lon="5.99047">
        <ele>424</ele>
        <time>2019-12-17T12:21:04.000Z</time>
      </trkpt>
      <trkpt lat="43.34471" lon="5.99046">
        <ele>424</ele>
        <time>2019-12-17T12:21:05.000Z</time>
      </trkpt>
      <trkpt lat="43.34471" lon="5.99045">
        <ele>424</ele>
        <time>2019-12-17T12:21:06.000Z</time>
      </trkpt>
      <trkpt lat="43.34472" lon="5.99043">
        <ele>424</ele>
        <time>2019-12-17T12:21:07.000Z</time>
      </trkpt>
      <trkpt lat="43.34473" lon="5.99041">
        <ele>424</ele>
        <time>2019-12-17T12:21:08.000Z</time>
      </trkpt>
      <trkpt lat="43.34474" lon="5.9904">
        <ele>424</ele>
        <time>2019-12-17T12:21:09.000Z</time>
      </trkpt>
      <trkpt lat="43.34475" lon="5.99038">
        <ele>424</ele>
        <time>2019-12-17T12:21:10.000Z</time>
      </trkpt>
      <trkpt lat="43.34476" lon="5.99036">
        <ele>424</ele>
        <time>2019-12-17T12:21:11.000Z</time>
      </trkpt>
      <trkpt lat="43.34476" lon="5.99034">
        <ele>424</ele>
        <time>2019-12-17T12:21:12.000Z</time>
      </trkpt>
      <trkpt lat="43.34476" lon="5.99033">
        <ele>424</ele>
        <time>2019-12-17T12:21:13.000Z</time>
      </trkpt>
      <trkpt lat="43.34476" lon="5.99031">
        <ele>424</ele>
        <time>2019-12-17T12:21:14.000Z</time>
      </trkpt>
      <trkpt lat="43.34476" lon="5.99029">
        <ele>424</ele>
        <time>2019-12-17T12:21:15.000Z</time>
      </trkpt>
      <trkpt lat="43.34475" lon="5.99027">
        <ele>423</ele>
        <time>2019-12-17T12:21:16.000Z</time>
      </trkpt>
      <trkpt lat="43.34475" lon="5.99025">
        <ele>423</ele>
        <time>2019-12-17T12:21:17.000Z</time>
      </trkpt>
      <trkpt lat="43.34475" lon="5.99023">
        <ele>423</ele>
        <time>2019-12-17T12:21:18.000Z</time>
      </trkpt>
      <trkpt lat="43.34475" lon="5.99022">
        <ele>423</ele>
        <time>2019-12-17T12:21:19.000Z</time>
      </trkpt>
      <trkpt lat="43.34475" lon="5.99021">
        <ele>423</ele>
        <time>2019-12-17T12:21:20.000Z</time>
      </trkpt>
      <trkpt lat="43.34475" lon="5.9902">
        <ele>424</ele>
        <time>2019-12-17T12:21:21.000Z</time>
      </trkpt>
      <trkpt lat="43.34475" lon="5.99019">
        <ele>424</ele>
        <time>2019-12-17T12:21:22.000Z</time>
      </trkpt>
      <trkpt lat="43.34476" lon="5.99017">
        <ele>424</ele>
        <time>2019-12-17T12:21:23.000Z</time>
      </trkpt>
      <trkpt lat="43.34477" lon="5.99016">
        <ele>424</ele>
        <time>2019-12-17T12:21:24.000Z</time>
      </trkpt>
      <trkpt lat="43.34478" lon="5.99015">
        <ele>424</ele>
        <time>2019-12-17T12:21:25.000Z</time>
      </trkpt>
      <trkpt lat="43.34478" lon="5.99014">
        <ele>424</ele>
        <time>2019-12-17T12:21:26.000Z</time>
      </trkpt>
      <trkpt lat="43.34479" lon="5.99012">
        <ele>424</ele>
        <time>2019-12-17T12:21:27.000Z</time>
      </trkpt>
      <trkpt lat="43.34479" lon="5.99011">
        <ele>424</ele>
        <time>2019-12-17T12:21:28.000Z</time>
      </trkpt>
      <trkpt lat="43.34479" lon="5.9901">
        <ele>424</ele>
        <time>2019-12-17T12:21:29.000Z</time>
      </trkpt>
      <trkpt lat="43.34479" lon="5.99008">
        <ele>424</ele>
        <time>2019-12-17T12:21:30.000Z</time>
      </trkpt>
      <trkpt lat="43.34479" lon="5.99007">
        <ele>424</ele>
        <time>2019-12-17T12:21:31.000Z</time>
      </trkpt>
      <trkpt lat="43.3448" lon="5.99006">
        <ele>424</ele>
        <time>2019-12-17T12:21:32.000Z</time>
      </trkpt>
      <trkpt lat="43.3448" lon="5.99004">
        <ele>424</ele>
        <time>2019-12-17T12:21:33.000Z</time>
      </trkpt>
      <trkpt lat="43.3448" lon="5.99003">
        <ele>424</ele>
        <time>2019-12-17T12:21:34.000Z</time>
      </trkpt>
      <trkpt lat="43.3448" lon="5.99001">
        <ele>424</ele>
        <time>2019-12-17T12:21:35.000Z</time>
      </trkpt>
      <trkpt lat="43.34481" lon="5.99">
        <ele>424</ele>
        <time>2019-12-17T12:21:36.000Z</time>
      </trkpt>
      <trkpt lat="43.34481" lon="5.98999">
        <ele>424</ele>
        <time>2019-12-17T12:21:37.000Z</time>
      </trkpt>
      <trkpt lat="43.34481" lon="5.98998">
        <ele>424</ele>
        <time>2019-12-17T12:21:38.000Z</time>
      </trkpt>
      <trkpt lat="43.34481" lon="5.98996">
        <ele>424</ele>
        <time>2019-12-17T12:21:39.000Z</time>
      </trkpt>
      <trkpt lat="43.34481" lon="5.98995">
        <ele>424</ele>
        <time>2019-12-17T12:21:40.000Z</time>
      </trkpt>
      <trkpt lat="43.34481" lon="5.98993">
        <ele>424</ele>
        <time>2019-12-17T12:21:41.000Z</time>
      </trkpt>
      <trkpt lat="43.34481" lon="5.98992">
        <ele>424</ele>
        <time>2019-12-17T12:21:42.000Z</time>
      </trkpt>
      <trkpt lat="43.34481" lon="5.98991">
        <ele>424</ele>
        <time>2019-12-17T12:21:43.000Z</time>
      </trkpt>
      <trkpt lat="43.34482" lon="5.9899">
        <ele>424</ele>
        <time>2019-12-17T12:21:44.000Z</time>
      </trkpt>
      <trkpt lat="43.34483" lon="5.98989">
        <ele>424</ele>
        <time>2019-12-17T12:21:45.000Z</time>
      </trkpt>
      <trkpt lat="43.34483" lon="5.98988">
        <ele>424</ele>
        <time>2019-12-17T12:21:46.000Z</time>
      </trkpt>
      <trkpt lat="43.34483" lon="5.98987">
        <ele>424</ele>
        <time>2019-12-17T12:21:47.000Z</time>
      </trkpt>
      <trkpt lat="43.34483" lon="5.98986">
        <ele>424</ele>
        <time>2019-12-17T12:21:48.000Z</time>
      </trkpt>
      <trkpt lat="43.34483" lon="5.98985">
        <ele>424</ele>
        <time>2019-12-17T12:21:49.000Z</time>
      </trkpt>
      <trkpt lat="43.34483" lon="5.98985">
        <ele>424</ele>
        <time>2019-12-17T12:21:50.000Z</time>
      </trkpt>
      <trkpt lat="43.34483" lon="5.98984">
        <ele>424</ele>
        <time>2019-12-17T12:21:51.000Z</time>
      </trkpt>
      <trkpt lat="43.34484" lon="5.98983">
        <ele>424</ele>
        <time>2019-12-17T12:21:52.000Z</time>
      </trkpt>
      <trkpt lat="43.34484" lon="5.98982">
        <ele>424</ele>
        <time>2019-12-17T12:21:53.000Z</time>
      </trkpt>
      <trkpt lat="43.34484" lon="5.9898">
        <ele>424</ele>
        <time>2019-12-17T12:21:54.000Z</time>
      </trkpt>
      <trkpt lat="43.34484" lon="5.98979">
        <ele>424</ele>
        <time>2019-12-17T12:21:55.000Z</time>
      </trkpt>
      <trkpt lat="43.34485" lon="5.98978">
        <ele>424</ele>
        <time>2019-12-17T12:21:56.000Z</time>
      </trkpt>
      <trkpt lat="43.34486" lon="5.98976">
        <ele>424</ele>
        <time>2019-12-17T12:21:57.000Z</time>
      </trkpt>
      <trkpt lat="43.34487" lon="5.98975">
        <ele>423</ele>
        <time>2019-12-17T12:21:58.000Z</time>
      </trkpt>
      <trkpt lat="43.34488" lon="5.98974">
        <ele>423</ele>
        <time>2019-12-17T12:21:59.000Z</time>
      </trkpt>
      <trkpt lat="43.34488" lon="5.98973">
        <ele>423</ele>
        <time>2019-12-17T12:22:00.000Z</time>
      </trkpt>
      <trkpt lat="43.34489" lon="5.98971">
        <ele>423</ele>
        <time>2019-12-17T12:22:01.000Z</time>
      </trkpt>
      <trkpt lat="43.3449" lon="5.9897">
        <ele>423</ele>
        <time>2019-12-17T12:22:02.000Z</time>
      </trkpt>
      <trkpt lat="43.3449" lon="5.98969">
        <ele>423</ele>
        <time>2019-12-17T12:22:03.000Z</time>
      </trkpt>
      <trkpt lat="43.34491" lon="5.98967">
        <ele>423</ele>
        <time>2019-12-17T12:22:04.000Z</time>
      </trkpt>
      <trkpt lat="43.34491" lon="5.98965">
        <ele>423</ele>
        <time>2019-12-17T12:22:05.000Z</time>
      </trkpt>
      <trkpt lat="43.34492" lon="5.98964">
        <ele>423</ele>
        <time>2019-12-17T12:22:06.000Z</time>
      </trkpt>
      <trkpt lat="43.34492" lon="5.98962">
        <ele>423</ele>
        <time>2019-12-17T12:22:07.000Z</time>
      </trkpt>
      <trkpt lat="43.34493" lon="5.98961">
        <ele>423</ele>
        <time>2019-12-17T12:22:08.000Z</time>
      </trkpt>
      <trkpt lat="43.34493" lon="5.9896">
        <ele>422</ele>
        <time>2019-12-17T12:22:09.000Z</time>
      </trkpt>
      <trkpt lat="43.34494" lon="5.98959">
        <ele>422</ele>
        <time>2019-12-17T12:22:10.000Z</time>
      </trkpt>
      <trkpt lat="43.34494" lon="5.98958">
        <ele>422</ele>
        <time>2019-12-17T12:22:11.000Z</time>
      </trkpt>
      <trkpt lat="43.34494" lon="5.98958">
        <ele>422</ele>
        <time>2019-12-17T12:22:12.000Z</time>
      </trkpt>
      <trkpt lat="43.34494" lon="5.98958">
        <ele>422</ele>
        <time>2019-12-17T12:22:13.000Z</time>
      </trkpt>
      <trkpt lat="43.34493" lon="5.98957">
        <ele>422</ele>
        <time>2019-12-17T12:22:14.000Z</time>
      </trkpt>
      <trkpt lat="43.34493" lon="5.98957">
        <ele>422</ele>
        <time>2019-12-17T12:22:15.000Z</time>
      </trkpt>
      <trkpt lat="43.34493" lon="5.98957">
        <ele>422</ele>
        <time>2019-12-17T12:22:16.000Z</time>
      </trkpt>
      <trkpt lat="43.34493" lon="5.98957">
        <ele>422</ele>
        <time>2019-12-17T12:22:17.000Z</time>
      </trkpt>
      <trkpt lat="43.34493" lon="5.98956">
        <ele>422</ele>
        <time>2019-12-17T12:22:18.000Z</time>
      </trkpt>
      <trkpt lat="43.34493" lon="5.98956">
        <ele>422</ele>
        <time>2019-12-17T12:22:19.000Z</time>
      </trkpt>
      <trkpt lat="43.34494" lon="5.98956">
        <ele>422</ele>
        <time>2019-12-17T12:22:20.000Z</time>
      </trkpt>
      <trkpt lat="43.34494" lon="5.98956">
        <ele>422</ele>
        <time>2019-12-17T12:22:21.000Z</time>
      </trkpt>
      <trkpt lat="43.34494" lon="5.98956">
        <ele>422</ele>
        <time>2019-12-17T12:22:22.000Z</time>
      </trkpt>
      <trkpt lat="43.34494" lon="5.98956">
        <ele>422</ele>
        <time>2019-12-17T12:22:23.000Z</time>
      </trkpt>
      <trkpt lat="43.34494" lon="5.98956">
        <ele>422</ele>
        <time>2019-12-17T12:22:24.000Z</time>
      </trkpt>
      <trkpt lat="43.34494" lon="5.98956">
        <ele>422</ele>
        <time>2019-12-17T12:22:25.000Z</time>
      </trkpt>
      <trkpt lat="43.34494" lon="5.98956">
        <ele>422</ele>
        <time>2019-12-17T12:22:26.000Z</time>
      </trkpt>
      <trkpt lat="43.34494" lon="5.98956">
        <ele>422</ele>
        <time>2019-12-17T12:22:27.000Z</time>
      </trkpt>
      <trkpt lat="43.34494" lon="5.98956">
        <ele>422</ele>
        <time>2019-12-17T12:22:28.000Z</time>
      </trkpt>
      <trkpt lat="43.34494" lon="5.98956">
        <ele>422</ele>
        <time>2019-12-17T12:22:29.000Z</time>
      </trkpt>
      <trkpt lat="43.34494" lon="5.98956">
        <ele>422</ele>
        <time>2019-12-17T12:22:30.000Z</time>
      </trkpt>
      <trkpt lat="43.34494" lon="5.98956">
        <ele>422</ele>
        <time>2019-12-17T12:22:31.000Z</time>
      </trkpt>
      <trkpt lat="43.34494" lon="5.98956">
        <ele>422</ele>
        <time>2019-12-17T12:22:32.000Z</time>
      </trkpt>
      <trkpt lat="43.34494" lon="5.98956">
        <ele>422</ele>
        <time>2019-12-17T12:22:33.000Z</time>
      </trkpt>
      <trkpt lat="43.34494" lon="5.98956">
        <ele>422</ele>
        <time>2019-12-17T12:22:34.000Z</time>
      </trkpt>
      <trkpt lat="43.34495" lon="5.98956">
        <ele>422</ele>
        <time>2019-12-17T12:22:35.000Z</time>
      </trkpt>
      <trkpt lat="43.34495" lon="5.98956">
        <ele>422</ele>
        <time>2019-12-17T12:22:36.000Z</time>
      </trkpt>
      <trkpt lat="43.34495" lon="5.98956">
        <ele>422</ele>
        <time>2019-12-17T12:22:37.000Z</time>
      </trkpt>
      <trkpt lat="43.34495" lon="5.98955">
        <ele>422</ele>
        <time>2019-12-17T12:22:38.000Z</time>
      </trkpt>
      <trkpt lat="43.34495" lon="5.98955">
        <ele>422</ele>
        <time>2019-12-17T12:22:39.000Z</time>
      </trkpt>
      <trkpt lat="43.34495" lon="5.98955">
        <ele>422</ele>
        <time>2019-12-17T12:22:40.000Z</time>
      </trkpt>
      <trkpt lat="43.34495" lon="5.98955">
        <ele>422</ele>
        <time>2019-12-17T12:22:41.000Z</time>
      </trkpt>
      <trkpt lat="43.34495" lon="5.98955">
        <ele>422</ele>
        <time>2019-12-17T12:22:42.000Z</time>
      </trkpt>
      <trkpt lat="43.34495" lon="5.98955">
        <ele>422</ele>
        <time>2019-12-17T12:22:43.000Z</time>
      </trkpt>
      <trkpt lat="43.34495" lon="5.98954">
        <ele>422</ele>
        <time>2019-12-17T12:22:44.000Z</time>
      </trkpt>
      <trkpt lat="43.34495" lon="5.98954">
        <ele>422</ele>
        <time>2019-12-17T12:22:45.000Z</time>
      </trkpt>
      <trkpt lat="43.34495" lon="5.98953">
        <ele>422</ele>
        <time>2019-12-17T12:22:46.000Z</time>
      </trkpt>
      <trkpt lat="43.34496" lon="5.98951">
        <ele>422</ele>
        <time>2019-12-17T12:22:47.000Z</time>
      </trkpt>
      <trkpt lat="43.34496" lon="5.9895">
        <ele>422</ele>
        <time>2019-12-17T12:22:48.000Z</time>
      </trkpt>
      <trkpt lat="43.34497" lon="5.98949">
        <ele>422</ele>
        <time>2019-12-17T12:22:49.000Z</time>
      </trkpt>
      <trkpt lat="43.34498" lon="5.98948">
        <ele>422</ele>
        <time>2019-12-17T12:22:50.000Z</time>
      </trkpt>
      <trkpt lat="43.34499" lon="5.98947">
        <ele>422</ele>
        <time>2019-12-17T12:22:51.000Z</time>
      </trkpt>
      <trkpt lat="43.34499" lon="5.98946">
        <ele>422</ele>
        <time>2019-12-17T12:22:52.000Z</time>
      </trkpt>
      <trkpt lat="43.345" lon="5.98944">
        <ele>422</ele>
        <time>2019-12-17T12:22:55.000Z</time>
      </trkpt>
      <trkpt lat="43.345" lon="5.98944">
        <ele>422</ele>
        <time>2019-12-17T12:22:56.000Z</time>
      </trkpt>
      <trkpt lat="43.34506" lon="5.98937">
        <ele>421</ele>
        <time>2019-12-17T12:22:57.000Z</time>
      </trkpt>
      <trkpt lat="43.34507" lon="5.98936">
        <ele>421</ele>
        <time>2019-12-17T12:22:58.000Z</time>
      </trkpt>
      <trkpt lat="43.34508" lon="5.98935">
        <ele>421</ele>
        <time>2019-12-17T12:22:59.000Z</time>
      </trkpt>
      <trkpt lat="43.34509" lon="5.98934">
        <ele>421</ele>
        <time>2019-12-17T12:23:00.000Z</time>
      </trkpt>
      <trkpt lat="43.3451" lon="5.98933">
        <ele>421</ele>
        <time>2019-12-17T12:23:01.000Z</time>
      </trkpt>
      <trkpt lat="43.34511" lon="5.98931">
        <ele>421</ele>
        <time>2019-12-17T12:23:02.000Z</time>
      </trkpt>
      <trkpt lat="43.34512" lon="5.9893">
        <ele>421</ele>
        <time>2019-12-17T12:23:03.000Z</time>
      </trkpt>
      <trkpt lat="43.34512" lon="5.98929">
        <ele>421</ele>
        <time>2019-12-17T12:23:04.000Z</time>
      </trkpt>
      <trkpt lat="43.34513" lon="5.98928">
        <ele>420</ele>
        <time>2019-12-17T12:23:05.000Z</time>
      </trkpt>
      <trkpt lat="43.34513" lon="5.98927">
        <ele>420</ele>
        <time>2019-12-17T12:23:06.000Z</time>
      </trkpt>
      <trkpt lat="43.34514" lon="5.98926">
        <ele>420</ele>
        <time>2019-12-17T12:23:07.000Z</time>
      </trkpt>
      <trkpt lat="43.34514" lon="5.98924">
        <ele>420</ele>
        <time>2019-12-17T12:23:08.000Z</time>
      </trkpt>
      <trkpt lat="43.34513" lon="5.98923">
        <ele>419</ele>
        <time>2019-12-17T12:23:09.000Z</time>
      </trkpt>
      <trkpt lat="43.34513" lon="5.98921">
        <ele>419</ele>
        <time>2019-12-17T12:23:10.000Z</time>
      </trkpt>
      <trkpt lat="43.34513" lon="5.9892">
        <ele>419</ele>
        <time>2019-12-17T12:23:11.000Z</time>
      </trkpt>
      <trkpt lat="43.34512" lon="5.98919">
        <ele>418</ele>
        <time>2019-12-17T12:23:12.000Z</time>
      </trkpt>
      <trkpt lat="43.34512" lon="5.98918">
        <ele>418</ele>
        <time>2019-12-17T12:23:13.000Z</time>
      </trkpt>
      <trkpt lat="43.34511" lon="5.98916">
        <ele>417</ele>
        <time>2019-12-17T12:23:14.000Z</time>
      </trkpt>
      <trkpt lat="43.34511" lon="5.98915">
        <ele>417</ele>
        <time>2019-12-17T12:23:15.000Z</time>
      </trkpt>
      <trkpt lat="43.34511" lon="5.98913">
        <ele>416</ele>
        <time>2019-12-17T12:23:16.000Z</time>
      </trkpt>
      <trkpt lat="43.3451" lon="5.98912">
        <ele>415</ele>
        <time>2019-12-17T12:23:17.000Z</time>
      </trkpt>
      <trkpt lat="43.3451" lon="5.98911">
        <ele>415</ele>
        <time>2019-12-17T12:23:18.000Z</time>
      </trkpt>
      <trkpt lat="43.3451" lon="5.9891">
        <ele>414</ele>
        <time>2019-12-17T12:23:19.000Z</time>
      </trkpt>
      <trkpt lat="43.3451" lon="5.98908">
        <ele>414</ele>
        <time>2019-12-17T12:23:20.000Z</time>
      </trkpt>
      <trkpt lat="43.3451" lon="5.98907">
        <ele>413</ele>
        <time>2019-12-17T12:23:21.000Z</time>
      </trkpt>
      <trkpt lat="43.3451" lon="5.98906">
        <ele>413</ele>
        <time>2019-12-17T12:23:22.000Z</time>
      </trkpt>
      <trkpt lat="43.3451" lon="5.98904">
        <ele>413</ele>
        <time>2019-12-17T12:23:23.000Z</time>
      </trkpt>
      <trkpt lat="43.3451" lon="5.98903">
        <ele>412</ele>
        <time>2019-12-17T12:23:24.000Z</time>
      </trkpt>
      <trkpt lat="43.34509" lon="5.98901">
        <ele>412</ele>
        <time>2019-12-17T12:23:25.000Z</time>
      </trkpt>
      <trkpt lat="43.34509" lon="5.989">
        <ele>411</ele>
        <time>2019-12-17T12:23:26.000Z</time>
      </trkpt>
      <trkpt lat="43.3451" lon="5.98898">
        <ele>411</ele>
        <time>2019-12-17T12:23:27.000Z</time>
      </trkpt>
      <trkpt lat="43.3451" lon="5.98897">
        <ele>411</ele>
        <time>2019-12-17T12:23:28.000Z</time>
      </trkpt>
      <trkpt lat="43.34511" lon="5.98896">
        <ele>411</ele>
        <time>2019-12-17T12:23:29.000Z</time>
      </trkpt>
      <trkpt lat="43.34511" lon="5.98894">
        <ele>411</ele>
        <time>2019-12-17T12:23:30.000Z</time>
      </trkpt>
      <trkpt lat="43.34512" lon="5.98892">
        <ele>411</ele>
        <time>2019-12-17T12:23:31.000Z</time>
      </trkpt>
      <trkpt lat="43.34512" lon="5.98891">
        <ele>411</ele>
        <time>2019-12-17T12:23:32.000Z</time>
      </trkpt>
      <trkpt lat="43.34512" lon="5.98889">
        <ele>411</ele>
        <time>2019-12-17T12:23:33.000Z</time>
      </trkpt>
      <trkpt lat="43.34512" lon="5.98888">
        <ele>412</ele>
        <time>2019-12-17T12:23:34.000Z</time>
      </trkpt>
      <trkpt lat="43.34512" lon="5.98886">
        <ele>412</ele>
        <time>2019-12-17T12:23:35.000Z</time>
      </trkpt>
      <trkpt lat="43.34512" lon="5.98884">
        <ele>412</ele>
        <time>2019-12-17T12:23:36.000Z</time>
      </trkpt>
      <trkpt lat="43.34512" lon="5.98882">
        <ele>412</ele>
        <time>2019-12-17T12:23:37.000Z</time>
      </trkpt>
      <trkpt lat="43.34512" lon="5.98881">
        <ele>412</ele>
        <time>2019-12-17T12:23:38.000Z</time>
      </trkpt>
      <trkpt lat="43.34512" lon="5.9888">
        <ele>412</ele>
        <time>2019-12-17T12:23:39.000Z</time>
      </trkpt>
      <trkpt lat="43.34512" lon="5.98879">
        <ele>412</ele>
        <time>2019-12-17T12:23:40.000Z</time>
      </trkpt>
      <trkpt lat="43.34512" lon="5.98878">
        <ele>412</ele>
        <time>2019-12-17T12:23:41.000Z</time>
      </trkpt>
      <trkpt lat="43.34512" lon="5.98876">
        <ele>412</ele>
        <time>2019-12-17T12:23:42.000Z</time>
      </trkpt>
      <trkpt lat="43.34512" lon="5.98876">
        <ele>412</ele>
        <time>2019-12-17T12:23:43.000Z</time>
      </trkpt>
      <trkpt lat="43.34512" lon="5.98875">
        <ele>412</ele>
        <time>2019-12-17T12:23:44.000Z</time>
      </trkpt>
      <trkpt lat="43.34513" lon="5.98874">
        <ele>412</ele>
        <time>2019-12-17T12:23:45.000Z</time>
      </trkpt>
      <trkpt lat="43.34513" lon="5.98872">
        <ele>412</ele>
        <time>2019-12-17T12:23:46.000Z</time>
      </trkpt>
      <trkpt lat="43.34513" lon="5.98871">
        <ele>412</ele>
        <time>2019-12-17T12:23:47.000Z</time>
      </trkpt>
      <trkpt lat="43.34512" lon="5.9887">
        <ele>412</ele>
        <time>2019-12-17T12:23:48.000Z</time>
      </trkpt>
      <trkpt lat="43.34512" lon="5.98868">
        <ele>412</ele>
        <time>2019-12-17T12:23:49.000Z</time>
      </trkpt>
      <trkpt lat="43.34511" lon="5.98867">
        <ele>412</ele>
        <time>2019-12-17T12:23:50.000Z</time>
      </trkpt>
      <trkpt lat="43.34511" lon="5.98866">
        <ele>412</ele>
        <time>2019-12-17T12:23:51.000Z</time>
      </trkpt>
      <trkpt lat="43.3451" lon="5.98865">
        <ele>412</ele>
        <time>2019-12-17T12:23:52.000Z</time>
      </trkpt>
      <trkpt lat="43.3451" lon="5.98864">
        <ele>412</ele>
        <time>2019-12-17T12:23:53.000Z</time>
      </trkpt>
      <trkpt lat="43.3451" lon="5.98863">
        <ele>412</ele>
        <time>2019-12-17T12:23:54.000Z</time>
      </trkpt>
      <trkpt lat="43.3451" lon="5.98862">
        <ele>412</ele>
        <time>2019-12-17T12:23:55.000Z</time>
      </trkpt>
      <trkpt lat="43.3451" lon="5.98861">
        <ele>412</ele>
        <time>2019-12-17T12:23:56.000Z</time>
      </trkpt>
      <trkpt lat="43.3451" lon="5.9886">
        <ele>412</ele>
        <time>2019-12-17T12:23:57.000Z</time>
      </trkpt>
      <trkpt lat="43.3451" lon="5.98859">
        <ele>412</ele>
        <time>2019-12-17T12:23:58.000Z</time>
      </trkpt>
      <trkpt lat="43.3451" lon="5.98858">
        <ele>412</ele>
        <time>2019-12-17T12:23:59.000Z</time>
      </trkpt>
      <trkpt lat="43.34509" lon="5.98857">
        <ele>412</ele>
        <time>2019-12-17T12:24:00.000Z</time>
      </trkpt>
      <trkpt lat="43.34509" lon="5.98855">
        <ele>412</ele>
        <time>2019-12-17T12:24:01.000Z</time>
      </trkpt>
      <trkpt lat="43.34509" lon="5.98854">
        <ele>412</ele>
        <time>2019-12-17T12:24:02.000Z</time>
      </trkpt>
      <trkpt lat="43.34508" lon="5.98853">
        <ele>412</ele>
        <time>2019-12-17T12:24:03.000Z</time>
      </trkpt>
      <trkpt lat="43.34507" lon="5.98852">
        <ele>412</ele>
        <time>2019-12-17T12:24:04.000Z</time>
      </trkpt>
      <trkpt lat="43.34506" lon="5.98851">
        <ele>412</ele>
        <time>2019-12-17T12:24:05.000Z</time>
      </trkpt>
      <trkpt lat="43.34505" lon="5.9885">
        <ele>412</ele>
        <time>2019-12-17T12:24:06.000Z</time>
      </trkpt>
      <trkpt lat="43.34504" lon="5.98849">
        <ele>412</ele>
        <time>2019-12-17T12:24:07.000Z</time>
      </trkpt>
      <trkpt lat="43.34504" lon="5.98847">
        <ele>412</ele>
        <time>2019-12-17T12:24:08.000Z</time>
      </trkpt>
      <trkpt lat="43.34503" lon="5.98845">
        <ele>412</ele>
        <time>2019-12-17T12:24:09.000Z</time>
      </trkpt>
      <trkpt lat="43.34503" lon="5.98844">
        <ele>412</ele>
        <time>2019-12-17T12:24:10.000Z</time>
      </trkpt>
      <trkpt lat="43.34502" lon="5.98843">
        <ele>412</ele>
        <time>2019-12-17T12:24:11.000Z</time>
      </trkpt>
      <trkpt lat="43.34502" lon="5.98841">
        <ele>412</ele>
        <time>2019-12-17T12:24:12.000Z</time>
      </trkpt>
      <trkpt lat="43.34501" lon="5.9884">
        <ele>412</ele>
        <time>2019-12-17T12:24:13.000Z</time>
      </trkpt>
      <trkpt lat="43.34501" lon="5.98838">
        <ele>412</ele>
        <time>2019-12-17T12:24:14.000Z</time>
      </trkpt>
      <trkpt lat="43.345" lon="5.98837">
        <ele>413</ele>
        <time>2019-12-17T12:24:15.000Z</time>
      </trkpt>
      <trkpt lat="43.345" lon="5.98835">
        <ele>413</ele>
        <time>2019-12-17T12:24:16.000Z</time>
      </trkpt>
      <trkpt lat="43.34499" lon="5.98834">
        <ele>413</ele>
        <time>2019-12-17T12:24:17.000Z</time>
      </trkpt>
      <trkpt lat="43.34498" lon="5.98832">
        <ele>413</ele>
        <time>2019-12-17T12:24:18.000Z</time>
      </trkpt>
      <trkpt lat="43.34498" lon="5.98831">
        <ele>413</ele>
        <time>2019-12-17T12:24:19.000Z</time>
      </trkpt>
      <trkpt lat="43.34498" lon="5.98829">
        <ele>414</ele>
        <time>2019-12-17T12:24:20.000Z</time>
      </trkpt>
      <trkpt lat="43.34497" lon="5.98827">
        <ele>414</ele>
        <time>2019-12-17T12:24:21.000Z</time>
      </trkpt>
      <trkpt lat="43.34497" lon="5.98826">
        <ele>414</ele>
        <time>2019-12-17T12:24:22.000Z</time>
      </trkpt>
      <trkpt lat="43.34496" lon="5.98825">
        <ele>415</ele>
        <time>2019-12-17T12:24:23.000Z</time>
      </trkpt>
      <trkpt lat="43.34496" lon="5.98823">
        <ele>415</ele>
        <time>2019-12-17T12:24:24.000Z</time>
      </trkpt>
      <trkpt lat="43.34495" lon="5.98822">
        <ele>415</ele>
        <time>2019-12-17T12:24:25.000Z</time>
      </trkpt>
      <trkpt lat="43.34495" lon="5.9882">
        <ele>415</ele>
        <time>2019-12-17T12:24:26.000Z</time>
      </trkpt>
      <trkpt lat="43.34494" lon="5.98818">
        <ele>415</ele>
        <time>2019-12-17T12:24:27.000Z</time>
      </trkpt>
      <trkpt lat="43.34493" lon="5.98817">
        <ele>415</ele>
        <time>2019-12-17T12:24:28.000Z</time>
      </trkpt>
      <trkpt lat="43.34492" lon="5.98815">
        <ele>415</ele>
        <time>2019-12-17T12:24:29.000Z</time>
      </trkpt>
      <trkpt lat="43.34491" lon="5.98814">
        <ele>415</ele>
        <time>2019-12-17T12:24:30.000Z</time>
      </trkpt>
      <trkpt lat="43.3449" lon="5.98812">
        <ele>415</ele>
        <time>2019-12-17T12:24:31.000Z</time>
      </trkpt>
      <trkpt lat="43.34489" lon="5.98811">
        <ele>415</ele>
        <time>2019-12-17T12:24:32.000Z</time>
      </trkpt>
      <trkpt lat="43.34488" lon="5.9881">
        <ele>415</ele>
        <time>2019-12-17T12:24:33.000Z</time>
      </trkpt>
      <trkpt lat="43.34487" lon="5.98809">
        <ele>414</ele>
        <time>2019-12-17T12:24:34.000Z</time>
      </trkpt>
      <trkpt lat="43.34486" lon="5.98808">
        <ele>414</ele>
        <time>2019-12-17T12:24:35.000Z</time>
      </trkpt>
      <trkpt lat="43.34485" lon="5.98807">
        <ele>414</ele>
        <time>2019-12-17T12:24:36.000Z</time>
      </trkpt>
      <trkpt lat="43.34484" lon="5.98806">
        <ele>414</ele>
        <time>2019-12-17T12:24:37.000Z</time>
      </trkpt>
      <trkpt lat="43.34483" lon="5.98805">
        <ele>414</ele>
        <time>2019-12-17T12:24:38.000Z</time>
      </trkpt>
      <trkpt lat="43.34482" lon="5.98804">
        <ele>414</ele>
        <time>2019-12-17T12:24:39.000Z</time>
      </trkpt>
      <trkpt lat="43.34481" lon="5.98803">
        <ele>414</ele>
        <time>2019-12-17T12:24:40.000Z</time>
      </trkpt>
      <trkpt lat="43.3448" lon="5.98802">
        <ele>414</ele>
        <time>2019-12-17T12:24:41.000Z</time>
      </trkpt>
      <trkpt lat="43.34479" lon="5.98801">
        <ele>414</ele>
        <time>2019-12-17T12:24:42.000Z</time>
      </trkpt>
      <trkpt lat="43.34479" lon="5.988">
        <ele>414</ele>
        <time>2019-12-17T12:24:43.000Z</time>
      </trkpt>
      <trkpt lat="43.34478" lon="5.98798">
        <ele>414</ele>
        <time>2019-12-17T12:24:44.000Z</time>
      </trkpt>
      <trkpt lat="43.34478" lon="5.98797">
        <ele>414</ele>
        <time>2019-12-17T12:24:45.000Z</time>
      </trkpt>
      <trkpt lat="43.34477" lon="5.98796">
        <ele>414</ele>
        <time>2019-12-17T12:24:46.000Z</time>
      </trkpt>
      <trkpt lat="43.34477" lon="5.98796">
        <ele>414</ele>
        <time>2019-12-17T12:24:47.000Z</time>
      </trkpt>
      <trkpt lat="43.34477" lon="5.98795">
        <ele>414</ele>
        <time>2019-12-17T12:24:48.000Z</time>
      </trkpt>
      <trkpt lat="43.34477" lon="5.98795">
        <ele>414</ele>
        <time>2019-12-17T12:24:49.000Z</time>
      </trkpt>
      <trkpt lat="43.34477" lon="5.98795">
        <ele>414</ele>
        <time>2019-12-17T12:24:50.000Z</time>
      </trkpt>
      <trkpt lat="43.34477" lon="5.98795">
        <ele>414</ele>
        <time>2019-12-17T12:24:51.000Z</time>
      </trkpt>
      <trkpt lat="43.34477" lon="5.98794">
        <ele>414</ele>
        <time>2019-12-17T12:24:52.000Z</time>
      </trkpt>
      <trkpt lat="43.34477" lon="5.98794">
        <ele>414</ele>
        <time>2019-12-17T12:24:53.000Z</time>
      </trkpt>
      <trkpt lat="43.34477" lon="5.98794">
        <ele>414</ele>
        <time>2019-12-17T12:24:54.000Z</time>
      </trkpt>
      <trkpt lat="43.34477" lon="5.98793">
        <ele>414</ele>
        <time>2019-12-17T12:24:55.000Z</time>
      </trkpt>
      <trkpt lat="43.34477" lon="5.98793">
        <ele>414</ele>
        <time>2019-12-17T12:24:56.000Z</time>
      </trkpt>
      <trkpt lat="43.34477" lon="5.98793">
        <ele>414</ele>
        <time>2019-12-17T12:24:57.000Z</time>
      </trkpt>
      <trkpt lat="43.34477" lon="5.98792">
        <ele>414</ele>
        <time>2019-12-17T12:24:58.000Z</time>
      </trkpt>
      <trkpt lat="43.34478" lon="5.98792">
        <ele>414</ele>
        <time>2019-12-17T12:24:59.000Z</time>
      </trkpt>
      <trkpt lat="43.34478" lon="5.98791">
        <ele>414</ele>
        <time>2019-12-17T12:25:00.000Z</time>
      </trkpt>
      <trkpt lat="43.34478" lon="5.98791">
        <ele>414</ele>
        <time>2019-12-17T12:25:01.000Z</time>
      </trkpt>
      <trkpt lat="43.34477" lon="5.9879">
        <ele>414</ele>
        <time>2019-12-17T12:25:02.000Z</time>
      </trkpt>
      <trkpt lat="43.34477" lon="5.98789">
        <ele>414</ele>
        <time>2019-12-17T12:25:03.000Z</time>
      </trkpt>
      <trkpt lat="43.34476" lon="5.98788">
        <ele>414</ele>
        <time>2019-12-17T12:25:04.000Z</time>
      </trkpt>
      <trkpt lat="43.34476" lon="5.98787">
        <ele>414</ele>
        <time>2019-12-17T12:25:05.000Z</time>
      </trkpt>
      <trkpt lat="43.34476" lon="5.98785">
        <ele>414</ele>
        <time>2019-12-17T12:25:06.000Z</time>
      </trkpt>
      <trkpt lat="43.34475" lon="5.98784">
        <ele>414</ele>
        <time>2019-12-17T12:25:07.000Z</time>
      </trkpt>
      <trkpt lat="43.34474" lon="5.98783">
        <ele>413</ele>
        <time>2019-12-17T12:25:08.000Z</time>
      </trkpt>
      <trkpt lat="43.34474" lon="5.98782">
        <ele>413</ele>
        <time>2019-12-17T12:25:09.000Z</time>
      </trkpt>
      <trkpt lat="43.34473" lon="5.98781">
        <ele>413</ele>
        <time>2019-12-17T12:25:10.000Z</time>
      </trkpt>
      <trkpt lat="43.34472" lon="5.98779">
        <ele>413</ele>
        <time>2019-12-17T12:25:11.000Z</time>
      </trkpt>
      <trkpt lat="43.34471" lon="5.98779">
        <ele>413</ele>
        <time>2019-12-17T12:25:12.000Z</time>
      </trkpt>
      <trkpt lat="43.3447" lon="5.98778">
        <ele>413</ele>
        <time>2019-12-17T12:25:13.000Z</time>
      </trkpt>
      <trkpt lat="43.3447" lon="5.98776">
        <ele>413</ele>
        <time>2019-12-17T12:25:14.000Z</time>
      </trkpt>
      <trkpt lat="43.34469" lon="5.98775">
        <ele>413</ele>
        <time>2019-12-17T12:25:15.000Z</time>
      </trkpt>
      <trkpt lat="43.34469" lon="5.98774">
        <ele>413</ele>
        <time>2019-12-17T12:25:16.000Z</time>
      </trkpt>
      <trkpt lat="43.34468" lon="5.98773">
        <ele>413</ele>
        <time>2019-12-17T12:25:17.000Z</time>
      </trkpt>
      <trkpt lat="43.34468" lon="5.98772">
        <ele>413</ele>
        <time>2019-12-17T12:25:18.000Z</time>
      </trkpt>
      <trkpt lat="43.34468" lon="5.9877">
        <ele>413</ele>
        <time>2019-12-17T12:25:19.000Z</time>
      </trkpt>
      <trkpt lat="43.34468" lon="5.98769">
        <ele>413</ele>
        <time>2019-12-17T12:25:20.000Z</time>
      </trkpt>
      <trkpt lat="43.34468" lon="5.98767">
        <ele>413</ele>
        <time>2019-12-17T12:25:21.000Z</time>
      </trkpt>
      <trkpt lat="43.34467" lon="5.98766">
        <ele>413</ele>
        <time>2019-12-17T12:25:22.000Z</time>
      </trkpt>
      <trkpt lat="43.34467" lon="5.98765">
        <ele>413</ele>
        <time>2019-12-17T12:25:23.000Z</time>
      </trkpt>
      <trkpt lat="43.34467" lon="5.98763">
        <ele>413</ele>
        <time>2019-12-17T12:25:24.000Z</time>
      </trkpt>
      <trkpt lat="43.34467" lon="5.98762">
        <ele>413</ele>
        <time>2019-12-17T12:25:25.000Z</time>
      </trkpt>
      <trkpt lat="43.34467" lon="5.98761">
        <ele>413</ele>
        <time>2019-12-17T12:25:26.000Z</time>
      </trkpt>
      <trkpt lat="43.34466" lon="5.9876">
        <ele>413</ele>
        <time>2019-12-17T12:25:27.000Z</time>
      </trkpt>
      <trkpt lat="43.34466" lon="5.98759">
        <ele>413</ele>
        <time>2019-12-17T12:25:28.000Z</time>
      </trkpt>
      <trkpt lat="43.34465" lon="5.98757">
        <ele>413</ele>
        <time>2019-12-17T12:25:29.000Z</time>
      </trkpt>
      <trkpt lat="43.34464" lon="5.98756">
        <ele>413</ele>
        <time>2019-12-17T12:25:30.000Z</time>
      </trkpt>
      <trkpt lat="43.34464" lon="5.98755">
        <ele>413</ele>
        <time>2019-12-17T12:25:31.000Z</time>
      </trkpt>
      <trkpt lat="43.34463" lon="5.98754">
        <ele>413</ele>
        <time>2019-12-17T12:25:32.000Z</time>
      </trkpt>
      <trkpt lat="43.34463" lon="5.98753">
        <ele>413</ele>
        <time>2019-12-17T12:25:33.000Z</time>
      </trkpt>
      <trkpt lat="43.34462" lon="5.98751">
        <ele>413</ele>
        <time>2019-12-17T12:25:34.000Z</time>
      </trkpt>
      <trkpt lat="43.34462" lon="5.98749">
        <ele>413</ele>
        <time>2019-12-17T12:25:35.000Z</time>
      </trkpt>
      <trkpt lat="43.34462" lon="5.98748">
        <ele>413</ele>
        <time>2019-12-17T12:25:36.000Z</time>
      </trkpt>
      <trkpt lat="43.34462" lon="5.98746">
        <ele>413</ele>
        <time>2019-12-17T12:25:37.000Z</time>
      </trkpt>
      <trkpt lat="43.34461" lon="5.98745">
        <ele>413</ele>
        <time>2019-12-17T12:25:38.000Z</time>
      </trkpt>
      <trkpt lat="43.34461" lon="5.98743">
        <ele>412</ele>
        <time>2019-12-17T12:25:39.000Z</time>
      </trkpt>
      <trkpt lat="43.3446" lon="5.98742">
        <ele>412</ele>
        <time>2019-12-17T12:25:40.000Z</time>
      </trkpt>
      <trkpt lat="43.3446" lon="5.98741">
        <ele>412</ele>
        <time>2019-12-17T12:25:41.000Z</time>
      </trkpt>
      <trkpt lat="43.3446" lon="5.9874">
        <ele>412</ele>
        <time>2019-12-17T12:25:42.000Z</time>
      </trkpt>
      <trkpt lat="43.34459" lon="5.98739">
        <ele>412</ele>
        <time>2019-12-17T12:25:43.000Z</time>
      </trkpt>
      <trkpt lat="43.34458" lon="5.98737">
        <ele>412</ele>
        <time>2019-12-17T12:25:44.000Z</time>
      </trkpt>
      <trkpt lat="43.34457" lon="5.98736">
        <ele>412</ele>
        <time>2019-12-17T12:25:45.000Z</time>
      </trkpt>
      <trkpt lat="43.34457" lon="5.98735">
        <ele>412</ele>
        <time>2019-12-17T12:25:46.000Z</time>
      </trkpt>
      <trkpt lat="43.34456" lon="5.98733">
        <ele>412</ele>
        <time>2019-12-17T12:25:47.000Z</time>
      </trkpt>
      <trkpt lat="43.34456" lon="5.98732">
        <ele>412</ele>
        <time>2019-12-17T12:25:48.000Z</time>
      </trkpt>
      <trkpt lat="43.34455" lon="5.98731">
        <ele>412</ele>
        <time>2019-12-17T12:25:49.000Z</time>
      </trkpt>
      <trkpt lat="43.34455" lon="5.98729">
        <ele>412</ele>
        <time>2019-12-17T12:25:50.000Z</time>
      </trkpt>
      <trkpt lat="43.34454" lon="5.98728">
        <ele>412</ele>
        <time>2019-12-17T12:25:51.000Z</time>
      </trkpt>
      <trkpt lat="43.34454" lon="5.98726">
        <ele>412</ele>
        <time>2019-12-17T12:25:52.000Z</time>
      </trkpt>
      <trkpt lat="43.34454" lon="5.98724">
        <ele>412</ele>
        <time>2019-12-17T12:25:53.000Z</time>
      </trkpt>
      <trkpt lat="43.34455" lon="5.98722">
        <ele>411</ele>
        <time>2019-12-17T12:25:54.000Z</time>
      </trkpt>
      <trkpt lat="43.34455" lon="5.98721">
        <ele>412</ele>
        <time>2019-12-17T12:25:55.000Z</time>
      </trkpt>
      <trkpt lat="43.34455" lon="5.98719">
        <ele>412</ele>
        <time>2019-12-17T12:25:56.000Z</time>
      </trkpt>
      <trkpt lat="43.34455" lon="5.98717">
        <ele>412</ele>
        <time>2019-12-17T12:25:57.000Z</time>
      </trkpt>
      <trkpt lat="43.34455" lon="5.98716">
        <ele>412</ele>
        <time>2019-12-17T12:25:58.000Z</time>
      </trkpt>
      <trkpt lat="43.34456" lon="5.98714">
        <ele>412</ele>
        <time>2019-12-17T12:25:59.000Z</time>
      </trkpt>
      <trkpt lat="43.34456" lon="5.98712">
        <ele>412</ele>
        <time>2019-12-17T12:26:00.000Z</time>
      </trkpt>
      <trkpt lat="43.34456" lon="5.9871">
        <ele>412</ele>
        <time>2019-12-17T12:26:01.000Z</time>
      </trkpt>
      <trkpt lat="43.34456" lon="5.98708">
        <ele>412</ele>
        <time>2019-12-17T12:26:02.000Z</time>
      </trkpt>
      <trkpt lat="43.34456" lon="5.98707">
        <ele>413</ele>
        <time>2019-12-17T12:26:03.000Z</time>
      </trkpt>
      <trkpt lat="43.34456" lon="5.98705">
        <ele>413</ele>
        <time>2019-12-17T12:26:04.000Z</time>
      </trkpt>
      <trkpt lat="43.34456" lon="5.98704">
        <ele>413</ele>
        <time>2019-12-17T12:26:05.000Z</time>
      </trkpt>
      <trkpt lat="43.34456" lon="5.98703">
        <ele>413</ele>
        <time>2019-12-17T12:26:06.000Z</time>
      </trkpt>
      <trkpt lat="43.34455" lon="5.98701">
        <ele>413</ele>
        <time>2019-12-17T12:26:07.000Z</time>
      </trkpt>
      <trkpt lat="43.34456" lon="5.987">
        <ele>413</ele>
        <time>2019-12-17T12:26:08.000Z</time>
      </trkpt>
      <trkpt lat="43.34455" lon="5.98698">
        <ele>413</ele>
        <time>2019-12-17T12:26:09.000Z</time>
      </trkpt>
      <trkpt lat="43.34455" lon="5.98696">
        <ele>413</ele>
        <time>2019-12-17T12:26:10.000Z</time>
      </trkpt>
      <trkpt lat="43.34455" lon="5.98694">
        <ele>413</ele>
        <time>2019-12-17T12:26:11.000Z</time>
      </trkpt>
      <trkpt lat="43.34455" lon="5.98692">
        <ele>413</ele>
        <time>2019-12-17T12:26:12.000Z</time>
      </trkpt>
      <trkpt lat="43.34455" lon="5.98691">
        <ele>413</ele>
        <time>2019-12-17T12:26:13.000Z</time>
      </trkpt>
      <trkpt lat="43.34455" lon="5.98691">
        <ele>414</ele>
        <time>2019-12-17T12:26:15.000Z</time>
      </trkpt>
      <trkpt lat="43.34455" lon="5.98691">
        <ele>413</ele>
        <time>2019-12-17T12:26:16.000Z</time>
      </trkpt>
      <trkpt lat="43.34454" lon="5.98682">
        <ele>413</ele>
        <time>2019-12-17T12:26:17.000Z</time>
      </trkpt>
      <trkpt lat="43.34454" lon="5.9868">
        <ele>413</ele>
        <time>2019-12-17T12:26:18.000Z</time>
      </trkpt>
      <trkpt lat="43.34454" lon="5.98678">
        <ele>413</ele>
        <time>2019-12-17T12:26:19.000Z</time>
      </trkpt>
      <trkpt lat="43.34454" lon="5.98676">
        <ele>413</ele>
        <time>2019-12-17T12:26:20.000Z</time>
      </trkpt>
      <trkpt lat="43.34454" lon="5.98675">
        <ele>413</ele>
        <time>2019-12-17T12:26:21.000Z</time>
      </trkpt>
      <trkpt lat="43.34454" lon="5.98673">
        <ele>413</ele>
        <time>2019-12-17T12:26:22.000Z</time>
      </trkpt>
      <trkpt lat="43.34454" lon="5.98671">
        <ele>412</ele>
        <time>2019-12-17T12:26:23.000Z</time>
      </trkpt>
      <trkpt lat="43.34454" lon="5.98669">
        <ele>412</ele>
        <time>2019-12-17T12:26:24.000Z</time>
      </trkpt>
      <trkpt lat="43.34454" lon="5.98668">
        <ele>412</ele>
        <time>2019-12-17T12:26:25.000Z</time>
      </trkpt>
      <trkpt lat="43.34454" lon="5.98666">
        <ele>412</ele>
        <time>2019-12-17T12:26:26.000Z</time>
      </trkpt>
      <trkpt lat="43.34455" lon="5.98665">
        <ele>412</ele>
        <time>2019-12-17T12:26:27.000Z</time>
      </trkpt>
      <trkpt lat="43.34455" lon="5.98663">
        <ele>413</ele>
        <time>2019-12-17T12:26:28.000Z</time>
      </trkpt>
      <trkpt lat="43.34455" lon="5.98662">
        <ele>413</ele>
        <time>2019-12-17T12:26:29.000Z</time>
      </trkpt>
      <trkpt lat="43.34455" lon="5.9866">
        <ele>414</ele>
        <time>2019-12-17T12:26:30.000Z</time>
      </trkpt>
      <trkpt lat="43.34456" lon="5.98659">
        <ele>414</ele>
        <time>2019-12-17T12:26:31.000Z</time>
      </trkpt>
      <trkpt lat="43.34456" lon="5.98658">
        <ele>414</ele>
        <time>2019-12-17T12:26:32.000Z</time>
      </trkpt>
      <trkpt lat="43.34456" lon="5.98657">
        <ele>415</ele>
        <time>2019-12-17T12:26:33.000Z</time>
      </trkpt>
      <trkpt lat="43.34457" lon="5.98655">
        <ele>415</ele>
        <time>2019-12-17T12:26:34.000Z</time>
      </trkpt>
      <trkpt lat="43.34457" lon="5.98654">
        <ele>416</ele>
        <time>2019-12-17T12:26:35.000Z</time>
      </trkpt>
      <trkpt lat="43.34456" lon="5.98653">
        <ele>416</ele>
        <time>2019-12-17T12:26:36.000Z</time>
      </trkpt>
      <trkpt lat="43.34456" lon="5.98652">
        <ele>416</ele>
        <time>2019-12-17T12:26:37.000Z</time>
      </trkpt>
      <trkpt lat="43.34456" lon="5.98651">
        <ele>416</ele>
        <time>2019-12-17T12:26:38.000Z</time>
      </trkpt>
      <trkpt lat="43.34456" lon="5.98649">
        <ele>416</ele>
        <time>2019-12-17T12:26:39.000Z</time>
      </trkpt>
      <trkpt lat="43.34456" lon="5.98648">
        <ele>416</ele>
        <time>2019-12-17T12:26:40.000Z</time>
      </trkpt>
      <trkpt lat="43.34457" lon="5.98646">
        <ele>416</ele>
        <time>2019-12-17T12:26:41.000Z</time>
      </trkpt>
      <trkpt lat="43.34457" lon="5.98644">
        <ele>416</ele>
        <time>2019-12-17T12:26:42.000Z</time>
      </trkpt>
      <trkpt lat="43.34457" lon="5.98642">
        <ele>415</ele>
        <time>2019-12-17T12:26:43.000Z</time>
      </trkpt>
      <trkpt lat="43.34457" lon="5.98641">
        <ele>415</ele>
        <time>2019-12-17T12:26:44.000Z</time>
      </trkpt>
      <trkpt lat="43.34457" lon="5.98639">
        <ele>414</ele>
        <time>2019-12-17T12:26:45.000Z</time>
      </trkpt>
      <trkpt lat="43.34457" lon="5.98638">
        <ele>414</ele>
        <time>2019-12-17T12:26:46.000Z</time>
      </trkpt>
      <trkpt lat="43.34457" lon="5.98636">
        <ele>413</ele>
        <time>2019-12-17T12:26:47.000Z</time>
      </trkpt>
      <trkpt lat="43.34457" lon="5.98635">
        <ele>413</ele>
        <time>2019-12-17T12:26:48.000Z</time>
      </trkpt>
      <trkpt lat="43.34457" lon="5.98633">
        <ele>413</ele>
        <time>2019-12-17T12:26:49.000Z</time>
      </trkpt>
      <trkpt lat="43.34456" lon="5.98632">
        <ele>413</ele>
        <time>2019-12-17T12:26:50.000Z</time>
      </trkpt>
      <trkpt lat="43.34456" lon="5.98631">
        <ele>413</ele>
        <time>2019-12-17T12:26:51.000Z</time>
      </trkpt>
      <trkpt lat="43.34456" lon="5.98629">
        <ele>413</ele>
        <time>2019-12-17T12:26:52.000Z</time>
      </trkpt>
      <trkpt lat="43.34456" lon="5.98628">
        <ele>412</ele>
        <time>2019-12-17T12:26:53.000Z</time>
      </trkpt>
      <trkpt lat="43.34456" lon="5.98627">
        <ele>412</ele>
        <time>2019-12-17T12:26:54.000Z</time>
      </trkpt>
      <trkpt lat="43.34455" lon="5.98625">
        <ele>412</ele>
        <time>2019-12-17T12:26:55.000Z</time>
      </trkpt>
      <trkpt lat="43.34455" lon="5.98624">
        <ele>412</ele>
        <time>2019-12-17T12:26:56.000Z</time>
      </trkpt>
      <trkpt lat="43.34455" lon="5.98622">
        <ele>412</ele>
        <time>2019-12-17T12:26:57.000Z</time>
      </trkpt>
      <trkpt lat="43.34454" lon="5.9862">
        <ele>412</ele>
        <time>2019-12-17T12:26:58.000Z</time>
      </trkpt>
      <trkpt lat="43.34454" lon="5.98618">
        <ele>413</ele>
        <time>2019-12-17T12:26:59.000Z</time>
      </trkpt>
      <trkpt lat="43.34454" lon="5.98617">
        <ele>413</ele>
        <time>2019-12-17T12:27:00.000Z</time>
      </trkpt>
      <trkpt lat="43.34453" lon="5.98615">
        <ele>413</ele>
        <time>2019-12-17T12:27:01.000Z</time>
      </trkpt>
      <trkpt lat="43.34453" lon="5.98613">
        <ele>413</ele>
        <time>2019-12-17T12:27:02.000Z</time>
      </trkpt>
      <trkpt lat="43.34453" lon="5.98612">
        <ele>413</ele>
        <time>2019-12-17T12:27:03.000Z</time>
      </trkpt>
      <trkpt lat="43.34452" lon="5.9861">
        <ele>413</ele>
        <time>2019-12-17T12:27:04.000Z</time>
      </trkpt>
      <trkpt lat="43.34451" lon="5.98609">
        <ele>413</ele>
        <time>2019-12-17T12:27:05.000Z</time>
      </trkpt>
      <trkpt lat="43.3445" lon="5.98608">
        <ele>413</ele>
        <time>2019-12-17T12:27:06.000Z</time>
      </trkpt>
      <trkpt lat="43.3445" lon="5.98607">
        <ele>414</ele>
        <time>2019-12-17T12:27:07.000Z</time>
      </trkpt>
      <trkpt lat="43.34449" lon="5.98606">
        <ele>414</ele>
        <time>2019-12-17T12:27:08.000Z</time>
      </trkpt>
      <trkpt lat="43.34448" lon="5.98605">
        <ele>414</ele>
        <time>2019-12-17T12:27:09.000Z</time>
      </trkpt>
      <trkpt lat="43.34447" lon="5.98604">
        <ele>414</ele>
        <time>2019-12-17T12:27:10.000Z</time>
      </trkpt>
      <trkpt lat="43.34446" lon="5.98603">
        <ele>415</ele>
        <time>2019-12-17T12:27:11.000Z</time>
      </trkpt>
      <trkpt lat="43.34445" lon="5.98602">
        <ele>415</ele>
        <time>2019-12-17T12:27:12.000Z</time>
      </trkpt>
      <trkpt lat="43.34444" lon="5.98601">
        <ele>415</ele>
        <time>2019-12-17T12:27:13.000Z</time>
      </trkpt>
      <trkpt lat="43.34442" lon="5.986">
        <ele>415</ele>
        <time>2019-12-17T12:27:14.000Z</time>
      </trkpt>
      <trkpt lat="43.34441" lon="5.98599">
        <ele>415</ele>
        <time>2019-12-17T12:27:15.000Z</time>
      </trkpt>
      <trkpt lat="43.3444" lon="5.98598">
        <ele>415</ele>
        <time>2019-12-17T12:27:16.000Z</time>
      </trkpt>
      <trkpt lat="43.34439" lon="5.98598">
        <ele>415</ele>
        <time>2019-12-17T12:27:17.000Z</time>
      </trkpt>
      <trkpt lat="43.34437" lon="5.98598">
        <ele>416</ele>
        <time>2019-12-17T12:27:18.000Z</time>
      </trkpt>
      <trkpt lat="43.34435" lon="5.98597">
        <ele>416</ele>
        <time>2019-12-17T12:27:19.000Z</time>
      </trkpt>
      <trkpt lat="43.34434" lon="5.98597">
        <ele>416</ele>
        <time>2019-12-17T12:27:20.000Z</time>
      </trkpt>
      <trkpt lat="43.34432" lon="5.98597">
        <ele>416</ele>
        <time>2019-12-17T12:27:21.000Z</time>
      </trkpt>
      <trkpt lat="43.34431" lon="5.98596">
        <ele>416</ele>
        <time>2019-12-17T12:27:22.000Z</time>
      </trkpt>
      <trkpt lat="43.34429" lon="5.98596">
        <ele>416</ele>
        <time>2019-12-17T12:27:23.000Z</time>
      </trkpt>
      <trkpt lat="43.34428" lon="5.98595">
        <ele>416</ele>
        <time>2019-12-17T12:27:24.000Z</time>
      </trkpt>
      <trkpt lat="43.34427" lon="5.98594">
        <ele>416</ele>
        <time>2019-12-17T12:27:25.000Z</time>
      </trkpt>
      <trkpt lat="43.34426" lon="5.98593">
        <ele>416</ele>
        <time>2019-12-17T12:27:26.000Z</time>
      </trkpt>
      <trkpt lat="43.34425" lon="5.98592">
        <ele>416</ele>
        <time>2019-12-17T12:27:27.000Z</time>
      </trkpt>
      <trkpt lat="43.34424" lon="5.98591">
        <ele>417</ele>
        <time>2019-12-17T12:27:28.000Z</time>
      </trkpt>
      <trkpt lat="43.34424" lon="5.9859">
        <ele>417</ele>
        <time>2019-12-17T12:27:29.000Z</time>
      </trkpt>
      <trkpt lat="43.34423" lon="5.98588">
        <ele>417</ele>
        <time>2019-12-17T12:27:30.000Z</time>
      </trkpt>
      <trkpt lat="43.34423" lon="5.98587">
        <ele>417</ele>
        <time>2019-12-17T12:27:31.000Z</time>
      </trkpt>
      <trkpt lat="43.34422" lon="5.98585">
        <ele>417</ele>
        <time>2019-12-17T12:27:32.000Z</time>
      </trkpt>
      <trkpt lat="43.34422" lon="5.98584">
        <ele>417</ele>
        <time>2019-12-17T12:27:33.000Z</time>
      </trkpt>
      <trkpt lat="43.34421" lon="5.98583">
        <ele>417</ele>
        <time>2019-12-17T12:27:34.000Z</time>
      </trkpt>
      <trkpt lat="43.3442" lon="5.98582">
        <ele>418</ele>
        <time>2019-12-17T12:27:35.000Z</time>
      </trkpt>
      <trkpt lat="43.3442" lon="5.98581">
        <ele>418</ele>
        <time>2019-12-17T12:27:36.000Z</time>
      </trkpt>
      <trkpt lat="43.34419" lon="5.98579">
        <ele>418</ele>
        <time>2019-12-17T12:27:37.000Z</time>
      </trkpt>
      <trkpt lat="43.34419" lon="5.98578">
        <ele>418</ele>
        <time>2019-12-17T12:27:38.000Z</time>
      </trkpt>
      <trkpt lat="43.34418" lon="5.98576">
        <ele>418</ele>
        <time>2019-12-17T12:27:39.000Z</time>
      </trkpt>
      <trkpt lat="43.34418" lon="5.98575">
        <ele>418</ele>
        <time>2019-12-17T12:27:40.000Z</time>
      </trkpt>
      <trkpt lat="43.34418" lon="5.98573">
        <ele>419</ele>
        <time>2019-12-17T12:27:41.000Z</time>
      </trkpt>
      <trkpt lat="43.34419" lon="5.98571">
        <ele>419</ele>
        <time>2019-12-17T12:27:42.000Z</time>
      </trkpt>
      <trkpt lat="43.34419" lon="5.9857">
        <ele>419</ele>
        <time>2019-12-17T12:27:43.000Z</time>
      </trkpt>
      <trkpt lat="43.34419" lon="5.98568">
        <ele>419</ele>
        <time>2019-12-17T12:27:44.000Z</time>
      </trkpt>
      <trkpt lat="43.34419" lon="5.98566">
        <ele>419</ele>
        <time>2019-12-17T12:27:45.000Z</time>
      </trkpt>
      <trkpt lat="43.34419" lon="5.98565">
        <ele>419</ele>
        <time>2019-12-17T12:27:46.000Z</time>
      </trkpt>
      <trkpt lat="43.34419" lon="5.98563">
        <ele>419</ele>
        <time>2019-12-17T12:27:47.000Z</time>
      </trkpt>
      <trkpt lat="43.34419" lon="5.98561">
        <ele>419</ele>
        <time>2019-12-17T12:27:48.000Z</time>
      </trkpt>
      <trkpt lat="43.34419" lon="5.9856">
        <ele>419</ele>
        <time>2019-12-17T12:27:49.000Z</time>
      </trkpt>
      <trkpt lat="43.34419" lon="5.98558">
        <ele>419</ele>
        <time>2019-12-17T12:27:50.000Z</time>
      </trkpt>
      <trkpt lat="43.34419" lon="5.98557">
        <ele>419</ele>
        <time>2019-12-17T12:27:51.000Z</time>
      </trkpt>
      <trkpt lat="43.34419" lon="5.98556">
        <ele>419</ele>
        <time>2019-12-17T12:27:52.000Z</time>
      </trkpt>
      <trkpt lat="43.34419" lon="5.98554">
        <ele>420</ele>
        <time>2019-12-17T12:27:53.000Z</time>
      </trkpt>
      <trkpt lat="43.34418" lon="5.98552">
        <ele>420</ele>
        <time>2019-12-17T12:27:54.000Z</time>
      </trkpt>
      <trkpt lat="43.34418" lon="5.98551">
        <ele>420</ele>
        <time>2019-12-17T12:27:55.000Z</time>
      </trkpt>
      <trkpt lat="43.34418" lon="5.98549">
        <ele>420</ele>
        <time>2019-12-17T12:27:56.000Z</time>
      </trkpt>
      <trkpt lat="43.34418" lon="5.98548">
        <ele>420</ele>
        <time>2019-12-17T12:27:57.000Z</time>
      </trkpt>
      <trkpt lat="43.34418" lon="5.98546">
        <ele>420</ele>
        <time>2019-12-17T12:27:58.000Z</time>
      </trkpt>
      <trkpt lat="43.34417" lon="5.98545">
        <ele>421</ele>
        <time>2019-12-17T12:27:59.000Z</time>
      </trkpt>
      <trkpt lat="43.34417" lon="5.98543">
        <ele>421</ele>
        <time>2019-12-17T12:28:00.000Z</time>
      </trkpt>
      <trkpt lat="43.34416" lon="5.98542">
        <ele>421</ele>
        <time>2019-12-17T12:28:01.000Z</time>
      </trkpt>
      <trkpt lat="43.34416" lon="5.9854">
        <ele>421</ele>
        <time>2019-12-17T12:28:02.000Z</time>
      </trkpt>
      <trkpt lat="43.34415" lon="5.98539">
        <ele>421</ele>
        <time>2019-12-17T12:28:03.000Z</time>
      </trkpt>
      <trkpt lat="43.34415" lon="5.98538">
        <ele>421</ele>
        <time>2019-12-17T12:28:04.000Z</time>
      </trkpt>
      <trkpt lat="43.34415" lon="5.98536">
        <ele>421</ele>
        <time>2019-12-17T12:28:05.000Z</time>
      </trkpt>
      <trkpt lat="43.34414" lon="5.98535">
        <ele>422</ele>
        <time>2019-12-17T12:28:06.000Z</time>
      </trkpt>
      <trkpt lat="43.34414" lon="5.98534">
        <ele>422</ele>
        <time>2019-12-17T12:28:07.000Z</time>
      </trkpt>
      <trkpt lat="43.34414" lon="5.98532">
        <ele>422</ele>
        <time>2019-12-17T12:28:08.000Z</time>
      </trkpt>
      <trkpt lat="43.34413" lon="5.98531">
        <ele>422</ele>
        <time>2019-12-17T12:28:09.000Z</time>
      </trkpt>
      <trkpt lat="43.34413" lon="5.9853">
        <ele>422</ele>
        <time>2019-12-17T12:28:10.000Z</time>
      </trkpt>
      <trkpt lat="43.34413" lon="5.98529">
        <ele>422</ele>
        <time>2019-12-17T12:28:11.000Z</time>
      </trkpt>
      <trkpt lat="43.34413" lon="5.98528">
        <ele>422</ele>
        <time>2019-12-17T12:28:12.000Z</time>
      </trkpt>
      <trkpt lat="43.34412" lon="5.98526">
        <ele>422</ele>
        <time>2019-12-17T12:28:13.000Z</time>
      </trkpt>
      <trkpt lat="43.34411" lon="5.98525">
        <ele>422</ele>
        <time>2019-12-17T12:28:14.000Z</time>
      </trkpt>
      <trkpt lat="43.34411" lon="5.98524">
        <ele>422</ele>
        <time>2019-12-17T12:28:15.000Z</time>
      </trkpt>
      <trkpt lat="43.3441" lon="5.98522">
        <ele>422</ele>
        <time>2019-12-17T12:28:16.000Z</time>
      </trkpt>
      <trkpt lat="43.34409" lon="5.98521">
        <ele>422</ele>
        <time>2019-12-17T12:28:17.000Z</time>
      </trkpt>
      <trkpt lat="43.34408" lon="5.9852">
        <ele>423</ele>
        <time>2019-12-17T12:28:18.000Z</time>
      </trkpt>
      <trkpt lat="43.34407" lon="5.98519">
        <ele>423</ele>
        <time>2019-12-17T12:28:19.000Z</time>
      </trkpt>
      <trkpt lat="43.34406" lon="5.98518">
        <ele>423</ele>
        <time>2019-12-17T12:28:20.000Z</time>
      </trkpt>
      <trkpt lat="43.34405" lon="5.98517">
        <ele>423</ele>
        <time>2019-12-17T12:28:21.000Z</time>
      </trkpt>
      <trkpt lat="43.34404" lon="5.98516">
        <ele>423</ele>
        <time>2019-12-17T12:28:22.000Z</time>
      </trkpt>
      <trkpt lat="43.34404" lon="5.98516">
        <ele>423</ele>
        <time>2019-12-17T12:28:23.000Z</time>
      </trkpt>
      <trkpt lat="43.34404" lon="5.98515">
        <ele>423</ele>
        <time>2019-12-17T12:28:24.000Z</time>
      </trkpt>
      <trkpt lat="43.34403" lon="5.98515">
        <ele>422</ele>
        <time>2019-12-17T12:28:25.000Z</time>
      </trkpt>
      <trkpt lat="43.34403" lon="5.98515">
        <ele>422</ele>
        <time>2019-12-17T12:28:26.000Z</time>
      </trkpt>
      <trkpt lat="43.34403" lon="5.98514">
        <ele>422</ele>
        <time>2019-12-17T12:28:27.000Z</time>
      </trkpt>
      <trkpt lat="43.34403" lon="5.98513">
        <ele>423</ele>
        <time>2019-12-17T12:28:28.000Z</time>
      </trkpt>
      <trkpt lat="43.34402" lon="5.98512">
        <ele>423</ele>
        <time>2019-12-17T12:28:29.000Z</time>
      </trkpt>
      <trkpt lat="43.34402" lon="5.9851">
        <ele>423</ele>
        <time>2019-12-17T12:28:30.000Z</time>
      </trkpt>
      <trkpt lat="43.34402" lon="5.98509">
        <ele>423</ele>
        <time>2019-12-17T12:28:31.000Z</time>
      </trkpt>
      <trkpt lat="43.34401" lon="5.98508">
        <ele>423</ele>
        <time>2019-12-17T12:28:32.000Z</time>
      </trkpt>
      <trkpt lat="43.34401" lon="5.98507">
        <ele>423</ele>
        <time>2019-12-17T12:28:33.000Z</time>
      </trkpt>
      <trkpt lat="43.344" lon="5.98506">
        <ele>423</ele>
        <time>2019-12-17T12:28:34.000Z</time>
      </trkpt>
      <trkpt lat="43.34399" lon="5.98504">
        <ele>423</ele>
        <time>2019-12-17T12:28:35.000Z</time>
      </trkpt>
      <trkpt lat="43.34399" lon="5.98503">
        <ele>423</ele>
        <time>2019-12-17T12:28:36.000Z</time>
      </trkpt>
      <trkpt lat="43.34398" lon="5.98502">
        <ele>423</ele>
        <time>2019-12-17T12:28:37.000Z</time>
      </trkpt>
      <trkpt lat="43.34397" lon="5.98501">
        <ele>423</ele>
        <time>2019-12-17T12:28:38.000Z</time>
      </trkpt>
      <trkpt lat="43.34396" lon="5.98499">
        <ele>423</ele>
        <time>2019-12-17T12:28:39.000Z</time>
      </trkpt>
      <trkpt lat="43.34395" lon="5.98498">
        <ele>423</ele>
        <time>2019-12-17T12:28:40.000Z</time>
      </trkpt>
      <trkpt lat="43.34394" lon="5.98497">
        <ele>423</ele>
        <time>2019-12-17T12:28:41.000Z</time>
      </trkpt>
      <trkpt lat="43.34394" lon="5.98495">
        <ele>424</ele>
        <time>2019-12-17T12:28:42.000Z</time>
      </trkpt>
      <trkpt lat="43.34393" lon="5.98494">
        <ele>424</ele>
        <time>2019-12-17T12:28:43.000Z</time>
      </trkpt>
      <trkpt lat="43.34393" lon="5.98492">
        <ele>424</ele>
        <time>2019-12-17T12:28:44.000Z</time>
      </trkpt>
      <trkpt lat="43.34393" lon="5.98491">
        <ele>424</ele>
        <time>2019-12-17T12:28:45.000Z</time>
      </trkpt>
      <trkpt lat="43.34393" lon="5.9849">
        <ele>424</ele>
        <time>2019-12-17T12:28:46.000Z</time>
      </trkpt>
      <trkpt lat="43.34393" lon="5.98488">
        <ele>424</ele>
        <time>2019-12-17T12:28:47.000Z</time>
      </trkpt>
      <trkpt lat="43.34393" lon="5.98487">
        <ele>425</ele>
        <time>2019-12-17T12:28:48.000Z</time>
      </trkpt>
      <trkpt lat="43.34393" lon="5.98486">
        <ele>425</ele>
        <time>2019-12-17T12:28:49.000Z</time>
      </trkpt>
      <trkpt lat="43.34393" lon="5.98484">
        <ele>425</ele>
        <time>2019-12-17T12:28:50.000Z</time>
      </trkpt>
      <trkpt lat="43.34393" lon="5.98483">
        <ele>425</ele>
        <time>2019-12-17T12:28:51.000Z</time>
      </trkpt>
      <trkpt lat="43.34393" lon="5.98482">
        <ele>425</ele>
        <time>2019-12-17T12:28:52.000Z</time>
      </trkpt>
      <trkpt lat="43.34393" lon="5.98481">
        <ele>425</ele>
        <time>2019-12-17T12:28:53.000Z</time>
      </trkpt>
      <trkpt lat="43.34393" lon="5.98479">
        <ele>426</ele>
        <time>2019-12-17T12:28:54.000Z</time>
      </trkpt>
      <trkpt lat="43.34393" lon="5.98478">
        <ele>426</ele>
        <time>2019-12-17T12:28:55.000Z</time>
      </trkpt>
      <trkpt lat="43.34394" lon="5.98476">
        <ele>426</ele>
        <time>2019-12-17T12:28:56.000Z</time>
      </trkpt>
      <trkpt lat="43.34394" lon="5.98475">
        <ele>426</ele>
        <time>2019-12-17T12:28:57.000Z</time>
      </trkpt>
      <trkpt lat="43.34395" lon="5.98474">
        <ele>426</ele>
        <time>2019-12-17T12:28:58.000Z</time>
      </trkpt>
      <trkpt lat="43.34395" lon="5.98472">
        <ele>426</ele>
        <time>2019-12-17T12:28:59.000Z</time>
      </trkpt>
      <trkpt lat="43.34396" lon="5.98471">
        <ele>426</ele>
        <time>2019-12-17T12:29:00.000Z</time>
      </trkpt>
      <trkpt lat="43.34396" lon="5.98469">
        <ele>426</ele>
        <time>2019-12-17T12:29:01.000Z</time>
      </trkpt>
      <trkpt lat="43.34396" lon="5.98467">
        <ele>426</ele>
        <time>2019-12-17T12:29:02.000Z</time>
      </trkpt>
      <trkpt lat="43.34396" lon="5.98466">
        <ele>426</ele>
        <time>2019-12-17T12:29:03.000Z</time>
      </trkpt>
      <trkpt lat="43.34396" lon="5.98464">
        <ele>426</ele>
        <time>2019-12-17T12:29:04.000Z</time>
      </trkpt>
      <trkpt lat="43.34395" lon="5.98462">
        <ele>426</ele>
        <time>2019-12-17T12:29:05.000Z</time>
      </trkpt>
      <trkpt lat="43.34395" lon="5.98461">
        <ele>426</ele>
        <time>2019-12-17T12:29:06.000Z</time>
      </trkpt>
      <trkpt lat="43.34394" lon="5.98459">
        <ele>425</ele>
        <time>2019-12-17T12:29:07.000Z</time>
      </trkpt>
      <trkpt lat="43.34394" lon="5.98457">
        <ele>425</ele>
        <time>2019-12-17T12:29:08.000Z</time>
      </trkpt>
      <trkpt lat="43.34393" lon="5.98456">
        <ele>425</ele>
        <time>2019-12-17T12:29:09.000Z</time>
      </trkpt>
      <trkpt lat="43.34393" lon="5.98454">
        <ele>425</ele>
        <time>2019-12-17T12:29:10.000Z</time>
      </trkpt>
      <trkpt lat="43.34392" lon="5.98453">
        <ele>425</ele>
        <time>2019-12-17T12:29:11.000Z</time>
      </trkpt>
      <trkpt lat="43.34392" lon="5.98451">
        <ele>425</ele>
        <time>2019-12-17T12:29:12.000Z</time>
      </trkpt>
      <trkpt lat="43.34391" lon="5.9845">
        <ele>425</ele>
        <time>2019-12-17T12:29:13.000Z</time>
      </trkpt>
      <trkpt lat="43.3439" lon="5.98449">
        <ele>425</ele>
        <time>2019-12-17T12:29:14.000Z</time>
      </trkpt>
      <trkpt lat="43.34389" lon="5.98447">
        <ele>425</ele>
        <time>2019-12-17T12:29:15.000Z</time>
      </trkpt>
      <trkpt lat="43.34388" lon="5.98446">
        <ele>425</ele>
        <time>2019-12-17T12:29:16.000Z</time>
      </trkpt>
      <trkpt lat="43.34387" lon="5.98444">
        <ele>425</ele>
        <time>2019-12-17T12:29:17.000Z</time>
      </trkpt>
      <trkpt lat="43.34386" lon="5.98443">
        <ele>425</ele>
        <time>2019-12-17T12:29:18.000Z</time>
      </trkpt>
      <trkpt lat="43.34385" lon="5.98441">
        <ele>425</ele>
        <time>2019-12-17T12:29:19.000Z</time>
      </trkpt>
      <trkpt lat="43.34384" lon="5.9844">
        <ele>425</ele>
        <time>2019-12-17T12:29:20.000Z</time>
      </trkpt>
      <trkpt lat="43.34383" lon="5.98438">
        <ele>425</ele>
        <time>2019-12-17T12:29:21.000Z</time>
      </trkpt>
      <trkpt lat="43.34383" lon="5.98438">
        <ele>425</ele>
        <time>2019-12-17T12:29:22.000Z</time>
      </trkpt>
      <trkpt lat="43.34382" lon="5.98437">
        <ele>425</ele>
        <time>2019-12-17T12:29:23.000Z</time>
      </trkpt>
      <trkpt lat="43.34382" lon="5.98437">
        <ele>425</ele>
        <time>2019-12-17T12:29:24.000Z</time>
      </trkpt>
      <trkpt lat="43.34382" lon="5.98436">
        <ele>425</ele>
        <time>2019-12-17T12:29:25.000Z</time>
      </trkpt>
      <trkpt lat="43.34382" lon="5.98436">
        <ele>426</ele>
        <time>2019-12-17T12:29:26.000Z</time>
      </trkpt>
      <trkpt lat="43.34383" lon="5.98435">
        <ele>426</ele>
        <time>2019-12-17T12:29:27.000Z</time>
      </trkpt>
      <trkpt lat="43.34383" lon="5.98434">
        <ele>426</ele>
        <time>2019-12-17T12:29:28.000Z</time>
      </trkpt>
      <trkpt lat="43.34383" lon="5.98434">
        <ele>426</ele>
        <time>2019-12-17T12:29:29.000Z</time>
      </trkpt>
      <trkpt lat="43.34383" lon="5.98434">
        <ele>426</ele>
        <time>2019-12-17T12:29:30.000Z</time>
      </trkpt>
      <trkpt lat="43.34383" lon="5.98434">
        <ele>426</ele>
        <time>2019-12-17T12:29:31.000Z</time>
      </trkpt>
      <trkpt lat="43.34383" lon="5.98434">
        <ele>426</ele>
        <time>2019-12-17T12:29:32.000Z</time>
      </trkpt>
      <trkpt lat="43.34383" lon="5.98434">
        <ele>426</ele>
        <time>2019-12-17T12:29:34.000Z</time>
      </trkpt>
      <trkpt lat="43.34383" lon="5.98434">
        <ele>427</ele>
        <time>2019-12-17T12:29:35.000Z</time>
      </trkpt>
      <trkpt lat="43.34383" lon="5.98433">
        <ele>427</ele>
        <time>2019-12-17T12:29:36.000Z</time>
      </trkpt>
      <trkpt lat="43.34383" lon="5.98433">
        <ele>427</ele>
        <time>2019-12-17T12:29:37.000Z</time>
      </trkpt>
      <trkpt lat="43.34382" lon="5.98432">
        <ele>427</ele>
        <time>2019-12-17T12:29:38.000Z</time>
      </trkpt>
      <trkpt lat="43.34382" lon="5.98432">
        <ele>427</ele>
        <time>2019-12-17T12:29:39.000Z</time>
      </trkpt>
      <trkpt lat="43.34382" lon="5.9843">
        <ele>427</ele>
        <time>2019-12-17T12:29:40.000Z</time>
      </trkpt>
      <trkpt lat="43.34382" lon="5.98429">
        <ele>427</ele>
        <time>2019-12-17T12:29:41.000Z</time>
      </trkpt>
      <trkpt lat="43.34382" lon="5.98428">
        <ele>427</ele>
        <time>2019-12-17T12:29:42.000Z</time>
      </trkpt>
      <trkpt lat="43.34381" lon="5.98428">
        <ele>428</ele>
        <time>2019-12-17T12:29:43.000Z</time>
      </trkpt>
      <trkpt lat="43.34381" lon="5.98427">
        <ele>428</ele>
        <time>2019-12-17T12:29:44.000Z</time>
      </trkpt>
      <trkpt lat="43.3438" lon="5.98426">
        <ele>428</ele>
        <time>2019-12-17T12:29:45.000Z</time>
      </trkpt>
      <trkpt lat="43.34379" lon="5.98425">
        <ele>428</ele>
        <time>2019-12-17T12:29:46.000Z</time>
      </trkpt>
      <trkpt lat="43.34378" lon="5.98424">
        <ele>428</ele>
        <time>2019-12-17T12:29:47.000Z</time>
      </trkpt>
      <trkpt lat="43.34378" lon="5.98423">
        <ele>428</ele>
        <time>2019-12-17T12:29:48.000Z</time>
      </trkpt>
      <trkpt lat="43.34377" lon="5.98421">
        <ele>429</ele>
        <time>2019-12-17T12:29:49.000Z</time>
      </trkpt>
      <trkpt lat="43.34377" lon="5.9842">
        <ele>429</ele>
        <time>2019-12-17T12:29:50.000Z</time>
      </trkpt>
      <trkpt lat="43.34377" lon="5.98419">
        <ele>429</ele>
        <time>2019-12-17T12:29:51.000Z</time>
      </trkpt>
      <trkpt lat="43.34376" lon="5.98418">
        <ele>429</ele>
        <time>2019-12-17T12:29:52.000Z</time>
      </trkpt>
      <trkpt lat="43.34376" lon="5.98417">
        <ele>429</ele>
        <time>2019-12-17T12:29:53.000Z</time>
      </trkpt>
      <trkpt lat="43.34376" lon="5.98416">
        <ele>430</ele>
        <time>2019-12-17T12:29:54.000Z</time>
      </trkpt>
      <trkpt lat="43.34376" lon="5.98415">
        <ele>430</ele>
        <time>2019-12-17T12:29:55.000Z</time>
      </trkpt>
      <trkpt lat="43.34376" lon="5.98414">
        <ele>430</ele>
        <time>2019-12-17T12:29:56.000Z</time>
      </trkpt>
      <trkpt lat="43.34376" lon="5.98413">
        <ele>431</ele>
        <time>2019-12-17T12:29:57.000Z</time>
      </trkpt>
      <trkpt lat="43.34376" lon="5.98411">
        <ele>431</ele>
        <time>2019-12-17T12:29:58.000Z</time>
      </trkpt>
      <trkpt lat="43.34375" lon="5.9841">
        <ele>431</ele>
        <time>2019-12-17T12:29:59.000Z</time>
      </trkpt>
      <trkpt lat="43.34375" lon="5.98409">
        <ele>431</ele>
        <time>2019-12-17T12:30:00.000Z</time>
      </trkpt>
      <trkpt lat="43.34375" lon="5.98407">
        <ele>432</ele>
        <time>2019-12-17T12:30:01.000Z</time>
      </trkpt>
      <trkpt lat="43.34375" lon="5.98406">
        <ele>432</ele>
        <time>2019-12-17T12:30:02.000Z</time>
      </trkpt>
      <trkpt lat="43.34375" lon="5.98404">
        <ele>432</ele>
        <time>2019-12-17T12:30:03.000Z</time>
      </trkpt>
      <trkpt lat="43.34375" lon="5.98403">
        <ele>432</ele>
        <time>2019-12-17T12:30:04.000Z</time>
      </trkpt>
      <trkpt lat="43.34375" lon="5.98402">
        <ele>432</ele>
        <time>2019-12-17T12:30:05.000Z</time>
      </trkpt>
      <trkpt lat="43.34375" lon="5.984">
        <ele>432</ele>
        <time>2019-12-17T12:30:06.000Z</time>
      </trkpt>
      <trkpt lat="43.34375" lon="5.98399">
        <ele>433</ele>
        <time>2019-12-17T12:30:07.000Z</time>
      </trkpt>
      <trkpt lat="43.34374" lon="5.98398">
        <ele>433</ele>
        <time>2019-12-17T12:30:08.000Z</time>
      </trkpt>
      <trkpt lat="43.34374" lon="5.98396">
        <ele>433</ele>
        <time>2019-12-17T12:30:09.000Z</time>
      </trkpt>
      <trkpt lat="43.34373" lon="5.98395">
        <ele>433</ele>
        <time>2019-12-17T12:30:10.000Z</time>
      </trkpt>
      <trkpt lat="43.34372" lon="5.98393">
        <ele>433</ele>
        <time>2019-12-17T12:30:11.000Z</time>
      </trkpt>
      <trkpt lat="43.34372" lon="5.98391">
        <ele>433</ele>
        <time>2019-12-17T12:30:12.000Z</time>
      </trkpt>
      <trkpt lat="43.34371" lon="5.9839">
        <ele>433</ele>
        <time>2019-12-17T12:30:13.000Z</time>
      </trkpt>
      <trkpt lat="43.34371" lon="5.98388">
        <ele>433</ele>
        <time>2019-12-17T12:30:14.000Z</time>
      </trkpt>
      <trkpt lat="43.3437" lon="5.98386">
        <ele>433</ele>
        <time>2019-12-17T12:30:15.000Z</time>
      </trkpt>
      <trkpt lat="43.34369" lon="5.98385">
        <ele>433</ele>
        <time>2019-12-17T12:30:16.000Z</time>
      </trkpt>
      <trkpt lat="43.34369" lon="5.98384">
        <ele>433</ele>
        <time>2019-12-17T12:30:17.000Z</time>
      </trkpt>
      <trkpt lat="43.34369" lon="5.98382">
        <ele>433</ele>
        <time>2019-12-17T12:30:18.000Z</time>
      </trkpt>
      <trkpt lat="43.34368" lon="5.9838">
        <ele>432</ele>
        <time>2019-12-17T12:30:19.000Z</time>
      </trkpt>
      <trkpt lat="43.34368" lon="5.98379">
        <ele>432</ele>
        <time>2019-12-17T12:30:20.000Z</time>
      </trkpt>
      <trkpt lat="43.34368" lon="5.98377">
        <ele>432</ele>
        <time>2019-12-17T12:30:21.000Z</time>
      </trkpt>
      <trkpt lat="43.34367" lon="5.98375">
        <ele>432</ele>
        <time>2019-12-17T12:30:22.000Z</time>
      </trkpt>
      <trkpt lat="43.34367" lon="5.98374">
        <ele>432</ele>
        <time>2019-12-17T12:30:23.000Z</time>
      </trkpt>
      <trkpt lat="43.34367" lon="5.98372">
        <ele>432</ele>
        <time>2019-12-17T12:30:24.000Z</time>
      </trkpt>
      <trkpt lat="43.34367" lon="5.98371">
        <ele>432</ele>
        <time>2019-12-17T12:30:25.000Z</time>
      </trkpt>
      <trkpt lat="43.34366" lon="5.9837">
        <ele>432</ele>
        <time>2019-12-17T12:30:26.000Z</time>
      </trkpt>
      <trkpt lat="43.34366" lon="5.9837">
        <ele>432</ele>
        <time>2019-12-17T12:30:27.000Z</time>
      </trkpt>
      <trkpt lat="43.34366" lon="5.98369">
        <ele>432</ele>
        <time>2019-12-17T12:30:28.000Z</time>
      </trkpt>
      <trkpt lat="43.34366" lon="5.98368">
        <ele>431</ele>
        <time>2019-12-17T12:30:29.000Z</time>
      </trkpt>
      <trkpt lat="43.34366" lon="5.98367">
        <ele>431</ele>
        <time>2019-12-17T12:30:30.000Z</time>
      </trkpt>
      <trkpt lat="43.34366" lon="5.98367">
        <ele>431</ele>
        <time>2019-12-17T12:30:31.000Z</time>
      </trkpt>
      <trkpt lat="43.34367" lon="5.98366">
        <ele>431</ele>
        <time>2019-12-17T12:30:32.000Z</time>
      </trkpt>
      <trkpt lat="43.34367" lon="5.98365">
        <ele>431</ele>
        <time>2019-12-17T12:30:33.000Z</time>
      </trkpt>
      <trkpt lat="43.34368" lon="5.98364">
        <ele>431</ele>
        <time>2019-12-17T12:30:34.000Z</time>
      </trkpt>
      <trkpt lat="43.34369" lon="5.98363">
        <ele>430</ele>
        <time>2019-12-17T12:30:35.000Z</time>
      </trkpt>
      <trkpt lat="43.3437" lon="5.98362">
        <ele>430</ele>
        <time>2019-12-17T12:30:36.000Z</time>
      </trkpt>
      <trkpt lat="43.3437" lon="5.98362">
        <ele>430</ele>
        <time>2019-12-17T12:30:37.000Z</time>
      </trkpt>
      <trkpt lat="43.34371" lon="5.98361">
        <ele>430</ele>
        <time>2019-12-17T12:30:38.000Z</time>
      </trkpt>
      <trkpt lat="43.34372" lon="5.9836">
        <ele>430</ele>
        <time>2019-12-17T12:30:39.000Z</time>
      </trkpt>
      <trkpt lat="43.34372" lon="5.98359">
        <ele>430</ele>
        <time>2019-12-17T12:30:40.000Z</time>
      </trkpt>
      <trkpt lat="43.34372" lon="5.98358">
        <ele>430</ele>
        <time>2019-12-17T12:30:41.000Z</time>
      </trkpt>
      <trkpt lat="43.34372" lon="5.98358">
        <ele>430</ele>
        <time>2019-12-17T12:30:42.000Z</time>
      </trkpt>
      <trkpt lat="43.34372" lon="5.98357">
        <ele>430</ele>
        <time>2019-12-17T12:30:43.000Z</time>
      </trkpt>
      <trkpt lat="43.34371" lon="5.98356">
        <ele>430</ele>
        <time>2019-12-17T12:30:44.000Z</time>
      </trkpt>
      <trkpt lat="43.3437" lon="5.98354">
        <ele>430</ele>
        <time>2019-12-17T12:30:45.000Z</time>
      </trkpt>
      <trkpt lat="43.3437" lon="5.98353">
        <ele>430</ele>
        <time>2019-12-17T12:30:46.000Z</time>
      </trkpt>
      <trkpt lat="43.34369" lon="5.98352">
        <ele>430</ele>
        <time>2019-12-17T12:30:47.000Z</time>
      </trkpt>
      <trkpt lat="43.34368" lon="5.9835">
        <ele>430</ele>
        <time>2019-12-17T12:30:48.000Z</time>
      </trkpt>
      <trkpt lat="43.34366" lon="5.98349">
        <ele>430</ele>
        <time>2019-12-17T12:30:49.000Z</time>
      </trkpt>
      <trkpt lat="43.34365" lon="5.98348">
        <ele>430</ele>
        <time>2019-12-17T12:30:50.000Z</time>
      </trkpt>
      <trkpt lat="43.34365" lon="5.98347">
        <ele>430</ele>
        <time>2019-12-17T12:30:51.000Z</time>
      </trkpt>
      <trkpt lat="43.34364" lon="5.98345">
        <ele>430</ele>
        <time>2019-12-17T12:30:52.000Z</time>
      </trkpt>
      <trkpt lat="43.34363" lon="5.98344">
        <ele>430</ele>
        <time>2019-12-17T12:30:53.000Z</time>
      </trkpt>
      <trkpt lat="43.34362" lon="5.98343">
        <ele>430</ele>
        <time>2019-12-17T12:30:54.000Z</time>
      </trkpt>
      <trkpt lat="43.34362" lon="5.98341">
        <ele>430</ele>
        <time>2019-12-17T12:30:55.000Z</time>
      </trkpt>
      <trkpt lat="43.34361" lon="5.9834">
        <ele>430</ele>
        <time>2019-12-17T12:30:56.000Z</time>
      </trkpt>
      <trkpt lat="43.34361" lon="5.98338">
        <ele>430</ele>
        <time>2019-12-17T12:30:57.000Z</time>
      </trkpt>
      <trkpt lat="43.3436" lon="5.98336">
        <ele>430</ele>
        <time>2019-12-17T12:30:58.000Z</time>
      </trkpt>
      <trkpt lat="43.3436" lon="5.98335">
        <ele>430</ele>
        <time>2019-12-17T12:30:59.000Z</time>
      </trkpt>
      <trkpt lat="43.34359" lon="5.98333">
        <ele>430</ele>
        <time>2019-12-17T12:31:00.000Z</time>
      </trkpt>
      <trkpt lat="43.34359" lon="5.98332">
        <ele>430</ele>
        <time>2019-12-17T12:31:01.000Z</time>
      </trkpt>
      <trkpt lat="43.34359" lon="5.9833">
        <ele>430</ele>
        <time>2019-12-17T12:31:02.000Z</time>
      </trkpt>
      <trkpt lat="43.34358" lon="5.98329">
        <ele>430</ele>
        <time>2019-12-17T12:31:03.000Z</time>
      </trkpt>
      <trkpt lat="43.34358" lon="5.98327">
        <ele>430</ele>
        <time>2019-12-17T12:31:04.000Z</time>
      </trkpt>
      <trkpt lat="43.34358" lon="5.98326">
        <ele>430</ele>
        <time>2019-12-17T12:31:05.000Z</time>
      </trkpt>
      <trkpt lat="43.34358" lon="5.98325">
        <ele>430</ele>
        <time>2019-12-17T12:31:06.000Z</time>
      </trkpt>
      <trkpt lat="43.34357" lon="5.98324">
        <ele>430</ele>
        <time>2019-12-17T12:31:07.000Z</time>
      </trkpt>
      <trkpt lat="43.34357" lon="5.98322">
        <ele>430</ele>
        <time>2019-12-17T12:31:08.000Z</time>
      </trkpt>
      <trkpt lat="43.34357" lon="5.98321">
        <ele>430</ele>
        <time>2019-12-17T12:31:09.000Z</time>
      </trkpt>
      <trkpt lat="43.34357" lon="5.9832">
        <ele>430</ele>
        <time>2019-12-17T12:31:10.000Z</time>
      </trkpt>
      <trkpt lat="43.34356" lon="5.98318">
        <ele>430</ele>
        <time>2019-12-17T12:31:11.000Z</time>
      </trkpt>
      <trkpt lat="43.34356" lon="5.98317">
        <ele>430</ele>
        <time>2019-12-17T12:31:12.000Z</time>
      </trkpt>
      <trkpt lat="43.34355" lon="5.98315">
        <ele>430</ele>
        <time>2019-12-17T12:31:13.000Z</time>
      </trkpt>
      <trkpt lat="43.34354" lon="5.98314">
        <ele>429</ele>
        <time>2019-12-17T12:31:14.000Z</time>
      </trkpt>
      <trkpt lat="43.34353" lon="5.98312">
        <ele>429</ele>
        <time>2019-12-17T12:31:15.000Z</time>
      </trkpt>
      <trkpt lat="43.34352" lon="5.9831">
        <ele>429</ele>
        <time>2019-12-17T12:31:16.000Z</time>
      </trkpt>
      <trkpt lat="43.34352" lon="5.98309">
        <ele>429</ele>
        <time>2019-12-17T12:31:17.000Z</time>
      </trkpt>
      <trkpt lat="43.34351" lon="5.98307">
        <ele>429</ele>
        <time>2019-12-17T12:31:18.000Z</time>
      </trkpt>
      <trkpt lat="43.3435" lon="5.98306">
        <ele>429</ele>
        <time>2019-12-17T12:31:19.000Z</time>
      </trkpt>
      <trkpt lat="43.34349" lon="5.98304">
        <ele>429</ele>
        <time>2019-12-17T12:31:20.000Z</time>
      </trkpt>
      <trkpt lat="43.34348" lon="5.98303">
        <ele>429</ele>
        <time>2019-12-17T12:31:21.000Z</time>
      </trkpt>
      <trkpt lat="43.34348" lon="5.98301">
        <ele>429</ele>
        <time>2019-12-17T12:31:22.000Z</time>
      </trkpt>
      <trkpt lat="43.34348" lon="5.98299">
        <ele>429</ele>
        <time>2019-12-17T12:31:23.000Z</time>
      </trkpt>
      <trkpt lat="43.34348" lon="5.98298">
        <ele>429</ele>
        <time>2019-12-17T12:31:24.000Z</time>
      </trkpt>
      <trkpt lat="43.34348" lon="5.98296">
        <ele>429</ele>
        <time>2019-12-17T12:31:25.000Z</time>
      </trkpt>
      <trkpt lat="43.34348" lon="5.98295">
        <ele>429</ele>
        <time>2019-12-17T12:31:26.000Z</time>
      </trkpt>
      <trkpt lat="43.34348" lon="5.98293">
        <ele>429</ele>
        <time>2019-12-17T12:31:27.000Z</time>
      </trkpt>
      <trkpt lat="43.34348" lon="5.98292">
        <ele>429</ele>
        <time>2019-12-17T12:31:28.000Z</time>
      </trkpt>
      <trkpt lat="43.34348" lon="5.9829">
        <ele>429</ele>
        <time>2019-12-17T12:31:29.000Z</time>
      </trkpt>
      <trkpt lat="43.34348" lon="5.98288">
        <ele>429</ele>
        <time>2019-12-17T12:31:30.000Z</time>
      </trkpt>
      <trkpt lat="43.34348" lon="5.98287">
        <ele>429</ele>
        <time>2019-12-17T12:31:31.000Z</time>
      </trkpt>
      <trkpt lat="43.34349" lon="5.98285">
        <ele>429</ele>
        <time>2019-12-17T12:31:32.000Z</time>
      </trkpt>
      <trkpt lat="43.34349" lon="5.98283">
        <ele>429</ele>
        <time>2019-12-17T12:31:33.000Z</time>
      </trkpt>
      <trkpt lat="43.34349" lon="5.98282">
        <ele>429</ele>
        <time>2019-12-17T12:31:34.000Z</time>
      </trkpt>
      <trkpt lat="43.34349" lon="5.9828">
        <ele>429</ele>
        <time>2019-12-17T12:31:35.000Z</time>
      </trkpt>
      <trkpt lat="43.34349" lon="5.98278">
        <ele>429</ele>
        <time>2019-12-17T12:31:36.000Z</time>
      </trkpt>
      <trkpt lat="43.34349" lon="5.98277">
        <ele>429</ele>
        <time>2019-12-17T12:31:37.000Z</time>
      </trkpt>
      <trkpt lat="43.34349" lon="5.98275">
        <ele>429</ele>
        <time>2019-12-17T12:31:38.000Z</time>
      </trkpt>
      <trkpt lat="43.3435" lon="5.98273">
        <ele>430</ele>
        <time>2019-12-17T12:31:39.000Z</time>
      </trkpt>
      <trkpt lat="43.3435" lon="5.98272">
        <ele>430</ele>
        <time>2019-12-17T12:31:40.000Z</time>
      </trkpt>
      <trkpt lat="43.34351" lon="5.9827">
        <ele>430</ele>
        <time>2019-12-17T12:31:41.000Z</time>
      </trkpt>
      <trkpt lat="43.34351" lon="5.98269">
        <ele>430</ele>
        <time>2019-12-17T12:31:42.000Z</time>
      </trkpt>
      <trkpt lat="43.34351" lon="5.98267">
        <ele>430</ele>
        <time>2019-12-17T12:31:43.000Z</time>
      </trkpt>
      <trkpt lat="43.34351" lon="5.98266">
        <ele>430</ele>
        <time>2019-12-17T12:31:44.000Z</time>
      </trkpt>
      <trkpt lat="43.34351" lon="5.98264">
        <ele>430</ele>
        <time>2019-12-17T12:31:45.000Z</time>
      </trkpt>
      <trkpt lat="43.34352" lon="5.98263">
        <ele>430</ele>
        <time>2019-12-17T12:31:46.000Z</time>
      </trkpt>
      <trkpt lat="43.34352" lon="5.98261">
        <ele>430</ele>
        <time>2019-12-17T12:31:47.000Z</time>
      </trkpt>
      <trkpt lat="43.34353" lon="5.98259">
        <ele>430</ele>
        <time>2019-12-17T12:31:48.000Z</time>
      </trkpt>
      <trkpt lat="43.34353" lon="5.98258">
        <ele>430</ele>
        <time>2019-12-17T12:31:49.000Z</time>
      </trkpt>
      <trkpt lat="43.34353" lon="5.98256">
        <ele>430</ele>
        <time>2019-12-17T12:31:50.000Z</time>
      </trkpt>
      <trkpt lat="43.34354" lon="5.98255">
        <ele>430</ele>
        <time>2019-12-17T12:31:51.000Z</time>
      </trkpt>
      <trkpt lat="43.34355" lon="5.98253">
        <ele>430</ele>
        <time>2019-12-17T12:31:52.000Z</time>
      </trkpt>
      <trkpt lat="43.34355" lon="5.98252">
        <ele>430</ele>
        <time>2019-12-17T12:31:53.000Z</time>
      </trkpt>
      <trkpt lat="43.34356" lon="5.9825">
        <ele>430</ele>
        <time>2019-12-17T12:31:54.000Z</time>
      </trkpt>
      <trkpt lat="43.34357" lon="5.98249">
        <ele>430</ele>
        <time>2019-12-17T12:31:55.000Z</time>
      </trkpt>
      <trkpt lat="43.34358" lon="5.98248">
        <ele>430</ele>
        <time>2019-12-17T12:31:56.000Z</time>
      </trkpt>
      <trkpt lat="43.34359" lon="5.98247">
        <ele>430</ele>
        <time>2019-12-17T12:31:57.000Z</time>
      </trkpt>
      <trkpt lat="43.34359" lon="5.98246">
        <ele>430</ele>
        <time>2019-12-17T12:31:58.000Z</time>
      </trkpt>
      <trkpt lat="43.34359" lon="5.98245">
        <ele>430</ele>
        <time>2019-12-17T12:31:59.000Z</time>
      </trkpt>
      <trkpt lat="43.34359" lon="5.98244">
        <ele>430</ele>
        <time>2019-12-17T12:32:00.000Z</time>
      </trkpt>
      <trkpt lat="43.3436" lon="5.98243">
        <ele>430</ele>
        <time>2019-12-17T12:32:01.000Z</time>
      </trkpt>
      <trkpt lat="43.3436" lon="5.98242">
        <ele>430</ele>
        <time>2019-12-17T12:32:02.000Z</time>
      </trkpt>
      <trkpt lat="43.3436" lon="5.98241">
        <ele>430</ele>
        <time>2019-12-17T12:32:03.000Z</time>
      </trkpt>
      <trkpt lat="43.34361" lon="5.9824">
        <ele>430</ele>
        <time>2019-12-17T12:32:04.000Z</time>
      </trkpt>
      <trkpt lat="43.34361" lon="5.98238">
        <ele>430</ele>
        <time>2019-12-17T12:32:05.000Z</time>
      </trkpt>
      <trkpt lat="43.34361" lon="5.98237">
        <ele>430</ele>
        <time>2019-12-17T12:32:06.000Z</time>
      </trkpt>
      <trkpt lat="43.3436" lon="5.98236">
        <ele>429</ele>
        <time>2019-12-17T12:32:07.000Z</time>
      </trkpt>
      <trkpt lat="43.3436" lon="5.98235">
        <ele>429</ele>
        <time>2019-12-17T12:32:08.000Z</time>
      </trkpt>
      <trkpt lat="43.34359" lon="5.98234">
        <ele>429</ele>
        <time>2019-12-17T12:32:09.000Z</time>
      </trkpt>
      <trkpt lat="43.34358" lon="5.98233">
        <ele>429</ele>
        <time>2019-12-17T12:32:10.000Z</time>
      </trkpt>
      <trkpt lat="43.34357" lon="5.98232">
        <ele>429</ele>
        <time>2019-12-17T12:32:11.000Z</time>
      </trkpt>
      <trkpt lat="43.34356" lon="5.98231">
        <ele>429</ele>
        <time>2019-12-17T12:32:12.000Z</time>
      </trkpt>
      <trkpt lat="43.34356" lon="5.98229">
        <ele>429</ele>
        <time>2019-12-17T12:32:13.000Z</time>
      </trkpt>
      <trkpt lat="43.34355" lon="5.98228">
        <ele>429</ele>
        <time>2019-12-17T12:32:14.000Z</time>
      </trkpt>
      <trkpt lat="43.34354" lon="5.98227">
        <ele>429</ele>
        <time>2019-12-17T12:32:15.000Z</time>
      </trkpt>
      <trkpt lat="43.34354" lon="5.98227">
        <ele>429</ele>
        <time>2019-12-17T12:32:16.000Z</time>
      </trkpt>
      <trkpt lat="43.34353" lon="5.98226">
        <ele>429</ele>
        <time>2019-12-17T12:32:17.000Z</time>
      </trkpt>
      <trkpt lat="43.34352" lon="5.98225">
        <ele>429</ele>
        <time>2019-12-17T12:32:18.000Z</time>
      </trkpt>
      <trkpt lat="43.34351" lon="5.98224">
        <ele>429</ele>
        <time>2019-12-17T12:32:19.000Z</time>
      </trkpt>
      <trkpt lat="43.3435" lon="5.98224">
        <ele>429</ele>
        <time>2019-12-17T12:32:20.000Z</time>
      </trkpt>
      <trkpt lat="43.34349" lon="5.98224">
        <ele>429</ele>
        <time>2019-12-17T12:32:21.000Z</time>
      </trkpt>
      <trkpt lat="43.34348" lon="5.98223">
        <ele>429</ele>
        <time>2019-12-17T12:32:22.000Z</time>
      </trkpt>
      <trkpt lat="43.34348" lon="5.98223">
        <ele>429</ele>
        <time>2019-12-17T12:32:23.000Z</time>
      </trkpt>
      <trkpt lat="43.34347" lon="5.98223">
        <ele>429</ele>
        <time>2019-12-17T12:32:24.000Z</time>
      </trkpt>
      <trkpt lat="43.34346" lon="5.98222">
        <ele>429</ele>
        <time>2019-12-17T12:32:25.000Z</time>
      </trkpt>
      <trkpt lat="43.34345" lon="5.98222">
        <ele>430</ele>
        <time>2019-12-17T12:32:26.000Z</time>
      </trkpt>
      <trkpt lat="43.34345" lon="5.98221">
        <ele>430</ele>
        <time>2019-12-17T12:32:27.000Z</time>
      </trkpt>
      <trkpt lat="43.34344" lon="5.98221">
        <ele>430</ele>
        <time>2019-12-17T12:32:28.000Z</time>
      </trkpt>
      <trkpt lat="43.34343" lon="5.98221">
        <ele>430</ele>
        <time>2019-12-17T12:32:29.000Z</time>
      </trkpt>
      <trkpt lat="43.34343" lon="5.9822">
        <ele>430</ele>
        <time>2019-12-17T12:32:30.000Z</time>
      </trkpt>
      <trkpt lat="43.34342" lon="5.9822">
        <ele>430</ele>
        <time>2019-12-17T12:32:31.000Z</time>
      </trkpt>
      <trkpt lat="43.34341" lon="5.9822">
        <ele>430</ele>
        <time>2019-12-17T12:32:32.000Z</time>
      </trkpt>
      <trkpt lat="43.34341" lon="5.98219">
        <ele>430</ele>
        <time>2019-12-17T12:32:33.000Z</time>
      </trkpt>
      <trkpt lat="43.3434" lon="5.98219">
        <ele>430</ele>
        <time>2019-12-17T12:32:34.000Z</time>
      </trkpt>
      <trkpt lat="43.3434" lon="5.98219">
        <ele>430</ele>
        <time>2019-12-17T12:32:35.000Z</time>
      </trkpt>
      <trkpt lat="43.34339" lon="5.98219">
        <ele>430</ele>
        <time>2019-12-17T12:32:36.000Z</time>
      </trkpt>
      <trkpt lat="43.34339" lon="5.98218">
        <ele>430</ele>
        <time>2019-12-17T12:32:37.000Z</time>
      </trkpt>
      <trkpt lat="43.34339" lon="5.98218">
        <ele>430</ele>
        <time>2019-12-17T12:32:38.000Z</time>
      </trkpt>
      <trkpt lat="43.34338" lon="5.98218">
        <ele>430</ele>
        <time>2019-12-17T12:32:39.000Z</time>
      </trkpt>
      <trkpt lat="43.34338" lon="5.98218">
        <ele>430</ele>
        <time>2019-12-17T12:32:40.000Z</time>
      </trkpt>
      <trkpt lat="43.34338" lon="5.98217">
        <ele>430</ele>
        <time>2019-12-17T12:32:41.000Z</time>
      </trkpt>
      <trkpt lat="43.34337" lon="5.98217">
        <ele>430</ele>
        <time>2019-12-17T12:32:42.000Z</time>
      </trkpt>
      <trkpt lat="43.34337" lon="5.98217">
        <ele>430</ele>
        <time>2019-12-17T12:32:43.000Z</time>
      </trkpt>
      <trkpt lat="43.34337" lon="5.98217">
        <ele>430</ele>
        <time>2019-12-17T12:32:44.000Z</time>
      </trkpt>
      <trkpt lat="43.34337" lon="5.98217">
        <ele>430</ele>
        <time>2019-12-17T12:32:45.000Z</time>
      </trkpt>
      <trkpt lat="43.34336" lon="5.98216">
        <ele>430</ele>
        <time>2019-12-17T12:32:46.000Z</time>
      </trkpt>
      <trkpt lat="43.34336" lon="5.98216">
        <ele>430</ele>
        <time>2019-12-17T12:32:47.000Z</time>
      </trkpt>
      <trkpt lat="43.34336" lon="5.98217">
        <ele>430</ele>
        <time>2019-12-17T12:32:48.000Z</time>
      </trkpt>
      <trkpt lat="43.34337" lon="5.98216">
        <ele>430</ele>
        <time>2019-12-17T12:32:49.000Z</time>
      </trkpt>
      <trkpt lat="43.34337" lon="5.98216">
        <ele>430</ele>
        <time>2019-12-17T12:32:50.000Z</time>
      </trkpt>
      <trkpt lat="43.34337" lon="5.98216">
        <ele>430</ele>
        <time>2019-12-17T12:32:51.000Z</time>
      </trkpt>
      <trkpt lat="43.34338" lon="5.98216">
        <ele>430</ele>
        <time>2019-12-17T12:32:52.000Z</time>
      </trkpt>
      <trkpt lat="43.34338" lon="5.98216">
        <ele>430</ele>
        <time>2019-12-17T12:32:53.000Z</time>
      </trkpt>
      <trkpt lat="43.34338" lon="5.98215">
        <ele>430</ele>
        <time>2019-12-17T12:32:54.000Z</time>
      </trkpt>
      <trkpt lat="43.34338" lon="5.98215">
        <ele>430</ele>
        <time>2019-12-17T12:32:55.000Z</time>
      </trkpt>
      <trkpt lat="43.34338" lon="5.98214">
        <ele>430</ele>
        <time>2019-12-17T12:32:56.000Z</time>
      </trkpt>
      <trkpt lat="43.34338" lon="5.98213">
        <ele>430</ele>
        <time>2019-12-17T12:32:57.000Z</time>
      </trkpt>
      <trkpt lat="43.34338" lon="5.98212">
        <ele>430</ele>
        <time>2019-12-17T12:32:58.000Z</time>
      </trkpt>
      <trkpt lat="43.34339" lon="5.98211">
        <ele>430</ele>
        <time>2019-12-17T12:32:59.000Z</time>
      </trkpt>
      <trkpt lat="43.34339" lon="5.9821">
        <ele>430</ele>
        <time>2019-12-17T12:33:00.000Z</time>
      </trkpt>
      <trkpt lat="43.34339" lon="5.98208">
        <ele>430</ele>
        <time>2019-12-17T12:33:01.000Z</time>
      </trkpt>
      <trkpt lat="43.3434" lon="5.98207">
        <ele>430</ele>
        <time>2019-12-17T12:33:02.000Z</time>
      </trkpt>
      <trkpt lat="43.34341" lon="5.98206">
        <ele>430</ele>
        <time>2019-12-17T12:33:03.000Z</time>
      </trkpt>
      <trkpt lat="43.34342" lon="5.98205">
        <ele>430</ele>
        <time>2019-12-17T12:33:04.000Z</time>
      </trkpt>
      <trkpt lat="43.34343" lon="5.98204">
        <ele>430</ele>
        <time>2019-12-17T12:33:05.000Z</time>
      </trkpt>
      <trkpt lat="43.34344" lon="5.98203">
        <ele>430</ele>
        <time>2019-12-17T12:33:06.000Z</time>
      </trkpt>
      <trkpt lat="43.34344" lon="5.98202">
        <ele>430</ele>
        <time>2019-12-17T12:33:07.000Z</time>
      </trkpt>
      <trkpt lat="43.34345" lon="5.98201">
        <ele>430</ele>
        <time>2019-12-17T12:33:08.000Z</time>
      </trkpt>
      <trkpt lat="43.34345" lon="5.98201">
        <ele>431</ele>
        <time>2019-12-17T12:33:09.000Z</time>
      </trkpt>
      <trkpt lat="43.34346" lon="5.98201">
        <ele>431</ele>
        <time>2019-12-17T12:33:10.000Z</time>
      </trkpt>
      <trkpt lat="43.34346" lon="5.982">
        <ele>431</ele>
        <time>2019-12-17T12:33:11.000Z</time>
      </trkpt>
      <trkpt lat="43.34346" lon="5.982">
        <ele>431</ele>
        <time>2019-12-17T12:33:12.000Z</time>
      </trkpt>
      <trkpt lat="43.34347" lon="5.98201">
        <ele>431</ele>
        <time>2019-12-17T12:33:13.000Z</time>
      </trkpt>
      <trkpt lat="43.34347" lon="5.98201">
        <ele>430</ele>
        <time>2019-12-17T12:33:14.000Z</time>
      </trkpt>
      <trkpt lat="43.34347" lon="5.98202">
        <ele>430</ele>
        <time>2019-12-17T12:33:15.000Z</time>
      </trkpt>
      <trkpt lat="43.34346" lon="5.98202">
        <ele>430</ele>
        <time>2019-12-17T12:33:16.000Z</time>
      </trkpt>
      <trkpt lat="43.34346" lon="5.98202">
        <ele>430</ele>
        <time>2019-12-17T12:33:17.000Z</time>
      </trkpt>
      <trkpt lat="43.34346" lon="5.98202">
        <ele>430</ele>
        <time>2019-12-17T12:33:18.000Z</time>
      </trkpt>
      <trkpt lat="43.34347" lon="5.98203">
        <ele>430</ele>
        <time>2019-12-17T12:33:19.000Z</time>
      </trkpt>
      <trkpt lat="43.34347" lon="5.98203">
        <ele>430</ele>
        <time>2019-12-17T12:33:20.000Z</time>
      </trkpt>
      <trkpt lat="43.34347" lon="5.98203">
        <ele>430</ele>
        <time>2019-12-17T12:33:21.000Z</time>
      </trkpt>
      <trkpt lat="43.34347" lon="5.98203">
        <ele>430</ele>
        <time>2019-12-17T12:33:22.000Z</time>
      </trkpt>
      <trkpt lat="43.34348" lon="5.98203">
        <ele>430</ele>
        <time>2019-12-17T12:33:23.000Z</time>
      </trkpt>
      <trkpt lat="43.34348" lon="5.98203">
        <ele>430</ele>
        <time>2019-12-17T12:33:24.000Z</time>
      </trkpt>
      <trkpt lat="43.34348" lon="5.98203">
        <ele>430</ele>
        <time>2019-12-17T12:33:25.000Z</time>
      </trkpt>
      <trkpt lat="43.34348" lon="5.98203">
        <ele>430</ele>
        <time>2019-12-17T12:33:26.000Z</time>
      </trkpt>
      <trkpt lat="43.34349" lon="5.98203">
        <ele>430</ele>
        <time>2019-12-17T12:33:27.000Z</time>
      </trkpt>
      <trkpt lat="43.34349" lon="5.98203">
        <ele>430</ele>
        <time>2019-12-17T12:33:28.000Z</time>
      </trkpt>
      <trkpt lat="43.34349" lon="5.98203">
        <ele>430</ele>
        <time>2019-12-17T12:33:29.000Z</time>
      </trkpt>
      <trkpt lat="43.34349" lon="5.98203">
        <ele>430</ele>
        <time>2019-12-17T12:33:30.000Z</time>
      </trkpt>
      <trkpt lat="43.34349" lon="5.98203">
        <ele>431</ele>
        <time>2019-12-17T12:33:31.000Z</time>
      </trkpt>
      <trkpt lat="43.34349" lon="5.98203">
        <ele>431</ele>
        <time>2019-12-17T12:33:32.000Z</time>
      </trkpt>
      <trkpt lat="43.3435" lon="5.98203">
        <ele>431</ele>
        <time>2019-12-17T12:33:33.000Z</time>
      </trkpt>
      <trkpt lat="43.3435" lon="5.98202">
        <ele>431</ele>
        <time>2019-12-17T12:33:34.000Z</time>
      </trkpt>
      <trkpt lat="43.3435" lon="5.98202">
        <ele>431</ele>
        <time>2019-12-17T12:33:35.000Z</time>
      </trkpt>
      <trkpt lat="43.34351" lon="5.98202">
        <ele>431</ele>
        <time>2019-12-17T12:33:36.000Z</time>
      </trkpt>
      <trkpt lat="43.34352" lon="5.98202">
        <ele>431</ele>
        <time>2019-12-17T12:33:37.000Z</time>
      </trkpt>
      <trkpt lat="43.34352" lon="5.98201">
        <ele>431</ele>
        <time>2019-12-17T12:33:38.000Z</time>
      </trkpt>
      <trkpt lat="43.34352" lon="5.98201">
        <ele>431</ele>
        <time>2019-12-17T12:33:39.000Z</time>
      </trkpt>
      <trkpt lat="43.34352" lon="5.982">
        <ele>431</ele>
        <time>2019-12-17T12:33:40.000Z</time>
      </trkpt>
      <trkpt lat="43.34352" lon="5.982">
        <ele>431</ele>
        <time>2019-12-17T12:33:41.000Z</time>
      </trkpt>
      <trkpt lat="43.34352" lon="5.982">
        <ele>431</ele>
        <time>2019-12-17T12:33:42.000Z</time>
      </trkpt>
      <trkpt lat="43.34353" lon="5.982">
        <ele>431</ele>
        <time>2019-12-17T12:33:43.000Z</time>
      </trkpt>
      <trkpt lat="43.34353" lon="5.98201">
        <ele>431</ele>
        <time>2019-12-17T12:33:44.000Z</time>
      </trkpt>
      <trkpt lat="43.34353" lon="5.98202">
        <ele>431</ele>
        <time>2019-12-17T12:33:45.000Z</time>
      </trkpt>
      <trkpt lat="43.34353" lon="5.98202">
        <ele>431</ele>
        <time>2019-12-17T12:33:46.000Z</time>
      </trkpt>
      <trkpt lat="43.34354" lon="5.98203">
        <ele>431</ele>
        <time>2019-12-17T12:33:47.000Z</time>
      </trkpt>
      <trkpt lat="43.34354" lon="5.98204">
        <ele>431</ele>
        <time>2019-12-17T12:33:48.000Z</time>
      </trkpt>
      <trkpt lat="43.34355" lon="5.98205">
        <ele>431</ele>
        <time>2019-12-17T12:33:49.000Z</time>
      </trkpt>
      <trkpt lat="43.34355" lon="5.98205">
        <ele>431</ele>
        <time>2019-12-17T12:33:50.000Z</time>
      </trkpt>
      <trkpt lat="43.34356" lon="5.98206">
        <ele>431</ele>
        <time>2019-12-17T12:33:51.000Z</time>
      </trkpt>
      <trkpt lat="43.34356" lon="5.98206">
        <ele>431</ele>
        <time>2019-12-17T12:33:52.000Z</time>
      </trkpt>
      <trkpt lat="43.34357" lon="5.98207">
        <ele>432</ele>
        <time>2019-12-17T12:33:53.000Z</time>
      </trkpt>
      <trkpt lat="43.34357" lon="5.98207">
        <ele>432</ele>
        <time>2019-12-17T12:33:54.000Z</time>
      </trkpt>
      <trkpt lat="43.34357" lon="5.98208">
        <ele>432</ele>
        <time>2019-12-17T12:33:55.000Z</time>
      </trkpt>
      <trkpt lat="43.34357" lon="5.98208">
        <ele>432</ele>
        <time>2019-12-17T12:33:56.000Z</time>
      </trkpt>
      <trkpt lat="43.34357" lon="5.98209">
        <ele>432</ele>
        <time>2019-12-17T12:33:57.000Z</time>
      </trkpt>
      <trkpt lat="43.34357" lon="5.9821">
        <ele>432</ele>
        <time>2019-12-17T12:33:58.000Z</time>
      </trkpt>
      <trkpt lat="43.34357" lon="5.9821">
        <ele>432</ele>
        <time>2019-12-17T12:33:59.000Z</time>
      </trkpt>
      <trkpt lat="43.34357" lon="5.98211">
        <ele>432</ele>
        <time>2019-12-17T12:34:00.000Z</time>
      </trkpt>
      <trkpt lat="43.34357" lon="5.98211">
        <ele>432</ele>
        <time>2019-12-17T12:34:01.000Z</time>
      </trkpt>
      <trkpt lat="43.34357" lon="5.98212">
        <ele>432</ele>
        <time>2019-12-17T12:34:02.000Z</time>
      </trkpt>
      <trkpt lat="43.34357" lon="5.98213">
        <ele>433</ele>
        <time>2019-12-17T12:34:03.000Z</time>
      </trkpt>
      <trkpt lat="43.34357" lon="5.98214">
        <ele>433</ele>
        <time>2019-12-17T12:34:04.000Z</time>
      </trkpt>
      <trkpt lat="43.34356" lon="5.98214">
        <ele>433</ele>
        <time>2019-12-17T12:34:05.000Z</time>
      </trkpt>
      <trkpt lat="43.34356" lon="5.98215">
        <ele>433</ele>
        <time>2019-12-17T12:34:06.000Z</time>
      </trkpt>
      <trkpt lat="43.34355" lon="5.98217">
        <ele>433</ele>
        <time>2019-12-17T12:34:07.000Z</time>
      </trkpt>
      <trkpt lat="43.34355" lon="5.98218">
        <ele>433</ele>
        <time>2019-12-17T12:34:08.000Z</time>
      </trkpt>
      <trkpt lat="43.34355" lon="5.98219">
        <ele>434</ele>
        <time>2019-12-17T12:34:09.000Z</time>
      </trkpt>
      <trkpt lat="43.34355" lon="5.9822">
        <ele>434</ele>
        <time>2019-12-17T12:34:10.000Z</time>
      </trkpt>
      <trkpt lat="43.34355" lon="5.98221">
        <ele>434</ele>
        <time>2019-12-17T12:34:11.000Z</time>
      </trkpt>
      <trkpt lat="43.34354" lon="5.98222">
        <ele>434</ele>
        <time>2019-12-17T12:34:12.000Z</time>
      </trkpt>
      <trkpt lat="43.34354" lon="5.98223">
        <ele>434</ele>
        <time>2019-12-17T12:34:13.000Z</time>
      </trkpt>
      <trkpt lat="43.34354" lon="5.98224">
        <ele>434</ele>
        <time>2019-12-17T12:34:14.000Z</time>
      </trkpt>
      <trkpt lat="43.34354" lon="5.98225">
        <ele>434</ele>
        <time>2019-12-17T12:34:15.000Z</time>
      </trkpt>
      <trkpt lat="43.34354" lon="5.98225">
        <ele>435</ele>
        <time>2019-12-17T12:34:16.000Z</time>
      </trkpt>
      <trkpt lat="43.34354" lon="5.98226">
        <ele>435</ele>
        <time>2019-12-17T12:34:17.000Z</time>
      </trkpt>
      <trkpt lat="43.34354" lon="5.98226">
        <ele>435</ele>
        <time>2019-12-17T12:34:18.000Z</time>
      </trkpt>
      <trkpt lat="43.34355" lon="5.98227">
        <ele>435</ele>
        <time>2019-12-17T12:34:19.000Z</time>
      </trkpt>
      <trkpt lat="43.34355" lon="5.98227">
        <ele>435</ele>
        <time>2019-12-17T12:34:20.000Z</time>
      </trkpt>
      <trkpt lat="43.34356" lon="5.98226">
        <ele>435</ele>
        <time>2019-12-17T12:34:21.000Z</time>
      </trkpt>
      <trkpt lat="43.34356" lon="5.98226">
        <ele>435</ele>
        <time>2019-12-17T12:34:22.000Z</time>
      </trkpt>
      <trkpt lat="43.34356" lon="5.98226">
        <ele>435</ele>
        <time>2019-12-17T12:34:23.000Z</time>
      </trkpt>
      <trkpt lat="43.34356" lon="5.98226">
        <ele>436</ele>
        <time>2019-12-17T12:34:24.000Z</time>
      </trkpt>
      <trkpt lat="43.34357" lon="5.98225">
        <ele>436</ele>
        <time>2019-12-17T12:34:25.000Z</time>
      </trkpt>
      <trkpt lat="43.34357" lon="5.98225">
        <ele>436</ele>
        <time>2019-12-17T12:34:26.000Z</time>
      </trkpt>
      <trkpt lat="43.34358" lon="5.98225">
        <ele>436</ele>
        <time>2019-12-17T12:34:27.000Z</time>
      </trkpt>
      <trkpt lat="43.34359" lon="5.98224">
        <ele>436</ele>
        <time>2019-12-17T12:34:28.000Z</time>
      </trkpt>
      <trkpt lat="43.3436" lon="5.98224">
        <ele>436</ele>
        <time>2019-12-17T12:34:29.000Z</time>
      </trkpt>
      <trkpt lat="43.3436" lon="5.98225">
        <ele>436</ele>
        <time>2019-12-17T12:34:30.000Z</time>
      </trkpt>
      <trkpt lat="43.34361" lon="5.98224">
        <ele>436</ele>
        <time>2019-12-17T12:34:31.000Z</time>
      </trkpt>
      <trkpt lat="43.34361" lon="5.98224">
        <ele>436</ele>
        <time>2019-12-17T12:34:32.000Z</time>
      </trkpt>
      <trkpt lat="43.34361" lon="5.98224">
        <ele>436</ele>
        <time>2019-12-17T12:34:33.000Z</time>
      </trkpt>
      <trkpt lat="43.34362" lon="5.98224">
        <ele>436</ele>
        <time>2019-12-17T12:34:34.000Z</time>
      </trkpt>
      <trkpt lat="43.34362" lon="5.98224">
        <ele>436</ele>
        <time>2019-12-17T12:34:35.000Z</time>
      </trkpt>
      <trkpt lat="43.34362" lon="5.98224">
        <ele>436</ele>
        <time>2019-12-17T12:34:36.000Z</time>
      </trkpt>
      <trkpt lat="43.34363" lon="5.98223">
        <ele>436</ele>
        <time>2019-12-17T12:34:37.000Z</time>
      </trkpt>
      <trkpt lat="43.34363" lon="5.98223">
        <ele>436</ele>
        <time>2019-12-17T12:34:38.000Z</time>
      </trkpt>
      <trkpt lat="43.34363" lon="5.98222">
        <ele>436</ele>
        <time>2019-12-17T12:34:39.000Z</time>
      </trkpt>
      <trkpt lat="43.34363" lon="5.98222">
        <ele>436</ele>
        <time>2019-12-17T12:34:40.000Z</time>
      </trkpt>
      <trkpt lat="43.34363" lon="5.98221">
        <ele>436</ele>
        <time>2019-12-17T12:34:41.000Z</time>
      </trkpt>
      <trkpt lat="43.34363" lon="5.9822">
        <ele>436</ele>
        <time>2019-12-17T12:34:42.000Z</time>
      </trkpt>
      <trkpt lat="43.34363" lon="5.9822">
        <ele>436</ele>
        <time>2019-12-17T12:34:43.000Z</time>
      </trkpt>
      <trkpt lat="43.34364" lon="5.98219">
        <ele>436</ele>
        <time>2019-12-17T12:34:44.000Z</time>
      </trkpt>
      <trkpt lat="43.34364" lon="5.98218">
        <ele>436</ele>
        <time>2019-12-17T12:34:45.000Z</time>
      </trkpt>
      <trkpt lat="43.34364" lon="5.98217">
        <ele>436</ele>
        <time>2019-12-17T12:34:46.000Z</time>
      </trkpt>
      <trkpt lat="43.34365" lon="5.98217">
        <ele>436</ele>
        <time>2019-12-17T12:34:47.000Z</time>
      </trkpt>
      <trkpt lat="43.34365" lon="5.98216">
        <ele>436</ele>
        <time>2019-12-17T12:34:48.000Z</time>
      </trkpt>
      <trkpt lat="43.34365" lon="5.98215">
        <ele>436</ele>
        <time>2019-12-17T12:34:49.000Z</time>
      </trkpt>
      <trkpt lat="43.34366" lon="5.98214">
        <ele>436</ele>
        <time>2019-12-17T12:34:50.000Z</time>
      </trkpt>
      <trkpt lat="43.34366" lon="5.98213">
        <ele>436</ele>
        <time>2019-12-17T12:34:51.000Z</time>
      </trkpt>
      <trkpt lat="43.34367" lon="5.98211">
        <ele>436</ele>
        <time>2019-12-17T12:34:52.000Z</time>
      </trkpt>
      <trkpt lat="43.34368" lon="5.9821">
        <ele>437</ele>
        <time>2019-12-17T12:34:53.000Z</time>
      </trkpt>
      <trkpt lat="43.34368" lon="5.98209">
        <ele>437</ele>
        <time>2019-12-17T12:34:54.000Z</time>
      </trkpt>
      <trkpt lat="43.34369" lon="5.98208">
        <ele>437</ele>
        <time>2019-12-17T12:34:55.000Z</time>
      </trkpt>
      <trkpt lat="43.34369" lon="5.98207">
        <ele>437</ele>
        <time>2019-12-17T12:34:56.000Z</time>
      </trkpt>
      <trkpt lat="43.34369" lon="5.98206">
        <ele>438</ele>
        <time>2019-12-17T12:34:57.000Z</time>
      </trkpt>
      <trkpt lat="43.34369" lon="5.98204">
        <ele>438</ele>
        <time>2019-12-17T12:34:58.000Z</time>
      </trkpt>
      <trkpt lat="43.34369" lon="5.98203">
        <ele>438</ele>
        <time>2019-12-17T12:34:59.000Z</time>
      </trkpt>
      <trkpt lat="43.34369" lon="5.98202">
        <ele>438</ele>
        <time>2019-12-17T12:35:00.000Z</time>
      </trkpt>
      <trkpt lat="43.34369" lon="5.982">
        <ele>439</ele>
        <time>2019-12-17T12:35:01.000Z</time>
      </trkpt>
      <trkpt lat="43.34369" lon="5.98199">
        <ele>439</ele>
        <time>2019-12-17T12:35:02.000Z</time>
      </trkpt>
      <trkpt lat="43.34368" lon="5.98198">
        <ele>439</ele>
        <time>2019-12-17T12:35:03.000Z</time>
      </trkpt>
      <trkpt lat="43.34368" lon="5.98197">
        <ele>439</ele>
        <time>2019-12-17T12:35:04.000Z</time>
      </trkpt>
      <trkpt lat="43.34368" lon="5.98195">
        <ele>440</ele>
        <time>2019-12-17T12:35:05.000Z</time>
      </trkpt>
      <trkpt lat="43.34367" lon="5.98194">
        <ele>440</ele>
        <time>2019-12-17T12:35:06.000Z</time>
      </trkpt>
      <trkpt lat="43.34367" lon="5.98192">
        <ele>440</ele>
        <time>2019-12-17T12:35:07.000Z</time>
      </trkpt>
      <trkpt lat="43.34366" lon="5.98191">
        <ele>440</ele>
        <time>2019-12-17T12:35:08.000Z</time>
      </trkpt>
      <trkpt lat="43.34366" lon="5.98189">
        <ele>440</ele>
        <time>2019-12-17T12:35:09.000Z</time>
      </trkpt>
      <trkpt lat="43.34365" lon="5.98188">
        <ele>440</ele>
        <time>2019-12-17T12:35:10.000Z</time>
      </trkpt>
      <trkpt lat="43.34365" lon="5.98186">
        <ele>440</ele>
        <time>2019-12-17T12:35:11.000Z</time>
      </trkpt>
      <trkpt lat="43.34365" lon="5.98185">
        <ele>441</ele>
        <time>2019-12-17T12:35:12.000Z</time>
      </trkpt>
      <trkpt lat="43.34365" lon="5.98184">
        <ele>441</ele>
        <time>2019-12-17T12:35:13.000Z</time>
      </trkpt>
      <trkpt lat="43.34365" lon="5.98182">
        <ele>441</ele>
        <time>2019-12-17T12:35:14.000Z</time>
      </trkpt>
      <trkpt lat="43.34364" lon="5.98181">
        <ele>441</ele>
        <time>2019-12-17T12:35:15.000Z</time>
      </trkpt>
      <trkpt lat="43.34365" lon="5.9818">
        <ele>441</ele>
        <time>2019-12-17T12:35:16.000Z</time>
      </trkpt>
      <trkpt lat="43.34365" lon="5.98178">
        <ele>441</ele>
        <time>2019-12-17T12:35:17.000Z</time>
      </trkpt>
      <trkpt lat="43.34365" lon="5.98177">
        <ele>441</ele>
        <time>2019-12-17T12:35:18.000Z</time>
      </trkpt>
      <trkpt lat="43.34365" lon="5.98176">
        <ele>441</ele>
        <time>2019-12-17T12:35:19.000Z</time>
      </trkpt>
      <trkpt lat="43.34365" lon="5.98175">
        <ele>441</ele>
        <time>2019-12-17T12:35:20.000Z</time>
      </trkpt>
      <trkpt lat="43.34365" lon="5.98173">
        <ele>441</ele>
        <time>2019-12-17T12:35:21.000Z</time>
      </trkpt>
      <trkpt lat="43.34365" lon="5.98172">
        <ele>441</ele>
        <time>2019-12-17T12:35:22.000Z</time>
      </trkpt>
      <trkpt lat="43.34366" lon="5.98171">
        <ele>441</ele>
        <time>2019-12-17T12:35:23.000Z</time>
      </trkpt>
      <trkpt lat="43.34366" lon="5.9817">
        <ele>441</ele>
        <time>2019-12-17T12:35:24.000Z</time>
      </trkpt>
      <trkpt lat="43.34367" lon="5.98168">
        <ele>441</ele>
        <time>2019-12-17T12:35:25.000Z</time>
      </trkpt>
      <trkpt lat="43.34367" lon="5.98168">
        <ele>441</ele>
        <time>2019-12-17T12:35:26.000Z</time>
      </trkpt>
      <trkpt lat="43.34368" lon="5.98167">
        <ele>440</ele>
        <time>2019-12-17T12:35:27.000Z</time>
      </trkpt>
      <trkpt lat="43.34368" lon="5.98165">
        <ele>440</ele>
        <time>2019-12-17T12:35:28.000Z</time>
      </trkpt>
      <trkpt lat="43.34368" lon="5.98164">
        <ele>440</ele>
        <time>2019-12-17T12:35:29.000Z</time>
      </trkpt>
      <trkpt lat="43.34368" lon="5.98163">
        <ele>440</ele>
        <time>2019-12-17T12:35:30.000Z</time>
      </trkpt>
      <trkpt lat="43.34369" lon="5.98162">
        <ele>440</ele>
        <time>2019-12-17T12:35:31.000Z</time>
      </trkpt>
      <trkpt lat="43.3437" lon="5.98161">
        <ele>441</ele>
        <time>2019-12-17T12:35:32.000Z</time>
      </trkpt>
      <trkpt lat="43.34371" lon="5.98161">
        <ele>441</ele>
        <time>2019-12-17T12:35:33.000Z</time>
      </trkpt>
      <trkpt lat="43.34372" lon="5.9816">
        <ele>441</ele>
        <time>2019-12-17T12:35:34.000Z</time>
      </trkpt>
      <trkpt lat="43.34372" lon="5.98159">
        <ele>441</ele>
        <time>2019-12-17T12:35:35.000Z</time>
      </trkpt>
      <trkpt lat="43.34373" lon="5.9816">
        <ele>441</ele>
        <time>2019-12-17T12:35:36.000Z</time>
      </trkpt>
      <trkpt lat="43.34374" lon="5.9816">
        <ele>441</ele>
        <time>2019-12-17T12:35:37.000Z</time>
      </trkpt>
      <trkpt lat="43.34375" lon="5.98161">
        <ele>441</ele>
        <time>2019-12-17T12:35:38.000Z</time>
      </trkpt>
      <trkpt lat="43.34375" lon="5.98162">
        <ele>442</ele>
        <time>2019-12-17T12:35:39.000Z</time>
      </trkpt>
      <trkpt lat="43.34376" lon="5.98163">
        <ele>442</ele>
        <time>2019-12-17T12:35:40.000Z</time>
      </trkpt>
      <trkpt lat="43.34376" lon="5.98164">
        <ele>442</ele>
        <time>2019-12-17T12:35:41.000Z</time>
      </trkpt>
      <trkpt lat="43.34376" lon="5.98165">
        <ele>442</ele>
        <time>2019-12-17T12:35:42.000Z</time>
      </trkpt>
      <trkpt lat="43.34376" lon="5.98166">
        <ele>442</ele>
        <time>2019-12-17T12:35:43.000Z</time>
      </trkpt>
      <trkpt lat="43.34376" lon="5.98167">
        <ele>442</ele>
        <time>2019-12-17T12:35:44.000Z</time>
      </trkpt>
      <trkpt lat="43.34376" lon="5.98168">
        <ele>442</ele>
        <time>2019-12-17T12:35:45.000Z</time>
      </trkpt>
      <trkpt lat="43.34376" lon="5.98169">
        <ele>443</ele>
        <time>2019-12-17T12:35:46.000Z</time>
      </trkpt>
      <trkpt lat="43.34376" lon="5.9817">
        <ele>443</ele>
        <time>2019-12-17T12:35:47.000Z</time>
      </trkpt>
      <trkpt lat="43.34376" lon="5.98171">
        <ele>443</ele>
        <time>2019-12-17T12:35:48.000Z</time>
      </trkpt>
      <trkpt lat="43.34376" lon="5.98172">
        <ele>443</ele>
        <time>2019-12-17T12:35:49.000Z</time>
      </trkpt>
      <trkpt lat="43.34376" lon="5.98173">
        <ele>443</ele>
        <time>2019-12-17T12:35:50.000Z</time>
      </trkpt>
      <trkpt lat="43.34376" lon="5.98174">
        <ele>443</ele>
        <time>2019-12-17T12:35:51.000Z</time>
      </trkpt>
      <trkpt lat="43.34376" lon="5.98175">
        <ele>444</ele>
        <time>2019-12-17T12:35:52.000Z</time>
      </trkpt>
      <trkpt lat="43.34377" lon="5.98176">
        <ele>444</ele>
        <time>2019-12-17T12:35:53.000Z</time>
      </trkpt>
      <trkpt lat="43.34377" lon="5.98177">
        <ele>444</ele>
        <time>2019-12-17T12:35:54.000Z</time>
      </trkpt>
      <trkpt lat="43.34377" lon="5.98177">
        <ele>444</ele>
        <time>2019-12-17T12:35:55.000Z</time>
      </trkpt>
      <trkpt lat="43.34378" lon="5.98178">
        <ele>444</ele>
        <time>2019-12-17T12:35:56.000Z</time>
      </trkpt>
      <trkpt lat="43.34378" lon="5.98179">
        <ele>445</ele>
        <time>2019-12-17T12:35:57.000Z</time>
      </trkpt>
      <trkpt lat="43.34379" lon="5.9818">
        <ele>445</ele>
        <time>2019-12-17T12:35:58.000Z</time>
      </trkpt>
      <trkpt lat="43.34379" lon="5.98181">
        <ele>445</ele>
        <time>2019-12-17T12:35:59.000Z</time>
      </trkpt>
      <trkpt lat="43.3438" lon="5.98182">
        <ele>445</ele>
        <time>2019-12-17T12:36:00.000Z</time>
      </trkpt>
      <trkpt lat="43.3438" lon="5.98183">
        <ele>445</ele>
        <time>2019-12-17T12:36:01.000Z</time>
      </trkpt>
      <trkpt lat="43.34381" lon="5.98184">
        <ele>445</ele>
        <time>2019-12-17T12:36:02.000Z</time>
      </trkpt>
      <trkpt lat="43.34381" lon="5.98185">
        <ele>445</ele>
        <time>2019-12-17T12:36:03.000Z</time>
      </trkpt>
      <trkpt lat="43.34381" lon="5.98186">
        <ele>445</ele>
        <time>2019-12-17T12:36:04.000Z</time>
      </trkpt>
      <trkpt lat="43.34382" lon="5.98187">
        <ele>445</ele>
        <time>2019-12-17T12:36:05.000Z</time>
      </trkpt>
      <trkpt lat="43.34382" lon="5.98188">
        <ele>446</ele>
        <time>2019-12-17T12:36:06.000Z</time>
      </trkpt>
      <trkpt lat="43.34383" lon="5.98189">
        <ele>446</ele>
        <time>2019-12-17T12:36:07.000Z</time>
      </trkpt>
      <trkpt lat="43.34383" lon="5.9819">
        <ele>446</ele>
        <time>2019-12-17T12:36:08.000Z</time>
      </trkpt>
      <trkpt lat="43.34383" lon="5.98191">
        <ele>446</ele>
        <time>2019-12-17T12:36:09.000Z</time>
      </trkpt>
      <trkpt lat="43.34383" lon="5.98192">
        <ele>446</ele>
        <time>2019-12-17T12:36:10.000Z</time>
      </trkpt>
      <trkpt lat="43.34383" lon="5.98193">
        <ele>447</ele>
        <time>2019-12-17T12:36:11.000Z</time>
      </trkpt>
      <trkpt lat="43.34384" lon="5.98194">
        <ele>447</ele>
        <time>2019-12-17T12:36:12.000Z</time>
      </trkpt>
      <trkpt lat="43.34384" lon="5.98195">
        <ele>447</ele>
        <time>2019-12-17T12:36:13.000Z</time>
      </trkpt>
      <trkpt lat="43.34384" lon="5.98195">
        <ele>447</ele>
        <time>2019-12-17T12:36:14.000Z</time>
      </trkpt>
      <trkpt lat="43.34384" lon="5.98196">
        <ele>448</ele>
        <time>2019-12-17T12:36:15.000Z</time>
      </trkpt>
      <trkpt lat="43.34385" lon="5.98196">
        <ele>448</ele>
        <time>2019-12-17T12:36:16.000Z</time>
      </trkpt>
      <trkpt lat="43.34385" lon="5.98197">
        <ele>448</ele>
        <time>2019-12-17T12:36:17.000Z</time>
      </trkpt>
      <trkpt lat="43.34385" lon="5.98198">
        <ele>448</ele>
        <time>2019-12-17T12:36:18.000Z</time>
      </trkpt>
      <trkpt lat="43.34386" lon="5.98199">
        <ele>448</ele>
        <time>2019-12-17T12:36:19.000Z</time>
      </trkpt>
      <trkpt lat="43.34386" lon="5.982">
        <ele>448</ele>
        <time>2019-12-17T12:36:20.000Z</time>
      </trkpt>
      <trkpt lat="43.34387" lon="5.98201">
        <ele>449</ele>
        <time>2019-12-17T12:36:21.000Z</time>
      </trkpt>
      <trkpt lat="43.34388" lon="5.98201">
        <ele>449</ele>
        <time>2019-12-17T12:36:22.000Z</time>
      </trkpt>
      <trkpt lat="43.34388" lon="5.98202">
        <ele>449</ele>
        <time>2019-12-17T12:36:23.000Z</time>
      </trkpt>
      <trkpt lat="43.34389" lon="5.98202">
        <ele>449</ele>
        <time>2019-12-17T12:36:24.000Z</time>
      </trkpt>
      <trkpt lat="43.34389" lon="5.98202">
        <ele>449</ele>
        <time>2019-12-17T12:36:25.000Z</time>
      </trkpt>
      <trkpt lat="43.3439" lon="5.98202">
        <ele>450</ele>
        <time>2019-12-17T12:36:26.000Z</time>
      </trkpt>
      <trkpt lat="43.3439" lon="5.98202">
        <ele>450</ele>
        <time>2019-12-17T12:36:27.000Z</time>
      </trkpt>
      <trkpt lat="43.3439" lon="5.98202">
        <ele>450</ele>
        <time>2019-12-17T12:36:28.000Z</time>
      </trkpt>
      <trkpt lat="43.34391" lon="5.98202">
        <ele>450</ele>
        <time>2019-12-17T12:36:29.000Z</time>
      </trkpt>
      <trkpt lat="43.34391" lon="5.98201">
        <ele>450</ele>
        <time>2019-12-17T12:36:30.000Z</time>
      </trkpt>
      <trkpt lat="43.34391" lon="5.98201">
        <ele>451</ele>
        <time>2019-12-17T12:36:31.000Z</time>
      </trkpt>
      <trkpt lat="43.34391" lon="5.982">
        <ele>451</ele>
        <time>2019-12-17T12:36:32.000Z</time>
      </trkpt>
      <trkpt lat="43.34392" lon="5.982">
        <ele>451</ele>
        <time>2019-12-17T12:36:33.000Z</time>
      </trkpt>
      <trkpt lat="43.34392" lon="5.98199">
        <ele>451</ele>
        <time>2019-12-17T12:36:34.000Z</time>
      </trkpt>
      <trkpt lat="43.34392" lon="5.98199">
        <ele>451</ele>
        <time>2019-12-17T12:36:35.000Z</time>
      </trkpt>
      <trkpt lat="43.34392" lon="5.98198">
        <ele>451</ele>
        <time>2019-12-17T12:36:36.000Z</time>
      </trkpt>
      <trkpt lat="43.34392" lon="5.98198">
        <ele>451</ele>
        <time>2019-12-17T12:36:37.000Z</time>
      </trkpt>
      <trkpt lat="43.34392" lon="5.98197">
        <ele>451</ele>
        <time>2019-12-17T12:36:38.000Z</time>
      </trkpt>
      <trkpt lat="43.34392" lon="5.98196">
        <ele>451</ele>
        <time>2019-12-17T12:36:39.000Z</time>
      </trkpt>
      <trkpt lat="43.34392" lon="5.98196">
        <ele>451</ele>
        <time>2019-12-17T12:36:40.000Z</time>
      </trkpt>
      <trkpt lat="43.34392" lon="5.98195">
        <ele>451</ele>
        <time>2019-12-17T12:36:41.000Z</time>
      </trkpt>
      <trkpt lat="43.34392" lon="5.98194">
        <ele>451</ele>
        <time>2019-12-17T12:36:42.000Z</time>
      </trkpt>
      <trkpt lat="43.34393" lon="5.98193">
        <ele>451</ele>
        <time>2019-12-17T12:36:43.000Z</time>
      </trkpt>
      <trkpt lat="43.34393" lon="5.98193">
        <ele>451</ele>
        <time>2019-12-17T12:36:44.000Z</time>
      </trkpt>
      <trkpt lat="43.34393" lon="5.98192">
        <ele>451</ele>
        <time>2019-12-17T12:36:45.000Z</time>
      </trkpt>
      <trkpt lat="43.34393" lon="5.98191">
        <ele>451</ele>
        <time>2019-12-17T12:36:46.000Z</time>
      </trkpt>
      <trkpt lat="43.34393" lon="5.9819">
        <ele>451</ele>
        <time>2019-12-17T12:36:47.000Z</time>
      </trkpt>
      <trkpt lat="43.34393" lon="5.9819">
        <ele>451</ele>
        <time>2019-12-17T12:36:48.000Z</time>
      </trkpt>
      <trkpt lat="43.34393" lon="5.98189">
        <ele>451</ele>
        <time>2019-12-17T12:36:49.000Z</time>
      </trkpt>
      <trkpt lat="43.34392" lon="5.98188">
        <ele>451</ele>
        <time>2019-12-17T12:36:50.000Z</time>
      </trkpt>
      <trkpt lat="43.34392" lon="5.98187">
        <ele>451</ele>
        <time>2019-12-17T12:36:51.000Z</time>
      </trkpt>
      <trkpt lat="43.34392" lon="5.98186">
        <ele>451</ele>
        <time>2019-12-17T12:36:52.000Z</time>
      </trkpt>
      <trkpt lat="43.34392" lon="5.98186">
        <ele>451</ele>
        <time>2019-12-17T12:36:53.000Z</time>
      </trkpt>
      <trkpt lat="43.34392" lon="5.98185">
        <ele>451</ele>
        <time>2019-12-17T12:36:54.000Z</time>
      </trkpt>
      <trkpt lat="43.34392" lon="5.98185">
        <ele>452</ele>
        <time>2019-12-17T12:36:55.000Z</time>
      </trkpt>
      <trkpt lat="43.34392" lon="5.98185">
        <ele>452</ele>
        <time>2019-12-17T12:36:56.000Z</time>
      </trkpt>
      <trkpt lat="43.34392" lon="5.98185">
        <ele>452</ele>
        <time>2019-12-17T12:36:57.000Z</time>
      </trkpt>
      <trkpt lat="43.34392" lon="5.98184">
        <ele>452</ele>
        <time>2019-12-17T12:36:58.000Z</time>
      </trkpt>
      <trkpt lat="43.34392" lon="5.98183">
        <ele>452</ele>
        <time>2019-12-17T12:36:59.000Z</time>
      </trkpt>
      <trkpt lat="43.34393" lon="5.98183">
        <ele>452</ele>
        <time>2019-12-17T12:37:00.000Z</time>
      </trkpt>
      <trkpt lat="43.34393" lon="5.98182">
        <ele>452</ele>
        <time>2019-12-17T12:37:01.000Z</time>
      </trkpt>
      <trkpt lat="43.34393" lon="5.98182">
        <ele>452</ele>
        <time>2019-12-17T12:37:02.000Z</time>
      </trkpt>
      <trkpt lat="43.34394" lon="5.98183">
        <ele>452</ele>
        <time>2019-12-17T12:37:03.000Z</time>
      </trkpt>
      <trkpt lat="43.34394" lon="5.98183">
        <ele>452</ele>
        <time>2019-12-17T12:37:04.000Z</time>
      </trkpt>
      <trkpt lat="43.34395" lon="5.98184">
        <ele>453</ele>
        <time>2019-12-17T12:37:05.000Z</time>
      </trkpt>
      <trkpt lat="43.34395" lon="5.98185">
        <ele>453</ele>
        <time>2019-12-17T12:37:06.000Z</time>
      </trkpt>
      <trkpt lat="43.34395" lon="5.98186">
        <ele>453</ele>
        <time>2019-12-17T12:37:07.000Z</time>
      </trkpt>
      <trkpt lat="43.34395" lon="5.98187">
        <ele>453</ele>
        <time>2019-12-17T12:37:08.000Z</time>
      </trkpt>
      <trkpt lat="43.34396" lon="5.98188">
        <ele>453</ele>
        <time>2019-12-17T12:37:09.000Z</time>
      </trkpt>
      <trkpt lat="43.34396" lon="5.98188">
        <ele>453</ele>
        <time>2019-12-17T12:37:10.000Z</time>
      </trkpt>
      <trkpt lat="43.34396" lon="5.98189">
        <ele>453</ele>
        <time>2019-12-17T12:37:11.000Z</time>
      </trkpt>
      <trkpt lat="43.34397" lon="5.9819">
        <ele>453</ele>
        <time>2019-12-17T12:37:12.000Z</time>
      </trkpt>
      <trkpt lat="43.34397" lon="5.9819">
        <ele>453</ele>
        <time>2019-12-17T12:37:13.000Z</time>
      </trkpt>
      <trkpt lat="43.34397" lon="5.98191">
        <ele>453</ele>
        <time>2019-12-17T12:37:14.000Z</time>
      </trkpt>
      <trkpt lat="43.34398" lon="5.98192">
        <ele>453</ele>
        <time>2019-12-17T12:37:15.000Z</time>
      </trkpt>
      <trkpt lat="43.34398" lon="5.98193">
        <ele>453</ele>
        <time>2019-12-17T12:37:16.000Z</time>
      </trkpt>
      <trkpt lat="43.34398" lon="5.98194">
        <ele>453</ele>
        <time>2019-12-17T12:37:17.000Z</time>
      </trkpt>
      <trkpt lat="43.34398" lon="5.98195">
        <ele>454</ele>
        <time>2019-12-17T12:37:18.000Z</time>
      </trkpt>
      <trkpt lat="43.34399" lon="5.98196">
        <ele>454</ele>
        <time>2019-12-17T12:37:19.000Z</time>
      </trkpt>
      <trkpt lat="43.34399" lon="5.98197">
        <ele>454</ele>
        <time>2019-12-17T12:37:20.000Z</time>
      </trkpt>
      <trkpt lat="43.34399" lon="5.98197">
        <ele>454</ele>
        <time>2019-12-17T12:37:21.000Z</time>
      </trkpt>
      <trkpt lat="43.34399" lon="5.98198">
        <ele>454</ele>
        <time>2019-12-17T12:37:22.000Z</time>
      </trkpt>
      <trkpt lat="43.34399" lon="5.98199">
        <ele>454</ele>
        <time>2019-12-17T12:37:23.000Z</time>
      </trkpt>
      <trkpt lat="43.344" lon="5.982">
        <ele>455</ele>
        <time>2019-12-17T12:37:24.000Z</time>
      </trkpt>
      <trkpt lat="43.344" lon="5.98201">
        <ele>455</ele>
        <time>2019-12-17T12:37:25.000Z</time>
      </trkpt>
      <trkpt lat="43.344" lon="5.98201">
        <ele>455</ele>
        <time>2019-12-17T12:37:26.000Z</time>
      </trkpt>
      <trkpt lat="43.34401" lon="5.98202">
        <ele>455</ele>
        <time>2019-12-17T12:37:27.000Z</time>
      </trkpt>
      <trkpt lat="43.34401" lon="5.98203">
        <ele>455</ele>
        <time>2019-12-17T12:37:28.000Z</time>
      </trkpt>
      <trkpt lat="43.34402" lon="5.98204">
        <ele>456</ele>
        <time>2019-12-17T12:37:29.000Z</time>
      </trkpt>
      <trkpt lat="43.34402" lon="5.98205">
        <ele>456</ele>
        <time>2019-12-17T12:37:30.000Z</time>
      </trkpt>
      <trkpt lat="43.34402" lon="5.98206">
        <ele>456</ele>
        <time>2019-12-17T12:37:31.000Z</time>
      </trkpt>
      <trkpt lat="43.34402" lon="5.98207">
        <ele>456</ele>
        <time>2019-12-17T12:37:32.000Z</time>
      </trkpt>
      <trkpt lat="43.34403" lon="5.98208">
        <ele>456</ele>
        <time>2019-12-17T12:37:33.000Z</time>
      </trkpt>
      <trkpt lat="43.34403" lon="5.9821">
        <ele>456</ele>
        <time>2019-12-17T12:37:34.000Z</time>
      </trkpt>
      <trkpt lat="43.34403" lon="5.98211">
        <ele>456</ele>
        <time>2019-12-17T12:37:35.000Z</time>
      </trkpt>
      <trkpt lat="43.34403" lon="5.98212">
        <ele>456</ele>
        <time>2019-12-17T12:37:36.000Z</time>
      </trkpt>
      <trkpt lat="43.34404" lon="5.98213">
        <ele>456</ele>
        <time>2019-12-17T12:37:37.000Z</time>
      </trkpt>
      <trkpt lat="43.34404" lon="5.98214">
        <ele>456</ele>
        <time>2019-12-17T12:37:38.000Z</time>
      </trkpt>
      <trkpt lat="43.34404" lon="5.98215">
        <ele>457</ele>
        <time>2019-12-17T12:37:39.000Z</time>
      </trkpt>
      <trkpt lat="43.34404" lon="5.98216">
        <ele>457</ele>
        <time>2019-12-17T12:37:40.000Z</time>
      </trkpt>
      <trkpt lat="43.34404" lon="5.98217">
        <ele>457</ele>
        <time>2019-12-17T12:37:41.000Z</time>
      </trkpt>
      <trkpt lat="43.34404" lon="5.98218">
        <ele>457</ele>
        <time>2019-12-17T12:37:42.000Z</time>
      </trkpt>
      <trkpt lat="43.34405" lon="5.98219">
        <ele>457</ele>
        <time>2019-12-17T12:37:43.000Z</time>
      </trkpt>
      <trkpt lat="43.34405" lon="5.9822">
        <ele>457</ele>
        <time>2019-12-17T12:37:44.000Z</time>
      </trkpt>
      <trkpt lat="43.34405" lon="5.98221">
        <ele>457</ele>
        <time>2019-12-17T12:37:45.000Z</time>
      </trkpt>
      <trkpt lat="43.34405" lon="5.98222">
        <ele>457</ele>
        <time>2019-12-17T12:37:46.000Z</time>
      </trkpt>
      <trkpt lat="43.34405" lon="5.98223">
        <ele>458</ele>
        <time>2019-12-17T12:37:47.000Z</time>
      </trkpt>
      <trkpt lat="43.34406" lon="5.98224">
        <ele>458</ele>
        <time>2019-12-17T12:37:48.000Z</time>
      </trkpt>
      <trkpt lat="43.34406" lon="5.98225">
        <ele>458</ele>
        <time>2019-12-17T12:37:49.000Z</time>
      </trkpt>
      <trkpt lat="43.34406" lon="5.98226">
        <ele>458</ele>
        <time>2019-12-17T12:37:50.000Z</time>
      </trkpt>
      <trkpt lat="43.34406" lon="5.98228">
        <ele>458</ele>
        <time>2019-12-17T12:37:51.000Z</time>
      </trkpt>
      <trkpt lat="43.34405" lon="5.98229">
        <ele>458</ele>
        <time>2019-12-17T12:37:52.000Z</time>
      </trkpt>
      <trkpt lat="43.34405" lon="5.9823">
        <ele>458</ele>
        <time>2019-12-17T12:37:53.000Z</time>
      </trkpt>
      <trkpt lat="43.34405" lon="5.98231">
        <ele>458</ele>
        <time>2019-12-17T12:37:54.000Z</time>
      </trkpt>
      <trkpt lat="43.34405" lon="5.98232">
        <ele>458</ele>
        <time>2019-12-17T12:37:55.000Z</time>
      </trkpt>
      <trkpt lat="43.34405" lon="5.98234">
        <ele>458</ele>
        <time>2019-12-17T12:37:56.000Z</time>
      </trkpt>
      <trkpt lat="43.34405" lon="5.98235">
        <ele>458</ele>
        <time>2019-12-17T12:37:57.000Z</time>
      </trkpt>
      <trkpt lat="43.34405" lon="5.98236">
        <ele>458</ele>
        <time>2019-12-17T12:37:58.000Z</time>
      </trkpt>
      <trkpt lat="43.34405" lon="5.98237">
        <ele>458</ele>
        <time>2019-12-17T12:37:59.000Z</time>
      </trkpt>
      <trkpt lat="43.34405" lon="5.98238">
        <ele>458</ele>
        <time>2019-12-17T12:38:00.000Z</time>
      </trkpt>
      <trkpt lat="43.34405" lon="5.9824">
        <ele>458</ele>
        <time>2019-12-17T12:38:01.000Z</time>
      </trkpt>
      <trkpt lat="43.34405" lon="5.98241">
        <ele>458</ele>
        <time>2019-12-17T12:38:02.000Z</time>
      </trkpt>
      <trkpt lat="43.34405" lon="5.98243">
        <ele>458</ele>
        <time>2019-12-17T12:38:03.000Z</time>
      </trkpt>
      <trkpt lat="43.34405" lon="5.98244">
        <ele>458</ele>
        <time>2019-12-17T12:38:04.000Z</time>
      </trkpt>
      <trkpt lat="43.34404" lon="5.98246">
        <ele>458</ele>
        <time>2019-12-17T12:38:05.000Z</time>
      </trkpt>
      <trkpt lat="43.34404" lon="5.98247">
        <ele>458</ele>
        <time>2019-12-17T12:38:06.000Z</time>
      </trkpt>
      <trkpt lat="43.34404" lon="5.98248">
        <ele>458</ele>
        <time>2019-12-17T12:38:07.000Z</time>
      </trkpt>
      <trkpt lat="43.34404" lon="5.98248">
        <ele>458</ele>
        <time>2019-12-17T12:38:08.000Z</time>
      </trkpt>
      <trkpt lat="43.34404" lon="5.98248">
        <ele>459</ele>
        <time>2019-12-17T12:38:09.000Z</time>
      </trkpt>
      <trkpt lat="43.34404" lon="5.98248">
        <ele>459</ele>
        <time>2019-12-17T12:38:10.000Z</time>
      </trkpt>
      <trkpt lat="43.34404" lon="5.98248">
        <ele>459</ele>
        <time>2019-12-17T12:38:11.000Z</time>
      </trkpt>
      <trkpt lat="43.34404" lon="5.98249">
        <ele>459</ele>
        <time>2019-12-17T12:38:12.000Z</time>
      </trkpt>
      <trkpt lat="43.34404" lon="5.98249">
        <ele>459</ele>
        <time>2019-12-17T12:38:13.000Z</time>
      </trkpt>
      <trkpt lat="43.34404" lon="5.9825">
        <ele>459</ele>
        <time>2019-12-17T12:38:14.000Z</time>
      </trkpt>
      <trkpt lat="43.34403" lon="5.98251">
        <ele>459</ele>
        <time>2019-12-17T12:38:15.000Z</time>
      </trkpt>
      <trkpt lat="43.34403" lon="5.98252">
        <ele>459</ele>
        <time>2019-12-17T12:38:16.000Z</time>
      </trkpt>
      <trkpt lat="43.34403" lon="5.98253">
        <ele>459</ele>
        <time>2019-12-17T12:38:17.000Z</time>
      </trkpt>
      <trkpt lat="43.34403" lon="5.98255">
        <ele>459</ele>
        <time>2019-12-17T12:38:18.000Z</time>
      </trkpt>
      <trkpt lat="43.34403" lon="5.98256">
        <ele>459</ele>
        <time>2019-12-17T12:38:19.000Z</time>
      </trkpt>
      <trkpt lat="43.34403" lon="5.98257">
        <ele>459</ele>
        <time>2019-12-17T12:38:20.000Z</time>
      </trkpt>
      <trkpt lat="43.34403" lon="5.98259">
        <ele>459</ele>
        <time>2019-12-17T12:38:21.000Z</time>
      </trkpt>
      <trkpt lat="43.34403" lon="5.9826">
        <ele>459</ele>
        <time>2019-12-17T12:38:22.000Z</time>
      </trkpt>
      <trkpt lat="43.34403" lon="5.98262">
        <ele>459</ele>
        <time>2019-12-17T12:38:23.000Z</time>
      </trkpt>
      <trkpt lat="43.34403" lon="5.98263">
        <ele>459</ele>
        <time>2019-12-17T12:38:24.000Z</time>
      </trkpt>
      <trkpt lat="43.34403" lon="5.98264">
        <ele>459</ele>
        <time>2019-12-17T12:38:25.000Z</time>
      </trkpt>
      <trkpt lat="43.34403" lon="5.98265">
        <ele>460</ele>
        <time>2019-12-17T12:38:26.000Z</time>
      </trkpt>
      <trkpt lat="43.34403" lon="5.98266">
        <ele>460</ele>
        <time>2019-12-17T12:38:27.000Z</time>
      </trkpt>
      <trkpt lat="43.34403" lon="5.98266">
        <ele>460</ele>
        <time>2019-12-17T12:38:28.000Z</time>
      </trkpt>
      <trkpt lat="43.34403" lon="5.98267">
        <ele>460</ele>
        <time>2019-12-17T12:38:29.000Z</time>
      </trkpt>
      <trkpt lat="43.34404" lon="5.98267">
        <ele>460</ele>
        <time>2019-12-17T12:38:30.000Z</time>
      </trkpt>
      <trkpt lat="43.34404" lon="5.98267">
        <ele>460</ele>
        <time>2019-12-17T12:38:31.000Z</time>
      </trkpt>
      <trkpt lat="43.34404" lon="5.98268">
        <ele>460</ele>
        <time>2019-12-17T12:38:32.000Z</time>
      </trkpt>
      <trkpt lat="43.34404" lon="5.98268">
        <ele>460</ele>
        <time>2019-12-17T12:38:33.000Z</time>
      </trkpt>
      <trkpt lat="43.34404" lon="5.98269">
        <ele>460</ele>
        <time>2019-12-17T12:38:34.000Z</time>
      </trkpt>
      <trkpt lat="43.34405" lon="5.9827">
        <ele>460</ele>
        <time>2019-12-17T12:38:35.000Z</time>
      </trkpt>
      <trkpt lat="43.34405" lon="5.98271">
        <ele>460</ele>
        <time>2019-12-17T12:38:36.000Z</time>
      </trkpt>
      <trkpt lat="43.34405" lon="5.98272">
        <ele>460</ele>
        <time>2019-12-17T12:38:37.000Z</time>
      </trkpt>
      <trkpt lat="43.34406" lon="5.98272">
        <ele>460</ele>
        <time>2019-12-17T12:38:38.000Z</time>
      </trkpt>
      <trkpt lat="43.34406" lon="5.98273">
        <ele>460</ele>
        <time>2019-12-17T12:38:39.000Z</time>
      </trkpt>
      <trkpt lat="43.34407" lon="5.98274">
        <ele>460</ele>
        <time>2019-12-17T12:38:40.000Z</time>
      </trkpt>
      <trkpt lat="43.34407" lon="5.98275">
        <ele>460</ele>
        <time>2019-12-17T12:38:41.000Z</time>
      </trkpt>
      <trkpt lat="43.34407" lon="5.98276">
        <ele>460</ele>
        <time>2019-12-17T12:38:42.000Z</time>
      </trkpt>
      <trkpt lat="43.34408" lon="5.98276">
        <ele>460</ele>
        <time>2019-12-17T12:38:43.000Z</time>
      </trkpt>
      <trkpt lat="43.34408" lon="5.98277">
        <ele>460</ele>
        <time>2019-12-17T12:38:44.000Z</time>
      </trkpt>
      <trkpt lat="43.34409" lon="5.98278">
        <ele>460</ele>
        <time>2019-12-17T12:38:45.000Z</time>
      </trkpt>
      <trkpt lat="43.34409" lon="5.98279">
        <ele>461</ele>
        <time>2019-12-17T12:38:46.000Z</time>
      </trkpt>
      <trkpt lat="43.34409" lon="5.9828">
        <ele>461</ele>
        <time>2019-12-17T12:38:47.000Z</time>
      </trkpt>
      <trkpt lat="43.3441" lon="5.98281">
        <ele>461</ele>
        <time>2019-12-17T12:38:48.000Z</time>
      </trkpt>
      <trkpt lat="43.3441" lon="5.98281">
        <ele>461</ele>
        <time>2019-12-17T12:38:49.000Z</time>
      </trkpt>
      <trkpt lat="43.34411" lon="5.98281">
        <ele>461</ele>
        <time>2019-12-17T12:38:50.000Z</time>
      </trkpt>
      <trkpt lat="43.34411" lon="5.98282">
        <ele>461</ele>
        <time>2019-12-17T12:38:51.000Z</time>
      </trkpt>
      <trkpt lat="43.34411" lon="5.98282">
        <ele>461</ele>
        <time>2019-12-17T12:38:52.000Z</time>
      </trkpt>
      <trkpt lat="43.34412" lon="5.98282">
        <ele>462</ele>
        <time>2019-12-17T12:38:53.000Z</time>
      </trkpt>
      <trkpt lat="43.34413" lon="5.98282">
        <ele>462</ele>
        <time>2019-12-17T12:38:54.000Z</time>
      </trkpt>
      <trkpt lat="43.34413" lon="5.98281">
        <ele>462</ele>
        <time>2019-12-17T12:38:55.000Z</time>
      </trkpt>
      <trkpt lat="43.34414" lon="5.98281">
        <ele>462</ele>
        <time>2019-12-17T12:38:56.000Z</time>
      </trkpt>
      <trkpt lat="43.34414" lon="5.98281">
        <ele>462</ele>
        <time>2019-12-17T12:38:57.000Z</time>
      </trkpt>
      <trkpt lat="43.34414" lon="5.98281">
        <ele>463</ele>
        <time>2019-12-17T12:38:58.000Z</time>
      </trkpt>
      <trkpt lat="43.34414" lon="5.9828">
        <ele>463</ele>
        <time>2019-12-17T12:38:59.000Z</time>
      </trkpt>
      <trkpt lat="43.34414" lon="5.9828">
        <ele>463</ele>
        <time>2019-12-17T12:39:00.000Z</time>
      </trkpt>
      <trkpt lat="43.34414" lon="5.98279">
        <ele>463</ele>
        <time>2019-12-17T12:39:01.000Z</time>
      </trkpt>
      <trkpt lat="43.34414" lon="5.98278">
        <ele>463</ele>
        <time>2019-12-17T12:39:02.000Z</time>
      </trkpt>
      <trkpt lat="43.34414" lon="5.98278">
        <ele>463</ele>
        <time>2019-12-17T12:39:03.000Z</time>
      </trkpt>
      <trkpt lat="43.34414" lon="5.98277">
        <ele>464</ele>
        <time>2019-12-17T12:39:04.000Z</time>
      </trkpt>
      <trkpt lat="43.34414" lon="5.98276">
        <ele>464</ele>
        <time>2019-12-17T12:39:05.000Z</time>
      </trkpt>
      <trkpt lat="43.34414" lon="5.98275">
        <ele>464</ele>
        <time>2019-12-17T12:39:06.000Z</time>
      </trkpt>
      <trkpt lat="43.34414" lon="5.98274">
        <ele>464</ele>
        <time>2019-12-17T12:39:07.000Z</time>
      </trkpt>
      <trkpt lat="43.34413" lon="5.98273">
        <ele>464</ele>
        <time>2019-12-17T12:39:08.000Z</time>
      </trkpt>
      <trkpt lat="43.34413" lon="5.98272">
        <ele>464</ele>
        <time>2019-12-17T12:39:09.000Z</time>
      </trkpt>
      <trkpt lat="43.34413" lon="5.98272">
        <ele>464</ele>
        <time>2019-12-17T12:39:10.000Z</time>
      </trkpt>
      <trkpt lat="43.34413" lon="5.9827">
        <ele>464</ele>
        <time>2019-12-17T12:39:11.000Z</time>
      </trkpt>
      <trkpt lat="43.34413" lon="5.98269">
        <ele>464</ele>
        <time>2019-12-17T12:39:12.000Z</time>
      </trkpt>
      <trkpt lat="43.34413" lon="5.98267">
        <ele>464</ele>
        <time>2019-12-17T12:39:13.000Z</time>
      </trkpt>
      <trkpt lat="43.34413" lon="5.98266">
        <ele>465</ele>
        <time>2019-12-17T12:39:14.000Z</time>
      </trkpt>
      <trkpt lat="43.34413" lon="5.98265">
        <ele>465</ele>
        <time>2019-12-17T12:39:15.000Z</time>
      </trkpt>
      <trkpt lat="43.34413" lon="5.98264">
        <ele>465</ele>
        <time>2019-12-17T12:39:16.000Z</time>
      </trkpt>
      <trkpt lat="43.34413" lon="5.98263">
        <ele>465</ele>
        <time>2019-12-17T12:39:17.000Z</time>
      </trkpt>
      <trkpt lat="43.34414" lon="5.98261">
        <ele>465</ele>
        <time>2019-12-17T12:39:18.000Z</time>
      </trkpt>
      <trkpt lat="43.34414" lon="5.9826">
        <ele>465</ele>
        <time>2019-12-17T12:39:19.000Z</time>
      </trkpt>
      <trkpt lat="43.34414" lon="5.98259">
        <ele>465</ele>
        <time>2019-12-17T12:39:20.000Z</time>
      </trkpt>
      <trkpt lat="43.34414" lon="5.98258">
        <ele>465</ele>
        <time>2019-12-17T12:39:21.000Z</time>
      </trkpt>
      <trkpt lat="43.34414" lon="5.98257">
        <ele>465</ele>
        <time>2019-12-17T12:39:22.000Z</time>
      </trkpt>
      <trkpt lat="43.34414" lon="5.98256">
        <ele>465</ele>
        <time>2019-12-17T12:39:23.000Z</time>
      </trkpt>
      <trkpt lat="43.34414" lon="5.98255">
        <ele>466</ele>
        <time>2019-12-17T12:39:24.000Z</time>
      </trkpt>
      <trkpt lat="43.34414" lon="5.98254">
        <ele>466</ele>
        <time>2019-12-17T12:39:25.000Z</time>
      </trkpt>
      <trkpt lat="43.34414" lon="5.98253">
        <ele>466</ele>
        <time>2019-12-17T12:39:26.000Z</time>
      </trkpt>
      <trkpt lat="43.34415" lon="5.98252">
        <ele>466</ele>
        <time>2019-12-17T12:39:27.000Z</time>
      </trkpt>
      <trkpt lat="43.34415" lon="5.98251">
        <ele>466</ele>
        <time>2019-12-17T12:39:28.000Z</time>
      </trkpt>
      <trkpt lat="43.34415" lon="5.98251">
        <ele>466</ele>
        <time>2019-12-17T12:39:29.000Z</time>
      </trkpt>
      <trkpt lat="43.34415" lon="5.98251">
        <ele>466</ele>
        <time>2019-12-17T12:39:30.000Z</time>
      </trkpt>
      <trkpt lat="43.34415" lon="5.98251">
        <ele>466</ele>
        <time>2019-12-17T12:39:31.000Z</time>
      </trkpt>
      <trkpt lat="43.34415" lon="5.98251">
        <ele>466</ele>
        <time>2019-12-17T12:39:32.000Z</time>
      </trkpt>
      <trkpt lat="43.34415" lon="5.98251">
        <ele>466</ele>
        <time>2019-12-17T12:39:33.000Z</time>
      </trkpt>
      <trkpt lat="43.34415" lon="5.98251">
        <ele>466</ele>
        <time>2019-12-17T12:39:34.000Z</time>
      </trkpt>
      <trkpt lat="43.34415" lon="5.98251">
        <ele>467</ele>
        <time>2019-12-17T12:39:35.000Z</time>
      </trkpt>
      <trkpt lat="43.34415" lon="5.98252">
        <ele>467</ele>
        <time>2019-12-17T12:39:36.000Z</time>
      </trkpt>
      <trkpt lat="43.34415" lon="5.98253">
        <ele>467</ele>
        <time>2019-12-17T12:39:37.000Z</time>
      </trkpt>
      <trkpt lat="43.34415" lon="5.98254">
        <ele>467</ele>
        <time>2019-12-17T12:39:38.000Z</time>
      </trkpt>
      <trkpt lat="43.34416" lon="5.98255">
        <ele>467</ele>
        <time>2019-12-17T12:39:39.000Z</time>
      </trkpt>
      <trkpt lat="43.34416" lon="5.98256">
        <ele>467</ele>
        <time>2019-12-17T12:39:40.000Z</time>
      </trkpt>
      <trkpt lat="43.34417" lon="5.98257">
        <ele>468</ele>
        <time>2019-12-17T12:39:41.000Z</time>
      </trkpt>
      <trkpt lat="43.34417" lon="5.98258">
        <ele>468</ele>
        <time>2019-12-17T12:39:42.000Z</time>
      </trkpt>
      <trkpt lat="43.34418" lon="5.98259">
        <ele>468</ele>
        <time>2019-12-17T12:39:43.000Z</time>
      </trkpt>
      <trkpt lat="43.34418" lon="5.9826">
        <ele>468</ele>
        <time>2019-12-17T12:39:44.000Z</time>
      </trkpt>
      <trkpt lat="43.34419" lon="5.98262">
        <ele>469</ele>
        <time>2019-12-17T12:39:45.000Z</time>
      </trkpt>
      <trkpt lat="43.34419" lon="5.98263">
        <ele>469</ele>
        <time>2019-12-17T12:39:46.000Z</time>
      </trkpt>
      <trkpt lat="43.3442" lon="5.98264">
        <ele>469</ele>
        <time>2019-12-17T12:39:47.000Z</time>
      </trkpt>
      <trkpt lat="43.3442" lon="5.98265">
        <ele>469</ele>
        <time>2019-12-17T12:39:48.000Z</time>
      </trkpt>
      <trkpt lat="43.34421" lon="5.98266">
        <ele>470</ele>
        <time>2019-12-17T12:39:49.000Z</time>
      </trkpt>
      <trkpt lat="43.34421" lon="5.98267">
        <ele>470</ele>
        <time>2019-12-17T12:39:50.000Z</time>
      </trkpt>
      <trkpt lat="43.34422" lon="5.98268">
        <ele>470</ele>
        <time>2019-12-17T12:39:51.000Z</time>
      </trkpt>
      <trkpt lat="43.34423" lon="5.98269">
        <ele>470</ele>
        <time>2019-12-17T12:39:52.000Z</time>
      </trkpt>
      <trkpt lat="43.34423" lon="5.9827">
        <ele>470</ele>
        <time>2019-12-17T12:39:53.000Z</time>
      </trkpt>
      <trkpt lat="43.34424" lon="5.9827">
        <ele>470</ele>
        <time>2019-12-17T12:39:54.000Z</time>
      </trkpt>
      <trkpt lat="43.34424" lon="5.98271">
        <ele>470</ele>
        <time>2019-12-17T12:39:55.000Z</time>
      </trkpt>
      <trkpt lat="43.34424" lon="5.98271">
        <ele>470</ele>
        <time>2019-12-17T12:39:56.000Z</time>
      </trkpt>
      <trkpt lat="43.34424" lon="5.98271">
        <ele>470</ele>
        <time>2019-12-17T12:39:57.000Z</time>
      </trkpt>
      <trkpt lat="43.34424" lon="5.98271">
        <ele>470</ele>
        <time>2019-12-17T12:39:58.000Z</time>
      </trkpt>
      <trkpt lat="43.34425" lon="5.98272">
        <ele>470</ele>
        <time>2019-12-17T12:39:59.000Z</time>
      </trkpt>
      <trkpt lat="43.34425" lon="5.98272">
        <ele>470</ele>
        <time>2019-12-17T12:40:00.000Z</time>
      </trkpt>
      <trkpt lat="43.34425" lon="5.98273">
        <ele>470</ele>
        <time>2019-12-17T12:40:01.000Z</time>
      </trkpt>
      <trkpt lat="43.34426" lon="5.98273">
        <ele>470</ele>
        <time>2019-12-17T12:40:02.000Z</time>
      </trkpt>
      <trkpt lat="43.34427" lon="5.98274">
        <ele>470</ele>
        <time>2019-12-17T12:40:03.000Z</time>
      </trkpt>
      <trkpt lat="43.34427" lon="5.98274">
        <ele>470</ele>
        <time>2019-12-17T12:40:04.000Z</time>
      </trkpt>
      <trkpt lat="43.34427" lon="5.98274">
        <ele>471</ele>
        <time>2019-12-17T12:40:05.000Z</time>
      </trkpt>
      <trkpt lat="43.34428" lon="5.98274">
        <ele>471</ele>
        <time>2019-12-17T12:40:06.000Z</time>
      </trkpt>
      <trkpt lat="43.34428" lon="5.98274">
        <ele>471</ele>
        <time>2019-12-17T12:40:07.000Z</time>
      </trkpt>
      <trkpt lat="43.34428" lon="5.98274">
        <ele>471</ele>
        <time>2019-12-17T12:40:08.000Z</time>
      </trkpt>
      <trkpt lat="43.34428" lon="5.98274">
        <ele>471</ele>
        <time>2019-12-17T12:40:09.000Z</time>
      </trkpt>
      <trkpt lat="43.34428" lon="5.98274">
        <ele>471</ele>
        <time>2019-12-17T12:40:10.000Z</time>
      </trkpt>
      <trkpt lat="43.34428" lon="5.98274">
        <ele>471</ele>
        <time>2019-12-17T12:40:11.000Z</time>
      </trkpt>
      <trkpt lat="43.34428" lon="5.98274">
        <ele>471</ele>
        <time>2019-12-17T12:40:12.000Z</time>
      </trkpt>
      <trkpt lat="43.34428" lon="5.98273">
        <ele>471</ele>
        <time>2019-12-17T12:40:13.000Z</time>
      </trkpt>
      <trkpt lat="43.34428" lon="5.98273">
        <ele>471</ele>
        <time>2019-12-17T12:40:14.000Z</time>
      </trkpt>
      <trkpt lat="43.34428" lon="5.98273">
        <ele>471</ele>
        <time>2019-12-17T12:40:15.000Z</time>
      </trkpt>
      <trkpt lat="43.34429" lon="5.98273">
        <ele>471</ele>
        <time>2019-12-17T12:40:16.000Z</time>
      </trkpt>
      <trkpt lat="43.34429" lon="5.98272">
        <ele>471</ele>
        <time>2019-12-17T12:40:17.000Z</time>
      </trkpt>
      <trkpt lat="43.34429" lon="5.98272">
        <ele>471</ele>
        <time>2019-12-17T12:40:18.000Z</time>
      </trkpt>
      <trkpt lat="43.34429" lon="5.98272">
        <ele>471</ele>
        <time>2019-12-17T12:40:19.000Z</time>
      </trkpt>
      <trkpt lat="43.34429" lon="5.98272">
        <ele>471</ele>
        <time>2019-12-17T12:40:20.000Z</time>
      </trkpt>
      <trkpt lat="43.34428" lon="5.98271">
        <ele>471</ele>
        <time>2019-12-17T12:40:21.000Z</time>
      </trkpt>
      <trkpt lat="43.34428" lon="5.98271">
        <ele>471</ele>
        <time>2019-12-17T12:40:22.000Z</time>
      </trkpt>
      <trkpt lat="43.34428" lon="5.9827">
        <ele>471</ele>
        <time>2019-12-17T12:40:23.000Z</time>
      </trkpt>
      <trkpt lat="43.34428" lon="5.9827">
        <ele>471</ele>
        <time>2019-12-17T12:40:24.000Z</time>
      </trkpt>
      <trkpt lat="43.34428" lon="5.98269">
        <ele>471</ele>
        <time>2019-12-17T12:40:25.000Z</time>
      </trkpt>
      <trkpt lat="43.34428" lon="5.98268">
        <ele>471</ele>
        <time>2019-12-17T12:40:26.000Z</time>
      </trkpt>
      <trkpt lat="43.34427" lon="5.98267">
        <ele>471</ele>
        <time>2019-12-17T12:40:27.000Z</time>
      </trkpt>
      <trkpt lat="43.34427" lon="5.98267">
        <ele>471</ele>
        <time>2019-12-17T12:40:28.000Z</time>
      </trkpt>
      <trkpt lat="43.34427" lon="5.98266">
        <ele>471</ele>
        <time>2019-12-17T12:40:29.000Z</time>
      </trkpt>
      <trkpt lat="43.34427" lon="5.98264">
        <ele>471</ele>
        <time>2019-12-17T12:40:30.000Z</time>
      </trkpt>
      <trkpt lat="43.34427" lon="5.98263">
        <ele>471</ele>
        <time>2019-12-17T12:40:31.000Z</time>
      </trkpt>
      <trkpt lat="43.34427" lon="5.98262">
        <ele>471</ele>
        <time>2019-12-17T12:40:32.000Z</time>
      </trkpt>
      <trkpt lat="43.34427" lon="5.9826">
        <ele>471</ele>
        <time>2019-12-17T12:40:33.000Z</time>
      </trkpt>
      <trkpt lat="43.34428" lon="5.98259">
        <ele>471</ele>
        <time>2019-12-17T12:40:34.000Z</time>
      </trkpt>
      <trkpt lat="43.34427" lon="5.98258">
        <ele>471</ele>
        <time>2019-12-17T12:40:35.000Z</time>
      </trkpt>
      <trkpt lat="43.34428" lon="5.98257">
        <ele>470</ele>
        <time>2019-12-17T12:40:36.000Z</time>
      </trkpt>
      <trkpt lat="43.34427" lon="5.98256">
        <ele>470</ele>
        <time>2019-12-17T12:40:37.000Z</time>
      </trkpt>
      <trkpt lat="43.34427" lon="5.98254">
        <ele>470</ele>
        <time>2019-12-17T12:40:38.000Z</time>
      </trkpt>
      <trkpt lat="43.34427" lon="5.98254">
        <ele>470</ele>
        <time>2019-12-17T12:40:39.000Z</time>
      </trkpt>
      <trkpt lat="43.34427" lon="5.98253">
        <ele>470</ele>
        <time>2019-12-17T12:40:40.000Z</time>
      </trkpt>
      <trkpt lat="43.34427" lon="5.98253">
        <ele>470</ele>
        <time>2019-12-17T12:40:41.000Z</time>
      </trkpt>
      <trkpt lat="43.34427" lon="5.98252">
        <ele>470</ele>
        <time>2019-12-17T12:40:42.000Z</time>
      </trkpt>
      <trkpt lat="43.34427" lon="5.98251">
        <ele>470</ele>
        <time>2019-12-17T12:40:43.000Z</time>
      </trkpt>
      <trkpt lat="43.34427" lon="5.98251">
        <ele>470</ele>
        <time>2019-12-17T12:40:44.000Z</time>
      </trkpt>
      <trkpt lat="43.34427" lon="5.9825">
        <ele>470</ele>
        <time>2019-12-17T12:40:45.000Z</time>
      </trkpt>
      <trkpt lat="43.34427" lon="5.98249">
        <ele>470</ele>
        <time>2019-12-17T12:40:46.000Z</time>
      </trkpt>
      <trkpt lat="43.34427" lon="5.98249">
        <ele>470</ele>
        <time>2019-12-17T12:40:47.000Z</time>
      </trkpt>
      <trkpt lat="43.34427" lon="5.98249">
        <ele>470</ele>
        <time>2019-12-17T12:40:48.000Z</time>
      </trkpt>
      <trkpt lat="43.34428" lon="5.98248">
        <ele>471</ele>
        <time>2019-12-17T12:40:49.000Z</time>
      </trkpt>
      <trkpt lat="43.34428" lon="5.98248">
        <ele>471</ele>
        <time>2019-12-17T12:40:50.000Z</time>
      </trkpt>
      <trkpt lat="43.34428" lon="5.98247">
        <ele>471</ele>
        <time>2019-12-17T12:40:51.000Z</time>
      </trkpt>
      <trkpt lat="43.34428" lon="5.98246">
        <ele>471</ele>
        <time>2019-12-17T12:40:52.000Z</time>
      </trkpt>
      <trkpt lat="43.34428" lon="5.98246">
        <ele>471</ele>
        <time>2019-12-17T12:40:53.000Z</time>
      </trkpt>
      <trkpt lat="43.34428" lon="5.98245">
        <ele>471</ele>
        <time>2019-12-17T12:40:54.000Z</time>
      </trkpt>
      <trkpt lat="43.34428" lon="5.98244">
        <ele>471</ele>
        <time>2019-12-17T12:40:55.000Z</time>
      </trkpt>
      <trkpt lat="43.34428" lon="5.98244">
        <ele>471</ele>
        <time>2019-12-17T12:40:56.000Z</time>
      </trkpt>
      <trkpt lat="43.34428" lon="5.98244">
        <ele>471</ele>
        <time>2019-12-17T12:40:57.000Z</time>
      </trkpt>
      <trkpt lat="43.34428" lon="5.98244">
        <ele>471</ele>
        <time>2019-12-17T12:40:58.000Z</time>
      </trkpt>
      <trkpt lat="43.34428" lon="5.98243">
        <ele>472</ele>
        <time>2019-12-17T12:40:59.000Z</time>
      </trkpt>
      <trkpt lat="43.34428" lon="5.98243">
        <ele>472</ele>
        <time>2019-12-17T12:41:00.000Z</time>
      </trkpt>
      <trkpt lat="43.34428" lon="5.98243">
        <ele>472</ele>
        <time>2019-12-17T12:41:01.000Z</time>
      </trkpt>
      <trkpt lat="43.34428" lon="5.98242">
        <ele>472</ele>
        <time>2019-12-17T12:41:02.000Z</time>
      </trkpt>
      <trkpt lat="43.34428" lon="5.98242">
        <ele>472</ele>
        <time>2019-12-17T12:41:03.000Z</time>
      </trkpt>
      <trkpt lat="43.34428" lon="5.98242">
        <ele>472</ele>
        <time>2019-12-17T12:41:04.000Z</time>
      </trkpt>
      <trkpt lat="43.34428" lon="5.98242">
        <ele>472</ele>
        <time>2019-12-17T12:41:05.000Z</time>
      </trkpt>
      <trkpt lat="43.34428" lon="5.98242">
        <ele>472</ele>
        <time>2019-12-17T12:41:06.000Z</time>
      </trkpt>
      <trkpt lat="43.34428" lon="5.98241">
        <ele>473</ele>
        <time>2019-12-17T12:41:07.000Z</time>
      </trkpt>
      <trkpt lat="43.34428" lon="5.98241">
        <ele>473</ele>
        <time>2019-12-17T12:41:08.000Z</time>
      </trkpt>
      <trkpt lat="43.34428" lon="5.98241">
        <ele>473</ele>
        <time>2019-12-17T12:41:09.000Z</time>
      </trkpt>
      <trkpt lat="43.34428" lon="5.98241">
        <ele>473</ele>
        <time>2019-12-17T12:41:10.000Z</time>
      </trkpt>
      <trkpt lat="43.34428" lon="5.98241">
        <ele>473</ele>
        <time>2019-12-17T12:41:11.000Z</time>
      </trkpt>
      <trkpt lat="43.34428" lon="5.9824">
        <ele>473</ele>
        <time>2019-12-17T12:41:12.000Z</time>
      </trkpt>
      <trkpt lat="43.34428" lon="5.9824">
        <ele>473</ele>
        <time>2019-12-17T12:41:13.000Z</time>
      </trkpt>
      <trkpt lat="43.34428" lon="5.9824">
        <ele>473</ele>
        <time>2019-12-17T12:41:14.000Z</time>
      </trkpt>
      <trkpt lat="43.34428" lon="5.9824">
        <ele>473</ele>
        <time>2019-12-17T12:41:15.000Z</time>
      </trkpt>
      <trkpt lat="43.34428" lon="5.9824">
        <ele>473</ele>
        <time>2019-12-17T12:41:16.000Z</time>
      </trkpt>
      <trkpt lat="43.34428" lon="5.9824">
        <ele>473</ele>
        <time>2019-12-17T12:41:17.000Z</time>
      </trkpt>
      <trkpt lat="43.34428" lon="5.9824">
        <ele>473</ele>
        <time>2019-12-17T12:41:18.000Z</time>
      </trkpt>
      <trkpt lat="43.34428" lon="5.98239">
        <ele>473</ele>
        <time>2019-12-17T12:41:19.000Z</time>
      </trkpt>
      <trkpt lat="43.34428" lon="5.98239">
        <ele>473</ele>
        <time>2019-12-17T12:41:20.000Z</time>
      </trkpt>
      <trkpt lat="43.34429" lon="5.98238">
        <ele>473</ele>
        <time>2019-12-17T12:41:21.000Z</time>
      </trkpt>
      <trkpt lat="43.34429" lon="5.98237">
        <ele>473</ele>
        <time>2019-12-17T12:41:22.000Z</time>
      </trkpt>
      <trkpt lat="43.34429" lon="5.98237">
        <ele>473</ele>
        <time>2019-12-17T12:41:23.000Z</time>
      </trkpt>
      <trkpt lat="43.34429" lon="5.98236">
        <ele>473</ele>
        <time>2019-12-17T12:41:24.000Z</time>
      </trkpt>
      <trkpt lat="43.34428" lon="5.98236">
        <ele>473</ele>
        <time>2019-12-17T12:41:25.000Z</time>
      </trkpt>
      <trkpt lat="43.34428" lon="5.98236">
        <ele>474</ele>
        <time>2019-12-17T12:41:26.000Z</time>
      </trkpt>
      <trkpt lat="43.34428" lon="5.98236">
        <ele>474</ele>
        <time>2019-12-17T12:41:27.000Z</time>
      </trkpt>
      <trkpt lat="43.34428" lon="5.98236">
        <ele>474</ele>
        <time>2019-12-17T12:41:28.000Z</time>
      </trkpt>
      <trkpt lat="43.34429" lon="5.98236">
        <ele>474</ele>
        <time>2019-12-17T12:41:29.000Z</time>
      </trkpt>
      <trkpt lat="43.34429" lon="5.98236">
        <ele>474</ele>
        <time>2019-12-17T12:41:30.000Z</time>
      </trkpt>
      <trkpt lat="43.34429" lon="5.98236">
        <ele>474</ele>
        <time>2019-12-17T12:41:31.000Z</time>
      </trkpt>
      <trkpt lat="43.34429" lon="5.98236">
        <ele>474</ele>
        <time>2019-12-17T12:41:32.000Z</time>
      </trkpt>
      <trkpt lat="43.34429" lon="5.98236">
        <ele>474</ele>
        <time>2019-12-17T12:41:33.000Z</time>
      </trkpt>
      <trkpt lat="43.34429" lon="5.98235">
        <ele>474</ele>
        <time>2019-12-17T12:41:34.000Z</time>
      </trkpt>
      <trkpt lat="43.34429" lon="5.98235">
        <ele>474</ele>
        <time>2019-12-17T12:41:35.000Z</time>
      </trkpt>
      <trkpt lat="43.34429" lon="5.98235">
        <ele>474</ele>
        <time>2019-12-17T12:41:36.000Z</time>
      </trkpt>
      <trkpt lat="43.34429" lon="5.98235">
        <ele>474</ele>
        <time>2019-12-17T12:41:37.000Z</time>
      </trkpt>
      <trkpt lat="43.34429" lon="5.98235">
        <ele>474</ele>
        <time>2019-12-17T12:41:38.000Z</time>
      </trkpt>
      <trkpt lat="43.34429" lon="5.98235">
        <ele>474</ele>
        <time>2019-12-17T12:41:39.000Z</time>
      </trkpt>
      <trkpt lat="43.34429" lon="5.98235">
        <ele>474</ele>
        <time>2019-12-17T12:41:40.000Z</time>
      </trkpt>
      <trkpt lat="43.34429" lon="5.98235">
        <ele>474</ele>
        <time>2019-12-17T12:41:41.000Z</time>
      </trkpt>
      <trkpt lat="43.34429" lon="5.98235">
        <ele>474</ele>
        <time>2019-12-17T12:41:42.000Z</time>
      </trkpt>
      <trkpt lat="43.34429" lon="5.98236">
        <ele>474</ele>
        <time>2019-12-17T12:41:43.000Z</time>
      </trkpt>
      <trkpt lat="43.34429" lon="5.98235">
        <ele>474</ele>
        <time>2019-12-17T12:41:44.000Z</time>
      </trkpt>
      <trkpt lat="43.34429" lon="5.98235">
        <ele>474</ele>
        <time>2019-12-17T12:41:45.000Z</time>
      </trkpt>
      <trkpt lat="43.34429" lon="5.98235">
        <ele>474</ele>
        <time>2019-12-17T12:41:46.000Z</time>
      </trkpt>
      <trkpt lat="43.34429" lon="5.98235">
        <ele>474</ele>
        <time>2019-12-17T12:41:47.000Z</time>
      </trkpt>
      <trkpt lat="43.34429" lon="5.98235">
        <ele>474</ele>
        <time>2019-12-17T12:41:48.000Z</time>
      </trkpt>
      <trkpt lat="43.34429" lon="5.98235">
        <ele>474</ele>
        <time>2019-12-17T12:41:49.000Z</time>
      </trkpt>
      <trkpt lat="43.34429" lon="5.98236">
        <ele>474</ele>
        <time>2019-12-17T12:41:50.000Z</time>
      </trkpt>
      <trkpt lat="43.34429" lon="5.98236">
        <ele>474</ele>
        <time>2019-12-17T12:41:51.000Z</time>
      </trkpt>
      <trkpt lat="43.34429" lon="5.98236">
        <ele>474</ele>
        <time>2019-12-17T12:41:52.000Z</time>
      </trkpt>
      <trkpt lat="43.34429" lon="5.98236">
        <ele>474</ele>
        <time>2019-12-17T12:41:53.000Z</time>
      </trkpt>
      <trkpt lat="43.34429" lon="5.98236">
        <ele>474</ele>
        <time>2019-12-17T12:41:54.000Z</time>
      </trkpt>
      <trkpt lat="43.34429" lon="5.98236">
        <ele>474</ele>
        <time>2019-12-17T12:41:55.000Z</time>
      </trkpt>
      <trkpt lat="43.34429" lon="5.98236">
        <ele>474</ele>
        <time>2019-12-17T12:41:56.000Z</time>
      </trkpt>
      <trkpt lat="43.34429" lon="5.98236">
        <ele>474</ele>
        <time>2019-12-17T12:41:57.000Z</time>
      </trkpt>
      <trkpt lat="43.34429" lon="5.98236">
        <ele>474</ele>
        <time>2019-12-17T12:41:58.000Z</time>
      </trkpt>
      <trkpt lat="43.34429" lon="5.98236">
        <ele>474</ele>
        <time>2019-12-17T12:41:59.000Z</time>
      </trkpt>
      <trkpt lat="43.34429" lon="5.98236">
        <ele>474</ele>
        <time>2019-12-17T12:42:00.000Z</time>
      </trkpt>
      <trkpt lat="43.34429" lon="5.98236">
        <ele>474</ele>
        <time>2019-12-17T12:42:01.000Z</time>
      </trkpt>
      <trkpt lat="43.34429" lon="5.98236">
        <ele>474</ele>
        <time>2019-12-17T12:42:02.000Z</time>
      </trkpt>
      <trkpt lat="43.34429" lon="5.98236">
        <ele>474</ele>
        <time>2019-12-17T12:42:03.000Z</time>
      </trkpt>
      <trkpt lat="43.34429" lon="5.98236">
        <ele>474</ele>
        <time>2019-12-17T12:42:04.000Z</time>
      </trkpt>
      <trkpt lat="43.34429" lon="5.98236">
        <ele>474</ele>
        <time>2019-12-17T12:42:05.000Z</time>
      </trkpt>
      <trkpt lat="43.34429" lon="5.98236">
        <ele>474</ele>
        <time>2019-12-17T12:42:06.000Z</time>
      </trkpt>
      <trkpt lat="43.34429" lon="5.98236">
        <ele>474</ele>
        <time>2019-12-17T12:42:07.000Z</time>
      </trkpt>
      <trkpt lat="43.34429" lon="5.98236">
        <ele>474</ele>
        <time>2019-12-17T12:42:08.000Z</time>
      </trkpt>
      <trkpt lat="43.34429" lon="5.98236">
        <ele>474</ele>
        <time>2019-12-17T12:42:09.000Z</time>
      </trkpt>
      <trkpt lat="43.34429" lon="5.98236">
        <ele>474</ele>
        <time>2019-12-17T12:42:10.000Z</time>
      </trkpt>
      <trkpt lat="43.34429" lon="5.98236">
        <ele>474</ele>
        <time>2019-12-17T12:42:11.000Z</time>
      </trkpt>
      <trkpt lat="43.34429" lon="5.98235">
        <ele>474</ele>
        <time>2019-12-17T12:42:12.000Z</time>
      </trkpt>
      <trkpt lat="43.34429" lon="5.98235">
        <ele>474</ele>
        <time>2019-12-17T12:42:13.000Z</time>
      </trkpt>
      <trkpt lat="43.34429" lon="5.98235">
        <ele>474</ele>
        <time>2019-12-17T12:42:14.000Z</time>
      </trkpt>
      <trkpt lat="43.34429" lon="5.98235">
        <ele>474</ele>
        <time>2019-12-17T12:42:15.000Z</time>
      </trkpt>
      <trkpt lat="43.34429" lon="5.98236">
        <ele>474</ele>
        <time>2019-12-17T12:42:16.000Z</time>
      </trkpt>
      <trkpt lat="43.34429" lon="5.98236">
        <ele>474</ele>
        <time>2019-12-17T12:42:17.000Z</time>
      </trkpt>
      <trkpt lat="43.3443" lon="5.98238">
        <ele>474</ele>
        <time>2019-12-17T12:42:18.000Z</time>
      </trkpt>
      <trkpt lat="43.3443" lon="5.98239">
        <ele>474</ele>
        <time>2019-12-17T12:42:19.000Z</time>
      </trkpt>
      <trkpt lat="43.3443" lon="5.9824">
        <ele>475</ele>
        <time>2019-12-17T12:42:20.000Z</time>
      </trkpt>
      <trkpt lat="43.3443" lon="5.98241">
        <ele>475</ele>
        <time>2019-12-17T12:42:21.000Z</time>
      </trkpt>
      <trkpt lat="43.34431" lon="5.98242">
        <ele>475</ele>
        <time>2019-12-17T12:42:22.000Z</time>
      </trkpt>
      <trkpt lat="43.34431" lon="5.98243">
        <ele>475</ele>
        <time>2019-12-17T12:42:23.000Z</time>
      </trkpt>
      <trkpt lat="43.34431" lon="5.98243">
        <ele>475</ele>
        <time>2019-12-17T12:42:24.000Z</time>
      </trkpt>
      <trkpt lat="43.34432" lon="5.98244">
        <ele>475</ele>
        <time>2019-12-17T12:42:25.000Z</time>
      </trkpt>
      <trkpt lat="43.34432" lon="5.98245">
        <ele>475</ele>
        <time>2019-12-17T12:42:26.000Z</time>
      </trkpt>
      <trkpt lat="43.34433" lon="5.98246">
        <ele>475</ele>
        <time>2019-12-17T12:42:27.000Z</time>
      </trkpt>
      <trkpt lat="43.34433" lon="5.98247">
        <ele>475</ele>
        <time>2019-12-17T12:42:28.000Z</time>
      </trkpt>
      <trkpt lat="43.34434" lon="5.98247">
        <ele>475</ele>
        <time>2019-12-17T12:42:29.000Z</time>
      </trkpt>
      <trkpt lat="43.34434" lon="5.98247">
        <ele>475</ele>
        <time>2019-12-17T12:42:30.000Z</time>
      </trkpt>
      <trkpt lat="43.34433" lon="5.98248">
        <ele>475</ele>
        <time>2019-12-17T12:42:31.000Z</time>
      </trkpt>
      <trkpt lat="43.34433" lon="5.98248">
        <ele>475</ele>
        <time>2019-12-17T12:42:32.000Z</time>
      </trkpt>
      <trkpt lat="43.34432" lon="5.98249">
        <ele>475</ele>
        <time>2019-12-17T12:42:33.000Z</time>
      </trkpt>
      <trkpt lat="43.34432" lon="5.9825">
        <ele>476</ele>
        <time>2019-12-17T12:42:34.000Z</time>
      </trkpt>
      <trkpt lat="43.34431" lon="5.9825">
        <ele>476</ele>
        <time>2019-12-17T12:42:35.000Z</time>
      </trkpt>
      <trkpt lat="43.3443" lon="5.9825">
        <ele>476</ele>
        <time>2019-12-17T12:42:36.000Z</time>
      </trkpt>
      <trkpt lat="43.3443" lon="5.9825">
        <ele>476</ele>
        <time>2019-12-17T12:42:37.000Z</time>
      </trkpt>
      <trkpt lat="43.34429" lon="5.9825">
        <ele>476</ele>
        <time>2019-12-17T12:42:38.000Z</time>
      </trkpt>
      <trkpt lat="43.34428" lon="5.9825">
        <ele>476</ele>
        <time>2019-12-17T12:42:39.000Z</time>
      </trkpt>
      <trkpt lat="43.34428" lon="5.9825">
        <ele>476</ele>
        <time>2019-12-17T12:42:40.000Z</time>
      </trkpt>
      <trkpt lat="43.34427" lon="5.98249">
        <ele>476</ele>
        <time>2019-12-17T12:42:41.000Z</time>
      </trkpt>
      <trkpt lat="43.34427" lon="5.98249">
        <ele>476</ele>
        <time>2019-12-17T12:42:42.000Z</time>
      </trkpt>
      <trkpt lat="43.34427" lon="5.98249">
        <ele>476</ele>
        <time>2019-12-17T12:42:45.000Z</time>
      </trkpt>
      <trkpt lat="43.34427" lon="5.98249">
        <ele>478</ele>
        <time>2019-12-17T12:43:17.000Z</time>
      </trkpt>
      <trkpt lat="43.34427" lon="5.98249">
        <ele>479</ele>
        <time>2019-12-17T12:43:18.000Z</time>
      </trkpt>
      <trkpt lat="43.34403" lon="5.98249">
        <ele>480</ele>
        <time>2019-12-17T12:43:19.000Z</time>
      </trkpt>
      <trkpt lat="43.34403" lon="5.98249">
        <ele>480</ele>
        <time>2019-12-17T12:43:20.000Z</time>
      </trkpt>
      <trkpt lat="43.34404" lon="5.98248">
        <ele>480</ele>
        <time>2019-12-17T12:43:21.000Z</time>
      </trkpt>
      <trkpt lat="43.34405" lon="5.98248">
        <ele>480</ele>
        <time>2019-12-17T12:43:22.000Z</time>
      </trkpt>
      <trkpt lat="43.34407" lon="5.98248">
        <ele>480</ele>
        <time>2019-12-17T12:43:23.000Z</time>
      </trkpt>
      <trkpt lat="43.34408" lon="5.98248">
        <ele>480</ele>
        <time>2019-12-17T12:43:24.000Z</time>
      </trkpt>
      <trkpt lat="43.3441" lon="5.98248">
        <ele>481</ele>
        <time>2019-12-17T12:43:25.000Z</time>
      </trkpt>
      <trkpt lat="43.34411" lon="5.98248">
        <ele>481</ele>
        <time>2019-12-17T12:43:26.000Z</time>
      </trkpt>
      <trkpt lat="43.34412" lon="5.98247">
        <ele>481</ele>
        <time>2019-12-17T12:43:27.000Z</time>
      </trkpt>
      <trkpt lat="43.34413" lon="5.98247">
        <ele>481</ele>
        <time>2019-12-17T12:43:28.000Z</time>
      </trkpt>
      <trkpt lat="43.34414" lon="5.98247">
        <ele>481</ele>
        <time>2019-12-17T12:43:29.000Z</time>
      </trkpt>
      <trkpt lat="43.34415" lon="5.98247">
        <ele>482</ele>
        <time>2019-12-17T12:43:30.000Z</time>
      </trkpt>
      <trkpt lat="43.34416" lon="5.98247">
        <ele>482</ele>
        <time>2019-12-17T12:43:31.000Z</time>
      </trkpt>
      <trkpt lat="43.34417" lon="5.98247">
        <ele>482</ele>
        <time>2019-12-17T12:43:32.000Z</time>
      </trkpt>
      <trkpt lat="43.34418" lon="5.98247">
        <ele>482</ele>
        <time>2019-12-17T12:43:33.000Z</time>
      </trkpt>
      <trkpt lat="43.34418" lon="5.98247">
        <ele>483</ele>
        <time>2019-12-17T12:43:34.000Z</time>
      </trkpt>
      <trkpt lat="43.34419" lon="5.98247">
        <ele>483</ele>
        <time>2019-12-17T12:43:35.000Z</time>
      </trkpt>
      <trkpt lat="43.34419" lon="5.98247">
        <ele>483</ele>
        <time>2019-12-17T12:43:36.000Z</time>
      </trkpt>
      <trkpt lat="43.3442" lon="5.98247">
        <ele>483</ele>
        <time>2019-12-17T12:43:37.000Z</time>
      </trkpt>
      <trkpt lat="43.3442" lon="5.98247">
        <ele>482</ele>
        <time>2019-12-17T12:43:38.000Z</time>
      </trkpt>
      <trkpt lat="43.34421" lon="5.98248">
        <ele>482</ele>
        <time>2019-12-17T12:43:39.000Z</time>
      </trkpt>
      <trkpt lat="43.34421" lon="5.98248">
        <ele>482</ele>
        <time>2019-12-17T12:43:40.000Z</time>
      </trkpt>
      <trkpt lat="43.34421" lon="5.98248">
        <ele>483</ele>
        <time>2019-12-17T12:43:41.000Z</time>
      </trkpt>
      <trkpt lat="43.34422" lon="5.98248">
        <ele>483</ele>
        <time>2019-12-17T12:43:42.000Z</time>
      </trkpt>
      <trkpt lat="43.34422" lon="5.98248">
        <ele>483</ele>
        <time>2019-12-17T12:43:43.000Z</time>
      </trkpt>
      <trkpt lat="43.34422" lon="5.98248">
        <ele>483</ele>
        <time>2019-12-17T12:43:44.000Z</time>
      </trkpt>
      <trkpt lat="43.34422" lon="5.98248">
        <ele>483</ele>
        <time>2019-12-17T12:43:45.000Z</time>
      </trkpt>
      <trkpt lat="43.34423" lon="5.98248">
        <ele>483</ele>
        <time>2019-12-17T12:43:46.000Z</time>
      </trkpt>
      <trkpt lat="43.34423" lon="5.98247">
        <ele>483</ele>
        <time>2019-12-17T12:43:47.000Z</time>
      </trkpt>
      <trkpt lat="43.34423" lon="5.98247">
        <ele>483</ele>
        <time>2019-12-17T12:43:48.000Z</time>
      </trkpt>
      <trkpt lat="43.34423" lon="5.98247">
        <ele>483</ele>
        <time>2019-12-17T12:43:49.000Z</time>
      </trkpt>
      <trkpt lat="43.34423" lon="5.98247">
        <ele>483</ele>
        <time>2019-12-17T12:43:50.000Z</time>
      </trkpt>
      <trkpt lat="43.34423" lon="5.98246">
        <ele>483</ele>
        <time>2019-12-17T12:43:51.000Z</time>
      </trkpt>
      <trkpt lat="43.34423" lon="5.98245">
        <ele>483</ele>
        <time>2019-12-17T12:43:52.000Z</time>
      </trkpt>
      <trkpt lat="43.34422" lon="5.98244">
        <ele>483</ele>
        <time>2019-12-17T12:43:53.000Z</time>
      </trkpt>
      <trkpt lat="43.34422" lon="5.98243">
        <ele>483</ele>
        <time>2019-12-17T12:43:54.000Z</time>
      </trkpt>
      <trkpt lat="43.34422" lon="5.98242">
        <ele>483</ele>
        <time>2019-12-17T12:43:55.000Z</time>
      </trkpt>
      <trkpt lat="43.34422" lon="5.98241">
        <ele>483</ele>
        <time>2019-12-17T12:43:56.000Z</time>
      </trkpt>
      <trkpt lat="43.34422" lon="5.9824">
        <ele>483</ele>
        <time>2019-12-17T12:43:57.000Z</time>
      </trkpt>
      <trkpt lat="43.34421" lon="5.9824">
        <ele>483</ele>
        <time>2019-12-17T12:43:58.000Z</time>
      </trkpt>
      <trkpt lat="43.34421" lon="5.98239">
        <ele>482</ele>
        <time>2019-12-17T12:43:59.000Z</time>
      </trkpt>
      <trkpt lat="43.3442" lon="5.98239">
        <ele>482</ele>
        <time>2019-12-17T12:44:00.000Z</time>
      </trkpt>
      <trkpt lat="43.3442" lon="5.98238">
        <ele>482</ele>
        <time>2019-12-17T12:44:01.000Z</time>
      </trkpt>
      <trkpt lat="43.34421" lon="5.98238">
        <ele>482</ele>
        <time>2019-12-17T12:44:02.000Z</time>
      </trkpt>
      <trkpt lat="43.34421" lon="5.98238">
        <ele>482</ele>
        <time>2019-12-17T12:44:03.000Z</time>
      </trkpt>
      <trkpt lat="43.34421" lon="5.98238">
        <ele>482</ele>
        <time>2019-12-17T12:44:04.000Z</time>
      </trkpt>
      <trkpt lat="43.34421" lon="5.98238">
        <ele>482</ele>
        <time>2019-12-17T12:44:05.000Z</time>
      </trkpt>
      <trkpt lat="43.34421" lon="5.98238">
        <ele>482</ele>
        <time>2019-12-17T12:44:06.000Z</time>
      </trkpt>
      <trkpt lat="43.34422" lon="5.98238">
        <ele>481</ele>
        <time>2019-12-17T12:44:07.000Z</time>
      </trkpt>
      <trkpt lat="43.34422" lon="5.98238">
        <ele>481</ele>
        <time>2019-12-17T12:44:08.000Z</time>
      </trkpt>
      <trkpt lat="43.34422" lon="5.98238">
        <ele>481</ele>
        <time>2019-12-17T12:44:09.000Z</time>
      </trkpt>
      <trkpt lat="43.34422" lon="5.98237">
        <ele>481</ele>
        <time>2019-12-17T12:44:10.000Z</time>
      </trkpt>
      <trkpt lat="43.34423" lon="5.98236">
        <ele>481</ele>
        <time>2019-12-17T12:44:11.000Z</time>
      </trkpt>
      <trkpt lat="43.34423" lon="5.98236">
        <ele>481</ele>
        <time>2019-12-17T12:44:12.000Z</time>
      </trkpt>
      <trkpt lat="43.34423" lon="5.98235">
        <ele>481</ele>
        <time>2019-12-17T12:44:13.000Z</time>
      </trkpt>
      <trkpt lat="43.34424" lon="5.98234">
        <ele>481</ele>
        <time>2019-12-17T12:44:14.000Z</time>
      </trkpt>
      <trkpt lat="43.34424" lon="5.98233">
        <ele>481</ele>
        <time>2019-12-17T12:44:15.000Z</time>
      </trkpt>
      <trkpt lat="43.34424" lon="5.98233">
        <ele>481</ele>
        <time>2019-12-17T12:44:16.000Z</time>
      </trkpt>
      <trkpt lat="43.34425" lon="5.98233">
        <ele>481</ele>
        <time>2019-12-17T12:44:17.000Z</time>
      </trkpt>
      <trkpt lat="43.34425" lon="5.98233">
        <ele>481</ele>
        <time>2019-12-17T12:44:18.000Z</time>
      </trkpt>
      <trkpt lat="43.34425" lon="5.98233">
        <ele>480</ele>
        <time>2019-12-17T12:44:19.000Z</time>
      </trkpt>
      <trkpt lat="43.34425" lon="5.98233">
        <ele>480</ele>
        <time>2019-12-17T12:44:20.000Z</time>
      </trkpt>
      <trkpt lat="43.34425" lon="5.98233">
        <ele>480</ele>
        <time>2019-12-17T12:44:21.000Z</time>
      </trkpt>
      <trkpt lat="43.34426" lon="5.98233">
        <ele>480</ele>
        <time>2019-12-17T12:44:22.000Z</time>
      </trkpt>
      <trkpt lat="43.34426" lon="5.98233">
        <ele>480</ele>
        <time>2019-12-17T12:44:23.000Z</time>
      </trkpt>
      <trkpt lat="43.34426" lon="5.98234">
        <ele>480</ele>
        <time>2019-12-17T12:44:24.000Z</time>
      </trkpt>
      <trkpt lat="43.34426" lon="5.98234">
        <ele>479</ele>
        <time>2019-12-17T12:44:25.000Z</time>
      </trkpt>
      <trkpt lat="43.34426" lon="5.98234">
        <ele>479</ele>
        <time>2019-12-17T12:44:26.000Z</time>
      </trkpt>
      <trkpt lat="43.34426" lon="5.98234">
        <ele>479</ele>
        <time>2019-12-17T12:44:27.000Z</time>
      </trkpt>
      <trkpt lat="43.34427" lon="5.98234">
        <ele>479</ele>
        <time>2019-12-17T12:44:28.000Z</time>
      </trkpt>
      <trkpt lat="43.34427" lon="5.98234">
        <ele>479</ele>
        <time>2019-12-17T12:44:29.000Z</time>
      </trkpt>
      <trkpt lat="43.34427" lon="5.98234">
        <ele>479</ele>
        <time>2019-12-17T12:44:30.000Z</time>
      </trkpt>
      <trkpt lat="43.34428" lon="5.98235">
        <ele>478</ele>
        <time>2019-12-17T12:44:31.000Z</time>
      </trkpt>
      <trkpt lat="43.34428" lon="5.98235">
        <ele>478</ele>
        <time>2019-12-17T12:44:32.000Z</time>
      </trkpt>
      <trkpt lat="43.34429" lon="5.98236">
        <ele>478</ele>
        <time>2019-12-17T12:44:33.000Z</time>
      </trkpt>
      <trkpt lat="43.34429" lon="5.98236">
        <ele>478</ele>
        <time>2019-12-17T12:44:34.000Z</time>
      </trkpt>
      <trkpt lat="43.34429" lon="5.98236">
        <ele>478</ele>
        <time>2019-12-17T12:44:35.000Z</time>
      </trkpt>
      <trkpt lat="43.34429" lon="5.98236">
        <ele>478</ele>
        <time>2019-12-17T12:44:36.000Z</time>
      </trkpt>
      <trkpt lat="43.34429" lon="5.98236">
        <ele>478</ele>
        <time>2019-12-17T12:44:37.000Z</time>
      </trkpt>
      <trkpt lat="43.3443" lon="5.98236">
        <ele>478</ele>
        <time>2019-12-17T12:44:38.000Z</time>
      </trkpt>
      <trkpt lat="43.3443" lon="5.98236">
        <ele>477</ele>
        <time>2019-12-17T12:44:39.000Z</time>
      </trkpt>
      <trkpt lat="43.34431" lon="5.98236">
        <ele>477</ele>
        <time>2019-12-17T12:44:40.000Z</time>
      </trkpt>
      <trkpt lat="43.34431" lon="5.98236">
        <ele>477</ele>
        <time>2019-12-17T12:44:41.000Z</time>
      </trkpt>
      <trkpt lat="43.34431" lon="5.98236">
        <ele>477</ele>
        <time>2019-12-17T12:44:42.000Z</time>
      </trkpt>
      <trkpt lat="43.34432" lon="5.98236">
        <ele>477</ele>
        <time>2019-12-17T12:44:43.000Z</time>
      </trkpt>
      <trkpt lat="43.34432" lon="5.98236">
        <ele>477</ele>
        <time>2019-12-17T12:44:44.000Z</time>
      </trkpt>
      <trkpt lat="43.34432" lon="5.98236">
        <ele>477</ele>
        <time>2019-12-17T12:44:45.000Z</time>
      </trkpt>
      <trkpt lat="43.34432" lon="5.98235">
        <ele>476</ele>
        <time>2019-12-17T12:44:46.000Z</time>
      </trkpt>
      <trkpt lat="43.34432" lon="5.98235">
        <ele>476</ele>
        <time>2019-12-17T12:44:47.000Z</time>
      </trkpt>
      <trkpt lat="43.34432" lon="5.98235">
        <ele>476</ele>
        <time>2019-12-17T12:44:48.000Z</time>
      </trkpt>
      <trkpt lat="43.34432" lon="5.98235">
        <ele>476</ele>
        <time>2019-12-17T12:44:49.000Z</time>
      </trkpt>
      <trkpt lat="43.34432" lon="5.98235">
        <ele>476</ele>
        <time>2019-12-17T12:44:50.000Z</time>
      </trkpt>
      <trkpt lat="43.34432" lon="5.98235">
        <ele>476</ele>
        <time>2019-12-17T12:44:51.000Z</time>
      </trkpt>
      <trkpt lat="43.34432" lon="5.98235">
        <ele>476</ele>
        <time>2019-12-17T12:44:52.000Z</time>
      </trkpt>
      <trkpt lat="43.34432" lon="5.98234">
        <ele>476</ele>
        <time>2019-12-17T12:44:53.000Z</time>
      </trkpt>
      <trkpt lat="43.34432" lon="5.98234">
        <ele>476</ele>
        <time>2019-12-17T12:44:54.000Z</time>
      </trkpt>
      <trkpt lat="43.34432" lon="5.98234">
        <ele>476</ele>
        <time>2019-12-17T12:44:55.000Z</time>
      </trkpt>
      <trkpt lat="43.34432" lon="5.98234">
        <ele>476</ele>
        <time>2019-12-17T12:44:56.000Z</time>
      </trkpt>
      <trkpt lat="43.34433" lon="5.98234">
        <ele>476</ele>
        <time>2019-12-17T12:44:57.000Z</time>
      </trkpt>
      <trkpt lat="43.34433" lon="5.98234">
        <ele>476</ele>
        <time>2019-12-17T12:44:58.000Z</time>
      </trkpt>
      <trkpt lat="43.34432" lon="5.98233">
        <ele>476</ele>
        <time>2019-12-17T12:44:59.000Z</time>
      </trkpt>
      <trkpt lat="43.34432" lon="5.98233">
        <ele>476</ele>
        <time>2019-12-17T12:45:00.000Z</time>
      </trkpt>
      <trkpt lat="43.34432" lon="5.98233">
        <ele>476</ele>
        <time>2019-12-17T12:45:01.000Z</time>
      </trkpt>
      <trkpt lat="43.34432" lon="5.98233">
        <ele>476</ele>
        <time>2019-12-17T12:45:02.000Z</time>
      </trkpt>
      <trkpt lat="43.34432" lon="5.98233">
        <ele>476</ele>
        <time>2019-12-17T12:45:03.000Z</time>
      </trkpt>
      <trkpt lat="43.34432" lon="5.98233">
        <ele>476</ele>
        <time>2019-12-17T12:45:04.000Z</time>
      </trkpt>
      <trkpt lat="43.34432" lon="5.98233">
        <ele>476</ele>
        <time>2019-12-17T12:45:05.000Z</time>
      </trkpt>
      <trkpt lat="43.34432" lon="5.98233">
        <ele>475</ele>
        <time>2019-12-17T12:45:06.000Z</time>
      </trkpt>
      <trkpt lat="43.34432" lon="5.98232">
        <ele>475</ele>
        <time>2019-12-17T12:45:07.000Z</time>
      </trkpt>
      <trkpt lat="43.34432" lon="5.98232">
        <ele>475</ele>
        <time>2019-12-17T12:45:08.000Z</time>
      </trkpt>
      <trkpt lat="43.34432" lon="5.98233">
        <ele>475</ele>
        <time>2019-12-17T12:45:09.000Z</time>
      </trkpt>
      <trkpt lat="43.34432" lon="5.98233">
        <ele>475</ele>
        <time>2019-12-17T12:45:10.000Z</time>
      </trkpt>
      <trkpt lat="43.34432" lon="5.98234">
        <ele>475</ele>
        <time>2019-12-17T12:45:11.000Z</time>
      </trkpt>
      <trkpt lat="43.34432" lon="5.98234">
        <ele>475</ele>
        <time>2019-12-17T12:45:12.000Z</time>
      </trkpt>
      <trkpt lat="43.34431" lon="5.98235">
        <ele>475</ele>
        <time>2019-12-17T12:45:13.000Z</time>
      </trkpt>
      <trkpt lat="43.34431" lon="5.98235">
        <ele>475</ele>
        <time>2019-12-17T12:45:14.000Z</time>
      </trkpt>
      <trkpt lat="43.34431" lon="5.98235">
        <ele>474</ele>
        <time>2019-12-17T12:45:15.000Z</time>
      </trkpt>
      <trkpt lat="43.34431" lon="5.98235">
        <ele>474</ele>
        <time>2019-12-17T12:45:16.000Z</time>
      </trkpt>
      <trkpt lat="43.34431" lon="5.98235">
        <ele>474</ele>
        <time>2019-12-17T12:45:17.000Z</time>
      </trkpt>
      <trkpt lat="43.34431" lon="5.98235">
        <ele>474</ele>
        <time>2019-12-17T12:45:18.000Z</time>
      </trkpt>
      <trkpt lat="43.34431" lon="5.98235">
        <ele>474</ele>
        <time>2019-12-17T12:45:19.000Z</time>
      </trkpt>
      <trkpt lat="43.34431" lon="5.98236">
        <ele>474</ele>
        <time>2019-12-17T12:45:20.000Z</time>
      </trkpt>
      <trkpt lat="43.34431" lon="5.98236">
        <ele>474</ele>
        <time>2019-12-17T12:45:21.000Z</time>
      </trkpt>
      <trkpt lat="43.3443" lon="5.98237">
        <ele>474</ele>
        <time>2019-12-17T12:45:22.000Z</time>
      </trkpt>
      <trkpt lat="43.3443" lon="5.98237">
        <ele>473</ele>
        <time>2019-12-17T12:45:23.000Z</time>
      </trkpt>
      <trkpt lat="43.3443" lon="5.98238">
        <ele>473</ele>
        <time>2019-12-17T12:45:24.000Z</time>
      </trkpt>
      <trkpt lat="43.3443" lon="5.98238">
        <ele>473</ele>
        <time>2019-12-17T12:45:25.000Z</time>
      </trkpt>
      <trkpt lat="43.3443" lon="5.98238">
        <ele>473</ele>
        <time>2019-12-17T12:45:26.000Z</time>
      </trkpt>
      <trkpt lat="43.3443" lon="5.98239">
        <ele>473</ele>
        <time>2019-12-17T12:45:27.000Z</time>
      </trkpt>
      <trkpt lat="43.3443" lon="5.98239">
        <ele>473</ele>
        <time>2019-12-17T12:45:28.000Z</time>
      </trkpt>
      <trkpt lat="43.34431" lon="5.98239">
        <ele>474</ele>
        <time>2019-12-17T12:45:29.000Z</time>
      </trkpt>
      <trkpt lat="43.34431" lon="5.9824">
        <ele>474</ele>
        <time>2019-12-17T12:45:30.000Z</time>
      </trkpt>
      <trkpt lat="43.34432" lon="5.9824">
        <ele>474</ele>
        <time>2019-12-17T12:45:31.000Z</time>
      </trkpt>
      <trkpt lat="43.34432" lon="5.98241">
        <ele>474</ele>
        <time>2019-12-17T12:45:32.000Z</time>
      </trkpt>
      <trkpt lat="43.34432" lon="5.98241">
        <ele>474</ele>
        <time>2019-12-17T12:45:33.000Z</time>
      </trkpt>
      <trkpt lat="43.34432" lon="5.98242">
        <ele>475</ele>
        <time>2019-12-17T12:45:34.000Z</time>
      </trkpt>
      <trkpt lat="43.34432" lon="5.98242">
        <ele>475</ele>
        <time>2019-12-17T12:45:35.000Z</time>
      </trkpt>
      <trkpt lat="43.34431" lon="5.98242">
        <ele>475</ele>
        <time>2019-12-17T12:45:36.000Z</time>
      </trkpt>
      <trkpt lat="43.34431" lon="5.98242">
        <ele>475</ele>
        <time>2019-12-17T12:45:37.000Z</time>
      </trkpt>
      <trkpt lat="43.34431" lon="5.98242">
        <ele>475</ele>
        <time>2019-12-17T12:45:38.000Z</time>
      </trkpt>
      <trkpt lat="43.34431" lon="5.98243">
        <ele>476</ele>
        <time>2019-12-17T12:45:39.000Z</time>
      </trkpt>
      <trkpt lat="43.34431" lon="5.98243">
        <ele>476</ele>
        <time>2019-12-17T12:45:40.000Z</time>
      </trkpt>
      <trkpt lat="43.34431" lon="5.98243">
        <ele>476</ele>
        <time>2019-12-17T12:45:41.000Z</time>
      </trkpt>
      <trkpt lat="43.34431" lon="5.98243">
        <ele>476</ele>
        <time>2019-12-17T12:45:42.000Z</time>
      </trkpt>
      <trkpt lat="43.34431" lon="5.98243">
        <ele>476</ele>
        <time>2019-12-17T12:45:43.000Z</time>
      </trkpt>
      <trkpt lat="43.34431" lon="5.98243">
        <ele>476</ele>
        <time>2019-12-17T12:45:44.000Z</time>
      </trkpt>
      <trkpt lat="43.34431" lon="5.98243">
        <ele>476</ele>
        <time>2019-12-17T12:45:45.000Z</time>
      </trkpt>
      <trkpt lat="43.34431" lon="5.98243">
        <ele>476</ele>
        <time>2019-12-17T12:45:46.000Z</time>
      </trkpt>
      <trkpt lat="43.34431" lon="5.98243">
        <ele>476</ele>
        <time>2019-12-17T12:45:47.000Z</time>
      </trkpt>
      <trkpt lat="43.34431" lon="5.98244">
        <ele>476</ele>
        <time>2019-12-17T12:45:48.000Z</time>
      </trkpt>
      <trkpt lat="43.34431" lon="5.98244">
        <ele>477</ele>
        <time>2019-12-17T12:45:49.000Z</time>
      </trkpt>
      <trkpt lat="43.34431" lon="5.98244">
        <ele>477</ele>
        <time>2019-12-17T12:45:50.000Z</time>
      </trkpt>
      <trkpt lat="43.34431" lon="5.98244">
        <ele>477</ele>
        <time>2019-12-17T12:45:51.000Z</time>
      </trkpt>
      <trkpt lat="43.34431" lon="5.98244">
        <ele>477</ele>
        <time>2019-12-17T12:45:52.000Z</time>
      </trkpt>
      <trkpt lat="43.34431" lon="5.98244">
        <ele>477</ele>
        <time>2019-12-17T12:45:53.000Z</time>
      </trkpt>
      <trkpt lat="43.34431" lon="5.98244">
        <ele>477</ele>
        <time>2019-12-17T12:45:54.000Z</time>
      </trkpt>
      <trkpt lat="43.34431" lon="5.98244">
        <ele>477</ele>
        <time>2019-12-17T12:45:55.000Z</time>
      </trkpt>
      <trkpt lat="43.34431" lon="5.98244">
        <ele>477</ele>
        <time>2019-12-17T12:45:56.000Z</time>
      </trkpt>
      <trkpt lat="43.34431" lon="5.98244">
        <ele>477</ele>
        <time>2019-12-17T12:45:57.000Z</time>
      </trkpt>
      <trkpt lat="43.34431" lon="5.98244">
        <ele>477</ele>
        <time>2019-12-17T12:45:58.000Z</time>
      </trkpt>
      <trkpt lat="43.34431" lon="5.98244">
        <ele>477</ele>
        <time>2019-12-17T12:45:59.000Z</time>
      </trkpt>
      <trkpt lat="43.34431" lon="5.98244">
        <ele>477</ele>
        <time>2019-12-17T12:46:00.000Z</time>
      </trkpt>
      <trkpt lat="43.34431" lon="5.98244">
        <ele>477</ele>
        <time>2019-12-17T12:46:01.000Z</time>
      </trkpt>
      <trkpt lat="43.34431" lon="5.98244">
        <ele>477</ele>
        <time>2019-12-17T12:46:02.000Z</time>
      </trkpt>
      <trkpt lat="43.3443" lon="5.98244">
        <ele>477</ele>
        <time>2019-12-17T12:46:03.000Z</time>
      </trkpt>
      <trkpt lat="43.3443" lon="5.98244">
        <ele>477</ele>
        <time>2019-12-17T12:46:04.000Z</time>
      </trkpt>
      <trkpt lat="43.3443" lon="5.98244">
        <ele>477</ele>
        <time>2019-12-17T12:46:05.000Z</time>
      </trkpt>
      <trkpt lat="43.3443" lon="5.98244">
        <ele>477</ele>
        <time>2019-12-17T12:46:06.000Z</time>
      </trkpt>
      <trkpt lat="43.3443" lon="5.98244">
        <ele>477</ele>
        <time>2019-12-17T12:46:07.000Z</time>
      </trkpt>
      <trkpt lat="43.3443" lon="5.98244">
        <ele>477</ele>
        <time>2019-12-17T12:46:08.000Z</time>
      </trkpt>
      <trkpt lat="43.3443" lon="5.98244">
        <ele>477</ele>
        <time>2019-12-17T12:46:09.000Z</time>
      </trkpt>
      <trkpt lat="43.3443" lon="5.98244">
        <ele>477</ele>
        <time>2019-12-17T12:46:10.000Z</time>
      </trkpt>
      <trkpt lat="43.3443" lon="5.98244">
        <ele>477</ele>
        <time>2019-12-17T12:46:11.000Z</time>
      </trkpt>
      <trkpt lat="43.3443" lon="5.98244">
        <ele>477</ele>
        <time>2019-12-17T12:46:12.000Z</time>
      </trkpt>
      <trkpt lat="43.3443" lon="5.98244">
        <ele>477</ele>
        <time>2019-12-17T12:46:13.000Z</time>
      </trkpt>
      <trkpt lat="43.3443" lon="5.98244">
        <ele>477</ele>
        <time>2019-12-17T12:46:14.000Z</time>
      </trkpt>
      <trkpt lat="43.3443" lon="5.98244">
        <ele>477</ele>
        <time>2019-12-17T12:46:15.000Z</time>
      </trkpt>
      <trkpt lat="43.3443" lon="5.98244">
        <ele>477</ele>
        <time>2019-12-17T12:46:16.000Z</time>
      </trkpt>
      <trkpt lat="43.3443" lon="5.98244">
        <ele>477</ele>
        <time>2019-12-17T12:46:17.000Z</time>
      </trkpt>
      <trkpt lat="43.3443" lon="5.98244">
        <ele>477</ele>
        <time>2019-12-17T12:46:18.000Z</time>
      </trkpt>
      <trkpt lat="43.3443" lon="5.98244">
        <ele>477</ele>
        <time>2019-12-17T12:46:19.000Z</time>
      </trkpt>
      <trkpt lat="43.3443" lon="5.98244">
        <ele>477</ele>
        <time>2019-12-17T12:46:20.000Z</time>
      </trkpt>
      <trkpt lat="43.3443" lon="5.98244">
        <ele>477</ele>
        <time>2019-12-17T12:46:21.000Z</time>
      </trkpt>
      <trkpt lat="43.3443" lon="5.98244">
        <ele>477</ele>
        <time>2019-12-17T12:46:22.000Z</time>
      </trkpt>
      <trkpt lat="43.3443" lon="5.98244">
        <ele>477</ele>
        <time>2019-12-17T12:46:23.000Z</time>
      </trkpt>
      <trkpt lat="43.3443" lon="5.98244">
        <ele>477</ele>
        <time>2019-12-17T12:46:24.000Z</time>
      </trkpt>
      <trkpt lat="43.3443" lon="5.98244">
        <ele>477</ele>
        <time>2019-12-17T12:46:25.000Z</time>
      </trkpt>
      <trkpt lat="43.3443" lon="5.98244">
        <ele>477</ele>
        <time>2019-12-17T12:46:26.000Z</time>
      </trkpt>
      <trkpt lat="43.3443" lon="5.98244">
        <ele>477</ele>
        <time>2019-12-17T12:46:27.000Z</time>
      </trkpt>
      <trkpt lat="43.3443" lon="5.98244">
        <ele>477</ele>
        <time>2019-12-17T12:46:28.000Z</time>
      </trkpt>
      <trkpt lat="43.3443" lon="5.98244">
        <ele>477</ele>
        <time>2019-12-17T12:46:29.000Z</time>
      </trkpt>
      <trkpt lat="43.3443" lon="5.98244">
        <ele>477</ele>
        <time>2019-12-17T12:46:30.000Z</time>
      </trkpt>
      <trkpt lat="43.3443" lon="5.98244">
        <ele>478</ele>
        <time>2019-12-17T12:46:31.000Z</time>
      </trkpt>
      <trkpt lat="43.3443" lon="5.98244">
        <ele>478</ele>
        <time>2019-12-17T12:46:32.000Z</time>
      </trkpt>
      <trkpt lat="43.3443" lon="5.98244">
        <ele>478</ele>
        <time>2019-12-17T12:46:33.000Z</time>
      </trkpt>
      <trkpt lat="43.3443" lon="5.98244">
        <ele>478</ele>
        <time>2019-12-17T12:46:34.000Z</time>
      </trkpt>
      <trkpt lat="43.3443" lon="5.98244">
        <ele>478</ele>
        <time>2019-12-17T12:46:35.000Z</time>
      </trkpt>
      <trkpt lat="43.3443" lon="5.98244">
        <ele>478</ele>
        <time>2019-12-17T12:46:36.000Z</time>
      </trkpt>
      <trkpt lat="43.3443" lon="5.98244">
        <ele>478</ele>
        <time>2019-12-17T12:46:37.000Z</time>
      </trkpt>
      <trkpt lat="43.3443" lon="5.98244">
        <ele>478</ele>
        <time>2019-12-17T12:46:38.000Z</time>
      </trkpt>
      <trkpt lat="43.3443" lon="5.98244">
        <ele>478</ele>
        <time>2019-12-17T12:46:39.000Z</time>
      </trkpt>
      <trkpt lat="43.3443" lon="5.98244">
        <ele>478</ele>
        <time>2019-12-17T12:46:40.000Z</time>
      </trkpt>
      <trkpt lat="43.3443" lon="5.98244">
        <ele>478</ele>
        <time>2019-12-17T12:46:41.000Z</time>
      </trkpt>
      <trkpt lat="43.3443" lon="5.98244">
        <ele>478</ele>
        <time>2019-12-17T12:46:42.000Z</time>
      </trkpt>
      <trkpt lat="43.3443" lon="5.98244">
        <ele>478</ele>
        <time>2019-12-17T12:46:43.000Z</time>
      </trkpt>
      <trkpt lat="43.3443" lon="5.98244">
        <ele>478</ele>
        <time>2019-12-17T12:46:44.000Z</time>
      </trkpt>
      <trkpt lat="43.3443" lon="5.98244">
        <ele>478</ele>
        <time>2019-12-17T12:46:45.000Z</time>
      </trkpt>
      <trkpt lat="43.3443" lon="5.98244">
        <ele>478</ele>
        <time>2019-12-17T12:46:46.000Z</time>
      </trkpt>
      <trkpt lat="43.3443" lon="5.98244">
        <ele>478</ele>
        <time>2019-12-17T12:46:47.000Z</time>
      </trkpt>
      <trkpt lat="43.3443" lon="5.98244">
        <ele>478</ele>
        <time>2019-12-17T12:46:48.000Z</time>
      </trkpt>
      <trkpt lat="43.3443" lon="5.98244">
        <ele>478</ele>
        <time>2019-12-17T12:46:49.000Z</time>
      </trkpt>
      <trkpt lat="43.3443" lon="5.98244">
        <ele>478</ele>
        <time>2019-12-17T12:46:50.000Z</time>
      </trkpt>
      <trkpt lat="43.3443" lon="5.98244">
        <ele>478</ele>
        <time>2019-12-17T12:46:51.000Z</time>
      </trkpt>
      <trkpt lat="43.3443" lon="5.98244">
        <ele>478</ele>
        <time>2019-12-17T12:46:52.000Z</time>
      </trkpt>
      <trkpt lat="43.3443" lon="5.98244">
        <ele>478</ele>
        <time>2019-12-17T12:46:53.000Z</time>
      </trkpt>
      <trkpt lat="43.3443" lon="5.98244">
        <ele>478</ele>
        <time>2019-12-17T12:46:54.000Z</time>
      </trkpt>
      <trkpt lat="43.3443" lon="5.98244">
        <ele>478</ele>
        <time>2019-12-17T12:46:55.000Z</time>
      </trkpt>
      <trkpt lat="43.3443" lon="5.98244">
        <ele>478</ele>
        <time>2019-12-17T12:46:56.000Z</time>
      </trkpt>
      <trkpt lat="43.3443" lon="5.98244">
        <ele>478</ele>
        <time>2019-12-17T12:46:57.000Z</time>
      </trkpt>
      <trkpt lat="43.3443" lon="5.98244">
        <ele>478</ele>
        <time>2019-12-17T12:46:58.000Z</time>
      </trkpt>
      <trkpt lat="43.3443" lon="5.98244">
        <ele>478</ele>
        <time>2019-12-17T12:46:59.000Z</time>
      </trkpt>
      <trkpt lat="43.3443" lon="5.98245">
        <ele>478</ele>
        <time>2019-12-17T12:47:00.000Z</time>
      </trkpt>
      <trkpt lat="43.3443" lon="5.98245">
        <ele>478</ele>
        <time>2019-12-17T12:47:01.000Z</time>
      </trkpt>
      <trkpt lat="43.3443" lon="5.98245">
        <ele>478</ele>
        <time>2019-12-17T12:47:02.000Z</time>
      </trkpt>
      <trkpt lat="43.3443" lon="5.98245">
        <ele>478</ele>
        <time>2019-12-17T12:47:03.000Z</time>
      </trkpt>
      <trkpt lat="43.3443" lon="5.98245">
        <ele>478</ele>
        <time>2019-12-17T12:47:04.000Z</time>
      </trkpt>
      <trkpt lat="43.3443" lon="5.98245">
        <ele>478</ele>
        <time>2019-12-17T12:47:05.000Z</time>
      </trkpt>
      <trkpt lat="43.3443" lon="5.98245">
        <ele>478</ele>
        <time>2019-12-17T12:47:06.000Z</time>
      </trkpt>
      <trkpt lat="43.3443" lon="5.98245">
        <ele>478</ele>
        <time>2019-12-17T12:47:07.000Z</time>
      </trkpt>
      <trkpt lat="43.3443" lon="5.98245">
        <ele>478</ele>
        <time>2019-12-17T12:47:08.000Z</time>
      </trkpt>
      <trkpt lat="43.3443" lon="5.98245">
        <ele>478</ele>
        <time>2019-12-17T12:47:09.000Z</time>
      </trkpt>
      <trkpt lat="43.3443" lon="5.98245">
        <ele>478</ele>
        <time>2019-12-17T12:47:10.000Z</time>
      </trkpt>
      <trkpt lat="43.3443" lon="5.98245">
        <ele>478</ele>
        <time>2019-12-17T12:47:11.000Z</time>
      </trkpt>
      <trkpt lat="43.3443" lon="5.98246">
        <ele>478</ele>
        <time>2019-12-17T12:47:12.000Z</time>
      </trkpt>
      <trkpt lat="43.3443" lon="5.98246">
        <ele>478</ele>
        <time>2019-12-17T12:47:13.000Z</time>
      </trkpt>
      <trkpt lat="43.3443" lon="5.98246">
        <ele>478</ele>
        <time>2019-12-17T12:47:14.000Z</time>
      </trkpt>
      <trkpt lat="43.3443" lon="5.98246">
        <ele>478</ele>
        <time>2019-12-17T12:47:15.000Z</time>
      </trkpt>
      <trkpt lat="43.3443" lon="5.98245">
        <ele>478</ele>
        <time>2019-12-17T12:47:16.000Z</time>
      </trkpt>
      <trkpt lat="43.3443" lon="5.98245">
        <ele>478</ele>
        <time>2019-12-17T12:47:17.000Z</time>
      </trkpt>
      <trkpt lat="43.3443" lon="5.98245">
        <ele>478</ele>
        <time>2019-12-17T12:47:18.000Z</time>
      </trkpt>
      <trkpt lat="43.3443" lon="5.98245">
        <ele>478</ele>
        <time>2019-12-17T12:47:19.000Z</time>
      </trkpt>
      <trkpt lat="43.3443" lon="5.98244">
        <ele>479</ele>
        <time>2019-12-17T12:47:20.000Z</time>
      </trkpt>
      <trkpt lat="43.3443" lon="5.98244">
        <ele>479</ele>
        <time>2019-12-17T12:47:21.000Z</time>
      </trkpt>
      <trkpt lat="43.3443" lon="5.98243">
        <ele>479</ele>
        <time>2019-12-17T12:47:22.000Z</time>
      </trkpt>
      <trkpt lat="43.3443" lon="5.98243">
        <ele>479</ele>
        <time>2019-12-17T12:47:23.000Z</time>
      </trkpt>
      <trkpt lat="43.34431" lon="5.98243">
        <ele>479</ele>
        <time>2019-12-17T12:47:24.000Z</time>
      </trkpt>
      <trkpt lat="43.34431" lon="5.98243">
        <ele>479</ele>
        <time>2019-12-17T12:47:25.000Z</time>
      </trkpt>
      <trkpt lat="43.34431" lon="5.98243">
        <ele>479</ele>
        <time>2019-12-17T12:47:26.000Z</time>
      </trkpt>
      <trkpt lat="43.34432" lon="5.98243">
        <ele>479</ele>
        <time>2019-12-17T12:47:27.000Z</time>
      </trkpt>
      <trkpt lat="43.34432" lon="5.98243">
        <ele>479</ele>
        <time>2019-12-17T12:47:28.000Z</time>
      </trkpt>
      <trkpt lat="43.34432" lon="5.98243">
        <ele>479</ele>
        <time>2019-12-17T12:47:29.000Z</time>
      </trkpt>
      <trkpt lat="43.34432" lon="5.98243">
        <ele>479</ele>
        <time>2019-12-17T12:47:30.000Z</time>
      </trkpt>
      <trkpt lat="43.34432" lon="5.98243">
        <ele>479</ele>
        <time>2019-12-17T12:47:31.000Z</time>
      </trkpt>
      <trkpt lat="43.34432" lon="5.98243">
        <ele>479</ele>
        <time>2019-12-17T12:47:32.000Z</time>
      </trkpt>
      <trkpt lat="43.34432" lon="5.98242">
        <ele>480</ele>
        <time>2019-12-17T12:47:33.000Z</time>
      </trkpt>
      <trkpt lat="43.34432" lon="5.98242">
        <ele>480</ele>
        <time>2019-12-17T12:47:34.000Z</time>
      </trkpt>
      <trkpt lat="43.34432" lon="5.98242">
        <ele>480</ele>
        <time>2019-12-17T12:47:35.000Z</time>
      </trkpt>
      <trkpt lat="43.34432" lon="5.98242">
        <ele>480</ele>
        <time>2019-12-17T12:47:36.000Z</time>
      </trkpt>
      <trkpt lat="43.34432" lon="5.98242">
        <ele>480</ele>
        <time>2019-12-17T12:47:37.000Z</time>
      </trkpt>
      <trkpt lat="43.34432" lon="5.98242">
        <ele>480</ele>
        <time>2019-12-17T12:47:38.000Z</time>
      </trkpt>
      <trkpt lat="43.34432" lon="5.98242">
        <ele>480</ele>
        <time>2019-12-17T12:47:39.000Z</time>
      </trkpt>
      <trkpt lat="43.34432" lon="5.98242">
        <ele>480</ele>
        <time>2019-12-17T12:47:40.000Z</time>
      </trkpt>
      <trkpt lat="43.34432" lon="5.98242">
        <ele>480</ele>
        <time>2019-12-17T12:47:41.000Z</time>
      </trkpt>
      <trkpt lat="43.34432" lon="5.98243">
        <ele>480</ele>
        <time>2019-12-17T12:47:42.000Z</time>
      </trkpt>
      <trkpt lat="43.34432" lon="5.98243">
        <ele>480</ele>
        <time>2019-12-17T12:47:43.000Z</time>
      </trkpt>
      <trkpt lat="43.34432" lon="5.98243">
        <ele>479</ele>
        <time>2019-12-17T12:47:44.000Z</time>
      </trkpt>
      <trkpt lat="43.34431" lon="5.98242">
        <ele>479</ele>
        <time>2019-12-17T12:47:45.000Z</time>
      </trkpt>
      <trkpt lat="43.34431" lon="5.98243">
        <ele>479</ele>
        <time>2019-12-17T12:47:46.000Z</time>
      </trkpt>
      <trkpt lat="43.34431" lon="5.98242">
        <ele>479</ele>
        <time>2019-12-17T12:47:47.000Z</time>
      </trkpt>
      <trkpt lat="43.34431" lon="5.98242">
        <ele>479</ele>
        <time>2019-12-17T12:47:48.000Z</time>
      </trkpt>
      <trkpt lat="43.34431" lon="5.98242">
        <ele>479</ele>
        <time>2019-12-17T12:47:49.000Z</time>
      </trkpt>
      <trkpt lat="43.34432" lon="5.98242">
        <ele>479</ele>
        <time>2019-12-17T12:47:50.000Z</time>
      </trkpt>
      <trkpt lat="43.34432" lon="5.98242">
        <ele>480</ele>
        <time>2019-12-17T12:47:51.000Z</time>
      </trkpt>
      <trkpt lat="43.34432" lon="5.98243">
        <ele>480</ele>
        <time>2019-12-17T12:47:52.000Z</time>
      </trkpt>
      <trkpt lat="43.34432" lon="5.98242">
        <ele>480</ele>
        <time>2019-12-17T12:47:53.000Z</time>
      </trkpt>
      <trkpt lat="43.34432" lon="5.98242">
        <ele>480</ele>
        <time>2019-12-17T12:47:54.000Z</time>
      </trkpt>
      <trkpt lat="43.34432" lon="5.98242">
        <ele>480</ele>
        <time>2019-12-17T12:47:55.000Z</time>
      </trkpt>
      <trkpt lat="43.34432" lon="5.98242">
        <ele>480</ele>
        <time>2019-12-17T12:47:56.000Z</time>
      </trkpt>
      <trkpt lat="43.34432" lon="5.98242">
        <ele>480</ele>
        <time>2019-12-17T12:47:57.000Z</time>
      </trkpt>
      <trkpt lat="43.34432" lon="5.98242">
        <ele>480</ele>
        <time>2019-12-17T12:47:58.000Z</time>
      </trkpt>
      <trkpt lat="43.34433" lon="5.98242">
        <ele>480</ele>
        <time>2019-12-17T12:47:59.000Z</time>
      </trkpt>
      <trkpt lat="43.34433" lon="5.98242">
        <ele>480</ele>
        <time>2019-12-17T12:48:00.000Z</time>
      </trkpt>
      <trkpt lat="43.34433" lon="5.98242">
        <ele>480</ele>
        <time>2019-12-17T12:48:01.000Z</time>
      </trkpt>
      <trkpt lat="43.34433" lon="5.98242">
        <ele>480</ele>
        <time>2019-12-17T12:48:02.000Z</time>
      </trkpt>
      <trkpt lat="43.34434" lon="5.98242">
        <ele>480</ele>
        <time>2019-12-17T12:48:03.000Z</time>
      </trkpt>
      <trkpt lat="43.34434" lon="5.98241">
        <ele>481</ele>
        <time>2019-12-17T12:48:04.000Z</time>
      </trkpt>
      <trkpt lat="43.34434" lon="5.98242">
        <ele>481</ele>
        <time>2019-12-17T12:48:05.000Z</time>
      </trkpt>
      <trkpt lat="43.34434" lon="5.98242">
        <ele>481</ele>
        <time>2019-12-17T12:48:06.000Z</time>
      </trkpt>
      <trkpt lat="43.34434" lon="5.98242">
        <ele>481</ele>
        <time>2019-12-17T12:48:07.000Z</time>
      </trkpt>
      <trkpt lat="43.34434" lon="5.98242">
        <ele>481</ele>
        <time>2019-12-17T12:48:08.000Z</time>
      </trkpt>
      <trkpt lat="43.34435" lon="5.98241">
        <ele>481</ele>
        <time>2019-12-17T12:48:09.000Z</time>
      </trkpt>
      <trkpt lat="43.34435" lon="5.98241">
        <ele>481</ele>
        <time>2019-12-17T12:48:10.000Z</time>
      </trkpt>
      <trkpt lat="43.34435" lon="5.98241">
        <ele>482</ele>
        <time>2019-12-17T12:48:11.000Z</time>
      </trkpt>
      <trkpt lat="43.34435" lon="5.98241">
        <ele>482</ele>
        <time>2019-12-17T12:48:12.000Z</time>
      </trkpt>
      <trkpt lat="43.34435" lon="5.98241">
        <ele>482</ele>
        <time>2019-12-17T12:48:13.000Z</time>
      </trkpt>
      <trkpt lat="43.34435" lon="5.98241">
        <ele>482</ele>
        <time>2019-12-17T12:48:14.000Z</time>
      </trkpt>
      <trkpt lat="43.34436" lon="5.98241">
        <ele>482</ele>
        <time>2019-12-17T12:48:15.000Z</time>
      </trkpt>
      <trkpt lat="43.34436" lon="5.98241">
        <ele>482</ele>
        <time>2019-12-17T12:48:16.000Z</time>
      </trkpt>
      <trkpt lat="43.34436" lon="5.98241">
        <ele>482</ele>
        <time>2019-12-17T12:48:17.000Z</time>
      </trkpt>
      <trkpt lat="43.34436" lon="5.98241">
        <ele>482</ele>
        <time>2019-12-17T12:48:18.000Z</time>
      </trkpt>
      <trkpt lat="43.34437" lon="5.98241">
        <ele>482</ele>
        <time>2019-12-17T12:48:19.000Z</time>
      </trkpt>
      <trkpt lat="43.34437" lon="5.98242">
        <ele>482</ele>
        <time>2019-12-17T12:48:20.000Z</time>
      </trkpt>
      <trkpt lat="43.34437" lon="5.98242">
        <ele>483</ele>
        <time>2019-12-17T12:48:21.000Z</time>
      </trkpt>
      <trkpt lat="43.34437" lon="5.98242">
        <ele>483</ele>
        <time>2019-12-17T12:48:22.000Z</time>
      </trkpt>
      <trkpt lat="43.34437" lon="5.98241">
        <ele>483</ele>
        <time>2019-12-17T12:48:23.000Z</time>
      </trkpt>
      <trkpt lat="43.34437" lon="5.98242">
        <ele>483</ele>
        <time>2019-12-17T12:48:24.000Z</time>
      </trkpt>
      <trkpt lat="43.34437" lon="5.98242">
        <ele>483</ele>
        <time>2019-12-17T12:48:25.000Z</time>
      </trkpt>
      <trkpt lat="43.34437" lon="5.98242">
        <ele>483</ele>
        <time>2019-12-17T12:48:26.000Z</time>
      </trkpt>
      <trkpt lat="43.34437" lon="5.98242">
        <ele>483</ele>
        <time>2019-12-17T12:48:27.000Z</time>
      </trkpt>
      <trkpt lat="43.34437" lon="5.98242">
        <ele>483</ele>
        <time>2019-12-17T12:48:28.000Z</time>
      </trkpt>
      <trkpt lat="43.34437" lon="5.98242">
        <ele>483</ele>
        <time>2019-12-17T12:48:29.000Z</time>
      </trkpt>
      <trkpt lat="43.34437" lon="5.98241">
        <ele>483</ele>
        <time>2019-12-17T12:48:30.000Z</time>
      </trkpt>
      <trkpt lat="43.34437" lon="5.98241">
        <ele>483</ele>
        <time>2019-12-17T12:48:31.000Z</time>
      </trkpt>
      <trkpt lat="43.34437" lon="5.98241">
        <ele>483</ele>
        <time>2019-12-17T12:48:32.000Z</time>
      </trkpt>
      <trkpt lat="43.34437" lon="5.98241">
        <ele>483</ele>
        <time>2019-12-17T12:48:33.000Z</time>
      </trkpt>
      <trkpt lat="43.34436" lon="5.98241">
        <ele>483</ele>
        <time>2019-12-17T12:48:34.000Z</time>
      </trkpt>
      <trkpt lat="43.34436" lon="5.98241">
        <ele>483</ele>
        <time>2019-12-17T12:48:35.000Z</time>
      </trkpt>
      <trkpt lat="43.34436" lon="5.98242">
        <ele>483</ele>
        <time>2019-12-17T12:48:36.000Z</time>
      </trkpt>
      <trkpt lat="43.34437" lon="5.98242">
        <ele>483</ele>
        <time>2019-12-17T12:48:37.000Z</time>
      </trkpt>
      <trkpt lat="43.34437" lon="5.98242">
        <ele>482</ele>
        <time>2019-12-17T12:48:38.000Z</time>
      </trkpt>
      <trkpt lat="43.34437" lon="5.98241">
        <ele>482</ele>
        <time>2019-12-17T12:48:39.000Z</time>
      </trkpt>
      <trkpt lat="43.34437" lon="5.98241">
        <ele>482</ele>
        <time>2019-12-17T12:48:40.000Z</time>
      </trkpt>
      <trkpt lat="43.34437" lon="5.98241">
        <ele>482</ele>
        <time>2019-12-17T12:48:41.000Z</time>
      </trkpt>
      <trkpt lat="43.34437" lon="5.9824">
        <ele>482</ele>
        <time>2019-12-17T12:48:42.000Z</time>
      </trkpt>
      <trkpt lat="43.34437" lon="5.9824">
        <ele>482</ele>
        <time>2019-12-17T12:48:43.000Z</time>
      </trkpt>
      <trkpt lat="43.34437" lon="5.9824">
        <ele>482</ele>
        <time>2019-12-17T12:48:44.000Z</time>
      </trkpt>
      <trkpt lat="43.34437" lon="5.9824">
        <ele>482</ele>
        <time>2019-12-17T12:48:45.000Z</time>
      </trkpt>
      <trkpt lat="43.34437" lon="5.9824">
        <ele>482</ele>
        <time>2019-12-17T12:48:46.000Z</time>
      </trkpt>
      <trkpt lat="43.34437" lon="5.9824">
        <ele>482</ele>
        <time>2019-12-17T12:48:47.000Z</time>
      </trkpt>
      <trkpt lat="43.34437" lon="5.9824">
        <ele>482</ele>
        <time>2019-12-17T12:48:48.000Z</time>
      </trkpt>
      <trkpt lat="43.34437" lon="5.9824">
        <ele>482</ele>
        <time>2019-12-17T12:48:49.000Z</time>
      </trkpt>
      <trkpt lat="43.34438" lon="5.9824">
        <ele>482</ele>
        <time>2019-12-17T12:48:50.000Z</time>
      </trkpt>
      <trkpt lat="43.34438" lon="5.9824">
        <ele>482</ele>
        <time>2019-12-17T12:48:51.000Z</time>
      </trkpt>
      <trkpt lat="43.34438" lon="5.9824">
        <ele>482</ele>
        <time>2019-12-17T12:48:52.000Z</time>
      </trkpt>
      <trkpt lat="43.34438" lon="5.9824">
        <ele>482</ele>
        <time>2019-12-17T12:48:53.000Z</time>
      </trkpt>
      <trkpt lat="43.34438" lon="5.9824">
        <ele>482</ele>
        <time>2019-12-17T12:48:54.000Z</time>
      </trkpt>
      <trkpt lat="43.34438" lon="5.9824">
        <ele>482</ele>
        <time>2019-12-17T12:48:55.000Z</time>
      </trkpt>
      <trkpt lat="43.34438" lon="5.9824">
        <ele>482</ele>
        <time>2019-12-17T12:48:56.000Z</time>
      </trkpt>
      <trkpt lat="43.34438" lon="5.9824">
        <ele>483</ele>
        <time>2019-12-17T12:48:57.000Z</time>
      </trkpt>
      <trkpt lat="43.34438" lon="5.9824">
        <ele>483</ele>
        <time>2019-12-17T12:48:58.000Z</time>
      </trkpt>
      <trkpt lat="43.34438" lon="5.9824">
        <ele>483</ele>
        <time>2019-12-17T12:48:59.000Z</time>
      </trkpt>
      <trkpt lat="43.34438" lon="5.9824">
        <ele>483</ele>
        <time>2019-12-17T12:49:00.000Z</time>
      </trkpt>
      <trkpt lat="43.34438" lon="5.9824">
        <ele>483</ele>
        <time>2019-12-17T12:49:01.000Z</time>
      </trkpt>
      <trkpt lat="43.34438" lon="5.9824">
        <ele>483</ele>
        <time>2019-12-17T12:49:02.000Z</time>
      </trkpt>
      <trkpt lat="43.34438" lon="5.9824">
        <ele>483</ele>
        <time>2019-12-17T12:49:03.000Z</time>
      </trkpt>
      <trkpt lat="43.34438" lon="5.9824">
        <ele>483</ele>
        <time>2019-12-17T12:49:04.000Z</time>
      </trkpt>
      <trkpt lat="43.34438" lon="5.9824">
        <ele>483</ele>
        <time>2019-12-17T12:49:05.000Z</time>
      </trkpt>
      <trkpt lat="43.34438" lon="5.9824">
        <ele>483</ele>
        <time>2019-12-17T12:49:06.000Z</time>
      </trkpt>
      <trkpt lat="43.34438" lon="5.9824">
        <ele>483</ele>
        <time>2019-12-17T12:49:07.000Z</time>
      </trkpt>
      <trkpt lat="43.34438" lon="5.9824">
        <ele>484</ele>
        <time>2019-12-17T12:49:08.000Z</time>
      </trkpt>
      <trkpt lat="43.34438" lon="5.98241">
        <ele>484</ele>
        <time>2019-12-17T12:49:09.000Z</time>
      </trkpt>
      <trkpt lat="43.34438" lon="5.98241">
        <ele>484</ele>
        <time>2019-12-17T12:49:10.000Z</time>
      </trkpt>
      <trkpt lat="43.34437" lon="5.98241">
        <ele>484</ele>
        <time>2019-12-17T12:49:11.000Z</time>
      </trkpt>
      <trkpt lat="43.34437" lon="5.98242">
        <ele>484</ele>
        <time>2019-12-17T12:49:12.000Z</time>
      </trkpt>
      <trkpt lat="43.34437" lon="5.98242">
        <ele>484</ele>
        <time>2019-12-17T12:49:13.000Z</time>
      </trkpt>
      <trkpt lat="43.34437" lon="5.98242">
        <ele>484</ele>
        <time>2019-12-17T12:49:14.000Z</time>
      </trkpt>
      <trkpt lat="43.34437" lon="5.98242">
        <ele>484</ele>
        <time>2019-12-17T12:49:15.000Z</time>
      </trkpt>
      <trkpt lat="43.34437" lon="5.98242">
        <ele>484</ele>
        <time>2019-12-17T12:49:16.000Z</time>
      </trkpt>
      <trkpt lat="43.34437" lon="5.98242">
        <ele>484</ele>
        <time>2019-12-17T12:49:17.000Z</time>
      </trkpt>
      <trkpt lat="43.34437" lon="5.98242">
        <ele>484</ele>
        <time>2019-12-17T12:49:18.000Z</time>
      </trkpt>
      <trkpt lat="43.34437" lon="5.98242">
        <ele>484</ele>
        <time>2019-12-17T12:49:19.000Z</time>
      </trkpt>
      <trkpt lat="43.34437" lon="5.98242">
        <ele>484</ele>
        <time>2019-12-17T12:49:20.000Z</time>
      </trkpt>
      <trkpt lat="43.34437" lon="5.98243">
        <ele>484</ele>
        <time>2019-12-17T12:49:21.000Z</time>
      </trkpt>
      <trkpt lat="43.34437" lon="5.98243">
        <ele>484</ele>
        <time>2019-12-17T12:49:22.000Z</time>
      </trkpt>
      <trkpt lat="43.34437" lon="5.98243">
        <ele>484</ele>
        <time>2019-12-17T12:49:23.000Z</time>
      </trkpt>
      <trkpt lat="43.34437" lon="5.98242">
        <ele>484</ele>
        <time>2019-12-17T12:49:24.000Z</time>
      </trkpt>
      <trkpt lat="43.34438" lon="5.98242">
        <ele>484</ele>
        <time>2019-12-17T12:49:25.000Z</time>
      </trkpt>
      <trkpt lat="43.34438" lon="5.98242">
        <ele>484</ele>
        <time>2019-12-17T12:49:26.000Z</time>
      </trkpt>
      <trkpt lat="43.34438" lon="5.98242">
        <ele>484</ele>
        <time>2019-12-17T12:49:27.000Z</time>
      </trkpt>
      <trkpt lat="43.34437" lon="5.98242">
        <ele>484</ele>
        <time>2019-12-17T12:49:28.000Z</time>
      </trkpt>
      <trkpt lat="43.34437" lon="5.98242">
        <ele>484</ele>
        <time>2019-12-17T12:49:29.000Z</time>
      </trkpt>
      <trkpt lat="43.34437" lon="5.98242">
        <ele>484</ele>
        <time>2019-12-17T12:49:30.000Z</time>
      </trkpt>
      <trkpt lat="43.34437" lon="5.98242">
        <ele>484</ele>
        <time>2019-12-17T12:49:31.000Z</time>
      </trkpt>
      <trkpt lat="43.34437" lon="5.98242">
        <ele>484</ele>
        <time>2019-12-17T12:49:32.000Z</time>
      </trkpt>
      <trkpt lat="43.34437" lon="5.98242">
        <ele>484</ele>
        <time>2019-12-17T12:49:33.000Z</time>
      </trkpt>
      <trkpt lat="43.34437" lon="5.98242">
        <ele>484</ele>
        <time>2019-12-17T12:49:34.000Z</time>
      </trkpt>
      <trkpt lat="43.34437" lon="5.98241">
        <ele>484</ele>
        <time>2019-12-17T12:49:35.000Z</time>
      </trkpt>
      <trkpt lat="43.34437" lon="5.98241">
        <ele>484</ele>
        <time>2019-12-17T12:49:36.000Z</time>
      </trkpt>
      <trkpt lat="43.34437" lon="5.98241">
        <ele>484</ele>
        <time>2019-12-17T12:49:37.000Z</time>
      </trkpt>
      <trkpt lat="43.34437" lon="5.98241">
        <ele>484</ele>
        <time>2019-12-17T12:49:38.000Z</time>
      </trkpt>
      <trkpt lat="43.34438" lon="5.98241">
        <ele>484</ele>
        <time>2019-12-17T12:49:39.000Z</time>
      </trkpt>
      <trkpt lat="43.34438" lon="5.98241">
        <ele>484</ele>
        <time>2019-12-17T12:49:40.000Z</time>
      </trkpt>
      <trkpt lat="43.34438" lon="5.98241">
        <ele>485</ele>
        <time>2019-12-17T12:49:41.000Z</time>
      </trkpt>
      <trkpt lat="43.34438" lon="5.98241">
        <ele>485</ele>
        <time>2019-12-17T12:49:42.000Z</time>
      </trkpt>
      <trkpt lat="43.34438" lon="5.98241">
        <ele>485</ele>
        <time>2019-12-17T12:49:43.000Z</time>
      </trkpt>
      <trkpt lat="43.34438" lon="5.98241">
        <ele>485</ele>
        <time>2019-12-17T12:49:44.000Z</time>
      </trkpt>
      <trkpt lat="43.34438" lon="5.98241">
        <ele>485</ele>
        <time>2019-12-17T12:49:45.000Z</time>
      </trkpt>
      <trkpt lat="43.34438" lon="5.98241">
        <ele>484</ele>
        <time>2019-12-17T12:49:46.000Z</time>
      </trkpt>
      <trkpt lat="43.34438" lon="5.98241">
        <ele>484</ele>
        <time>2019-12-17T12:49:47.000Z</time>
      </trkpt>
      <trkpt lat="43.34438" lon="5.98241">
        <ele>484</ele>
        <time>2019-12-17T12:49:48.000Z</time>
      </trkpt>
      <trkpt lat="43.34438" lon="5.98241">
        <ele>484</ele>
        <time>2019-12-17T12:49:49.000Z</time>
      </trkpt>
      <trkpt lat="43.34438" lon="5.98241">
        <ele>484</ele>
        <time>2019-12-17T12:49:50.000Z</time>
      </trkpt>
      <trkpt lat="43.34438" lon="5.98241">
        <ele>484</ele>
        <time>2019-12-17T12:49:51.000Z</time>
      </trkpt>
      <trkpt lat="43.34438" lon="5.98241">
        <ele>484</ele>
        <time>2019-12-17T12:49:52.000Z</time>
      </trkpt>
      <trkpt lat="43.34438" lon="5.98241">
        <ele>484</ele>
        <time>2019-12-17T12:49:53.000Z</time>
      </trkpt>
      <trkpt lat="43.34438" lon="5.98241">
        <ele>484</ele>
        <time>2019-12-17T12:49:54.000Z</time>
      </trkpt>
      <trkpt lat="43.34438" lon="5.98242">
        <ele>484</ele>
        <time>2019-12-17T12:49:55.000Z</time>
      </trkpt>
      <trkpt lat="43.34438" lon="5.98242">
        <ele>484</ele>
        <time>2019-12-17T12:49:56.000Z</time>
      </trkpt>
      <trkpt lat="43.34438" lon="5.98242">
        <ele>484</ele>
        <time>2019-12-17T12:49:57.000Z</time>
      </trkpt>
      <trkpt lat="43.34438" lon="5.98242">
        <ele>484</ele>
        <time>2019-12-17T12:49:58.000Z</time>
      </trkpt>
      <trkpt lat="43.34438" lon="5.98243">
        <ele>484</ele>
        <time>2019-12-17T12:49:59.000Z</time>
      </trkpt>
      <trkpt lat="43.34438" lon="5.98242">
        <ele>484</ele>
        <time>2019-12-17T12:50:00.000Z</time>
      </trkpt>
      <trkpt lat="43.34438" lon="5.98242">
        <ele>484</ele>
        <time>2019-12-17T12:50:01.000Z</time>
      </trkpt>
      <trkpt lat="43.34438" lon="5.98242">
        <ele>484</ele>
        <time>2019-12-17T12:50:02.000Z</time>
      </trkpt>
      <trkpt lat="43.34438" lon="5.98242">
        <ele>484</ele>
        <time>2019-12-17T12:50:03.000Z</time>
      </trkpt>
      <trkpt lat="43.34438" lon="5.98243">
        <ele>483</ele>
        <time>2019-12-17T12:50:04.000Z</time>
      </trkpt>
      <trkpt lat="43.34438" lon="5.98243">
        <ele>483</ele>
        <time>2019-12-17T12:50:05.000Z</time>
      </trkpt>
      <trkpt lat="43.34438" lon="5.98243">
        <ele>483</ele>
        <time>2019-12-17T12:50:06.000Z</time>
      </trkpt>
      <trkpt lat="43.34438" lon="5.98243">
        <ele>483</ele>
        <time>2019-12-17T12:50:07.000Z</time>
      </trkpt>
      <trkpt lat="43.34438" lon="5.98243">
        <ele>483</ele>
        <time>2019-12-17T12:50:08.000Z</time>
      </trkpt>
      <trkpt lat="43.34438" lon="5.98243">
        <ele>483</ele>
        <time>2019-12-17T12:50:09.000Z</time>
      </trkpt>
      <trkpt lat="43.34438" lon="5.98243">
        <ele>483</ele>
        <time>2019-12-17T12:50:10.000Z</time>
      </trkpt>
      <trkpt lat="43.34438" lon="5.98243">
        <ele>483</ele>
        <time>2019-12-17T12:50:11.000Z</time>
      </trkpt>
      <trkpt lat="43.34438" lon="5.98243">
        <ele>483</ele>
        <time>2019-12-17T12:50:12.000Z</time>
      </trkpt>
      <trkpt lat="43.34438" lon="5.98243">
        <ele>483</ele>
        <time>2019-12-17T12:50:13.000Z</time>
      </trkpt>
      <trkpt lat="43.34438" lon="5.98243">
        <ele>483</ele>
        <time>2019-12-17T12:50:14.000Z</time>
      </trkpt>
      <trkpt lat="43.34438" lon="5.98243">
        <ele>483</ele>
        <time>2019-12-17T12:50:15.000Z</time>
      </trkpt>
      <trkpt lat="43.34439" lon="5.98243">
        <ele>483</ele>
        <time>2019-12-17T12:50:16.000Z</time>
      </trkpt>
      <trkpt lat="43.34439" lon="5.98243">
        <ele>483</ele>
        <time>2019-12-17T12:50:17.000Z</time>
      </trkpt>
      <trkpt lat="43.34439" lon="5.98243">
        <ele>482</ele>
        <time>2019-12-17T12:50:18.000Z</time>
      </trkpt>
      <trkpt lat="43.34439" lon="5.98243">
        <ele>482</ele>
        <time>2019-12-17T12:50:19.000Z</time>
      </trkpt>
      <trkpt lat="43.34439" lon="5.98243">
        <ele>482</ele>
        <time>2019-12-17T12:50:20.000Z</time>
      </trkpt>
      <trkpt lat="43.34438" lon="5.98243">
        <ele>482</ele>
        <time>2019-12-17T12:50:21.000Z</time>
      </trkpt>
      <trkpt lat="43.34438" lon="5.98243">
        <ele>482</ele>
        <time>2019-12-17T12:50:22.000Z</time>
      </trkpt>
      <trkpt lat="43.34438" lon="5.98243">
        <ele>482</ele>
        <time>2019-12-17T12:50:23.000Z</time>
      </trkpt>
      <trkpt lat="43.34438" lon="5.98243">
        <ele>482</ele>
        <time>2019-12-17T12:50:24.000Z</time>
      </trkpt>
      <trkpt lat="43.34438" lon="5.98243">
        <ele>482</ele>
        <time>2019-12-17T12:50:25.000Z</time>
      </trkpt>
      <trkpt lat="43.34438" lon="5.98243">
        <ele>482</ele>
        <time>2019-12-17T12:50:26.000Z</time>
      </trkpt>
      <trkpt lat="43.34438" lon="5.98243">
        <ele>482</ele>
        <time>2019-12-17T12:50:27.000Z</time>
      </trkpt>
      <trkpt lat="43.34438" lon="5.98243">
        <ele>482</ele>
        <time>2019-12-17T12:50:28.000Z</time>
      </trkpt>
      <trkpt lat="43.34438" lon="5.98243">
        <ele>482</ele>
        <time>2019-12-17T12:50:29.000Z</time>
      </trkpt>
      <trkpt lat="43.34438" lon="5.98243">
        <ele>482</ele>
        <time>2019-12-17T12:50:30.000Z</time>
      </trkpt>
      <trkpt lat="43.34438" lon="5.98244">
        <ele>482</ele>
        <time>2019-12-17T12:50:31.000Z</time>
      </trkpt>
      <trkpt lat="43.34438" lon="5.98244">
        <ele>482</ele>
        <time>2019-12-17T12:50:32.000Z</time>
      </trkpt>
      <trkpt lat="43.34438" lon="5.98244">
        <ele>482</ele>
        <time>2019-12-17T12:50:33.000Z</time>
      </trkpt>
      <trkpt lat="43.34438" lon="5.98244">
        <ele>482</ele>
        <time>2019-12-17T12:50:34.000Z</time>
      </trkpt>
      <trkpt lat="43.34438" lon="5.98244">
        <ele>482</ele>
        <time>2019-12-17T12:50:35.000Z</time>
      </trkpt>
      <trkpt lat="43.34438" lon="5.98244">
        <ele>482</ele>
        <time>2019-12-17T12:50:36.000Z</time>
      </trkpt>
      <trkpt lat="43.34438" lon="5.98244">
        <ele>482</ele>
        <time>2019-12-17T12:50:37.000Z</time>
      </trkpt>
      <trkpt lat="43.34438" lon="5.98244">
        <ele>482</ele>
        <time>2019-12-17T12:50:38.000Z</time>
      </trkpt>
      <trkpt lat="43.34439" lon="5.98244">
        <ele>482</ele>
        <time>2019-12-17T12:50:39.000Z</time>
      </trkpt>
      <trkpt lat="43.34439" lon="5.98244">
        <ele>482</ele>
        <time>2019-12-17T12:50:40.000Z</time>
      </trkpt>
      <trkpt lat="43.34439" lon="5.98244">
        <ele>482</ele>
        <time>2019-12-17T12:50:41.000Z</time>
      </trkpt>
      <trkpt lat="43.34439" lon="5.98244">
        <ele>481</ele>
        <time>2019-12-17T12:50:42.000Z</time>
      </trkpt>
      <trkpt lat="43.34439" lon="5.98244">
        <ele>481</ele>
        <time>2019-12-17T12:50:43.000Z</time>
      </trkpt>
      <trkpt lat="43.34439" lon="5.98244">
        <ele>481</ele>
        <time>2019-12-17T12:50:44.000Z</time>
      </trkpt>
      <trkpt lat="43.34439" lon="5.98245">
        <ele>481</ele>
        <time>2019-12-17T12:50:45.000Z</time>
      </trkpt>
      <trkpt lat="43.34438" lon="5.98245">
        <ele>481</ele>
        <time>2019-12-17T12:50:46.000Z</time>
      </trkpt>
      <trkpt lat="43.34437" lon="5.98245">
        <ele>481</ele>
        <time>2019-12-17T12:50:47.000Z</time>
      </trkpt>
      <trkpt lat="43.34436" lon="5.98244">
        <ele>481</ele>
        <time>2019-12-17T12:50:48.000Z</time>
      </trkpt>
      <trkpt lat="43.34436" lon="5.98244">
        <ele>481</ele>
        <time>2019-12-17T12:50:49.000Z</time>
      </trkpt>
      <trkpt lat="43.34435" lon="5.98244">
        <ele>480</ele>
        <time>2019-12-17T12:50:50.000Z</time>
      </trkpt>
      <trkpt lat="43.34434" lon="5.98244">
        <ele>480</ele>
        <time>2019-12-17T12:50:51.000Z</time>
      </trkpt>
      <trkpt lat="43.34433" lon="5.98244">
        <ele>480</ele>
        <time>2019-12-17T12:50:52.000Z</time>
      </trkpt>
      <trkpt lat="43.34433" lon="5.98244">
        <ele>480</ele>
        <time>2019-12-17T12:50:53.000Z</time>
      </trkpt>
      <trkpt lat="43.34432" lon="5.98244">
        <ele>480</ele>
        <time>2019-12-17T12:50:54.000Z</time>
      </trkpt>
      <trkpt lat="43.34432" lon="5.98245">
        <ele>480</ele>
        <time>2019-12-17T12:50:55.000Z</time>
      </trkpt>
      <trkpt lat="43.34432" lon="5.98246">
        <ele>479</ele>
        <time>2019-12-17T12:50:56.000Z</time>
      </trkpt>
      <trkpt lat="43.34431" lon="5.98247">
        <ele>479</ele>
        <time>2019-12-17T12:50:57.000Z</time>
      </trkpt>
      <trkpt lat="43.3443" lon="5.98248">
        <ele>479</ele>
        <time>2019-12-17T12:50:58.000Z</time>
      </trkpt>
      <trkpt lat="43.3443" lon="5.9825">
        <ele>479</ele>
        <time>2019-12-17T12:50:59.000Z</time>
      </trkpt>
      <trkpt lat="43.34429" lon="5.98251">
        <ele>479</ele>
        <time>2019-12-17T12:51:00.000Z</time>
      </trkpt>
      <trkpt lat="43.34429" lon="5.98252">
        <ele>478</ele>
        <time>2019-12-17T12:51:01.000Z</time>
      </trkpt>
      <trkpt lat="43.34428" lon="5.98253">
        <ele>478</ele>
        <time>2019-12-17T12:51:02.000Z</time>
      </trkpt>
      <trkpt lat="43.34428" lon="5.98255">
        <ele>478</ele>
        <time>2019-12-17T12:51:03.000Z</time>
      </trkpt>
      <trkpt lat="43.34428" lon="5.98256">
        <ele>478</ele>
        <time>2019-12-17T12:51:04.000Z</time>
      </trkpt>
      <trkpt lat="43.34429" lon="5.98257">
        <ele>478</ele>
        <time>2019-12-17T12:51:05.000Z</time>
      </trkpt>
      <trkpt lat="43.34429" lon="5.98259">
        <ele>478</ele>
        <time>2019-12-17T12:51:06.000Z</time>
      </trkpt>
      <trkpt lat="43.3443" lon="5.9826">
        <ele>478</ele>
        <time>2019-12-17T12:51:07.000Z</time>
      </trkpt>
      <trkpt lat="43.3443" lon="5.98262">
        <ele>478</ele>
        <time>2019-12-17T12:51:08.000Z</time>
      </trkpt>
      <trkpt lat="43.3443" lon="5.98263">
        <ele>478</ele>
        <time>2019-12-17T12:51:09.000Z</time>
      </trkpt>
      <trkpt lat="43.34431" lon="5.98265">
        <ele>478</ele>
        <time>2019-12-17T12:51:10.000Z</time>
      </trkpt>
      <trkpt lat="43.34431" lon="5.98266">
        <ele>478</ele>
        <time>2019-12-17T12:51:11.000Z</time>
      </trkpt>
      <trkpt lat="43.34431" lon="5.98268">
        <ele>478</ele>
        <time>2019-12-17T12:51:12.000Z</time>
      </trkpt>
      <trkpt lat="43.34431" lon="5.9827">
        <ele>478</ele>
        <time>2019-12-17T12:51:13.000Z</time>
      </trkpt>
      <trkpt lat="43.3443" lon="5.98272">
        <ele>478</ele>
        <time>2019-12-17T12:51:14.000Z</time>
      </trkpt>
      <trkpt lat="43.34429" lon="5.98273">
        <ele>478</ele>
        <time>2019-12-17T12:51:15.000Z</time>
      </trkpt>
      <trkpt lat="43.34428" lon="5.98274">
        <ele>478</ele>
        <time>2019-12-17T12:51:16.000Z</time>
      </trkpt>
      <trkpt lat="43.34427" lon="5.98274">
        <ele>478</ele>
        <time>2019-12-17T12:51:17.000Z</time>
      </trkpt>
      <trkpt lat="43.34426" lon="5.98273">
        <ele>478</ele>
        <time>2019-12-17T12:51:18.000Z</time>
      </trkpt>
      <trkpt lat="43.34425" lon="5.98272">
        <ele>478</ele>
        <time>2019-12-17T12:51:19.000Z</time>
      </trkpt>
      <trkpt lat="43.34425" lon="5.98271">
        <ele>478</ele>
        <time>2019-12-17T12:51:20.000Z</time>
      </trkpt>
      <trkpt lat="43.34424" lon="5.98269">
        <ele>477</ele>
        <time>2019-12-17T12:51:21.000Z</time>
      </trkpt>
      <trkpt lat="43.34424" lon="5.98268">
        <ele>478</ele>
        <time>2019-12-17T12:51:22.000Z</time>
      </trkpt>
      <trkpt lat="43.34423" lon="5.98266">
        <ele>478</ele>
        <time>2019-12-17T12:51:23.000Z</time>
      </trkpt>
      <trkpt lat="43.34423" lon="5.98265">
        <ele>478</ele>
        <time>2019-12-17T12:51:24.000Z</time>
      </trkpt>
      <trkpt lat="43.34422" lon="5.98264">
        <ele>478</ele>
        <time>2019-12-17T12:51:25.000Z</time>
      </trkpt>
      <trkpt lat="43.34422" lon="5.98263">
        <ele>478</ele>
        <time>2019-12-17T12:51:26.000Z</time>
      </trkpt>
      <trkpt lat="43.34422" lon="5.98261">
        <ele>478</ele>
        <time>2019-12-17T12:51:27.000Z</time>
      </trkpt>
      <trkpt lat="43.34421" lon="5.9826">
        <ele>478</ele>
        <time>2019-12-17T12:51:28.000Z</time>
      </trkpt>
      <trkpt lat="43.3442" lon="5.98259">
        <ele>478</ele>
        <time>2019-12-17T12:51:29.000Z</time>
      </trkpt>
      <trkpt lat="43.3442" lon="5.98257">
        <ele>478</ele>
        <time>2019-12-17T12:51:30.000Z</time>
      </trkpt>
      <trkpt lat="43.34419" lon="5.98256">
        <ele>478</ele>
        <time>2019-12-17T12:51:31.000Z</time>
      </trkpt>
      <trkpt lat="43.34419" lon="5.98255">
        <ele>478</ele>
        <time>2019-12-17T12:51:32.000Z</time>
      </trkpt>
      <trkpt lat="43.34418" lon="5.98254">
        <ele>478</ele>
        <time>2019-12-17T12:51:33.000Z</time>
      </trkpt>
      <trkpt lat="43.34418" lon="5.98253">
        <ele>478</ele>
        <time>2019-12-17T12:51:34.000Z</time>
      </trkpt>
      <trkpt lat="43.34417" lon="5.98253">
        <ele>477</ele>
        <time>2019-12-17T12:51:35.000Z</time>
      </trkpt>
      <trkpt lat="43.34417" lon="5.98253">
        <ele>477</ele>
        <time>2019-12-17T12:51:36.000Z</time>
      </trkpt>
      <trkpt lat="43.34416" lon="5.98253">
        <ele>477</ele>
        <time>2019-12-17T12:51:37.000Z</time>
      </trkpt>
      <trkpt lat="43.34416" lon="5.98252">
        <ele>477</ele>
        <time>2019-12-17T12:51:38.000Z</time>
      </trkpt>
      <trkpt lat="43.34416" lon="5.98252">
        <ele>477</ele>
        <time>2019-12-17T12:51:39.000Z</time>
      </trkpt>
      <trkpt lat="43.34416" lon="5.98253">
        <ele>477</ele>
        <time>2019-12-17T12:51:40.000Z</time>
      </trkpt>
      <trkpt lat="43.34416" lon="5.98253">
        <ele>477</ele>
        <time>2019-12-17T12:51:41.000Z</time>
      </trkpt>
      <trkpt lat="43.34416" lon="5.98254">
        <ele>477</ele>
        <time>2019-12-17T12:51:42.000Z</time>
      </trkpt>
      <trkpt lat="43.34416" lon="5.98254">
        <ele>476</ele>
        <time>2019-12-17T12:51:43.000Z</time>
      </trkpt>
      <trkpt lat="43.34415" lon="5.98255">
        <ele>476</ele>
        <time>2019-12-17T12:51:44.000Z</time>
      </trkpt>
      <trkpt lat="43.34415" lon="5.98256">
        <ele>476</ele>
        <time>2019-12-17T12:51:45.000Z</time>
      </trkpt>
      <trkpt lat="43.34415" lon="5.98257">
        <ele>476</ele>
        <time>2019-12-17T12:51:46.000Z</time>
      </trkpt>
      <trkpt lat="43.34415" lon="5.98259">
        <ele>476</ele>
        <time>2019-12-17T12:51:47.000Z</time>
      </trkpt>
      <trkpt lat="43.34415" lon="5.9826">
        <ele>476</ele>
        <time>2019-12-17T12:51:48.000Z</time>
      </trkpt>
      <trkpt lat="43.34415" lon="5.98261">
        <ele>476</ele>
        <time>2019-12-17T12:51:49.000Z</time>
      </trkpt>
      <trkpt lat="43.34415" lon="5.98262">
        <ele>476</ele>
        <time>2019-12-17T12:51:50.000Z</time>
      </trkpt>
      <trkpt lat="43.34415" lon="5.98264">
        <ele>476</ele>
        <time>2019-12-17T12:51:51.000Z</time>
      </trkpt>
      <trkpt lat="43.34414" lon="5.98265">
        <ele>476</ele>
        <time>2019-12-17T12:51:52.000Z</time>
      </trkpt>
      <trkpt lat="43.34414" lon="5.98266">
        <ele>475</ele>
        <time>2019-12-17T12:51:53.000Z</time>
      </trkpt>
      <trkpt lat="43.34414" lon="5.98268">
        <ele>475</ele>
        <time>2019-12-17T12:51:54.000Z</time>
      </trkpt>
      <trkpt lat="43.34414" lon="5.98269">
        <ele>475</ele>
        <time>2019-12-17T12:51:55.000Z</time>
      </trkpt>
      <trkpt lat="43.34414" lon="5.9827">
        <ele>475</ele>
        <time>2019-12-17T12:51:56.000Z</time>
      </trkpt>
      <trkpt lat="43.34414" lon="5.98272">
        <ele>475</ele>
        <time>2019-12-17T12:51:57.000Z</time>
      </trkpt>
      <trkpt lat="43.34414" lon="5.98273">
        <ele>474</ele>
        <time>2019-12-17T12:51:58.000Z</time>
      </trkpt>
      <trkpt lat="43.34415" lon="5.98275">
        <ele>474</ele>
        <time>2019-12-17T12:51:59.000Z</time>
      </trkpt>
      <trkpt lat="43.34415" lon="5.98276">
        <ele>474</ele>
        <time>2019-12-17T12:52:00.000Z</time>
      </trkpt>
      <trkpt lat="43.34416" lon="5.98277">
        <ele>474</ele>
        <time>2019-12-17T12:52:01.000Z</time>
      </trkpt>
      <trkpt lat="43.34416" lon="5.98278">
        <ele>474</ele>
        <time>2019-12-17T12:52:02.000Z</time>
      </trkpt>
      <trkpt lat="43.34417" lon="5.98279">
        <ele>474</ele>
        <time>2019-12-17T12:52:03.000Z</time>
      </trkpt>
      <trkpt lat="43.34417" lon="5.98281">
        <ele>474</ele>
        <time>2019-12-17T12:52:04.000Z</time>
      </trkpt>
      <trkpt lat="43.34416" lon="5.98282">
        <ele>473</ele>
        <time>2019-12-17T12:52:05.000Z</time>
      </trkpt>
      <trkpt lat="43.34416" lon="5.98283">
        <ele>473</ele>
        <time>2019-12-17T12:52:06.000Z</time>
      </trkpt>
      <trkpt lat="43.34416" lon="5.98284">
        <ele>473</ele>
        <time>2019-12-17T12:52:07.000Z</time>
      </trkpt>
      <trkpt lat="43.34415" lon="5.98285">
        <ele>473</ele>
        <time>2019-12-17T12:52:08.000Z</time>
      </trkpt>
      <trkpt lat="43.34414" lon="5.98286">
        <ele>473</ele>
        <time>2019-12-17T12:52:09.000Z</time>
      </trkpt>
      <trkpt lat="43.34414" lon="5.98287">
        <ele>473</ele>
        <time>2019-12-17T12:52:10.000Z</time>
      </trkpt>
      <trkpt lat="43.34413" lon="5.98287">
        <ele>472</ele>
        <time>2019-12-17T12:52:11.000Z</time>
      </trkpt>
      <trkpt lat="43.34412" lon="5.98287">
        <ele>472</ele>
        <time>2019-12-17T12:52:12.000Z</time>
      </trkpt>
      <trkpt lat="43.34411" lon="5.98287">
        <ele>472</ele>
        <time>2019-12-17T12:52:13.000Z</time>
      </trkpt>
      <trkpt lat="43.3441" lon="5.98287">
        <ele>472</ele>
        <time>2019-12-17T12:52:14.000Z</time>
      </trkpt>
      <trkpt lat="43.34409" lon="5.98286">
        <ele>472</ele>
        <time>2019-12-17T12:52:15.000Z</time>
      </trkpt>
      <trkpt lat="43.34409" lon="5.98286">
        <ele>471</ele>
        <time>2019-12-17T12:52:16.000Z</time>
      </trkpt>
      <trkpt lat="43.34408" lon="5.98285">
        <ele>471</ele>
        <time>2019-12-17T12:52:17.000Z</time>
      </trkpt>
      <trkpt lat="43.34408" lon="5.98284">
        <ele>471</ele>
        <time>2019-12-17T12:52:18.000Z</time>
      </trkpt>
      <trkpt lat="43.34407" lon="5.98284">
        <ele>471</ele>
        <time>2019-12-17T12:52:19.000Z</time>
      </trkpt>
      <trkpt lat="43.34407" lon="5.98283">
        <ele>471</ele>
        <time>2019-12-17T12:52:20.000Z</time>
      </trkpt>
      <trkpt lat="43.34406" lon="5.98282">
        <ele>470</ele>
        <time>2019-12-17T12:52:21.000Z</time>
      </trkpt>
      <trkpt lat="43.34406" lon="5.98281">
        <ele>470</ele>
        <time>2019-12-17T12:52:22.000Z</time>
      </trkpt>
      <trkpt lat="43.34405" lon="5.9828">
        <ele>470</ele>
        <time>2019-12-17T12:52:23.000Z</time>
      </trkpt>
      <trkpt lat="43.34405" lon="5.98279">
        <ele>470</ele>
        <time>2019-12-17T12:52:24.000Z</time>
      </trkpt>
      <trkpt lat="43.34405" lon="5.98279">
        <ele>470</ele>
        <time>2019-12-17T12:52:25.000Z</time>
      </trkpt>
      <trkpt lat="43.34405" lon="5.98278">
        <ele>470</ele>
        <time>2019-12-17T12:52:26.000Z</time>
      </trkpt>
      <trkpt lat="43.34405" lon="5.98277">
        <ele>470</ele>
        <time>2019-12-17T12:52:27.000Z</time>
      </trkpt>
      <trkpt lat="43.34405" lon="5.98275">
        <ele>469</ele>
        <time>2019-12-17T12:52:28.000Z</time>
      </trkpt>
      <trkpt lat="43.34404" lon="5.98274">
        <ele>469</ele>
        <time>2019-12-17T12:52:29.000Z</time>
      </trkpt>
      <trkpt lat="43.34404" lon="5.98273">
        <ele>469</ele>
        <time>2019-12-17T12:52:30.000Z</time>
      </trkpt>
      <trkpt lat="43.34404" lon="5.98272">
        <ele>469</ele>
        <time>2019-12-17T12:52:31.000Z</time>
      </trkpt>
      <trkpt lat="43.34403" lon="5.98271">
        <ele>469</ele>
        <time>2019-12-17T12:52:32.000Z</time>
      </trkpt>
      <trkpt lat="43.34403" lon="5.98269">
        <ele>469</ele>
        <time>2019-12-17T12:52:33.000Z</time>
      </trkpt>
      <trkpt lat="43.34403" lon="5.98267">
        <ele>468</ele>
        <time>2019-12-17T12:52:34.000Z</time>
      </trkpt>
      <trkpt lat="43.34403" lon="5.98265">
        <ele>468</ele>
        <time>2019-12-17T12:52:35.000Z</time>
      </trkpt>
      <trkpt lat="43.34403" lon="5.98263">
        <ele>468</ele>
        <time>2019-12-17T12:52:36.000Z</time>
      </trkpt>
      <trkpt lat="43.34403" lon="5.98262">
        <ele>468</ele>
        <time>2019-12-17T12:52:37.000Z</time>
      </trkpt>
      <trkpt lat="43.34402" lon="5.9826">
        <ele>467</ele>
        <time>2019-12-17T12:52:38.000Z</time>
      </trkpt>
      <trkpt lat="43.34402" lon="5.98258">
        <ele>467</ele>
        <time>2019-12-17T12:52:39.000Z</time>
      </trkpt>
      <trkpt lat="43.34403" lon="5.98257">
        <ele>467</ele>
        <time>2019-12-17T12:52:40.000Z</time>
      </trkpt>
      <trkpt lat="43.34403" lon="5.98255">
        <ele>467</ele>
        <time>2019-12-17T12:52:41.000Z</time>
      </trkpt>
      <trkpt lat="43.34403" lon="5.98253">
        <ele>466</ele>
        <time>2019-12-17T12:52:42.000Z</time>
      </trkpt>
      <trkpt lat="43.34403" lon="5.98252">
        <ele>466</ele>
        <time>2019-12-17T12:52:43.000Z</time>
      </trkpt>
      <trkpt lat="43.34403" lon="5.9825">
        <ele>466</ele>
        <time>2019-12-17T12:52:44.000Z</time>
      </trkpt>
      <trkpt lat="43.34403" lon="5.98249">
        <ele>466</ele>
        <time>2019-12-17T12:52:45.000Z</time>
      </trkpt>
      <trkpt lat="43.34403" lon="5.98247">
        <ele>465</ele>
        <time>2019-12-17T12:52:46.000Z</time>
      </trkpt>
      <trkpt lat="43.34403" lon="5.98246">
        <ele>465</ele>
        <time>2019-12-17T12:52:47.000Z</time>
      </trkpt>
      <trkpt lat="43.34403" lon="5.98245">
        <ele>465</ele>
        <time>2019-12-17T12:52:48.000Z</time>
      </trkpt>
      <trkpt lat="43.34403" lon="5.98243">
        <ele>465</ele>
        <time>2019-12-17T12:52:49.000Z</time>
      </trkpt>
      <trkpt lat="43.34403" lon="5.98242">
        <ele>465</ele>
        <time>2019-12-17T12:52:50.000Z</time>
      </trkpt>
      <trkpt lat="43.34403" lon="5.98241">
        <ele>465</ele>
        <time>2019-12-17T12:52:51.000Z</time>
      </trkpt>
      <trkpt lat="43.34403" lon="5.98239">
        <ele>464</ele>
        <time>2019-12-17T12:52:52.000Z</time>
      </trkpt>
      <trkpt lat="43.34403" lon="5.98238">
        <ele>464</ele>
        <time>2019-12-17T12:52:53.000Z</time>
      </trkpt>
      <trkpt lat="43.34404" lon="5.98237">
        <ele>464</ele>
        <time>2019-12-17T12:52:54.000Z</time>
      </trkpt>
      <trkpt lat="43.34404" lon="5.98236">
        <ele>464</ele>
        <time>2019-12-17T12:52:55.000Z</time>
      </trkpt>
      <trkpt lat="43.34404" lon="5.98235">
        <ele>464</ele>
        <time>2019-12-17T12:52:56.000Z</time>
      </trkpt>
      <trkpt lat="43.34404" lon="5.98233">
        <ele>464</ele>
        <time>2019-12-17T12:52:57.000Z</time>
      </trkpt>
      <trkpt lat="43.34404" lon="5.98232">
        <ele>463</ele>
        <time>2019-12-17T12:52:58.000Z</time>
      </trkpt>
      <trkpt lat="43.34404" lon="5.98231">
        <ele>463</ele>
        <time>2019-12-17T12:52:59.000Z</time>
      </trkpt>
      <trkpt lat="43.34404" lon="5.9823">
        <ele>463</ele>
        <time>2019-12-17T12:53:00.000Z</time>
      </trkpt>
      <trkpt lat="43.34404" lon="5.98229">
        <ele>463</ele>
        <time>2019-12-17T12:53:01.000Z</time>
      </trkpt>
      <trkpt lat="43.34404" lon="5.98228">
        <ele>463</ele>
        <time>2019-12-17T12:53:02.000Z</time>
      </trkpt>
      <trkpt lat="43.34404" lon="5.98227">
        <ele>463</ele>
        <time>2019-12-17T12:53:03.000Z</time>
      </trkpt>
      <trkpt lat="43.34404" lon="5.98226">
        <ele>463</ele>
        <time>2019-12-17T12:53:04.000Z</time>
      </trkpt>
      <trkpt lat="43.34404" lon="5.98225">
        <ele>463</ele>
        <time>2019-12-17T12:53:05.000Z</time>
      </trkpt>
      <trkpt lat="43.34404" lon="5.98223">
        <ele>463</ele>
        <time>2019-12-17T12:53:06.000Z</time>
      </trkpt>
      <trkpt lat="43.34403" lon="5.98222">
        <ele>463</ele>
        <time>2019-12-17T12:53:07.000Z</time>
      </trkpt>
      <trkpt lat="43.34403" lon="5.98221">
        <ele>463</ele>
        <time>2019-12-17T12:53:08.000Z</time>
      </trkpt>
      <trkpt lat="43.34403" lon="5.98219">
        <ele>463</ele>
        <time>2019-12-17T12:53:09.000Z</time>
      </trkpt>
      <trkpt lat="43.34402" lon="5.98218">
        <ele>463</ele>
        <time>2019-12-17T12:53:10.000Z</time>
      </trkpt>
      <trkpt lat="43.34402" lon="5.98217">
        <ele>463</ele>
        <time>2019-12-17T12:53:11.000Z</time>
      </trkpt>
      <trkpt lat="43.34401" lon="5.98216">
        <ele>463</ele>
        <time>2019-12-17T12:53:12.000Z</time>
      </trkpt>
      <trkpt lat="43.34401" lon="5.98215">
        <ele>462</ele>
        <time>2019-12-17T12:53:13.000Z</time>
      </trkpt>
      <trkpt lat="43.34401" lon="5.98214">
        <ele>462</ele>
        <time>2019-12-17T12:53:14.000Z</time>
      </trkpt>
      <trkpt lat="43.344" lon="5.98213">
        <ele>462</ele>
        <time>2019-12-17T12:53:15.000Z</time>
      </trkpt>
      <trkpt lat="43.344" lon="5.98213">
        <ele>462</ele>
        <time>2019-12-17T12:53:16.000Z</time>
      </trkpt>
      <trkpt lat="43.34399" lon="5.98212">
        <ele>462</ele>
        <time>2019-12-17T12:53:17.000Z</time>
      </trkpt>
      <trkpt lat="43.34398" lon="5.9821">
        <ele>462</ele>
        <time>2019-12-17T12:53:18.000Z</time>
      </trkpt>
      <trkpt lat="43.34398" lon="5.98209">
        <ele>462</ele>
        <time>2019-12-17T12:53:19.000Z</time>
      </trkpt>
      <trkpt lat="43.34397" lon="5.98208">
        <ele>462</ele>
        <time>2019-12-17T12:53:20.000Z</time>
      </trkpt>
      <trkpt lat="43.34397" lon="5.98207">
        <ele>462</ele>
        <time>2019-12-17T12:53:21.000Z</time>
      </trkpt>
      <trkpt lat="43.34396" lon="5.98206">
        <ele>462</ele>
        <time>2019-12-17T12:53:22.000Z</time>
      </trkpt>
      <trkpt lat="43.34396" lon="5.98204">
        <ele>462</ele>
        <time>2019-12-17T12:53:23.000Z</time>
      </trkpt>
      <trkpt lat="43.34395" lon="5.98203">
        <ele>462</ele>
        <time>2019-12-17T12:53:24.000Z</time>
      </trkpt>
      <trkpt lat="43.34395" lon="5.98201">
        <ele>462</ele>
        <time>2019-12-17T12:53:25.000Z</time>
      </trkpt>
      <trkpt lat="43.34394" lon="5.982">
        <ele>461</ele>
        <time>2019-12-17T12:53:26.000Z</time>
      </trkpt>
      <trkpt lat="43.34394" lon="5.98199">
        <ele>461</ele>
        <time>2019-12-17T12:53:27.000Z</time>
      </trkpt>
      <trkpt lat="43.34394" lon="5.98197">
        <ele>461</ele>
        <time>2019-12-17T12:53:28.000Z</time>
      </trkpt>
      <trkpt lat="43.34394" lon="5.98196">
        <ele>461</ele>
        <time>2019-12-17T12:53:29.000Z</time>
      </trkpt>
      <trkpt lat="43.34394" lon="5.98194">
        <ele>461</ele>
        <time>2019-12-17T12:53:30.000Z</time>
      </trkpt>
      <trkpt lat="43.34393" lon="5.98193">
        <ele>461</ele>
        <time>2019-12-17T12:53:31.000Z</time>
      </trkpt>
      <trkpt lat="43.34393" lon="5.98192">
        <ele>461</ele>
        <time>2019-12-17T12:53:32.000Z</time>
      </trkpt>
      <trkpt lat="43.34393" lon="5.98191">
        <ele>461</ele>
        <time>2019-12-17T12:53:33.000Z</time>
      </trkpt>
      <trkpt lat="43.34392" lon="5.9819">
        <ele>461</ele>
        <time>2019-12-17T12:53:34.000Z</time>
      </trkpt>
      <trkpt lat="43.34392" lon="5.98189">
        <ele>461</ele>
        <time>2019-12-17T12:53:35.000Z</time>
      </trkpt>
      <trkpt lat="43.34391" lon="5.98188">
        <ele>461</ele>
        <time>2019-12-17T12:53:36.000Z</time>
      </trkpt>
      <trkpt lat="43.34391" lon="5.98188">
        <ele>460</ele>
        <time>2019-12-17T12:53:37.000Z</time>
      </trkpt>
      <trkpt lat="43.34391" lon="5.98188">
        <ele>460</ele>
        <time>2019-12-17T12:53:38.000Z</time>
      </trkpt>
      <trkpt lat="43.3439" lon="5.98188">
        <ele>460</ele>
        <time>2019-12-17T12:53:39.000Z</time>
      </trkpt>
      <trkpt lat="43.3439" lon="5.98189">
        <ele>460</ele>
        <time>2019-12-17T12:53:40.000Z</time>
      </trkpt>
      <trkpt lat="43.3439" lon="5.9819">
        <ele>460</ele>
        <time>2019-12-17T12:53:41.000Z</time>
      </trkpt>
      <trkpt lat="43.3439" lon="5.98191">
        <ele>460</ele>
        <time>2019-12-17T12:53:42.000Z</time>
      </trkpt>
      <trkpt lat="43.3439" lon="5.98192">
        <ele>459</ele>
        <time>2019-12-17T12:53:43.000Z</time>
      </trkpt>
      <trkpt lat="43.3439" lon="5.98193">
        <ele>459</ele>
        <time>2019-12-17T12:53:44.000Z</time>
      </trkpt>
      <trkpt lat="43.3439" lon="5.98195">
        <ele>459</ele>
        <time>2019-12-17T12:53:45.000Z</time>
      </trkpt>
      <trkpt lat="43.3439" lon="5.98196">
        <ele>459</ele>
        <time>2019-12-17T12:53:46.000Z</time>
      </trkpt>
      <trkpt lat="43.34391" lon="5.98197">
        <ele>458</ele>
        <time>2019-12-17T12:53:47.000Z</time>
      </trkpt>
      <trkpt lat="43.34391" lon="5.98198">
        <ele>458</ele>
        <time>2019-12-17T12:53:48.000Z</time>
      </trkpt>
      <trkpt lat="43.34391" lon="5.98199">
        <ele>458</ele>
        <time>2019-12-17T12:53:49.000Z</time>
      </trkpt>
      <trkpt lat="43.34391" lon="5.982">
        <ele>458</ele>
        <time>2019-12-17T12:53:50.000Z</time>
      </trkpt>
      <trkpt lat="43.34391" lon="5.98201">
        <ele>458</ele>
        <time>2019-12-17T12:53:51.000Z</time>
      </trkpt>
      <trkpt lat="43.34391" lon="5.98202">
        <ele>458</ele>
        <time>2019-12-17T12:53:52.000Z</time>
      </trkpt>
      <trkpt lat="43.34391" lon="5.98203">
        <ele>458</ele>
        <time>2019-12-17T12:53:53.000Z</time>
      </trkpt>
      <trkpt lat="43.34391" lon="5.98204">
        <ele>457</ele>
        <time>2019-12-17T12:53:54.000Z</time>
      </trkpt>
      <trkpt lat="43.34391" lon="5.98205">
        <ele>457</ele>
        <time>2019-12-17T12:53:55.000Z</time>
      </trkpt>
      <trkpt lat="43.34391" lon="5.98206">
        <ele>457</ele>
        <time>2019-12-17T12:53:56.000Z</time>
      </trkpt>
      <trkpt lat="43.34391" lon="5.98208">
        <ele>457</ele>
        <time>2019-12-17T12:53:57.000Z</time>
      </trkpt>
      <trkpt lat="43.3439" lon="5.98209">
        <ele>457</ele>
        <time>2019-12-17T12:53:58.000Z</time>
      </trkpt>
      <trkpt lat="43.3439" lon="5.98209">
        <ele>457</ele>
        <time>2019-12-17T12:53:59.000Z</time>
      </trkpt>
      <trkpt lat="43.34389" lon="5.98209">
        <ele>457</ele>
        <time>2019-12-17T12:54:00.000Z</time>
      </trkpt>
      <trkpt lat="43.34388" lon="5.98208">
        <ele>456</ele>
        <time>2019-12-17T12:54:01.000Z</time>
      </trkpt>
      <trkpt lat="43.34387" lon="5.98207">
        <ele>456</ele>
        <time>2019-12-17T12:54:02.000Z</time>
      </trkpt>
      <trkpt lat="43.34386" lon="5.98206">
        <ele>456</ele>
        <time>2019-12-17T12:54:03.000Z</time>
      </trkpt>
      <trkpt lat="43.34385" lon="5.98205">
        <ele>456</ele>
        <time>2019-12-17T12:54:04.000Z</time>
      </trkpt>
      <trkpt lat="43.34385" lon="5.98204">
        <ele>456</ele>
        <time>2019-12-17T12:54:05.000Z</time>
      </trkpt>
      <trkpt lat="43.34384" lon="5.98203">
        <ele>456</ele>
        <time>2019-12-17T12:54:06.000Z</time>
      </trkpt>
      <trkpt lat="43.34384" lon="5.98202">
        <ele>456</ele>
        <time>2019-12-17T12:54:07.000Z</time>
      </trkpt>
      <trkpt lat="43.34384" lon="5.98201">
        <ele>456</ele>
        <time>2019-12-17T12:54:08.000Z</time>
      </trkpt>
      <trkpt lat="43.34383" lon="5.982">
        <ele>456</ele>
        <time>2019-12-17T12:54:09.000Z</time>
      </trkpt>
      <trkpt lat="43.34382" lon="5.98199">
        <ele>456</ele>
        <time>2019-12-17T12:54:10.000Z</time>
      </trkpt>
      <trkpt lat="43.34382" lon="5.98198">
        <ele>456</ele>
        <time>2019-12-17T12:54:11.000Z</time>
      </trkpt>
      <trkpt lat="43.34381" lon="5.98196">
        <ele>456</ele>
        <time>2019-12-17T12:54:12.000Z</time>
      </trkpt>
      <trkpt lat="43.3438" lon="5.98195">
        <ele>456</ele>
        <time>2019-12-17T12:54:13.000Z</time>
      </trkpt>
      <trkpt lat="43.3438" lon="5.98194">
        <ele>456</ele>
        <time>2019-12-17T12:54:14.000Z</time>
      </trkpt>
      <trkpt lat="43.34379" lon="5.98193">
        <ele>456</ele>
        <time>2019-12-17T12:54:15.000Z</time>
      </trkpt>
      <trkpt lat="43.34379" lon="5.98192">
        <ele>455</ele>
        <time>2019-12-17T12:54:16.000Z</time>
      </trkpt>
      <trkpt lat="43.34379" lon="5.98192">
        <ele>455</ele>
        <time>2019-12-17T12:54:17.000Z</time>
      </trkpt>
      <trkpt lat="43.34379" lon="5.98191">
        <ele>455</ele>
        <time>2019-12-17T12:54:18.000Z</time>
      </trkpt>
      <trkpt lat="43.34379" lon="5.9819">
        <ele>455</ele>
        <time>2019-12-17T12:54:19.000Z</time>
      </trkpt>
      <trkpt lat="43.34378" lon="5.9819">
        <ele>455</ele>
        <time>2019-12-17T12:54:20.000Z</time>
      </trkpt>
      <trkpt lat="43.34378" lon="5.98189">
        <ele>455</ele>
        <time>2019-12-17T12:54:21.000Z</time>
      </trkpt>
      <trkpt lat="43.34378" lon="5.98188">
        <ele>455</ele>
        <time>2019-12-17T12:54:22.000Z</time>
      </trkpt>
      <trkpt lat="43.34377" lon="5.98187">
        <ele>455</ele>
        <time>2019-12-17T12:54:23.000Z</time>
      </trkpt>
      <trkpt lat="43.34377" lon="5.98186">
        <ele>455</ele>
        <time>2019-12-17T12:54:24.000Z</time>
      </trkpt>
      <trkpt lat="43.34377" lon="5.98185">
        <ele>455</ele>
        <time>2019-12-17T12:54:25.000Z</time>
      </trkpt>
      <trkpt lat="43.34377" lon="5.98185">
        <ele>454</ele>
        <time>2019-12-17T12:54:26.000Z</time>
      </trkpt>
      <trkpt lat="43.34377" lon="5.98184">
        <ele>454</ele>
        <time>2019-12-17T12:54:27.000Z</time>
      </trkpt>
      <trkpt lat="43.34376" lon="5.98183">
        <ele>454</ele>
        <time>2019-12-17T12:54:28.000Z</time>
      </trkpt>
      <trkpt lat="43.34376" lon="5.98182">
        <ele>454</ele>
        <time>2019-12-17T12:54:29.000Z</time>
      </trkpt>
      <trkpt lat="43.34376" lon="5.98181">
        <ele>454</ele>
        <time>2019-12-17T12:54:30.000Z</time>
      </trkpt>
      <trkpt lat="43.34375" lon="5.9818">
        <ele>454</ele>
        <time>2019-12-17T12:54:31.000Z</time>
      </trkpt>
      <trkpt lat="43.34375" lon="5.9818">
        <ele>454</ele>
        <time>2019-12-17T12:54:32.000Z</time>
      </trkpt>
      <trkpt lat="43.34375" lon="5.98179">
        <ele>454</ele>
        <time>2019-12-17T12:54:33.000Z</time>
      </trkpt>
      <trkpt lat="43.34375" lon="5.98178">
        <ele>454</ele>
        <time>2019-12-17T12:54:34.000Z</time>
      </trkpt>
      <trkpt lat="43.34375" lon="5.98177">
        <ele>454</ele>
        <time>2019-12-17T12:54:35.000Z</time>
      </trkpt>
      <trkpt lat="43.34375" lon="5.98176">
        <ele>454</ele>
        <time>2019-12-17T12:54:36.000Z</time>
      </trkpt>
      <trkpt lat="43.34375" lon="5.98175">
        <ele>454</ele>
        <time>2019-12-17T12:54:37.000Z</time>
      </trkpt>
      <trkpt lat="43.34375" lon="5.98174">
        <ele>453</ele>
        <time>2019-12-17T12:54:38.000Z</time>
      </trkpt>
      <trkpt lat="43.34375" lon="5.98173">
        <ele>453</ele>
        <time>2019-12-17T12:54:39.000Z</time>
      </trkpt>
      <trkpt lat="43.34375" lon="5.98172">
        <ele>453</ele>
        <time>2019-12-17T12:54:40.000Z</time>
      </trkpt>
      <trkpt lat="43.34375" lon="5.98171">
        <ele>453</ele>
        <time>2019-12-17T12:54:41.000Z</time>
      </trkpt>
      <trkpt lat="43.34375" lon="5.98169">
        <ele>453</ele>
        <time>2019-12-17T12:54:42.000Z</time>
      </trkpt>
      <trkpt lat="43.34375" lon="5.98169">
        <ele>453</ele>
        <time>2019-12-17T12:54:43.000Z</time>
      </trkpt>
      <trkpt lat="43.34375" lon="5.98168">
        <ele>453</ele>
        <time>2019-12-17T12:54:44.000Z</time>
      </trkpt>
      <trkpt lat="43.34375" lon="5.98166">
        <ele>453</ele>
        <time>2019-12-17T12:54:45.000Z</time>
      </trkpt>
      <trkpt lat="43.34375" lon="5.98165">
        <ele>453</ele>
        <time>2019-12-17T12:54:46.000Z</time>
      </trkpt>
      <trkpt lat="43.34376" lon="5.98164">
        <ele>453</ele>
        <time>2019-12-17T12:54:47.000Z</time>
      </trkpt>
      <trkpt lat="43.34376" lon="5.98163">
        <ele>452</ele>
        <time>2019-12-17T12:54:48.000Z</time>
      </trkpt>
      <trkpt lat="43.34377" lon="5.98161">
        <ele>452</ele>
        <time>2019-12-17T12:54:49.000Z</time>
      </trkpt>
      <trkpt lat="43.34376" lon="5.9816">
        <ele>452</ele>
        <time>2019-12-17T12:54:50.000Z</time>
      </trkpt>
      <trkpt lat="43.34376" lon="5.98159">
        <ele>452</ele>
        <time>2019-12-17T12:54:51.000Z</time>
      </trkpt>
      <trkpt lat="43.34375" lon="5.98158">
        <ele>451</ele>
        <time>2019-12-17T12:54:52.000Z</time>
      </trkpt>
      <trkpt lat="43.34374" lon="5.98157">
        <ele>451</ele>
        <time>2019-12-17T12:54:53.000Z</time>
      </trkpt>
      <trkpt lat="43.34373" lon="5.98157">
        <ele>450</ele>
        <time>2019-12-17T12:54:54.000Z</time>
      </trkpt>
      <trkpt lat="43.34372" lon="5.98157">
        <ele>450</ele>
        <time>2019-12-17T12:54:55.000Z</time>
      </trkpt>
      <trkpt lat="43.34372" lon="5.98157">
        <ele>449</ele>
        <time>2019-12-17T12:54:56.000Z</time>
      </trkpt>
      <trkpt lat="43.34371" lon="5.98157">
        <ele>449</ele>
        <time>2019-12-17T12:54:57.000Z</time>
      </trkpt>
      <trkpt lat="43.3437" lon="5.98158">
        <ele>449</ele>
        <time>2019-12-17T12:54:58.000Z</time>
      </trkpt>
      <trkpt lat="43.34369" lon="5.98159">
        <ele>448</ele>
        <time>2019-12-17T12:54:59.000Z</time>
      </trkpt>
      <trkpt lat="43.34368" lon="5.9816">
        <ele>448</ele>
        <time>2019-12-17T12:55:00.000Z</time>
      </trkpt>
      <trkpt lat="43.34368" lon="5.98161">
        <ele>447</ele>
        <time>2019-12-17T12:55:01.000Z</time>
      </trkpt>
      <trkpt lat="43.34367" lon="5.98162">
        <ele>447</ele>
        <time>2019-12-17T12:55:02.000Z</time>
      </trkpt>
      <trkpt lat="43.34366" lon="5.98163">
        <ele>447</ele>
        <time>2019-12-17T12:55:03.000Z</time>
      </trkpt>
      <trkpt lat="43.34366" lon="5.98165">
        <ele>446</ele>
        <time>2019-12-17T12:55:04.000Z</time>
      </trkpt>
      <trkpt lat="43.34365" lon="5.98166">
        <ele>446</ele>
        <time>2019-12-17T12:55:05.000Z</time>
      </trkpt>
      <trkpt lat="43.34365" lon="5.98168">
        <ele>446</ele>
        <time>2019-12-17T12:55:06.000Z</time>
      </trkpt>
      <trkpt lat="43.34364" lon="5.98169">
        <ele>446</ele>
        <time>2019-12-17T12:55:07.000Z</time>
      </trkpt>
      <trkpt lat="43.34364" lon="5.98171">
        <ele>445</ele>
        <time>2019-12-17T12:55:08.000Z</time>
      </trkpt>
      <trkpt lat="43.34364" lon="5.98172">
        <ele>445</ele>
        <time>2019-12-17T12:55:09.000Z</time>
      </trkpt>
      <trkpt lat="43.34364" lon="5.98174">
        <ele>445</ele>
        <time>2019-12-17T12:55:10.000Z</time>
      </trkpt>
      <trkpt lat="43.34364" lon="5.98175">
        <ele>445</ele>
        <time>2019-12-17T12:55:11.000Z</time>
      </trkpt>
      <trkpt lat="43.34365" lon="5.98177">
        <ele>445</ele>
        <time>2019-12-17T12:55:12.000Z</time>
      </trkpt>
      <trkpt lat="43.34365" lon="5.98178">
        <ele>445</ele>
        <time>2019-12-17T12:55:13.000Z</time>
      </trkpt>
      <trkpt lat="43.34365" lon="5.9818">
        <ele>444</ele>
        <time>2019-12-17T12:55:14.000Z</time>
      </trkpt>
      <trkpt lat="43.34365" lon="5.98181">
        <ele>444</ele>
        <time>2019-12-17T12:55:15.000Z</time>
      </trkpt>
      <trkpt lat="43.34366" lon="5.98183">
        <ele>444</ele>
        <time>2019-12-17T12:55:16.000Z</time>
      </trkpt>
      <trkpt lat="43.34366" lon="5.98184">
        <ele>444</ele>
        <time>2019-12-17T12:55:17.000Z</time>
      </trkpt>
      <trkpt lat="43.34366" lon="5.98186">
        <ele>444</ele>
        <time>2019-12-17T12:55:18.000Z</time>
      </trkpt>
      <trkpt lat="43.34367" lon="5.98187">
        <ele>444</ele>
        <time>2019-12-17T12:55:19.000Z</time>
      </trkpt>
      <trkpt lat="43.34367" lon="5.98189">
        <ele>444</ele>
        <time>2019-12-17T12:55:20.000Z</time>
      </trkpt>
      <trkpt lat="43.34368" lon="5.98191">
        <ele>444</ele>
        <time>2019-12-17T12:55:21.000Z</time>
      </trkpt>
      <trkpt lat="43.34369" lon="5.98192">
        <ele>444</ele>
        <time>2019-12-17T12:55:22.000Z</time>
      </trkpt>
      <trkpt lat="43.34369" lon="5.98194">
        <ele>443</ele>
        <time>2019-12-17T12:55:23.000Z</time>
      </trkpt>
      <trkpt lat="43.34369" lon="5.98195">
        <ele>443</ele>
        <time>2019-12-17T12:55:24.000Z</time>
      </trkpt>
      <trkpt lat="43.3437" lon="5.98197">
        <ele>443</ele>
        <time>2019-12-17T12:55:25.000Z</time>
      </trkpt>
      <trkpt lat="43.3437" lon="5.98198">
        <ele>443</ele>
        <time>2019-12-17T12:55:26.000Z</time>
      </trkpt>
      <trkpt lat="43.3437" lon="5.98199">
        <ele>443</ele>
        <time>2019-12-17T12:55:27.000Z</time>
      </trkpt>
      <trkpt lat="43.3437" lon="5.982">
        <ele>443</ele>
        <time>2019-12-17T12:55:28.000Z</time>
      </trkpt>
      <trkpt lat="43.3437" lon="5.98202">
        <ele>443</ele>
        <time>2019-12-17T12:55:29.000Z</time>
      </trkpt>
      <trkpt lat="43.3437" lon="5.98203">
        <ele>443</ele>
        <time>2019-12-17T12:55:30.000Z</time>
      </trkpt>
      <trkpt lat="43.3437" lon="5.98204">
        <ele>443</ele>
        <time>2019-12-17T12:55:31.000Z</time>
      </trkpt>
      <trkpt lat="43.3437" lon="5.98205">
        <ele>443</ele>
        <time>2019-12-17T12:55:32.000Z</time>
      </trkpt>
      <trkpt lat="43.34371" lon="5.98205">
        <ele>443</ele>
        <time>2019-12-17T12:55:33.000Z</time>
      </trkpt>
      <trkpt lat="43.34371" lon="5.98206">
        <ele>443</ele>
        <time>2019-12-17T12:55:34.000Z</time>
      </trkpt>
      <trkpt lat="43.34371" lon="5.98207">
        <ele>443</ele>
        <time>2019-12-17T12:55:35.000Z</time>
      </trkpt>
      <trkpt lat="43.34371" lon="5.98208">
        <ele>443</ele>
        <time>2019-12-17T12:55:36.000Z</time>
      </trkpt>
      <trkpt lat="43.34371" lon="5.98209">
        <ele>443</ele>
        <time>2019-12-17T12:55:37.000Z</time>
      </trkpt>
      <trkpt lat="43.34371" lon="5.9821">
        <ele>443</ele>
        <time>2019-12-17T12:55:38.000Z</time>
      </trkpt>
      <trkpt lat="43.34371" lon="5.98211">
        <ele>443</ele>
        <time>2019-12-17T12:55:39.000Z</time>
      </trkpt>
      <trkpt lat="43.34371" lon="5.98212">
        <ele>443</ele>
        <time>2019-12-17T12:55:40.000Z</time>
      </trkpt>
      <trkpt lat="43.34371" lon="5.98214">
        <ele>443</ele>
        <time>2019-12-17T12:55:41.000Z</time>
      </trkpt>
      <trkpt lat="43.3437" lon="5.98215">
        <ele>443</ele>
        <time>2019-12-17T12:55:42.000Z</time>
      </trkpt>
      <trkpt lat="43.3437" lon="5.98215">
        <ele>443</ele>
        <time>2019-12-17T12:55:43.000Z</time>
      </trkpt>
      <trkpt lat="43.3437" lon="5.98216">
        <ele>443</ele>
        <time>2019-12-17T12:55:44.000Z</time>
      </trkpt>
      <trkpt lat="43.34369" lon="5.98217">
        <ele>443</ele>
        <time>2019-12-17T12:55:45.000Z</time>
      </trkpt>
      <trkpt lat="43.34369" lon="5.98218">
        <ele>443</ele>
        <time>2019-12-17T12:55:46.000Z</time>
      </trkpt>
      <trkpt lat="43.34369" lon="5.98219">
        <ele>443</ele>
        <time>2019-12-17T12:55:47.000Z</time>
      </trkpt>
      <trkpt lat="43.34369" lon="5.9822">
        <ele>443</ele>
        <time>2019-12-17T12:55:48.000Z</time>
      </trkpt>
      <trkpt lat="43.34369" lon="5.98221">
        <ele>443</ele>
        <time>2019-12-17T12:55:49.000Z</time>
      </trkpt>
      <trkpt lat="43.34368" lon="5.98222">
        <ele>443</ele>
        <time>2019-12-17T12:55:50.000Z</time>
      </trkpt>
      <trkpt lat="43.34368" lon="5.98223">
        <ele>443</ele>
        <time>2019-12-17T12:55:51.000Z</time>
      </trkpt>
      <trkpt lat="43.34368" lon="5.98224">
        <ele>443</ele>
        <time>2019-12-17T12:55:52.000Z</time>
      </trkpt>
      <trkpt lat="43.34367" lon="5.98225">
        <ele>443</ele>
        <time>2019-12-17T12:55:53.000Z</time>
      </trkpt>
      <trkpt lat="43.34367" lon="5.98225">
        <ele>443</ele>
        <time>2019-12-17T12:55:54.000Z</time>
      </trkpt>
      <trkpt lat="43.34367" lon="5.98226">
        <ele>443</ele>
        <time>2019-12-17T12:55:55.000Z</time>
      </trkpt>
      <trkpt lat="43.34367" lon="5.98227">
        <ele>443</ele>
        <time>2019-12-17T12:55:56.000Z</time>
      </trkpt>
      <trkpt lat="43.34366" lon="5.98228">
        <ele>443</ele>
        <time>2019-12-17T12:55:57.000Z</time>
      </trkpt>
      <trkpt lat="43.34365" lon="5.98229">
        <ele>443</ele>
        <time>2019-12-17T12:55:58.000Z</time>
      </trkpt>
      <trkpt lat="43.34364" lon="5.98231">
        <ele>443</ele>
        <time>2019-12-17T12:55:59.000Z</time>
      </trkpt>
      <trkpt lat="43.34363" lon="5.98232">
        <ele>443</ele>
        <time>2019-12-17T12:56:00.000Z</time>
      </trkpt>
      <trkpt lat="43.34362" lon="5.98232">
        <ele>443</ele>
        <time>2019-12-17T12:56:01.000Z</time>
      </trkpt>
      <trkpt lat="43.34362" lon="5.98232">
        <ele>443</ele>
        <time>2019-12-17T12:56:02.000Z</time>
      </trkpt>
      <trkpt lat="43.34361" lon="5.98232">
        <ele>443</ele>
        <time>2019-12-17T12:56:03.000Z</time>
      </trkpt>
      <trkpt lat="43.34361" lon="5.98231">
        <ele>443</ele>
        <time>2019-12-17T12:56:04.000Z</time>
      </trkpt>
      <trkpt lat="43.3436" lon="5.9823">
        <ele>443</ele>
        <time>2019-12-17T12:56:05.000Z</time>
      </trkpt>
      <trkpt lat="43.3436" lon="5.98229">
        <ele>443</ele>
        <time>2019-12-17T12:56:06.000Z</time>
      </trkpt>
      <trkpt lat="43.3436" lon="5.98228">
        <ele>443</ele>
        <time>2019-12-17T12:56:07.000Z</time>
      </trkpt>
      <trkpt lat="43.3436" lon="5.98226">
        <ele>443</ele>
        <time>2019-12-17T12:56:08.000Z</time>
      </trkpt>
      <trkpt lat="43.34359" lon="5.98225">
        <ele>443</ele>
        <time>2019-12-17T12:56:09.000Z</time>
      </trkpt>
      <trkpt lat="43.34359" lon="5.98224">
        <ele>443</ele>
        <time>2019-12-17T12:56:10.000Z</time>
      </trkpt>
      <trkpt lat="43.34359" lon="5.98223">
        <ele>443</ele>
        <time>2019-12-17T12:56:11.000Z</time>
      </trkpt>
      <trkpt lat="43.34359" lon="5.98222">
        <ele>442</ele>
        <time>2019-12-17T12:56:12.000Z</time>
      </trkpt>
      <trkpt lat="43.34359" lon="5.98221">
        <ele>442</ele>
        <time>2019-12-17T12:56:13.000Z</time>
      </trkpt>
      <trkpt lat="43.34358" lon="5.98219">
        <ele>442</ele>
        <time>2019-12-17T12:56:14.000Z</time>
      </trkpt>
      <trkpt lat="43.34358" lon="5.98218">
        <ele>442</ele>
        <time>2019-12-17T12:56:15.000Z</time>
      </trkpt>
      <trkpt lat="43.34358" lon="5.98216">
        <ele>442</ele>
        <time>2019-12-17T12:56:16.000Z</time>
      </trkpt>
      <trkpt lat="43.34357" lon="5.98215">
        <ele>442</ele>
        <time>2019-12-17T12:56:17.000Z</time>
      </trkpt>
      <trkpt lat="43.34357" lon="5.98214">
        <ele>442</ele>
        <time>2019-12-17T12:56:18.000Z</time>
      </trkpt>
      <trkpt lat="43.34357" lon="5.98213">
        <ele>442</ele>
        <time>2019-12-17T12:56:19.000Z</time>
      </trkpt>
      <trkpt lat="43.34357" lon="5.98212">
        <ele>442</ele>
        <time>2019-12-17T12:56:20.000Z</time>
      </trkpt>
      <trkpt lat="43.34356" lon="5.9821">
        <ele>442</ele>
        <time>2019-12-17T12:56:21.000Z</time>
      </trkpt>
      <trkpt lat="43.34356" lon="5.98209">
        <ele>442</ele>
        <time>2019-12-17T12:56:22.000Z</time>
      </trkpt>
      <trkpt lat="43.34356" lon="5.98208">
        <ele>442</ele>
        <time>2019-12-17T12:56:23.000Z</time>
      </trkpt>
      <trkpt lat="43.34355" lon="5.98206">
        <ele>442</ele>
        <time>2019-12-17T12:56:24.000Z</time>
      </trkpt>
      <trkpt lat="43.34355" lon="5.98205">
        <ele>442</ele>
        <time>2019-12-17T12:56:25.000Z</time>
      </trkpt>
      <trkpt lat="43.34354" lon="5.98204">
        <ele>442</ele>
        <time>2019-12-17T12:56:26.000Z</time>
      </trkpt>
      <trkpt lat="43.34354" lon="5.98203">
        <ele>442</ele>
        <time>2019-12-17T12:56:27.000Z</time>
      </trkpt>
      <trkpt lat="43.34354" lon="5.98203">
        <ele>442</ele>
        <time>2019-12-17T12:56:28.000Z</time>
      </trkpt>
      <trkpt lat="43.34353" lon="5.98202">
        <ele>442</ele>
        <time>2019-12-17T12:56:29.000Z</time>
      </trkpt>
      <trkpt lat="43.34353" lon="5.98202">
        <ele>442</ele>
        <time>2019-12-17T12:56:30.000Z</time>
      </trkpt>
      <trkpt lat="43.34353" lon="5.98201">
        <ele>442</ele>
        <time>2019-12-17T12:56:31.000Z</time>
      </trkpt>
      <trkpt lat="43.34352" lon="5.98201">
        <ele>442</ele>
        <time>2019-12-17T12:56:32.000Z</time>
      </trkpt>
      <trkpt lat="43.34351" lon="5.982">
        <ele>442</ele>
        <time>2019-12-17T12:56:33.000Z</time>
      </trkpt>
      <trkpt lat="43.34351" lon="5.982">
        <ele>442</ele>
        <time>2019-12-17T12:56:34.000Z</time>
      </trkpt>
      <trkpt lat="43.3435" lon="5.98199">
        <ele>442</ele>
        <time>2019-12-17T12:56:35.000Z</time>
      </trkpt>
      <trkpt lat="43.3435" lon="5.98198">
        <ele>442</ele>
        <time>2019-12-17T12:56:36.000Z</time>
      </trkpt>
      <trkpt lat="43.34349" lon="5.98197">
        <ele>442</ele>
        <time>2019-12-17T12:56:37.000Z</time>
      </trkpt>
      <trkpt lat="43.34349" lon="5.98197">
        <ele>442</ele>
        <time>2019-12-17T12:56:38.000Z</time>
      </trkpt>
      <trkpt lat="43.34348" lon="5.98195">
        <ele>442</ele>
        <time>2019-12-17T12:56:39.000Z</time>
      </trkpt>
      <trkpt lat="43.34348" lon="5.98194">
        <ele>442</ele>
        <time>2019-12-17T12:56:40.000Z</time>
      </trkpt>
      <trkpt lat="43.34347" lon="5.98193">
        <ele>442</ele>
        <time>2019-12-17T12:56:41.000Z</time>
      </trkpt>
      <trkpt lat="43.34347" lon="5.98192">
        <ele>442</ele>
        <time>2019-12-17T12:56:42.000Z</time>
      </trkpt>
      <trkpt lat="43.34347" lon="5.9819">
        <ele>442</ele>
        <time>2019-12-17T12:56:43.000Z</time>
      </trkpt>
      <trkpt lat="43.34346" lon="5.98189">
        <ele>442</ele>
        <time>2019-12-17T12:56:44.000Z</time>
      </trkpt>
      <trkpt lat="43.34345" lon="5.98188">
        <ele>442</ele>
        <time>2019-12-17T12:56:45.000Z</time>
      </trkpt>
      <trkpt lat="43.34345" lon="5.98187">
        <ele>442</ele>
        <time>2019-12-17T12:56:46.000Z</time>
      </trkpt>
      <trkpt lat="43.34344" lon="5.98186">
        <ele>442</ele>
        <time>2019-12-17T12:56:47.000Z</time>
      </trkpt>
      <trkpt lat="43.34343" lon="5.98185">
        <ele>442</ele>
        <time>2019-12-17T12:56:48.000Z</time>
      </trkpt>
      <trkpt lat="43.34343" lon="5.98183">
        <ele>442</ele>
        <time>2019-12-17T12:56:49.000Z</time>
      </trkpt>
      <trkpt lat="43.34342" lon="5.98182">
        <ele>441</ele>
        <time>2019-12-17T12:56:50.000Z</time>
      </trkpt>
      <trkpt lat="43.34341" lon="5.98181">
        <ele>441</ele>
        <time>2019-12-17T12:56:51.000Z</time>
      </trkpt>
      <trkpt lat="43.34341" lon="5.9818">
        <ele>441</ele>
        <time>2019-12-17T12:56:52.000Z</time>
      </trkpt>
      <trkpt lat="43.3434" lon="5.98178">
        <ele>441</ele>
        <time>2019-12-17T12:56:53.000Z</time>
      </trkpt>
      <trkpt lat="43.3434" lon="5.98177">
        <ele>441</ele>
        <time>2019-12-17T12:56:54.000Z</time>
      </trkpt>
      <trkpt lat="43.34339" lon="5.98176">
        <ele>440</ele>
        <time>2019-12-17T12:56:55.000Z</time>
      </trkpt>
      <trkpt lat="43.34339" lon="5.98174">
        <ele>440</ele>
        <time>2019-12-17T12:56:56.000Z</time>
      </trkpt>
      <trkpt lat="43.34338" lon="5.98173">
        <ele>440</ele>
        <time>2019-12-17T12:56:57.000Z</time>
      </trkpt>
      <trkpt lat="43.34338" lon="5.98172">
        <ele>439</ele>
        <time>2019-12-17T12:56:58.000Z</time>
      </trkpt>
      <trkpt lat="43.34337" lon="5.98171">
        <ele>439</ele>
        <time>2019-12-17T12:56:59.000Z</time>
      </trkpt>
      <trkpt lat="43.34337" lon="5.9817">
        <ele>439</ele>
        <time>2019-12-17T12:57:00.000Z</time>
      </trkpt>
      <trkpt lat="43.34336" lon="5.98169">
        <ele>439</ele>
        <time>2019-12-17T12:57:01.000Z</time>
      </trkpt>
      <trkpt lat="43.34336" lon="5.98168">
        <ele>439</ele>
        <time>2019-12-17T12:57:02.000Z</time>
      </trkpt>
      <trkpt lat="43.34335" lon="5.98167">
        <ele>438</ele>
        <time>2019-12-17T12:57:03.000Z</time>
      </trkpt>
      <trkpt lat="43.34335" lon="5.98166">
        <ele>438</ele>
        <time>2019-12-17T12:57:04.000Z</time>
      </trkpt>
      <trkpt lat="43.34335" lon="5.98165">
        <ele>438</ele>
        <time>2019-12-17T12:57:05.000Z</time>
      </trkpt>
      <trkpt lat="43.34334" lon="5.98164">
        <ele>437</ele>
        <time>2019-12-17T12:57:06.000Z</time>
      </trkpt>
      <trkpt lat="43.34334" lon="5.98163">
        <ele>437</ele>
        <time>2019-12-17T12:57:07.000Z</time>
      </trkpt>
      <trkpt lat="43.34333" lon="5.98161">
        <ele>437</ele>
        <time>2019-12-17T12:57:08.000Z</time>
      </trkpt>
      <trkpt lat="43.34333" lon="5.9816">
        <ele>437</ele>
        <time>2019-12-17T12:57:09.000Z</time>
      </trkpt>
      <trkpt lat="43.34333" lon="5.9816">
        <ele>437</ele>
        <time>2019-12-17T12:57:10.000Z</time>
      </trkpt>
      <trkpt lat="43.34332" lon="5.98158">
        <ele>436</ele>
        <time>2019-12-17T12:57:11.000Z</time>
      </trkpt>
      <trkpt lat="43.34332" lon="5.98157">
        <ele>436</ele>
        <time>2019-12-17T12:57:12.000Z</time>
      </trkpt>
      <trkpt lat="43.34331" lon="5.98156">
        <ele>436</ele>
        <time>2019-12-17T12:57:13.000Z</time>
      </trkpt>
      <trkpt lat="43.34331" lon="5.98154">
        <ele>436</ele>
        <time>2019-12-17T12:57:14.000Z</time>
      </trkpt>
      <trkpt lat="43.34331" lon="5.98154">
        <ele>435</ele>
        <time>2019-12-17T12:57:15.000Z</time>
      </trkpt>
      <trkpt lat="43.3433" lon="5.98153">
        <ele>435</ele>
        <time>2019-12-17T12:57:16.000Z</time>
      </trkpt>
      <trkpt lat="43.3433" lon="5.98152">
        <ele>435</ele>
        <time>2019-12-17T12:57:17.000Z</time>
      </trkpt>
      <trkpt lat="43.3433" lon="5.98151">
        <ele>435</ele>
        <time>2019-12-17T12:57:18.000Z</time>
      </trkpt>
      <trkpt lat="43.3433" lon="5.98151">
        <ele>435</ele>
        <time>2019-12-17T12:57:19.000Z</time>
      </trkpt>
      <trkpt lat="43.3433" lon="5.98151">
        <ele>434</ele>
        <time>2019-12-17T12:57:20.000Z</time>
      </trkpt>
      <trkpt lat="43.3433" lon="5.98151">
        <ele>434</ele>
        <time>2019-12-17T12:57:21.000Z</time>
      </trkpt>
      <trkpt lat="43.34329" lon="5.9815">
        <ele>434</ele>
        <time>2019-12-17T12:57:22.000Z</time>
      </trkpt>
      <trkpt lat="43.34329" lon="5.98149">
        <ele>434</ele>
        <time>2019-12-17T12:57:23.000Z</time>
      </trkpt>
      <trkpt lat="43.34328" lon="5.98148">
        <ele>434</ele>
        <time>2019-12-17T12:57:24.000Z</time>
      </trkpt>
      <trkpt lat="43.34328" lon="5.98147">
        <ele>433</ele>
        <time>2019-12-17T12:57:25.000Z</time>
      </trkpt>
      <trkpt lat="43.34327" lon="5.98146">
        <ele>433</ele>
        <time>2019-12-17T12:57:26.000Z</time>
      </trkpt>
      <trkpt lat="43.34326" lon="5.98145">
        <ele>433</ele>
        <time>2019-12-17T12:57:27.000Z</time>
      </trkpt>
      <trkpt lat="43.34326" lon="5.98144">
        <ele>433</ele>
        <time>2019-12-17T12:57:28.000Z</time>
      </trkpt>
      <trkpt lat="43.34325" lon="5.98143">
        <ele>433</ele>
        <time>2019-12-17T12:57:29.000Z</time>
      </trkpt>
      <trkpt lat="43.34324" lon="5.98143">
        <ele>433</ele>
        <time>2019-12-17T12:57:30.000Z</time>
      </trkpt>
      <trkpt lat="43.34324" lon="5.98143">
        <ele>432</ele>
        <time>2019-12-17T12:57:31.000Z</time>
      </trkpt>
      <trkpt lat="43.34323" lon="5.98142">
        <ele>432</ele>
        <time>2019-12-17T12:57:32.000Z</time>
      </trkpt>
      <trkpt lat="43.34322" lon="5.98142">
        <ele>432</ele>
        <time>2019-12-17T12:57:33.000Z</time>
      </trkpt>
      <trkpt lat="43.34321" lon="5.98141">
        <ele>432</ele>
        <time>2019-12-17T12:57:34.000Z</time>
      </trkpt>
      <trkpt lat="43.3432" lon="5.9814">
        <ele>431</ele>
        <time>2019-12-17T12:57:35.000Z</time>
      </trkpt>
      <trkpt lat="43.34319" lon="5.9814">
        <ele>431</ele>
        <time>2019-12-17T12:57:36.000Z</time>
      </trkpt>
      <trkpt lat="43.34318" lon="5.98139">
        <ele>431</ele>
        <time>2019-12-17T12:57:37.000Z</time>
      </trkpt>
      <trkpt lat="43.34318" lon="5.98139">
        <ele>431</ele>
        <time>2019-12-17T12:57:38.000Z</time>
      </trkpt>
      <trkpt lat="43.34317" lon="5.98139">
        <ele>430</ele>
        <time>2019-12-17T12:57:39.000Z</time>
      </trkpt>
      <trkpt lat="43.34316" lon="5.98139">
        <ele>430</ele>
        <time>2019-12-17T12:57:40.000Z</time>
      </trkpt>
      <trkpt lat="43.34315" lon="5.98138">
        <ele>430</ele>
        <time>2019-12-17T12:57:41.000Z</time>
      </trkpt>
      <trkpt lat="43.34315" lon="5.98138">
        <ele>430</ele>
        <time>2019-12-17T12:57:42.000Z</time>
      </trkpt>
      <trkpt lat="43.34314" lon="5.98137">
        <ele>429</ele>
        <time>2019-12-17T12:57:43.000Z</time>
      </trkpt>
      <trkpt lat="43.34313" lon="5.98137">
        <ele>429</ele>
        <time>2019-12-17T12:57:44.000Z</time>
      </trkpt>
      <trkpt lat="43.34313" lon="5.98136">
        <ele>429</ele>
        <time>2019-12-17T12:57:45.000Z</time>
      </trkpt>
      <trkpt lat="43.34312" lon="5.98136">
        <ele>429</ele>
        <time>2019-12-17T12:57:46.000Z</time>
      </trkpt>
      <trkpt lat="43.34311" lon="5.98136">
        <ele>429</ele>
        <time>2019-12-17T12:57:47.000Z</time>
      </trkpt>
      <trkpt lat="43.3431" lon="5.98136">
        <ele>429</ele>
        <time>2019-12-17T12:57:48.000Z</time>
      </trkpt>
      <trkpt lat="43.34309" lon="5.98135">
        <ele>429</ele>
        <time>2019-12-17T12:57:49.000Z</time>
      </trkpt>
      <trkpt lat="43.34308" lon="5.98135">
        <ele>428</ele>
        <time>2019-12-17T12:57:50.000Z</time>
      </trkpt>
      <trkpt lat="43.34307" lon="5.98135">
        <ele>428</ele>
        <time>2019-12-17T12:57:51.000Z</time>
      </trkpt>
      <trkpt lat="43.34306" lon="5.98135">
        <ele>428</ele>
        <time>2019-12-17T12:57:52.000Z</time>
      </trkpt>
      <trkpt lat="43.34305" lon="5.98135">
        <ele>428</ele>
        <time>2019-12-17T12:57:53.000Z</time>
      </trkpt>
      <trkpt lat="43.34304" lon="5.98134">
        <ele>428</ele>
        <time>2019-12-17T12:57:54.000Z</time>
      </trkpt>
      <trkpt lat="43.34303" lon="5.98134">
        <ele>428</ele>
        <time>2019-12-17T12:57:55.000Z</time>
      </trkpt>
      <trkpt lat="43.34302" lon="5.98134">
        <ele>428</ele>
        <time>2019-12-17T12:57:56.000Z</time>
      </trkpt>
      <trkpt lat="43.34301" lon="5.98134">
        <ele>428</ele>
        <time>2019-12-17T12:57:57.000Z</time>
      </trkpt>
      <trkpt lat="43.343" lon="5.98134">
        <ele>428</ele>
        <time>2019-12-17T12:57:58.000Z</time>
      </trkpt>
      <trkpt lat="43.34299" lon="5.98134">
        <ele>427</ele>
        <time>2019-12-17T12:57:59.000Z</time>
      </trkpt>
      <trkpt lat="43.34298" lon="5.98133">
        <ele>427</ele>
        <time>2019-12-17T12:58:00.000Z</time>
      </trkpt>
      <trkpt lat="43.34297" lon="5.98133">
        <ele>427</ele>
        <time>2019-12-17T12:58:01.000Z</time>
      </trkpt>
      <trkpt lat="43.34296" lon="5.98133">
        <ele>427</ele>
        <time>2019-12-17T12:58:02.000Z</time>
      </trkpt>
      <trkpt lat="43.34295" lon="5.98133">
        <ele>427</ele>
        <time>2019-12-17T12:58:03.000Z</time>
      </trkpt>
      <trkpt lat="43.34294" lon="5.98133">
        <ele>426</ele>
        <time>2019-12-17T12:58:04.000Z</time>
      </trkpt>
      <trkpt lat="43.34293" lon="5.98132">
        <ele>426</ele>
        <time>2019-12-17T12:58:05.000Z</time>
      </trkpt>
      <trkpt lat="43.34292" lon="5.98132">
        <ele>426</ele>
        <time>2019-12-17T12:58:06.000Z</time>
      </trkpt>
      <trkpt lat="43.34291" lon="5.98132">
        <ele>426</ele>
        <time>2019-12-17T12:58:07.000Z</time>
      </trkpt>
      <trkpt lat="43.3429" lon="5.98132">
        <ele>426</ele>
        <time>2019-12-17T12:58:08.000Z</time>
      </trkpt>
      <trkpt lat="43.34289" lon="5.98131">
        <ele>425</ele>
        <time>2019-12-17T12:58:09.000Z</time>
      </trkpt>
      <trkpt lat="43.34288" lon="5.98131">
        <ele>425</ele>
        <time>2019-12-17T12:58:10.000Z</time>
      </trkpt>
      <trkpt lat="43.34287" lon="5.98131">
        <ele>425</ele>
        <time>2019-12-17T12:58:11.000Z</time>
      </trkpt>
      <trkpt lat="43.34286" lon="5.98131">
        <ele>425</ele>
        <time>2019-12-17T12:58:12.000Z</time>
      </trkpt>
      <trkpt lat="43.34284" lon="5.98131">
        <ele>424</ele>
        <time>2019-12-17T12:58:13.000Z</time>
      </trkpt>
      <trkpt lat="43.34283" lon="5.98131">
        <ele>424</ele>
        <time>2019-12-17T12:58:14.000Z</time>
      </trkpt>
      <trkpt lat="43.34282" lon="5.98131">
        <ele>424</ele>
        <time>2019-12-17T12:58:15.000Z</time>
      </trkpt>
      <trkpt lat="43.34281" lon="5.9813">
        <ele>424</ele>
        <time>2019-12-17T12:58:16.000Z</time>
      </trkpt>
      <trkpt lat="43.3428" lon="5.9813">
        <ele>424</ele>
        <time>2019-12-17T12:58:17.000Z</time>
      </trkpt>
      <trkpt lat="43.34279" lon="5.9813">
        <ele>423</ele>
        <time>2019-12-17T12:58:18.000Z</time>
      </trkpt>
      <trkpt lat="43.34279" lon="5.98129">
        <ele>423</ele>
        <time>2019-12-17T12:58:19.000Z</time>
      </trkpt>
      <trkpt lat="43.34278" lon="5.98128">
        <ele>423</ele>
        <time>2019-12-17T12:58:20.000Z</time>
      </trkpt>
      <trkpt lat="43.34277" lon="5.98127">
        <ele>423</ele>
        <time>2019-12-17T12:58:21.000Z</time>
      </trkpt>
      <trkpt lat="43.34277" lon="5.98127">
        <ele>423</ele>
        <time>2019-12-17T12:58:22.000Z</time>
      </trkpt>
      <trkpt lat="43.34276" lon="5.98126">
        <ele>422</ele>
        <time>2019-12-17T12:58:23.000Z</time>
      </trkpt>
      <trkpt lat="43.34276" lon="5.98125">
        <ele>422</ele>
        <time>2019-12-17T12:58:24.000Z</time>
      </trkpt>
      <trkpt lat="43.34275" lon="5.98125">
        <ele>422</ele>
        <time>2019-12-17T12:58:25.000Z</time>
      </trkpt>
      <trkpt lat="43.34275" lon="5.98125">
        <ele>422</ele>
        <time>2019-12-17T12:58:26.000Z</time>
      </trkpt>
      <trkpt lat="43.34275" lon="5.98124">
        <ele>422</ele>
        <time>2019-12-17T12:58:27.000Z</time>
      </trkpt>
      <trkpt lat="43.34275" lon="5.98123">
        <ele>422</ele>
        <time>2019-12-17T12:58:28.000Z</time>
      </trkpt>
      <trkpt lat="43.34275" lon="5.98122">
        <ele>422</ele>
        <time>2019-12-17T12:58:29.000Z</time>
      </trkpt>
      <trkpt lat="43.34275" lon="5.98121">
        <ele>422</ele>
        <time>2019-12-17T12:58:30.000Z</time>
      </trkpt>
      <trkpt lat="43.34275" lon="5.9812">
        <ele>422</ele>
        <time>2019-12-17T12:58:31.000Z</time>
      </trkpt>
      <trkpt lat="43.34275" lon="5.98119">
        <ele>421</ele>
        <time>2019-12-17T12:58:32.000Z</time>
      </trkpt>
      <trkpt lat="43.34275" lon="5.98118">
        <ele>421</ele>
        <time>2019-12-17T12:58:33.000Z</time>
      </trkpt>
      <trkpt lat="43.34275" lon="5.98117">
        <ele>421</ele>
        <time>2019-12-17T12:58:34.000Z</time>
      </trkpt>
      <trkpt lat="43.34275" lon="5.98116">
        <ele>421</ele>
        <time>2019-12-17T12:58:35.000Z</time>
      </trkpt>
      <trkpt lat="43.34275" lon="5.98115">
        <ele>421</ele>
        <time>2019-12-17T12:58:36.000Z</time>
      </trkpt>
      <trkpt lat="43.34275" lon="5.98114">
        <ele>421</ele>
        <time>2019-12-17T12:58:37.000Z</time>
      </trkpt>
      <trkpt lat="43.34275" lon="5.98113">
        <ele>421</ele>
        <time>2019-12-17T12:58:38.000Z</time>
      </trkpt>
      <trkpt lat="43.34275" lon="5.98112">
        <ele>421</ele>
        <time>2019-12-17T12:58:39.000Z</time>
      </trkpt>
      <trkpt lat="43.34275" lon="5.98112">
        <ele>421</ele>
        <time>2019-12-17T12:58:40.000Z</time>
      </trkpt>
      <trkpt lat="43.34275" lon="5.98111">
        <ele>421</ele>
        <time>2019-12-17T12:58:41.000Z</time>
      </trkpt>
      <trkpt lat="43.34275" lon="5.98109">
        <ele>421</ele>
        <time>2019-12-17T12:58:42.000Z</time>
      </trkpt>
      <trkpt lat="43.34275" lon="5.98108">
        <ele>420</ele>
        <time>2019-12-17T12:58:43.000Z</time>
      </trkpt>
      <trkpt lat="43.34274" lon="5.98107">
        <ele>420</ele>
        <time>2019-12-17T12:58:44.000Z</time>
      </trkpt>
      <trkpt lat="43.34274" lon="5.98107">
        <ele>420</ele>
        <time>2019-12-17T12:58:45.000Z</time>
      </trkpt>
      <trkpt lat="43.34274" lon="5.98106">
        <ele>420</ele>
        <time>2019-12-17T12:58:46.000Z</time>
      </trkpt>
      <trkpt lat="43.34273" lon="5.98105">
        <ele>420</ele>
        <time>2019-12-17T12:58:47.000Z</time>
      </trkpt>
      <trkpt lat="43.34273" lon="5.98104">
        <ele>420</ele>
        <time>2019-12-17T12:58:48.000Z</time>
      </trkpt>
      <trkpt lat="43.34273" lon="5.98103">
        <ele>420</ele>
        <time>2019-12-17T12:58:49.000Z</time>
      </trkpt>
      <trkpt lat="43.34273" lon="5.98103">
        <ele>420</ele>
        <time>2019-12-17T12:58:50.000Z</time>
      </trkpt>
      <trkpt lat="43.34273" lon="5.98102">
        <ele>420</ele>
        <time>2019-12-17T12:58:51.000Z</time>
      </trkpt>
      <trkpt lat="43.34273" lon="5.98101">
        <ele>420</ele>
        <time>2019-12-17T12:58:52.000Z</time>
      </trkpt>
      <trkpt lat="43.34273" lon="5.981">
        <ele>420</ele>
        <time>2019-12-17T12:58:53.000Z</time>
      </trkpt>
      <trkpt lat="43.34273" lon="5.98099">
        <ele>420</ele>
        <time>2019-12-17T12:58:54.000Z</time>
      </trkpt>
      <trkpt lat="43.34273" lon="5.98098">
        <ele>420</ele>
        <time>2019-12-17T12:58:55.000Z</time>
      </trkpt>
      <trkpt lat="43.34272" lon="5.98097">
        <ele>420</ele>
        <time>2019-12-17T12:58:56.000Z</time>
      </trkpt>
      <trkpt lat="43.34272" lon="5.98096">
        <ele>420</ele>
        <time>2019-12-17T12:58:57.000Z</time>
      </trkpt>
      <trkpt lat="43.34272" lon="5.98095">
        <ele>420</ele>
        <time>2019-12-17T12:58:58.000Z</time>
      </trkpt>
      <trkpt lat="43.34271" lon="5.98094">
        <ele>419</ele>
        <time>2019-12-17T12:58:59.000Z</time>
      </trkpt>
      <trkpt lat="43.34271" lon="5.98094">
        <ele>419</ele>
        <time>2019-12-17T12:59:00.000Z</time>
      </trkpt>
      <trkpt lat="43.3427" lon="5.98092">
        <ele>419</ele>
        <time>2019-12-17T12:59:01.000Z</time>
      </trkpt>
      <trkpt lat="43.3427" lon="5.98091">
        <ele>419</ele>
        <time>2019-12-17T12:59:02.000Z</time>
      </trkpt>
      <trkpt lat="43.34269" lon="5.9809">
        <ele>419</ele>
        <time>2019-12-17T12:59:03.000Z</time>
      </trkpt>
      <trkpt lat="43.34268" lon="5.98089">
        <ele>419</ele>
        <time>2019-12-17T12:59:04.000Z</time>
      </trkpt>
      <trkpt lat="43.34268" lon="5.98088">
        <ele>419</ele>
        <time>2019-12-17T12:59:05.000Z</time>
      </trkpt>
      <trkpt lat="43.34267" lon="5.98087">
        <ele>419</ele>
        <time>2019-12-17T12:59:06.000Z</time>
      </trkpt>
      <trkpt lat="43.34266" lon="5.98086">
        <ele>418</ele>
        <time>2019-12-17T12:59:07.000Z</time>
      </trkpt>
      <trkpt lat="43.34266" lon="5.98086">
        <ele>418</ele>
        <time>2019-12-17T12:59:08.000Z</time>
      </trkpt>
      <trkpt lat="43.34265" lon="5.98085">
        <ele>418</ele>
        <time>2019-12-17T12:59:09.000Z</time>
      </trkpt>
      <trkpt lat="43.34264" lon="5.98084">
        <ele>418</ele>
        <time>2019-12-17T12:59:10.000Z</time>
      </trkpt>
      <trkpt lat="43.34264" lon="5.98083">
        <ele>418</ele>
        <time>2019-12-17T12:59:11.000Z</time>
      </trkpt>
      <trkpt lat="43.34263" lon="5.98083">
        <ele>418</ele>
        <time>2019-12-17T12:59:12.000Z</time>
      </trkpt>
      <trkpt lat="43.34263" lon="5.98082">
        <ele>418</ele>
        <time>2019-12-17T12:59:13.000Z</time>
      </trkpt>
      <trkpt lat="43.34262" lon="5.98081">
        <ele>417</ele>
        <time>2019-12-17T12:59:14.000Z</time>
      </trkpt>
      <trkpt lat="43.34262" lon="5.98081">
        <ele>417</ele>
        <time>2019-12-17T12:59:15.000Z</time>
      </trkpt>
      <trkpt lat="43.34261" lon="5.9808">
        <ele>417</ele>
        <time>2019-12-17T12:59:16.000Z</time>
      </trkpt>
      <trkpt lat="43.34261" lon="5.98079">
        <ele>417</ele>
        <time>2019-12-17T12:59:17.000Z</time>
      </trkpt>
      <trkpt lat="43.34261" lon="5.98078">
        <ele>417</ele>
        <time>2019-12-17T12:59:18.000Z</time>
      </trkpt>
      <trkpt lat="43.34261" lon="5.98078">
        <ele>417</ele>
        <time>2019-12-17T12:59:19.000Z</time>
      </trkpt>
      <trkpt lat="43.34261" lon="5.98077">
        <ele>417</ele>
        <time>2019-12-17T12:59:20.000Z</time>
      </trkpt>
      <trkpt lat="43.34261" lon="5.98076">
        <ele>417</ele>
        <time>2019-12-17T12:59:21.000Z</time>
      </trkpt>
      <trkpt lat="43.34261" lon="5.98075">
        <ele>417</ele>
        <time>2019-12-17T12:59:22.000Z</time>
      </trkpt>
      <trkpt lat="43.34261" lon="5.98074">
        <ele>416</ele>
        <time>2019-12-17T12:59:23.000Z</time>
      </trkpt>
      <trkpt lat="43.34262" lon="5.98073">
        <ele>416</ele>
        <time>2019-12-17T12:59:24.000Z</time>
      </trkpt>
      <trkpt lat="43.34262" lon="5.98072">
        <ele>416</ele>
        <time>2019-12-17T12:59:25.000Z</time>
      </trkpt>
      <trkpt lat="43.34262" lon="5.98071">
        <ele>416</ele>
        <time>2019-12-17T12:59:26.000Z</time>
      </trkpt>
      <trkpt lat="43.34263" lon="5.9807">
        <ele>416</ele>
        <time>2019-12-17T12:59:27.000Z</time>
      </trkpt>
      <trkpt lat="43.34263" lon="5.98069">
        <ele>416</ele>
        <time>2019-12-17T12:59:28.000Z</time>
      </trkpt>
      <trkpt lat="43.34263" lon="5.98068">
        <ele>416</ele>
        <time>2019-12-17T12:59:29.000Z</time>
      </trkpt>
      <trkpt lat="43.34264" lon="5.98067">
        <ele>416</ele>
        <time>2019-12-17T12:59:30.000Z</time>
      </trkpt>
      <trkpt lat="43.34264" lon="5.98066">
        <ele>416</ele>
        <time>2019-12-17T12:59:31.000Z</time>
      </trkpt>
      <trkpt lat="43.34264" lon="5.98065">
        <ele>416</ele>
        <time>2019-12-17T12:59:32.000Z</time>
      </trkpt>
      <trkpt lat="43.34265" lon="5.98064">
        <ele>416</ele>
        <time>2019-12-17T12:59:33.000Z</time>
      </trkpt>
      <trkpt lat="43.34265" lon="5.98064">
        <ele>416</ele>
        <time>2019-12-17T12:59:34.000Z</time>
      </trkpt>
      <trkpt lat="43.34266" lon="5.98063">
        <ele>416</ele>
        <time>2019-12-17T12:59:35.000Z</time>
      </trkpt>
      <trkpt lat="43.34266" lon="5.98062">
        <ele>416</ele>
        <time>2019-12-17T12:59:36.000Z</time>
      </trkpt>
      <trkpt lat="43.34266" lon="5.98061">
        <ele>415</ele>
        <time>2019-12-17T12:59:37.000Z</time>
      </trkpt>
      <trkpt lat="43.34266" lon="5.9806">
        <ele>415</ele>
        <time>2019-12-17T12:59:38.000Z</time>
      </trkpt>
      <trkpt lat="43.34267" lon="5.98059">
        <ele>415</ele>
        <time>2019-12-17T12:59:39.000Z</time>
      </trkpt>
      <trkpt lat="43.34267" lon="5.98059">
        <ele>415</ele>
        <time>2019-12-17T12:59:40.000Z</time>
      </trkpt>
      <trkpt lat="43.34267" lon="5.98058">
        <ele>415</ele>
        <time>2019-12-17T12:59:41.000Z</time>
      </trkpt>
      <trkpt lat="43.34267" lon="5.98057">
        <ele>415</ele>
        <time>2019-12-17T12:59:42.000Z</time>
      </trkpt>
      <trkpt lat="43.34267" lon="5.98057">
        <ele>415</ele>
        <time>2019-12-17T12:59:43.000Z</time>
      </trkpt>
      <trkpt lat="43.34267" lon="5.98057">
        <ele>415</ele>
        <time>2019-12-17T12:59:44.000Z</time>
      </trkpt>
      <trkpt lat="43.34267" lon="5.98056">
        <ele>415</ele>
        <time>2019-12-17T12:59:45.000Z</time>
      </trkpt>
      <trkpt lat="43.34267" lon="5.98056">
        <ele>415</ele>
        <time>2019-12-17T12:59:46.000Z</time>
      </trkpt>
      <trkpt lat="43.34267" lon="5.98056">
        <ele>415</ele>
        <time>2019-12-17T12:59:47.000Z</time>
      </trkpt>
      <trkpt lat="43.34267" lon="5.98055">
        <ele>415</ele>
        <time>2019-12-17T12:59:48.000Z</time>
      </trkpt>
      <trkpt lat="43.34268" lon="5.98054">
        <ele>414</ele>
        <time>2019-12-17T12:59:49.000Z</time>
      </trkpt>
      <trkpt lat="43.34268" lon="5.98053">
        <ele>414</ele>
        <time>2019-12-17T12:59:50.000Z</time>
      </trkpt>
      <trkpt lat="43.34268" lon="5.98052">
        <ele>414</ele>
        <time>2019-12-17T12:59:51.000Z</time>
      </trkpt>
      <trkpt lat="43.34269" lon="5.98051">
        <ele>414</ele>
        <time>2019-12-17T12:59:52.000Z</time>
      </trkpt>
      <trkpt lat="43.3427" lon="5.98051">
        <ele>414</ele>
        <time>2019-12-17T12:59:53.000Z</time>
      </trkpt>
      <trkpt lat="43.3427" lon="5.98051">
        <ele>414</ele>
        <time>2019-12-17T12:59:54.000Z</time>
      </trkpt>
      <trkpt lat="43.34271" lon="5.98051">
        <ele>414</ele>
        <time>2019-12-17T12:59:55.000Z</time>
      </trkpt>
      <trkpt lat="43.34271" lon="5.98052">
        <ele>414</ele>
        <time>2019-12-17T12:59:56.000Z</time>
      </trkpt>
      <trkpt lat="43.34271" lon="5.98051">
        <ele>413</ele>
        <time>2019-12-17T12:59:57.000Z</time>
      </trkpt>
      <trkpt lat="43.34271" lon="5.98051">
        <ele>413</ele>
        <time>2019-12-17T12:59:58.000Z</time>
      </trkpt>
      <trkpt lat="43.34271" lon="5.98051">
        <ele>413</ele>
        <time>2019-12-17T12:59:59.000Z</time>
      </trkpt>
      <trkpt lat="43.34271" lon="5.98051">
        <ele>413</ele>
        <time>2019-12-17T13:00:00.000Z</time>
      </trkpt>
      <trkpt lat="43.34271" lon="5.98051">
        <ele>413</ele>
        <time>2019-12-17T13:00:01.000Z</time>
      </trkpt>
      <trkpt lat="43.34271" lon="5.98051">
        <ele>413</ele>
        <time>2019-12-17T13:00:02.000Z</time>
      </trkpt>
      <trkpt lat="43.34271" lon="5.98051">
        <ele>412</ele>
        <time>2019-12-17T13:00:03.000Z</time>
      </trkpt>
      <trkpt lat="43.34271" lon="5.98051">
        <ele>412</ele>
        <time>2019-12-17T13:00:04.000Z</time>
      </trkpt>
      <trkpt lat="43.34271" lon="5.98051">
        <ele>412</ele>
        <time>2019-12-17T13:00:05.000Z</time>
      </trkpt>
      <trkpt lat="43.34271" lon="5.98051">
        <ele>412</ele>
        <time>2019-12-17T13:00:06.000Z</time>
      </trkpt>
      <trkpt lat="43.34272" lon="5.98051">
        <ele>412</ele>
        <time>2019-12-17T13:00:07.000Z</time>
      </trkpt>
      <trkpt lat="43.34272" lon="5.98051">
        <ele>412</ele>
        <time>2019-12-17T13:00:08.000Z</time>
      </trkpt>
      <trkpt lat="43.34272" lon="5.98051">
        <ele>411</ele>
        <time>2019-12-17T13:00:09.000Z</time>
      </trkpt>
      <trkpt lat="43.34272" lon="5.98051">
        <ele>411</ele>
        <time>2019-12-17T13:00:10.000Z</time>
      </trkpt>
      <trkpt lat="43.34272" lon="5.98051">
        <ele>411</ele>
        <time>2019-12-17T13:00:11.000Z</time>
      </trkpt>
      <trkpt lat="43.34272" lon="5.98051">
        <ele>411</ele>
        <time>2019-12-17T13:00:12.000Z</time>
      </trkpt>
      <trkpt lat="43.34272" lon="5.98051">
        <ele>411</ele>
        <time>2019-12-17T13:00:13.000Z</time>
      </trkpt>
      <trkpt lat="43.34272" lon="5.98051">
        <ele>411</ele>
        <time>2019-12-17T13:00:14.000Z</time>
      </trkpt>
      <trkpt lat="43.34272" lon="5.98051">
        <ele>411</ele>
        <time>2019-12-17T13:00:15.000Z</time>
      </trkpt>
      <trkpt lat="43.34272" lon="5.98051">
        <ele>411</ele>
        <time>2019-12-17T13:00:16.000Z</time>
      </trkpt>
      <trkpt lat="43.34273" lon="5.98051">
        <ele>411</ele>
        <time>2019-12-17T13:00:17.000Z</time>
      </trkpt>
      <trkpt lat="43.34273" lon="5.98051">
        <ele>411</ele>
        <time>2019-12-17T13:00:18.000Z</time>
      </trkpt>
      <trkpt lat="43.34273" lon="5.98051">
        <ele>410</ele>
        <time>2019-12-17T13:00:19.000Z</time>
      </trkpt>
      <trkpt lat="43.34273" lon="5.98051">
        <ele>410</ele>
        <time>2019-12-17T13:00:20.000Z</time>
      </trkpt>
      <trkpt lat="43.34273" lon="5.98051">
        <ele>410</ele>
        <time>2019-12-17T13:00:21.000Z</time>
      </trkpt>
      <trkpt lat="43.34273" lon="5.98051">
        <ele>410</ele>
        <time>2019-12-17T13:00:22.000Z</time>
      </trkpt>
      <trkpt lat="43.34273" lon="5.98051">
        <ele>410</ele>
        <time>2019-12-17T13:00:23.000Z</time>
      </trkpt>
      <trkpt lat="43.34273" lon="5.98051">
        <ele>410</ele>
        <time>2019-12-17T13:00:24.000Z</time>
      </trkpt>
      <trkpt lat="43.34273" lon="5.98051">
        <ele>410</ele>
        <time>2019-12-17T13:00:25.000Z</time>
      </trkpt>
      <trkpt lat="43.34273" lon="5.98051">
        <ele>410</ele>
        <time>2019-12-17T13:00:26.000Z</time>
      </trkpt>
      <trkpt lat="43.34273" lon="5.98051">
        <ele>410</ele>
        <time>2019-12-17T13:00:27.000Z</time>
      </trkpt>
      <trkpt lat="43.34273" lon="5.98051">
        <ele>410</ele>
        <time>2019-12-17T13:00:28.000Z</time>
      </trkpt>
      <trkpt lat="43.34273" lon="5.98051">
        <ele>410</ele>
        <time>2019-12-17T13:00:29.000Z</time>
      </trkpt>
      <trkpt lat="43.34273" lon="5.98051">
        <ele>410</ele>
        <time>2019-12-17T13:00:30.000Z</time>
      </trkpt>
      <trkpt lat="43.34273" lon="5.98051">
        <ele>410</ele>
        <time>2019-12-17T13:00:31.000Z</time>
      </trkpt>
      <trkpt lat="43.34273" lon="5.98051">
        <ele>410</ele>
        <time>2019-12-17T13:00:32.000Z</time>
      </trkpt>
      <trkpt lat="43.34273" lon="5.98052">
        <ele>410</ele>
        <time>2019-12-17T13:00:33.000Z</time>
      </trkpt>
      <trkpt lat="43.34273" lon="5.98052">
        <ele>410</ele>
        <time>2019-12-17T13:00:34.000Z</time>
      </trkpt>
      <trkpt lat="43.34273" lon="5.98052">
        <ele>410</ele>
        <time>2019-12-17T13:00:35.000Z</time>
      </trkpt>
      <trkpt lat="43.34273" lon="5.98052">
        <ele>410</ele>
        <time>2019-12-17T13:00:36.000Z</time>
      </trkpt>
      <trkpt lat="43.34273" lon="5.98052">
        <ele>410</ele>
        <time>2019-12-17T13:00:37.000Z</time>
      </trkpt>
      <trkpt lat="43.34273" lon="5.98052">
        <ele>409</ele>
        <time>2019-12-17T13:00:38.000Z</time>
      </trkpt>
      <trkpt lat="43.34273" lon="5.98052">
        <ele>409</ele>
        <time>2019-12-17T13:00:39.000Z</time>
      </trkpt>
      <trkpt lat="43.34272" lon="5.98051">
        <ele>409</ele>
        <time>2019-12-17T13:00:40.000Z</time>
      </trkpt>
      <trkpt lat="43.34272" lon="5.98051">
        <ele>409</ele>
        <time>2019-12-17T13:00:41.000Z</time>
      </trkpt>
      <trkpt lat="43.34272" lon="5.9805">
        <ele>409</ele>
        <time>2019-12-17T13:00:42.000Z</time>
      </trkpt>
      <trkpt lat="43.34271" lon="5.98049">
        <ele>409</ele>
        <time>2019-12-17T13:00:43.000Z</time>
      </trkpt>
      <trkpt lat="43.34271" lon="5.98048">
        <ele>409</ele>
        <time>2019-12-17T13:00:44.000Z</time>
      </trkpt>
      <trkpt lat="43.34271" lon="5.98047">
        <ele>409</ele>
        <time>2019-12-17T13:00:45.000Z</time>
      </trkpt>
      <trkpt lat="43.34271" lon="5.98046">
        <ele>409</ele>
        <time>2019-12-17T13:00:46.000Z</time>
      </trkpt>
      <trkpt lat="43.34271" lon="5.98045">
        <ele>409</ele>
        <time>2019-12-17T13:00:47.000Z</time>
      </trkpt>
      <trkpt lat="43.34271" lon="5.98044">
        <ele>409</ele>
        <time>2019-12-17T13:00:48.000Z</time>
      </trkpt>
      <trkpt lat="43.34271" lon="5.98043">
        <ele>408</ele>
        <time>2019-12-17T13:00:49.000Z</time>
      </trkpt>
      <trkpt lat="43.3427" lon="5.98042">
        <ele>408</ele>
        <time>2019-12-17T13:00:50.000Z</time>
      </trkpt>
      <trkpt lat="43.3427" lon="5.98042">
        <ele>408</ele>
        <time>2019-12-17T13:00:51.000Z</time>
      </trkpt>
      <trkpt lat="43.34269" lon="5.98041">
        <ele>408</ele>
        <time>2019-12-17T13:00:52.000Z</time>
      </trkpt>
      <trkpt lat="43.34268" lon="5.9804">
        <ele>408</ele>
        <time>2019-12-17T13:00:53.000Z</time>
      </trkpt>
      <trkpt lat="43.34268" lon="5.98039">
        <ele>408</ele>
        <time>2019-12-17T13:00:54.000Z</time>
      </trkpt>
      <trkpt lat="43.34268" lon="5.98039">
        <ele>408</ele>
        <time>2019-12-17T13:00:55.000Z</time>
      </trkpt>
      <trkpt lat="43.34268" lon="5.98039">
        <ele>408</ele>
        <time>2019-12-17T13:00:56.000Z</time>
      </trkpt>
      <trkpt lat="43.34268" lon="5.98038">
        <ele>408</ele>
        <time>2019-12-17T13:00:57.000Z</time>
      </trkpt>
      <trkpt lat="43.34268" lon="5.98037">
        <ele>407</ele>
        <time>2019-12-17T13:00:58.000Z</time>
      </trkpt>
      <trkpt lat="43.34268" lon="5.98036">
        <ele>407</ele>
        <time>2019-12-17T13:00:59.000Z</time>
      </trkpt>
      <trkpt lat="43.34268" lon="5.98034">
        <ele>407</ele>
        <time>2019-12-17T13:01:00.000Z</time>
      </trkpt>
      <trkpt lat="43.34268" lon="5.98032">
        <ele>407</ele>
        <time>2019-12-17T13:01:01.000Z</time>
      </trkpt>
      <trkpt lat="43.34268" lon="5.9803">
        <ele>407</ele>
        <time>2019-12-17T13:01:02.000Z</time>
      </trkpt>
      <trkpt lat="43.34268" lon="5.98028">
        <ele>407</ele>
        <time>2019-12-17T13:01:03.000Z</time>
      </trkpt>
      <trkpt lat="43.34267" lon="5.98026">
        <ele>407</ele>
        <time>2019-12-17T13:01:04.000Z</time>
      </trkpt>
      <trkpt lat="43.34267" lon="5.98023">
        <ele>407</ele>
        <time>2019-12-17T13:01:05.000Z</time>
      </trkpt>
      <trkpt lat="43.34267" lon="5.98021">
        <ele>406</ele>
        <time>2019-12-17T13:01:06.000Z</time>
      </trkpt>
      <trkpt lat="43.34266" lon="5.98019">
        <ele>406</ele>
        <time>2019-12-17T13:01:07.000Z</time>
      </trkpt>
      <trkpt lat="43.34266" lon="5.98017">
        <ele>406</ele>
        <time>2019-12-17T13:01:08.000Z</time>
      </trkpt>
      <trkpt lat="43.34266" lon="5.98015">
        <ele>406</ele>
        <time>2019-12-17T13:01:09.000Z</time>
      </trkpt>
      <trkpt lat="43.34265" lon="5.98013">
        <ele>406</ele>
        <time>2019-12-17T13:01:10.000Z</time>
      </trkpt>
      <trkpt lat="43.34265" lon="5.98011">
        <ele>405</ele>
        <time>2019-12-17T13:01:11.000Z</time>
      </trkpt>
      <trkpt lat="43.34264" lon="5.98009">
        <ele>405</ele>
        <time>2019-12-17T13:01:12.000Z</time>
      </trkpt>
      <trkpt lat="43.34264" lon="5.98007">
        <ele>405</ele>
        <time>2019-12-17T13:01:13.000Z</time>
      </trkpt>
      <trkpt lat="43.34264" lon="5.98005">
        <ele>405</ele>
        <time>2019-12-17T13:01:14.000Z</time>
      </trkpt>
      <trkpt lat="43.34263" lon="5.98003">
        <ele>404</ele>
        <time>2019-12-17T13:01:15.000Z</time>
      </trkpt>
      <trkpt lat="43.34263" lon="5.98001">
        <ele>404</ele>
        <time>2019-12-17T13:01:16.000Z</time>
      </trkpt>
      <trkpt lat="43.34263" lon="5.97999">
        <ele>404</ele>
        <time>2019-12-17T13:01:17.000Z</time>
      </trkpt>
      <trkpt lat="43.34263" lon="5.97997">
        <ele>404</ele>
        <time>2019-12-17T13:01:18.000Z</time>
      </trkpt>
      <trkpt lat="43.34263" lon="5.97995">
        <ele>403</ele>
        <time>2019-12-17T13:01:19.000Z</time>
      </trkpt>
      <trkpt lat="43.34263" lon="5.97994">
        <ele>403</ele>
        <time>2019-12-17T13:01:20.000Z</time>
      </trkpt>
      <trkpt lat="43.34263" lon="5.97992">
        <ele>403</ele>
        <time>2019-12-17T13:01:21.000Z</time>
      </trkpt>
      <trkpt lat="43.34263" lon="5.9799">
        <ele>402</ele>
        <time>2019-12-17T13:01:22.000Z</time>
      </trkpt>
      <trkpt lat="43.34263" lon="5.97988">
        <ele>402</ele>
        <time>2019-12-17T13:01:23.000Z</time>
      </trkpt>
      <trkpt lat="43.34262" lon="5.97986">
        <ele>402</ele>
        <time>2019-12-17T13:01:24.000Z</time>
      </trkpt>
      <trkpt lat="43.34263" lon="5.97984">
        <ele>402</ele>
        <time>2019-12-17T13:01:25.000Z</time>
      </trkpt>
      <trkpt lat="43.34263" lon="5.97982">
        <ele>402</ele>
        <time>2019-12-17T13:01:26.000Z</time>
      </trkpt>
      <trkpt lat="43.34263" lon="5.97981">
        <ele>402</ele>
        <time>2019-12-17T13:01:27.000Z</time>
      </trkpt>
      <trkpt lat="43.34263" lon="5.97979">
        <ele>401</ele>
        <time>2019-12-17T13:01:28.000Z</time>
      </trkpt>
      <trkpt lat="43.34262" lon="5.97977">
        <ele>401</ele>
        <time>2019-12-17T13:01:29.000Z</time>
      </trkpt>
      <trkpt lat="43.34262" lon="5.97975">
        <ele>401</ele>
        <time>2019-12-17T13:01:30.000Z</time>
      </trkpt>
      <trkpt lat="43.34262" lon="5.97973">
        <ele>401</ele>
        <time>2019-12-17T13:01:31.000Z</time>
      </trkpt>
      <trkpt lat="43.34263" lon="5.97972">
        <ele>401</ele>
        <time>2019-12-17T13:01:32.000Z</time>
      </trkpt>
      <trkpt lat="43.34263" lon="5.9797">
        <ele>401</ele>
        <time>2019-12-17T13:01:33.000Z</time>
      </trkpt>
      <trkpt lat="43.34263" lon="5.97969">
        <ele>401</ele>
        <time>2019-12-17T13:01:34.000Z</time>
      </trkpt>
      <trkpt lat="43.34263" lon="5.97968">
        <ele>401</ele>
        <time>2019-12-17T13:01:35.000Z</time>
      </trkpt>
      <trkpt lat="43.34263" lon="5.97967">
        <ele>401</ele>
        <time>2019-12-17T13:01:36.000Z</time>
      </trkpt>
      <trkpt lat="43.34263" lon="5.97967">
        <ele>401</ele>
        <time>2019-12-17T13:01:37.000Z</time>
      </trkpt>
      <trkpt lat="43.34263" lon="5.97966">
        <ele>401</ele>
        <time>2019-12-17T13:01:38.000Z</time>
      </trkpt>
      <trkpt lat="43.34263" lon="5.97965">
        <ele>401</ele>
        <time>2019-12-17T13:01:39.000Z</time>
      </trkpt>
      <trkpt lat="43.34264" lon="5.97963">
        <ele>400</ele>
        <time>2019-12-17T13:01:40.000Z</time>
      </trkpt>
      <trkpt lat="43.34264" lon="5.97961">
        <ele>400</ele>
        <time>2019-12-17T13:01:41.000Z</time>
      </trkpt>
      <trkpt lat="43.34264" lon="5.9796">
        <ele>400</ele>
        <time>2019-12-17T13:01:42.000Z</time>
      </trkpt>
      <trkpt lat="43.34264" lon="5.97958">
        <ele>400</ele>
        <time>2019-12-17T13:01:43.000Z</time>
      </trkpt>
      <trkpt lat="43.34264" lon="5.97957">
        <ele>400</ele>
        <time>2019-12-17T13:01:44.000Z</time>
      </trkpt>
      <trkpt lat="43.34265" lon="5.97955">
        <ele>400</ele>
        <time>2019-12-17T13:01:45.000Z</time>
      </trkpt>
      <trkpt lat="43.34265" lon="5.97954">
        <ele>400</ele>
        <time>2019-12-17T13:01:46.000Z</time>
      </trkpt>
      <trkpt lat="43.34265" lon="5.97953">
        <ele>400</ele>
        <time>2019-12-17T13:01:47.000Z</time>
      </trkpt>
      <trkpt lat="43.34265" lon="5.97951">
        <ele>400</ele>
        <time>2019-12-17T13:01:48.000Z</time>
      </trkpt>
      <trkpt lat="43.34265" lon="5.9795">
        <ele>400</ele>
        <time>2019-12-17T13:01:49.000Z</time>
      </trkpt>
      <trkpt lat="43.34266" lon="5.97949">
        <ele>400</ele>
        <time>2019-12-17T13:01:50.000Z</time>
      </trkpt>
      <trkpt lat="43.34266" lon="5.97947">
        <ele>400</ele>
        <time>2019-12-17T13:01:51.000Z</time>
      </trkpt>
      <trkpt lat="43.34266" lon="5.97946">
        <ele>400</ele>
        <time>2019-12-17T13:01:52.000Z</time>
      </trkpt>
      <trkpt lat="43.34267" lon="5.97945">
        <ele>399</ele>
        <time>2019-12-17T13:01:53.000Z</time>
      </trkpt>
      <trkpt lat="43.34267" lon="5.97943">
        <ele>399</ele>
        <time>2019-12-17T13:01:54.000Z</time>
      </trkpt>
      <trkpt lat="43.34267" lon="5.97942">
        <ele>399</ele>
        <time>2019-12-17T13:01:55.000Z</time>
      </trkpt>
      <trkpt lat="43.34268" lon="5.97941">
        <ele>399</ele>
        <time>2019-12-17T13:01:56.000Z</time>
      </trkpt>
      <trkpt lat="43.34268" lon="5.97939">
        <ele>399</ele>
        <time>2019-12-17T13:01:57.000Z</time>
      </trkpt>
      <trkpt lat="43.34269" lon="5.97938">
        <ele>399</ele>
        <time>2019-12-17T13:01:58.000Z</time>
      </trkpt>
      <trkpt lat="43.3427" lon="5.97937">
        <ele>399</ele>
        <time>2019-12-17T13:01:59.000Z</time>
      </trkpt>
      <trkpt lat="43.3427" lon="5.97935">
        <ele>399</ele>
        <time>2019-12-17T13:02:00.000Z</time>
      </trkpt>
      <trkpt lat="43.3427" lon="5.97934">
        <ele>399</ele>
        <time>2019-12-17T13:02:01.000Z</time>
      </trkpt>
      <trkpt lat="43.3427" lon="5.97933">
        <ele>398</ele>
        <time>2019-12-17T13:02:02.000Z</time>
      </trkpt>
      <trkpt lat="43.3427" lon="5.97932">
        <ele>398</ele>
        <time>2019-12-17T13:02:03.000Z</time>
      </trkpt>
      <trkpt lat="43.34271" lon="5.9793">
        <ele>398</ele>
        <time>2019-12-17T13:02:04.000Z</time>
      </trkpt>
      <trkpt lat="43.34271" lon="5.97929">
        <ele>398</ele>
        <time>2019-12-17T13:02:05.000Z</time>
      </trkpt>
      <trkpt lat="43.34271" lon="5.97928">
        <ele>398</ele>
        <time>2019-12-17T13:02:06.000Z</time>
      </trkpt>
      <trkpt lat="43.34272" lon="5.97927">
        <ele>398</ele>
        <time>2019-12-17T13:02:07.000Z</time>
      </trkpt>
      <trkpt lat="43.34272" lon="5.97926">
        <ele>398</ele>
        <time>2019-12-17T13:02:08.000Z</time>
      </trkpt>
      <trkpt lat="43.34272" lon="5.97925">
        <ele>397</ele>
        <time>2019-12-17T13:02:09.000Z</time>
      </trkpt>
      <trkpt lat="43.34272" lon="5.97924">
        <ele>397</ele>
        <time>2019-12-17T13:02:10.000Z</time>
      </trkpt>
      <trkpt lat="43.34272" lon="5.97922">
        <ele>397</ele>
        <time>2019-12-17T13:02:11.000Z</time>
      </trkpt>
      <trkpt lat="43.34272" lon="5.97921">
        <ele>397</ele>
        <time>2019-12-17T13:02:12.000Z</time>
      </trkpt>
      <trkpt lat="43.34272" lon="5.9792">
        <ele>397</ele>
        <time>2019-12-17T13:02:13.000Z</time>
      </trkpt>
      <trkpt lat="43.34272" lon="5.97919">
        <ele>397</ele>
        <time>2019-12-17T13:02:14.000Z</time>
      </trkpt>
      <trkpt lat="43.34272" lon="5.97917">
        <ele>397</ele>
        <time>2019-12-17T13:02:15.000Z</time>
      </trkpt>
      <trkpt lat="43.34272" lon="5.97916">
        <ele>397</ele>
        <time>2019-12-17T13:02:16.000Z</time>
      </trkpt>
      <trkpt lat="43.34272" lon="5.97915">
        <ele>397</ele>
        <time>2019-12-17T13:02:17.000Z</time>
      </trkpt>
      <trkpt lat="43.34271" lon="5.97914">
        <ele>397</ele>
        <time>2019-12-17T13:02:18.000Z</time>
      </trkpt>
      <trkpt lat="43.34271" lon="5.97912">
        <ele>397</ele>
        <time>2019-12-17T13:02:19.000Z</time>
      </trkpt>
      <trkpt lat="43.34271" lon="5.97911">
        <ele>397</ele>
        <time>2019-12-17T13:02:20.000Z</time>
      </trkpt>
      <trkpt lat="43.3427" lon="5.9791">
        <ele>397</ele>
        <time>2019-12-17T13:02:21.000Z</time>
      </trkpt>
      <trkpt lat="43.3427" lon="5.97908">
        <ele>397</ele>
        <time>2019-12-17T13:02:22.000Z</time>
      </trkpt>
      <trkpt lat="43.3427" lon="5.97907">
        <ele>397</ele>
        <time>2019-12-17T13:02:23.000Z</time>
      </trkpt>
      <trkpt lat="43.34269" lon="5.97905">
        <ele>397</ele>
        <time>2019-12-17T13:02:24.000Z</time>
      </trkpt>
      <trkpt lat="43.34269" lon="5.97904">
        <ele>397</ele>
        <time>2019-12-17T13:02:25.000Z</time>
      </trkpt>
      <trkpt lat="43.34269" lon="5.97902">
        <ele>397</ele>
        <time>2019-12-17T13:02:26.000Z</time>
      </trkpt>
      <trkpt lat="43.34268" lon="5.97901">
        <ele>397</ele>
        <time>2019-12-17T13:02:27.000Z</time>
      </trkpt>
      <trkpt lat="43.34268" lon="5.97899">
        <ele>397</ele>
        <time>2019-12-17T13:02:28.000Z</time>
      </trkpt>
      <trkpt lat="43.34268" lon="5.97898">
        <ele>397</ele>
        <time>2019-12-17T13:02:29.000Z</time>
      </trkpt>
      <trkpt lat="43.34267" lon="5.97897">
        <ele>397</ele>
        <time>2019-12-17T13:02:30.000Z</time>
      </trkpt>
      <trkpt lat="43.34267" lon="5.97896">
        <ele>397</ele>
        <time>2019-12-17T13:02:31.000Z</time>
      </trkpt>
      <trkpt lat="43.34267" lon="5.97895">
        <ele>397</ele>
        <time>2019-12-17T13:02:32.000Z</time>
      </trkpt>
      <trkpt lat="43.34266" lon="5.97893">
        <ele>397</ele>
        <time>2019-12-17T13:02:33.000Z</time>
      </trkpt>
      <trkpt lat="43.34265" lon="5.97892">
        <ele>397</ele>
        <time>2019-12-17T13:02:34.000Z</time>
      </trkpt>
      <trkpt lat="43.34265" lon="5.9789">
        <ele>397</ele>
        <time>2019-12-17T13:02:35.000Z</time>
      </trkpt>
      <trkpt lat="43.34264" lon="5.97889">
        <ele>397</ele>
        <time>2019-12-17T13:02:36.000Z</time>
      </trkpt>
      <trkpt lat="43.34264" lon="5.97888">
        <ele>397</ele>
        <time>2019-12-17T13:02:37.000Z</time>
      </trkpt>
      <trkpt lat="43.34263" lon="5.97886">
        <ele>397</ele>
        <time>2019-12-17T13:02:38.000Z</time>
      </trkpt>
      <trkpt lat="43.34263" lon="5.97885">
        <ele>397</ele>
        <time>2019-12-17T13:02:39.000Z</time>
      </trkpt>
      <trkpt lat="43.34262" lon="5.97884">
        <ele>397</ele>
        <time>2019-12-17T13:02:40.000Z</time>
      </trkpt>
      <trkpt lat="43.34262" lon="5.97883">
        <ele>397</ele>
        <time>2019-12-17T13:02:41.000Z</time>
      </trkpt>
      <trkpt lat="43.34261" lon="5.97882">
        <ele>397</ele>
        <time>2019-12-17T13:02:42.000Z</time>
      </trkpt>
      <trkpt lat="43.34261" lon="5.9788">
        <ele>397</ele>
        <time>2019-12-17T13:02:43.000Z</time>
      </trkpt>
      <trkpt lat="43.3426" lon="5.97879">
        <ele>397</ele>
        <time>2019-12-17T13:02:44.000Z</time>
      </trkpt>
      <trkpt lat="43.3426" lon="5.97878">
        <ele>397</ele>
        <time>2019-12-17T13:02:45.000Z</time>
      </trkpt>
      <trkpt lat="43.34259" lon="5.97877">
        <ele>397</ele>
        <time>2019-12-17T13:02:46.000Z</time>
      </trkpt>
      <trkpt lat="43.34258" lon="5.97876">
        <ele>396</ele>
        <time>2019-12-17T13:02:47.000Z</time>
      </trkpt>
      <trkpt lat="43.34258" lon="5.97875">
        <ele>396</ele>
        <time>2019-12-17T13:02:48.000Z</time>
      </trkpt>
      <trkpt lat="43.34257" lon="5.97873">
        <ele>396</ele>
        <time>2019-12-17T13:02:49.000Z</time>
      </trkpt>
      <trkpt lat="43.34257" lon="5.97872">
        <ele>396</ele>
        <time>2019-12-17T13:02:50.000Z</time>
      </trkpt>
      <trkpt lat="43.34256" lon="5.97871">
        <ele>396</ele>
        <time>2019-12-17T13:02:51.000Z</time>
      </trkpt>
      <trkpt lat="43.34255" lon="5.9787">
        <ele>396</ele>
        <time>2019-12-17T13:02:52.000Z</time>
      </trkpt>
      <trkpt lat="43.34255" lon="5.97869">
        <ele>396</ele>
        <time>2019-12-17T13:02:53.000Z</time>
      </trkpt>
      <trkpt lat="43.34254" lon="5.97867">
        <ele>396</ele>
        <time>2019-12-17T13:02:54.000Z</time>
      </trkpt>
      <trkpt lat="43.34254" lon="5.97866">
        <ele>396</ele>
        <time>2019-12-17T13:02:55.000Z</time>
      </trkpt>
      <trkpt lat="43.34253" lon="5.97865">
        <ele>396</ele>
        <time>2019-12-17T13:02:56.000Z</time>
      </trkpt>
      <trkpt lat="43.34252" lon="5.97864">
        <ele>396</ele>
        <time>2019-12-17T13:02:57.000Z</time>
      </trkpt>
      <trkpt lat="43.34252" lon="5.97862">
        <ele>396</ele>
        <time>2019-12-17T13:02:58.000Z</time>
      </trkpt>
      <trkpt lat="43.34251" lon="5.97861">
        <ele>395</ele>
        <time>2019-12-17T13:02:59.000Z</time>
      </trkpt>
      <trkpt lat="43.34251" lon="5.97859">
        <ele>395</ele>
        <time>2019-12-17T13:03:00.000Z</time>
      </trkpt>
      <trkpt lat="43.3425" lon="5.97858">
        <ele>395</ele>
        <time>2019-12-17T13:03:01.000Z</time>
      </trkpt>
      <trkpt lat="43.3425" lon="5.97856">
        <ele>395</ele>
        <time>2019-12-17T13:03:02.000Z</time>
      </trkpt>
      <trkpt lat="43.3425" lon="5.97855">
        <ele>395</ele>
        <time>2019-12-17T13:03:03.000Z</time>
      </trkpt>
      <trkpt lat="43.34249" lon="5.97854">
        <ele>395</ele>
        <time>2019-12-17T13:03:04.000Z</time>
      </trkpt>
      <trkpt lat="43.34249" lon="5.97853">
        <ele>395</ele>
        <time>2019-12-17T13:03:05.000Z</time>
      </trkpt>
      <trkpt lat="43.34248" lon="5.97852">
        <ele>394</ele>
        <time>2019-12-17T13:03:06.000Z</time>
      </trkpt>
      <trkpt lat="43.34248" lon="5.9785">
        <ele>394</ele>
        <time>2019-12-17T13:03:07.000Z</time>
      </trkpt>
      <trkpt lat="43.34247" lon="5.97849">
        <ele>394</ele>
        <time>2019-12-17T13:03:08.000Z</time>
      </trkpt>
      <trkpt lat="43.34247" lon="5.97848">
        <ele>394</ele>
        <time>2019-12-17T13:03:09.000Z</time>
      </trkpt>
      <trkpt lat="43.34246" lon="5.97847">
        <ele>394</ele>
        <time>2019-12-17T13:03:10.000Z</time>
      </trkpt>
      <trkpt lat="43.34246" lon="5.97846">
        <ele>394</ele>
        <time>2019-12-17T13:03:11.000Z</time>
      </trkpt>
      <trkpt lat="43.34245" lon="5.97844">
        <ele>394</ele>
        <time>2019-12-17T13:03:12.000Z</time>
      </trkpt>
      <trkpt lat="43.34245" lon="5.97843">
        <ele>393</ele>
        <time>2019-12-17T13:03:13.000Z</time>
      </trkpt>
      <trkpt lat="43.34244" lon="5.97841">
        <ele>393</ele>
        <time>2019-12-17T13:03:14.000Z</time>
      </trkpt>
      <trkpt lat="43.34244" lon="5.9784">
        <ele>393</ele>
        <time>2019-12-17T13:03:15.000Z</time>
      </trkpt>
      <trkpt lat="43.34243" lon="5.97838">
        <ele>393</ele>
        <time>2019-12-17T13:03:16.000Z</time>
      </trkpt>
      <trkpt lat="43.34243" lon="5.97837">
        <ele>393</ele>
        <time>2019-12-17T13:03:17.000Z</time>
      </trkpt>
      <trkpt lat="43.34242" lon="5.97836">
        <ele>393</ele>
        <time>2019-12-17T13:03:18.000Z</time>
      </trkpt>
      <trkpt lat="43.34241" lon="5.97835">
        <ele>393</ele>
        <time>2019-12-17T13:03:19.000Z</time>
      </trkpt>
      <trkpt lat="43.34241" lon="5.97833">
        <ele>393</ele>
        <time>2019-12-17T13:03:20.000Z</time>
      </trkpt>
      <trkpt lat="43.3424" lon="5.97832">
        <ele>393</ele>
        <time>2019-12-17T13:03:21.000Z</time>
      </trkpt>
      <trkpt lat="43.3424" lon="5.97831">
        <ele>393</ele>
        <time>2019-12-17T13:03:22.000Z</time>
      </trkpt>
      <trkpt lat="43.34239" lon="5.9783">
        <ele>393</ele>
        <time>2019-12-17T13:03:23.000Z</time>
      </trkpt>
      <trkpt lat="43.34239" lon="5.97829">
        <ele>393</ele>
        <time>2019-12-17T13:03:24.000Z</time>
      </trkpt>
      <trkpt lat="43.34239" lon="5.97828">
        <ele>393</ele>
        <time>2019-12-17T13:03:25.000Z</time>
      </trkpt>
      <trkpt lat="43.34239" lon="5.97827">
        <ele>393</ele>
        <time>2019-12-17T13:03:26.000Z</time>
      </trkpt>
      <trkpt lat="43.34239" lon="5.97827">
        <ele>392</ele>
        <time>2019-12-17T13:03:27.000Z</time>
      </trkpt>
      <trkpt lat="43.34238" lon="5.97826">
        <ele>392</ele>
        <time>2019-12-17T13:03:28.000Z</time>
      </trkpt>
      <trkpt lat="43.34238" lon="5.97825">
        <ele>392</ele>
        <time>2019-12-17T13:03:29.000Z</time>
      </trkpt>
      <trkpt lat="43.34237" lon="5.97824">
        <ele>392</ele>
        <time>2019-12-17T13:03:30.000Z</time>
      </trkpt>
      <trkpt lat="43.34237" lon="5.97823">
        <ele>392</ele>
        <time>2019-12-17T13:03:31.000Z</time>
      </trkpt>
      <trkpt lat="43.34236" lon="5.97821">
        <ele>392</ele>
        <time>2019-12-17T13:03:32.000Z</time>
      </trkpt>
      <trkpt lat="43.34236" lon="5.9782">
        <ele>392</ele>
        <time>2019-12-17T13:03:33.000Z</time>
      </trkpt>
      <trkpt lat="43.34235" lon="5.97819">
        <ele>392</ele>
        <time>2019-12-17T13:03:34.000Z</time>
      </trkpt>
      <trkpt lat="43.34234" lon="5.97818">
        <ele>392</ele>
        <time>2019-12-17T13:03:35.000Z</time>
      </trkpt>
      <trkpt lat="43.34234" lon="5.97817">
        <ele>391</ele>
        <time>2019-12-17T13:03:36.000Z</time>
      </trkpt>
      <trkpt lat="43.34233" lon="5.97816">
        <ele>391</ele>
        <time>2019-12-17T13:03:37.000Z</time>
      </trkpt>
      <trkpt lat="43.34233" lon="5.97815">
        <ele>391</ele>
        <time>2019-12-17T13:03:38.000Z</time>
      </trkpt>
      <trkpt lat="43.34232" lon="5.97814">
        <ele>391</ele>
        <time>2019-12-17T13:03:39.000Z</time>
      </trkpt>
      <trkpt lat="43.34232" lon="5.97813">
        <ele>391</ele>
        <time>2019-12-17T13:03:40.000Z</time>
      </trkpt>
      <trkpt lat="43.34231" lon="5.97811">
        <ele>391</ele>
        <time>2019-12-17T13:03:41.000Z</time>
      </trkpt>
      <trkpt lat="43.34231" lon="5.9781">
        <ele>391</ele>
        <time>2019-12-17T13:03:42.000Z</time>
      </trkpt>
      <trkpt lat="43.3423" lon="5.97809">
        <ele>391</ele>
        <time>2019-12-17T13:03:43.000Z</time>
      </trkpt>
      <trkpt lat="43.3423" lon="5.97808">
        <ele>391</ele>
        <time>2019-12-17T13:03:44.000Z</time>
      </trkpt>
      <trkpt lat="43.34229" lon="5.97807">
        <ele>390</ele>
        <time>2019-12-17T13:03:45.000Z</time>
      </trkpt>
      <trkpt lat="43.34229" lon="5.97806">
        <ele>390</ele>
        <time>2019-12-17T13:03:46.000Z</time>
      </trkpt>
      <trkpt lat="43.34228" lon="5.97806">
        <ele>390</ele>
        <time>2019-12-17T13:03:47.000Z</time>
      </trkpt>
      <trkpt lat="43.34228" lon="5.97805">
        <ele>390</ele>
        <time>2019-12-17T13:03:48.000Z</time>
      </trkpt>
      <trkpt lat="43.34227" lon="5.97804">
        <ele>390</ele>
        <time>2019-12-17T13:03:49.000Z</time>
      </trkpt>
      <trkpt lat="43.34226" lon="5.97802">
        <ele>389</ele>
        <time>2019-12-17T13:03:50.000Z</time>
      </trkpt>
      <trkpt lat="43.34226" lon="5.97801">
        <ele>389</ele>
        <time>2019-12-17T13:03:51.000Z</time>
      </trkpt>
      <trkpt lat="43.34225" lon="5.978">
        <ele>389</ele>
        <time>2019-12-17T13:03:52.000Z</time>
      </trkpt>
      <trkpt lat="43.34224" lon="5.97799">
        <ele>389</ele>
        <time>2019-12-17T13:03:53.000Z</time>
      </trkpt>
      <trkpt lat="43.34224" lon="5.97798">
        <ele>388</ele>
        <time>2019-12-17T13:03:54.000Z</time>
      </trkpt>
      <trkpt lat="43.34223" lon="5.97797">
        <ele>388</ele>
        <time>2019-12-17T13:03:55.000Z</time>
      </trkpt>
      <trkpt lat="43.34222" lon="5.97796">
        <ele>388</ele>
        <time>2019-12-17T13:03:56.000Z</time>
      </trkpt>
      <trkpt lat="43.34222" lon="5.97795">
        <ele>388</ele>
        <time>2019-12-17T13:03:57.000Z</time>
      </trkpt>
      <trkpt lat="43.34221" lon="5.97795">
        <ele>388</ele>
        <time>2019-12-17T13:03:58.000Z</time>
      </trkpt>
      <trkpt lat="43.3422" lon="5.97794">
        <ele>387</ele>
        <time>2019-12-17T13:03:59.000Z</time>
      </trkpt>
      <trkpt lat="43.34219" lon="5.97793">
        <ele>387</ele>
        <time>2019-12-17T13:04:00.000Z</time>
      </trkpt>
      <trkpt lat="43.34218" lon="5.97792">
        <ele>387</ele>
        <time>2019-12-17T13:04:01.000Z</time>
      </trkpt>
      <trkpt lat="43.34217" lon="5.97791">
        <ele>387</ele>
        <time>2019-12-17T13:04:02.000Z</time>
      </trkpt>
      <trkpt lat="43.34216" lon="5.9779">
        <ele>386</ele>
        <time>2019-12-17T13:04:03.000Z</time>
      </trkpt>
      <trkpt lat="43.34216" lon="5.97789">
        <ele>386</ele>
        <time>2019-12-17T13:04:04.000Z</time>
      </trkpt>
      <trkpt lat="43.34215" lon="5.97788">
        <ele>386</ele>
        <time>2019-12-17T13:04:05.000Z</time>
      </trkpt>
      <trkpt lat="43.34214" lon="5.97787">
        <ele>386</ele>
        <time>2019-12-17T13:04:06.000Z</time>
      </trkpt>
      <trkpt lat="43.34213" lon="5.97787">
        <ele>386</ele>
        <time>2019-12-17T13:04:07.000Z</time>
      </trkpt>
      <trkpt lat="43.34212" lon="5.97786">
        <ele>386</ele>
        <time>2019-12-17T13:04:08.000Z</time>
      </trkpt>
      <trkpt lat="43.34211" lon="5.97785">
        <ele>385</ele>
        <time>2019-12-17T13:04:09.000Z</time>
      </trkpt>
      <trkpt lat="43.3421" lon="5.97784">
        <ele>385</ele>
        <time>2019-12-17T13:04:10.000Z</time>
      </trkpt>
      <trkpt lat="43.3421" lon="5.97784">
        <ele>385</ele>
        <time>2019-12-17T13:04:11.000Z</time>
      </trkpt>
      <trkpt lat="43.34209" lon="5.97783">
        <ele>385</ele>
        <time>2019-12-17T13:04:12.000Z</time>
      </trkpt>
      <trkpt lat="43.34208" lon="5.97782">
        <ele>385</ele>
        <time>2019-12-17T13:04:13.000Z</time>
      </trkpt>
      <trkpt lat="43.34207" lon="5.97781">
        <ele>385</ele>
        <time>2019-12-17T13:04:14.000Z</time>
      </trkpt>
      <trkpt lat="43.34206" lon="5.9778">
        <ele>385</ele>
        <time>2019-12-17T13:04:15.000Z</time>
      </trkpt>
      <trkpt lat="43.34205" lon="5.97779">
        <ele>385</ele>
        <time>2019-12-17T13:04:16.000Z</time>
      </trkpt>
      <trkpt lat="43.34205" lon="5.97778">
        <ele>385</ele>
        <time>2019-12-17T13:04:17.000Z</time>
      </trkpt>
      <trkpt lat="43.34204" lon="5.97777">
        <ele>385</ele>
        <time>2019-12-17T13:04:18.000Z</time>
      </trkpt>
      <trkpt lat="43.34203" lon="5.97776">
        <ele>385</ele>
        <time>2019-12-17T13:04:19.000Z</time>
      </trkpt>
      <trkpt lat="43.34202" lon="5.97775">
        <ele>384</ele>
        <time>2019-12-17T13:04:20.000Z</time>
      </trkpt>
      <trkpt lat="43.34201" lon="5.97774">
        <ele>384</ele>
        <time>2019-12-17T13:04:21.000Z</time>
      </trkpt>
      <trkpt lat="43.34201" lon="5.97773">
        <ele>384</ele>
        <time>2019-12-17T13:04:22.000Z</time>
      </trkpt>
      <trkpt lat="43.342" lon="5.97772">
        <ele>384</ele>
        <time>2019-12-17T13:04:23.000Z</time>
      </trkpt>
      <trkpt lat="43.34199" lon="5.97771">
        <ele>384</ele>
        <time>2019-12-17T13:04:24.000Z</time>
      </trkpt>
      <trkpt lat="43.34198" lon="5.9777">
        <ele>384</ele>
        <time>2019-12-17T13:04:25.000Z</time>
      </trkpt>
      <trkpt lat="43.34197" lon="5.97769">
        <ele>384</ele>
        <time>2019-12-17T13:04:26.000Z</time>
      </trkpt>
      <trkpt lat="43.34196" lon="5.97768">
        <ele>384</ele>
        <time>2019-12-17T13:04:27.000Z</time>
      </trkpt>
      <trkpt lat="43.34195" lon="5.97767">
        <ele>384</ele>
        <time>2019-12-17T13:04:28.000Z</time>
      </trkpt>
      <trkpt lat="43.34194" lon="5.97767">
        <ele>384</ele>
        <time>2019-12-17T13:04:29.000Z</time>
      </trkpt>
      <trkpt lat="43.34194" lon="5.97766">
        <ele>384</ele>
        <time>2019-12-17T13:04:30.000Z</time>
      </trkpt>
      <trkpt lat="43.34193" lon="5.97765">
        <ele>384</ele>
        <time>2019-12-17T13:04:31.000Z</time>
      </trkpt>
      <trkpt lat="43.34192" lon="5.97764">
        <ele>384</ele>
        <time>2019-12-17T13:04:32.000Z</time>
      </trkpt>
      <trkpt lat="43.34191" lon="5.97763">
        <ele>384</ele>
        <time>2019-12-17T13:04:33.000Z</time>
      </trkpt>
      <trkpt lat="43.34191" lon="5.97762">
        <ele>383</ele>
        <time>2019-12-17T13:04:34.000Z</time>
      </trkpt>
      <trkpt lat="43.3419" lon="5.97761">
        <ele>383</ele>
        <time>2019-12-17T13:04:35.000Z</time>
      </trkpt>
      <trkpt lat="43.3419" lon="5.9776">
        <ele>383</ele>
        <time>2019-12-17T13:04:36.000Z</time>
      </trkpt>
      <trkpt lat="43.34189" lon="5.97759">
        <ele>383</ele>
        <time>2019-12-17T13:04:37.000Z</time>
      </trkpt>
      <trkpt lat="43.34188" lon="5.97758">
        <ele>383</ele>
        <time>2019-12-17T13:04:38.000Z</time>
      </trkpt>
      <trkpt lat="43.34187" lon="5.97757">
        <ele>383</ele>
        <time>2019-12-17T13:04:39.000Z</time>
      </trkpt>
      <trkpt lat="43.34187" lon="5.97756">
        <ele>382</ele>
        <time>2019-12-17T13:04:40.000Z</time>
      </trkpt>
      <trkpt lat="43.34186" lon="5.97755">
        <ele>382</ele>
        <time>2019-12-17T13:04:41.000Z</time>
      </trkpt>
      <trkpt lat="43.34186" lon="5.97754">
        <ele>382</ele>
        <time>2019-12-17T13:04:42.000Z</time>
      </trkpt>
      <trkpt lat="43.34185" lon="5.97753">
        <ele>382</ele>
        <time>2019-12-17T13:04:43.000Z</time>
      </trkpt>
      <trkpt lat="43.34184" lon="5.97752">
        <ele>382</ele>
        <time>2019-12-17T13:04:44.000Z</time>
      </trkpt>
      <trkpt lat="43.34183" lon="5.97751">
        <ele>382</ele>
        <time>2019-12-17T13:04:45.000Z</time>
      </trkpt>
      <trkpt lat="43.34182" lon="5.97751">
        <ele>382</ele>
        <time>2019-12-17T13:04:46.000Z</time>
      </trkpt>
      <trkpt lat="43.34181" lon="5.9775">
        <ele>382</ele>
        <time>2019-12-17T13:04:47.000Z</time>
      </trkpt>
      <trkpt lat="43.3418" lon="5.97749">
        <ele>382</ele>
        <time>2019-12-17T13:04:48.000Z</time>
      </trkpt>
      <trkpt lat="43.34179" lon="5.97748">
        <ele>381</ele>
        <time>2019-12-17T13:04:49.000Z</time>
      </trkpt>
      <trkpt lat="43.34179" lon="5.97747">
        <ele>381</ele>
        <time>2019-12-17T13:04:50.000Z</time>
      </trkpt>
      <trkpt lat="43.34178" lon="5.97746">
        <ele>381</ele>
        <time>2019-12-17T13:04:51.000Z</time>
      </trkpt>
      <trkpt lat="43.34177" lon="5.97745">
        <ele>381</ele>
        <time>2019-12-17T13:04:52.000Z</time>
      </trkpt>
      <trkpt lat="43.34176" lon="5.97744">
        <ele>381</ele>
        <time>2019-12-17T13:04:53.000Z</time>
      </trkpt>
      <trkpt lat="43.34175" lon="5.97743">
        <ele>381</ele>
        <time>2019-12-17T13:04:54.000Z</time>
      </trkpt>
      <trkpt lat="43.34174" lon="5.97742">
        <ele>381</ele>
        <time>2019-12-17T13:04:55.000Z</time>
      </trkpt>
      <trkpt lat="43.34174" lon="5.97741">
        <ele>381</ele>
        <time>2019-12-17T13:04:56.000Z</time>
      </trkpt>
      <trkpt lat="43.34173" lon="5.9774">
        <ele>380</ele>
        <time>2019-12-17T13:04:57.000Z</time>
      </trkpt>
      <trkpt lat="43.34172" lon="5.97739">
        <ele>380</ele>
        <time>2019-12-17T13:04:58.000Z</time>
      </trkpt>
      <trkpt lat="43.34171" lon="5.97739">
        <ele>380</ele>
        <time>2019-12-17T13:04:59.000Z</time>
      </trkpt>
      <trkpt lat="43.3417" lon="5.97738">
        <ele>380</ele>
        <time>2019-12-17T13:05:00.000Z</time>
      </trkpt>
      <trkpt lat="43.34169" lon="5.97737">
        <ele>380</ele>
        <time>2019-12-17T13:05:01.000Z</time>
      </trkpt>
      <trkpt lat="43.34168" lon="5.97736">
        <ele>380</ele>
        <time>2019-12-17T13:05:02.000Z</time>
      </trkpt>
      <trkpt lat="43.34167" lon="5.97735">
        <ele>380</ele>
        <time>2019-12-17T13:05:03.000Z</time>
      </trkpt>
      <trkpt lat="43.34166" lon="5.97734">
        <ele>380</ele>
        <time>2019-12-17T13:05:04.000Z</time>
      </trkpt>
      <trkpt lat="43.34165" lon="5.97734">
        <ele>380</ele>
        <time>2019-12-17T13:05:05.000Z</time>
      </trkpt>
      <trkpt lat="43.34164" lon="5.97734">
        <ele>380</ele>
        <time>2019-12-17T13:05:06.000Z</time>
      </trkpt>
      <trkpt lat="43.34163" lon="5.97733">
        <ele>380</ele>
        <time>2019-12-17T13:05:07.000Z</time>
      </trkpt>
      <trkpt lat="43.34162" lon="5.97733">
        <ele>379</ele>
        <time>2019-12-17T13:05:08.000Z</time>
      </trkpt>
      <trkpt lat="43.34161" lon="5.97732">
        <ele>379</ele>
        <time>2019-12-17T13:05:09.000Z</time>
      </trkpt>
      <trkpt lat="43.3416" lon="5.97731">
        <ele>379</ele>
        <time>2019-12-17T13:05:10.000Z</time>
      </trkpt>
      <trkpt lat="43.34159" lon="5.9773">
        <ele>379</ele>
        <time>2019-12-17T13:05:11.000Z</time>
      </trkpt>
      <trkpt lat="43.34158" lon="5.9773">
        <ele>379</ele>
        <time>2019-12-17T13:05:12.000Z</time>
      </trkpt>
      <trkpt lat="43.34158" lon="5.97729">
        <ele>379</ele>
        <time>2019-12-17T13:05:13.000Z</time>
      </trkpt>
      <trkpt lat="43.34157" lon="5.97728">
        <ele>379</ele>
        <time>2019-12-17T13:05:14.000Z</time>
      </trkpt>
      <trkpt lat="43.34156" lon="5.97728">
        <ele>379</ele>
        <time>2019-12-17T13:05:15.000Z</time>
      </trkpt>
      <trkpt lat="43.34155" lon="5.97727">
        <ele>379</ele>
        <time>2019-12-17T13:05:16.000Z</time>
      </trkpt>
      <trkpt lat="43.34154" lon="5.97727">
        <ele>379</ele>
        <time>2019-12-17T13:05:17.000Z</time>
      </trkpt>
      <trkpt lat="43.34153" lon="5.97726">
        <ele>379</ele>
        <time>2019-12-17T13:05:18.000Z</time>
      </trkpt>
      <trkpt lat="43.34152" lon="5.97725">
        <ele>379</ele>
        <time>2019-12-17T13:05:19.000Z</time>
      </trkpt>
      <trkpt lat="43.34151" lon="5.97725">
        <ele>379</ele>
        <time>2019-12-17T13:05:20.000Z</time>
      </trkpt>
      <trkpt lat="43.3415" lon="5.97725">
        <ele>379</ele>
        <time>2019-12-17T13:05:21.000Z</time>
      </trkpt>
      <trkpt lat="43.34149" lon="5.97724">
        <ele>379</ele>
        <time>2019-12-17T13:05:22.000Z</time>
      </trkpt>
      <trkpt lat="43.34148" lon="5.97724">
        <ele>379</ele>
        <time>2019-12-17T13:05:23.000Z</time>
      </trkpt>
      <trkpt lat="43.34147" lon="5.97723">
        <ele>379</ele>
        <time>2019-12-17T13:05:24.000Z</time>
      </trkpt>
      <trkpt lat="43.34146" lon="5.97723">
        <ele>379</ele>
        <time>2019-12-17T13:05:25.000Z</time>
      </trkpt>
      <trkpt lat="43.34145" lon="5.97722">
        <ele>379</ele>
        <time>2019-12-17T13:05:26.000Z</time>
      </trkpt>
      <trkpt lat="43.34144" lon="5.97721">
        <ele>379</ele>
        <time>2019-12-17T13:05:27.000Z</time>
      </trkpt>
      <trkpt lat="43.34143" lon="5.97721">
        <ele>379</ele>
        <time>2019-12-17T13:05:28.000Z</time>
      </trkpt>
      <trkpt lat="43.34142" lon="5.9772">
        <ele>379</ele>
        <time>2019-12-17T13:05:29.000Z</time>
      </trkpt>
      <trkpt lat="43.34141" lon="5.9772">
        <ele>378</ele>
        <time>2019-12-17T13:05:30.000Z</time>
      </trkpt>
      <trkpt lat="43.3414" lon="5.97719">
        <ele>378</ele>
        <time>2019-12-17T13:05:31.000Z</time>
      </trkpt>
      <trkpt lat="43.34139" lon="5.97718">
        <ele>378</ele>
        <time>2019-12-17T13:05:32.000Z</time>
      </trkpt>
      <trkpt lat="43.34138" lon="5.97718">
        <ele>378</ele>
        <time>2019-12-17T13:05:33.000Z</time>
      </trkpt>
      <trkpt lat="43.34137" lon="5.97718">
        <ele>378</ele>
        <time>2019-12-17T13:05:34.000Z</time>
      </trkpt>
      <trkpt lat="43.34136" lon="5.97717">
        <ele>378</ele>
        <time>2019-12-17T13:05:35.000Z</time>
      </trkpt>
      <trkpt lat="43.34135" lon="5.97716">
        <ele>378</ele>
        <time>2019-12-17T13:05:36.000Z</time>
      </trkpt>
      <trkpt lat="43.34134" lon="5.97716">
        <ele>378</ele>
        <time>2019-12-17T13:05:37.000Z</time>
      </trkpt>
      <trkpt lat="43.34132" lon="5.97716">
        <ele>378</ele>
        <time>2019-12-17T13:05:38.000Z</time>
      </trkpt>
      <trkpt lat="43.34132" lon="5.97715">
        <ele>378</ele>
        <time>2019-12-17T13:05:39.000Z</time>
      </trkpt>
      <trkpt lat="43.34131" lon="5.97715">
        <ele>378</ele>
        <time>2019-12-17T13:05:40.000Z</time>
      </trkpt>
      <trkpt lat="43.3413" lon="5.97715">
        <ele>377</ele>
        <time>2019-12-17T13:05:41.000Z</time>
      </trkpt>
      <trkpt lat="43.34129" lon="5.97714">
        <ele>377</ele>
        <time>2019-12-17T13:05:42.000Z</time>
      </trkpt>
      <trkpt lat="43.34128" lon="5.97714">
        <ele>377</ele>
        <time>2019-12-17T13:05:43.000Z</time>
      </trkpt>
      <trkpt lat="43.34127" lon="5.97714">
        <ele>377</ele>
        <time>2019-12-17T13:05:44.000Z</time>
      </trkpt>
      <trkpt lat="43.34126" lon="5.97714">
        <ele>377</ele>
        <time>2019-12-17T13:05:45.000Z</time>
      </trkpt>
      <trkpt lat="43.34125" lon="5.97713">
        <ele>377</ele>
        <time>2019-12-17T13:05:46.000Z</time>
      </trkpt>
      <trkpt lat="43.34125" lon="5.97713">
        <ele>377</ele>
        <time>2019-12-17T13:05:47.000Z</time>
      </trkpt>
      <trkpt lat="43.34124" lon="5.97713">
        <ele>377</ele>
        <time>2019-12-17T13:05:48.000Z</time>
      </trkpt>
      <trkpt lat="43.34122" lon="5.97713">
        <ele>377</ele>
        <time>2019-12-17T13:05:49.000Z</time>
      </trkpt>
      <trkpt lat="43.34121" lon="5.97713">
        <ele>377</ele>
        <time>2019-12-17T13:05:50.000Z</time>
      </trkpt>
      <trkpt lat="43.3412" lon="5.97713">
        <ele>377</ele>
        <time>2019-12-17T13:05:51.000Z</time>
      </trkpt>
      <trkpt lat="43.34119" lon="5.97713">
        <ele>377</ele>
        <time>2019-12-17T13:05:52.000Z</time>
      </trkpt>
      <trkpt lat="43.34117" lon="5.97713">
        <ele>377</ele>
        <time>2019-12-17T13:05:53.000Z</time>
      </trkpt>
      <trkpt lat="43.34116" lon="5.97713">
        <ele>377</ele>
        <time>2019-12-17T13:05:54.000Z</time>
      </trkpt>
      <trkpt lat="43.34115" lon="5.97713">
        <ele>377</ele>
        <time>2019-12-17T13:05:55.000Z</time>
      </trkpt>
      <trkpt lat="43.34114" lon="5.97713">
        <ele>377</ele>
        <time>2019-12-17T13:05:56.000Z</time>
      </trkpt>
      <trkpt lat="43.34113" lon="5.97712">
        <ele>377</ele>
        <time>2019-12-17T13:05:57.000Z</time>
      </trkpt>
      <trkpt lat="43.34111" lon="5.97712">
        <ele>377</ele>
        <time>2019-12-17T13:05:58.000Z</time>
      </trkpt>
      <trkpt lat="43.3411" lon="5.97711">
        <ele>377</ele>
        <time>2019-12-17T13:05:59.000Z</time>
      </trkpt>
      <trkpt lat="43.34109" lon="5.97711">
        <ele>377</ele>
        <time>2019-12-17T13:06:00.000Z</time>
      </trkpt>
      <trkpt lat="43.34108" lon="5.97711">
        <ele>377</ele>
        <time>2019-12-17T13:06:01.000Z</time>
      </trkpt>
      <trkpt lat="43.34107" lon="5.97711">
        <ele>377</ele>
        <time>2019-12-17T13:06:02.000Z</time>
      </trkpt>
      <trkpt lat="43.34106" lon="5.97711">
        <ele>376</ele>
        <time>2019-12-17T13:06:03.000Z</time>
      </trkpt>
      <trkpt lat="43.34105" lon="5.97711">
        <ele>376</ele>
        <time>2019-12-17T13:06:04.000Z</time>
      </trkpt>
      <trkpt lat="43.34104" lon="5.97711">
        <ele>376</ele>
        <time>2019-12-17T13:06:05.000Z</time>
      </trkpt>
      <trkpt lat="43.34103" lon="5.97711">
        <ele>376</ele>
        <time>2019-12-17T13:06:06.000Z</time>
      </trkpt>
      <trkpt lat="43.34102" lon="5.9771">
        <ele>376</ele>
        <time>2019-12-17T13:06:07.000Z</time>
      </trkpt>
      <trkpt lat="43.34101" lon="5.9771">
        <ele>376</ele>
        <time>2019-12-17T13:06:08.000Z</time>
      </trkpt>
      <trkpt lat="43.341" lon="5.9771">
        <ele>375</ele>
        <time>2019-12-17T13:06:09.000Z</time>
      </trkpt>
      <trkpt lat="43.34099" lon="5.9771">
        <ele>375</ele>
        <time>2019-12-17T13:06:10.000Z</time>
      </trkpt>
      <trkpt lat="43.34098" lon="5.97709">
        <ele>375</ele>
        <time>2019-12-17T13:06:11.000Z</time>
      </trkpt>
      <trkpt lat="43.34097" lon="5.97709">
        <ele>375</ele>
        <time>2019-12-17T13:06:12.000Z</time>
      </trkpt>
      <trkpt lat="43.34095" lon="5.97708">
        <ele>375</ele>
        <time>2019-12-17T13:06:13.000Z</time>
      </trkpt>
      <trkpt lat="43.34094" lon="5.97707">
        <ele>375</ele>
        <time>2019-12-17T13:06:14.000Z</time>
      </trkpt>
      <trkpt lat="43.34093" lon="5.97707">
        <ele>375</ele>
        <time>2019-12-17T13:06:15.000Z</time>
      </trkpt>
      <trkpt lat="43.34092" lon="5.97706">
        <ele>375</ele>
        <time>2019-12-17T13:06:16.000Z</time>
      </trkpt>
      <trkpt lat="43.34091" lon="5.97706">
        <ele>375</ele>
        <time>2019-12-17T13:06:17.000Z</time>
      </trkpt>
      <trkpt lat="43.3409" lon="5.97705">
        <ele>375</ele>
        <time>2019-12-17T13:06:18.000Z</time>
      </trkpt>
      <trkpt lat="43.3409" lon="5.97704">
        <ele>374</ele>
        <time>2019-12-17T13:06:19.000Z</time>
      </trkpt>
      <trkpt lat="43.34089" lon="5.97703">
        <ele>374</ele>
        <time>2019-12-17T13:06:20.000Z</time>
      </trkpt>
      <trkpt lat="43.34088" lon="5.97701">
        <ele>374</ele>
        <time>2019-12-17T13:06:21.000Z</time>
      </trkpt>
      <trkpt lat="43.34087" lon="5.977">
        <ele>374</ele>
        <time>2019-12-17T13:06:22.000Z</time>
      </trkpt>
      <trkpt lat="43.34086" lon="5.97699">
        <ele>374</ele>
        <time>2019-12-17T13:06:23.000Z</time>
      </trkpt>
      <trkpt lat="43.34086" lon="5.97698">
        <ele>374</ele>
        <time>2019-12-17T13:06:24.000Z</time>
      </trkpt>
      <trkpt lat="43.34084" lon="5.97697">
        <ele>373</ele>
        <time>2019-12-17T13:06:25.000Z</time>
      </trkpt>
      <trkpt lat="43.34083" lon="5.97696">
        <ele>373</ele>
        <time>2019-12-17T13:06:26.000Z</time>
      </trkpt>
      <trkpt lat="43.34082" lon="5.97695">
        <ele>373</ele>
        <time>2019-12-17T13:06:27.000Z</time>
      </trkpt>
      <trkpt lat="43.34081" lon="5.97694">
        <ele>373</ele>
        <time>2019-12-17T13:06:28.000Z</time>
      </trkpt>
      <trkpt lat="43.3408" lon="5.97694">
        <ele>373</ele>
        <time>2019-12-17T13:06:29.000Z</time>
      </trkpt>
      <trkpt lat="43.34079" lon="5.97693">
        <ele>372</ele>
        <time>2019-12-17T13:06:30.000Z</time>
      </trkpt>
      <trkpt lat="43.34079" lon="5.97692">
        <ele>372</ele>
        <time>2019-12-17T13:06:31.000Z</time>
      </trkpt>
      <trkpt lat="43.34077" lon="5.97691">
        <ele>372</ele>
        <time>2019-12-17T13:06:32.000Z</time>
      </trkpt>
      <trkpt lat="43.34076" lon="5.9769">
        <ele>372</ele>
        <time>2019-12-17T13:06:33.000Z</time>
      </trkpt>
      <trkpt lat="43.34075" lon="5.9769">
        <ele>372</ele>
        <time>2019-12-17T13:06:34.000Z</time>
      </trkpt>
      <trkpt lat="43.34074" lon="5.97689">
        <ele>372</ele>
        <time>2019-12-17T13:06:35.000Z</time>
      </trkpt>
      <trkpt lat="43.34073" lon="5.97688">
        <ele>372</ele>
        <time>2019-12-17T13:06:36.000Z</time>
      </trkpt>
      <trkpt lat="43.34073" lon="5.97687">
        <ele>372</ele>
        <time>2019-12-17T13:06:37.000Z</time>
      </trkpt>
      <trkpt lat="43.34072" lon="5.97687">
        <ele>372</ele>
        <time>2019-12-17T13:06:38.000Z</time>
      </trkpt>
      <trkpt lat="43.34071" lon="5.97686">
        <ele>372</ele>
        <time>2019-12-17T13:06:39.000Z</time>
      </trkpt>
      <trkpt lat="43.3407" lon="5.97685">
        <ele>372</ele>
        <time>2019-12-17T13:06:40.000Z</time>
      </trkpt>
      <trkpt lat="43.34069" lon="5.97684">
        <ele>371</ele>
        <time>2019-12-17T13:06:41.000Z</time>
      </trkpt>
      <trkpt lat="43.34068" lon="5.97683">
        <ele>371</ele>
        <time>2019-12-17T13:06:42.000Z</time>
      </trkpt>
      <trkpt lat="43.34067" lon="5.97683">
        <ele>371</ele>
        <time>2019-12-17T13:06:43.000Z</time>
      </trkpt>
      <trkpt lat="43.34066" lon="5.97682">
        <ele>371</ele>
        <time>2019-12-17T13:06:44.000Z</time>
      </trkpt>
      <trkpt lat="43.34065" lon="5.97681">
        <ele>371</ele>
        <time>2019-12-17T13:06:45.000Z</time>
      </trkpt>
      <trkpt lat="43.34065" lon="5.9768">
        <ele>371</ele>
        <time>2019-12-17T13:06:46.000Z</time>
      </trkpt>
      <trkpt lat="43.34064" lon="5.97679">
        <ele>371</ele>
        <time>2019-12-17T13:06:47.000Z</time>
      </trkpt>
      <trkpt lat="43.34063" lon="5.97678">
        <ele>371</ele>
        <time>2019-12-17T13:06:48.000Z</time>
      </trkpt>
      <trkpt lat="43.34062" lon="5.97678">
        <ele>371</ele>
        <time>2019-12-17T13:06:49.000Z</time>
      </trkpt>
      <trkpt lat="43.3406" lon="5.97678">
        <ele>372</ele>
        <time>2019-12-17T13:06:50.000Z</time>
      </trkpt>
      <trkpt lat="43.34059" lon="5.97677">
        <ele>372</ele>
        <time>2019-12-17T13:06:51.000Z</time>
      </trkpt>
      <trkpt lat="43.34058" lon="5.97677">
        <ele>372</ele>
        <time>2019-12-17T13:06:52.000Z</time>
      </trkpt>
      <trkpt lat="43.34058" lon="5.97677">
        <ele>372</ele>
        <time>2019-12-17T13:06:53.000Z</time>
      </trkpt>
      <trkpt lat="43.34057" lon="5.97676">
        <ele>372</ele>
        <time>2019-12-17T13:06:54.000Z</time>
      </trkpt>
      <trkpt lat="43.34056" lon="5.97675">
        <ele>372</ele>
        <time>2019-12-17T13:06:55.000Z</time>
      </trkpt>
      <trkpt lat="43.34056" lon="5.97674">
        <ele>372</ele>
        <time>2019-12-17T13:06:56.000Z</time>
      </trkpt>
      <trkpt lat="43.34055" lon="5.97672">
        <ele>372</ele>
        <time>2019-12-17T13:06:57.000Z</time>
      </trkpt>
      <trkpt lat="43.34055" lon="5.97671">
        <ele>372</ele>
        <time>2019-12-17T13:06:58.000Z</time>
      </trkpt>
      <trkpt lat="43.34054" lon="5.9767">
        <ele>372</ele>
        <time>2019-12-17T13:06:59.000Z</time>
      </trkpt>
      <trkpt lat="43.34053" lon="5.97669">
        <ele>372</ele>
        <time>2019-12-17T13:07:00.000Z</time>
      </trkpt>
      <trkpt lat="43.34053" lon="5.97667">
        <ele>372</ele>
        <time>2019-12-17T13:07:01.000Z</time>
      </trkpt>
      <trkpt lat="43.34053" lon="5.97666">
        <ele>372</ele>
        <time>2019-12-17T13:07:02.000Z</time>
      </trkpt>
      <trkpt lat="43.34052" lon="5.97664">
        <ele>372</ele>
        <time>2019-12-17T13:07:03.000Z</time>
      </trkpt>
      <trkpt lat="43.34051" lon="5.97663">
        <ele>372</ele>
        <time>2019-12-17T13:07:04.000Z</time>
      </trkpt>
      <trkpt lat="43.34051" lon="5.97662">
        <ele>372</ele>
        <time>2019-12-17T13:07:05.000Z</time>
      </trkpt>
      <trkpt lat="43.3405" lon="5.97661">
        <ele>372</ele>
        <time>2019-12-17T13:07:06.000Z</time>
      </trkpt>
      <trkpt lat="43.34049" lon="5.9766">
        <ele>372</ele>
        <time>2019-12-17T13:07:07.000Z</time>
      </trkpt>
      <trkpt lat="43.34048" lon="5.97659">
        <ele>371</ele>
        <time>2019-12-17T13:07:08.000Z</time>
      </trkpt>
      <trkpt lat="43.34048" lon="5.97658">
        <ele>371</ele>
        <time>2019-12-17T13:07:09.000Z</time>
      </trkpt>
      <trkpt lat="43.34048" lon="5.97658">
        <ele>371</ele>
        <time>2019-12-17T13:07:10.000Z</time>
      </trkpt>
      <trkpt lat="43.34047" lon="5.97657">
        <ele>371</ele>
        <time>2019-12-17T13:07:11.000Z</time>
      </trkpt>
      <trkpt lat="43.34047" lon="5.97655">
        <ele>371</ele>
        <time>2019-12-17T13:07:12.000Z</time>
      </trkpt>
      <trkpt lat="43.34046" lon="5.97654">
        <ele>371</ele>
        <time>2019-12-17T13:07:13.000Z</time>
      </trkpt>
      <trkpt lat="43.34045" lon="5.97653">
        <ele>370</ele>
        <time>2019-12-17T13:07:14.000Z</time>
      </trkpt>
      <trkpt lat="43.34045" lon="5.97652">
        <ele>370</ele>
        <time>2019-12-17T13:07:15.000Z</time>
      </trkpt>
      <trkpt lat="43.34044" lon="5.97651">
        <ele>370</ele>
        <time>2019-12-17T13:07:16.000Z</time>
      </trkpt>
      <trkpt lat="43.34043" lon="5.9765">
        <ele>370</ele>
        <time>2019-12-17T13:07:17.000Z</time>
      </trkpt>
      <trkpt lat="43.34042" lon="5.97649">
        <ele>370</ele>
        <time>2019-12-17T13:07:18.000Z</time>
      </trkpt>
      <trkpt lat="43.34042" lon="5.97648">
        <ele>369</ele>
        <time>2019-12-17T13:07:19.000Z</time>
      </trkpt>
      <trkpt lat="43.34041" lon="5.97647">
        <ele>369</ele>
        <time>2019-12-17T13:07:20.000Z</time>
      </trkpt>
      <trkpt lat="43.3404" lon="5.97646">
        <ele>369</ele>
        <time>2019-12-17T13:07:21.000Z</time>
      </trkpt>
      <trkpt lat="43.34039" lon="5.97645">
        <ele>369</ele>
        <time>2019-12-17T13:07:22.000Z</time>
      </trkpt>
      <trkpt lat="43.34038" lon="5.97644">
        <ele>368</ele>
        <time>2019-12-17T13:07:23.000Z</time>
      </trkpt>
      <trkpt lat="43.34037" lon="5.97642">
        <ele>368</ele>
        <time>2019-12-17T13:07:24.000Z</time>
      </trkpt>
      <trkpt lat="43.34037" lon="5.97641">
        <ele>368</ele>
        <time>2019-12-17T13:07:25.000Z</time>
      </trkpt>
      <trkpt lat="43.34036" lon="5.9764">
        <ele>368</ele>
        <time>2019-12-17T13:07:26.000Z</time>
      </trkpt>
      <trkpt lat="43.34035" lon="5.97639">
        <ele>368</ele>
        <time>2019-12-17T13:07:27.000Z</time>
      </trkpt>
      <trkpt lat="43.34035" lon="5.97637">
        <ele>367</ele>
        <time>2019-12-17T13:07:28.000Z</time>
      </trkpt>
      <trkpt lat="43.34034" lon="5.97636">
        <ele>367</ele>
        <time>2019-12-17T13:07:29.000Z</time>
      </trkpt>
      <trkpt lat="43.34034" lon="5.97634">
        <ele>367</ele>
        <time>2019-12-17T13:07:30.000Z</time>
      </trkpt>
      <trkpt lat="43.34033" lon="5.97633">
        <ele>367</ele>
        <time>2019-12-17T13:07:31.000Z</time>
      </trkpt>
      <trkpt lat="43.34032" lon="5.97632">
        <ele>366</ele>
        <time>2019-12-17T13:07:32.000Z</time>
      </trkpt>
      <trkpt lat="43.34032" lon="5.97631">
        <ele>366</ele>
        <time>2019-12-17T13:07:33.000Z</time>
      </trkpt>
      <trkpt lat="43.34031" lon="5.97629">
        <ele>366</ele>
        <time>2019-12-17T13:07:34.000Z</time>
      </trkpt>
      <trkpt lat="43.34031" lon="5.97628">
        <ele>366</ele>
        <time>2019-12-17T13:07:35.000Z</time>
      </trkpt>
      <trkpt lat="43.3403" lon="5.97627">
        <ele>366</ele>
        <time>2019-12-17T13:07:36.000Z</time>
      </trkpt>
      <trkpt lat="43.3403" lon="5.97626">
        <ele>366</ele>
        <time>2019-12-17T13:07:37.000Z</time>
      </trkpt>
      <trkpt lat="43.34029" lon="5.97625">
        <ele>365</ele>
        <time>2019-12-17T13:07:38.000Z</time>
      </trkpt>
      <trkpt lat="43.34029" lon="5.97624">
        <ele>365</ele>
        <time>2019-12-17T13:07:39.000Z</time>
      </trkpt>
      <trkpt lat="43.34029" lon="5.97624">
        <ele>365</ele>
        <time>2019-12-17T13:07:40.000Z</time>
      </trkpt>
      <trkpt lat="43.34029" lon="5.97623">
        <ele>365</ele>
        <time>2019-12-17T13:07:41.000Z</time>
      </trkpt>
      <trkpt lat="43.3403" lon="5.97622">
        <ele>365</ele>
        <time>2019-12-17T13:07:42.000Z</time>
      </trkpt>
      <trkpt lat="43.3403" lon="5.97621">
        <ele>365</ele>
        <time>2019-12-17T13:07:43.000Z</time>
      </trkpt>
      <trkpt lat="43.3403" lon="5.9762">
        <ele>364</ele>
        <time>2019-12-17T13:07:44.000Z</time>
      </trkpt>
      <trkpt lat="43.34031" lon="5.97619">
        <ele>364</ele>
        <time>2019-12-17T13:07:45.000Z</time>
      </trkpt>
      <trkpt lat="43.34031" lon="5.97619">
        <ele>364</ele>
        <time>2019-12-17T13:07:46.000Z</time>
      </trkpt>
      <trkpt lat="43.34032" lon="5.97618">
        <ele>364</ele>
        <time>2019-12-17T13:07:47.000Z</time>
      </trkpt>
      <trkpt lat="43.34033" lon="5.97617">
        <ele>364</ele>
        <time>2019-12-17T13:07:48.000Z</time>
      </trkpt>
      <trkpt lat="43.34034" lon="5.97616">
        <ele>364</ele>
        <time>2019-12-17T13:07:49.000Z</time>
      </trkpt>
      <trkpt lat="43.34035" lon="5.97615">
        <ele>364</ele>
        <time>2019-12-17T13:07:50.000Z</time>
      </trkpt>
      <trkpt lat="43.34036" lon="5.97614">
        <ele>364</ele>
        <time>2019-12-17T13:07:51.000Z</time>
      </trkpt>
      <trkpt lat="43.34036" lon="5.97613">
        <ele>364</ele>
        <time>2019-12-17T13:07:52.000Z</time>
      </trkpt>
      <trkpt lat="43.34037" lon="5.97613">
        <ele>364</ele>
        <time>2019-12-17T13:07:53.000Z</time>
      </trkpt>
      <trkpt lat="43.34038" lon="5.97612">
        <ele>364</ele>
        <time>2019-12-17T13:07:54.000Z</time>
      </trkpt>
      <trkpt lat="43.34038" lon="5.97611">
        <ele>364</ele>
        <time>2019-12-17T13:07:55.000Z</time>
      </trkpt>
      <trkpt lat="43.34038" lon="5.97611">
        <ele>363</ele>
        <time>2019-12-17T13:07:56.000Z</time>
      </trkpt>
      <trkpt lat="43.34039" lon="5.9761">
        <ele>363</ele>
        <time>2019-12-17T13:07:57.000Z</time>
      </trkpt>
      <trkpt lat="43.3404" lon="5.9761">
        <ele>363</ele>
        <time>2019-12-17T13:07:58.000Z</time>
      </trkpt>
      <trkpt lat="43.34041" lon="5.97609">
        <ele>363</ele>
        <time>2019-12-17T13:07:59.000Z</time>
      </trkpt>
      <trkpt lat="43.34042" lon="5.97609">
        <ele>363</ele>
        <time>2019-12-17T13:08:00.000Z</time>
      </trkpt>
      <trkpt lat="43.34042" lon="5.97609">
        <ele>363</ele>
        <time>2019-12-17T13:08:01.000Z</time>
      </trkpt>
      <trkpt lat="43.34043" lon="5.97608">
        <ele>363</ele>
        <time>2019-12-17T13:08:02.000Z</time>
      </trkpt>
      <trkpt lat="43.34044" lon="5.97608">
        <ele>363</ele>
        <time>2019-12-17T13:08:03.000Z</time>
      </trkpt>
      <trkpt lat="43.34045" lon="5.97607">
        <ele>363</ele>
        <time>2019-12-17T13:08:04.000Z</time>
      </trkpt>
      <trkpt lat="43.34046" lon="5.97607">
        <ele>363</ele>
        <time>2019-12-17T13:08:05.000Z</time>
      </trkpt>
      <trkpt lat="43.34047" lon="5.97606">
        <ele>363</ele>
        <time>2019-12-17T13:08:06.000Z</time>
      </trkpt>
      <trkpt lat="43.34047" lon="5.97606">
        <ele>363</ele>
        <time>2019-12-17T13:08:07.000Z</time>
      </trkpt>
      <trkpt lat="43.34048" lon="5.97606">
        <ele>363</ele>
        <time>2019-12-17T13:08:08.000Z</time>
      </trkpt>
      <trkpt lat="43.3405" lon="5.97606">
        <ele>363</ele>
        <time>2019-12-17T13:08:09.000Z</time>
      </trkpt>
      <trkpt lat="43.34051" lon="5.97606">
        <ele>363</ele>
        <time>2019-12-17T13:08:10.000Z</time>
      </trkpt>
      <trkpt lat="43.34052" lon="5.97605">
        <ele>363</ele>
        <time>2019-12-17T13:08:11.000Z</time>
      </trkpt>
      <trkpt lat="43.34053" lon="5.97605">
        <ele>364</ele>
        <time>2019-12-17T13:08:12.000Z</time>
      </trkpt>
      <trkpt lat="43.34054" lon="5.97604">
        <ele>364</ele>
        <time>2019-12-17T13:08:13.000Z</time>
      </trkpt>
      <trkpt lat="43.34055" lon="5.97603">
        <ele>364</ele>
        <time>2019-12-17T13:08:14.000Z</time>
      </trkpt>
      <trkpt lat="43.34055" lon="5.97603">
        <ele>364</ele>
        <time>2019-12-17T13:08:15.000Z</time>
      </trkpt>
      <trkpt lat="43.34056" lon="5.97602">
        <ele>364</ele>
        <time>2019-12-17T13:08:16.000Z</time>
      </trkpt>
      <trkpt lat="43.34057" lon="5.97602">
        <ele>364</ele>
        <time>2019-12-17T13:08:17.000Z</time>
      </trkpt>
      <trkpt lat="43.34057" lon="5.97601">
        <ele>364</ele>
        <time>2019-12-17T13:08:18.000Z</time>
      </trkpt>
      <trkpt lat="43.34058" lon="5.976">
        <ele>364</ele>
        <time>2019-12-17T13:08:19.000Z</time>
      </trkpt>
      <trkpt lat="43.34058" lon="5.97599">
        <ele>364</ele>
        <time>2019-12-17T13:08:20.000Z</time>
      </trkpt>
      <trkpt lat="43.34059" lon="5.97599">
        <ele>364</ele>
        <time>2019-12-17T13:08:21.000Z</time>
      </trkpt>
      <trkpt lat="43.3406" lon="5.97599">
        <ele>364</ele>
        <time>2019-12-17T13:08:22.000Z</time>
      </trkpt>
      <trkpt lat="43.34061" lon="5.97598">
        <ele>364</ele>
        <time>2019-12-17T13:08:23.000Z</time>
      </trkpt>
      <trkpt lat="43.34062" lon="5.97598">
        <ele>364</ele>
        <time>2019-12-17T13:08:24.000Z</time>
      </trkpt>
      <trkpt lat="43.34063" lon="5.97597">
        <ele>364</ele>
        <time>2019-12-17T13:08:25.000Z</time>
      </trkpt>
      <trkpt lat="43.34064" lon="5.97596">
        <ele>364</ele>
        <time>2019-12-17T13:08:26.000Z</time>
      </trkpt>
      <trkpt lat="43.34065" lon="5.97596">
        <ele>364</ele>
        <time>2019-12-17T13:08:27.000Z</time>
      </trkpt>
      <trkpt lat="43.34065" lon="5.97595">
        <ele>364</ele>
        <time>2019-12-17T13:08:28.000Z</time>
      </trkpt>
      <trkpt lat="43.34066" lon="5.97594">
        <ele>364</ele>
        <time>2019-12-17T13:08:29.000Z</time>
      </trkpt>
      <trkpt lat="43.34067" lon="5.97593">
        <ele>364</ele>
        <time>2019-12-17T13:08:30.000Z</time>
      </trkpt>
      <trkpt lat="43.34068" lon="5.97593">
        <ele>364</ele>
        <time>2019-12-17T13:08:31.000Z</time>
      </trkpt>
      <trkpt lat="43.34069" lon="5.97592">
        <ele>364</ele>
        <time>2019-12-17T13:08:32.000Z</time>
      </trkpt>
      <trkpt lat="43.3407" lon="5.97591">
        <ele>364</ele>
        <time>2019-12-17T13:08:33.000Z</time>
      </trkpt>
      <trkpt lat="43.3407" lon="5.97591">
        <ele>364</ele>
        <time>2019-12-17T13:08:34.000Z</time>
      </trkpt>
      <trkpt lat="43.34071" lon="5.9759">
        <ele>364</ele>
        <time>2019-12-17T13:08:35.000Z</time>
      </trkpt>
      <trkpt lat="43.34072" lon="5.9759">
        <ele>364</ele>
        <time>2019-12-17T13:08:36.000Z</time>
      </trkpt>
      <trkpt lat="43.34073" lon="5.9759">
        <ele>365</ele>
        <time>2019-12-17T13:08:37.000Z</time>
      </trkpt>
      <trkpt lat="43.34074" lon="5.9759">
        <ele>365</ele>
        <time>2019-12-17T13:08:38.000Z</time>
      </trkpt>
      <trkpt lat="43.34075" lon="5.9759">
        <ele>365</ele>
        <time>2019-12-17T13:08:39.000Z</time>
      </trkpt>
      <trkpt lat="43.34076" lon="5.97589">
        <ele>365</ele>
        <time>2019-12-17T13:08:40.000Z</time>
      </trkpt>
      <trkpt lat="43.34077" lon="5.97589">
        <ele>365</ele>
        <time>2019-12-17T13:08:41.000Z</time>
      </trkpt>
      <trkpt lat="43.34078" lon="5.97589">
        <ele>365</ele>
        <time>2019-12-17T13:08:42.000Z</time>
      </trkpt>
      <trkpt lat="43.34079" lon="5.97589">
        <ele>365</ele>
        <time>2019-12-17T13:08:43.000Z</time>
      </trkpt>
      <trkpt lat="43.3408" lon="5.97589">
        <ele>365</ele>
        <time>2019-12-17T13:08:44.000Z</time>
      </trkpt>
      <trkpt lat="43.34081" lon="5.97588">
        <ele>365</ele>
        <time>2019-12-17T13:08:45.000Z</time>
      </trkpt>
      <trkpt lat="43.34082" lon="5.97588">
        <ele>365</ele>
        <time>2019-12-17T13:08:46.000Z</time>
      </trkpt>
      <trkpt lat="43.34083" lon="5.97588">
        <ele>365</ele>
        <time>2019-12-17T13:08:47.000Z</time>
      </trkpt>
      <trkpt lat="43.34083" lon="5.97587">
        <ele>365</ele>
        <time>2019-12-17T13:08:48.000Z</time>
      </trkpt>
      <trkpt lat="43.34084" lon="5.97587">
        <ele>365</ele>
        <time>2019-12-17T13:08:49.000Z</time>
      </trkpt>
      <trkpt lat="43.34085" lon="5.97586">
        <ele>365</ele>
        <time>2019-12-17T13:08:50.000Z</time>
      </trkpt>
      <trkpt lat="43.34087" lon="5.97586">
        <ele>365</ele>
        <time>2019-12-17T13:08:51.000Z</time>
      </trkpt>
      <trkpt lat="43.34088" lon="5.97585">
        <ele>365</ele>
        <time>2019-12-17T13:08:52.000Z</time>
      </trkpt>
      <trkpt lat="43.34089" lon="5.97585">
        <ele>365</ele>
        <time>2019-12-17T13:08:53.000Z</time>
      </trkpt>
      <trkpt lat="43.3409" lon="5.97584">
        <ele>365</ele>
        <time>2019-12-17T13:08:54.000Z</time>
      </trkpt>
      <trkpt lat="43.34091" lon="5.97584">
        <ele>365</ele>
        <time>2019-12-17T13:08:55.000Z</time>
      </trkpt>
      <trkpt lat="43.34092" lon="5.97583">
        <ele>365</ele>
        <time>2019-12-17T13:08:56.000Z</time>
      </trkpt>
      <trkpt lat="43.34093" lon="5.97582">
        <ele>365</ele>
        <time>2019-12-17T13:08:57.000Z</time>
      </trkpt>
      <trkpt lat="43.34094" lon="5.97582">
        <ele>365</ele>
        <time>2019-12-17T13:08:58.000Z</time>
      </trkpt>
      <trkpt lat="43.34095" lon="5.97581">
        <ele>366</ele>
        <time>2019-12-17T13:08:59.000Z</time>
      </trkpt>
      <trkpt lat="43.34097" lon="5.97581">
        <ele>366</ele>
        <time>2019-12-17T13:09:00.000Z</time>
      </trkpt>
      <trkpt lat="43.34098" lon="5.9758">
        <ele>366</ele>
        <time>2019-12-17T13:09:01.000Z</time>
      </trkpt>
      <trkpt lat="43.341" lon="5.9758">
        <ele>366</ele>
        <time>2019-12-17T13:09:02.000Z</time>
      </trkpt>
      <trkpt lat="43.34101" lon="5.97579">
        <ele>366</ele>
        <time>2019-12-17T13:09:03.000Z</time>
      </trkpt>
      <trkpt lat="43.34102" lon="5.97578">
        <ele>366</ele>
        <time>2019-12-17T13:09:04.000Z</time>
      </trkpt>
      <trkpt lat="43.34103" lon="5.97578">
        <ele>366</ele>
        <time>2019-12-17T13:09:05.000Z</time>
      </trkpt>
      <trkpt lat="43.34104" lon="5.97578">
        <ele>366</ele>
        <time>2019-12-17T13:09:06.000Z</time>
      </trkpt>
      <trkpt lat="43.34105" lon="5.97577">
        <ele>366</ele>
        <time>2019-12-17T13:09:07.000Z</time>
      </trkpt>
      <trkpt lat="43.34106" lon="5.97577">
        <ele>366</ele>
        <time>2019-12-17T13:09:08.000Z</time>
      </trkpt>
      <trkpt lat="43.34106" lon="5.97576">
        <ele>366</ele>
        <time>2019-12-17T13:09:09.000Z</time>
      </trkpt>
      <trkpt lat="43.34107" lon="5.97576">
        <ele>366</ele>
        <time>2019-12-17T13:09:10.000Z</time>
      </trkpt>
      <trkpt lat="43.34108" lon="5.97575">
        <ele>366</ele>
        <time>2019-12-17T13:09:11.000Z</time>
      </trkpt>
      <trkpt lat="43.3411" lon="5.97575">
        <ele>366</ele>
        <time>2019-12-17T13:09:12.000Z</time>
      </trkpt>
      <trkpt lat="43.34111" lon="5.97574">
        <ele>367</ele>
        <time>2019-12-17T13:09:13.000Z</time>
      </trkpt>
      <trkpt lat="43.34112" lon="5.97574">
        <ele>367</ele>
        <time>2019-12-17T13:09:14.000Z</time>
      </trkpt>
      <trkpt lat="43.34112" lon="5.97573">
        <ele>367</ele>
        <time>2019-12-17T13:09:15.000Z</time>
      </trkpt>
      <trkpt lat="43.34113" lon="5.97573">
        <ele>367</ele>
        <time>2019-12-17T13:09:16.000Z</time>
      </trkpt>
      <trkpt lat="43.34114" lon="5.97573">
        <ele>367</ele>
        <time>2019-12-17T13:09:17.000Z</time>
      </trkpt>
      <trkpt lat="43.34115" lon="5.97572">
        <ele>367</ele>
        <time>2019-12-17T13:09:18.000Z</time>
      </trkpt>
      <trkpt lat="43.34116" lon="5.97572">
        <ele>367</ele>
        <time>2019-12-17T13:09:19.000Z</time>
      </trkpt>
      <trkpt lat="43.34117" lon="5.97571">
        <ele>367</ele>
        <time>2019-12-17T13:09:20.000Z</time>
      </trkpt>
      <trkpt lat="43.34118" lon="5.9757">
        <ele>367</ele>
        <time>2019-12-17T13:09:21.000Z</time>
      </trkpt>
      <trkpt lat="43.34119" lon="5.97569">
        <ele>367</ele>
        <time>2019-12-17T13:09:22.000Z</time>
      </trkpt>
      <trkpt lat="43.3412" lon="5.97569">
        <ele>368</ele>
        <time>2019-12-17T13:09:23.000Z</time>
      </trkpt>
      <trkpt lat="43.34121" lon="5.97568">
        <ele>368</ele>
        <time>2019-12-17T13:09:24.000Z</time>
      </trkpt>
      <trkpt lat="43.34122" lon="5.97567">
        <ele>368</ele>
        <time>2019-12-17T13:09:25.000Z</time>
      </trkpt>
      <trkpt lat="43.34123" lon="5.97567">
        <ele>368</ele>
        <time>2019-12-17T13:09:26.000Z</time>
      </trkpt>
      <trkpt lat="43.34125" lon="5.97566">
        <ele>368</ele>
        <time>2019-12-17T13:09:27.000Z</time>
      </trkpt>
      <trkpt lat="43.34126" lon="5.97565">
        <ele>368</ele>
        <time>2019-12-17T13:09:28.000Z</time>
      </trkpt>
      <trkpt lat="43.34127" lon="5.97564">
        <ele>368</ele>
        <time>2019-12-17T13:09:29.000Z</time>
      </trkpt>
      <trkpt lat="43.34128" lon="5.97564">
        <ele>369</ele>
        <time>2019-12-17T13:09:30.000Z</time>
      </trkpt>
      <trkpt lat="43.3413" lon="5.97563">
        <ele>369</ele>
        <time>2019-12-17T13:09:31.000Z</time>
      </trkpt>
      <trkpt lat="43.34131" lon="5.97562">
        <ele>369</ele>
        <time>2019-12-17T13:09:32.000Z</time>
      </trkpt>
      <trkpt lat="43.34132" lon="5.97561">
        <ele>369</ele>
        <time>2019-12-17T13:09:33.000Z</time>
      </trkpt>
      <trkpt lat="43.34134" lon="5.97561">
        <ele>369</ele>
        <time>2019-12-17T13:09:34.000Z</time>
      </trkpt>
      <trkpt lat="43.34135" lon="5.9756">
        <ele>369</ele>
        <time>2019-12-17T13:09:35.000Z</time>
      </trkpt>
      <trkpt lat="43.34136" lon="5.97559">
        <ele>369</ele>
        <time>2019-12-17T13:09:36.000Z</time>
      </trkpt>
      <trkpt lat="43.34137" lon="5.97558">
        <ele>370</ele>
        <time>2019-12-17T13:09:37.000Z</time>
      </trkpt>
      <trkpt lat="43.34138" lon="5.97557">
        <ele>370</ele>
        <time>2019-12-17T13:09:38.000Z</time>
      </trkpt>
      <trkpt lat="43.3414" lon="5.97557">
        <ele>370</ele>
        <time>2019-12-17T13:09:39.000Z</time>
      </trkpt>
      <trkpt lat="43.34141" lon="5.97556">
        <ele>370</ele>
        <time>2019-12-17T13:09:40.000Z</time>
      </trkpt>
      <trkpt lat="43.34142" lon="5.97556">
        <ele>370</ele>
        <time>2019-12-17T13:09:41.000Z</time>
      </trkpt>
      <trkpt lat="43.34143" lon="5.97555">
        <ele>370</ele>
        <time>2019-12-17T13:09:42.000Z</time>
      </trkpt>
      <trkpt lat="43.34145" lon="5.97555">
        <ele>370</ele>
        <time>2019-12-17T13:09:43.000Z</time>
      </trkpt>
      <trkpt lat="43.34146" lon="5.97554">
        <ele>370</ele>
        <time>2019-12-17T13:09:44.000Z</time>
      </trkpt>
      <trkpt lat="43.34147" lon="5.97554">
        <ele>371</ele>
        <time>2019-12-17T13:09:45.000Z</time>
      </trkpt>
      <trkpt lat="43.34148" lon="5.97553">
        <ele>371</ele>
        <time>2019-12-17T13:09:46.000Z</time>
      </trkpt>
      <trkpt lat="43.34148" lon="5.97553">
        <ele>371</ele>
        <time>2019-12-17T13:09:47.000Z</time>
      </trkpt>
      <trkpt lat="43.34149" lon="5.97552">
        <ele>371</ele>
        <time>2019-12-17T13:09:48.000Z</time>
      </trkpt>
      <trkpt lat="43.34151" lon="5.97551">
        <ele>371</ele>
        <time>2019-12-17T13:09:49.000Z</time>
      </trkpt>
      <trkpt lat="43.34152" lon="5.97551">
        <ele>371</ele>
        <time>2019-12-17T13:09:50.000Z</time>
      </trkpt>
      <trkpt lat="43.34153" lon="5.9755">
        <ele>371</ele>
        <time>2019-12-17T13:09:51.000Z</time>
      </trkpt>
      <trkpt lat="43.34154" lon="5.97549">
        <ele>371</ele>
        <time>2019-12-17T13:09:52.000Z</time>
      </trkpt>
      <trkpt lat="43.34155" lon="5.97548">
        <ele>372</ele>
        <time>2019-12-17T13:09:53.000Z</time>
      </trkpt>
      <trkpt lat="43.34156" lon="5.97547">
        <ele>372</ele>
        <time>2019-12-17T13:09:54.000Z</time>
      </trkpt>
      <trkpt lat="43.34157" lon="5.97547">
        <ele>372</ele>
        <time>2019-12-17T13:09:55.000Z</time>
      </trkpt>
      <trkpt lat="43.34158" lon="5.97546">
        <ele>372</ele>
        <time>2019-12-17T13:09:56.000Z</time>
      </trkpt>
      <trkpt lat="43.34159" lon="5.97545">
        <ele>372</ele>
        <time>2019-12-17T13:09:57.000Z</time>
      </trkpt>
      <trkpt lat="43.3416" lon="5.97545">
        <ele>372</ele>
        <time>2019-12-17T13:09:58.000Z</time>
      </trkpt>
      <trkpt lat="43.34161" lon="5.97545">
        <ele>372</ele>
        <time>2019-12-17T13:09:59.000Z</time>
      </trkpt>
      <trkpt lat="43.34162" lon="5.97544">
        <ele>373</ele>
        <time>2019-12-17T13:10:00.000Z</time>
      </trkpt>
      <trkpt lat="43.34163" lon="5.97544">
        <ele>373</ele>
        <time>2019-12-17T13:10:01.000Z</time>
      </trkpt>
      <trkpt lat="43.34164" lon="5.97543">
        <ele>373</ele>
        <time>2019-12-17T13:10:02.000Z</time>
      </trkpt>
      <trkpt lat="43.34165" lon="5.97542">
        <ele>373</ele>
        <time>2019-12-17T13:10:03.000Z</time>
      </trkpt>
      <trkpt lat="43.34165" lon="5.97542">
        <ele>373</ele>
        <time>2019-12-17T13:10:04.000Z</time>
      </trkpt>
      <trkpt lat="43.34166" lon="5.97541">
        <ele>373</ele>
        <time>2019-12-17T13:10:05.000Z</time>
      </trkpt>
      <trkpt lat="43.34167" lon="5.9754">
        <ele>373</ele>
        <time>2019-12-17T13:10:06.000Z</time>
      </trkpt>
      <trkpt lat="43.34168" lon="5.97539">
        <ele>374</ele>
        <time>2019-12-17T13:10:07.000Z</time>
      </trkpt>
      <trkpt lat="43.34169" lon="5.97539">
        <ele>374</ele>
        <time>2019-12-17T13:10:08.000Z</time>
      </trkpt>
      <trkpt lat="43.3417" lon="5.97538">
        <ele>374</ele>
        <time>2019-12-17T13:10:09.000Z</time>
      </trkpt>
      <trkpt lat="43.34171" lon="5.97537">
        <ele>374</ele>
        <time>2019-12-17T13:10:10.000Z</time>
      </trkpt>
      <trkpt lat="43.34172" lon="5.97537">
        <ele>374</ele>
        <time>2019-12-17T13:10:11.000Z</time>
      </trkpt>
      <trkpt lat="43.34173" lon="5.97536">
        <ele>374</ele>
        <time>2019-12-17T13:10:12.000Z</time>
      </trkpt>
      <trkpt lat="43.34173" lon="5.97535">
        <ele>374</ele>
        <time>2019-12-17T13:10:13.000Z</time>
      </trkpt>
      <trkpt lat="43.34174" lon="5.97534">
        <ele>374</ele>
        <time>2019-12-17T13:10:14.000Z</time>
      </trkpt>
      <trkpt lat="43.34175" lon="5.97534">
        <ele>374</ele>
        <time>2019-12-17T13:10:15.000Z</time>
      </trkpt>
      <trkpt lat="43.34177" lon="5.97533">
        <ele>374</ele>
        <time>2019-12-17T13:10:16.000Z</time>
      </trkpt>
      <trkpt lat="43.34178" lon="5.97533">
        <ele>374</ele>
        <time>2019-12-17T13:10:17.000Z</time>
      </trkpt>
      <trkpt lat="43.34179" lon="5.97532">
        <ele>374</ele>
        <time>2019-12-17T13:10:18.000Z</time>
      </trkpt>
      <trkpt lat="43.3418" lon="5.97532">
        <ele>374</ele>
        <time>2019-12-17T13:10:19.000Z</time>
      </trkpt>
      <trkpt lat="43.34181" lon="5.97531">
        <ele>374</ele>
        <time>2019-12-17T13:10:20.000Z</time>
      </trkpt>
      <trkpt lat="43.34182" lon="5.9753">
        <ele>374</ele>
        <time>2019-12-17T13:10:21.000Z</time>
      </trkpt>
      <trkpt lat="43.34183" lon="5.9753">
        <ele>374</ele>
        <time>2019-12-17T13:10:22.000Z</time>
      </trkpt>
      <trkpt lat="43.34184" lon="5.9753">
        <ele>374</ele>
        <time>2019-12-17T13:10:23.000Z</time>
      </trkpt>
      <trkpt lat="43.34185" lon="5.97529">
        <ele>374</ele>
        <time>2019-12-17T13:10:24.000Z</time>
      </trkpt>
      <trkpt lat="43.34186" lon="5.97529">
        <ele>374</ele>
        <time>2019-12-17T13:10:25.000Z</time>
      </trkpt>
      <trkpt lat="43.34187" lon="5.97528">
        <ele>374</ele>
        <time>2019-12-17T13:10:26.000Z</time>
      </trkpt>
      <trkpt lat="43.34188" lon="5.97528">
        <ele>374</ele>
        <time>2019-12-17T13:10:27.000Z</time>
      </trkpt>
      <trkpt lat="43.3419" lon="5.97527">
        <ele>374</ele>
        <time>2019-12-17T13:10:28.000Z</time>
      </trkpt>
      <trkpt lat="43.34191" lon="5.97527">
        <ele>374</ele>
        <time>2019-12-17T13:10:29.000Z</time>
      </trkpt>
      <trkpt lat="43.34192" lon="5.97526">
        <ele>374</ele>
        <time>2019-12-17T13:10:30.000Z</time>
      </trkpt>
      <trkpt lat="43.34193" lon="5.97525">
        <ele>374</ele>
        <time>2019-12-17T13:10:31.000Z</time>
      </trkpt>
      <trkpt lat="43.34194" lon="5.97525">
        <ele>374</ele>
        <time>2019-12-17T13:10:32.000Z</time>
      </trkpt>
      <trkpt lat="43.34195" lon="5.97524">
        <ele>374</ele>
        <time>2019-12-17T13:10:33.000Z</time>
      </trkpt>
      <trkpt lat="43.34197" lon="5.97523">
        <ele>374</ele>
        <time>2019-12-17T13:10:34.000Z</time>
      </trkpt>
      <trkpt lat="43.34198" lon="5.97523">
        <ele>374</ele>
        <time>2019-12-17T13:10:35.000Z</time>
      </trkpt>
      <trkpt lat="43.34199" lon="5.97522">
        <ele>374</ele>
        <time>2019-12-17T13:10:36.000Z</time>
      </trkpt>
      <trkpt lat="43.342" lon="5.97521">
        <ele>374</ele>
        <time>2019-12-17T13:10:37.000Z</time>
      </trkpt>
      <trkpt lat="43.34201" lon="5.9752">
        <ele>374</ele>
        <time>2019-12-17T13:10:38.000Z</time>
      </trkpt>
      <trkpt lat="43.34202" lon="5.9752">
        <ele>374</ele>
        <time>2019-12-17T13:10:39.000Z</time>
      </trkpt>
      <trkpt lat="43.34203" lon="5.97519">
        <ele>374</ele>
        <time>2019-12-17T13:10:40.000Z</time>
      </trkpt>
      <trkpt lat="43.34204" lon="5.97519">
        <ele>374</ele>
        <time>2019-12-17T13:10:41.000Z</time>
      </trkpt>
      <trkpt lat="43.34205" lon="5.97518">
        <ele>374</ele>
        <time>2019-12-17T13:10:42.000Z</time>
      </trkpt>
      <trkpt lat="43.34206" lon="5.97518">
        <ele>374</ele>
        <time>2019-12-17T13:10:43.000Z</time>
      </trkpt>
      <trkpt lat="43.34208" lon="5.97517">
        <ele>374</ele>
        <time>2019-12-17T13:10:44.000Z</time>
      </trkpt>
      <trkpt lat="43.34209" lon="5.97516">
        <ele>374</ele>
        <time>2019-12-17T13:10:45.000Z</time>
      </trkpt>
      <trkpt lat="43.3421" lon="5.97516">
        <ele>374</ele>
        <time>2019-12-17T13:10:46.000Z</time>
      </trkpt>
      <trkpt lat="43.34211" lon="5.97515">
        <ele>374</ele>
        <time>2019-12-17T13:10:47.000Z</time>
      </trkpt>
      <trkpt lat="43.34212" lon="5.97515">
        <ele>374</ele>
        <time>2019-12-17T13:10:48.000Z</time>
      </trkpt>
      <trkpt lat="43.34213" lon="5.97514">
        <ele>374</ele>
        <time>2019-12-17T13:10:49.000Z</time>
      </trkpt>
      <trkpt lat="43.34214" lon="5.97514">
        <ele>374</ele>
        <time>2019-12-17T13:10:50.000Z</time>
      </trkpt>
      <trkpt lat="43.34215" lon="5.97513">
        <ele>373</ele>
        <time>2019-12-17T13:10:51.000Z</time>
      </trkpt>
      <trkpt lat="43.34216" lon="5.97513">
        <ele>373</ele>
        <time>2019-12-17T13:10:52.000Z</time>
      </trkpt>
      <trkpt lat="43.34217" lon="5.97512">
        <ele>373</ele>
        <time>2019-12-17T13:10:53.000Z</time>
      </trkpt>
      <trkpt lat="43.34219" lon="5.97512">
        <ele>373</ele>
        <time>2019-12-17T13:10:54.000Z</time>
      </trkpt>
      <trkpt lat="43.3422" lon="5.97511">
        <ele>373</ele>
        <time>2019-12-17T13:10:55.000Z</time>
      </trkpt>
      <trkpt lat="43.34221" lon="5.9751">
        <ele>373</ele>
        <time>2019-12-17T13:10:56.000Z</time>
      </trkpt>
      <trkpt lat="43.34222" lon="5.97509">
        <ele>373</ele>
        <time>2019-12-17T13:10:57.000Z</time>
      </trkpt>
      <trkpt lat="43.34223" lon="5.97509">
        <ele>373</ele>
        <time>2019-12-17T13:10:58.000Z</time>
      </trkpt>
      <trkpt lat="43.34224" lon="5.97508">
        <ele>373</ele>
        <time>2019-12-17T13:10:59.000Z</time>
      </trkpt>
      <trkpt lat="43.34225" lon="5.97507">
        <ele>373</ele>
        <time>2019-12-17T13:11:00.000Z</time>
      </trkpt>
      <trkpt lat="43.34226" lon="5.97507">
        <ele>373</ele>
        <time>2019-12-17T13:11:01.000Z</time>
      </trkpt>
      <trkpt lat="43.34228" lon="5.97506">
        <ele>373</ele>
        <time>2019-12-17T13:11:02.000Z</time>
      </trkpt>
      <trkpt lat="43.34229" lon="5.97506">
        <ele>373</ele>
        <time>2019-12-17T13:11:03.000Z</time>
      </trkpt>
      <trkpt lat="43.34229" lon="5.97505">
        <ele>373</ele>
        <time>2019-12-17T13:11:04.000Z</time>
      </trkpt>
      <trkpt lat="43.3423" lon="5.97504">
        <ele>373</ele>
        <time>2019-12-17T13:11:05.000Z</time>
      </trkpt>
      <trkpt lat="43.34231" lon="5.97504">
        <ele>374</ele>
        <time>2019-12-17T13:11:06.000Z</time>
      </trkpt>
      <trkpt lat="43.34232" lon="5.97503">
        <ele>374</ele>
        <time>2019-12-17T13:11:07.000Z</time>
      </trkpt>
      <trkpt lat="43.34233" lon="5.97503">
        <ele>374</ele>
        <time>2019-12-17T13:11:08.000Z</time>
      </trkpt>
      <trkpt lat="43.34234" lon="5.97502">
        <ele>374</ele>
        <time>2019-12-17T13:11:09.000Z</time>
      </trkpt>
      <trkpt lat="43.34235" lon="5.97502">
        <ele>374</ele>
        <time>2019-12-17T13:11:10.000Z</time>
      </trkpt>
      <trkpt lat="43.34236" lon="5.97501">
        <ele>374</ele>
        <time>2019-12-17T13:11:11.000Z</time>
      </trkpt>
      <trkpt lat="43.34237" lon="5.97501">
        <ele>374</ele>
        <time>2019-12-17T13:11:12.000Z</time>
      </trkpt>
      <trkpt lat="43.34238" lon="5.975">
        <ele>374</ele>
        <time>2019-12-17T13:11:13.000Z</time>
      </trkpt>
      <trkpt lat="43.34239" lon="5.97499">
        <ele>374</ele>
        <time>2019-12-17T13:11:14.000Z</time>
      </trkpt>
      <trkpt lat="43.3424" lon="5.97499">
        <ele>374</ele>
        <time>2019-12-17T13:11:15.000Z</time>
      </trkpt>
      <trkpt lat="43.34241" lon="5.97499">
        <ele>374</ele>
        <time>2019-12-17T13:11:16.000Z</time>
      </trkpt>
      <trkpt lat="43.34242" lon="5.97498">
        <ele>374</ele>
        <time>2019-12-17T13:11:17.000Z</time>
      </trkpt>
      <trkpt lat="43.34243" lon="5.97497">
        <ele>374</ele>
        <time>2019-12-17T13:11:18.000Z</time>
      </trkpt>
      <trkpt lat="43.34244" lon="5.97497">
        <ele>374</ele>
        <time>2019-12-17T13:11:19.000Z</time>
      </trkpt>
      <trkpt lat="43.34245" lon="5.97496">
        <ele>374</ele>
        <time>2019-12-17T13:11:20.000Z</time>
      </trkpt>
      <trkpt lat="43.34246" lon="5.97495">
        <ele>375</ele>
        <time>2019-12-17T13:11:21.000Z</time>
      </trkpt>
      <trkpt lat="43.34247" lon="5.97495">
        <ele>375</ele>
        <time>2019-12-17T13:11:22.000Z</time>
      </trkpt>
      <trkpt lat="43.34249" lon="5.97494">
        <ele>375</ele>
        <time>2019-12-17T13:11:23.000Z</time>
      </trkpt>
      <trkpt lat="43.3425" lon="5.97494">
        <ele>375</ele>
        <time>2019-12-17T13:11:24.000Z</time>
      </trkpt>
      <trkpt lat="43.3425" lon="5.97493">
        <ele>375</ele>
        <time>2019-12-17T13:11:25.000Z</time>
      </trkpt>
      <trkpt lat="43.34251" lon="5.97493">
        <ele>375</ele>
        <time>2019-12-17T13:11:26.000Z</time>
      </trkpt>
      <trkpt lat="43.34252" lon="5.97493">
        <ele>375</ele>
        <time>2019-12-17T13:11:27.000Z</time>
      </trkpt>
      <trkpt lat="43.34253" lon="5.97492">
        <ele>375</ele>
        <time>2019-12-17T13:11:28.000Z</time>
      </trkpt>
      <trkpt lat="43.34254" lon="5.97491">
        <ele>376</ele>
        <time>2019-12-17T13:11:29.000Z</time>
      </trkpt>
      <trkpt lat="43.34255" lon="5.9749">
        <ele>376</ele>
        <time>2019-12-17T13:11:30.000Z</time>
      </trkpt>
      <trkpt lat="43.34256" lon="5.97489">
        <ele>376</ele>
        <time>2019-12-17T13:11:31.000Z</time>
      </trkpt>
      <trkpt lat="43.34257" lon="5.97488">
        <ele>376</ele>
        <time>2019-12-17T13:11:32.000Z</time>
      </trkpt>
      <trkpt lat="43.34257" lon="5.97487">
        <ele>376</ele>
        <time>2019-12-17T13:11:33.000Z</time>
      </trkpt>
      <trkpt lat="43.34258" lon="5.97485">
        <ele>376</ele>
        <time>2019-12-17T13:11:34.000Z</time>
      </trkpt>
      <trkpt lat="43.34259" lon="5.97484">
        <ele>376</ele>
        <time>2019-12-17T13:11:35.000Z</time>
      </trkpt>
      <trkpt lat="43.3426" lon="5.97483">
        <ele>376</ele>
        <time>2019-12-17T13:11:36.000Z</time>
      </trkpt>
      <trkpt lat="43.34261" lon="5.97482">
        <ele>376</ele>
        <time>2019-12-17T13:11:37.000Z</time>
      </trkpt>
      <trkpt lat="43.34262" lon="5.97482">
        <ele>376</ele>
        <time>2019-12-17T13:11:38.000Z</time>
      </trkpt>
      <trkpt lat="43.34263" lon="5.97481">
        <ele>376</ele>
        <time>2019-12-17T13:11:39.000Z</time>
      </trkpt>
      <trkpt lat="43.34264" lon="5.9748">
        <ele>376</ele>
        <time>2019-12-17T13:11:40.000Z</time>
      </trkpt>
      <trkpt lat="43.34265" lon="5.9748">
        <ele>376</ele>
        <time>2019-12-17T13:11:41.000Z</time>
      </trkpt>
      <trkpt lat="43.34266" lon="5.97479">
        <ele>376</ele>
        <time>2019-12-17T13:11:42.000Z</time>
      </trkpt>
      <trkpt lat="43.34266" lon="5.97479">
        <ele>376</ele>
        <time>2019-12-17T13:11:43.000Z</time>
      </trkpt>
      <trkpt lat="43.34267" lon="5.97478">
        <ele>376</ele>
        <time>2019-12-17T13:11:44.000Z</time>
      </trkpt>
      <trkpt lat="43.34268" lon="5.97478">
        <ele>376</ele>
        <time>2019-12-17T13:11:45.000Z</time>
      </trkpt>
      <trkpt lat="43.34269" lon="5.97478">
        <ele>376</ele>
        <time>2019-12-17T13:11:46.000Z</time>
      </trkpt>
      <trkpt lat="43.3427" lon="5.97477">
        <ele>376</ele>
        <time>2019-12-17T13:11:47.000Z</time>
      </trkpt>
      <trkpt lat="43.34271" lon="5.97477">
        <ele>376</ele>
        <time>2019-12-17T13:11:48.000Z</time>
      </trkpt>
      <trkpt lat="43.34272" lon="5.97476">
        <ele>375</ele>
        <time>2019-12-17T13:11:49.000Z</time>
      </trkpt>
      <trkpt lat="43.34272" lon="5.97475">
        <ele>375</ele>
        <time>2019-12-17T13:11:50.000Z</time>
      </trkpt>
      <trkpt lat="43.34272" lon="5.97473">
        <ele>375</ele>
        <time>2019-12-17T13:11:51.000Z</time>
      </trkpt>
      <trkpt lat="43.34272" lon="5.97472">
        <ele>375</ele>
        <time>2019-12-17T13:11:52.000Z</time>
      </trkpt>
      <trkpt lat="43.34272" lon="5.97471">
        <ele>375</ele>
        <time>2019-12-17T13:11:53.000Z</time>
      </trkpt>
      <trkpt lat="43.34272" lon="5.97469">
        <ele>375</ele>
        <time>2019-12-17T13:11:54.000Z</time>
      </trkpt>
      <trkpt lat="43.34272" lon="5.97468">
        <ele>375</ele>
        <time>2019-12-17T13:11:55.000Z</time>
      </trkpt>
      <trkpt lat="43.34271" lon="5.97466">
        <ele>374</ele>
        <time>2019-12-17T13:11:56.000Z</time>
      </trkpt>
      <trkpt lat="43.34271" lon="5.97465">
        <ele>374</ele>
        <time>2019-12-17T13:11:57.000Z</time>
      </trkpt>
      <trkpt lat="43.34271" lon="5.97464">
        <ele>374</ele>
        <time>2019-12-17T13:11:58.000Z</time>
      </trkpt>
      <trkpt lat="43.3427" lon="5.97462">
        <ele>374</ele>
        <time>2019-12-17T13:11:59.000Z</time>
      </trkpt>
      <trkpt lat="43.3427" lon="5.97461">
        <ele>374</ele>
        <time>2019-12-17T13:12:00.000Z</time>
      </trkpt>
      <trkpt lat="43.34269" lon="5.9746">
        <ele>374</ele>
        <time>2019-12-17T13:12:01.000Z</time>
      </trkpt>
      <trkpt lat="43.34269" lon="5.97459">
        <ele>374</ele>
        <time>2019-12-17T13:12:02.000Z</time>
      </trkpt>
      <trkpt lat="43.34268" lon="5.97458">
        <ele>374</ele>
        <time>2019-12-17T13:12:03.000Z</time>
      </trkpt>
      <trkpt lat="43.34268" lon="5.97457">
        <ele>373</ele>
        <time>2019-12-17T13:12:04.000Z</time>
      </trkpt>
      <trkpt lat="43.34268" lon="5.97457">
        <ele>373</ele>
        <time>2019-12-17T13:12:05.000Z</time>
      </trkpt>
      <trkpt lat="43.34269" lon="5.97456">
        <ele>373</ele>
        <time>2019-12-17T13:12:06.000Z</time>
      </trkpt>
      <trkpt lat="43.34269" lon="5.97456">
        <ele>373</ele>
        <time>2019-12-17T13:12:07.000Z</time>
      </trkpt>
      <trkpt lat="43.34269" lon="5.97456">
        <ele>373</ele>
        <time>2019-12-17T13:12:08.000Z</time>
      </trkpt>
      <trkpt lat="43.34269" lon="5.97456">
        <ele>373</ele>
        <time>2019-12-17T13:12:09.000Z</time>
      </trkpt>
      <trkpt lat="43.34269" lon="5.97456">
        <ele>373</ele>
        <time>2019-12-17T13:12:10.000Z</time>
      </trkpt>
    </trkseg>
  </trk>
</gpx>